<?xml version="1.0" encoding="UTF-8" standalone="no" ?>
<gpx xmlns="http://www.topografix.com/GPX/1/1" xmlns:xsi="http://www.w3.org/2001/XMLSchema-instance" xsi:schemaLocation="http://www.topografix.com/GPX/1/1 http://www.topografix.com/GPX/1/1/gpx.xsd" version="1.1" creator="VisuGPX - https://www.visugpx.com">
  <metadata>
    <name>DB Clem split</name>
  </metadata>
  <wpt lat="42.20966" lon="-1.51524">
    <ele>292.9</ele>
    <name><![CDATA[CP1]]></name>
  </wpt>
  <wpt lat="40.40677" lon="-1.44426">
    <ele>1162.2</ele>
    <name><![CDATA[CP2]]></name>
  </wpt>
  <wpt lat="37.54317" lon="-3.04779">
    <ele>794.7</ele>
    <name><![CDATA[CP3]]></name>
  </wpt>
  <wpt lat="37.04445" lon="-2.52483">
    <ele>472.4</ele>
    <name><![CDATA[CP4]]></name>
  </wpt>
  <trk>
    <name><![CDATA[DB Clem cp3]]></name>
    <trkseg>
      <trkpt lat="40.40675" lon="-1.44428">
        <ele>1148.37824</ele>
        <time>2022-02-23T02:27:29.711Z</time>
      </trkpt>
      <trkpt lat="40.40676" lon="-1.44426">
        <ele>1148.261169</ele>
        <time>2022-02-23T02:27:31.284Z</time>
      </trkpt>
      <trkpt lat="40.40675" lon="-1.44428">
        <ele>1148.144097</ele>
        <time>2022-02-23T02:27:32.845Z</time>
      </trkpt>
      <trkpt lat="40.40685" lon="-1.44427">
        <ele>1147.620374</ele>
        <time>2022-02-23T02:27:34.420Z</time>
      </trkpt>
      <trkpt lat="40.40707" lon="-1.44433">
        <ele>1146.454364</ele>
        <time>2022-02-23T02:27:38.075Z</time>
      </trkpt>
      <trkpt lat="40.40712" lon="-1.44432">
        <ele>1146.220487</ele>
        <time>2022-02-23T02:27:38.974Z</time>
      </trkpt>
      <trkpt lat="40.40713" lon="-1.44432">
        <ele>1146.184078</ele>
        <time>2022-02-23T02:27:39.076Z</time>
      </trkpt>
      <trkpt lat="40.40715" lon="-1.44423">
        <ele>1145.801395</ele>
        <time>2022-02-23T02:27:40.220Z</time>
      </trkpt>
      <trkpt lat="40.40724" lon="-1.44417">
        <ele>1145.302137</ele>
        <time>2022-02-23T02:27:41.801Z</time>
      </trkpt>
      <trkpt lat="40.40734" lon="-1.44409">
        <ele>1144.686212</ele>
        <time>2022-02-23T02:27:43.746Z</time>
      </trkpt>
      <trkpt lat="40.4074" lon="-1.44403">
        <ele>1144.284249</ele>
        <time>2022-02-23T02:27:45.040Z</time>
      </trkpt>
      <trkpt lat="40.40773" lon="-1.44369">
        <ele>1142.192667</ele>
        <time>2022-02-23T02:27:51.527Z</time>
      </trkpt>
      <trkpt lat="40.40765" lon="-1.44354">
        <ele>1141.491183</ele>
        <time>2022-02-23T02:28:01.214Z</time>
      </trkpt>
      <trkpt lat="40.40776" lon="-1.44353">
        <ele>1140.915784</ele>
        <time>2022-02-23T02:28:02.963Z</time>
      </trkpt>
      <trkpt lat="40.40782" lon="-1.44345">
        <ele>1140.484442</ele>
        <time>2022-02-23T02:28:04.378Z</time>
      </trkpt>
      <trkpt lat="40.40805" lon="-1.44307">
        <ele>1138.662137</ele>
        <time>2022-02-23T02:28:10.217Z</time>
      </trkpt>
      <trkpt lat="40.40808" lon="-1.44299">
        <ele>1138.302008</ele>
        <time>2022-02-23T02:28:11.371Z</time>
      </trkpt>
      <trkpt lat="40.40805" lon="-1.4429">
        <ele>1137.931627</ele>
        <time>2022-02-23T02:28:12.581Z</time>
      </trkpt>
      <trkpt lat="40.40808" lon="-1.4424">
        <ele>1136.021004</ele>
        <time>2022-02-23T02:28:18.980Z</time>
      </trkpt>
      <trkpt lat="40.40793" lon="-1.44216">
        <ele>1135.103938</ele>
        <time>2022-02-23T02:28:23.342Z</time>
      </trkpt>
      <trkpt lat="40.40799" lon="-1.44202">
        <ele>1135.397848</ele>
        <time>2022-02-23T02:28:26.178Z</time>
      </trkpt>
      <trkpt lat="40.40811" lon="-1.44154">
        <ele>1136.308221</ele>
        <time>2022-02-23T02:28:36.684Z</time>
      </trkpt>
      <trkpt lat="40.40808" lon="-1.44093">
        <ele>1137.393093</ele>
        <time>2022-02-23T02:28:53.089Z</time>
      </trkpt>
      <trkpt lat="40.408" lon="-1.4405">
        <ele>1138.199017</ele>
        <time>2022-02-23T02:29:11.219Z</time>
      </trkpt>
      <trkpt lat="40.40795" lon="-1.44019">
        <ele>1138.772835</ele>
        <time>2022-02-23T02:29:25.505Z</time>
      </trkpt>
      <trkpt lat="40.40796" lon="-1.43994">
        <ele>1139.209924</ele>
        <time>2022-02-23T02:29:32.038Z</time>
      </trkpt>
      <trkpt lat="40.40791" lon="-1.43985">
        <ele>1139.272676</ele>
        <time>2022-02-23T02:29:39.217Z</time>
      </trkpt>
      <trkpt lat="40.40813" lon="-1.43956">
        <ele>1139.343368</ele>
        <time>2022-02-23T02:29:48.178Z</time>
      </trkpt>
      <trkpt lat="40.40795" lon="-1.43943">
        <ele>1139.389611</ele>
        <time>2022-02-23T02:29:53.857Z</time>
      </trkpt>
      <trkpt lat="40.40792" lon="-1.4394">
        <ele>1139.397341</ele>
        <time>2022-02-23T02:29:54.407Z</time>
      </trkpt>
      <trkpt lat="40.40778" lon="-1.43923">
        <ele>1139.441869</ele>
        <time>2022-02-23T02:30:03.307Z</time>
      </trkpt>
      <trkpt lat="40.40775" lon="-1.4389">
        <ele>1139.500221</ele>
        <time>2022-02-23T02:30:07.698Z</time>
      </trkpt>
      <trkpt lat="40.40814" lon="-1.43778">
        <ele>1138.889008</ele>
        <time>2022-02-23T02:30:25.546Z</time>
      </trkpt>
      <trkpt lat="40.40838" lon="-1.43717">
        <ele>1136.753339</ele>
        <time>2022-02-23T02:30:33.901Z</time>
      </trkpt>
      <trkpt lat="40.40843" lon="-1.43705">
        <ele>1136.31358</ele>
        <time>2022-02-23T02:30:35.545Z</time>
      </trkpt>
      <trkpt lat="40.40865" lon="-1.43649">
        <ele>1134.378272</ele>
        <time>2022-02-23T02:30:42.894Z</time>
      </trkpt>
      <trkpt lat="40.40874" lon="-1.43627">
        <ele>1133.629761</ele>
        <time>2022-02-23T02:30:45.833Z</time>
      </trkpt>
      <trkpt lat="40.40905" lon="-1.4357">
        <ele>1132.601415</ele>
        <time>2022-02-23T02:30:55.114Z</time>
      </trkpt>
      <trkpt lat="40.40926" lon="-1.43544">
        <ele>1132.887948</ele>
        <time>2022-02-23T02:31:00.588Z</time>
      </trkpt>
      <trkpt lat="40.4096" lon="-1.43519">
        <ele>1133.279975</ele>
        <time>2022-02-23T02:31:09.834Z</time>
      </trkpt>
      <trkpt lat="40.40974" lon="-1.43497">
        <ele>1133.497715</ele>
        <time>2022-02-23T02:31:16.727Z</time>
      </trkpt>
      <trkpt lat="40.40982" lon="-1.43469">
        <ele>1133.728479</ele>
        <time>2022-02-23T02:31:25.152Z</time>
      </trkpt>
      <trkpt lat="40.40985" lon="-1.43458">
        <ele>1133.819043</ele>
        <time>2022-02-23T02:31:29.339Z</time>
      </trkpt>
      <trkpt lat="40.40991" lon="-1.43423">
        <ele>1134.095409</ele>
        <time>2022-02-23T02:31:41.038Z</time>
      </trkpt>
      <trkpt lat="40.40986" lon="-1.43397">
        <ele>1134.927365</ele>
        <time>2022-02-23T02:31:50.372Z</time>
      </trkpt>
      <trkpt lat="40.40977" lon="-1.43379">
        <ele>1135.897764</ele>
        <time>2022-02-23T02:31:57.311Z</time>
      </trkpt>
      <trkpt lat="40.4097" lon="-1.43372">
        <ele>1136.501461</ele>
        <time>2022-02-23T02:32:02.238Z</time>
      </trkpt>
      <trkpt lat="40.40953" lon="-1.43352">
        <ele>1137.888442</ele>
        <time>2022-02-23T02:32:13.189Z</time>
      </trkpt>
      <trkpt lat="40.40899" lon="-1.43286">
        <ele>1142.412187</ele>
        <time>2022-02-23T02:32:55.049Z</time>
      </trkpt>
      <trkpt lat="40.4084" lon="-1.43145">
        <ele>1149.276085</ele>
        <time>2022-02-23T02:34:07.595Z</time>
      </trkpt>
      <trkpt lat="40.40831" lon="-1.43076">
        <ele>1152.109761</ele>
        <time>2022-02-23T02:34:30.948Z</time>
      </trkpt>
      <trkpt lat="40.40824" lon="-1.43059">
        <ele>1152.864174</ele>
        <time>2022-02-23T02:34:36.725Z</time>
      </trkpt>
      <trkpt lat="40.40791" lon="-1.43019">
        <ele>1155.042256</ele>
        <time>2022-02-23T02:34:54.255Z</time>
      </trkpt>
      <trkpt lat="40.40733" lon="-1.42991">
        <ele>1157.027063</ele>
        <time>2022-02-23T02:35:16.788Z</time>
      </trkpt>
      <trkpt lat="40.40578" lon="-1.42872">
        <ele>1163.233441</ele>
        <time>2022-02-23T02:36:26.608Z</time>
      </trkpt>
      <trkpt lat="40.40527" lon="-1.42825">
        <ele>1165.585876</ele>
        <time>2022-02-23T02:36:51.470Z</time>
      </trkpt>
      <trkpt lat="40.40461" lon="-1.42751">
        <ele>1170.105759</ele>
        <time>2022-02-23T02:37:29.529Z</time>
      </trkpt>
      <trkpt lat="40.40444" lon="-1.42741">
        <ele>1171.341766</ele>
        <time>2022-02-23T02:37:39.485Z</time>
      </trkpt>
      <trkpt lat="40.40393" lon="-1.4273">
        <ele>1174.902883</ele>
        <time>2022-02-23T02:38:10.578Z</time>
      </trkpt>
      <trkpt lat="40.40345" lon="-1.42703">
        <ele>1178.473344</ele>
        <time>2022-02-23T02:38:42.118Z</time>
      </trkpt>
      <trkpt lat="40.40298" lon="-1.42678">
        <ele>1182.349056</ele>
        <time>2022-02-23T02:39:16.162Z</time>
      </trkpt>
      <trkpt lat="40.40215" lon="-1.42671">
        <ele>1188.969626</ele>
        <time>2022-02-23T02:40:11.386Z</time>
      </trkpt>
      <trkpt lat="40.40173" lon="-1.42644">
        <ele>1192.787145</ele>
        <time>2022-02-23T02:40:41.557Z</time>
      </trkpt>
      <trkpt lat="40.40144" lon="-1.42611">
        <ele>1195.263718</ele>
        <time>2022-02-23T02:41:00.644Z</time>
      </trkpt>
      <trkpt lat="40.40084" lon="-1.42509">
        <ele>1200.477584</ele>
        <time>2022-02-23T02:41:44.774Z</time>
      </trkpt>
      <trkpt lat="40.40015" lon="-1.4244">
        <ele>1205.507149</ele>
        <time>2022-02-23T02:42:27.923Z</time>
      </trkpt>
      <trkpt lat="40.40004" lon="-1.4243">
        <ele>1206.412428</ele>
        <time>2022-02-23T02:42:35.044Z</time>
      </trkpt>
      <trkpt lat="40.39985" lon="-1.42426">
        <ele>1207.662158</ele>
        <time>2022-02-23T02:42:44.585Z</time>
      </trkpt>
      <trkpt lat="40.3995" lon="-1.4243">
        <ele>1210.027896</ele>
        <time>2022-02-23T02:43:03.589Z</time>
      </trkpt>
      <trkpt lat="40.39887" lon="-1.42474">
        <ele>1214.789908</ele>
        <time>2022-02-23T02:43:45.161Z</time>
      </trkpt>
      <trkpt lat="40.39866" lon="-1.42496">
        <ele>1216.625783</ele>
        <time>2022-02-23T02:44:04.122Z</time>
      </trkpt>
      <trkpt lat="40.39826" lon="-1.42561">
        <ele>1220.910448</ele>
        <time>2022-02-23T02:44:43.398Z</time>
      </trkpt>
      <trkpt lat="40.39806" lon="-1.42575">
        <ele>1222.373634</ele>
        <time>2022-02-23T02:44:54.521Z</time>
      </trkpt>
      <trkpt lat="40.39785" lon="-1.42579">
        <ele>1223.804452</ele>
        <time>2022-02-23T02:45:07.298Z</time>
      </trkpt>
      <trkpt lat="40.39753" lon="-1.42549">
        <ele>1226.425029</ele>
        <time>2022-02-23T02:45:26.280Z</time>
      </trkpt>
      <trkpt lat="40.3974" lon="-1.42531">
        <ele>1227.697108</ele>
        <time>2022-02-23T02:45:34.504Z</time>
      </trkpt>
      <trkpt lat="40.39721" lon="-1.42465">
        <ele>1230.69809</ele>
        <time>2022-02-23T02:46:01.482Z</time>
      </trkpt>
      <trkpt lat="40.39708" lon="-1.42446">
        <ele>1231.744771</ele>
        <time>2022-02-23T02:46:10.857Z</time>
      </trkpt>
      <trkpt lat="40.39691" lon="-1.42436">
        <ele>1232.8015</ele>
        <time>2022-02-23T02:46:21.546Z</time>
      </trkpt>
      <trkpt lat="40.39622" lon="-1.42421">
        <ele>1236.631113</ele>
        <time>2022-02-23T02:46:53.885Z</time>
      </trkpt>
      <trkpt lat="40.39593" lon="-1.42391">
        <ele>1239.086398</ele>
        <time>2022-02-23T02:47:12.461Z</time>
      </trkpt>
      <trkpt lat="40.39563" lon="-1.42367">
        <ele>1241.894437</ele>
        <time>2022-02-23T02:47:31.363Z</time>
      </trkpt>
      <trkpt lat="40.39471" lon="-1.42343">
        <ele>1249.493313</ele>
        <time>2022-02-23T02:48:32.333Z</time>
      </trkpt>
      <trkpt lat="40.39359" lon="-1.42305">
        <ele>1260.448915</ele>
        <time>2022-02-23T02:49:56.809Z</time>
      </trkpt>
      <trkpt lat="40.39336" lon="-1.42295">
        <ele>1262.902074</ele>
        <time>2022-02-23T02:50:15.949Z</time>
      </trkpt>
      <trkpt lat="40.3926" lon="-1.42244">
        <ele>1271.4151</ele>
        <time>2022-02-23T02:51:16.613Z</time>
      </trkpt>
      <trkpt lat="40.39224" lon="-1.42189">
        <ele>1276.356205</ele>
        <time>2022-02-23T02:51:57.828Z</time>
      </trkpt>
      <trkpt lat="40.39184" lon="-1.42097">
        <ele>1283.60309</ele>
        <time>2022-02-23T02:52:50.898Z</time>
      </trkpt>
      <trkpt lat="40.39111" lon="-1.41949">
        <ele>1292.800433</ele>
        <time>2022-02-23T02:54:10.765Z</time>
      </trkpt>
      <trkpt lat="40.39098" lon="-1.41887">
        <ele>1295.797237</ele>
        <time>2022-02-23T02:54:35.388Z</time>
      </trkpt>
      <trkpt lat="40.39093" lon="-1.41803">
        <ele>1298.269625</ele>
        <time>2022-02-23T02:55:02.202Z</time>
      </trkpt>
      <trkpt lat="40.39102" lon="-1.41625">
        <ele>1300.747498</ele>
        <time>2022-02-23T02:55:39.183Z</time>
      </trkpt>
      <trkpt lat="40.39109" lon="-1.41472">
        <ele>1302.982928</ele>
        <time>2022-02-23T02:56:11.884Z</time>
      </trkpt>
      <trkpt lat="40.39105" lon="-1.41455">
        <ele>1303.246003</ele>
        <time>2022-02-23T02:56:16.472Z</time>
      </trkpt>
      <trkpt lat="40.39026" lon="-1.41262">
        <ele>1308.148563</ele>
        <time>2022-02-23T02:57:21.070Z</time>
      </trkpt>
      <trkpt lat="40.38933" lon="-1.41039">
        <ele>1314.663771</ele>
        <time>2022-02-23T02:58:40.786Z</time>
      </trkpt>
      <trkpt lat="40.38874" lon="-1.40924">
        <ele>1317.418107</ele>
        <time>2022-02-23T02:59:17.007Z</time>
      </trkpt>
      <trkpt lat="40.38847" lon="-1.40764">
        <ele>1319.609819</ele>
        <time>2022-02-23T02:59:53.120Z</time>
      </trkpt>
      <trkpt lat="40.38787" lon="-1.40649">
        <ele>1321.867719</ele>
        <time>2022-02-23T03:00:26.997Z</time>
      </trkpt>
      <trkpt lat="40.38782" lon="-1.40641">
        <ele>1322.039182</ele>
        <time>2022-02-23T03:00:29.779Z</time>
      </trkpt>
      <trkpt lat="40.38775" lon="-1.40627">
        <ele>1322.314063</ele>
        <time>2022-02-23T03:00:33.976Z</time>
      </trkpt>
      <trkpt lat="40.38762" lon="-1.40606">
        <ele>1322.763016</ele>
        <time>2022-02-23T03:00:41.408Z</time>
      </trkpt>
      <trkpt lat="40.38737" lon="-1.40561">
        <ele>1323.681167</ele>
        <time>2022-02-23T03:00:56.610Z</time>
      </trkpt>
      <trkpt lat="40.38726" lon="-1.40542">
        <ele>1324.074296</ele>
        <time>2022-02-23T03:01:03.037Z</time>
      </trkpt>
      <trkpt lat="40.38707" lon="-1.40527">
        <ele>1324.566661</ele>
        <time>2022-02-23T03:01:11.100Z</time>
      </trkpt>
      <trkpt lat="40.38589" lon="-1.4047">
        <ele>1327.303345</ele>
        <time>2022-02-23T03:01:52.522Z</time>
      </trkpt>
      <trkpt lat="40.38494" lon="-1.40423">
        <ele>1329.274481</ele>
        <time>2022-02-23T03:02:22.396Z</time>
      </trkpt>
      <trkpt lat="40.38432" lon="-1.40395">
        <ele>1330.544774</ele>
        <time>2022-02-23T03:02:43.110Z</time>
      </trkpt>
      <trkpt lat="40.38273" lon="-1.40407">
        <ele>1334.82431</ele>
        <time>2022-02-23T03:03:40.666Z</time>
      </trkpt>
      <trkpt lat="40.38059" lon="-1.40286">
        <ele>1342.049579</ele>
        <time>2022-02-23T03:05:08.844Z</time>
      </trkpt>
      <trkpt lat="40.3792" lon="-1.40203">
        <ele>1347.728709</ele>
        <time>2022-02-23T03:06:10.386Z</time>
      </trkpt>
      <trkpt lat="40.37908" lon="-1.40187">
        <ele>1348.348476</ele>
        <time>2022-02-23T03:06:17.308Z</time>
      </trkpt>
      <trkpt lat="40.37866" lon="-1.40176">
        <ele>1350.639344</ele>
        <time>2022-02-23T03:06:43.364Z</time>
      </trkpt>
      <trkpt lat="40.37828" lon="-1.4018">
        <ele>1352.6475</ele>
        <time>2022-02-23T03:07:07.105Z</time>
      </trkpt>
      <trkpt lat="40.37794" lon="-1.40175">
        <ele>1354.511929</ele>
        <time>2022-02-23T03:07:29.953Z</time>
      </trkpt>
      <trkpt lat="40.3777" lon="-1.40177">
        <ele>1355.821373</ele>
        <time>2022-02-23T03:07:45.982Z</time>
      </trkpt>
      <trkpt lat="40.3767" lon="-1.40202">
        <ele>1361.536651</ele>
        <time>2022-02-23T03:08:55.120Z</time>
      </trkpt>
      <trkpt lat="40.37589" lon="-1.40216">
        <ele>1366.258612</ele>
        <time>2022-02-23T03:09:50.233Z</time>
      </trkpt>
      <trkpt lat="40.37566" lon="-1.40227">
        <ele>1367.71216</ele>
        <time>2022-02-23T03:10:06.662Z</time>
      </trkpt>
      <trkpt lat="40.37533" lon="-1.40227">
        <ele>1369.262139</ele>
        <time>2022-02-23T03:10:26.743Z</time>
      </trkpt>
      <trkpt lat="40.37206" lon="-1.40067">
        <ele>1382.509974</ele>
        <time>2022-02-23T03:13:40.710Z</time>
      </trkpt>
      <trkpt lat="40.37148" lon="-1.40044">
        <ele>1384.299401</ele>
        <time>2022-02-23T03:14:12.227Z</time>
      </trkpt>
      <trkpt lat="40.37115" lon="-1.4002">
        <ele>1385.434842</ele>
        <time>2022-02-23T03:14:32.102Z</time>
      </trkpt>
      <trkpt lat="40.37103" lon="-1.4">
        <ele>1386.016147</ele>
        <time>2022-02-23T03:14:42.201Z</time>
      </trkpt>
      <trkpt lat="40.37074" lon="-1.39979">
        <ele>1386.990069</ele>
        <time>2022-02-23T03:14:58.712Z</time>
      </trkpt>
      <trkpt lat="40.37006" lon="-1.39971">
        <ele>1389.292188</ele>
        <time>2022-02-23T03:15:32.963Z</time>
      </trkpt>
      <trkpt lat="40.36962" lon="-1.39956">
        <ele>1390.883508</ele>
        <time>2022-02-23T03:15:57.235Z</time>
      </trkpt>
      <trkpt lat="40.36952" lon="-1.3989">
        <ele>1392.696426</ele>
        <time>2022-02-23T03:16:26.591Z</time>
      </trkpt>
      <trkpt lat="40.36943" lon="-1.39868">
        <ele>1393.363552</ele>
        <time>2022-02-23T03:16:37.560Z</time>
      </trkpt>
      <trkpt lat="40.36923" lon="-1.39834">
        <ele>1394.713173</ele>
        <time>2022-02-23T03:16:56.279Z</time>
      </trkpt>
      <trkpt lat="40.36897" lon="-1.39808">
        <ele>1396.329383</ele>
        <time>2022-02-23T03:17:15.811Z</time>
      </trkpt>
      <trkpt lat="40.36846" lon="-1.39732">
        <ele>1400.122029</ele>
        <time>2022-02-23T03:18:03.320Z</time>
      </trkpt>
      <trkpt lat="40.3682" lon="-1.39707">
        <ele>1401.69835</ele>
        <time>2022-02-23T03:18:24.402Z</time>
      </trkpt>
      <trkpt lat="40.36799" lon="-1.39648">
        <ele>1404.199044</ele>
        <time>2022-02-23T03:18:56.667Z</time>
      </trkpt>
      <trkpt lat="40.36787" lon="-1.396">
        <ele>1406.130988</ele>
        <time>2022-02-23T03:19:21.093Z</time>
      </trkpt>
      <trkpt lat="40.3677" lon="-1.39569">
        <ele>1407.606079</ele>
        <time>2022-02-23T03:19:39.635Z</time>
      </trkpt>
      <trkpt lat="40.36759" lon="-1.39535">
        <ele>1409.04832</ele>
        <time>2022-02-23T03:19:57.089Z</time>
      </trkpt>
      <trkpt lat="40.36751" lon="-1.39494">
        <ele>1410.678736</ele>
        <time>2022-02-23T03:20:16.408Z</time>
      </trkpt>
      <trkpt lat="40.3675" lon="-1.39459">
        <ele>1412.069667</ele>
        <time>2022-02-23T03:20:32.227Z</time>
      </trkpt>
      <trkpt lat="40.36757" lon="-1.39401">
        <ele>1414.418387</ele>
        <time>2022-02-23T03:20:59.914Z</time>
      </trkpt>
      <trkpt lat="40.36771" lon="-1.39385">
        <ele>1415.380514</ele>
        <time>2022-02-23T03:21:10.843Z</time>
      </trkpt>
      <trkpt lat="40.36869" lon="-1.39348">
        <ele>1420.714303</ele>
        <time>2022-02-23T03:22:11.520Z</time>
      </trkpt>
      <trkpt lat="40.36867" lon="-1.39331">
        <ele>1421.434252</ele>
        <time>2022-02-23T03:22:21.738Z</time>
      </trkpt>
      <trkpt lat="40.36775" lon="-1.39226">
        <ele>1432.935955</ele>
        <time>2022-02-23T03:24:01.346Z</time>
      </trkpt>
      <trkpt lat="40.36742" lon="-1.39169">
        <ele>1438.124817</ele>
        <time>2022-02-23T03:24:54.218Z</time>
      </trkpt>
      <trkpt lat="40.36677" lon="-1.39075">
        <ele>1448.124794</ele>
        <time>2022-02-23T03:26:27.172Z</time>
      </trkpt>
      <trkpt lat="40.3662" lon="-1.39021">
        <ele>1455.36576</ele>
        <time>2022-02-23T03:27:28.004Z</time>
      </trkpt>
      <trkpt lat="40.36612" lon="-1.38999">
        <ele>1457.168152</ele>
        <time>2022-02-23T03:27:41.319Z</time>
      </trkpt>
      <trkpt lat="40.36566" lon="-1.3894">
        <ele>1461.388139</ele>
        <time>2022-02-23T03:28:27.889Z</time>
      </trkpt>
      <trkpt lat="40.36549" lon="-1.38926">
        <ele>1462.692997</ele>
        <time>2022-02-23T03:28:41.271Z</time>
      </trkpt>
      <trkpt lat="40.36532" lon="-1.38918">
        <ele>1463.891298</ele>
        <time>2022-02-23T03:28:53.451Z</time>
      </trkpt>
      <trkpt lat="40.36519" lon="-1.3892">
        <ele>1464.784337</ele>
        <time>2022-02-23T03:29:02.103Z</time>
      </trkpt>
      <trkpt lat="40.36462" lon="-1.38964">
        <ele>1469.101278</ele>
        <time>2022-02-23T03:29:45.034Z</time>
      </trkpt>
      <trkpt lat="40.36442" lon="-1.38968">
        <ele>1470.373637</ele>
        <time>2022-02-23T03:29:59.032Z</time>
      </trkpt>
      <trkpt lat="40.36346" lon="-1.3893">
        <ele>1476.59767</ele>
        <time>2022-02-23T03:31:08.829Z</time>
      </trkpt>
      <trkpt lat="40.36335" lon="-1.38917">
        <ele>1477.533992</ele>
        <time>2022-02-23T03:31:18.827Z</time>
      </trkpt>
      <trkpt lat="40.36331" lon="-1.389">
        <ele>1478.363529</ele>
        <time>2022-02-23T03:31:29.377Z</time>
      </trkpt>
      <trkpt lat="40.36334" lon="-1.38887">
        <ele>1479.023908</ele>
        <time>2022-02-23T03:31:36.619Z</time>
      </trkpt>
      <trkpt lat="40.36417" lon="-1.38765">
        <ele>1484.832072</ele>
        <time>2022-02-23T03:32:56.379Z</time>
      </trkpt>
      <trkpt lat="40.3642" lon="-1.3875">
        <ele>1485.344776</ele>
        <time>2022-02-23T03:33:04.323Z</time>
      </trkpt>
      <trkpt lat="40.36409" lon="-1.3873">
        <ele>1486.172932</ele>
        <time>2022-02-23T03:33:14.630Z</time>
      </trkpt>
      <trkpt lat="40.36362" lon="-1.38711">
        <ele>1487.850916</ele>
        <time>2022-02-23T03:33:39.747Z</time>
      </trkpt>
      <trkpt lat="40.3631" lon="-1.38714">
        <ele>1487.127743</ele>
        <time>2022-02-23T03:33:59.341Z</time>
      </trkpt>
      <trkpt lat="40.36279" lon="-1.38724">
        <ele>1486.688007</ele>
        <time>2022-02-23T03:34:10.315Z</time>
      </trkpt>
      <trkpt lat="40.36254" lon="-1.3871">
        <ele>1486.309107</ele>
        <time>2022-02-23T03:34:19.027Z</time>
      </trkpt>
      <trkpt lat="40.36235" lon="-1.38665">
        <ele>1485.762863</ele>
        <time>2022-02-23T03:34:30.919Z</time>
      </trkpt>
      <trkpt lat="40.36216" lon="-1.38647">
        <ele>1485.37014</ele>
        <time>2022-02-23T03:34:37.737Z</time>
      </trkpt>
      <trkpt lat="40.36169" lon="-1.38635">
        <ele>1483.238017</ele>
        <time>2022-02-23T03:34:51.913Z</time>
      </trkpt>
      <trkpt lat="40.36095" lon="-1.38655">
        <ele>1479.884996</ele>
        <time>2022-02-23T03:35:13.502Z</time>
      </trkpt>
      <trkpt lat="40.36037" lon="-1.38645">
        <ele>1477.424318</ele>
        <time>2022-02-23T03:35:30.599Z</time>
      </trkpt>
      <trkpt lat="40.35992" lon="-1.38655">
        <ele>1476.471501</ele>
        <time>2022-02-23T03:35:44.645Z</time>
      </trkpt>
      <trkpt lat="40.35931" lon="-1.38625">
        <ele>1475.123621</ele>
        <time>2022-02-23T03:36:05.655Z</time>
      </trkpt>
      <trkpt lat="40.35873" lon="-1.38569">
        <ele>1473.761235</ele>
        <time>2022-02-23T03:36:30.590Z</time>
      </trkpt>
      <trkpt lat="40.35841" lon="-1.3855">
        <ele>1473.739916</ele>
        <time>2022-02-23T03:36:43.252Z</time>
      </trkpt>
      <trkpt lat="40.35801" lon="-1.38543">
        <ele>1473.715258</ele>
        <time>2022-02-23T03:36:58.179Z</time>
      </trkpt>
      <trkpt lat="40.35731" lon="-1.38546">
        <ele>1473.672899</ele>
        <time>2022-02-23T03:37:25.026Z</time>
      </trkpt>
      <trkpt lat="40.35698" lon="-1.3853">
        <ele>1473.623335</ele>
        <time>2022-02-23T03:37:38.938Z</time>
      </trkpt>
      <trkpt lat="40.3565" lon="-1.38496">
        <ele>1473.394102</ele>
        <time>2022-02-23T03:38:00.304Z</time>
      </trkpt>
      <trkpt lat="40.35611" lon="-1.3849">
        <ele>1473.229754</ele>
        <time>2022-02-23T03:38:14.822Z</time>
      </trkpt>
      <trkpt lat="40.35559" lon="-1.38502">
        <ele>1473.008826</ele>
        <time>2022-02-23T03:38:32.839Z</time>
      </trkpt>
      <trkpt lat="40.35539" lon="-1.38494">
        <ele>1472.922153</ele>
        <time>2022-02-23T03:38:39.816Z</time>
      </trkpt>
      <trkpt lat="40.35515" lon="-1.38492">
        <ele>1472.471731</ele>
        <time>2022-02-23T03:38:48.058Z</time>
      </trkpt>
      <trkpt lat="40.35485" lon="-1.38469">
        <ele>1471.724572</ele>
        <time>2022-02-23T03:38:59.506Z</time>
      </trkpt>
      <trkpt lat="40.35452" lon="-1.38462">
        <ele>1470.996046</ele>
        <time>2022-02-23T03:39:10.438Z</time>
      </trkpt>
      <trkpt lat="40.35447" lon="-1.38472">
        <ele>1470.799332</ele>
        <time>2022-02-23T03:39:13.441Z</time>
      </trkpt>
      <trkpt lat="40.35461" lon="-1.38506">
        <ele>1470.160242</ele>
        <time>2022-02-23T03:39:23.050Z</time>
      </trkpt>
      <trkpt lat="40.35453" lon="-1.38528">
        <ele>1469.759973</ele>
        <time>2022-02-23T03:39:28.955Z</time>
      </trkpt>
      <trkpt lat="40.35445" lon="-1.38537">
        <ele>1469.539967</ele>
        <time>2022-02-23T03:39:32.235Z</time>
      </trkpt>
      <trkpt lat="40.35378" lon="-1.38517">
        <ele>1466.910298</ele>
        <time>2022-02-23T03:39:52.737Z</time>
      </trkpt>
      <trkpt lat="40.35333" lon="-1.38516">
        <ele>1464.764169</ele>
        <time>2022-02-23T03:40:05.793Z</time>
      </trkpt>
      <trkpt lat="40.353" lon="-1.38478">
        <ele>1462.649541</ele>
        <time>2022-02-23T03:40:18.468Z</time>
      </trkpt>
      <trkpt lat="40.35274" lon="-1.38474">
        <ele>1461.409339</ele>
        <time>2022-02-23T03:40:25.806Z</time>
      </trkpt>
      <trkpt lat="40.35251" lon="-1.38492">
        <ele>1460.069374</ele>
        <time>2022-02-23T03:40:33.310Z</time>
      </trkpt>
      <trkpt lat="40.35171" lon="-1.38507">
        <ele>1455.422433</ele>
        <time>2022-02-23T03:40:56.156Z</time>
      </trkpt>
      <trkpt lat="40.35136" lon="-1.38495">
        <ele>1453.315337</ele>
        <time>2022-02-23T03:41:06.193Z</time>
      </trkpt>
      <trkpt lat="40.35085" lon="-1.38453">
        <ele>1449.879598</ele>
        <time>2022-02-23T03:41:22.958Z</time>
      </trkpt>
      <trkpt lat="40.35074" lon="-1.38449">
        <ele>1449.251052</ele>
        <time>2022-02-23T03:41:26.476Z</time>
      </trkpt>
      <trkpt lat="40.35033" lon="-1.38458">
        <ele>1447.094832</ele>
        <time>2022-02-23T03:41:38.529Z</time>
      </trkpt>
      <trkpt lat="40.35009" lon="-1.38458">
        <ele>1445.863525</ele>
        <time>2022-02-23T03:41:45.200Z</time>
      </trkpt>
      <trkpt lat="40.34969" lon="-1.38447">
        <ele>1443.7246</ele>
        <time>2022-02-23T03:41:57.108Z</time>
      </trkpt>
      <trkpt lat="40.3495" lon="-1.38429">
        <ele>1442.530697</ele>
        <time>2022-02-23T03:42:03.744Z</time>
      </trkpt>
      <trkpt lat="40.34924" lon="-1.38424">
        <ele>1441.14468</ele>
        <time>2022-02-23T03:42:11.464Z</time>
      </trkpt>
      <trkpt lat="40.34877" lon="-1.38398">
        <ele>1438.569323</ele>
        <time>2022-02-23T03:42:25.547Z</time>
      </trkpt>
      <trkpt lat="40.34861" lon="-1.38395">
        <ele>1437.754391</ele>
        <time>2022-02-23T03:42:30.147Z</time>
      </trkpt>
      <trkpt lat="40.34824" lon="-1.38395">
        <ele>1435.895348</ele>
        <time>2022-02-23T03:42:40.892Z</time>
      </trkpt>
      <trkpt lat="40.34784" lon="-1.38414">
        <ele>1433.777533</ele>
        <time>2022-02-23T03:42:53.279Z</time>
      </trkpt>
      <trkpt lat="40.34745" lon="-1.3842">
        <ele>1431.843594</ele>
        <time>2022-02-23T03:43:04.647Z</time>
      </trkpt>
      <trkpt lat="40.34731" lon="-1.38419">
        <ele>1431.158821</ele>
        <time>2022-02-23T03:43:08.986Z</time>
      </trkpt>
      <trkpt lat="40.34688" lon="-1.38396">
        <ele>1429.124946</ele>
        <time>2022-02-23T03:43:22.707Z</time>
      </trkpt>
      <trkpt lat="40.34681" lon="-1.38398">
        <ele>1428.800807</ele>
        <time>2022-02-23T03:43:24.976Z</time>
      </trkpt>
      <trkpt lat="40.34665" lon="-1.38436">
        <ele>1427.352837</ele>
        <time>2022-02-23T03:43:34.399Z</time>
      </trkpt>
      <trkpt lat="40.3464" lon="-1.3848">
        <ele>1425.49464</ele>
        <time>2022-02-23T03:43:46.647Z</time>
      </trkpt>
      <trkpt lat="40.3459" lon="-1.38498">
        <ele>1423.268374</ele>
        <time>2022-02-23T03:44:02.128Z</time>
      </trkpt>
      <trkpt lat="40.34559" lon="-1.38534">
        <ele>1421.573395</ele>
        <time>2022-02-23T03:44:14.339Z</time>
      </trkpt>
      <trkpt lat="40.34532" lon="-1.38589">
        <ele>1419.561823</ele>
        <time>2022-02-23T03:44:28.966Z</time>
      </trkpt>
      <trkpt lat="40.34517" lon="-1.38603">
        <ele>1418.787378</ele>
        <time>2022-02-23T03:44:34.619Z</time>
      </trkpt>
      <trkpt lat="40.34466" lon="-1.3863">
        <ele>1416.554433</ele>
        <time>2022-02-23T03:44:50.830Z</time>
      </trkpt>
      <trkpt lat="40.34416" lon="-1.38679">
        <ele>1414.903964</ele>
        <time>2022-02-23T03:45:10.024Z</time>
      </trkpt>
      <trkpt lat="40.34366" lon="-1.3877">
        <ele>1412.702836</ele>
        <time>2022-02-23T03:45:37.245Z</time>
      </trkpt>
      <trkpt lat="40.34323" lon="-1.38878">
        <ele>1410.055057</ele>
        <time>2022-02-23T03:46:08.273Z</time>
      </trkpt>
      <trkpt lat="40.34298" lon="-1.38905">
        <ele>1409.084641</ele>
        <time>2022-02-23T03:46:18.712Z</time>
      </trkpt>
      <trkpt lat="40.3427" lon="-1.38877">
        <ele>1408.037951</ele>
        <time>2022-02-23T03:46:29.856Z</time>
      </trkpt>
      <trkpt lat="40.34244" lon="-1.3887">
        <ele>1407.227549</ele>
        <time>2022-02-23T03:46:38.144Z</time>
      </trkpt>
      <trkpt lat="40.34224" lon="-1.38883">
        <ele>1406.53954</ele>
        <time>2022-02-23T03:46:44.889Z</time>
      </trkpt>
      <trkpt lat="40.34166" lon="-1.39003">
        <ele>1398.057035</ele>
        <time>2022-02-23T03:47:14.313Z</time>
      </trkpt>
      <trkpt lat="40.34148" lon="-1.39012">
        <ele>1396.46741</ele>
        <time>2022-02-23T03:47:19.372Z</time>
      </trkpt>
      <trkpt lat="40.34121" lon="-1.39043">
        <ele>1393.585983</ele>
        <time>2022-02-23T03:47:28.451Z</time>
      </trkpt>
      <trkpt lat="40.34067" lon="-1.39066">
        <ele>1388.359103</ele>
        <time>2022-02-23T03:47:42.944Z</time>
      </trkpt>
      <trkpt lat="40.33924" lon="-1.39099">
        <ele>1374.132577</ele>
        <time>2022-02-23T03:48:20.183Z</time>
      </trkpt>
      <trkpt lat="40.33821" lon="-1.39088">
        <ele>1368.267832</ele>
        <time>2022-02-23T03:48:48.770Z</time>
      </trkpt>
      <trkpt lat="40.33806" lon="-1.39078">
        <ele>1367.325946</ele>
        <time>2022-02-23T03:48:53.551Z</time>
      </trkpt>
      <trkpt lat="40.33774" lon="-1.39037">
        <ele>1364.806929</ele>
        <time>2022-02-23T03:49:06.883Z</time>
      </trkpt>
      <trkpt lat="40.337" lon="-1.39007">
        <ele>1363.31179</ele>
        <time>2022-02-23T03:49:31.420Z</time>
      </trkpt>
      <trkpt lat="40.33677" lon="-1.38987">
        <ele>1363.043427</ele>
        <time>2022-02-23T03:49:40.960Z</time>
      </trkpt>
      <trkpt lat="40.33617" lon="-1.38953">
        <ele>1362.410298</ele>
        <time>2022-02-23T03:50:05.545Z</time>
      </trkpt>
      <trkpt lat="40.3359" lon="-1.38928">
        <ele>1362.205582</ele>
        <time>2022-02-23T03:50:18.884Z</time>
      </trkpt>
      <trkpt lat="40.33537" lon="-1.3886">
        <ele>1362.551554</ele>
        <time>2022-02-23T03:50:49.864Z</time>
      </trkpt>
      <trkpt lat="40.33521" lon="-1.38831">
        <ele>1362.678758</ele>
        <time>2022-02-23T03:51:01.000Z</time>
      </trkpt>
      <trkpt lat="40.33499" lon="-1.38733">
        <ele>1362.91729</ele>
        <time>2022-02-23T03:51:31.054Z</time>
      </trkpt>
      <trkpt lat="40.33484" lon="-1.38639">
        <ele>1361.940659</ele>
        <time>2022-02-23T03:51:56.449Z</time>
      </trkpt>
      <trkpt lat="40.33448" lon="-1.38518">
        <ele>1360.609363</ele>
        <time>2022-02-23T03:52:29.131Z</time>
      </trkpt>
      <trkpt lat="40.33423" lon="-1.38463">
        <ele>1358.859679</ele>
        <time>2022-02-23T03:52:44.510Z</time>
      </trkpt>
      <trkpt lat="40.33432" lon="-1.38293">
        <ele>1354.112816</ele>
        <time>2022-02-23T03:53:23.445Z</time>
      </trkpt>
      <trkpt lat="40.33418" lon="-1.38232">
        <ele>1350.892315</ele>
        <time>2022-02-23T03:53:37.185Z</time>
      </trkpt>
      <trkpt lat="40.33415" lon="-1.38172">
        <ele>1347.834739</ele>
        <time>2022-02-23T03:53:49.682Z</time>
      </trkpt>
      <trkpt lat="40.33395" lon="-1.38106">
        <ele>1344.187348</ele>
        <time>2022-02-23T03:54:04.262Z</time>
      </trkpt>
      <trkpt lat="40.33329" lon="-1.38002">
        <ele>1336.338128</ele>
        <time>2022-02-23T03:54:31.836Z</time>
      </trkpt>
      <trkpt lat="40.33312" lon="-1.37966">
        <ele>1333.738799</ele>
        <time>2022-02-23T03:54:40.403Z</time>
      </trkpt>
      <trkpt lat="40.33259" lon="-1.37938">
        <ele>1329.164216</ele>
        <time>2022-02-23T03:54:55.462Z</time>
      </trkpt>
      <trkpt lat="40.33234" lon="-1.37914">
        <ele>1326.72417</ele>
        <time>2022-02-23T03:55:03.630Z</time>
      </trkpt>
      <trkpt lat="40.33157" lon="-1.37865">
        <ele>1320.11595</ele>
        <time>2022-02-23T03:55:26.704Z</time>
      </trkpt>
      <trkpt lat="40.33086" lon="-1.37795">
        <ele>1313.312372</ele>
        <time>2022-02-23T03:55:50.491Z</time>
      </trkpt>
      <trkpt lat="40.33064" lon="-1.37763">
        <ele>1311.274641</ele>
        <time>2022-02-23T03:55:59.510Z</time>
      </trkpt>
      <trkpt lat="40.33049" lon="-1.37723">
        <ele>1309.177153</ele>
        <time>2022-02-23T03:56:08.964Z</time>
      </trkpt>
      <trkpt lat="40.33014" lon="-1.37711">
        <ele>1306.927274</ele>
        <time>2022-02-23T03:56:19.230Z</time>
      </trkpt>
      <trkpt lat="40.33005" lon="-1.37666">
        <ele>1304.74904</ele>
        <time>2022-02-23T03:56:24.760Z</time>
      </trkpt>
      <trkpt lat="40.32976" lon="-1.37597">
        <ele>1301.337201</ele>
        <time>2022-02-23T03:56:34.133Z</time>
      </trkpt>
      <trkpt lat="40.32946" lon="-1.37539">
        <ele>1298.646694</ele>
        <time>2022-02-23T03:56:42.446Z</time>
      </trkpt>
      <trkpt lat="40.32861" lon="-1.37398">
        <ele>1292.515631</ele>
        <time>2022-02-23T03:57:04.475Z</time>
      </trkpt>
      <trkpt lat="40.32852" lon="-1.37373">
        <ele>1291.903062</ele>
        <time>2022-02-23T03:57:07.907Z</time>
      </trkpt>
      <trkpt lat="40.32847" lon="-1.37342">
        <ele>1291.220969</ele>
        <time>2022-02-23T03:57:11.953Z</time>
      </trkpt>
      <trkpt lat="40.32848" lon="-1.37314">
        <ele>1290.618705</ele>
        <time>2022-02-23T03:57:15.511Z</time>
      </trkpt>
      <trkpt lat="40.32864" lon="-1.37268">
        <ele>1289.531519</ele>
        <time>2022-02-23T03:57:22.106Z</time>
      </trkpt>
      <trkpt lat="40.32895" lon="-1.37233">
        <ele>1288.388159</ele>
        <time>2022-02-23T03:57:29.941Z</time>
      </trkpt>
      <trkpt lat="40.33012" lon="-1.37164">
        <ele>1290.58709</ele>
        <time>2022-02-23T03:58:13.757Z</time>
      </trkpt>
      <trkpt lat="40.33051" lon="-1.37129">
        <ele>1291.39119</ele>
        <time>2022-02-23T03:58:30.528Z</time>
      </trkpt>
      <trkpt lat="40.33118" lon="-1.37057">
        <ele>1290.162571</ele>
        <time>2022-02-23T03:58:54.882Z</time>
      </trkpt>
      <trkpt lat="40.33238" lon="-1.36928">
        <ele>1285.652245</ele>
        <time>2022-02-23T03:59:20.370Z</time>
      </trkpt>
      <trkpt lat="40.33261" lon="-1.36904">
        <ele>1284.163978</ele>
        <time>2022-02-23T03:59:24.818Z</time>
      </trkpt>
      <trkpt lat="40.33316" lon="-1.36828">
        <ele>1280.081659</ele>
        <time>2022-02-23T03:59:37.289Z</time>
      </trkpt>
      <trkpt lat="40.33356" lon="-1.36752">
        <ele>1276.344191</ele>
        <time>2022-02-23T03:59:48.314Z</time>
      </trkpt>
      <trkpt lat="40.3338" lon="-1.36635">
        <ele>1271.438851</ele>
        <time>2022-02-23T04:00:03.203Z</time>
      </trkpt>
      <trkpt lat="40.33422" lon="-1.36507">
        <ele>1264.177781</ele>
        <time>2022-02-23T04:00:19.350Z</time>
      </trkpt>
      <trkpt lat="40.33427" lon="-1.36482">
        <ele>1262.761898</ele>
        <time>2022-02-23T04:00:22.145Z</time>
      </trkpt>
      <trkpt lat="40.33431" lon="-1.3629">
        <ele>1253.214255</ele>
        <time>2022-02-23T04:00:43.581Z</time>
      </trkpt>
      <trkpt lat="40.33427" lon="-1.36218">
        <ele>1250.211068</ele>
        <time>2022-02-23T04:00:52.168Z</time>
      </trkpt>
      <trkpt lat="40.33375" lon="-1.36117">
        <ele>1246.754374</ele>
        <time>2022-02-23T04:01:20.717Z</time>
      </trkpt>
      <trkpt lat="40.3328" lon="-1.3596">
        <ele>1246.289739</ele>
        <time>2022-02-23T04:02:20.488Z</time>
      </trkpt>
      <trkpt lat="40.33154" lon="-1.358">
        <ele>1248.030664</ele>
        <time>2022-02-23T04:03:35.676Z</time>
      </trkpt>
      <trkpt lat="40.3312" lon="-1.35772">
        <ele>1248.382392</ele>
        <time>2022-02-23T04:03:51.578Z</time>
      </trkpt>
      <trkpt lat="40.33036" lon="-1.35657">
        <ele>1249.465394</ele>
        <time>2022-02-23T04:04:38.474Z</time>
      </trkpt>
      <trkpt lat="40.33018" lon="-1.35619">
        <ele>1250.434379</ele>
        <time>2022-02-23T04:04:54.618Z</time>
      </trkpt>
      <trkpt lat="40.32993" lon="-1.35591">
        <ele>1252.110984</ele>
        <time>2022-02-23T04:05:11.797Z</time>
      </trkpt>
      <trkpt lat="40.32939" lon="-1.35555">
        <ele>1255.21559</ele>
        <time>2022-02-23T04:05:49.425Z</time>
      </trkpt>
      <trkpt lat="40.32796" lon="-1.35537">
        <ele>1264.068121</ele>
        <time>2022-02-23T04:07:37.023Z</time>
      </trkpt>
      <trkpt lat="40.32753" lon="-1.35548">
        <ele>1267.166183</ele>
        <time>2022-02-23T04:08:10.229Z</time>
      </trkpt>
      <trkpt lat="40.32712" lon="-1.35591">
        <ele>1270.955532</ele>
        <time>2022-02-23T04:08:47.641Z</time>
      </trkpt>
      <trkpt lat="40.32692" lon="-1.356">
        <ele>1272.328348</ele>
        <time>2022-02-23T04:09:02.310Z</time>
      </trkpt>
      <trkpt lat="40.32677" lon="-1.35546">
        <ele>1274.744291</ele>
        <time>2022-02-23T04:09:31.095Z</time>
      </trkpt>
      <trkpt lat="40.32652" lon="-1.35516">
        <ele>1276.597956</ele>
        <time>2022-02-23T04:09:51.923Z</time>
      </trkpt>
      <trkpt lat="40.32614" lon="-1.3549">
        <ele>1278.916502</ele>
        <time>2022-02-23T04:10:17.227Z</time>
      </trkpt>
      <trkpt lat="40.32552" lon="-1.35473">
        <ele>1282.599852</ele>
        <time>2022-02-23T04:10:57.731Z</time>
      </trkpt>
      <trkpt lat="40.32525" lon="-1.35459">
        <ele>1284.590331</ele>
        <time>2022-02-23T04:11:17.786Z</time>
      </trkpt>
      <trkpt lat="40.32497" lon="-1.35431">
        <ele>1287.0434</ele>
        <time>2022-02-23T04:11:43.451Z</time>
      </trkpt>
      <trkpt lat="40.32453" lon="-1.35374">
        <ele>1291.33836</ele>
        <time>2022-02-23T04:12:29.882Z</time>
      </trkpt>
      <trkpt lat="40.32429" lon="-1.35364">
        <ele>1293.120787</ele>
        <time>2022-02-23T04:12:48.939Z</time>
      </trkpt>
      <trkpt lat="40.32378" lon="-1.35323">
        <ele>1297.267392</ele>
        <time>2022-02-23T04:13:33.149Z</time>
      </trkpt>
      <trkpt lat="40.3228" lon="-1.35233">
        <ele>1305.753744</ele>
        <time>2022-02-23T04:15:00.820Z</time>
      </trkpt>
      <trkpt lat="40.32181" lon="-1.3518">
        <ele>1312.217205</ele>
        <time>2022-02-23T04:16:11.980Z</time>
      </trkpt>
      <trkpt lat="40.32155" lon="-1.35129">
        <ele>1315.016171</ele>
        <time>2022-02-23T04:16:41.221Z</time>
      </trkpt>
      <trkpt lat="40.32141" lon="-1.35123">
        <ele>1315.865807</ele>
        <time>2022-02-23T04:16:50.795Z</time>
      </trkpt>
      <trkpt lat="40.3213" lon="-1.35116">
        <ele>1316.588855</ele>
        <time>2022-02-23T04:16:58.399Z</time>
      </trkpt>
      <trkpt lat="40.32113" lon="-1.35123">
        <ele>1317.74078</ele>
        <time>2022-02-23T04:17:10.455Z</time>
      </trkpt>
      <trkpt lat="40.32011" lon="-1.35127">
        <ele>1325.729588</ele>
        <time>2022-02-23T04:18:24.687Z</time>
      </trkpt>
      <trkpt lat="40.31967" lon="-1.35118">
        <ele>1329.273421</ele>
        <time>2022-02-23T04:19:03.136Z</time>
      </trkpt>
      <trkpt lat="40.31814" lon="-1.35073">
        <ele>1342.297135</ele>
        <time>2022-02-23T04:21:11.987Z</time>
      </trkpt>
      <trkpt lat="40.31753" lon="-1.35062">
        <ele>1347.143458</ele>
        <time>2022-02-23T04:21:58.672Z</time>
      </trkpt>
      <trkpt lat="40.31629" lon="-1.35067">
        <ele>1353.131302</ele>
        <time>2022-02-23T04:23:18.416Z</time>
      </trkpt>
      <trkpt lat="40.31531" lon="-1.3506">
        <ele>1355.542924</ele>
        <time>2022-02-23T04:24:05.590Z</time>
      </trkpt>
      <trkpt lat="40.31521" lon="-1.3502">
        <ele>1355.64065</ele>
        <time>2022-02-23T04:24:18.658Z</time>
      </trkpt>
      <trkpt lat="40.31517" lon="-1.35006">
        <ele>1355.676812</ele>
        <time>2022-02-23T04:24:23.654Z</time>
      </trkpt>
      <trkpt lat="40.3151" lon="-1.34992">
        <ele>1355.715659</ele>
        <time>2022-02-23T04:24:28.077Z</time>
      </trkpt>
      <trkpt lat="40.31484" lon="-1.34972">
        <ele>1355.810212</ele>
        <time>2022-02-23T04:24:39.262Z</time>
      </trkpt>
      <trkpt lat="40.31374" lon="-1.34931">
        <ele>1353.743121</ele>
        <time>2022-02-23T04:25:16.092Z</time>
      </trkpt>
      <trkpt lat="40.31328" lon="-1.34926">
        <ele>1352.360268</ele>
        <time>2022-02-23T04:25:30.168Z</time>
      </trkpt>
      <trkpt lat="40.31239" lon="-1.34942">
        <ele>1348.970786</ele>
        <time>2022-02-23T04:25:57.089Z</time>
      </trkpt>
      <trkpt lat="40.31208" lon="-1.34942">
        <ele>1347.36417</ele>
        <time>2022-02-23T04:26:05.944Z</time>
      </trkpt>
      <trkpt lat="40.31181" lon="-1.34934">
        <ele>1345.891914</ele>
        <time>2022-02-23T04:26:13.938Z</time>
      </trkpt>
      <trkpt lat="40.31109" lon="-1.3489">
        <ele>1341.695124</ele>
        <time>2022-02-23T04:26:36.342Z</time>
      </trkpt>
      <trkpt lat="40.31066" lon="-1.34852">
        <ele>1338.448252</ele>
        <time>2022-02-23T04:26:50.648Z</time>
      </trkpt>
      <trkpt lat="40.30942" lon="-1.34671">
        <ele>1325.998814</ele>
        <time>2022-02-23T04:27:41.593Z</time>
      </trkpt>
      <trkpt lat="40.30922" lon="-1.34585">
        <ele>1321.093382</ele>
        <time>2022-02-23T04:28:00.384Z</time>
      </trkpt>
      <trkpt lat="40.30922" lon="-1.34503">
        <ele>1316.676506</ele>
        <time>2022-02-23T04:28:17.252Z</time>
      </trkpt>
      <trkpt lat="40.30904" lon="-1.34364">
        <ele>1307.386181</ele>
        <time>2022-02-23T04:28:45.856Z</time>
      </trkpt>
      <trkpt lat="40.3091" lon="-1.34033">
        <ele>1283.975384</ele>
        <time>2022-02-23T04:29:51.238Z</time>
      </trkpt>
      <trkpt lat="40.30901" lon="-1.33915">
        <ele>1277.77217</ele>
        <time>2022-02-23T04:30:15.314Z</time>
      </trkpt>
      <trkpt lat="40.30903" lon="-1.33866">
        <ele>1275.23087</ele>
        <time>2022-02-23T04:30:25.674Z</time>
      </trkpt>
      <trkpt lat="40.30847" lon="-1.33714">
        <ele>1268.294519</ele>
        <time>2022-02-23T04:31:03.041Z</time>
      </trkpt>
      <trkpt lat="40.308" lon="-1.3362">
        <ele>1264.626623</ele>
        <time>2022-02-23T04:31:28.573Z</time>
      </trkpt>
      <trkpt lat="40.30796" lon="-1.33593">
        <ele>1263.729591</ele>
        <time>2022-02-23T04:31:34.913Z</time>
      </trkpt>
      <trkpt lat="40.30795" lon="-1.33507">
        <ele>1261.645889</ele>
        <time>2022-02-23T04:31:54.938Z</time>
      </trkpt>
      <trkpt lat="40.30792" lon="-1.33478">
        <ele>1260.947714</ele>
        <time>2022-02-23T04:32:01.790Z</time>
      </trkpt>
      <trkpt lat="40.30792" lon="-1.33421">
        <ele>1259.554045</ele>
        <time>2022-02-23T04:32:15.445Z</time>
      </trkpt>
      <trkpt lat="40.30781" lon="-1.33354">
        <ele>1257.909165</ele>
        <time>2022-02-23T04:32:31.644Z</time>
      </trkpt>
      <trkpt lat="40.3074" lon="-1.33257">
        <ele>1255.505101</ele>
        <time>2022-02-23T04:32:58.008Z</time>
      </trkpt>
      <trkpt lat="40.30733" lon="-1.33226">
        <ele>1254.794839</ele>
        <time>2022-02-23T04:33:05.879Z</time>
      </trkpt>
      <trkpt lat="40.30735" lon="-1.33191">
        <ele>1254.038855</ele>
        <time>2022-02-23T04:33:14.203Z</time>
      </trkpt>
      <trkpt lat="40.3075" lon="-1.33137">
        <ele>1252.796124</ele>
        <time>2022-02-23T04:33:27.786Z</time>
      </trkpt>
      <trkpt lat="40.30736" lon="-1.32977">
        <ele>1249.44412</ele>
        <time>2022-02-23T04:34:05.886Z</time>
      </trkpt>
      <trkpt lat="40.30746" lon="-1.32867">
        <ele>1247.441137</ele>
        <time>2022-02-23T04:34:32.746Z</time>
      </trkpt>
      <trkpt lat="40.30753" lon="-1.32685">
        <ele>1245.04212</ele>
        <time>2022-02-23T04:35:19.008Z</time>
      </trkpt>
      <trkpt lat="40.30752" lon="-1.32634">
        <ele>1244.502548</ele>
        <time>2022-02-23T04:35:32.291Z</time>
      </trkpt>
      <trkpt lat="40.30736" lon="-1.32537">
        <ele>1243.578327</ele>
        <time>2022-02-23T04:35:57.719Z</time>
      </trkpt>
      <trkpt lat="40.30725" lon="-1.32511">
        <ele>1243.302472</ele>
        <time>2022-02-23T04:36:05.358Z</time>
      </trkpt>
      <trkpt lat="40.30723" lon="-1.32507">
        <ele>1243.255438</ele>
        <time>2022-02-23T04:36:06.655Z</time>
      </trkpt>
      <trkpt lat="40.30646" lon="-1.32436">
        <ele>1242.390447</ele>
        <time>2022-02-23T04:36:39.236Z</time>
      </trkpt>
      <trkpt lat="40.30593" lon="-1.32404">
        <ele>1242.058039</ele>
        <time>2022-02-23T04:36:59.627Z</time>
      </trkpt>
      <trkpt lat="40.30554" lon="-1.32394">
        <ele>1241.829227</ele>
        <time>2022-02-23T04:37:14.045Z</time>
      </trkpt>
      <trkpt lat="40.30526" lon="-1.32376">
        <ele>1241.650502</ele>
        <time>2022-02-23T04:37:25.417Z</time>
      </trkpt>
      <trkpt lat="40.30439" lon="-1.32286">
        <ele>1241.095845</ele>
        <time>2022-02-23T04:38:05.845Z</time>
      </trkpt>
      <trkpt lat="40.30397" lon="-1.32216">
        <ele>1240.757799</ele>
        <time>2022-02-23T04:38:29.678Z</time>
      </trkpt>
      <trkpt lat="40.3036" lon="-1.32173">
        <ele>1240.284332</ele>
        <time>2022-02-23T04:38:46.588Z</time>
      </trkpt>
      <trkpt lat="40.30273" lon="-1.32038">
        <ele>1238.882153</ele>
        <time>2022-02-23T04:39:32.637Z</time>
      </trkpt>
      <trkpt lat="40.30247" lon="-1.32007">
        <ele>1238.671492</ele>
        <time>2022-02-23T04:39:44.791Z</time>
      </trkpt>
      <trkpt lat="40.30166" lon="-1.31941">
        <ele>1238.144346</ele>
        <time>2022-02-23T04:40:18.778Z</time>
      </trkpt>
      <trkpt lat="40.30016" lon="-1.3186">
        <ele>1238.046072</ele>
        <time>2022-02-23T04:41:18.375Z</time>
      </trkpt>
      <trkpt lat="40.29972" lon="-1.31842">
        <ele>1238.12574</ele>
        <time>2022-02-23T04:41:35.835Z</time>
      </trkpt>
      <trkpt lat="40.29895" lon="-1.31811">
        <ele>1239.200492</ele>
        <time>2022-02-23T04:42:09.783Z</time>
      </trkpt>
      <trkpt lat="40.29827" lon="-1.31764">
        <ele>1240.60991</ele>
        <time>2022-02-23T04:42:45.847Z</time>
      </trkpt>
      <trkpt lat="40.2976" lon="-1.31707">
        <ele>1242.407842</ele>
        <time>2022-02-23T04:43:26.188Z</time>
      </trkpt>
      <trkpt lat="40.29642" lon="-1.3167">
        <ele>1245.939875</ele>
        <time>2022-02-23T04:44:29.727Z</time>
      </trkpt>
      <trkpt lat="40.29598" lon="-1.31626">
        <ele>1247.354744</ele>
        <time>2022-02-23T04:44:57.980Z</time>
      </trkpt>
      <trkpt lat="40.29528" lon="-1.31531">
        <ele>1249.645065</ele>
        <time>2022-02-23T04:45:47.749Z</time>
      </trkpt>
      <trkpt lat="40.29451" lon="-1.31457">
        <ele>1250.887716</ele>
        <time>2022-02-23T04:46:30.747Z</time>
      </trkpt>
      <trkpt lat="40.2938" lon="-1.314">
        <ele>1251.094483</ele>
        <time>2022-02-23T04:47:03.205Z</time>
      </trkpt>
      <trkpt lat="40.29324" lon="-1.31326">
        <ele>1250.871566</ele>
        <time>2022-02-23T04:47:30.581Z</time>
      </trkpt>
      <trkpt lat="40.29302" lon="-1.31285">
        <ele>1250.405928</ele>
        <time>2022-02-23T04:47:43.376Z</time>
      </trkpt>
      <trkpt lat="40.29286" lon="-1.3126">
        <ele>1250.105742</ele>
        <time>2022-02-23T04:47:51.695Z</time>
      </trkpt>
      <trkpt lat="40.29267" lon="-1.31242">
        <ele>1249.824075</ele>
        <time>2022-02-23T04:47:59.360Z</time>
      </trkpt>
      <trkpt lat="40.29224" lon="-1.31205">
        <ele>1249.200086</ele>
        <time>2022-02-23T04:48:16.794Z</time>
      </trkpt>
      <trkpt lat="40.29205" lon="-1.31196">
        <ele>1249.084269</ele>
        <time>2022-02-23T04:48:23.666Z</time>
      </trkpt>
      <trkpt lat="40.29157" lon="-1.31175">
        <ele>1249.406951</ele>
        <time>2022-02-23T04:48:41.580Z</time>
      </trkpt>
      <trkpt lat="40.29109" lon="-1.31111">
        <ele>1249.842638</ele>
        <time>2022-02-23T04:49:09.209Z</time>
      </trkpt>
      <trkpt lat="40.29068" lon="-1.31067">
        <ele>1250.179254</ele>
        <time>2022-02-23T04:49:34.145Z</time>
      </trkpt>
      <trkpt lat="40.29045" lon="-1.31049">
        <ele>1251.090118</ele>
        <time>2022-02-23T04:49:47.545Z</time>
      </trkpt>
      <trkpt lat="40.28964" lon="-1.31005">
        <ele>1254.060834</ele>
        <time>2022-02-23T04:50:33.635Z</time>
      </trkpt>
      <trkpt lat="40.28906" lon="-1.30977">
        <ele>1256.180664</ele>
        <time>2022-02-23T04:51:09.138Z</time>
      </trkpt>
      <trkpt lat="40.28739" lon="-1.30924">
        <ele>1264.787094</ele>
        <time>2022-02-23T04:52:55.870Z</time>
      </trkpt>
      <trkpt lat="40.28684" lon="-1.30895">
        <ele>1268.275996</ele>
        <time>2022-02-23T04:53:35.251Z</time>
      </trkpt>
      <trkpt lat="40.28602" lon="-1.30872">
        <ele>1273.422393</ele>
        <time>2022-02-23T04:54:33.698Z</time>
      </trkpt>
      <trkpt lat="40.28497" lon="-1.30819">
        <ele>1278.771072</ele>
        <time>2022-02-23T04:55:50.954Z</time>
      </trkpt>
      <trkpt lat="40.28429" lon="-1.30803">
        <ele>1281.292165</ele>
        <time>2022-02-23T04:56:29.063Z</time>
      </trkpt>
      <trkpt lat="40.28401" lon="-1.30804">
        <ele>1282.307186</ele>
        <time>2022-02-23T04:56:41.686Z</time>
      </trkpt>
      <trkpt lat="40.28319" lon="-1.30829">
        <ele>1281.720196</ele>
        <time>2022-02-23T04:57:12.627Z</time>
      </trkpt>
      <trkpt lat="40.28152" lon="-1.30846">
        <ele>1279.122073</ele>
        <time>2022-02-23T04:58:03.765Z</time>
      </trkpt>
      <trkpt lat="40.28137" lon="-1.30849">
        <ele>1279.039677</ele>
        <time>2022-02-23T04:58:08.686Z</time>
      </trkpt>
      <trkpt lat="40.28096" lon="-1.30875">
        <ele>1278.79039</ele>
        <time>2022-02-23T04:58:23.979Z</time>
      </trkpt>
      <trkpt lat="40.28097" lon="-1.30921">
        <ele>1278.594112</ele>
        <time>2022-02-23T04:58:33.086Z</time>
      </trkpt>
      <trkpt lat="40.28085" lon="-1.30951">
        <ele>1278.449903</ele>
        <time>2022-02-23T04:58:41.720Z</time>
      </trkpt>
      <trkpt lat="40.28065" lon="-1.30977">
        <ele>1279.530067</ele>
        <time>2022-02-23T04:58:52.127Z</time>
      </trkpt>
      <trkpt lat="40.27937" lon="-1.31106">
        <ele>1287.511701</ele>
        <time>2022-02-23T05:00:13.897Z</time>
      </trkpt>
      <trkpt lat="40.27727" lon="-1.31197">
        <ele>1298.399116</ele>
        <time>2022-02-23T05:02:02.295Z</time>
      </trkpt>
      <trkpt lat="40.27652" lon="-1.31218">
        <ele>1300.903184</ele>
        <time>2022-02-23T05:02:35.768Z</time>
      </trkpt>
      <trkpt lat="40.27574" lon="-1.31217">
        <ele>1302.009326</ele>
        <time>2022-02-23T05:02:57.155Z</time>
      </trkpt>
      <trkpt lat="40.27543" lon="-1.31213">
        <ele>1300.820051</ele>
        <time>2022-02-23T05:03:03.000Z</time>
      </trkpt>
      <trkpt lat="40.27514" lon="-1.31226">
        <ele>1299.623224</ele>
        <time>2022-02-23T05:03:08.356Z</time>
      </trkpt>
      <trkpt lat="40.27346" lon="-1.31347">
        <ele>1289.995843</ele>
        <time>2022-02-23T05:03:37.462Z</time>
      </trkpt>
      <trkpt lat="40.27274" lon="-1.31413">
        <ele>1284.471022</ele>
        <time>2022-02-23T05:03:50.872Z</time>
      </trkpt>
      <trkpt lat="40.27219" lon="-1.31442">
        <ele>1281.449207</ele>
        <time>2022-02-23T05:04:00.213Z</time>
      </trkpt>
      <trkpt lat="40.27144" lon="-1.31476">
        <ele>1277.421621</ele>
        <time>2022-02-23T05:04:12.894Z</time>
      </trkpt>
      <trkpt lat="40.26923" lon="-1.31514">
        <ele>1267.551981</ele>
        <time>2022-02-23T05:04:48.522Z</time>
      </trkpt>
      <trkpt lat="40.26857" lon="-1.31531">
        <ele>1268.065759</ele>
        <time>2022-02-23T05:05:01.389Z</time>
      </trkpt>
      <trkpt lat="40.26829" lon="-1.31542">
        <ele>1268.281172</ele>
        <time>2022-02-23T05:05:09.045Z</time>
      </trkpt>
      <trkpt lat="40.268" lon="-1.31567">
        <ele>1268.546651</ele>
        <time>2022-02-23T05:05:21.374Z</time>
      </trkpt>
      <trkpt lat="40.26757" lon="-1.31664">
        <ele>1271.31715</ele>
        <time>2022-02-23T05:05:57.771Z</time>
      </trkpt>
      <trkpt lat="40.26749" lon="-1.31731">
        <ele>1274.468522</ele>
        <time>2022-02-23T05:06:25.501Z</time>
      </trkpt>
      <trkpt lat="40.26744" lon="-1.31836">
        <ele>1279.318945</ele>
        <time>2022-02-23T05:07:12.742Z</time>
      </trkpt>
      <trkpt lat="40.26765" lon="-1.31939">
        <ele>1284.09099</ele>
        <time>2022-02-23T05:07:58.408Z</time>
      </trkpt>
      <trkpt lat="40.26778" lon="-1.32096">
        <ele>1290.742519</ele>
        <time>2022-02-23T05:08:57.243Z</time>
      </trkpt>
      <trkpt lat="40.26821" lon="-1.32267">
        <ele>1295.478618</ele>
        <time>2022-02-23T05:09:52.039Z</time>
      </trkpt>
      <trkpt lat="40.26797" lon="-1.3234">
        <ele>1296.972293</ele>
        <time>2022-02-23T05:10:11.337Z</time>
      </trkpt>
      <trkpt lat="40.26792" lon="-1.32372">
        <ele>1297.374077</ele>
        <time>2022-02-23T05:10:19.195Z</time>
      </trkpt>
      <trkpt lat="40.26804" lon="-1.32453">
        <ele>1298.389267</ele>
        <time>2022-02-23T05:10:36.946Z</time>
      </trkpt>
      <trkpt lat="40.26819" lon="-1.32496">
        <ele>1298.969068</ele>
        <time>2022-02-23T05:10:47.075Z</time>
      </trkpt>
      <trkpt lat="40.26842" lon="-1.32527">
        <ele>1299.66902</ele>
        <time>2022-02-23T05:10:56.633Z</time>
      </trkpt>
      <trkpt lat="40.26866" lon="-1.32546">
        <ele>1300.627599</ele>
        <time>2022-02-23T05:11:05.403Z</time>
      </trkpt>
      <trkpt lat="40.26881" lon="-1.32569">
        <ele>1301.401927</ele>
        <time>2022-02-23T05:11:12.693Z</time>
      </trkpt>
      <trkpt lat="40.26905" lon="-1.32625">
        <ele>1303.041939</ele>
        <time>2022-02-23T05:11:31.232Z</time>
      </trkpt>
      <trkpt lat="40.26927" lon="-1.3265">
        <ele>1304.018787</ele>
        <time>2022-02-23T05:11:43.607Z</time>
      </trkpt>
      <trkpt lat="40.27004" lon="-1.32712">
        <ele>1308.719988</ele>
        <time>2022-02-23T05:12:28.497Z</time>
      </trkpt>
      <trkpt lat="40.2707" lon="-1.32811">
        <ele>1315.47338</ele>
        <time>2022-02-23T05:13:27.315Z</time>
      </trkpt>
      <trkpt lat="40.27082" lon="-1.32844">
        <ele>1317.317692</ele>
        <time>2022-02-23T05:13:43.740Z</time>
      </trkpt>
      <trkpt lat="40.27092" lon="-1.32881">
        <ele>1319.558887</ele>
        <time>2022-02-23T05:14:01.612Z</time>
      </trkpt>
      <trkpt lat="40.27096" lon="-1.32918">
        <ele>1321.746733</ele>
        <time>2022-02-23T05:14:19.001Z</time>
      </trkpt>
      <trkpt lat="40.2708" lon="-1.3311">
        <ele>1333.24466</ele>
        <time>2022-02-23T05:15:46.707Z</time>
      </trkpt>
      <trkpt lat="40.27087" lon="-1.33212">
        <ele>1340.181978</ele>
        <time>2022-02-23T05:16:39.507Z</time>
      </trkpt>
      <trkpt lat="40.27075" lon="-1.33265">
        <ele>1343.942569</ele>
        <time>2022-02-23T05:17:08.262Z</time>
      </trkpt>
      <trkpt lat="40.27064" lon="-1.33286">
        <ele>1345.641211</ele>
        <time>2022-02-23T05:17:22.979Z</time>
      </trkpt>
      <trkpt lat="40.26976" lon="-1.33393">
        <ele>1355.754909</ele>
        <time>2022-02-23T05:18:44.692Z</time>
      </trkpt>
      <trkpt lat="40.26932" lon="-1.33423">
        <ele>1359.944018</ele>
        <time>2022-02-23T05:19:15.389Z</time>
      </trkpt>
      <trkpt lat="40.26902" lon="-1.33435">
        <ele>1362.472601</ele>
        <time>2022-02-23T05:19:31.494Z</time>
      </trkpt>
      <trkpt lat="40.26876" lon="-1.33442">
        <ele>1364.414331</ele>
        <time>2022-02-23T05:19:46.891Z</time>
      </trkpt>
      <trkpt lat="40.26846" lon="-1.3344">
        <ele>1366.556692</ele>
        <time>2022-02-23T05:20:03.501Z</time>
      </trkpt>
      <trkpt lat="40.26827" lon="-1.33433">
        <ele>1367.986008</ele>
        <time>2022-02-23T05:20:14.698Z</time>
      </trkpt>
      <trkpt lat="40.26786" lon="-1.33389">
        <ele>1371.841544</ele>
        <time>2022-02-23T05:20:46.423Z</time>
      </trkpt>
      <trkpt lat="40.26772" lon="-1.33383">
        <ele>1372.880185</ele>
        <time>2022-02-23T05:20:54.956Z</time>
      </trkpt>
      <trkpt lat="40.26746" lon="-1.33384">
        <ele>1374.767301</ele>
        <time>2022-02-23T05:21:11.733Z</time>
      </trkpt>
      <trkpt lat="40.26592" lon="-1.33403">
        <ele>1385.274162</ele>
        <time>2022-02-23T05:22:41.956Z</time>
      </trkpt>
      <trkpt lat="40.26484" lon="-1.33447">
        <ele>1391.447794</ele>
        <time>2022-02-23T05:23:34.554Z</time>
      </trkpt>
      <trkpt lat="40.2644" lon="-1.33442">
        <ele>1393.643634</ele>
        <time>2022-02-23T05:23:54.053Z</time>
      </trkpt>
      <trkpt lat="40.26393" lon="-1.33413">
        <ele>1396.214128</ele>
        <time>2022-02-23T05:24:17.995Z</time>
      </trkpt>
      <trkpt lat="40.26348" lon="-1.33347">
        <ele>1400.367368</ele>
        <time>2022-02-23T05:24:52.153Z</time>
      </trkpt>
      <trkpt lat="40.2632" lon="-1.33285">
        <ele>1403.786513</ele>
        <time>2022-02-23T05:25:22.191Z</time>
      </trkpt>
      <trkpt lat="40.26304" lon="-1.33268">
        <ele>1405.055642</ele>
        <time>2022-02-23T05:25:33.984Z</time>
      </trkpt>
      <trkpt lat="40.26283" lon="-1.33255">
        <ele>1406.477518</ele>
        <time>2022-02-23T05:25:47.488Z</time>
      </trkpt>
      <trkpt lat="40.26204" lon="-1.3323">
        <ele>1411.257607</ele>
        <time>2022-02-23T05:26:33.571Z</time>
      </trkpt>
      <trkpt lat="40.2611" lon="-1.3317">
        <ele>1417.326049</ele>
        <time>2022-02-23T05:27:25.283Z</time>
      </trkpt>
      <trkpt lat="40.26049" lon="-1.33148">
        <ele>1419.406281</ele>
        <time>2022-02-23T05:27:52.866Z</time>
      </trkpt>
      <trkpt lat="40.25962" lon="-1.33155">
        <ele>1421.885946</ele>
        <time>2022-02-23T05:28:23.960Z</time>
      </trkpt>
      <trkpt lat="40.25851" lon="-1.33132">
        <ele>1423.96188</ele>
        <time>2022-02-23T05:28:53.809Z</time>
      </trkpt>
      <trkpt lat="40.2579" lon="-1.33092">
        <ele>1424.868909</ele>
        <time>2022-02-23T05:29:12.008Z</time>
      </trkpt>
      <trkpt lat="40.25769" lon="-1.33065">
        <ele>1425.269329</ele>
        <time>2022-02-23T05:29:21.278Z</time>
      </trkpt>
      <trkpt lat="40.25721" lon="-1.32977">
        <ele>1428.157966</ele>
        <time>2022-02-23T05:29:51.137Z</time>
      </trkpt>
      <trkpt lat="40.257" lon="-1.32952">
        <ele>1429.194937</ele>
        <time>2022-02-23T05:30:02.533Z</time>
      </trkpt>
      <trkpt lat="40.25625" lon="-1.3289">
        <ele>1432.68216</ele>
        <time>2022-02-23T05:30:43.212Z</time>
      </trkpt>
      <trkpt lat="40.25583" lon="-1.3287">
        <ele>1435.104444</ele>
        <time>2022-02-23T05:31:06.076Z</time>
      </trkpt>
      <trkpt lat="40.25509" lon="-1.32867">
        <ele>1439.137287</ele>
        <time>2022-02-23T05:31:45.405Z</time>
      </trkpt>
      <trkpt lat="40.25389" lon="-1.32777">
        <ele>1442.720682</ele>
        <time>2022-02-23T05:32:48.368Z</time>
      </trkpt>
      <trkpt lat="40.25375" lon="-1.32771">
        <ele>1442.877837</ele>
        <time>2022-02-23T05:32:52.419Z</time>
      </trkpt>
      <trkpt lat="40.25334" lon="-1.32768">
        <ele>1443.307697</ele>
        <time>2022-02-23T05:33:00.985Z</time>
      </trkpt>
      <trkpt lat="40.25313" lon="-1.32775">
        <ele>1443.531935</ele>
        <time>2022-02-23T05:33:04.857Z</time>
      </trkpt>
      <trkpt lat="40.2518" lon="-1.32849">
        <ele>1435.104003</ele>
        <time>2022-02-23T05:33:26.698Z</time>
      </trkpt>
      <trkpt lat="40.25153" lon="-1.3286">
        <ele>1433.309596</ele>
        <time>2022-02-23T05:33:30.667Z</time>
      </trkpt>
      <trkpt lat="40.2514" lon="-1.32859">
        <ele>1432.465029</ele>
        <time>2022-02-23T05:33:32.581Z</time>
      </trkpt>
      <trkpt lat="40.25126" lon="-1.32845">
        <ele>1431.589484</ele>
        <time>2022-02-23T05:33:35.201Z</time>
      </trkpt>
      <trkpt lat="40.25116" lon="-1.32823">
        <ele>1430.83274</ele>
        <time>2022-02-23T05:33:38.255Z</time>
      </trkpt>
      <trkpt lat="40.25099" lon="-1.32774">
        <ele>1429.286374</ele>
        <time>2022-02-23T05:33:44.674Z</time>
      </trkpt>
      <trkpt lat="40.25088" lon="-1.32719">
        <ele>1427.632593</ele>
        <time>2022-02-23T05:33:52.131Z</time>
      </trkpt>
      <trkpt lat="40.25072" lon="-1.3268">
        <ele>1426.315456</ele>
        <time>2022-02-23T05:33:58.551Z</time>
      </trkpt>
      <trkpt lat="40.25059" lon="-1.32658">
        <ele>1425.526968</ele>
        <time>2022-02-23T05:34:02.675Z</time>
      </trkpt>
      <trkpt lat="40.25028" lon="-1.32629">
        <ele>1424.63224</ele>
        <time>2022-02-23T05:34:10.306Z</time>
      </trkpt>
      <trkpt lat="40.24986" lon="-1.32611">
        <ele>1423.834754</ele>
        <time>2022-02-23T05:34:18.729Z</time>
      </trkpt>
      <trkpt lat="40.24917" lon="-1.32613">
        <ele>1422.578257</ele>
        <time>2022-02-23T05:34:31.813Z</time>
      </trkpt>
      <trkpt lat="40.24896" lon="-1.32604">
        <ele>1422.183621</ele>
        <time>2022-02-23T05:34:35.689Z</time>
      </trkpt>
      <trkpt lat="40.24858" lon="-1.32566">
        <ele>1420.975289</ele>
        <time>2022-02-23T05:34:44.085Z</time>
      </trkpt>
      <trkpt lat="40.24804" lon="-1.32553">
        <ele>1419.417715</ele>
        <time>2022-02-23T05:34:53.201Z</time>
      </trkpt>
      <trkpt lat="40.24723" lon="-1.3252">
        <ele>1416.957394</ele>
        <time>2022-02-23T05:35:08.059Z</time>
      </trkpt>
      <trkpt lat="40.24635" lon="-1.32521">
        <ele>1415.094912</ele>
        <time>2022-02-23T05:35:24.242Z</time>
      </trkpt>
      <trkpt lat="40.24615" lon="-1.32541">
        <ele>1414.587472</ele>
        <time>2022-02-23T05:35:28.813Z</time>
      </trkpt>
      <trkpt lat="40.24577" lon="-1.3261">
        <ele>1413.248478</ele>
        <time>2022-02-23T05:35:40.805Z</time>
      </trkpt>
      <trkpt lat="40.24544" lon="-1.32643">
        <ele>1412.249525</ele>
        <time>2022-02-23T05:35:48.523Z</time>
      </trkpt>
      <trkpt lat="40.24478" lon="-1.32659">
        <ele>1410.561349</ele>
        <time>2022-02-23T05:36:00.658Z</time>
      </trkpt>
      <trkpt lat="40.24425" lon="-1.32646">
        <ele>1409.186378</ele>
        <time>2022-02-23T05:36:10.104Z</time>
      </trkpt>
      <trkpt lat="40.24408" lon="-1.32647">
        <ele>1408.764303</ele>
        <time>2022-02-23T05:36:12.938Z</time>
      </trkpt>
      <trkpt lat="40.24344" lon="-1.32701">
        <ele>1405.256957</ele>
        <time>2022-02-23T05:36:25.704Z</time>
      </trkpt>
      <trkpt lat="40.24326" lon="-1.32704">
        <ele>1404.37916</ele>
        <time>2022-02-23T05:36:28.641Z</time>
      </trkpt>
      <trkpt lat="40.24109" lon="-1.32675">
        <ele>1390.779886</ele>
        <time>2022-02-23T05:37:02.100Z</time>
      </trkpt>
      <trkpt lat="40.24058" lon="-1.32676">
        <ele>1387.01842</ele>
        <time>2022-02-23T05:37:09.546Z</time>
      </trkpt>
      <trkpt lat="40.23988" lon="-1.32652">
        <ele>1379.791672</ele>
        <time>2022-02-23T05:37:19.720Z</time>
      </trkpt>
      <trkpt lat="40.23982" lon="-1.3265">
        <ele>1379.113981</ele>
        <time>2022-02-23T05:37:20.629Z</time>
      </trkpt>
      <trkpt lat="40.23965" lon="-1.32642">
        <ele>1377.300242</ele>
        <time>2022-02-23T05:37:23.079Z</time>
      </trkpt>
      <trkpt lat="40.23899" lon="-1.32613">
        <ele>1370.05263</ele>
        <time>2022-02-23T05:37:32.829Z</time>
      </trkpt>
      <trkpt lat="40.23876" lon="-1.32609">
        <ele>1367.693329</ele>
        <time>2022-02-23T05:37:36.056Z</time>
      </trkpt>
      <trkpt lat="40.23763" lon="-1.32605">
        <ele>1358.299803</ele>
        <time>2022-02-23T05:37:52.378Z</time>
      </trkpt>
      <trkpt lat="40.23717" lon="-1.32609">
        <ele>1354.467015</ele>
        <time>2022-02-23T05:37:59.412Z</time>
      </trkpt>
      <trkpt lat="40.23662" lon="-1.32622">
        <ele>1351.051953</ele>
        <time>2022-02-23T05:38:08.106Z</time>
      </trkpt>
      <trkpt lat="40.23624" lon="-1.3264">
        <ele>1349.015036</ele>
        <time>2022-02-23T05:38:14.560Z</time>
      </trkpt>
      <trkpt lat="40.23599" lon="-1.32687">
        <ele>1346.800743</ele>
        <time>2022-02-23T05:38:21.652Z</time>
      </trkpt>
      <trkpt lat="40.23552" lon="-1.32726">
        <ele>1343.993985</ele>
        <time>2022-02-23T05:38:30.517Z</time>
      </trkpt>
      <trkpt lat="40.2353" lon="-1.32738">
        <ele>1342.467135</ele>
        <time>2022-02-23T05:38:34.370Z</time>
      </trkpt>
      <trkpt lat="40.23489" lon="-1.32734">
        <ele>1339.849449</ele>
        <time>2022-02-23T05:38:40.628Z</time>
      </trkpt>
      <trkpt lat="40.23453" lon="-1.32742">
        <ele>1337.487935</ele>
        <time>2022-02-23T05:38:46.141Z</time>
      </trkpt>
      <trkpt lat="40.23426" lon="-1.32731">
        <ele>1335.637274</ele>
        <time>2022-02-23T05:38:50.433Z</time>
      </trkpt>
      <trkpt lat="40.23358" lon="-1.32723">
        <ele>1331.23228</ele>
        <time>2022-02-23T05:39:00.668Z</time>
      </trkpt>
      <trkpt lat="40.23338" lon="-1.32726">
        <ele>1329.988932</ele>
        <time>2022-02-23T05:39:03.572Z</time>
      </trkpt>
      <trkpt lat="40.23306" lon="-1.32743">
        <ele>1327.799676</ele>
        <time>2022-02-23T05:39:08.773Z</time>
      </trkpt>
      <trkpt lat="40.23179" lon="-1.32727">
        <ele>1319.938374</ele>
        <time>2022-02-23T05:39:28.629Z</time>
      </trkpt>
      <trkpt lat="40.23153" lon="-1.32729">
        <ele>1318.566761</ele>
        <time>2022-02-23T05:39:32.675Z</time>
      </trkpt>
      <trkpt lat="40.23057" lon="-1.32704">
        <ele>1313.218561</ele>
        <time>2022-02-23T05:39:48.211Z</time>
      </trkpt>
      <trkpt lat="40.23043" lon="-1.32693">
        <ele>1312.352977</ele>
        <time>2022-02-23T05:39:50.685Z</time>
      </trkpt>
      <trkpt lat="40.23013" lon="-1.32647">
        <ele>1309.431345</ele>
        <time>2022-02-23T05:39:57.878Z</time>
      </trkpt>
      <trkpt lat="40.22979" lon="-1.32618">
        <ele>1306.641574</ele>
        <time>2022-02-23T05:40:03.988Z</time>
      </trkpt>
      <trkpt lat="40.22922" lon="-1.32592">
        <ele>1302.428823</ele>
        <time>2022-02-23T05:40:13.059Z</time>
      </trkpt>
      <trkpt lat="40.22867" lon="-1.32575">
        <ele>1298.417612</ele>
        <time>2022-02-23T05:40:21.393Z</time>
      </trkpt>
      <trkpt lat="40.22816" lon="-1.32523">
        <ele>1292.391345</ele>
        <time>2022-02-23T05:40:30.785Z</time>
      </trkpt>
      <trkpt lat="40.22701" lon="-1.32475">
        <ele>1280.971102</ele>
        <time>2022-02-23T05:40:48.000Z</time>
      </trkpt>
      <trkpt lat="40.22478" lon="-1.32476">
        <ele>1259.386294</ele>
        <time>2022-02-23T05:41:19.287Z</time>
      </trkpt>
      <trkpt lat="40.22465" lon="-1.32478">
        <ele>1258.558473</ele>
        <time>2022-02-23T05:41:21.173Z</time>
      </trkpt>
      <trkpt lat="40.22374" lon="-1.32544">
        <ele>1251.740026</ele>
        <time>2022-02-23T05:41:37.610Z</time>
      </trkpt>
      <trkpt lat="40.22363" lon="-1.32547">
        <ele>1251.044171</ele>
        <time>2022-02-23T05:41:39.512Z</time>
      </trkpt>
      <trkpt lat="40.22341" lon="-1.32541">
        <ele>1250.387908</ele>
        <time>2022-02-23T05:41:43.671Z</time>
      </trkpt>
      <trkpt lat="40.22326" lon="-1.32545">
        <ele>1250.001438</ele>
        <time>2022-02-23T05:41:46.565Z</time>
      </trkpt>
      <trkpt lat="40.22303" lon="-1.32573">
        <ele>1249.19101</ele>
        <time>2022-02-23T05:41:52.721Z</time>
      </trkpt>
      <trkpt lat="40.22305" lon="-1.32628">
        <ele>1248.093981</ele>
        <time>2022-02-23T05:42:00.682Z</time>
      </trkpt>
      <trkpt lat="40.22288" lon="-1.32662">
        <ele>1247.287521</ele>
        <time>2022-02-23T05:42:06.287Z</time>
      </trkpt>
      <trkpt lat="40.2226" lon="-1.32686">
        <ele>1246.424126</ele>
        <time>2022-02-23T05:42:11.997Z</time>
      </trkpt>
      <trkpt lat="40.22227" lon="-1.32704">
        <ele>1244.604948</ele>
        <time>2022-02-23T05:42:17.877Z</time>
      </trkpt>
      <trkpt lat="40.22191" lon="-1.32767">
        <ele>1241.293569</ele>
        <time>2022-02-23T05:42:27.372Z</time>
      </trkpt>
      <trkpt lat="40.22126" lon="-1.32823">
        <ele>1237.016837</ele>
        <time>2022-02-23T05:42:39.208Z</time>
      </trkpt>
      <trkpt lat="40.22065" lon="-1.32856">
        <ele>1232.891088</ele>
        <time>2022-02-23T05:42:49.131Z</time>
      </trkpt>
      <trkpt lat="40.22011" lon="-1.3291">
        <ele>1228.577407</ele>
        <time>2022-02-23T05:42:59.356Z</time>
      </trkpt>
      <trkpt lat="40.2192" lon="-1.32977">
        <ele>1222.685642</ele>
        <time>2022-02-23T05:43:15.583Z</time>
      </trkpt>
      <trkpt lat="40.21862" lon="-1.32989">
        <ele>1219.876804</ele>
        <time>2022-02-23T05:43:24.905Z</time>
      </trkpt>
      <trkpt lat="40.21836" lon="-1.32981">
        <ele>1218.563555</ele>
        <time>2022-02-23T05:43:29.302Z</time>
      </trkpt>
      <trkpt lat="40.218" lon="-1.33009">
        <ele>1216.595681</ele>
        <time>2022-02-23T05:43:36.076Z</time>
      </trkpt>
      <trkpt lat="40.21789" lon="-1.33034">
        <ele>1215.725335</ele>
        <time>2022-02-23T05:43:39.711Z</time>
      </trkpt>
      <trkpt lat="40.21793" lon="-1.33088">
        <ele>1214.310852</ele>
        <time>2022-02-23T05:43:46.692Z</time>
      </trkpt>
      <trkpt lat="40.21816" lon="-1.33199">
        <ele>1211.246514</ele>
        <time>2022-02-23T05:44:01.578Z</time>
      </trkpt>
      <trkpt lat="40.21801" lon="-1.33233">
        <ele>1210.217841</ele>
        <time>2022-02-23T05:44:06.573Z</time>
      </trkpt>
      <trkpt lat="40.21783" lon="-1.33239">
        <ele>1209.719911</ele>
        <time>2022-02-23T05:44:09.929Z</time>
      </trkpt>
      <trkpt lat="40.21625" lon="-1.33201">
        <ele>1205.837333</ele>
        <time>2022-02-23T05:44:38.450Z</time>
      </trkpt>
      <trkpt lat="40.21581" lon="-1.33201">
        <ele>1205.667093</ele>
        <time>2022-02-23T05:44:46.969Z</time>
      </trkpt>
      <trkpt lat="40.21564" lon="-1.33201">
        <ele>1205.647705</ele>
        <time>2022-02-23T05:44:50.318Z</time>
      </trkpt>
      <trkpt lat="40.21504" lon="-1.33206">
        <ele>1205.579032</ele>
        <time>2022-02-23T05:45:03.937Z</time>
      </trkpt>
      <trkpt lat="40.21455" lon="-1.33202">
        <ele>1205.523063</ele>
        <time>2022-02-23T05:45:16.985Z</time>
      </trkpt>
      <trkpt lat="40.21422" lon="-1.33226">
        <ele>1205.788121</ele>
        <time>2022-02-23T05:45:27.986Z</time>
      </trkpt>
      <trkpt lat="40.21379" lon="-1.33282">
        <ele>1206.528375</ele>
        <time>2022-02-23T05:45:45.894Z</time>
      </trkpt>
      <trkpt lat="40.21334" lon="-1.33273">
        <ele>1207.081341</ele>
        <time>2022-02-23T05:45:58.515Z</time>
      </trkpt>
      <trkpt lat="40.21292" lon="-1.33293">
        <ele>1207.628479</ele>
        <time>2022-02-23T05:46:11.364Z</time>
      </trkpt>
      <trkpt lat="40.21202" lon="-1.33295">
        <ele>1208.757285</ele>
        <time>2022-02-23T05:46:35.785Z</time>
      </trkpt>
      <trkpt lat="40.21163" lon="-1.33318">
        <ele>1209.286115</ele>
        <time>2022-02-23T05:46:46.991Z</time>
      </trkpt>
      <trkpt lat="40.20972" lon="-1.3375">
        <ele>1216.749527</ele>
        <time>2022-02-23T05:48:45.066Z</time>
      </trkpt>
      <trkpt lat="40.20936" lon="-1.33722">
        <ele>1218.044117</ele>
        <time>2022-02-23T05:49:05.006Z</time>
      </trkpt>
      <trkpt lat="40.20921" lon="-1.33721">
        <ele>1218.782615</ele>
        <time>2022-02-23T05:49:11.993Z</time>
      </trkpt>
      <trkpt lat="40.20911" lon="-1.33726">
        <ele>1219.322928</ele>
        <time>2022-02-23T05:49:17.627Z</time>
      </trkpt>
      <trkpt lat="40.20873" lon="-1.33769">
        <ele>1221.726624</ele>
        <time>2022-02-23T05:49:42.397Z</time>
      </trkpt>
      <trkpt lat="40.20842" lon="-1.33789">
        <ele>1223.417227</ele>
        <time>2022-02-23T05:50:00.533Z</time>
      </trkpt>
      <trkpt lat="40.20816" lon="-1.33792">
        <ele>1224.652137</ele>
        <time>2022-02-23T05:50:13.750Z</time>
      </trkpt>
      <trkpt lat="40.20718" lon="-1.33769">
        <ele>1227.942649</ele>
        <time>2022-02-23T05:50:52.822Z</time>
      </trkpt>
      <trkpt lat="40.20702" lon="-1.33771">
        <ele>1228.334725</ele>
        <time>2022-02-23T05:50:58.089Z</time>
      </trkpt>
      <trkpt lat="40.20657" lon="-1.33789">
        <ele>1229.538088</ele>
        <time>2022-02-23T05:51:13.719Z</time>
      </trkpt>
      <trkpt lat="40.20615" lon="-1.33796">
        <ele>1230.617983</ele>
        <time>2022-02-23T05:51:26.198Z</time>
      </trkpt>
      <trkpt lat="40.20569" lon="-1.33794">
        <ele>1231.49398</ele>
        <time>2022-02-23T05:51:39.698Z</time>
      </trkpt>
      <trkpt lat="40.20547" lon="-1.33771">
        <ele>1232.013013</ele>
        <time>2022-02-23T05:51:48.203Z</time>
      </trkpt>
      <trkpt lat="40.20514" lon="-1.33705">
        <ele>1233.111179</ele>
        <time>2022-02-23T05:52:06.995Z</time>
      </trkpt>
      <trkpt lat="40.20478" lon="-1.33678">
        <ele>1233.868357</ele>
        <time>2022-02-23T05:52:20.418Z</time>
      </trkpt>
      <trkpt lat="40.20457" lon="-1.33669">
        <ele>1234.28104</ele>
        <time>2022-02-23T05:52:27.739Z</time>
      </trkpt>
      <trkpt lat="40.20419" lon="-1.33665">
        <ele>1235.077492</ele>
        <time>2022-02-23T05:52:40.927Z</time>
      </trkpt>
      <trkpt lat="40.20365" lon="-1.33648">
        <ele>1236.222324</ele>
        <time>2022-02-23T05:53:00.068Z</time>
      </trkpt>
      <trkpt lat="40.20261" lon="-1.3365">
        <ele>1238.02172</ele>
        <time>2022-02-23T05:53:32.909Z</time>
      </trkpt>
      <trkpt lat="40.20211" lon="-1.33645">
        <ele>1238.425218</ele>
        <time>2022-02-23T05:53:46.353Z</time>
      </trkpt>
      <trkpt lat="40.20156" lon="-1.33611">
        <ele>1238.926316</ele>
        <time>2022-02-23T05:54:01.893Z</time>
      </trkpt>
      <trkpt lat="40.2011" lon="-1.33605">
        <ele>1239.215533</ele>
        <time>2022-02-23T05:54:12.449Z</time>
      </trkpt>
      <trkpt lat="40.20043" lon="-1.33585">
        <ele>1238.792888</ele>
        <time>2022-02-23T05:54:27.213Z</time>
      </trkpt>
      <trkpt lat="40.19902" lon="-1.33502">
        <ele>1237.368126</ele>
        <time>2022-02-23T05:54:58.038Z</time>
      </trkpt>
      <trkpt lat="40.1978" lon="-1.33393">
        <ele>1234.882988</ele>
        <time>2022-02-23T05:55:25.509Z</time>
      </trkpt>
      <trkpt lat="40.19746" lon="-1.33378">
        <ele>1233.928844</ele>
        <time>2022-02-23T05:55:32.163Z</time>
      </trkpt>
      <trkpt lat="40.19677" lon="-1.33382">
        <ele>1232.132255</ele>
        <time>2022-02-23T05:55:44.383Z</time>
      </trkpt>
      <trkpt lat="40.19604" lon="-1.33347">
        <ele>1229.726945</ele>
        <time>2022-02-23T05:55:57.760Z</time>
      </trkpt>
      <trkpt lat="40.19504" lon="-1.33321">
        <ele>1225.23343</ele>
        <time>2022-02-23T05:56:14.263Z</time>
      </trkpt>
      <trkpt lat="40.19464" lon="-1.33294">
        <ele>1223.227734</ele>
        <time>2022-02-23T05:56:21.413Z</time>
      </trkpt>
      <trkpt lat="40.19381" lon="-1.33217">
        <ele>1218.292149</ele>
        <time>2022-02-23T05:56:37.367Z</time>
      </trkpt>
      <trkpt lat="40.1931" lon="-1.3317">
        <ele>1214.383463</ele>
        <time>2022-02-23T05:56:50.027Z</time>
      </trkpt>
      <trkpt lat="40.19269" lon="-1.33159">
        <ele>1212.828516</ele>
        <time>2022-02-23T05:56:56.815Z</time>
      </trkpt>
      <trkpt lat="40.19236" lon="-1.33166">
        <ele>1211.727349</ele>
        <time>2022-02-23T05:57:02.383Z</time>
      </trkpt>
      <trkpt lat="40.19206" lon="-1.33165">
        <ele>1210.738307</ele>
        <time>2022-02-23T05:57:07.458Z</time>
      </trkpt>
      <trkpt lat="40.19153" lon="-1.33149">
        <ele>1208.920098</ele>
        <time>2022-02-23T05:57:17.017Z</time>
      </trkpt>
      <trkpt lat="40.19053" lon="-1.33107">
        <ele>1206.769261</ele>
        <time>2022-02-23T05:57:35.970Z</time>
      </trkpt>
      <trkpt lat="40.18913" lon="-1.33025">
        <ele>1205.068354</ele>
        <time>2022-02-23T05:58:06.308Z</time>
      </trkpt>
      <trkpt lat="40.18882" lon="-1.33005">
        <ele>1205.014522</ele>
        <time>2022-02-23T05:58:13.952Z</time>
      </trkpt>
      <trkpt lat="40.18838" lon="-1.32966">
        <ele>1204.932168</ele>
        <time>2022-02-23T05:58:26.074Z</time>
      </trkpt>
      <trkpt lat="40.18797" lon="-1.32946">
        <ele>1204.863451</ele>
        <time>2022-02-23T05:58:36.637Z</time>
      </trkpt>
      <trkpt lat="40.18774" lon="-1.32936">
        <ele>1204.981685</ele>
        <time>2022-02-23T05:58:42.399Z</time>
      </trkpt>
      <trkpt lat="40.18736" lon="-1.32923">
        <ele>1205.191216</ele>
        <time>2022-02-23T05:58:52.243Z</time>
      </trkpt>
      <trkpt lat="40.18663" lon="-1.32914">
        <ele>1205.581028</ele>
        <time>2022-02-23T05:59:10.679Z</time>
      </trkpt>
      <trkpt lat="40.18617" lon="-1.32915">
        <ele>1205.831298</ele>
        <time>2022-02-23T05:59:22.009Z</time>
      </trkpt>
      <trkpt lat="40.18602" lon="-1.32923">
        <ele>1205.967099</ele>
        <time>2022-02-23T05:59:25.874Z</time>
      </trkpt>
      <trkpt lat="40.18515" lon="-1.33018">
        <ele>1206.965465</ele>
        <time>2022-02-23T05:59:55.689Z</time>
      </trkpt>
      <trkpt lat="40.18416" lon="-1.33079">
        <ele>1208.083596</ele>
        <time>2022-02-23T06:00:26.867Z</time>
      </trkpt>
      <trkpt lat="40.18318" lon="-1.33162">
        <ele>1209.394796</ele>
        <time>2022-02-23T06:00:59.540Z</time>
      </trkpt>
      <trkpt lat="40.18291" lon="-1.33171">
        <ele>1209.580143</ele>
        <time>2022-02-23T06:01:06.812Z</time>
      </trkpt>
      <trkpt lat="40.18232" lon="-1.33205">
        <ele>1209.994051</ele>
        <time>2022-02-23T06:01:23.695Z</time>
      </trkpt>
      <trkpt lat="40.18144" lon="-1.33297">
        <ele>1210.590607</ele>
        <time>2022-02-23T06:01:51.119Z</time>
      </trkpt>
      <trkpt lat="40.18024" lon="-1.33372">
        <ele>1210.7524</ele>
        <time>2022-02-23T06:02:22.042Z</time>
      </trkpt>
      <trkpt lat="40.17965" lon="-1.33418">
        <ele>1210.349998</ele>
        <time>2022-02-23T06:02:36.788Z</time>
      </trkpt>
      <trkpt lat="40.17908" lon="-1.33454">
        <ele>1209.726909</ele>
        <time>2022-02-23T06:02:49.628Z</time>
      </trkpt>
      <trkpt lat="40.17857" lon="-1.33458">
        <ele>1209.230167</ele>
        <time>2022-02-23T06:02:59.398Z</time>
      </trkpt>
      <trkpt lat="40.17741" lon="-1.33428">
        <ele>1206.867879</ele>
        <time>2022-02-23T06:03:20.937Z</time>
      </trkpt>
      <trkpt lat="40.17684" lon="-1.33395">
        <ele>1205.464336</ele>
        <time>2022-02-23T06:03:32.072Z</time>
      </trkpt>
      <trkpt lat="40.17655" lon="-1.33374">
        <ele>1204.716493</ele>
        <time>2022-02-23T06:03:37.942Z</time>
      </trkpt>
      <trkpt lat="40.17636" lon="-1.33353">
        <ele>1204.142007</ele>
        <time>2022-02-23T06:03:42.340Z</time>
      </trkpt>
      <trkpt lat="40.17622" lon="-1.33323">
        <ele>1203.531952</ele>
        <time>2022-02-23T06:03:47.022Z</time>
      </trkpt>
      <trkpt lat="40.17592" lon="-1.33219">
        <ele>1201.560303</ele>
        <time>2022-02-23T06:04:02.284Z</time>
      </trkpt>
      <trkpt lat="40.175" lon="-1.33032">
        <ele>1197.995731</ele>
        <time>2022-02-23T06:04:33.710Z</time>
      </trkpt>
      <trkpt lat="40.17438" lon="-1.32857">
        <ele>1194.504649</ele>
        <time>2022-02-23T06:05:00.315Z</time>
      </trkpt>
      <trkpt lat="40.17345" lon="-1.32683">
        <ele>1190.101032</ele>
        <time>2022-02-23T06:05:28.463Z</time>
      </trkpt>
      <trkpt lat="40.17334" lon="-1.32653">
        <ele>1189.373159</ele>
        <time>2022-02-23T06:05:32.780Z</time>
      </trkpt>
      <trkpt lat="40.17293" lon="-1.32489">
        <ele>1185.831363</ele>
        <time>2022-02-23T06:05:55.922Z</time>
      </trkpt>
      <trkpt lat="40.1727" lon="-1.32432">
        <ele>1184.621833</ele>
        <time>2022-02-23T06:06:04.645Z</time>
      </trkpt>
      <trkpt lat="40.17228" lon="-1.32367">
        <ele>1183.019486</ele>
        <time>2022-02-23T06:06:16.232Z</time>
      </trkpt>
      <trkpt lat="40.17135" lon="-1.32248">
        <ele>1180.734474</ele>
        <time>2022-02-23T06:06:40.191Z</time>
      </trkpt>
      <trkpt lat="40.17099" lon="-1.32209">
        <ele>1179.901668</ele>
        <time>2022-02-23T06:06:49.518Z</time>
      </trkpt>
      <trkpt lat="40.17062" lon="-1.32165">
        <ele>1178.919656</ele>
        <time>2022-02-23T06:06:59.247Z</time>
      </trkpt>
      <trkpt lat="40.17021" lon="-1.32125">
        <ele>1177.891042</ele>
        <time>2022-02-23T06:07:08.965Z</time>
      </trkpt>
      <trkpt lat="40.16955" lon="-1.32087">
        <ele>1176.45821</ele>
        <time>2022-02-23T06:07:21.885Z</time>
      </trkpt>
      <trkpt lat="40.16888" lon="-1.32081">
        <ele>1173.258741</ele>
        <time>2022-02-23T06:07:33.334Z</time>
      </trkpt>
      <trkpt lat="40.16813" lon="-1.32072">
        <ele>1169.339311</ele>
        <time>2022-02-23T06:07:45.164Z</time>
      </trkpt>
      <trkpt lat="40.16771" lon="-1.32081">
        <ele>1167.148346</ele>
        <time>2022-02-23T06:07:51.543Z</time>
      </trkpt>
      <trkpt lat="40.16739" lon="-1.32064">
        <ele>1164.11988</ele>
        <time>2022-02-23T06:07:56.637Z</time>
      </trkpt>
      <trkpt lat="40.16662" lon="-1.31979">
        <ele>1154.777092</ele>
        <time>2022-02-23T06:08:11.191Z</time>
      </trkpt>
      <trkpt lat="40.16495" lon="-1.31808">
        <ele>1132.628448</ele>
        <time>2022-02-23T06:08:40.671Z</time>
      </trkpt>
      <trkpt lat="40.16428" lon="-1.31724">
        <ele>1126.088067</ele>
        <time>2022-02-23T06:08:54.154Z</time>
      </trkpt>
      <trkpt lat="40.16396" lon="-1.31695">
        <ele>1123.671512</ele>
        <time>2022-02-23T06:09:00.216Z</time>
      </trkpt>
      <trkpt lat="40.16371" lon="-1.31681">
        <ele>1122.011372</ele>
        <time>2022-02-23T06:09:04.540Z</time>
      </trkpt>
      <trkpt lat="40.16333" lon="-1.31672">
        <ele>1119.659287</ele>
        <time>2022-02-23T06:09:11.347Z</time>
      </trkpt>
      <trkpt lat="40.16277" lon="-1.31671">
        <ele>1118.978655</ele>
        <time>2022-02-23T06:09:21.793Z</time>
      </trkpt>
      <trkpt lat="40.16252" lon="-1.31658">
        <ele>1118.646468</ele>
        <time>2022-02-23T06:09:27.406Z</time>
      </trkpt>
      <trkpt lat="40.1621" lon="-1.31596">
        <ele>1117.873153</ele>
        <time>2022-02-23T06:09:40.685Z</time>
      </trkpt>
      <trkpt lat="40.16155" lon="-1.31571">
        <ele>1116.717959</ele>
        <time>2022-02-23T06:09:52.680Z</time>
      </trkpt>
      <trkpt lat="40.16128" lon="-1.31531">
        <ele>1115.500301</ele>
        <time>2022-02-23T06:10:00.404Z</time>
      </trkpt>
      <trkpt lat="40.16121" lon="-1.31504">
        <ele>1114.86073</ele>
        <time>2022-02-23T06:10:04.212Z</time>
      </trkpt>
      <trkpt lat="40.16111" lon="-1.31415">
        <ele>1112.816017</ele>
        <time>2022-02-23T06:10:15.665Z</time>
      </trkpt>
      <trkpt lat="40.16085" lon="-1.31346">
        <ele>1110.125363</ele>
        <time>2022-02-23T06:10:24.921Z</time>
      </trkpt>
      <trkpt lat="40.16075" lon="-1.31329">
        <ele>1109.21313</ele>
        <time>2022-02-23T06:10:27.449Z</time>
      </trkpt>
      <trkpt lat="40.1603" lon="-1.31298">
        <ele>1106.351038</ele>
        <time>2022-02-23T06:10:35.347Z</time>
      </trkpt>
      <trkpt lat="40.16019" lon="-1.31282">
        <ele>1105.417303</ele>
        <time>2022-02-23T06:10:37.904Z</time>
      </trkpt>
      <trkpt lat="40.16002" lon="-1.31217">
        <ele>1102.474779</ele>
        <time>2022-02-23T06:10:46.049Z</time>
      </trkpt>
      <trkpt lat="40.15993" lon="-1.3116">
        <ele>1099.181683</ele>
        <time>2022-02-23T06:10:52.923Z</time>
      </trkpt>
      <trkpt lat="40.15988" lon="-1.31146">
        <ele>1098.269099</ele>
        <time>2022-02-23T06:10:54.763Z</time>
      </trkpt>
      <trkpt lat="40.15966" lon="-1.31121">
        <ele>1095.995537</ele>
        <time>2022-02-23T06:10:59.019Z</time>
      </trkpt>
      <trkpt lat="40.15951" lon="-1.31054">
        <ele>1091.887563</ele>
        <time>2022-02-23T06:11:06.738Z</time>
      </trkpt>
      <trkpt lat="40.15911" lon="-1.30972">
        <ele>1085.629814</ele>
        <time>2022-02-23T06:11:17.519Z</time>
      </trkpt>
      <trkpt lat="40.15889" lon="-1.30964">
        <ele>1083.421868</ele>
        <time>2022-02-23T06:11:20.774Z</time>
      </trkpt>
      <trkpt lat="40.15878" lon="-1.30968">
        <ele>1082.345983</ele>
        <time>2022-02-23T06:11:22.423Z</time>
      </trkpt>
      <trkpt lat="40.15841" lon="-1.30999">
        <ele>1078.133696</ele>
        <time>2022-02-23T06:11:28.738Z</time>
      </trkpt>
      <trkpt lat="40.1583" lon="-1.30998">
        <ele>1077.072983</ele>
        <time>2022-02-23T06:11:30.324Z</time>
      </trkpt>
      <trkpt lat="40.15804" lon="-1.3098">
        <ele>1074.305152</ele>
        <time>2022-02-23T06:11:34.467Z</time>
      </trkpt>
      <trkpt lat="40.15759" lon="-1.3092">
        <ele>1068.458532</ele>
        <time>2022-02-23T06:11:43.520Z</time>
      </trkpt>
      <trkpt lat="40.1574" lon="-1.30901">
        <ele>1066.374776</ele>
        <time>2022-02-23T06:11:47.135Z</time>
      </trkpt>
      <trkpt lat="40.15709" lon="-1.30884">
        <ele>1063.555683</ele>
        <time>2022-02-23T06:11:51.960Z</time>
      </trkpt>
      <trkpt lat="40.15666" lon="-1.30879">
        <ele>1059.81356</ele>
        <time>2022-02-23T06:11:58.354Z</time>
      </trkpt>
      <trkpt lat="40.1563" lon="-1.3088">
        <ele>1056.694377</ele>
        <time>2022-02-23T06:12:03.724Z</time>
      </trkpt>
      <trkpt lat="40.15574" lon="-1.30865">
        <ele>1051.749598</ele>
        <time>2022-02-23T06:12:11.990Z</time>
      </trkpt>
      <trkpt lat="40.15553" lon="-1.30831">
        <ele>1048.769134</ele>
        <time>2022-02-23T06:12:16.808Z</time>
      </trkpt>
      <trkpt lat="40.1554" lon="-1.30817">
        <ele>1047.308889</ele>
        <time>2022-02-23T06:12:19.158Z</time>
      </trkpt>
      <trkpt lat="40.15526" lon="-1.30811">
        <ele>1046.017549</ele>
        <time>2022-02-23T06:12:21.244Z</time>
      </trkpt>
      <trkpt lat="40.15444" lon="-1.30806">
        <ele>1038.634213</ele>
        <time>2022-02-23T06:12:33.253Z</time>
      </trkpt>
      <trkpt lat="40.1542" lon="-1.30771">
        <ele>1035.076102</ele>
        <time>2022-02-23T06:12:38.497Z</time>
      </trkpt>
      <trkpt lat="40.15399" lon="-1.30712">
        <ele>1030.031538</ele>
        <time>2022-02-23T06:12:45.686Z</time>
      </trkpt>
      <trkpt lat="40.15366" lon="-1.30688">
        <ele>1026.316493</ele>
        <time>2022-02-23T06:12:50.900Z</time>
      </trkpt>
      <trkpt lat="40.1533" lon="-1.30678">
        <ele>1022.642224</ele>
        <time>2022-02-23T06:12:56.003Z</time>
      </trkpt>
      <trkpt lat="40.15314" lon="-1.30681">
        <ele>1020.928092</ele>
        <time>2022-02-23T06:12:58.232Z</time>
      </trkpt>
      <trkpt lat="40.15178" lon="-1.3079">
        <ele>1002.139968</ele>
        <time>2022-02-23T06:13:20.257Z</time>
      </trkpt>
      <trkpt lat="40.15117" lon="-1.30802">
        <ele>994.610051</ele>
        <time>2022-02-23T06:13:29.006Z</time>
      </trkpt>
      <trkpt lat="40.15109" lon="-1.30818">
        <ele>992.935042</ele>
        <time>2022-02-23T06:13:30.963Z</time>
      </trkpt>
      <trkpt lat="40.1512" lon="-1.30864">
        <ele>988.449765</ele>
        <time>2022-02-23T06:13:36.099Z</time>
      </trkpt>
      <trkpt lat="40.15117" lon="-1.30886">
        <ele>986.327366</ele>
        <time>2022-02-23T06:13:38.490Z</time>
      </trkpt>
      <trkpt lat="40.15096" lon="-1.30927">
        <ele>981.801841</ele>
        <time>2022-02-23T06:13:43.624Z</time>
      </trkpt>
      <trkpt lat="40.15037" lon="-1.30972">
        <ele>972.588403</ele>
        <time>2022-02-23T06:13:53.035Z</time>
      </trkpt>
      <trkpt lat="40.15024" lon="-1.31008">
        <ele>968.199361</ele>
        <time>2022-02-23T06:13:57.239Z</time>
      </trkpt>
      <trkpt lat="40.15017" lon="-1.31026">
        <ele>966.026288</ele>
        <time>2022-02-23T06:13:59.274Z</time>
      </trkpt>
      <trkpt lat="40.14999" lon="-1.31046">
        <ele>962.69781</ele>
        <time>2022-02-23T06:14:02.477Z</time>
      </trkpt>
      <trkpt lat="40.14895" lon="-1.31093">
        <ele>947.730263</ele>
        <time>2022-02-23T06:14:17.172Z</time>
      </trkpt>
      <trkpt lat="40.14812" lon="-1.31171">
        <ele>935.060715</ele>
        <time>2022-02-23T06:14:31.451Z</time>
      </trkpt>
      <trkpt lat="40.14808" lon="-1.31165">
        <ele>934.290254</ele>
        <time>2022-02-23T06:14:33.018Z</time>
      </trkpt>
      <trkpt lat="40.14791" lon="-1.31195">
        <ele>930.723426</ele>
        <time>2022-02-23T06:14:40.302Z</time>
      </trkpt>
      <trkpt lat="40.14769" lon="-1.31207">
        <ele>928.469446</ele>
        <time>2022-02-23T06:14:46.342Z</time>
      </trkpt>
      <trkpt lat="40.14747" lon="-1.31228">
        <ele>925.877443</ele>
        <time>2022-02-23T06:14:53.182Z</time>
      </trkpt>
      <trkpt lat="40.14745" lon="-1.31249">
        <ele>924.361648</ele>
        <time>2022-02-23T06:14:57.298Z</time>
      </trkpt>
      <trkpt lat="40.14736" lon="-1.3127">
        <ele>922.646231</ele>
        <time>2022-02-23T06:15:01.791Z</time>
      </trkpt>
      <trkpt lat="40.14738" lon="-1.31282">
        <ele>921.754012</ele>
        <time>2022-02-23T06:15:04.218Z</time>
      </trkpt>
      <trkpt lat="40.14719" lon="-1.31299">
        <ele>919.581247</ele>
        <time>2022-02-23T06:15:07.494Z</time>
      </trkpt>
      <trkpt lat="40.14699" lon="-1.31298">
        <ele>917.646441</ele>
        <time>2022-02-23T06:15:10.494Z</time>
      </trkpt>
      <trkpt lat="40.14695" lon="-1.31302">
        <ele>917.203781</ele>
        <time>2022-02-23T06:15:11.155Z</time>
      </trkpt>
      <trkpt lat="40.14695" lon="-1.31308">
        <ele>916.756541</ele>
        <time>2022-02-23T06:15:11.856Z</time>
      </trkpt>
      <trkpt lat="40.14672" lon="-1.31327">
        <ele>914.205385</ele>
        <time>2022-02-23T06:15:16.170Z</time>
      </trkpt>
      <trkpt lat="40.14661" lon="-1.31322">
        <ele>913.480412</ele>
        <time>2022-02-23T06:15:18.070Z</time>
      </trkpt>
      <trkpt lat="40.14658" lon="-1.31325">
        <ele>913.31168</ele>
        <time>2022-02-23T06:15:18.798Z</time>
      </trkpt>
      <trkpt lat="40.14649" lon="-1.31335">
        <ele>912.872195</ele>
        <time>2022-02-23T06:15:20.627Z</time>
      </trkpt>
      <trkpt lat="40.14631" lon="-1.31355">
        <ele>911.990116</ele>
        <time>2022-02-23T06:15:26.265Z</time>
      </trkpt>
      <trkpt lat="40.1462" lon="-1.31351">
        <ele>911.557747</ele>
        <time>2022-02-23T06:15:28.640Z</time>
      </trkpt>
      <trkpt lat="40.14612" lon="-1.31361">
        <ele>911.136715</ele>
        <time>2022-02-23T06:15:31.916Z</time>
      </trkpt>
      <trkpt lat="40.14608" lon="-1.31381">
        <ele>910.548661</ele>
        <time>2022-02-23T06:15:35.737Z</time>
      </trkpt>
      <trkpt lat="40.14617" lon="-1.31392">
        <ele>910.100897</ele>
        <time>2022-02-23T06:15:38.254Z</time>
      </trkpt>
      <trkpt lat="40.1465" lon="-1.31379">
        <ele>908.812437</ele>
        <time>2022-02-23T06:15:46.213Z</time>
      </trkpt>
      <trkpt lat="40.14674" lon="-1.3138">
        <ele>907.909355</ele>
        <time>2022-02-23T06:15:52.521Z</time>
      </trkpt>
      <trkpt lat="40.147" lon="-1.31383">
        <ele>906.924976</ele>
        <time>2022-02-23T06:15:57.290Z</time>
      </trkpt>
      <trkpt lat="40.14751" lon="-1.31374">
        <ele>904.636085</ele>
        <time>2022-02-23T06:16:07.056Z</time>
      </trkpt>
      <trkpt lat="40.14696" lon="-1.31399">
        <ele>902.047595</ele>
        <time>2022-02-23T06:16:17.353Z</time>
      </trkpt>
      <trkpt lat="40.14616" lon="-1.31427">
        <ele>898.123968</ele>
        <time>2022-02-23T06:16:29.765Z</time>
      </trkpt>
      <trkpt lat="40.14578" lon="-1.31534">
        <ele>892.317602</ele>
        <time>2022-02-23T06:16:42.992Z</time>
      </trkpt>
      <trkpt lat="40.14542" lon="-1.31629">
        <ele>887.350998</ele>
        <time>2022-02-23T06:16:55.777Z</time>
      </trkpt>
      <trkpt lat="40.14515" lon="-1.31671">
        <ele>886.478885</ele>
        <time>2022-02-23T06:17:02.890Z</time>
      </trkpt>
      <trkpt lat="40.14477" lon="-1.31719">
        <ele>885.388015</ele>
        <time>2022-02-23T06:17:12.414Z</time>
      </trkpt>
      <trkpt lat="40.14451" lon="-1.31734">
        <ele>884.78621</ele>
        <time>2022-02-23T06:17:17.987Z</time>
      </trkpt>
      <trkpt lat="40.14432" lon="-1.31736">
        <ele>884.383785</ele>
        <time>2022-02-23T06:17:21.802Z</time>
      </trkpt>
      <trkpt lat="40.14403" lon="-1.31726">
        <ele>883.755561</ele>
        <time>2022-02-23T06:17:28.166Z</time>
      </trkpt>
      <trkpt lat="40.14348" lon="-1.31692">
        <ele>884.231148</ele>
        <time>2022-02-23T06:17:41.718Z</time>
      </trkpt>
      <trkpt lat="40.14228" lon="-1.31645">
        <ele>885.322778</ele>
        <time>2022-02-23T06:18:17.725Z</time>
      </trkpt>
      <trkpt lat="40.14158" lon="-1.31625">
        <ele>886.018479</ele>
        <time>2022-02-23T06:18:41.530Z</time>
      </trkpt>
      <trkpt lat="40.14078" lon="-1.31574">
        <ele>886.88246</ele>
        <time>2022-02-23T06:19:03.043Z</time>
      </trkpt>
      <trkpt lat="40.14069" lon="-1.31563">
        <ele>887.002221</ele>
        <time>2022-02-23T06:19:08.176Z</time>
      </trkpt>
      <trkpt lat="40.14061" lon="-1.31525">
        <ele>886.728618</ele>
        <time>2022-02-23T06:19:13.982Z</time>
      </trkpt>
      <trkpt lat="40.14049" lon="-1.31505">
        <ele>886.532061</ele>
        <time>2022-02-23T06:19:17.790Z</time>
      </trkpt>
      <trkpt lat="40.14027" lon="-1.31476">
        <ele>886.196845</ele>
        <time>2022-02-23T06:19:24.239Z</time>
      </trkpt>
      <trkpt lat="40.14001" lon="-1.31456">
        <ele>885.881126</ele>
        <time>2022-02-23T06:19:30.179Z</time>
      </trkpt>
      <trkpt lat="40.13969" lon="-1.3145">
        <ele>885.534206</ele>
        <time>2022-02-23T06:19:36.401Z</time>
      </trkpt>
      <trkpt lat="40.13932" lon="-1.31435">
        <ele>885.122965</ele>
        <time>2022-02-23T06:19:43.050Z</time>
      </trkpt>
      <trkpt lat="40.13814" lon="-1.31436">
        <ele>884.672555</ele>
        <time>2022-02-23T06:20:07.010Z</time>
      </trkpt>
      <trkpt lat="40.13776" lon="-1.31443">
        <ele>884.525239</ele>
        <time>2022-02-23T06:20:15.153Z</time>
      </trkpt>
      <trkpt lat="40.13739" lon="-1.31462">
        <ele>885.044926</ele>
        <time>2022-02-23T06:20:25.789Z</time>
      </trkpt>
      <trkpt lat="40.13668" lon="-1.31466">
        <ele>887.737522</ele>
        <time>2022-02-23T06:20:53.722Z</time>
      </trkpt>
      <trkpt lat="40.13642" lon="-1.31453">
        <ele>888.775772</ele>
        <time>2022-02-23T06:21:07.117Z</time>
      </trkpt>
      <trkpt lat="40.13629" lon="-1.31432">
        <ele>889.561013</ele>
        <time>2022-02-23T06:21:16.095Z</time>
      </trkpt>
      <trkpt lat="40.1361" lon="-1.31402">
        <ele>890.69217</ele>
        <time>2022-02-23T06:21:31.059Z</time>
      </trkpt>
      <trkpt lat="40.1357" lon="-1.31358">
        <ele>892.527706</ele>
        <time>2022-02-23T06:21:56.100Z</time>
      </trkpt>
      <trkpt lat="40.13542" lon="-1.31331">
        <ele>893.724536</ele>
        <time>2022-02-23T06:22:13.138Z</time>
      </trkpt>
      <trkpt lat="40.13533" lon="-1.31318">
        <ele>894.166696</ele>
        <time>2022-02-23T06:22:20.074Z</time>
      </trkpt>
      <trkpt lat="40.13525" lon="-1.31294">
        <ele>894.854958</ele>
        <time>2022-02-23T06:22:28.307Z</time>
      </trkpt>
      <trkpt lat="40.13477" lon="-1.31215">
        <ele>897.276878</ele>
        <time>2022-02-23T06:22:55.313Z</time>
      </trkpt>
      <trkpt lat="40.13457" lon="-1.31162">
        <ele>895.610095</ele>
        <time>2022-02-23T06:23:03.739Z</time>
      </trkpt>
      <trkpt lat="40.13444" lon="-1.31083">
        <ele>893.302983</ele>
        <time>2022-02-23T06:23:13.655Z</time>
      </trkpt>
      <trkpt lat="40.1345" lon="-1.30964">
        <ele>890.961282</ele>
        <time>2022-02-23T06:23:27.569Z</time>
      </trkpt>
      <trkpt lat="40.13447" lon="-1.30952">
        <ele>891.090944</ele>
        <time>2022-02-23T06:23:29.064Z</time>
      </trkpt>
      <trkpt lat="40.13426" lon="-1.30933">
        <ele>891.441115</ele>
        <time>2022-02-23T06:23:33.030Z</time>
      </trkpt>
      <trkpt lat="40.13376" lon="-1.30907">
        <ele>892.184996</ele>
        <time>2022-02-23T06:23:46.635Z</time>
      </trkpt>
      <trkpt lat="40.13362" lon="-1.30889">
        <ele>892.450496</ele>
        <time>2022-02-23T06:23:54.438Z</time>
      </trkpt>
      <trkpt lat="40.13342" lon="-1.30853">
        <ele>892.907498</ele>
        <time>2022-02-23T06:24:14.770Z</time>
      </trkpt>
      <trkpt lat="40.13322" lon="-1.30844">
        <ele>893.704406</ele>
        <time>2022-02-23T06:24:31.084Z</time>
      </trkpt>
      <trkpt lat="40.13298" lon="-1.30846">
        <ele>896.399431</ele>
        <time>2022-02-23T06:24:48.322Z</time>
      </trkpt>
      <trkpt lat="40.13265" lon="-1.30852">
        <ele>900.125396</ele>
        <time>2022-02-23T06:25:14.513Z</time>
      </trkpt>
      <trkpt lat="40.13247" lon="-1.30839">
        <ele>902.522088</ele>
        <time>2022-02-23T06:25:34.248Z</time>
      </trkpt>
      <trkpt lat="40.13194" lon="-1.30738">
        <ele>913.125015</ele>
        <time>2022-02-23T06:26:55.838Z</time>
      </trkpt>
      <trkpt lat="40.13191" lon="-1.30727">
        <ele>913.477564</ele>
        <time>2022-02-23T06:27:03.966Z</time>
      </trkpt>
      <trkpt lat="40.13174" lon="-1.3063">
        <ele>913.764032</ele>
        <time>2022-02-23T06:27:47.675Z</time>
      </trkpt>
      <trkpt lat="40.13175" lon="-1.30566">
        <ele>913.94955</ele>
        <time>2022-02-23T06:27:57.100Z</time>
      </trkpt>
      <trkpt lat="40.13157" lon="-1.30497">
        <ele>913.205948</ele>
        <time>2022-02-23T06:28:05.078Z</time>
      </trkpt>
      <trkpt lat="40.13157" lon="-1.30495">
        <ele>913.033032</ele>
        <time>2022-02-23T06:28:05.250Z</time>
      </trkpt>
      <trkpt lat="40.1316" lon="-1.30468">
        <ele>910.087083</ele>
        <time>2022-02-23T06:28:08.133Z</time>
      </trkpt>
      <trkpt lat="40.13173" lon="-1.30432">
        <ele>905.876268</ele>
        <time>2022-02-23T06:28:12.235Z</time>
      </trkpt>
      <trkpt lat="40.13187" lon="-1.30404">
        <ele>902.392692</ele>
        <time>2022-02-23T06:28:15.641Z</time>
      </trkpt>
      <trkpt lat="40.13185" lon="-1.30383">
        <ele>900.119161</ele>
        <time>2022-02-23T06:28:17.838Z</time>
      </trkpt>
      <trkpt lat="40.13176" lon="-1.30318">
        <ele>893.175437</ele>
        <time>2022-02-23T06:28:24.899Z</time>
      </trkpt>
      <trkpt lat="40.1317" lon="-1.303">
        <ele>891.036766</ele>
        <time>2022-02-23T06:28:26.943Z</time>
      </trkpt>
      <trkpt lat="40.13116" lon="-1.30273">
        <ele>885.388568</ele>
        <time>2022-02-23T06:28:34.757Z</time>
      </trkpt>
      <trkpt lat="40.13091" lon="-1.30277">
        <ele>883.214262</ele>
        <time>2022-02-23T06:28:38.234Z</time>
      </trkpt>
      <trkpt lat="40.13013" lon="-1.3028">
        <ele>876.335995</ele>
        <time>2022-02-23T06:28:49.891Z</time>
      </trkpt>
      <trkpt lat="40.13004" lon="-1.30284">
        <ele>875.498924</ele>
        <time>2022-02-23T06:28:51.510Z</time>
      </trkpt>
      <trkpt lat="40.12996" lon="-1.30296">
        <ele>874.500927</ele>
        <time>2022-02-23T06:28:53.455Z</time>
      </trkpt>
      <trkpt lat="40.12986" lon="-1.30324">
        <ele>873.267276</ele>
        <time>2022-02-23T06:28:57.722Z</time>
      </trkpt>
      <trkpt lat="40.1298" lon="-1.30344">
        <ele>872.909744</ele>
        <time>2022-02-23T06:29:00.460Z</time>
      </trkpt>
      <trkpt lat="40.1297" lon="-1.30384">
        <ele>872.177557</ele>
        <time>2022-02-23T06:29:06.508Z</time>
      </trkpt>
      <trkpt lat="40.12964" lon="-1.30397">
        <ele>871.908589</ele>
        <time>2022-02-23T06:29:08.924Z</time>
      </trkpt>
      <trkpt lat="40.12959" lon="-1.30405">
        <ele>871.726659</ele>
        <time>2022-02-23T06:29:10.561Z</time>
      </trkpt>
      <trkpt lat="40.12956" lon="-1.30388">
        <ele>871.427051</ele>
        <time>2022-02-23T06:29:13.013Z</time>
      </trkpt>
      <trkpt lat="40.12948" lon="-1.30381">
        <ele>871.192633</ele>
        <time>2022-02-23T06:29:15.318Z</time>
      </trkpt>
      <trkpt lat="40.12913" lon="-1.30381">
        <ele>870.409698</ele>
        <time>2022-02-23T06:29:22.337Z</time>
      </trkpt>
      <trkpt lat="40.12873" lon="-1.30371">
        <ele>869.501398</ele>
        <time>2022-02-23T06:29:30.079Z</time>
      </trkpt>
      <trkpt lat="40.12802" lon="-1.3035">
        <ele>868.177841</ele>
        <time>2022-02-23T06:29:43.484Z</time>
      </trkpt>
      <trkpt lat="40.12716" lon="-1.30301">
        <ele>866.486048</ele>
        <time>2022-02-23T06:30:03.305Z</time>
      </trkpt>
      <trkpt lat="40.12695" lon="-1.30297">
        <ele>865.676245</ele>
        <time>2022-02-23T06:30:07.949Z</time>
      </trkpt>
      <trkpt lat="40.12664" lon="-1.303">
        <ele>863.810418</ele>
        <time>2022-02-23T06:30:13.568Z</time>
      </trkpt>
      <trkpt lat="40.12633" lon="-1.30286">
        <ele>861.782498</ele>
        <time>2022-02-23T06:30:18.940Z</time>
      </trkpt>
      <trkpt lat="40.12599" lon="-1.30222">
        <ele>858.14693</ele>
        <time>2022-02-23T06:30:28.283Z</time>
      </trkpt>
      <trkpt lat="40.12586" lon="-1.3022">
        <ele>857.34225</ele>
        <time>2022-02-23T06:30:30.304Z</time>
      </trkpt>
      <trkpt lat="40.12561" lon="-1.30199">
        <ele>855.504299</ele>
        <time>2022-02-23T06:30:34.876Z</time>
      </trkpt>
      <trkpt lat="40.12545" lon="-1.30154">
        <ele>851.411707</ele>
        <time>2022-02-23T06:30:40.489Z</time>
      </trkpt>
      <trkpt lat="40.12474" lon="-1.30064">
        <ele>840.061778</ele>
        <time>2022-02-23T06:30:54.748Z</time>
      </trkpt>
      <trkpt lat="40.12443" lon="-1.30046">
        <ele>836.159966</ele>
        <time>2022-02-23T06:30:59.623Z</time>
      </trkpt>
      <trkpt lat="40.12368" lon="-1.30041">
        <ele>828.388209</ele>
        <time>2022-02-23T06:31:10.752Z</time>
      </trkpt>
      <trkpt lat="40.12352" lon="-1.30031">
        <ele>826.639684</ele>
        <time>2022-02-23T06:31:13.333Z</time>
      </trkpt>
      <trkpt lat="40.12322" lon="-1.29994">
        <ele>822.473043</ele>
        <time>2022-02-23T06:31:19.487Z</time>
      </trkpt>
      <trkpt lat="40.1231" lon="-1.2996">
        <ele>819.59504</ele>
        <time>2022-02-23T06:31:23.780Z</time>
      </trkpt>
      <trkpt lat="40.12294" lon="-1.29941">
        <ele>817.432465</ele>
        <time>2022-02-23T06:31:27.009Z</time>
      </trkpt>
      <trkpt lat="40.1228" lon="-1.29916">
        <ele>815.537603</ele>
        <time>2022-02-23T06:31:30.638Z</time>
      </trkpt>
      <trkpt lat="40.12271" lon="-1.29889">
        <ele>814.048979</ele>
        <time>2022-02-23T06:31:34.068Z</time>
      </trkpt>
      <trkpt lat="40.12256" lon="-1.29869">
        <ele>812.603431</ele>
        <time>2022-02-23T06:31:37.398Z</time>
      </trkpt>
      <trkpt lat="40.12175" lon="-1.29828">
        <ele>806.813492</ele>
        <time>2022-02-23T06:31:51.194Z</time>
      </trkpt>
      <trkpt lat="40.12138" lon="-1.29793">
        <ele>804.02299</ele>
        <time>2022-02-23T06:31:58.926Z</time>
      </trkpt>
      <trkpt lat="40.12141" lon="-1.29769">
        <ele>803.180948</ele>
        <time>2022-02-23T06:32:02.088Z</time>
      </trkpt>
      <trkpt lat="40.12129" lon="-1.29757">
        <ele>802.510947</ele>
        <time>2022-02-23T06:32:06.740Z</time>
      </trkpt>
      <trkpt lat="40.12123" lon="-1.29704">
        <ele>800.708809</ele>
        <time>2022-02-23T06:32:18.610Z</time>
      </trkpt>
      <trkpt lat="40.12117" lon="-1.29692">
        <ele>800.215905</ele>
        <time>2022-02-23T06:32:22.021Z</time>
      </trkpt>
      <trkpt lat="40.12104" lon="-1.29681">
        <ele>799.524229</ele>
        <time>2022-02-23T06:32:26.543Z</time>
      </trkpt>
      <trkpt lat="40.12075" lon="-1.29667">
        <ele>798.171752</ele>
        <time>2022-02-23T06:32:35.687Z</time>
      </trkpt>
      <trkpt lat="40.12074" lon="-1.29626">
        <ele>796.781818</ele>
        <time>2022-02-23T06:32:44.864Z</time>
      </trkpt>
      <trkpt lat="40.12084" lon="-1.29585">
        <ele>795.295784</ele>
        <time>2022-02-23T06:32:54.685Z</time>
      </trkpt>
      <trkpt lat="40.12077" lon="-1.29567">
        <ele>794.602229</ele>
        <time>2022-02-23T06:32:57.148Z</time>
      </trkpt>
      <trkpt lat="40.12081" lon="-1.29533">
        <ele>793.414835</ele>
        <time>2022-02-23T06:33:01.780Z</time>
      </trkpt>
      <trkpt lat="40.12078" lon="-1.29507">
        <ele>792.505012</ele>
        <time>2022-02-23T06:33:05.220Z</time>
      </trkpt>
      <trkpt lat="40.12036" lon="-1.29456">
        <ele>789.935533</ele>
        <time>2022-02-23T06:33:14.696Z</time>
      </trkpt>
      <trkpt lat="40.12" lon="-1.29416">
        <ele>788.177309</ele>
        <time>2022-02-23T06:33:22.748Z</time>
      </trkpt>
      <trkpt lat="40.11951" lon="-1.29358">
        <ele>786.78876</ele>
        <time>2022-02-23T06:33:35.027Z</time>
      </trkpt>
      <trkpt lat="40.11922" lon="-1.29297">
        <ele>785.644082</ele>
        <time>2022-02-23T06:33:46.058Z</time>
      </trkpt>
      <trkpt lat="40.11885" lon="-1.29258">
        <ele>784.673918</ele>
        <time>2022-02-23T06:33:56.112Z</time>
      </trkpt>
      <trkpt lat="40.11844" lon="-1.29238">
        <ele>784.118984</ele>
        <time>2022-02-23T06:34:05.400Z</time>
      </trkpt>
      <trkpt lat="40.11694" lon="-1.29301">
        <ele>782.088429</ele>
        <time>2022-02-23T06:34:37.136Z</time>
      </trkpt>
      <trkpt lat="40.11655" lon="-1.29294">
        <ele>781.521071</ele>
        <time>2022-02-23T06:34:44.756Z</time>
      </trkpt>
      <trkpt lat="40.11613" lon="-1.2932">
        <ele>780.845598</ele>
        <time>2022-02-23T06:34:53.652Z</time>
      </trkpt>
      <trkpt lat="40.11599" lon="-1.2932">
        <ele>780.643159</ele>
        <time>2022-02-23T06:34:56.426Z</time>
      </trkpt>
      <trkpt lat="40.11581" lon="-1.29312">
        <ele>780.365875</ele>
        <time>2022-02-23T06:35:00.172Z</time>
      </trkpt>
      <trkpt lat="40.11564" lon="-1.29295">
        <ele>780.063561</ele>
        <time>2022-02-23T06:35:04.578Z</time>
      </trkpt>
      <trkpt lat="40.11555" lon="-1.29272">
        <ele>779.891663</ele>
        <time>2022-02-23T06:35:08.711Z</time>
      </trkpt>
      <trkpt lat="40.1153" lon="-1.29257">
        <ele>780.09683</ele>
        <time>2022-02-23T06:35:14.844Z</time>
      </trkpt>
      <trkpt lat="40.11499" lon="-1.29225">
        <ele>780.394477</ele>
        <time>2022-02-23T06:35:24.846Z</time>
      </trkpt>
      <trkpt lat="40.11462" lon="-1.29196">
        <ele>780.721451</ele>
        <time>2022-02-23T06:35:37.417Z</time>
      </trkpt>
      <trkpt lat="40.1138" lon="-1.29093">
        <ele>782.043266</ele>
        <time>2022-02-23T06:36:12.345Z</time>
      </trkpt>
      <trkpt lat="40.11355" lon="-1.2907">
        <ele>782.553913</ele>
        <time>2022-02-23T06:36:23.115Z</time>
      </trkpt>
      <trkpt lat="40.11327" lon="-1.29063">
        <ele>783.025026</ele>
        <time>2022-02-23T06:36:33.144Z</time>
      </trkpt>
      <trkpt lat="40.11282" lon="-1.29087">
        <ele>783.858772</ele>
        <time>2022-02-23T06:36:49.479Z</time>
      </trkpt>
      <trkpt lat="40.11253" lon="-1.29095">
        <ele>784.170892</ele>
        <time>2022-02-23T06:36:58.344Z</time>
      </trkpt>
      <trkpt lat="40.11183" lon="-1.29094">
        <ele>783.229371</ele>
        <time>2022-02-23T06:37:14.403Z</time>
      </trkpt>
      <trkpt lat="40.11089" lon="-1.29058">
        <ele>781.901521</ele>
        <time>2022-02-23T06:37:32.963Z</time>
      </trkpt>
      <trkpt lat="40.11069" lon="-1.29042">
        <ele>781.071617</ele>
        <time>2022-02-23T06:37:37.064Z</time>
      </trkpt>
      <trkpt lat="40.10963" lon="-1.29029">
        <ele>776.616172</ele>
        <time>2022-02-23T06:37:55.031Z</time>
      </trkpt>
      <trkpt lat="40.10933" lon="-1.29016">
        <ele>775.284476</ele>
        <time>2022-02-23T06:38:00.362Z</time>
      </trkpt>
      <trkpt lat="40.10914" lon="-1.29">
        <ele>774.363527</ele>
        <time>2022-02-23T06:38:04.075Z</time>
      </trkpt>
      <trkpt lat="40.10897" lon="-1.28972">
        <ele>773.66795</ele>
        <time>2022-02-23T06:38:08.815Z</time>
      </trkpt>
      <trkpt lat="40.10868" lon="-1.28942">
        <ele>772.793444</ele>
        <time>2022-02-23T06:38:15.288Z</time>
      </trkpt>
      <trkpt lat="40.10833" lon="-1.28878">
        <ele>771.36552</ele>
        <time>2022-02-23T06:38:26.643Z</time>
      </trkpt>
      <trkpt lat="40.10805" lon="-1.28811">
        <ele>769.995666</ele>
        <time>2022-02-23T06:38:38.770Z</time>
      </trkpt>
      <trkpt lat="40.1079" lon="-1.28773">
        <ele>770.081579</ele>
        <time>2022-02-23T06:38:45.662Z</time>
      </trkpt>
      <trkpt lat="40.10761" lon="-1.28621">
        <ele>770.398541</ele>
        <time>2022-02-23T06:39:14.069Z</time>
      </trkpt>
      <trkpt lat="40.10747" lon="-1.2858">
        <ele>770.616387</ele>
        <time>2022-02-23T06:39:24.336Z</time>
      </trkpt>
      <trkpt lat="40.10745" lon="-1.28567">
        <ele>770.801191</ele>
        <time>2022-02-23T06:39:27.363Z</time>
      </trkpt>
      <trkpt lat="40.10755" lon="-1.28518">
        <ele>771.504344</ele>
        <time>2022-02-23T06:39:38.519Z</time>
      </trkpt>
      <trkpt lat="40.10751" lon="-1.28443">
        <ele>772.554651</ele>
        <time>2022-02-23T06:39:55.013Z</time>
      </trkpt>
      <trkpt lat="40.10727" lon="-1.28381">
        <ele>773.519376</ele>
        <time>2022-02-23T06:40:13.008Z</time>
      </trkpt>
      <trkpt lat="40.10711" lon="-1.28328">
        <ele>774.772037</ele>
        <time>2022-02-23T06:40:30.436Z</time>
      </trkpt>
      <trkpt lat="40.10693" lon="-1.28255">
        <ele>776.697405</ele>
        <time>2022-02-23T06:40:52.508Z</time>
      </trkpt>
      <trkpt lat="40.10696" lon="-1.28249">
        <ele>776.889051</ele>
        <time>2022-02-23T06:40:54.879Z</time>
      </trkpt>
      <trkpt lat="40.10705" lon="-1.28244">
        <ele>777.206924</ele>
        <time>2022-02-23T06:40:59.074Z</time>
      </trkpt>
      <trkpt lat="40.10708" lon="-1.28242">
        <ele>777.336282</ele>
        <time>2022-02-23T06:41:00.695Z</time>
      </trkpt>
      <trkpt lat="40.10708" lon="-1.28237">
        <ele>777.462458</ele>
        <time>2022-02-23T06:41:01.954Z</time>
      </trkpt>
      <trkpt lat="40.10707" lon="-1.28232">
        <ele>777.595583</ele>
        <time>2022-02-23T06:41:03.270Z</time>
      </trkpt>
      <trkpt lat="40.10702" lon="-1.28216">
        <ele>778.025349</ele>
        <time>2022-02-23T06:41:07.337Z</time>
      </trkpt>
      <trkpt lat="40.10701" lon="-1.2821">
        <ele>778.174335</ele>
        <time>2022-02-23T06:41:09.109Z</time>
      </trkpt>
      <trkpt lat="40.10713" lon="-1.2819">
        <ele>778.810324</ele>
        <time>2022-02-23T06:41:17.045Z</time>
      </trkpt>
      <trkpt lat="40.10726" lon="-1.28162">
        <ele>779.637571</ele>
        <time>2022-02-23T06:41:28.604Z</time>
      </trkpt>
      <trkpt lat="40.10723" lon="-1.28144">
        <ele>779.86607</ele>
        <time>2022-02-23T06:41:33.983Z</time>
      </trkpt>
      <trkpt lat="40.10723" lon="-1.28139">
        <ele>779.924526</ele>
        <time>2022-02-23T06:41:35.348Z</time>
      </trkpt>
      <trkpt lat="40.10724" lon="-1.28118">
        <ele>780.177737</ele>
        <time>2022-02-23T06:41:44.275Z</time>
      </trkpt>
      <trkpt lat="40.10726" lon="-1.28111">
        <ele>780.272304</ele>
        <time>2022-02-23T06:41:47.002Z</time>
      </trkpt>
      <trkpt lat="40.1073" lon="-1.28107">
        <ele>780.345888</ele>
        <time>2022-02-23T06:41:48.835Z</time>
      </trkpt>
      <trkpt lat="40.10737" lon="-1.28091">
        <ele>780.571444</ele>
        <time>2022-02-23T06:41:52.619Z</time>
      </trkpt>
      <trkpt lat="40.10743" lon="-1.28082">
        <ele>780.709971</ele>
        <time>2022-02-23T06:41:57.131Z</time>
      </trkpt>
      <trkpt lat="40.10748" lon="-1.28061">
        <ele>780.986738</ele>
        <time>2022-02-23T06:42:02.757Z</time>
      </trkpt>
      <trkpt lat="40.10756" lon="-1.2804">
        <ele>781.267893</ele>
        <time>2022-02-23T06:42:07.935Z</time>
      </trkpt>
      <trkpt lat="40.1077" lon="-1.28017">
        <ele>781.623704</ele>
        <time>2022-02-23T06:42:12.362Z</time>
      </trkpt>
      <trkpt lat="40.10782" lon="-1.28002">
        <ele>781.881108</ele>
        <time>2022-02-23T06:42:18.090Z</time>
      </trkpt>
      <trkpt lat="40.1079" lon="-1.27979">
        <ele>782.184802</ele>
        <time>2022-02-23T06:42:21.557Z</time>
      </trkpt>
      <trkpt lat="40.10781" lon="-1.27945">
        <ele>782.334924</ele>
        <time>2022-02-23T06:42:28.525Z</time>
      </trkpt>
      <trkpt lat="40.10775" lon="-1.27938">
        <ele>782.161972</ele>
        <time>2022-02-23T06:42:29.816Z</time>
      </trkpt>
      <trkpt lat="40.10728" lon="-1.27913">
        <ele>781.082883</ele>
        <time>2022-02-23T06:42:40.200Z</time>
      </trkpt>
      <trkpt lat="40.10717" lon="-1.27907">
        <ele>780.829517</ele>
        <time>2022-02-23T06:42:42.649Z</time>
      </trkpt>
      <trkpt lat="40.1071" lon="-1.27896">
        <ele>780.597593</ele>
        <time>2022-02-23T06:42:44.414Z</time>
      </trkpt>
      <trkpt lat="40.10706" lon="-1.27889">
        <ele>780.457624</ele>
        <time>2022-02-23T06:42:46.106Z</time>
      </trkpt>
      <trkpt lat="40.10703" lon="-1.27851">
        <ele>779.832286</ele>
        <time>2022-02-23T06:42:51.198Z</time>
      </trkpt>
      <trkpt lat="40.10687" lon="-1.27814">
        <ele>779.138814</ele>
        <time>2022-02-23T06:42:56.746Z</time>
      </trkpt>
      <trkpt lat="40.10596" lon="-1.27641">
        <ele>772.413036</ele>
        <time>2022-02-23T06:43:23.379Z</time>
      </trkpt>
      <trkpt lat="40.10562" lon="-1.27548">
        <ele>768.384271</ele>
        <time>2022-02-23T06:43:35.312Z</time>
      </trkpt>
      <trkpt lat="40.10483" lon="-1.27602">
        <ele>763.245674</ele>
        <time>2022-02-23T06:43:48.769Z</time>
      </trkpt>
      <trkpt lat="40.10475" lon="-1.27599">
        <ele>762.737505</ele>
        <time>2022-02-23T06:43:50.137Z</time>
      </trkpt>
      <trkpt lat="40.10458" lon="-1.27575">
        <ele>761.276432</ele>
        <time>2022-02-23T06:43:57.303Z</time>
      </trkpt>
      <trkpt lat="40.10412" lon="-1.27552">
        <ele>759.65144</ele>
        <time>2022-02-23T06:44:11.458Z</time>
      </trkpt>
      <trkpt lat="40.10412" lon="-1.27556">
        <ele>759.612411</ele>
        <time>2022-02-23T06:44:11.870Z</time>
      </trkpt>
      <trkpt lat="40.10405" lon="-1.27585">
        <ele>759.248807</ele>
        <time>2022-02-23T06:44:15.784Z</time>
      </trkpt>
      <trkpt lat="40.10398" lon="-1.27609">
        <ele>758.940725</ele>
        <time>2022-02-23T06:44:19.330Z</time>
      </trkpt>
      <trkpt lat="40.1039" lon="-1.27653">
        <ele>758.39366</ele>
        <time>2022-02-23T06:44:26.249Z</time>
      </trkpt>
      <trkpt lat="40.10371" lon="-1.27659">
        <ele>758.088106</ele>
        <time>2022-02-23T06:44:30.594Z</time>
      </trkpt>
      <trkpt lat="40.10354" lon="-1.27656">
        <ele>757.823036</ele>
        <time>2022-02-23T06:44:35.016Z</time>
      </trkpt>
      <trkpt lat="40.10342" lon="-1.2765">
        <ele>757.623157</ele>
        <time>2022-02-23T06:44:38.582Z</time>
      </trkpt>
      <trkpt lat="40.10331" lon="-1.27647">
        <ele>757.439466</ele>
        <time>2022-02-23T06:44:41.553Z</time>
      </trkpt>
      <trkpt lat="40.10227" lon="-1.27628">
        <ele>758.315847</ele>
        <time>2022-02-23T06:45:11.943Z</time>
      </trkpt>
      <trkpt lat="40.102" lon="-1.27614">
        <ele>758.620527</ele>
        <time>2022-02-23T06:45:20.117Z</time>
      </trkpt>
      <trkpt lat="40.10155" lon="-1.27578">
        <ele>759.197399</ele>
        <time>2022-02-23T06:45:34.510Z</time>
      </trkpt>
      <trkpt lat="40.10077" lon="-1.27544">
        <ele>759.067825</ele>
        <time>2022-02-23T06:45:55.253Z</time>
      </trkpt>
      <trkpt lat="40.09985" lon="-1.27489">
        <ele>758.858259</ele>
        <time>2022-02-23T06:46:15.786Z</time>
      </trkpt>
      <trkpt lat="40.09874" lon="-1.27432">
        <ele>757.343705</ele>
        <time>2022-02-23T06:46:38.682Z</time>
      </trkpt>
      <trkpt lat="40.09791" lon="-1.27377">
        <ele>756.336731</ele>
        <time>2022-02-23T06:46:56.489Z</time>
      </trkpt>
      <trkpt lat="40.09683" lon="-1.27346">
        <ele>755.477246</ele>
        <time>2022-02-23T06:47:19.508Z</time>
      </trkpt>
      <trkpt lat="40.09656" lon="-1.27334">
        <ele>755.261713</ele>
        <time>2022-02-23T06:47:24.932Z</time>
      </trkpt>
      <trkpt lat="40.09628" lon="-1.27303">
        <ele>755.633521</ele>
        <time>2022-02-23T06:47:32.475Z</time>
      </trkpt>
      <trkpt lat="40.0959" lon="-1.27243">
        <ele>756.522945</ele>
        <time>2022-02-23T06:47:48.223Z</time>
      </trkpt>
      <trkpt lat="40.09542" lon="-1.27192">
        <ele>757.442806</ele>
        <time>2022-02-23T06:48:08.272Z</time>
      </trkpt>
      <trkpt lat="40.09495" lon="-1.27142">
        <ele>759.695597</ele>
        <time>2022-02-23T06:48:32.191Z</time>
      </trkpt>
      <trkpt lat="40.09433" lon="-1.27077">
        <ele>764.311121</ele>
        <time>2022-02-23T06:49:12.305Z</time>
      </trkpt>
      <trkpt lat="40.09406" lon="-1.27055">
        <ele>766.121456</ele>
        <time>2022-02-23T06:49:32.206Z</time>
      </trkpt>
      <trkpt lat="40.09291" lon="-1.26984">
        <ele>773.296098</ele>
        <time>2022-02-23T06:50:45.611Z</time>
      </trkpt>
      <trkpt lat="40.09205" lon="-1.26961">
        <ele>778.199979</ele>
        <time>2022-02-23T06:51:25.930Z</time>
      </trkpt>
      <trkpt lat="40.09183" lon="-1.26947">
        <ele>778.547597</ele>
        <time>2022-02-23T06:51:34.778Z</time>
      </trkpt>
      <trkpt lat="40.09162" lon="-1.26923">
        <ele>778.804929</ele>
        <time>2022-02-23T06:51:44.492Z</time>
      </trkpt>
      <trkpt lat="40.09085" lon="-1.26794">
        <ele>779.960897</ele>
        <time>2022-02-23T06:52:13.538Z</time>
      </trkpt>
      <trkpt lat="40.09063" lon="-1.26772">
        <ele>779.301688</ele>
        <time>2022-02-23T06:52:19.359Z</time>
      </trkpt>
      <trkpt lat="40.08924" lon="-1.26694">
        <ele>774.780309</ele>
        <time>2022-02-23T06:52:45.631Z</time>
      </trkpt>
      <trkpt lat="40.08886" lon="-1.26688">
        <ele>771.798613</ele>
        <time>2022-02-23T06:52:51.464Z</time>
      </trkpt>
      <trkpt lat="40.08697" lon="-1.26686">
        <ele>754.982447</ele>
        <time>2022-02-23T06:53:18.456Z</time>
      </trkpt>
      <trkpt lat="40.08654" lon="-1.26666">
        <ele>750.466158</ele>
        <time>2022-02-23T06:53:24.861Z</time>
      </trkpt>
      <trkpt lat="40.08583" lon="-1.26607">
        <ele>742.188582</ele>
        <time>2022-02-23T06:53:36.750Z</time>
      </trkpt>
      <trkpt lat="40.08558" lon="-1.26593">
        <ele>740.140179</ele>
        <time>2022-02-23T06:53:40.583Z</time>
      </trkpt>
      <trkpt lat="40.08489" lon="-1.26582">
        <ele>735.467492</ele>
        <time>2022-02-23T06:53:50.970Z</time>
      </trkpt>
      <trkpt lat="40.08397" lon="-1.26555">
        <ele>729.215245</ele>
        <time>2022-02-23T06:54:05.554Z</time>
      </trkpt>
      <trkpt lat="40.08322" lon="-1.26562">
        <ele>726.785903</ele>
        <time>2022-02-23T06:54:17.896Z</time>
      </trkpt>
      <trkpt lat="40.08241" lon="-1.2657">
        <ele>724.171268</ele>
        <time>2022-02-23T06:54:32.248Z</time>
      </trkpt>
      <trkpt lat="40.08071" lon="-1.26611">
        <ele>722.075535</ele>
        <time>2022-02-23T06:55:06.732Z</time>
      </trkpt>
      <trkpt lat="40.08033" lon="-1.26634">
        <ele>721.69984</ele>
        <time>2022-02-23T06:55:15.823Z</time>
      </trkpt>
      <trkpt lat="40.08009" lon="-1.26655">
        <ele>721.450457</ele>
        <time>2022-02-23T06:55:22.055Z</time>
      </trkpt>
      <trkpt lat="40.07947" lon="-1.26742">
        <ele>720.676365</ele>
        <time>2022-02-23T06:55:40.303Z</time>
      </trkpt>
      <trkpt lat="40.07915" lon="-1.26774">
        <ele>720.329168</ele>
        <time>2022-02-23T06:55:48.298Z</time>
      </trkpt>
      <trkpt lat="40.07878" lon="-1.26809">
        <ele>719.802326</ele>
        <time>2022-02-23T06:55:56.955Z</time>
      </trkpt>
      <trkpt lat="40.07832" lon="-1.26887">
        <ele>718.90087</ele>
        <time>2022-02-23T06:56:11.400Z</time>
      </trkpt>
      <trkpt lat="40.07813" lon="-1.26908">
        <ele>718.598568</ele>
        <time>2022-02-23T06:56:16.267Z</time>
      </trkpt>
      <trkpt lat="40.07784" lon="-1.26927">
        <ele>718.206858</ele>
        <time>2022-02-23T06:56:22.584Z</time>
      </trkpt>
      <trkpt lat="40.07695" lon="-1.26963">
        <ele>717.740441</ele>
        <time>2022-02-23T06:56:42.399Z</time>
      </trkpt>
      <trkpt lat="40.0767" lon="-1.26987">
        <ele>717.602299</ele>
        <time>2022-02-23T06:56:48.947Z</time>
      </trkpt>
      <trkpt lat="40.07649" lon="-1.27023">
        <ele>717.449539</ele>
        <time>2022-02-23T06:56:56.322Z</time>
      </trkpt>
      <trkpt lat="40.07642" lon="-1.27039">
        <ele>717.384348</ele>
        <time>2022-02-23T06:56:59.571Z</time>
      </trkpt>
      <trkpt lat="40.07607" lon="-1.27113">
        <ele>716.980398</ele>
        <time>2022-02-23T06:57:13.544Z</time>
      </trkpt>
      <trkpt lat="40.07567" lon="-1.27161">
        <ele>716.622609</ele>
        <time>2022-02-23T06:57:24.711Z</time>
      </trkpt>
      <trkpt lat="40.07518" lon="-1.27197">
        <ele>716.254277</ele>
        <time>2022-02-23T06:57:35.946Z</time>
      </trkpt>
      <trkpt lat="40.0745" lon="-1.27225">
        <ele>715.869787</ele>
        <time>2022-02-23T06:57:50.475Z</time>
      </trkpt>
      <trkpt lat="40.07336" lon="-1.27274">
        <ele>715.260867</ele>
        <time>2022-02-23T06:58:15.802Z</time>
      </trkpt>
      <trkpt lat="40.07293" lon="-1.27311">
        <ele>715.15431</ele>
        <time>2022-02-23T06:58:27.059Z</time>
      </trkpt>
      <trkpt lat="40.06972" lon="-1.27697">
        <ele>714.516017</ele>
        <time>2022-02-23T07:00:01.887Z</time>
      </trkpt>
      <trkpt lat="40.06899" lon="-1.2779">
        <ele>714.573583</ele>
        <time>2022-02-23T07:00:25.277Z</time>
      </trkpt>
      <trkpt lat="40.06825" lon="-1.27896">
        <ele>714.804571</ele>
        <time>2022-02-23T07:00:51.732Z</time>
      </trkpt>
      <trkpt lat="40.06749" lon="-1.2802">
        <ele>714.248117</ele>
        <time>2022-02-23T07:01:18.716Z</time>
      </trkpt>
      <trkpt lat="40.06693" lon="-1.28092">
        <ele>713.753644</ele>
        <time>2022-02-23T07:01:34.085Z</time>
      </trkpt>
      <trkpt lat="40.0669" lon="-1.28099">
        <ele>713.706876</ele>
        <time>2022-02-23T07:01:35.181Z</time>
      </trkpt>
      <trkpt lat="40.06674" lon="-1.28121">
        <ele>713.371553</ele>
        <time>2022-02-23T07:01:39.457Z</time>
      </trkpt>
      <trkpt lat="40.06671" lon="-1.28126">
        <ele>713.297313</ele>
        <time>2022-02-23T07:01:40.418Z</time>
      </trkpt>
      <trkpt lat="40.06618" lon="-1.28209">
        <ele>712.113546</ele>
        <time>2022-02-23T07:01:55.715Z</time>
      </trkpt>
      <trkpt lat="40.06608" lon="-1.28233">
        <ele>711.809743</ele>
        <time>2022-02-23T07:01:59.697Z</time>
      </trkpt>
      <trkpt lat="40.06596" lon="-1.28228">
        <ele>711.620684</ele>
        <time>2022-02-23T07:02:04.271Z</time>
      </trkpt>
      <trkpt lat="40.06579" lon="-1.28234">
        <ele>711.367259</ele>
        <time>2022-02-23T07:02:07.858Z</time>
      </trkpt>
      <trkpt lat="40.06562" lon="-1.28254">
        <ele>711.1242</ele>
        <time>2022-02-23T07:02:15.711Z</time>
      </trkpt>
      <trkpt lat="40.06473" lon="-1.2841">
        <ele>710.718172</ele>
        <time>2022-02-23T07:03:09.771Z</time>
      </trkpt>
      <trkpt lat="40.06447" lon="-1.28446">
        <ele>710.568585</ele>
        <time>2022-02-23T07:03:25.149Z</time>
      </trkpt>
      <trkpt lat="40.06407" lon="-1.28477">
        <ele>710.29896</ele>
        <time>2022-02-23T07:03:42.735Z</time>
      </trkpt>
      <trkpt lat="40.06372" lon="-1.28491">
        <ele>710.080134</ele>
        <time>2022-02-23T07:03:55.966Z</time>
      </trkpt>
      <trkpt lat="40.06284" lon="-1.28495">
        <ele>709.516162</ele>
        <time>2022-02-23T07:04:26.054Z</time>
      </trkpt>
      <trkpt lat="40.06243" lon="-1.28478">
        <ele>708.816872</ele>
        <time>2022-02-23T07:04:40.451Z</time>
      </trkpt>
      <trkpt lat="40.06213" lon="-1.28454">
        <ele>708.26135</ele>
        <time>2022-02-23T07:04:51.890Z</time>
      </trkpt>
      <trkpt lat="40.06193" lon="-1.28425">
        <ele>707.785061</ele>
        <time>2022-02-23T07:05:01.817Z</time>
      </trkpt>
      <trkpt lat="40.06151" lon="-1.2834">
        <ele>706.602987</ele>
        <time>2022-02-23T07:05:27.290Z</time>
      </trkpt>
      <trkpt lat="40.06151" lon="-1.28333">
        <ele>706.551694</ele>
        <time>2022-02-23T07:05:28.945Z</time>
      </trkpt>
      <trkpt lat="40.06151" lon="-1.28327">
        <ele>706.496272</ele>
        <time>2022-02-23T07:05:30.737Z</time>
      </trkpt>
      <trkpt lat="40.06152" lon="-1.28172">
        <ele>705.215878</ele>
        <time>2022-02-23T07:05:57.017Z</time>
      </trkpt>
      <trkpt lat="40.06139" lon="-1.28133">
        <ele>704.869437</ele>
        <time>2022-02-23T07:06:04.425Z</time>
      </trkpt>
      <trkpt lat="40.06121" lon="-1.28107">
        <ele>704.683073</ele>
        <time>2022-02-23T07:06:10.689Z</time>
      </trkpt>
      <trkpt lat="40.06035" lon="-1.28007">
        <ele>704.096707</ele>
        <time>2022-02-23T07:06:37.244Z</time>
      </trkpt>
      <trkpt lat="40.06012" lon="-1.27974">
        <ele>703.91997</ele>
        <time>2022-02-23T07:06:45.206Z</time>
      </trkpt>
      <trkpt lat="40.05982" lon="-1.27884">
        <ele>703.79738</ele>
        <time>2022-02-23T07:07:03.708Z</time>
      </trkpt>
      <trkpt lat="40.05958" lon="-1.27845">
        <ele>703.76004</ele>
        <time>2022-02-23T07:07:13.003Z</time>
      </trkpt>
      <trkpt lat="40.05929" lon="-1.27827">
        <ele>703.728631</ele>
        <time>2022-02-23T07:07:20.801Z</time>
      </trkpt>
      <trkpt lat="40.05841" lon="-1.27744">
        <ele>705.007775</ele>
        <time>2022-02-23T07:07:47.649Z</time>
      </trkpt>
      <trkpt lat="40.05765" lon="-1.2769">
        <ele>706.819244</ele>
        <time>2022-02-23T07:08:14.469Z</time>
      </trkpt>
      <trkpt lat="40.05736" lon="-1.27676">
        <ele>707.484969</ele>
        <time>2022-02-23T07:08:30.025Z</time>
      </trkpt>
      <trkpt lat="40.05663" lon="-1.27656">
        <ele>715.823165</ele>
        <time>2022-02-23T07:09:20.468Z</time>
      </trkpt>
      <trkpt lat="40.05666" lon="-1.27652">
        <ele>716.281043</ele>
        <time>2022-02-23T07:09:23.190Z</time>
      </trkpt>
      <trkpt lat="40.05586" lon="-1.27655">
        <ele>725.185729</ele>
        <time>2022-02-23T07:10:35.560Z</time>
      </trkpt>
      <trkpt lat="40.05511" lon="-1.27643">
        <ele>734.866403</ele>
        <time>2022-02-23T07:11:52.852Z</time>
      </trkpt>
      <trkpt lat="40.05425" lon="-1.27613">
        <ele>746.756153</ele>
        <time>2022-02-23T07:13:16.132Z</time>
      </trkpt>
      <trkpt lat="40.05346" lon="-1.27582">
        <ele>754.471714</ele>
        <time>2022-02-23T07:14:15.008Z</time>
      </trkpt>
      <trkpt lat="40.0523" lon="-1.27536">
        <ele>761.896597</ele>
        <time>2022-02-23T07:15:11.670Z</time>
      </trkpt>
      <trkpt lat="40.05219" lon="-1.27531">
        <ele>762.598854</ele>
        <time>2022-02-23T07:15:16.331Z</time>
      </trkpt>
      <trkpt lat="40.05062" lon="-1.27471">
        <ele>767.026781</ele>
        <time>2022-02-23T07:16:11.912Z</time>
      </trkpt>
      <trkpt lat="40.05024" lon="-1.27466">
        <ele>768.733653</ele>
        <time>2022-02-23T07:16:24.515Z</time>
      </trkpt>
      <trkpt lat="40.0496" lon="-1.27469">
        <ele>772.372897</ele>
        <time>2022-02-23T07:16:49.857Z</time>
      </trkpt>
      <trkpt lat="40.04918" lon="-1.27483">
        <ele>774.878875</ele>
        <time>2022-02-23T07:17:13.372Z</time>
      </trkpt>
      <trkpt lat="40.04871" lon="-1.27509">
        <ele>777.797815</ele>
        <time>2022-02-23T07:17:45.486Z</time>
      </trkpt>
      <trkpt lat="40.04742" lon="-1.2762">
        <ele>796.545226</ele>
        <time>2022-02-23T07:19:50.240Z</time>
      </trkpt>
      <trkpt lat="40.04685" lon="-1.27657">
        <ele>806.908713</ele>
        <time>2022-02-23T07:20:54.171Z</time>
      </trkpt>
      <trkpt lat="40.04631" lon="-1.27671">
        <ele>817.497353</ele>
        <time>2022-02-23T07:21:58.298Z</time>
      </trkpt>
      <trkpt lat="40.04559" lon="-1.2768">
        <ele>831.364909</ele>
        <time>2022-02-23T07:23:32.846Z</time>
      </trkpt>
      <trkpt lat="40.0448" lon="-1.27709">
        <ele>847.942718</ele>
        <time>2022-02-23T07:25:22.076Z</time>
      </trkpt>
      <trkpt lat="40.04425" lon="-1.2776">
        <ele>861.767225</ele>
        <time>2022-02-23T07:26:51.346Z</time>
      </trkpt>
      <trkpt lat="40.04367" lon="-1.27845">
        <ele>876.12642</ele>
        <time>2022-02-23T07:28:27.541Z</time>
      </trkpt>
      <trkpt lat="40.04322" lon="-1.27923">
        <ele>885.071158</ele>
        <time>2022-02-23T07:29:25.869Z</time>
      </trkpt>
      <trkpt lat="40.04298" lon="-1.28004">
        <ele>892.917454</ele>
        <time>2022-02-23T07:30:09.915Z</time>
      </trkpt>
      <trkpt lat="40.04281" lon="-1.28101">
        <ele>898.599941</ele>
        <time>2022-02-23T07:30:56.308Z</time>
      </trkpt>
      <trkpt lat="40.04265" lon="-1.28285">
        <ele>908.972198</ele>
        <time>2022-02-23T07:32:17.189Z</time>
      </trkpt>
      <trkpt lat="40.04234" lon="-1.28385">
        <ele>914.671789</ele>
        <time>2022-02-23T07:33:05.679Z</time>
      </trkpt>
      <trkpt lat="40.04194" lon="-1.28453">
        <ele>918.949803</ele>
        <time>2022-02-23T07:33:43.925Z</time>
      </trkpt>
      <trkpt lat="40.04088" lon="-1.28598">
        <ele>925.778324</ele>
        <time>2022-02-23T07:34:52.444Z</time>
      </trkpt>
      <trkpt lat="40.04052" lon="-1.28676">
        <ele>928.651196</ele>
        <time>2022-02-23T07:35:13.808Z</time>
      </trkpt>
      <trkpt lat="40.04037" lon="-1.28738">
        <ele>930.672315</ele>
        <time>2022-02-23T07:35:31.724Z</time>
      </trkpt>
      <trkpt lat="40.0403" lon="-1.28794">
        <ele>932.417463</ele>
        <time>2022-02-23T07:35:49.577Z</time>
      </trkpt>
      <trkpt lat="40.04033" lon="-1.28863">
        <ele>935.939323</ele>
        <time>2022-02-23T07:36:18.391Z</time>
      </trkpt>
      <trkpt lat="40.04058" lon="-1.28984">
        <ele>946.533106</ele>
        <time>2022-02-23T07:37:32.084Z</time>
      </trkpt>
      <trkpt lat="40.04063" lon="-1.29037">
        <ele>950.965703</ele>
        <time>2022-02-23T07:38:08.757Z</time>
      </trkpt>
      <trkpt lat="40.04058" lon="-1.29095">
        <ele>956.229594</ele>
        <time>2022-02-23T07:38:51.189Z</time>
      </trkpt>
      <trkpt lat="40.04045" lon="-1.2916">
        <ele>962.548666</ele>
        <time>2022-02-23T07:39:38.267Z</time>
      </trkpt>
      <trkpt lat="40.04028" lon="-1.29217">
        <ele>968.330646</ele>
        <time>2022-02-23T07:40:19.463Z</time>
      </trkpt>
      <trkpt lat="40.04" lon="-1.29275">
        <ele>974.752761</ele>
        <time>2022-02-23T07:40:59.599Z</time>
      </trkpt>
      <trkpt lat="40.03968" lon="-1.29318">
        <ele>978.424137</ele>
        <time>2022-02-23T07:41:30.236Z</time>
      </trkpt>
      <trkpt lat="40.03925" lon="-1.29354">
        <ele>982.181492</ele>
        <time>2022-02-23T07:42:01.291Z</time>
      </trkpt>
      <trkpt lat="40.03879" lon="-1.29379">
        <ele>985.767982</ele>
        <time>2022-02-23T07:42:28.032Z</time>
      </trkpt>
      <trkpt lat="40.03598" lon="-1.2944">
        <ele>1001.93958</ele>
        <time>2022-02-23T07:44:45.695Z</time>
      </trkpt>
      <trkpt lat="40.03557" lon="-1.29455">
        <ele>1004.379294</ele>
        <time>2022-02-23T07:45:07.313Z</time>
      </trkpt>
      <trkpt lat="40.03522" lon="-1.29477">
        <ele>1006.593167</ele>
        <time>2022-02-23T07:45:27.213Z</time>
      </trkpt>
      <trkpt lat="40.03452" lon="-1.29547">
        <ele>1012.320384</ele>
        <time>2022-02-23T07:46:16.300Z</time>
      </trkpt>
      <trkpt lat="40.03423" lon="-1.29592">
        <ele>1015.413272</ele>
        <time>2022-02-23T07:46:41.373Z</time>
      </trkpt>
      <trkpt lat="40.03329" lon="-1.29807">
        <ele>1029.166016</ele>
        <time>2022-02-23T07:48:32.733Z</time>
      </trkpt>
      <trkpt lat="40.03293" lon="-1.29866">
        <ele>1033.541976</ele>
        <time>2022-02-23T07:49:07.988Z</time>
      </trkpt>
      <trkpt lat="40.03253" lon="-1.29919">
        <ele>1038.032206</ele>
        <time>2022-02-23T07:49:43.411Z</time>
      </trkpt>
      <trkpt lat="40.03225" lon="-1.29948">
        <ele>1040.940318</ele>
        <time>2022-02-23T07:50:06.778Z</time>
      </trkpt>
      <trkpt lat="40.03043" lon="-1.30099">
        <ele>1055.619029</ele>
        <time>2022-02-23T07:52:20.144Z</time>
      </trkpt>
      <trkpt lat="40.0282" lon="-1.30305">
        <ele>1063.780266</ele>
        <time>2022-02-23T07:53:49.394Z</time>
      </trkpt>
      <trkpt lat="40.02288" lon="-1.30799">
        <ele>1076.785502</ele>
        <time>2022-02-23T07:57:21.330Z</time>
      </trkpt>
      <trkpt lat="40.02195" lon="-1.3088">
        <ele>1078.377781</ele>
        <time>2022-02-23T07:57:52.355Z</time>
      </trkpt>
      <trkpt lat="40.02076" lon="-1.30961">
        <ele>1080.194273</ele>
        <time>2022-02-23T07:58:30.014Z</time>
      </trkpt>
      <trkpt lat="40.02004" lon="-1.31002">
        <ele>1081.661271</ele>
        <time>2022-02-23T07:58:54.944Z</time>
      </trkpt>
      <trkpt lat="40.0185" lon="-1.31069">
        <ele>1084.85439</ele>
        <time>2022-02-23T07:59:48.997Z</time>
      </trkpt>
      <trkpt lat="40.01719" lon="-1.31108">
        <ele>1087.319952</ele>
        <time>2022-02-23T08:00:31.650Z</time>
      </trkpt>
      <trkpt lat="40.00725" lon="-1.31409">
        <ele>1101.590815</ele>
        <time>2022-02-23T08:05:27.417Z</time>
      </trkpt>
      <trkpt lat="40.00292" lon="-1.31539">
        <ele>1111.355741</ele>
        <time>2022-02-23T08:07:58.915Z</time>
      </trkpt>
      <trkpt lat="40.00111" lon="-1.31586">
        <ele>1113.817519</ele>
        <time>2022-02-23T08:08:50.860Z</time>
      </trkpt>
      <trkpt lat="39.99986" lon="-1.31599">
        <ele>1114.806743</ele>
        <time>2022-02-23T08:09:23.806Z</time>
      </trkpt>
      <trkpt lat="39.99787" lon="-1.316">
        <ele>1114.555734</ele>
        <time>2022-02-23T08:10:09.871Z</time>
      </trkpt>
      <trkpt lat="39.9973" lon="-1.3161">
        <ele>1113.6276</ele>
        <time>2022-02-23T08:10:20.816Z</time>
      </trkpt>
      <trkpt lat="39.99678" lon="-1.31627">
        <ele>1112.758833</ele>
        <time>2022-02-23T08:10:30.516Z</time>
      </trkpt>
      <trkpt lat="39.99617" lon="-1.31658">
        <ele>1111.232878</ele>
        <time>2022-02-23T08:10:41.682Z</time>
      </trkpt>
      <trkpt lat="39.99395" lon="-1.31834">
        <ele>1105.00633</ele>
        <time>2022-02-23T08:11:26.659Z</time>
      </trkpt>
      <trkpt lat="39.99301" lon="-1.31896">
        <ele>1104.548115</ele>
        <time>2022-02-23T08:11:50.335Z</time>
      </trkpt>
      <trkpt lat="39.99215" lon="-1.31939">
        <ele>1106.069826</ele>
        <time>2022-02-23T08:12:19.124Z</time>
      </trkpt>
      <trkpt lat="39.99139" lon="-1.31965">
        <ele>1108.031113</ele>
        <time>2022-02-23T08:12:47.054Z</time>
      </trkpt>
      <trkpt lat="39.98912" lon="-1.32022">
        <ele>1115.520391</ele>
        <time>2022-02-23T08:14:26.684Z</time>
      </trkpt>
      <trkpt lat="39.98791" lon="-1.32045">
        <ele>1117.503293</ele>
        <time>2022-02-23T08:14:59.458Z</time>
      </trkpt>
      <trkpt lat="39.98699" lon="-1.32055">
        <ele>1116.804782</ele>
        <time>2022-02-23T08:15:16.978Z</time>
      </trkpt>
      <trkpt lat="39.98132" lon="-1.32075">
        <ele>1111.442011</ele>
        <time>2022-02-23T08:17:10.582Z</time>
      </trkpt>
      <trkpt lat="39.98056" lon="-1.32088">
        <ele>1110.109804</ele>
        <time>2022-02-23T08:17:25.551Z</time>
      </trkpt>
      <trkpt lat="39.97869" lon="-1.32132">
        <ele>1105.430044</ele>
        <time>2022-02-23T08:17:58.897Z</time>
      </trkpt>
      <trkpt lat="39.97829" lon="-1.32141">
        <ele>1104.22274</ele>
        <time>2022-02-23T08:18:05.788Z</time>
      </trkpt>
      <trkpt lat="39.97729" lon="-1.3216">
        <ele>1101.363004</ele>
        <time>2022-02-23T08:18:23.114Z</time>
      </trkpt>
      <trkpt lat="39.97656" lon="-1.32165">
        <ele>1099.819966</ele>
        <time>2022-02-23T08:18:36.362Z</time>
      </trkpt>
      <trkpt lat="39.97572" lon="-1.32161">
        <ele>1098.077074</ele>
        <time>2022-02-23T08:18:52.061Z</time>
      </trkpt>
      <trkpt lat="39.97488" lon="-1.32147">
        <ele>1096.704778</ele>
        <time>2022-02-23T08:19:08.224Z</time>
      </trkpt>
      <trkpt lat="39.97454" lon="-1.32139">
        <ele>1096.165302</ele>
        <time>2022-02-23T08:19:14.839Z</time>
      </trkpt>
      <trkpt lat="39.97388" lon="-1.32117">
        <ele>1095.11278</ele>
        <time>2022-02-23T08:19:27.649Z</time>
      </trkpt>
      <trkpt lat="39.97292" lon="-1.32072">
        <ele>1093.166964</ele>
        <time>2022-02-23T08:19:46.647Z</time>
      </trkpt>
      <trkpt lat="39.96964" lon="-1.31862">
        <ele>1085.570661</ele>
        <time>2022-02-23T08:20:53.453Z</time>
      </trkpt>
      <trkpt lat="39.96371" lon="-1.31477">
        <ele>1070.811258</ele>
        <time>2022-02-23T08:22:51.864Z</time>
      </trkpt>
      <trkpt lat="39.95326" lon="-1.308">
        <ele>1060.295719</ele>
        <time>2022-02-23T08:26:48.376Z</time>
      </trkpt>
      <trkpt lat="39.9424" lon="-1.30094">
        <ele>1041.403898</ele>
        <time>2022-02-23T08:30:37.055Z</time>
      </trkpt>
      <trkpt lat="39.9408" lon="-1.2999">
        <ele>1039.701946</ele>
        <time>2022-02-23T08:31:14.450Z</time>
      </trkpt>
      <trkpt lat="39.93969" lon="-1.29927">
        <ele>1038.48635</ele>
        <time>2022-02-23T08:31:38.266Z</time>
      </trkpt>
      <trkpt lat="39.9391" lon="-1.29899">
        <ele>1037.543421</ele>
        <time>2022-02-23T08:31:49.854Z</time>
      </trkpt>
      <trkpt lat="39.93802" lon="-1.29861">
        <ele>1036.210609</ele>
        <time>2022-02-23T08:32:10.805Z</time>
      </trkpt>
      <trkpt lat="39.93464" lon="-1.29755">
        <ele>1036.569699</ele>
        <time>2022-02-23T08:33:31.997Z</time>
      </trkpt>
      <trkpt lat="39.93255" lon="-1.29677">
        <ele>1039.296819</ele>
        <time>2022-02-23T08:34:32.427Z</time>
      </trkpt>
      <trkpt lat="39.93122" lon="-1.2962">
        <ele>1042.133211</ele>
        <time>2022-02-23T08:35:20.727Z</time>
      </trkpt>
      <trkpt lat="39.93046" lon="-1.29616">
        <ele>1043.747843</ele>
        <time>2022-02-23T08:35:45.971Z</time>
      </trkpt>
      <trkpt lat="39.93016" lon="-1.29623">
        <ele>1044.392482</ele>
        <time>2022-02-23T08:35:55.656Z</time>
      </trkpt>
      <trkpt lat="39.92949" lon="-1.29661">
        <ele>1045.91649</ele>
        <time>2022-02-23T08:36:18.871Z</time>
      </trkpt>
      <trkpt lat="39.92943" lon="-1.29645">
        <ele>1046.178304</ele>
        <time>2022-02-23T08:36:23.694Z</time>
      </trkpt>
      <trkpt lat="39.92939" lon="-1.29632">
        <ele>1046.368626</ele>
        <time>2022-02-23T08:36:27.267Z</time>
      </trkpt>
      <trkpt lat="39.92932" lon="-1.29612">
        <ele>1046.676191</ele>
        <time>2022-02-23T08:36:33.447Z</time>
      </trkpt>
      <trkpt lat="39.92855" lon="-1.29671">
        <ele>1048.312219</ele>
        <time>2022-02-23T08:37:01.163Z</time>
      </trkpt>
      <trkpt lat="39.92824" lon="-1.29686">
        <ele>1048.923314</ele>
        <time>2022-02-23T08:37:11.114Z</time>
      </trkpt>
      <trkpt lat="39.92818" lon="-1.29695">
        <ele>1049.051351</ele>
        <time>2022-02-23T08:37:13.534Z</time>
      </trkpt>
      <trkpt lat="39.92808" lon="-1.29699">
        <ele>1049.179133</ele>
        <time>2022-02-23T08:37:16.839Z</time>
      </trkpt>
      <trkpt lat="39.92795" lon="-1.2969">
        <ele>1049.367499</ele>
        <time>2022-02-23T08:37:21.228Z</time>
      </trkpt>
      <trkpt lat="39.92792" lon="-1.29682">
        <ele>1049.450299</ele>
        <time>2022-02-23T08:37:22.993Z</time>
      </trkpt>
      <trkpt lat="39.92758" lon="-1.29654">
        <ele>1049.94276</ele>
        <time>2022-02-23T08:37:33.802Z</time>
      </trkpt>
      <trkpt lat="39.92693" lon="-1.29611">
        <ele>1050.855446</ele>
        <time>2022-02-23T08:37:54.933Z</time>
      </trkpt>
      <trkpt lat="39.92675" lon="-1.29592">
        <ele>1051.144904</ele>
        <time>2022-02-23T08:38:01.449Z</time>
      </trkpt>
      <trkpt lat="39.92666" lon="-1.29569">
        <ele>1051.480536</ele>
        <time>2022-02-23T08:38:06.497Z</time>
      </trkpt>
      <trkpt lat="39.92666" lon="-1.29532">
        <ele>1052.010717</ele>
        <time>2022-02-23T08:38:13.972Z</time>
      </trkpt>
      <trkpt lat="39.92673" lon="-1.29496">
        <ele>1052.553289</ele>
        <time>2022-02-23T08:38:22.819Z</time>
      </trkpt>
      <trkpt lat="39.92667" lon="-1.29475">
        <ele>1052.88364</ele>
        <time>2022-02-23T08:38:28.402Z</time>
      </trkpt>
      <trkpt lat="39.92652" lon="-1.29454">
        <ele>1053.30417</ele>
        <time>2022-02-23T08:38:35.427Z</time>
      </trkpt>
      <trkpt lat="39.9262" lon="-1.29426">
        <ele>1054.040807</ele>
        <time>2022-02-23T08:38:48.509Z</time>
      </trkpt>
      <trkpt lat="39.9259" lon="-1.29401">
        <ele>1054.726959</ele>
        <time>2022-02-23T08:39:01.095Z</time>
      </trkpt>
      <trkpt lat="39.92573" lon="-1.29387">
        <ele>1055.189982</ele>
        <time>2022-02-23T08:39:08.502Z</time>
      </trkpt>
      <trkpt lat="39.92546" lon="-1.29371">
        <ele>1055.889201</ele>
        <time>2022-02-23T08:39:19.572Z</time>
      </trkpt>
      <trkpt lat="39.92533" lon="-1.29358">
        <ele>1056.266663</ele>
        <time>2022-02-23T08:39:25.257Z</time>
      </trkpt>
      <trkpt lat="39.92523" lon="-1.29347">
        <ele>1056.578782</ele>
        <time>2022-02-23T08:39:29.647Z</time>
      </trkpt>
      <trkpt lat="39.92511" lon="-1.29335">
        <ele>1056.90731</ele>
        <time>2022-02-23T08:39:34.267Z</time>
      </trkpt>
      <trkpt lat="39.92489" lon="-1.2932">
        <ele>1057.503154</ele>
        <time>2022-02-23T08:39:42.282Z</time>
      </trkpt>
      <trkpt lat="39.92484" lon="-1.29318">
        <ele>1057.609417</ele>
        <time>2022-02-23T08:39:43.744Z</time>
      </trkpt>
      <trkpt lat="39.92454" lon="-1.29301">
        <ele>1058.375985</ele>
        <time>2022-02-23T08:39:54.283Z</time>
      </trkpt>
      <trkpt lat="39.92412" lon="-1.29278">
        <ele>1059.590817</ele>
        <time>2022-02-23T08:40:09.131Z</time>
      </trkpt>
      <trkpt lat="39.92343" lon="-1.29236">
        <ele>1061.87899</ele>
        <time>2022-02-23T08:40:36.180Z</time>
      </trkpt>
      <trkpt lat="39.91846" lon="-1.28856">
        <ele>1083.398462</ele>
        <time>2022-02-23T08:44:31.796Z</time>
      </trkpt>
      <trkpt lat="39.9143" lon="-1.2848">
        <ele>1107.782483</ele>
        <time>2022-02-23T08:48:40.163Z</time>
      </trkpt>
      <trkpt lat="39.91396" lon="-1.2844">
        <ele>1109.325749</ele>
        <time>2022-02-23T08:48:55.981Z</time>
      </trkpt>
      <trkpt lat="39.91304" lon="-1.28322">
        <ele>1108.0598</ele>
        <time>2022-02-23T08:49:21.079Z</time>
      </trkpt>
      <trkpt lat="39.91125" lon="-1.28194">
        <ele>1102.546131</ele>
        <time>2022-02-23T08:49:54.800Z</time>
      </trkpt>
      <trkpt lat="39.91106" lon="-1.2817">
        <ele>1101.747444</ele>
        <time>2022-02-23T08:49:59.709Z</time>
      </trkpt>
      <trkpt lat="39.91049" lon="-1.28075">
        <ele>1100.882307</ele>
        <time>2022-02-23T08:50:18.828Z</time>
      </trkpt>
      <trkpt lat="39.91023" lon="-1.28046">
        <ele>1100.883604</ele>
        <time>2022-02-23T08:50:27.880Z</time>
      </trkpt>
      <trkpt lat="39.90976" lon="-1.28013">
        <ele>1100.885668</ele>
        <time>2022-02-23T08:50:43.246Z</time>
      </trkpt>
      <trkpt lat="39.9083" lon="-1.27944">
        <ele>1099.069938</ele>
        <time>2022-02-23T08:51:14.912Z</time>
      </trkpt>
      <trkpt lat="39.90597" lon="-1.27773">
        <ele>1092.253912</ele>
        <time>2022-02-23T08:52:00.365Z</time>
      </trkpt>
      <trkpt lat="39.9048" lon="-1.2764">
        <ele>1091.082446</ele>
        <time>2022-02-23T08:52:32.230Z</time>
      </trkpt>
      <trkpt lat="39.90365" lon="-1.27494">
        <ele>1094.930188</ele>
        <time>2022-02-23T08:53:29.805Z</time>
      </trkpt>
      <trkpt lat="39.90286" lon="-1.27396">
        <ele>1098.836818</ele>
        <time>2022-02-23T08:54:16.529Z</time>
      </trkpt>
      <trkpt lat="39.90213" lon="-1.27341">
        <ele>1101.838426</ele>
        <time>2022-02-23T08:54:51.893Z</time>
      </trkpt>
      <trkpt lat="39.90169" lon="-1.27328">
        <ele>1101.973771</ele>
        <time>2022-02-23T08:55:07.594Z</time>
      </trkpt>
      <trkpt lat="39.901" lon="-1.27336">
        <ele>1102.181098</ele>
        <time>2022-02-23T08:55:24.805Z</time>
      </trkpt>
      <trkpt lat="39.90072" lon="-1.27334">
        <ele>1102.264675</ele>
        <time>2022-02-23T08:55:30.521Z</time>
      </trkpt>
      <trkpt lat="39.90036" lon="-1.27332">
        <ele>1102.230131</ele>
        <time>2022-02-23T08:55:37.013Z</time>
      </trkpt>
      <trkpt lat="39.9001" lon="-1.27326">
        <ele>1100.927899</ele>
        <time>2022-02-23T08:55:41.445Z</time>
      </trkpt>
      <trkpt lat="39.89945" lon="-1.27292">
        <ele>1097.377821</ele>
        <time>2022-02-23T08:55:52.814Z</time>
      </trkpt>
      <trkpt lat="39.89905" lon="-1.27271">
        <ele>1095.211293</ele>
        <time>2022-02-23T08:55:59.365Z</time>
      </trkpt>
      <trkpt lat="39.89886" lon="-1.27262">
        <ele>1094.214232</ele>
        <time>2022-02-23T08:56:02.337Z</time>
      </trkpt>
      <trkpt lat="39.89871" lon="-1.27236">
        <ele>1092.884883</ele>
        <time>2022-02-23T08:56:06.047Z</time>
      </trkpt>
      <trkpt lat="39.89868" lon="-1.27232">
        <ele>1092.595633</ele>
        <time>2022-02-23T08:56:06.749Z</time>
      </trkpt>
      <trkpt lat="39.89846" lon="-1.27219">
        <ele>1091.095118</ele>
        <time>2022-02-23T08:56:10.407Z</time>
      </trkpt>
      <trkpt lat="39.89838" lon="-1.2721">
        <ele>1090.431247</ele>
        <time>2022-02-23T08:56:12.010Z</time>
      </trkpt>
      <trkpt lat="39.8983" lon="-1.27187">
        <ele>1089.278033</ele>
        <time>2022-02-23T08:56:14.848Z</time>
      </trkpt>
      <trkpt lat="39.89821" lon="-1.27201">
        <ele>1088.4266</ele>
        <time>2022-02-23T08:56:18.603Z</time>
      </trkpt>
      <trkpt lat="39.89737" lon="-1.27237">
        <ele>1082.978895</ele>
        <time>2022-02-23T08:56:43.185Z</time>
      </trkpt>
      <trkpt lat="39.89727" lon="-1.27235">
        <ele>1082.374734</ele>
        <time>2022-02-23T08:56:45.972Z</time>
      </trkpt>
      <trkpt lat="39.89702" lon="-1.27215">
        <ele>1081.263571</ele>
        <time>2022-02-23T08:56:54.604Z</time>
      </trkpt>
      <trkpt lat="39.89686" lon="-1.27224">
        <ele>1080.648253</ele>
        <time>2022-02-23T08:56:59.672Z</time>
      </trkpt>
      <trkpt lat="39.89663" lon="-1.27217">
        <ele>1079.814177</ele>
        <time>2022-02-23T08:57:07.017Z</time>
      </trkpt>
      <trkpt lat="39.89659" lon="-1.27225">
        <ele>1079.550049</ele>
        <time>2022-02-23T08:57:09.206Z</time>
      </trkpt>
      <trkpt lat="39.89643" lon="-1.27222">
        <ele>1078.990787</ele>
        <time>2022-02-23T08:57:14.269Z</time>
      </trkpt>
      <trkpt lat="39.89627" lon="-1.27231">
        <ele>1078.370115</ele>
        <time>2022-02-23T08:57:17.440Z</time>
      </trkpt>
      <trkpt lat="39.8961" lon="-1.27229">
        <ele>1077.758842</ele>
        <time>2022-02-23T08:57:20.701Z</time>
      </trkpt>
      <trkpt lat="39.89541" lon="-1.27179">
        <ele>1075.161456</ele>
        <time>2022-02-23T08:57:35.131Z</time>
      </trkpt>
      <trkpt lat="39.89493" lon="-1.27128">
        <ele>1073.468802</ele>
        <time>2022-02-23T08:57:46.450Z</time>
      </trkpt>
      <trkpt lat="39.89439" lon="-1.27091">
        <ele>1071.782124</ele>
        <time>2022-02-23T08:57:57.835Z</time>
      </trkpt>
      <trkpt lat="39.89318" lon="-1.27017">
        <ele>1067.844779</ele>
        <time>2022-02-23T08:58:21.849Z</time>
      </trkpt>
      <trkpt lat="39.89259" lon="-1.27008">
        <ele>1066.022478</ele>
        <time>2022-02-23T08:58:32.721Z</time>
      </trkpt>
      <trkpt lat="39.89231" lon="-1.2698">
        <ele>1065.036598</ele>
        <time>2022-02-23T08:58:39.036Z</time>
      </trkpt>
      <trkpt lat="39.8914" lon="-1.27013">
        <ele>1062.63506</ele>
        <time>2022-02-23T08:58:55.390Z</time>
      </trkpt>
      <trkpt lat="39.89106" lon="-1.27013">
        <ele>1061.755446</ele>
        <time>2022-02-23T08:59:01.519Z</time>
      </trkpt>
      <trkpt lat="39.88978" lon="-1.2699">
        <ele>1060.010413</ele>
        <time>2022-02-23T08:59:25.791Z</time>
      </trkpt>
      <trkpt lat="39.88833" lon="-1.27033">
        <ele>1059.90297</ele>
        <time>2022-02-23T08:59:58.637Z</time>
      </trkpt>
      <trkpt lat="39.88647" lon="-1.27018">
        <ele>1062.183363</ele>
        <time>2022-02-23T09:00:55.705Z</time>
      </trkpt>
      <trkpt lat="39.88534" lon="-1.27021">
        <ele>1063.83931</ele>
        <time>2022-02-23T09:01:30.039Z</time>
      </trkpt>
      <trkpt lat="39.88497" lon="-1.27023">
        <ele>1063.905196</ele>
        <time>2022-02-23T09:01:39.673Z</time>
      </trkpt>
      <trkpt lat="39.88391" lon="-1.27029">
        <ele>1064.093992</ele>
        <time>2022-02-23T09:02:03.453Z</time>
      </trkpt>
      <trkpt lat="39.88359" lon="-1.27031">
        <ele>1064.149071</ele>
        <time>2022-02-23T09:02:09.720Z</time>
      </trkpt>
      <trkpt lat="39.88151" lon="-1.2703">
        <ele>1063.605839</ele>
        <time>2022-02-23T09:02:54.370Z</time>
      </trkpt>
      <trkpt lat="39.87919" lon="-1.26993">
        <ele>1062.656983</ele>
        <time>2022-02-23T09:03:46.915Z</time>
      </trkpt>
      <trkpt lat="39.87875" lon="-1.26981">
        <ele>1062.151972</ele>
        <time>2022-02-23T09:03:55.723Z</time>
      </trkpt>
      <trkpt lat="39.87611" lon="-1.26878">
        <ele>1055.067648</ele>
        <time>2022-02-23T09:04:43.836Z</time>
      </trkpt>
      <trkpt lat="39.87373" lon="-1.26829">
        <ele>1045.630622</ele>
        <time>2022-02-23T09:05:23.686Z</time>
      </trkpt>
      <trkpt lat="39.8721" lon="-1.26743">
        <ele>1038.029098</ele>
        <time>2022-02-23T09:05:51.835Z</time>
      </trkpt>
      <trkpt lat="39.86847" lon="-1.26544">
        <ele>1023.354498</ele>
        <time>2022-02-23T09:06:57.247Z</time>
      </trkpt>
      <trkpt lat="39.86833" lon="-1.26542">
        <ele>1022.915867</ele>
        <time>2022-02-23T09:06:59.696Z</time>
      </trkpt>
      <trkpt lat="39.86815" lon="-1.26541">
        <ele>1022.324695</ele>
        <time>2022-02-23T09:07:02.986Z</time>
      </trkpt>
      <trkpt lat="39.86781" lon="-1.26552">
        <ele>1021.585</ele>
        <time>2022-02-23T09:07:09.473Z</time>
      </trkpt>
      <trkpt lat="39.86485" lon="-1.26713">
        <ele>1018.270951</ele>
        <time>2022-02-23T09:08:13.567Z</time>
      </trkpt>
      <trkpt lat="39.86448" lon="-1.26742">
        <ele>1018.055781</ele>
        <time>2022-02-23T09:08:22.577Z</time>
      </trkpt>
      <trkpt lat="39.8642" lon="-1.26774">
        <ele>1017.971298</ele>
        <time>2022-02-23T09:08:30.535Z</time>
      </trkpt>
      <trkpt lat="39.86242" lon="-1.26974">
        <ele>1017.134086</ele>
        <time>2022-02-23T09:09:22.397Z</time>
      </trkpt>
      <trkpt lat="39.86205" lon="-1.27026">
        <ele>1016.86999</ele>
        <time>2022-02-23T09:09:33.436Z</time>
      </trkpt>
      <trkpt lat="39.86079" lon="-1.27253">
        <ele>1013.154454</ele>
        <time>2022-02-23T09:10:13.296Z</time>
      </trkpt>
      <trkpt lat="39.86023" lon="-1.27327">
        <ele>1011.418133</ele>
        <time>2022-02-23T09:10:27.715Z</time>
      </trkpt>
      <trkpt lat="39.85939" lon="-1.27228">
        <ele>1009.284352</ele>
        <time>2022-02-23T09:11:03.790Z</time>
      </trkpt>
      <trkpt lat="39.85879" lon="-1.27295">
        <ele>1008.236894</ele>
        <time>2022-02-23T09:11:30.310Z</time>
      </trkpt>
      <trkpt lat="39.8586" lon="-1.2731">
        <ele>1007.939729</ele>
        <time>2022-02-23T09:11:38.169Z</time>
      </trkpt>
      <trkpt lat="39.8575" lon="-1.27371">
        <ele>1006.427931</ele>
        <time>2022-02-23T09:12:21.414Z</time>
      </trkpt>
      <trkpt lat="39.85718" lon="-1.27382">
        <ele>1006.029415</ele>
        <time>2022-02-23T09:12:32.987Z</time>
      </trkpt>
      <trkpt lat="39.85622" lon="-1.27355">
        <ele>1003.898386</ele>
        <time>2022-02-23T09:13:04.906Z</time>
      </trkpt>
      <trkpt lat="39.85459" lon="-1.27241">
        <ele>996.618706</ele>
        <time>2022-02-23T09:13:58.438Z</time>
      </trkpt>
      <trkpt lat="39.85414" lon="-1.2723">
        <ele>995.152346</ele>
        <time>2022-02-23T09:14:11.903Z</time>
      </trkpt>
      <trkpt lat="39.85298" lon="-1.27191">
        <ele>991.524586</ele>
        <time>2022-02-23T09:14:50.461Z</time>
      </trkpt>
      <trkpt lat="39.85297" lon="-1.27191">
        <ele>991.498254</ele>
        <time>2022-02-23T09:14:50.751Z</time>
      </trkpt>
      <trkpt lat="39.85133" lon="-1.27146">
        <ele>988.110541</ele>
        <time>2022-02-23T09:15:25.923Z</time>
      </trkpt>
      <trkpt lat="39.85097" lon="-1.27141">
        <ele>987.0854</ele>
        <time>2022-02-23T09:15:32.992Z</time>
      </trkpt>
      <trkpt lat="39.85063" lon="-1.27138">
        <ele>986.086504</ele>
        <time>2022-02-23T09:15:39.820Z</time>
      </trkpt>
      <trkpt lat="39.84957" lon="-1.27086">
        <ele>982.859636</ele>
        <time>2022-02-23T09:16:01.561Z</time>
      </trkpt>
      <trkpt lat="39.84923" lon="-1.27067">
        <ele>981.761879</ele>
        <time>2022-02-23T09:16:08.883Z</time>
      </trkpt>
      <trkpt lat="39.8483" lon="-1.27018">
        <ele>978.886943</ele>
        <time>2022-02-23T09:16:28.374Z</time>
      </trkpt>
      <trkpt lat="39.8471" lon="-1.26961">
        <ele>975.638422</ele>
        <time>2022-02-23T09:16:54.266Z</time>
      </trkpt>
      <trkpt lat="39.84553" lon="-1.26881">
        <ele>971.749893</ele>
        <time>2022-02-23T09:17:28.210Z</time>
      </trkpt>
      <trkpt lat="39.84502" lon="-1.26838">
        <ele>970.390713</ele>
        <time>2022-02-23T09:17:40.778Z</time>
      </trkpt>
      <trkpt lat="39.84488" lon="-1.26825">
        <ele>970.015893</ele>
        <time>2022-02-23T09:17:44.301Z</time>
      </trkpt>
      <trkpt lat="39.8448" lon="-1.26829">
        <ele>969.816314</ele>
        <time>2022-02-23T09:17:46.138Z</time>
      </trkpt>
      <trkpt lat="39.84467" lon="-1.26836">
        <ele>969.48546</ele>
        <time>2022-02-23T09:17:49.037Z</time>
      </trkpt>
      <trkpt lat="39.84436" lon="-1.2678">
        <ele>968.211385</ele>
        <time>2022-02-23T09:17:58.777Z</time>
      </trkpt>
      <trkpt lat="39.84411" lon="-1.26749">
        <ele>967.387114</ele>
        <time>2022-02-23T09:18:04.991Z</time>
      </trkpt>
      <trkpt lat="39.84364" lon="-1.26706">
        <ele>966.011581</ele>
        <time>2022-02-23T09:18:15.202Z</time>
      </trkpt>
      <trkpt lat="39.84333" lon="-1.26681">
        <ele>964.963491</ele>
        <time>2022-02-23T09:18:21.722Z</time>
      </trkpt>
      <trkpt lat="39.84167" lon="-1.26552">
        <ele>957.767898</ele>
        <time>2022-02-23T09:18:53.549Z</time>
      </trkpt>
      <trkpt lat="39.84135" lon="-1.26533">
        <ele>956.513748</ele>
        <time>2022-02-23T09:18:59.305Z</time>
      </trkpt>
      <trkpt lat="39.84015" lon="-1.2648">
        <ele>952.072311</ele>
        <time>2022-02-23T09:19:20.580Z</time>
      </trkpt>
      <trkpt lat="39.83845" lon="-1.26407">
        <ele>948.150564</ele>
        <time>2022-02-23T09:19:53.236Z</time>
      </trkpt>
      <trkpt lat="39.83811" lon="-1.26383">
        <ele>947.595351</ele>
        <time>2022-02-23T09:20:00.506Z</time>
      </trkpt>
      <trkpt lat="39.83753" lon="-1.26329">
        <ele>946.555319</ele>
        <time>2022-02-23T09:20:14.398Z</time>
      </trkpt>
      <trkpt lat="39.83633" lon="-1.26219">
        <ele>944.149192</ele>
        <time>2022-02-23T09:20:42.814Z</time>
      </trkpt>
      <trkpt lat="39.83596" lon="-1.26175">
        <ele>943.253925</ele>
        <time>2022-02-23T09:20:52.157Z</time>
      </trkpt>
      <trkpt lat="39.83433" lon="-1.25908">
        <ele>937.807731</ele>
        <time>2022-02-23T09:21:38.757Z</time>
      </trkpt>
      <trkpt lat="39.83399" lon="-1.25864">
        <ele>937.359282</ele>
        <time>2022-02-23T09:21:47.966Z</time>
      </trkpt>
      <trkpt lat="39.83326" lon="-1.25809">
        <ele>936.577014</ele>
        <time>2022-02-23T09:22:05.483Z</time>
      </trkpt>
      <trkpt lat="39.83223" lon="-1.25761">
        <ele>937.806845</ele>
        <time>2022-02-23T09:22:34.601Z</time>
      </trkpt>
      <trkpt lat="39.83099" lon="-1.25705">
        <ele>940.368254</ele>
        <time>2022-02-23T09:23:18.374Z</time>
      </trkpt>
      <trkpt lat="39.83031" lon="-1.2568">
        <ele>942.43586</ele>
        <time>2022-02-23T09:23:44.726Z</time>
      </trkpt>
      <trkpt lat="39.82968" lon="-1.25664">
        <ele>944.316569</ele>
        <time>2022-02-23T09:24:09.810Z</time>
      </trkpt>
      <trkpt lat="39.82886" lon="-1.25652">
        <ele>947.028558</ele>
        <time>2022-02-23T09:24:43.171Z</time>
      </trkpt>
      <trkpt lat="39.82639" lon="-1.25623">
        <ele>954.222652</ele>
        <time>2022-02-23T09:26:15.991Z</time>
      </trkpt>
      <trkpt lat="39.82594" lon="-1.25618">
        <ele>955.140452</ele>
        <time>2022-02-23T09:26:29.332Z</time>
      </trkpt>
      <trkpt lat="39.82438" lon="-1.25598">
        <ele>956.907305</ele>
        <time>2022-02-23T09:27:12.588Z</time>
      </trkpt>
      <trkpt lat="39.82395" lon="-1.25586">
        <ele>956.572091</ele>
        <time>2022-02-23T09:27:23.691Z</time>
      </trkpt>
      <trkpt lat="39.82311" lon="-1.25538">
        <ele>955.693441</ele>
        <time>2022-02-23T09:27:42.501Z</time>
      </trkpt>
      <trkpt lat="39.82262" lon="-1.2551">
        <ele>955.006439</ele>
        <time>2022-02-23T09:27:52.001Z</time>
      </trkpt>
      <trkpt lat="39.82221" lon="-1.25494">
        <ele>953.010693</ele>
        <time>2022-02-23T09:27:59.248Z</time>
      </trkpt>
      <trkpt lat="39.8218" lon="-1.25487">
        <ele>951.11048</ele>
        <time>2022-02-23T09:28:05.818Z</time>
      </trkpt>
      <trkpt lat="39.82135" lon="-1.25488">
        <ele>949.00972</ele>
        <time>2022-02-23T09:28:12.885Z</time>
      </trkpt>
      <trkpt lat="39.81862" lon="-1.25518">
        <ele>933.679605</ele>
        <time>2022-02-23T09:28:55.454Z</time>
      </trkpt>
      <trkpt lat="39.8174" lon="-1.25534">
        <ele>926.244354</ele>
        <time>2022-02-23T09:29:14.135Z</time>
      </trkpt>
      <trkpt lat="39.81678" lon="-1.25553">
        <ele>922.507682</ele>
        <time>2022-02-23T09:29:23.870Z</time>
      </trkpt>
      <trkpt lat="39.81603" lon="-1.25591">
        <ele>917.814433</ele>
        <time>2022-02-23T09:29:36.253Z</time>
      </trkpt>
      <trkpt lat="39.8152" lon="-1.2566">
        <ele>913.778465</ele>
        <time>2022-02-23T09:29:52.029Z</time>
      </trkpt>
      <trkpt lat="39.81471" lon="-1.25721">
        <ele>911.9564</ele>
        <time>2022-02-23T09:30:03.888Z</time>
      </trkpt>
      <trkpt lat="39.81377" lon="-1.25858">
        <ele>910.478415</ele>
        <time>2022-02-23T09:30:32.895Z</time>
      </trkpt>
      <trkpt lat="39.81371" lon="-1.25867">
        <ele>910.488543</ele>
        <time>2022-02-23T09:30:35.196Z</time>
      </trkpt>
      <trkpt lat="39.8119" lon="-1.26125">
        <ele>912.711688</ele>
        <time>2022-02-23T09:31:46.783Z</time>
      </trkpt>
      <trkpt lat="39.81187" lon="-1.26129">
        <ele>912.834669</ele>
        <time>2022-02-23T09:31:48.033Z</time>
      </trkpt>
      <trkpt lat="39.80978" lon="-1.26429">
        <ele>923.222445</ele>
        <time>2022-02-23T09:33:47.161Z</time>
      </trkpt>
      <trkpt lat="39.80958" lon="-1.26459">
        <ele>924.429261</ele>
        <time>2022-02-23T09:34:03.167Z</time>
      </trkpt>
      <trkpt lat="39.80833" lon="-1.26633">
        <ele>933.396436</ele>
        <time>2022-02-23T09:35:34.984Z</time>
      </trkpt>
      <trkpt lat="39.80796" lon="-1.26669">
        <ele>933.73226</ele>
        <time>2022-02-23T09:35:51.137Z</time>
      </trkpt>
      <trkpt lat="39.80752" lon="-1.267">
        <ele>933.533293</ele>
        <time>2022-02-23T09:36:04.524Z</time>
      </trkpt>
      <trkpt lat="39.80706" lon="-1.26721">
        <ele>933.344149</ele>
        <time>2022-02-23T09:36:13.603Z</time>
      </trkpt>
      <trkpt lat="39.80665" lon="-1.26732">
        <ele>933.177767</ele>
        <time>2022-02-23T09:36:20.661Z</time>
      </trkpt>
      <trkpt lat="39.80624" lon="-1.26735">
        <ele>931.054282</ele>
        <time>2022-02-23T09:36:27.365Z</time>
      </trkpt>
      <trkpt lat="39.80584" lon="-1.26732">
        <ele>928.819228</ele>
        <time>2022-02-23T09:36:33.696Z</time>
      </trkpt>
      <trkpt lat="39.80479" lon="-1.2671">
        <ele>922.905383</ele>
        <time>2022-02-23T09:36:49.945Z</time>
      </trkpt>
      <trkpt lat="39.80423" lon="-1.26706">
        <ele>919.812861</ele>
        <time>2022-02-23T09:36:58.267Z</time>
      </trkpt>
      <trkpt lat="39.80281" lon="-1.26722">
        <ele>912.725734</ele>
        <time>2022-02-23T09:37:20.722Z</time>
      </trkpt>
      <trkpt lat="39.80236" lon="-1.26739">
        <ele>911.774418</ele>
        <time>2022-02-23T09:37:29.058Z</time>
      </trkpt>
      <trkpt lat="39.80199" lon="-1.26762">
        <ele>910.964823</ele>
        <time>2022-02-23T09:37:36.631Z</time>
      </trkpt>
      <trkpt lat="39.80167" lon="-1.2679">
        <ele>910.18946</ele>
        <time>2022-02-23T09:37:44.451Z</time>
      </trkpt>
      <trkpt lat="39.79988" lon="-1.27044">
        <ele>909.621763</ele>
        <time>2022-02-23T09:38:46.400Z</time>
      </trkpt>
      <trkpt lat="39.79872" lon="-1.27207">
        <ele>908.75535</ele>
        <time>2022-02-23T09:39:21.345Z</time>
      </trkpt>
      <trkpt lat="39.79826" lon="-1.27258">
        <ele>908.275954</ele>
        <time>2022-02-23T09:39:33.536Z</time>
      </trkpt>
      <trkpt lat="39.79776" lon="-1.27302">
        <ele>907.800077</ele>
        <time>2022-02-23T09:39:45.559Z</time>
      </trkpt>
      <trkpt lat="39.79733" lon="-1.27328">
        <ele>907.333382</ele>
        <time>2022-02-23T09:39:55.271Z</time>
      </trkpt>
      <trkpt lat="39.79658" lon="-1.27358">
        <ele>906.486646</ele>
        <time>2022-02-23T09:40:11.967Z</time>
      </trkpt>
      <trkpt lat="39.79625" lon="-1.27367">
        <ele>906.129038</ele>
        <time>2022-02-23T09:40:18.501Z</time>
      </trkpt>
      <trkpt lat="39.79616" lon="-1.27367">
        <ele>906.034416</ele>
        <time>2022-02-23T09:40:20.218Z</time>
      </trkpt>
      <trkpt lat="39.79569" lon="-1.27373">
        <ele>904.487489</ele>
        <time>2022-02-23T09:40:28.839Z</time>
      </trkpt>
      <trkpt lat="39.79514" lon="-1.27371">
        <ele>901.328465</ele>
        <time>2022-02-23T09:40:38.358Z</time>
      </trkpt>
      <trkpt lat="39.79127" lon="-1.27314">
        <ele>880.28829</ele>
        <time>2022-02-23T09:41:37.366Z</time>
      </trkpt>
      <trkpt lat="39.7905" lon="-1.27303">
        <ele>877.110699</ele>
        <time>2022-02-23T09:41:50.597Z</time>
      </trkpt>
      <trkpt lat="39.79021" lon="-1.27299">
        <ele>878.146384</ele>
        <time>2022-02-23T09:41:56.544Z</time>
      </trkpt>
      <trkpt lat="39.78641" lon="-1.2725">
        <ele>895.685632</ele>
        <time>2022-02-23T09:45:04.600Z</time>
      </trkpt>
      <trkpt lat="39.78611" lon="-1.27254">
        <ele>897.122816</ele>
        <time>2022-02-23T09:45:19.285Z</time>
      </trkpt>
      <trkpt lat="39.78533" lon="-1.27279">
        <ele>900.874013</ele>
        <time>2022-02-23T09:45:55.604Z</time>
      </trkpt>
      <trkpt lat="39.78535" lon="-1.2729">
        <ele>901.28897</ele>
        <time>2022-02-23T09:45:58.669Z</time>
      </trkpt>
      <trkpt lat="39.78509" lon="-1.27304">
        <ele>901.958897</ele>
        <time>2022-02-23T09:46:11.407Z</time>
      </trkpt>
      <trkpt lat="39.78394" lon="-1.27378">
        <ele>904.493706</ele>
        <time>2022-02-23T09:46:51.596Z</time>
      </trkpt>
      <trkpt lat="39.78369" lon="-1.27377">
        <ele>904.98124</ele>
        <time>2022-02-23T09:46:59.160Z</time>
      </trkpt>
      <trkpt lat="39.7831" lon="-1.2729">
        <ele>904.759852</ele>
        <time>2022-02-23T09:47:21.181Z</time>
      </trkpt>
      <trkpt lat="39.78265" lon="-1.27214">
        <ele>904.524841</ele>
        <time>2022-02-23T09:47:36.641Z</time>
      </trkpt>
      <trkpt lat="39.78262" lon="-1.27194">
        <ele>904.474949</ele>
        <time>2022-02-23T09:47:39.949Z</time>
      </trkpt>
      <trkpt lat="39.78046" lon="-1.2683">
        <ele>897.24568</ele>
        <time>2022-02-23T09:48:44.467Z</time>
      </trkpt>
      <trkpt lat="39.78043" lon="-1.26823">
        <ele>897.111237</ele>
        <time>2022-02-23T09:48:45.548Z</time>
      </trkpt>
      <trkpt lat="39.77808" lon="-1.26436">
        <ele>887.095633</ele>
        <time>2022-02-23T09:49:51.668Z</time>
      </trkpt>
      <trkpt lat="39.77602" lon="-1.26086">
        <ele>882.948351</ele>
        <time>2022-02-23T09:50:58.547Z</time>
      </trkpt>
      <trkpt lat="39.77261" lon="-1.25511">
        <ele>875.879592</ele>
        <time>2022-02-23T09:52:46.913Z</time>
      </trkpt>
      <trkpt lat="39.77176" lon="-1.2541">
        <ele>874.400907</ele>
        <time>2022-02-23T09:53:09.050Z</time>
      </trkpt>
      <trkpt lat="39.77132" lon="-1.2537">
        <ele>873.723718</ele>
        <time>2022-02-23T09:53:19.428Z</time>
      </trkpt>
      <trkpt lat="39.76659" lon="-1.25022">
        <ele>869.370552</ele>
        <time>2022-02-23T09:55:09.441Z</time>
      </trkpt>
      <trkpt lat="39.76592" lon="-1.24973">
        <ele>868.98933</ele>
        <time>2022-02-23T09:55:25.642Z</time>
      </trkpt>
      <trkpt lat="39.76569" lon="-1.24996">
        <ele>868.847587</ele>
        <time>2022-02-23T09:55:32.360Z</time>
      </trkpt>
      <trkpt lat="39.76544" lon="-1.25009">
        <ele>868.715873</ele>
        <time>2022-02-23T09:55:38.664Z</time>
      </trkpt>
      <trkpt lat="39.76524" lon="-1.25013">
        <ele>868.61765</ele>
        <time>2022-02-23T09:55:43.442Z</time>
      </trkpt>
      <trkpt lat="39.76438" lon="-1.24995">
        <ele>868.374325</ele>
        <time>2022-02-23T09:56:04.242Z</time>
      </trkpt>
      <trkpt lat="39.76347" lon="-1.24924">
        <ele>868.150617</ele>
        <time>2022-02-23T09:56:30.184Z</time>
      </trkpt>
      <trkpt lat="39.76231" lon="-1.24861">
        <ele>867.670481</ele>
        <time>2022-02-23T09:57:01.118Z</time>
      </trkpt>
      <trkpt lat="39.7621" lon="-1.24851">
        <ele>867.584842</ele>
        <time>2022-02-23T09:57:06.096Z</time>
      </trkpt>
      <trkpt lat="39.76109" lon="-1.24835">
        <ele>866.569627</ele>
        <time>2022-02-23T09:57:28.505Z</time>
      </trkpt>
      <trkpt lat="39.76057" lon="-1.24827">
        <ele>865.839071</ele>
        <time>2022-02-23T09:57:39.774Z</time>
      </trkpt>
      <trkpt lat="39.75965" lon="-1.2484">
        <ele>864.599798</ele>
        <time>2022-02-23T09:57:59.361Z</time>
      </trkpt>
      <trkpt lat="39.75932" lon="-1.24833">
        <ele>864.184161</ele>
        <time>2022-02-23T09:58:06.416Z</time>
      </trkpt>
      <trkpt lat="39.75879" lon="-1.24808">
        <ele>863.489215</ele>
        <time>2022-02-23T09:58:18.763Z</time>
      </trkpt>
      <trkpt lat="39.7581" lon="-1.24785">
        <ele>862.666816</ele>
        <time>2022-02-23T09:58:34.763Z</time>
      </trkpt>
      <trkpt lat="39.75693" lon="-1.24729">
        <ele>861.927358</ele>
        <time>2022-02-23T09:59:03.642Z</time>
      </trkpt>
      <trkpt lat="39.75633" lon="-1.24692">
        <ele>861.553095</ele>
        <time>2022-02-23T09:59:19.435Z</time>
      </trkpt>
      <trkpt lat="39.75559" lon="-1.24658">
        <ele>861.178814</ele>
        <time>2022-02-23T09:59:37.958Z</time>
      </trkpt>
      <trkpt lat="39.75441" lon="-1.24554">
        <ele>860.374129</ele>
        <time>2022-02-23T10:00:11.091Z</time>
      </trkpt>
      <trkpt lat="39.7532" lon="-1.24478">
        <ele>859.459082</ele>
        <time>2022-02-23T10:00:41.648Z</time>
      </trkpt>
      <trkpt lat="39.75197" lon="-1.24392">
        <ele>858.608563</ele>
        <time>2022-02-23T10:01:13.936Z</time>
      </trkpt>
      <trkpt lat="39.75077" lon="-1.24348">
        <ele>858.14508</ele>
        <time>2022-02-23T10:01:43.688Z</time>
      </trkpt>
      <trkpt lat="39.74982" lon="-1.24321">
        <ele>857.800715</ele>
        <time>2022-02-23T10:02:06.899Z</time>
      </trkpt>
      <trkpt lat="39.74922" lon="-1.24297">
        <ele>857.448192</ele>
        <time>2022-02-23T10:02:21.690Z</time>
      </trkpt>
      <trkpt lat="39.7479" lon="-1.24227">
        <ele>856.668409</ele>
        <time>2022-02-23T10:02:54.163Z</time>
      </trkpt>
      <trkpt lat="39.74758" lon="-1.24205">
        <ele>856.476973</ele>
        <time>2022-02-23T10:03:02.491Z</time>
      </trkpt>
      <trkpt lat="39.74657" lon="-1.24111">
        <ele>855.92503</ele>
        <time>2022-02-23T10:03:31.994Z</time>
      </trkpt>
      <trkpt lat="39.74439" lon="-1.23925">
        <ele>855.310075</ele>
        <time>2022-02-23T10:04:36.096Z</time>
      </trkpt>
      <trkpt lat="39.74394" lon="-1.23896">
        <ele>855.070973</ele>
        <time>2022-02-23T10:04:47.605Z</time>
      </trkpt>
      <trkpt lat="39.74166" lon="-1.23696">
        <ele>852.585401</ele>
        <time>2022-02-23T10:05:46.843Z</time>
      </trkpt>
      <trkpt lat="39.74092" lon="-1.23583">
        <ele>852.905001</ele>
        <time>2022-02-23T10:06:20.337Z</time>
      </trkpt>
      <trkpt lat="39.73985" lon="-1.23445">
        <ele>856.353063</ele>
        <time>2022-02-23T10:07:13.786Z</time>
      </trkpt>
      <trkpt lat="39.73869" lon="-1.23359">
        <ele>858.611084</ele>
        <time>2022-02-23T10:07:56.900Z</time>
      </trkpt>
      <trkpt lat="39.73854" lon="-1.23382">
        <ele>858.962967</ele>
        <time>2022-02-23T10:08:01.701Z</time>
      </trkpt>
      <trkpt lat="39.73796" lon="-1.23427">
        <ele>859.956639</ele>
        <time>2022-02-23T10:08:20.531Z</time>
      </trkpt>
      <trkpt lat="39.73793" lon="-1.23453">
        <ele>860.225337</ele>
        <time>2022-02-23T10:08:27.387Z</time>
      </trkpt>
      <trkpt lat="39.73803" lon="-1.23491">
        <ele>860.620445</ele>
        <time>2022-02-23T10:08:35.214Z</time>
      </trkpt>
      <trkpt lat="39.73805" lon="-1.23528">
        <ele>860.988337</ele>
        <time>2022-02-23T10:08:41.574Z</time>
      </trkpt>
      <trkpt lat="39.73797" lon="-1.2354">
        <ele>861.147844</ele>
        <time>2022-02-23T10:08:46.702Z</time>
      </trkpt>
      <trkpt lat="39.73714" lon="-1.23605">
        <ele>862.446436</ele>
        <time>2022-02-23T10:09:14.933Z</time>
      </trkpt>
      <trkpt lat="39.73699" lon="-1.23615">
        <ele>862.686276</ele>
        <time>2022-02-23T10:09:21.260Z</time>
      </trkpt>
      <trkpt lat="39.73653" lon="-1.23628">
        <ele>863.378847</ele>
        <time>2022-02-23T10:09:37.249Z</time>
      </trkpt>
      <trkpt lat="39.73567" lon="-1.23676">
        <ele>864.611168</ele>
        <time>2022-02-23T10:10:03.396Z</time>
      </trkpt>
      <trkpt lat="39.73487" lon="-1.23739">
        <ele>863.916605</ele>
        <time>2022-02-23T10:10:23.676Z</time>
      </trkpt>
      <trkpt lat="39.73468" lon="-1.23771">
        <ele>863.684914</ele>
        <time>2022-02-23T10:10:29.394Z</time>
      </trkpt>
      <trkpt lat="39.73418" lon="-1.23878">
        <ele>862.60812</ele>
        <time>2022-02-23T10:10:47.291Z</time>
      </trkpt>
      <trkpt lat="39.73407" lon="-1.2389">
        <ele>862.398406</ele>
        <time>2022-02-23T10:10:50.142Z</time>
      </trkpt>
      <trkpt lat="39.73384" lon="-1.23897">
        <ele>862.040597</ele>
        <time>2022-02-23T10:10:54.589Z</time>
      </trkpt>
      <trkpt lat="39.73382" lon="-1.239">
        <ele>861.992907</ele>
        <time>2022-02-23T10:10:55.325Z</time>
      </trkpt>
      <trkpt lat="39.7337" lon="-1.23903">
        <ele>861.814582</ele>
        <time>2022-02-23T10:10:58.073Z</time>
      </trkpt>
      <trkpt lat="39.73366" lon="-1.23897">
        <ele>861.722084</ele>
        <time>2022-02-23T10:10:59.463Z</time>
      </trkpt>
      <trkpt lat="39.73345" lon="-1.23912">
        <ele>861.359013</ele>
        <time>2022-02-23T10:11:04.273Z</time>
      </trkpt>
      <trkpt lat="39.73217" lon="-1.23968">
        <ele>859.001078</ele>
        <time>2022-02-23T10:11:29.431Z</time>
      </trkpt>
      <trkpt lat="39.73191" lon="-1.24013">
        <ele>858.16675</ele>
        <time>2022-02-23T10:11:37.600Z</time>
      </trkpt>
      <trkpt lat="39.73113" lon="-1.24096">
        <ele>856.599259</ele>
        <time>2022-02-23T10:11:55.583Z</time>
      </trkpt>
      <trkpt lat="39.73086" lon="-1.24109">
        <ele>856.251745</ele>
        <time>2022-02-23T10:12:00.613Z</time>
      </trkpt>
      <trkpt lat="39.73008" lon="-1.24116">
        <ele>855.304511</ele>
        <time>2022-02-23T10:12:16.361Z</time>
      </trkpt>
      <trkpt lat="39.72979" lon="-1.24111">
        <ele>855.119261</ele>
        <time>2022-02-23T10:12:23.341Z</time>
      </trkpt>
      <trkpt lat="39.72886" lon="-1.24067">
        <ele>856.612223</ele>
        <time>2022-02-23T10:12:52.199Z</time>
      </trkpt>
      <trkpt lat="39.72774" lon="-1.24026">
        <ele>858.002015</ele>
        <time>2022-02-23T10:13:32.099Z</time>
      </trkpt>
      <trkpt lat="39.72738" lon="-1.23996">
        <ele>858.254977</ele>
        <time>2022-02-23T10:13:44.856Z</time>
      </trkpt>
      <trkpt lat="39.7267" lon="-1.23914">
        <ele>858.804294</ele>
        <time>2022-02-23T10:14:05.066Z</time>
      </trkpt>
      <trkpt lat="39.72642" lon="-1.23895">
        <ele>857.895013</ele>
        <time>2022-02-23T10:14:11.012Z</time>
      </trkpt>
      <trkpt lat="39.72579" lon="-1.23967">
        <ele>855.228791</ele>
        <time>2022-02-23T10:14:25.201Z</time>
      </trkpt>
      <trkpt lat="39.72563" lon="-1.2398">
        <ele>854.609903</ele>
        <time>2022-02-23T10:14:28.375Z</time>
      </trkpt>
      <trkpt lat="39.72541" lon="-1.23995">
        <ele>853.832795</ele>
        <time>2022-02-23T10:14:32.310Z</time>
      </trkpt>
      <trkpt lat="39.72443" lon="-1.2403">
        <ele>850.524993</ele>
        <time>2022-02-23T10:14:48.984Z</time>
      </trkpt>
      <trkpt lat="39.72418" lon="-1.24031">
        <ele>849.724823</ele>
        <time>2022-02-23T10:14:53.161Z</time>
      </trkpt>
      <trkpt lat="39.72396" lon="-1.24023">
        <ele>848.966678</ele>
        <time>2022-02-23T10:14:57.216Z</time>
      </trkpt>
      <trkpt lat="39.72348" lon="-1.23995">
        <ele>847.26873</ele>
        <time>2022-02-23T10:15:06.546Z</time>
      </trkpt>
      <trkpt lat="39.72241" lon="-1.23974">
        <ele>845.70181</ele>
        <time>2022-02-23T10:15:26.717Z</time>
      </trkpt>
      <trkpt lat="39.72193" lon="-1.24106">
        <ele>844.252168</ele>
        <time>2022-02-23T10:15:52.312Z</time>
      </trkpt>
      <trkpt lat="39.72185" lon="-1.24152">
        <ele>843.876698</ele>
        <time>2022-02-23T10:16:00.215Z</time>
      </trkpt>
      <trkpt lat="39.72154" lon="-1.24213">
        <ele>843.295244</ele>
        <time>2022-02-23T10:16:12.511Z</time>
      </trkpt>
      <trkpt lat="39.7214" lon="-1.24209">
        <ele>843.141862</ele>
        <time>2022-02-23T10:16:15.627Z</time>
      </trkpt>
      <trkpt lat="39.72095" lon="-1.24171">
        <ele>842.578832</ele>
        <time>2022-02-23T10:16:27.838Z</time>
      </trkpt>
      <trkpt lat="39.72081" lon="-1.24161">
        <ele>842.408862</ele>
        <time>2022-02-23T10:16:31.354Z</time>
      </trkpt>
      <trkpt lat="39.71831" lon="-1.24083">
        <ele>840.103919</ele>
        <time>2022-02-23T10:17:28.301Z</time>
      </trkpt>
      <trkpt lat="39.71567" lon="-1.24089">
        <ele>839.454715</ele>
        <time>2022-02-23T10:18:32.602Z</time>
      </trkpt>
      <trkpt lat="39.71553" lon="-1.2408">
        <ele>839.462166</ele>
        <time>2022-02-23T10:18:36.647Z</time>
      </trkpt>
      <trkpt lat="39.71491" lon="-1.2401">
        <ele>839.50085</ele>
        <time>2022-02-23T10:18:57.427Z</time>
      </trkpt>
      <trkpt lat="39.71465" lon="-1.23999">
        <ele>839.513401</ele>
        <time>2022-02-23T10:19:04.192Z</time>
      </trkpt>
      <trkpt lat="39.71357" lon="-1.24015">
        <ele>839.222129</ele>
        <time>2022-02-23T10:19:31.334Z</time>
      </trkpt>
      <trkpt lat="39.71241" lon="-1.23961">
        <ele>838.581244</ele>
        <time>2022-02-23T10:19:59.458Z</time>
      </trkpt>
      <trkpt lat="39.71183" lon="-1.23924">
        <ele>837.836961</ele>
        <time>2022-02-23T10:20:13.689Z</time>
      </trkpt>
      <trkpt lat="39.71142" lon="-1.23891">
        <ele>837.274462</ele>
        <time>2022-02-23T10:20:24.289Z</time>
      </trkpt>
      <trkpt lat="39.71096" lon="-1.23883">
        <ele>836.738915</ele>
        <time>2022-02-23T10:20:34.175Z</time>
      </trkpt>
      <trkpt lat="39.71007" lon="-1.2389">
        <ele>835.836326</ele>
        <time>2022-02-23T10:20:53.661Z</time>
      </trkpt>
      <trkpt lat="39.70978" lon="-1.23905">
        <ele>835.524608</ele>
        <time>2022-02-23T10:21:00.670Z</time>
      </trkpt>
      <trkpt lat="39.70893" lon="-1.24039">
        <ele>834.522407</ele>
        <time>2022-02-23T10:21:31.312Z</time>
      </trkpt>
      <trkpt lat="39.70878" lon="-1.2409">
        <ele>834.31211</ele>
        <time>2022-02-23T10:21:41.296Z</time>
      </trkpt>
      <trkpt lat="39.70855" lon="-1.24278">
        <ele>833.521627</ele>
        <time>2022-02-23T10:22:15.869Z</time>
      </trkpt>
      <trkpt lat="39.70835" lon="-1.24369">
        <ele>833.100295</ele>
        <time>2022-02-23T10:22:32.683Z</time>
      </trkpt>
      <trkpt lat="39.7081" lon="-1.2442">
        <ele>832.803344</ele>
        <time>2022-02-23T10:22:43.326Z</time>
      </trkpt>
      <trkpt lat="39.70773" lon="-1.24461">
        <ele>832.443171</ele>
        <time>2022-02-23T10:22:54.228Z</time>
      </trkpt>
      <trkpt lat="39.70731" lon="-1.24486">
        <ele>832.09457</ele>
        <time>2022-02-23T10:23:04.810Z</time>
      </trkpt>
      <trkpt lat="39.70589" lon="-1.24528">
        <ele>831.15534</ele>
        <time>2022-02-23T10:23:38.463Z</time>
      </trkpt>
      <trkpt lat="39.70492" lon="-1.24584">
        <ele>830.582755</ele>
        <time>2022-02-23T10:24:03.079Z</time>
      </trkpt>
      <trkpt lat="39.70434" lon="-1.24625">
        <ele>830.46636</ele>
        <time>2022-02-23T10:24:18.532Z</time>
      </trkpt>
      <trkpt lat="39.70397" lon="-1.24634">
        <ele>830.401405</ele>
        <time>2022-02-23T10:24:27.579Z</time>
      </trkpt>
      <trkpt lat="39.70329" lon="-1.2464">
        <ele>830.281768</ele>
        <time>2022-02-23T10:24:44.805Z</time>
      </trkpt>
      <trkpt lat="39.70299" lon="-1.24648">
        <ele>830.349616</ele>
        <time>2022-02-23T10:24:52.666Z</time>
      </trkpt>
      <trkpt lat="39.70261" lon="-1.24674">
        <ele>830.484805</ele>
        <time>2022-02-23T10:25:04.370Z</time>
      </trkpt>
      <trkpt lat="39.70232" lon="-1.24684">
        <ele>830.579046</ele>
        <time>2022-02-23T10:25:12.385Z</time>
      </trkpt>
      <trkpt lat="39.70134" lon="-1.24687">
        <ele>830.770909</ele>
        <time>2022-02-23T10:25:38.474Z</time>
      </trkpt>
      <trkpt lat="39.70052" lon="-1.24711">
        <ele>830.436889</ele>
        <time>2022-02-23T10:25:58.685Z</time>
      </trkpt>
      <trkpt lat="39.70031" lon="-1.24702">
        <ele>830.348646</ele>
        <time>2022-02-23T10:26:03.659Z</time>
      </trkpt>
      <trkpt lat="39.70013" lon="-1.24688">
        <ele>830.263813</ele>
        <time>2022-02-23T10:26:08.548Z</time>
      </trkpt>
      <trkpt lat="39.69969" lon="-1.24635">
        <ele>829.868544</ele>
        <time>2022-02-23T10:26:22.180Z</time>
      </trkpt>
      <trkpt lat="39.69956" lon="-1.24631">
        <ele>829.731698</ele>
        <time>2022-02-23T10:26:25.075Z</time>
      </trkpt>
      <trkpt lat="39.6993" lon="-1.2464">
        <ele>829.450231</ele>
        <time>2022-02-23T10:26:30.968Z</time>
      </trkpt>
      <trkpt lat="39.6991" lon="-1.24662">
        <ele>829.174126</ele>
        <time>2022-02-23T10:26:36.637Z</time>
      </trkpt>
      <trkpt lat="39.69901" lon="-1.24691">
        <ele>828.918746</ele>
        <time>2022-02-23T10:26:42.054Z</time>
      </trkpt>
      <trkpt lat="39.69911" lon="-1.24754">
        <ele>828.40147</ele>
        <time>2022-02-23T10:26:52.951Z</time>
      </trkpt>
      <trkpt lat="39.6991" lon="-1.24777">
        <ele>828.215481</ele>
        <time>2022-02-23T10:26:56.976Z</time>
      </trkpt>
      <trkpt lat="39.69899" lon="-1.24794">
        <ele>828.066888</ele>
        <time>2022-02-23T10:27:00.663Z</time>
      </trkpt>
      <trkpt lat="39.69855" lon="-1.24842">
        <ele>827.55886</ele>
        <time>2022-02-23T10:27:13.684Z</time>
      </trkpt>
      <trkpt lat="39.69831" lon="-1.24908">
        <ele>827.067599</ele>
        <time>2022-02-23T10:27:26.309Z</time>
      </trkpt>
      <trkpt lat="39.69816" lon="-1.24935">
        <ele>826.836843</ele>
        <time>2022-02-23T10:27:32.236Z</time>
      </trkpt>
      <trkpt lat="39.69757" lon="-1.24972">
        <ele>826.323236</ele>
        <time>2022-02-23T10:27:47.207Z</time>
      </trkpt>
      <trkpt lat="39.69708" lon="-1.25016">
        <ele>825.887957</ele>
        <time>2022-02-23T10:28:00.749Z</time>
      </trkpt>
      <trkpt lat="39.69635" lon="-1.25055">
        <ele>825.305717</ele>
        <time>2022-02-23T10:28:18.784Z</time>
      </trkpt>
      <trkpt lat="39.69565" lon="-1.25139">
        <ele>824.631358</ele>
        <time>2022-02-23T10:28:40.427Z</time>
      </trkpt>
      <trkpt lat="39.69442" lon="-1.25241">
        <ele>823.878814</ele>
        <time>2022-02-23T10:29:14.028Z</time>
      </trkpt>
      <trkpt lat="39.69372" lon="-1.25282">
        <ele>823.6742</ele>
        <time>2022-02-23T10:29:32.725Z</time>
      </trkpt>
      <trkpt lat="39.69363" lon="-1.25292">
        <ele>823.642219</ele>
        <time>2022-02-23T10:29:35.632Z</time>
      </trkpt>
      <trkpt lat="39.69348" lon="-1.25324">
        <ele>823.565927</ele>
        <time>2022-02-23T10:29:42.802Z</time>
      </trkpt>
      <trkpt lat="39.69312" lon="-1.25364">
        <ele>823.480775</ele>
        <time>2022-02-23T10:29:54.722Z</time>
      </trkpt>
      <trkpt lat="39.69267" lon="-1.25387">
        <ele>823.395957</ele>
        <time>2022-02-23T10:30:06.658Z</time>
      </trkpt>
      <trkpt lat="39.6903" lon="-1.25381">
        <ele>822.41797</ele>
        <time>2022-02-23T10:31:02.630Z</time>
      </trkpt>
      <trkpt lat="39.68935" lon="-1.25338">
        <ele>821.586945</ele>
        <time>2022-02-23T10:31:25.067Z</time>
      </trkpt>
      <trkpt lat="39.68866" lon="-1.25323">
        <ele>820.945678</ele>
        <time>2022-02-23T10:31:40.526Z</time>
      </trkpt>
      <trkpt lat="39.68822" lon="-1.25329">
        <ele>820.573018</ele>
        <time>2022-02-23T10:31:50.477Z</time>
      </trkpt>
      <trkpt lat="39.68608" lon="-1.25462">
        <ele>819.446008</ele>
        <time>2022-02-23T10:32:46.349Z</time>
      </trkpt>
      <trkpt lat="39.68549" lon="-1.25509">
        <ele>819.195298</ele>
        <time>2022-02-23T10:33:03.140Z</time>
      </trkpt>
      <trkpt lat="39.68508" lon="-1.25553">
        <ele>818.984025</ele>
        <time>2022-02-23T10:33:15.528Z</time>
      </trkpt>
      <trkpt lat="39.68435" lon="-1.25596">
        <ele>818.504382</ele>
        <time>2022-02-23T10:33:34.065Z</time>
      </trkpt>
      <trkpt lat="39.68372" lon="-1.25656">
        <ele>818.033443</ele>
        <time>2022-02-23T10:33:52.121Z</time>
      </trkpt>
      <trkpt lat="39.6829" lon="-1.258">
        <ele>817.318283</ele>
        <time>2022-02-23T10:34:24.034Z</time>
      </trkpt>
      <trkpt lat="39.68257" lon="-1.25837">
        <ele>817.099272</ele>
        <time>2022-02-23T10:34:34.166Z</time>
      </trkpt>
      <trkpt lat="39.68218" lon="-1.25908">
        <ele>816.951425</ele>
        <time>2022-02-23T10:34:50.394Z</time>
      </trkpt>
      <trkpt lat="39.68173" lon="-1.25958">
        <ele>816.85744</ele>
        <time>2022-02-23T10:35:04.788Z</time>
      </trkpt>
      <trkpt lat="39.68169" lon="-1.25972">
        <ele>816.838667</ele>
        <time>2022-02-23T10:35:07.660Z</time>
      </trkpt>
      <trkpt lat="39.68177" lon="-1.26008">
        <ele>816.792211</ele>
        <time>2022-02-23T10:35:14.824Z</time>
      </trkpt>
      <trkpt lat="39.68174" lon="-1.26023">
        <ele>816.77285</ele>
        <time>2022-02-23T10:35:17.802Z</time>
      </trkpt>
      <trkpt lat="39.68157" lon="-1.26038">
        <ele>816.73898</ele>
        <time>2022-02-23T10:35:22.888Z</time>
      </trkpt>
      <trkpt lat="39.68134" lon="-1.2604">
        <ele>816.701058</ele>
        <time>2022-02-23T10:35:28.401Z</time>
      </trkpt>
      <trkpt lat="39.68076" lon="-1.26136">
        <ele>816.54268</ele>
        <time>2022-02-23T10:35:51.366Z</time>
      </trkpt>
      <trkpt lat="39.67993" lon="-1.26242">
        <ele>816.267636</ele>
        <time>2022-02-23T10:36:19.248Z</time>
      </trkpt>
      <trkpt lat="39.67952" lon="-1.26268">
        <ele>816.132858</ele>
        <time>2022-02-23T10:36:30.077Z</time>
      </trkpt>
      <trkpt lat="39.67802" lon="-1.26338">
        <ele>815.538854</ele>
        <time>2022-02-23T10:37:08.304Z</time>
      </trkpt>
      <trkpt lat="39.67756" lon="-1.26365">
        <ele>815.319599</ele>
        <time>2022-02-23T10:37:20.154Z</time>
      </trkpt>
      <trkpt lat="39.67703" lon="-1.26381">
        <ele>814.999474</ele>
        <time>2022-02-23T10:37:32.728Z</time>
      </trkpt>
      <trkpt lat="39.67619" lon="-1.26369">
        <ele>814.100656</ele>
        <time>2022-02-23T10:37:51.535Z</time>
      </trkpt>
      <trkpt lat="39.67504" lon="-1.26294">
        <ele>812.817489</ele>
        <time>2022-02-23T10:38:19.523Z</time>
      </trkpt>
      <trkpt lat="39.67476" lon="-1.26295">
        <ele>812.575041</ele>
        <time>2022-02-23T10:38:25.526Z</time>
      </trkpt>
      <trkpt lat="39.67419" lon="-1.26311">
        <ele>812.061241</ele>
        <time>2022-02-23T10:38:38.534Z</time>
      </trkpt>
      <trkpt lat="39.67393" lon="-1.26305">
        <ele>811.828366</ele>
        <time>2022-02-23T10:38:44.692Z</time>
      </trkpt>
      <trkpt lat="39.67365" lon="-1.26311">
        <ele>811.695883</ele>
        <time>2022-02-23T10:38:51.426Z</time>
      </trkpt>
      <trkpt lat="39.67333" lon="-1.26328">
        <ele>811.950191</ele>
        <time>2022-02-23T10:39:00.339Z</time>
      </trkpt>
      <trkpt lat="39.67289" lon="-1.26367">
        <ele>812.338062</ele>
        <time>2022-02-23T10:39:15.351Z</time>
      </trkpt>
      <trkpt lat="39.67145" lon="-1.26424">
        <ele>813.333089</ele>
        <time>2022-02-23T10:40:02.015Z</time>
      </trkpt>
      <trkpt lat="39.67024" lon="-1.2649">
        <ele>813.809783</ele>
        <time>2022-02-23T10:40:36.963Z</time>
      </trkpt>
      <trkpt lat="39.67015" lon="-1.26495">
        <ele>813.716647</ele>
        <time>2022-02-23T10:40:39.242Z</time>
      </trkpt>
      <trkpt lat="39.66992" lon="-1.26435">
        <ele>813.199418</ele>
        <time>2022-02-23T10:40:49.540Z</time>
      </trkpt>
      <trkpt lat="39.6696" lon="-1.26353">
        <ele>812.478099</ele>
        <time>2022-02-23T10:41:03.462Z</time>
      </trkpt>
      <trkpt lat="39.66928" lon="-1.26365">
        <ele>812.183209</ele>
        <time>2022-02-23T10:41:10.119Z</time>
      </trkpt>
      <trkpt lat="39.66902" lon="-1.26307">
        <ele>812.563034</ele>
        <time>2022-02-23T10:41:20.913Z</time>
      </trkpt>
      <trkpt lat="39.66898" lon="-1.26299">
        <ele>812.616683</ele>
        <time>2022-02-23T10:41:22.576Z</time>
      </trkpt>
      <trkpt lat="39.66878" lon="-1.26247">
        <ele>812.945295</ele>
        <time>2022-02-23T10:41:34.880Z</time>
      </trkpt>
      <trkpt lat="39.66866" lon="-1.26191">
        <ele>813.274903</ele>
        <time>2022-02-23T10:41:48.493Z</time>
      </trkpt>
      <trkpt lat="39.66865" lon="-1.26186">
        <ele>813.309527</ele>
        <time>2022-02-23T10:41:49.820Z</time>
      </trkpt>
      <trkpt lat="39.66864" lon="-1.26079">
        <ele>813.969653</ele>
        <time>2022-02-23T10:42:16.508Z</time>
      </trkpt>
      <trkpt lat="39.66862" lon="-1.26027">
        <ele>814.310758</ele>
        <time>2022-02-23T10:42:30.131Z</time>
      </trkpt>
      <trkpt lat="39.66327" lon="-1.26202">
        <ele>811.95361</ele>
        <time>2022-02-23T10:44:24.226Z</time>
      </trkpt>
      <trkpt lat="39.66262" lon="-1.26244">
        <ele>811.353628</ele>
        <time>2022-02-23T10:44:38.363Z</time>
      </trkpt>
      <trkpt lat="39.6612" lon="-1.26369">
        <ele>809.834841</ele>
        <time>2022-02-23T10:45:12.325Z</time>
      </trkpt>
      <trkpt lat="39.66092" lon="-1.26388">
        <ele>809.908606</ele>
        <time>2022-02-23T10:45:19.129Z</time>
      </trkpt>
      <trkpt lat="39.65566" lon="-1.26707">
        <ele>812.053002</ele>
        <time>2022-02-23T10:47:47.225Z</time>
      </trkpt>
      <trkpt lat="39.65273" lon="-1.26807">
        <ele>807.263923</ele>
        <time>2022-02-23T10:48:42.624Z</time>
      </trkpt>
      <trkpt lat="39.64992" lon="-1.26813">
        <ele>803.316354</ele>
        <time>2022-02-23T10:49:36.630Z</time>
      </trkpt>
      <trkpt lat="39.64575" lon="-1.26742">
        <ele>798.650314</ele>
        <time>2022-02-23T10:50:59.253Z</time>
      </trkpt>
      <trkpt lat="39.64482" lon="-1.26757">
        <ele>798.006183</ele>
        <time>2022-02-23T10:51:18.781Z</time>
      </trkpt>
      <trkpt lat="39.64236" lon="-1.26801">
        <ele>795.692956</ele>
        <time>2022-02-23T10:52:10.053Z</time>
      </trkpt>
      <trkpt lat="39.64182" lon="-1.26794">
        <ele>794.673963</ele>
        <time>2022-02-23T10:52:19.564Z</time>
      </trkpt>
      <trkpt lat="39.64071" lon="-1.26894">
        <ele>791.191663</ele>
        <time>2022-02-23T10:52:42.733Z</time>
      </trkpt>
      <trkpt lat="39.64055" lon="-1.26907">
        <ele>790.74979</ele>
        <time>2022-02-23T10:52:46.019Z</time>
      </trkpt>
      <trkpt lat="39.63821" lon="-1.27108">
        <ele>790.32159</ele>
        <time>2022-02-23T10:53:45.721Z</time>
      </trkpt>
      <trkpt lat="39.63646" lon="-1.27235">
        <ele>793.848964</ele>
        <time>2022-02-23T10:54:53.748Z</time>
      </trkpt>
      <trkpt lat="39.63613" lon="-1.27265">
        <ele>794.810221</ele>
        <time>2022-02-23T10:55:07.860Z</time>
      </trkpt>
      <trkpt lat="39.63605" lon="-1.27273">
        <ele>795.046087</ele>
        <time>2022-02-23T10:55:11.142Z</time>
      </trkpt>
      <trkpt lat="39.63286" lon="-1.27605">
        <ele>803.565634</ele>
        <time>2022-02-23T10:57:25.808Z</time>
      </trkpt>
      <trkpt lat="39.63054" lon="-1.27808">
        <ele>807.588381</ele>
        <time>2022-02-23T10:58:48.771Z</time>
      </trkpt>
      <trkpt lat="39.62667" lon="-1.28054">
        <ele>809.563082</ele>
        <time>2022-02-23T11:00:31.955Z</time>
      </trkpt>
      <trkpt lat="39.62621" lon="-1.28051">
        <ele>809.800592</ele>
        <time>2022-02-23T11:00:43.803Z</time>
      </trkpt>
      <trkpt lat="39.62425" lon="-1.2806">
        <ele>810.813821</ele>
        <time>2022-02-23T11:01:35.414Z</time>
      </trkpt>
      <trkpt lat="39.624" lon="-1.28061">
        <ele>810.948319</ele>
        <time>2022-02-23T11:01:42.046Z</time>
      </trkpt>
      <trkpt lat="39.62372" lon="-1.28061">
        <ele>811.09271</ele>
        <time>2022-02-23T11:01:49.072Z</time>
      </trkpt>
      <trkpt lat="39.62305" lon="-1.28061">
        <ele>810.789502</ele>
        <time>2022-02-23T11:02:06.085Z</time>
      </trkpt>
      <trkpt lat="39.62299" lon="-1.28062">
        <ele>810.720176</ele>
        <time>2022-02-23T11:02:07.530Z</time>
      </trkpt>
      <trkpt lat="39.62206" lon="-1.28081">
        <ele>809.563993</ele>
        <time>2022-02-23T11:02:27.484Z</time>
      </trkpt>
      <trkpt lat="39.62156" lon="-1.28053">
        <ele>808.51047</ele>
        <time>2022-02-23T11:02:37.382Z</time>
      </trkpt>
      <trkpt lat="39.62128" lon="-1.2807">
        <ele>807.12533</ele>
        <time>2022-02-23T11:02:42.616Z</time>
      </trkpt>
      <trkpt lat="39.62107" lon="-1.28081">
        <ele>806.131144</ele>
        <time>2022-02-23T11:02:46.272Z</time>
      </trkpt>
      <trkpt lat="39.62086" lon="-1.28092">
        <ele>805.103366</ele>
        <time>2022-02-23T11:02:50.097Z</time>
      </trkpt>
      <trkpt lat="39.62074" lon="-1.28147">
        <ele>803.145171</ele>
        <time>2022-02-23T11:02:57.399Z</time>
      </trkpt>
      <trkpt lat="39.62052" lon="-1.28166">
        <ele>801.943389</ele>
        <time>2022-02-23T11:03:01.887Z</time>
      </trkpt>
      <trkpt lat="39.62042" lon="-1.28175">
        <ele>801.413882</ele>
        <time>2022-02-23T11:03:03.857Z</time>
      </trkpt>
      <trkpt lat="39.62035" lon="-1.28233">
        <ele>800.122593</ele>
        <time>2022-02-23T11:03:11.394Z</time>
      </trkpt>
      <trkpt lat="39.61973" lon="-1.28334">
        <ele>797.736962</ele>
        <time>2022-02-23T11:03:29.608Z</time>
      </trkpt>
      <trkpt lat="39.61968" lon="-1.28329">
        <ele>797.581155</ele>
        <time>2022-02-23T11:03:30.924Z</time>
      </trkpt>
      <trkpt lat="39.61922" lon="-1.28282">
        <ele>796.763436</ele>
        <time>2022-02-23T11:03:45.290Z</time>
      </trkpt>
      <trkpt lat="39.61796" lon="-1.28155">
        <ele>797.627644</ele>
        <time>2022-02-23T11:04:27.173Z</time>
      </trkpt>
      <trkpt lat="39.61749" lon="-1.28124">
        <ele>797.365716</ele>
        <time>2022-02-23T11:04:39.682Z</time>
      </trkpt>
      <trkpt lat="39.61142" lon="-1.27773">
        <ele>793.497724</ele>
        <time>2022-02-23T11:06:56.918Z</time>
      </trkpt>
      <trkpt lat="39.60763" lon="-1.27553">
        <ele>786.914987</ele>
        <time>2022-02-23T11:08:13.580Z</time>
      </trkpt>
      <trkpt lat="39.60107" lon="-1.27173">
        <ele>786.293176</ele>
        <time>2022-02-23T11:10:56.267Z</time>
      </trkpt>
      <trkpt lat="39.59814" lon="-1.27003">
        <ele>785.378472</ele>
        <time>2022-02-23T11:12:03.961Z</time>
      </trkpt>
      <trkpt lat="39.59725" lon="-1.26952">
        <ele>786.01579</ele>
        <time>2022-02-23T11:12:27.422Z</time>
      </trkpt>
      <trkpt lat="39.59714" lon="-1.26946">
        <ele>786.087708</ele>
        <time>2022-02-23T11:12:30.544Z</time>
      </trkpt>
      <trkpt lat="39.59707" lon="-1.26942">
        <ele>786.13991</ele>
        <time>2022-02-23T11:12:32.701Z</time>
      </trkpt>
      <trkpt lat="39.59688" lon="-1.26956">
        <ele>786.284765</ele>
        <time>2022-02-23T11:12:39.928Z</time>
      </trkpt>
      <trkpt lat="39.59624" lon="-1.26982">
        <ele>786.555798</ele>
        <time>2022-02-23T11:12:59.429Z</time>
      </trkpt>
      <trkpt lat="39.59586" lon="-1.27008">
        <ele>786.654747</ele>
        <time>2022-02-23T11:13:10.948Z</time>
      </trkpt>
      <trkpt lat="39.59578" lon="-1.27013">
        <ele>786.675912</ele>
        <time>2022-02-23T11:13:12.953Z</time>
      </trkpt>
      <trkpt lat="39.59554" lon="-1.27032">
        <ele>786.738951</ele>
        <time>2022-02-23T11:13:20.117Z</time>
      </trkpt>
      <trkpt lat="39.59525" lon="-1.27049">
        <ele>786.813119</ele>
        <time>2022-02-23T11:13:27.030Z</time>
      </trkpt>
      <trkpt lat="39.59519" lon="-1.27049">
        <ele>786.826676</ele>
        <time>2022-02-23T11:13:28.239Z</time>
      </trkpt>
      <trkpt lat="39.59492" lon="-1.27064">
        <ele>786.739603</ele>
        <time>2022-02-23T11:13:33.994Z</time>
      </trkpt>
      <trkpt lat="39.59405" lon="-1.27146">
        <ele>784.508573</ele>
        <time>2022-02-23T11:13:53.536Z</time>
      </trkpt>
      <trkpt lat="39.59394" lon="-1.27156">
        <ele>784.228214</ele>
        <time>2022-02-23T11:13:55.916Z</time>
      </trkpt>
      <trkpt lat="39.59378" lon="-1.27171">
        <ele>783.833717</ele>
        <time>2022-02-23T11:13:59.181Z</time>
      </trkpt>
      <trkpt lat="39.59337" lon="-1.27261">
        <ele>782.471783</ele>
        <time>2022-02-23T11:14:13.776Z</time>
      </trkpt>
      <trkpt lat="39.59319" lon="-1.27285">
        <ele>782.105366</ele>
        <time>2022-02-23T11:14:18.567Z</time>
      </trkpt>
      <trkpt lat="39.59171" lon="-1.27437">
        <ele>780.152294</ele>
        <time>2022-02-23T11:14:56.522Z</time>
      </trkpt>
      <trkpt lat="39.59157" lon="-1.27472">
        <ele>779.988284</ele>
        <time>2022-02-23T11:15:02.805Z</time>
      </trkpt>
      <trkpt lat="39.59149" lon="-1.27501">
        <ele>779.859443</ele>
        <time>2022-02-23T11:15:07.832Z</time>
      </trkpt>
      <trkpt lat="39.59132" lon="-1.27527">
        <ele>779.71877</ele>
        <time>2022-02-23T11:15:13.300Z</time>
      </trkpt>
      <trkpt lat="39.59049" lon="-1.27605">
        <ele>779.926478</ele>
        <time>2022-02-23T11:15:36.931Z</time>
      </trkpt>
      <trkpt lat="39.59019" lon="-1.27641">
        <ele>780.071111</ele>
        <time>2022-02-23T11:15:46.635Z</time>
      </trkpt>
      <trkpt lat="39.59007" lon="-1.27685">
        <ele>780.199549</ele>
        <time>2022-02-23T11:15:56.039Z</time>
      </trkpt>
      <trkpt lat="39.58998" lon="-1.27721">
        <ele>780.323153</ele>
        <time>2022-02-23T11:16:03.670Z</time>
      </trkpt>
      <trkpt lat="39.58993" lon="-1.27728">
        <ele>780.364024</ele>
        <time>2022-02-23T11:16:05.644Z</time>
      </trkpt>
      <trkpt lat="39.58969" lon="-1.27758">
        <ele>780.544417</ele>
        <time>2022-02-23T11:16:14.470Z</time>
      </trkpt>
      <trkpt lat="39.58959" lon="-1.27771">
        <ele>780.623301</ele>
        <time>2022-02-23T11:16:18.349Z</time>
      </trkpt>
      <trkpt lat="39.58942" lon="-1.27782">
        <ele>780.727606</ele>
        <time>2022-02-23T11:16:23.350Z</time>
      </trkpt>
      <trkpt lat="39.58933" lon="-1.27831">
        <ele>780.937783</ele>
        <time>2022-02-23T11:16:32.768Z</time>
      </trkpt>
      <trkpt lat="39.58886" lon="-1.27873">
        <ele>781.24558</ele>
        <time>2022-02-23T11:16:46.651Z</time>
      </trkpt>
      <trkpt lat="39.58863" lon="-1.27904">
        <ele>781.370708</ele>
        <time>2022-02-23T11:16:54.814Z</time>
      </trkpt>
      <trkpt lat="39.58863" lon="-1.27918">
        <ele>781.411092</ele>
        <time>2022-02-23T11:16:57.551Z</time>
      </trkpt>
      <trkpt lat="39.58826" lon="-1.27951">
        <ele>781.580372</ele>
        <time>2022-02-23T11:17:08.473Z</time>
      </trkpt>
      <trkpt lat="39.58801" lon="-1.27984">
        <ele>781.714384</ele>
        <time>2022-02-23T11:17:16.740Z</time>
      </trkpt>
      <trkpt lat="39.58741" lon="-1.28058">
        <ele>782.209683</ele>
        <time>2022-02-23T11:17:36.922Z</time>
      </trkpt>
      <trkpt lat="39.58721" lon="-1.28083">
        <ele>782.482154</ele>
        <time>2022-02-23T11:17:44.020Z</time>
      </trkpt>
      <trkpt lat="39.58462" lon="-1.28211">
        <ele>785.189085</ele>
        <time>2022-02-23T11:19:02.792Z</time>
      </trkpt>
      <trkpt lat="39.58386" lon="-1.28235">
        <ele>785.221905</ele>
        <time>2022-02-23T11:19:20.122Z</time>
      </trkpt>
      <trkpt lat="39.5837" lon="-1.2824">
        <ele>785.152354</ele>
        <time>2022-02-23T11:19:23.714Z</time>
      </trkpt>
      <trkpt lat="39.58341" lon="-1.28237">
        <ele>785.034578</ele>
        <time>2022-02-23T11:19:29.687Z</time>
      </trkpt>
      <trkpt lat="39.58274" lon="-1.28202">
        <ele>784.740899</ele>
        <time>2022-02-23T11:19:44.368Z</time>
      </trkpt>
      <trkpt lat="39.58203" lon="-1.28182">
        <ele>784.359472</ele>
        <time>2022-02-23T11:19:59.002Z</time>
      </trkpt>
      <trkpt lat="39.58186" lon="-1.28178">
        <ele>784.260536</ele>
        <time>2022-02-23T11:20:02.761Z</time>
      </trkpt>
      <trkpt lat="39.58126" lon="-1.2814">
        <ele>783.899229</ele>
        <time>2022-02-23T11:20:16.464Z</time>
      </trkpt>
      <trkpt lat="39.57993" lon="-1.28102">
        <ele>783.441507</ele>
        <time>2022-02-23T11:20:45.791Z</time>
      </trkpt>
      <trkpt lat="39.57926" lon="-1.28069">
        <ele>783.249011</ele>
        <time>2022-02-23T11:21:01.197Z</time>
      </trkpt>
      <trkpt lat="39.57797" lon="-1.2805">
        <ele>783.176335</ele>
        <time>2022-02-23T11:21:29.742Z</time>
      </trkpt>
      <trkpt lat="39.5776" lon="-1.28058">
        <ele>783.158179</ele>
        <time>2022-02-23T11:21:38.175Z</time>
      </trkpt>
      <trkpt lat="39.57686" lon="-1.28079">
        <ele>783.211775</ele>
        <time>2022-02-23T11:21:55.541Z</time>
      </trkpt>
      <trkpt lat="39.57654" lon="-1.28081">
        <ele>783.24583</ele>
        <time>2022-02-23T11:22:02.996Z</time>
      </trkpt>
      <trkpt lat="39.57529" lon="-1.28024">
        <ele>783.233477</ele>
        <time>2022-02-23T11:22:32.965Z</time>
      </trkpt>
      <trkpt lat="39.57318" lon="-1.27962">
        <ele>782.698706</ele>
        <time>2022-02-23T11:23:19.046Z</time>
      </trkpt>
      <trkpt lat="39.57128" lon="-1.2787">
        <ele>782.365605</ele>
        <time>2022-02-23T11:24:03.224Z</time>
      </trkpt>
      <trkpt lat="39.57062" lon="-1.27823">
        <ele>782.302051</ele>
        <time>2022-02-23T11:24:19.902Z</time>
      </trkpt>
      <trkpt lat="39.57001" lon="-1.27807">
        <ele>782.323044</ele>
        <time>2022-02-23T11:24:33.776Z</time>
      </trkpt>
      <trkpt lat="39.56947" lon="-1.27786">
        <ele>782.343788</ele>
        <time>2022-02-23T11:24:46.589Z</time>
      </trkpt>
      <trkpt lat="39.56883" lon="-1.27799">
        <ele>782.367354</ele>
        <time>2022-02-23T11:25:01.359Z</time>
      </trkpt>
      <trkpt lat="39.56778" lon="-1.2779">
        <ele>782.388787</ele>
        <time>2022-02-23T11:25:24.823Z</time>
      </trkpt>
      <trkpt lat="39.56713" lon="-1.27785">
        <ele>782.402228</ele>
        <time>2022-02-23T11:25:39.700Z</time>
      </trkpt>
      <trkpt lat="39.56602" lon="-1.27743">
        <ele>782.445846</ele>
        <time>2022-02-23T11:26:04.709Z</time>
      </trkpt>
      <trkpt lat="39.56498" lon="-1.27703">
        <ele>782.887887</ele>
        <time>2022-02-23T11:26:30.195Z</time>
      </trkpt>
      <trkpt lat="39.56472" lon="-1.27704">
        <ele>783.191885</ele>
        <time>2022-02-23T11:26:37.263Z</time>
      </trkpt>
      <trkpt lat="39.56438" lon="-1.27719">
        <ele>783.605643</ele>
        <time>2022-02-23T11:26:47.489Z</time>
      </trkpt>
      <trkpt lat="39.56294" lon="-1.27782">
        <ele>785.657613</ele>
        <time>2022-02-23T11:27:33.867Z</time>
      </trkpt>
      <trkpt lat="39.56242" lon="-1.27815">
        <ele>786.573803</ele>
        <time>2022-02-23T11:27:51.657Z</time>
      </trkpt>
      <trkpt lat="39.56222" lon="-1.27821">
        <ele>786.907544</ele>
        <time>2022-02-23T11:27:58.057Z</time>
      </trkpt>
      <trkpt lat="39.56182" lon="-1.27832">
        <ele>787.483778</ele>
        <time>2022-02-23T11:28:09.582Z</time>
      </trkpt>
      <trkpt lat="39.56167" lon="-1.27842">
        <ele>787.646172</ele>
        <time>2022-02-23T11:28:14.259Z</time>
      </trkpt>
      <trkpt lat="39.56156" lon="-1.27892">
        <ele>788.025176</ele>
        <time>2022-02-23T11:28:25.204Z</time>
      </trkpt>
      <trkpt lat="39.56149" lon="-1.27955">
        <ele>788.493192</ele>
        <time>2022-02-23T11:28:38.778Z</time>
      </trkpt>
      <trkpt lat="39.56144" lon="-1.28004">
        <ele>788.855432</ele>
        <time>2022-02-23T11:28:48.781Z</time>
      </trkpt>
      <trkpt lat="39.5614" lon="-1.28042">
        <ele>789.082896</ele>
        <time>2022-02-23T11:28:56.405Z</time>
      </trkpt>
      <trkpt lat="39.56139" lon="-1.2805">
        <ele>789.047425</ele>
        <time>2022-02-23T11:28:57.962Z</time>
      </trkpt>
      <trkpt lat="39.56136" lon="-1.28075">
        <ele>788.932117</ele>
        <time>2022-02-23T11:29:02.866Z</time>
      </trkpt>
      <trkpt lat="39.5613" lon="-1.28091">
        <ele>788.855088</ele>
        <time>2022-02-23T11:29:06.069Z</time>
      </trkpt>
      <trkpt lat="39.56093" lon="-1.28136">
        <ele>788.556926</ele>
        <time>2022-02-23T11:29:17.486Z</time>
      </trkpt>
      <trkpt lat="39.5607" lon="-1.28161">
        <ele>788.381303</ele>
        <time>2022-02-23T11:29:23.729Z</time>
      </trkpt>
      <trkpt lat="39.55999" lon="-1.28179">
        <ele>787.562112</ele>
        <time>2022-02-23T11:29:37.222Z</time>
      </trkpt>
      <trkpt lat="39.55979" lon="-1.28184">
        <ele>786.922607</ele>
        <time>2022-02-23T11:29:40.812Z</time>
      </trkpt>
      <trkpt lat="39.55929" lon="-1.28195">
        <ele>785.352771</ele>
        <time>2022-02-23T11:29:49.318Z</time>
      </trkpt>
      <trkpt lat="39.55907" lon="-1.28195">
        <ele>784.641079</ele>
        <time>2022-02-23T11:29:53.169Z</time>
      </trkpt>
      <trkpt lat="39.55873" lon="-1.28194">
        <ele>783.596875</ele>
        <time>2022-02-23T11:29:58.801Z</time>
      </trkpt>
      <trkpt lat="39.55849" lon="-1.28201">
        <ele>782.839905</ele>
        <time>2022-02-23T11:30:02.863Z</time>
      </trkpt>
      <trkpt lat="39.55831" lon="-1.28253">
        <ele>782.221874</ele>
        <time>2022-02-23T11:30:10.338Z</time>
      </trkpt>
      <trkpt lat="39.55824" lon="-1.28276">
        <ele>782.078418</ele>
        <time>2022-02-23T11:30:13.543Z</time>
      </trkpt>
      <trkpt lat="39.55811" lon="-1.28288">
        <ele>781.954604</ele>
        <time>2022-02-23T11:30:16.403Z</time>
      </trkpt>
      <trkpt lat="39.55784" lon="-1.28297">
        <ele>781.73998</ele>
        <time>2022-02-23T11:30:21.527Z</time>
      </trkpt>
      <trkpt lat="39.55701" lon="-1.28385">
        <ele>781.72612</ele>
        <time>2022-02-23T11:30:53.182Z</time>
      </trkpt>
      <trkpt lat="39.55696" lon="-1.28385">
        <ele>781.863169</ele>
        <time>2022-02-23T11:30:54.663Z</time>
      </trkpt>
      <trkpt lat="39.55695" lon="-1.28393">
        <ele>782.052801</ele>
        <time>2022-02-23T11:30:57.314Z</time>
      </trkpt>
      <trkpt lat="39.55684" lon="-1.28401">
        <ele>782.413063</ele>
        <time>2022-02-23T11:31:02.596Z</time>
      </trkpt>
      <trkpt lat="39.55677" lon="-1.28396">
        <ele>782.644083</ele>
        <time>2022-02-23T11:31:05.697Z</time>
      </trkpt>
      <trkpt lat="39.55676" lon="-1.28395">
        <ele>782.6894</ele>
        <time>2022-02-23T11:31:06.265Z</time>
      </trkpt>
      <trkpt lat="39.55659" lon="-1.28388">
        <ele>783.196688</ele>
        <time>2022-02-23T11:31:13.133Z</time>
      </trkpt>
      <trkpt lat="39.55613" lon="-1.28389">
        <ele>784.506724</ele>
        <time>2022-02-23T11:31:30.895Z</time>
      </trkpt>
      <trkpt lat="39.55582" lon="-1.28398">
        <ele>785.418854</ele>
        <time>2022-02-23T11:31:42.755Z</time>
      </trkpt>
      <trkpt lat="39.55546" lon="-1.28413">
        <ele>786.417619</ele>
        <time>2022-02-23T11:31:56.553Z</time>
      </trkpt>
      <trkpt lat="39.55524" lon="-1.28429">
        <ele>786.988296</ele>
        <time>2022-02-23T11:32:06.625Z</time>
      </trkpt>
      <trkpt lat="39.55507" lon="-1.28453">
        <ele>787.533737</ele>
        <time>2022-02-23T11:32:16.046Z</time>
      </trkpt>
      <trkpt lat="39.55452" lon="-1.28557">
        <ele>789.664793</ele>
        <time>2022-02-23T11:32:45.744Z</time>
      </trkpt>
      <trkpt lat="39.5544" lon="-1.28567">
        <ele>789.974199</ele>
        <time>2022-02-23T11:32:50.087Z</time>
      </trkpt>
      <trkpt lat="39.55388" lon="-1.28586">
        <ele>791.212242</ele>
        <time>2022-02-23T11:33:06.507Z</time>
      </trkpt>
      <trkpt lat="39.55299" lon="-1.28582">
        <ele>793.299763</ele>
        <time>2022-02-23T11:33:37.697Z</time>
      </trkpt>
      <trkpt lat="39.55193" lon="-1.28631">
        <ele>795.591394</ele>
        <time>2022-02-23T11:34:18.023Z</time>
      </trkpt>
      <trkpt lat="39.55156" lon="-1.28657">
        <ele>796.375893</ele>
        <time>2022-02-23T11:34:31.157Z</time>
      </trkpt>
      <trkpt lat="39.55132" lon="-1.28662">
        <ele>796.813881</ele>
        <time>2022-02-23T11:34:38.629Z</time>
      </trkpt>
      <trkpt lat="39.55129" lon="-1.28686">
        <ele>797.160494</ele>
        <time>2022-02-23T11:34:45.016Z</time>
      </trkpt>
      <trkpt lat="39.55106" lon="-1.28747">
        <ele>797.649923</ele>
        <time>2022-02-23T11:35:03.421Z</time>
      </trkpt>
      <trkpt lat="39.55039" lon="-1.29204">
        <ele>796.185688</ele>
        <time>2022-02-23T11:36:43.575Z</time>
      </trkpt>
      <trkpt lat="39.55003" lon="-1.2938">
        <ele>794.766152</ele>
        <time>2022-02-23T11:37:20.270Z</time>
      </trkpt>
      <trkpt lat="39.5499" lon="-1.29569">
        <ele>794.036775</ele>
        <time>2022-02-23T11:38:00.725Z</time>
      </trkpt>
      <trkpt lat="39.54971" lon="-1.29585">
        <ele>793.939369</ele>
        <time>2022-02-23T11:38:07.550Z</time>
      </trkpt>
      <trkpt lat="39.54938" lon="-1.2961">
        <ele>793.881143</ele>
        <time>2022-02-23T11:38:16.675Z</time>
      </trkpt>
      <trkpt lat="39.54919" lon="-1.29632">
        <ele>794.025642</ele>
        <time>2022-02-23T11:38:24.484Z</time>
      </trkpt>
      <trkpt lat="39.54875" lon="-1.29719">
        <ele>794.469308</ele>
        <time>2022-02-23T11:38:49.986Z</time>
      </trkpt>
      <trkpt lat="39.5484" lon="-1.29799">
        <ele>794.937288</ele>
        <time>2022-02-23T11:39:14.103Z</time>
      </trkpt>
      <trkpt lat="39.54803" lon="-1.2986">
        <ele>795.893034</ele>
        <time>2022-02-23T11:39:34.091Z</time>
      </trkpt>
      <trkpt lat="39.54719" lon="-1.29975">
        <ele>797.957716</ele>
        <time>2022-02-23T11:40:20.667Z</time>
      </trkpt>
      <trkpt lat="39.54467" lon="-1.30274">
        <ele>808.306603</ele>
        <time>2022-02-23T11:42:55.261Z</time>
      </trkpt>
      <trkpt lat="39.54413" lon="-1.30346">
        <ele>810.246299</ele>
        <time>2022-02-23T11:43:27.522Z</time>
      </trkpt>
      <trkpt lat="39.54374" lon="-1.30402">
        <ele>811.647271</ele>
        <time>2022-02-23T11:43:51.472Z</time>
      </trkpt>
      <trkpt lat="39.54287" lon="-1.30574">
        <ele>814.488866</ele>
        <time>2022-02-23T11:44:54.995Z</time>
      </trkpt>
      <trkpt lat="39.54241" lon="-1.3067">
        <ele>815.448333</ele>
        <time>2022-02-23T11:45:24.326Z</time>
      </trkpt>
      <trkpt lat="39.54222" lon="-1.30724">
        <ele>814.98763</ele>
        <time>2022-02-23T11:45:37.001Z</time>
      </trkpt>
      <trkpt lat="39.54212" lon="-1.30874">
        <ele>813.805507</ele>
        <time>2022-02-23T11:46:06.686Z</time>
      </trkpt>
      <trkpt lat="39.54211" lon="-1.3103">
        <ele>812.598897</ele>
        <time>2022-02-23T11:46:37.787Z</time>
      </trkpt>
      <trkpt lat="39.54197" lon="-1.31064">
        <ele>812.309154</ele>
        <time>2022-02-23T11:46:45.828Z</time>
      </trkpt>
      <trkpt lat="39.54201" lon="-1.31071">
        <ele>812.238037</ele>
        <time>2022-02-23T11:46:47.380Z</time>
      </trkpt>
      <trkpt lat="39.54199" lon="-1.31094">
        <ele>812.060395</ele>
        <time>2022-02-23T11:46:51.186Z</time>
      </trkpt>
      <trkpt lat="39.54181" lon="-1.31103">
        <ele>812.03635</ele>
        <time>2022-02-23T11:46:55.330Z</time>
      </trkpt>
      <trkpt lat="39.54169" lon="-1.31091">
        <ele>812.182518</ele>
        <time>2022-02-23T11:46:58.754Z</time>
      </trkpt>
      <trkpt lat="39.54141" lon="-1.31074">
        <ele>812.489632</ele>
        <time>2022-02-23T11:47:06.592Z</time>
      </trkpt>
      <trkpt lat="39.54115" lon="-1.3107">
        <ele>812.742462</ele>
        <time>2022-02-23T11:47:13.475Z</time>
      </trkpt>
      <trkpt lat="39.54073" lon="-1.31065">
        <ele>813.15596</ele>
        <time>2022-02-23T11:47:25.858Z</time>
      </trkpt>
      <trkpt lat="39.54033" lon="-1.3106">
        <ele>813.542071</ele>
        <time>2022-02-23T11:47:38.051Z</time>
      </trkpt>
      <trkpt lat="39.54009" lon="-1.31068">
        <ele>813.861574</ele>
        <time>2022-02-23T11:47:45.780Z</time>
      </trkpt>
      <trkpt lat="39.54004" lon="-1.31082">
        <ele>814.104009</ele>
        <time>2022-02-23T11:47:49.414Z</time>
      </trkpt>
      <trkpt lat="39.53993" lon="-1.31089">
        <ele>814.347485</ele>
        <time>2022-02-23T11:47:53.205Z</time>
      </trkpt>
      <trkpt lat="39.53985" lon="-1.31089">
        <ele>814.520724</ele>
        <time>2022-02-23T11:47:55.844Z</time>
      </trkpt>
      <trkpt lat="39.53973" lon="-1.31082">
        <ele>814.782984</ele>
        <time>2022-02-23T11:47:59.808Z</time>
      </trkpt>
      <trkpt lat="39.53969" lon="-1.31076">
        <ele>814.90119</ele>
        <time>2022-02-23T11:48:01.622Z</time>
      </trkpt>
      <trkpt lat="39.5395" lon="-1.3107">
        <ele>815.308791</ele>
        <time>2022-02-23T11:48:08.002Z</time>
      </trkpt>
      <trkpt lat="39.53878" lon="-1.31089">
        <ele>816.800826</ele>
        <time>2022-02-23T11:48:32.261Z</time>
      </trkpt>
      <trkpt lat="39.53856" lon="-1.31095">
        <ele>817.255906</ele>
        <time>2022-02-23T11:48:39.857Z</time>
      </trkpt>
      <trkpt lat="39.53376" lon="-1.31219">
        <ele>828.381853</ele>
        <time>2022-02-23T11:51:27.231Z</time>
      </trkpt>
      <trkpt lat="39.53343" lon="-1.31232">
        <ele>829.068183</ele>
        <time>2022-02-23T11:51:37.756Z</time>
      </trkpt>
      <trkpt lat="39.53184" lon="-1.31335">
        <ele>830.216241</ele>
        <time>2022-02-23T11:52:23.360Z</time>
      </trkpt>
      <trkpt lat="39.52847" lon="-1.3156">
        <ele>827.61045</ele>
        <time>2022-02-23T11:53:39.927Z</time>
      </trkpt>
      <trkpt lat="39.52827" lon="-1.31593">
        <ele>827.3959</ele>
        <time>2022-02-23T11:53:46.532Z</time>
      </trkpt>
      <trkpt lat="39.52698" lon="-1.31962">
        <ele>825.347879</ele>
        <time>2022-02-23T11:54:51.310Z</time>
      </trkpt>
      <trkpt lat="39.52675" lon="-1.32003">
        <ele>824.959112</ele>
        <time>2022-02-23T11:54:59.113Z</time>
      </trkpt>
      <trkpt lat="39.52617" lon="-1.32082">
        <ele>823.859504</ele>
        <time>2022-02-23T11:55:15.621Z</time>
      </trkpt>
      <trkpt lat="39.51948" lon="-1.32991">
        <ele>808.29185</ele>
        <time>2022-02-23T11:58:18.393Z</time>
      </trkpt>
      <trkpt lat="39.51728" lon="-1.33451">
        <ele>799.536193</ele>
        <time>2022-02-23T11:59:34.586Z</time>
      </trkpt>
      <trkpt lat="39.51707" lon="-1.33481">
        <ele>798.7657</ele>
        <time>2022-02-23T11:59:40.071Z</time>
      </trkpt>
      <trkpt lat="39.51683" lon="-1.33502">
        <ele>798.028734</ele>
        <time>2022-02-23T11:59:45.275Z</time>
      </trkpt>
      <trkpt lat="39.51537" lon="-1.33578">
        <ele>793.586241</ele>
        <time>2022-02-23T12:00:12.649Z</time>
      </trkpt>
      <trkpt lat="39.51512" lon="-1.33598">
        <ele>792.717654</ele>
        <time>2022-02-23T12:00:17.523Z</time>
      </trkpt>
      <trkpt lat="39.51499" lon="-1.33619">
        <ele>792.087604</ele>
        <time>2022-02-23T12:00:21.059Z</time>
      </trkpt>
      <trkpt lat="39.51489" lon="-1.33646">
        <ele>791.371485</ele>
        <time>2022-02-23T12:00:25.091Z</time>
      </trkpt>
      <trkpt lat="39.51465" lon="-1.33792">
        <ele>788.521771</ele>
        <time>2022-02-23T12:00:45.041Z</time>
      </trkpt>
      <trkpt lat="39.51453" lon="-1.33817">
        <ele>787.992326</ele>
        <time>2022-02-23T12:00:49.058Z</time>
      </trkpt>
      <trkpt lat="39.51431" lon="-1.33837">
        <ele>787.346924</ele>
        <time>2022-02-23T12:00:54.028Z</time>
      </trkpt>
      <trkpt lat="39.51326" lon="-1.33861">
        <ele>786.010321</ele>
        <time>2022-02-23T12:01:14.977Z</time>
      </trkpt>
      <trkpt lat="39.51292" lon="-1.33881">
        <ele>785.719445</ele>
        <time>2022-02-23T12:01:22.802Z</time>
      </trkpt>
      <trkpt lat="39.51242" lon="-1.33964">
        <ele>784.994139</ele>
        <time>2022-02-23T12:01:40.150Z</time>
      </trkpt>
      <trkpt lat="39.51193" lon="-1.34023">
        <ele>783.957837</ele>
        <time>2022-02-23T12:01:54.275Z</time>
      </trkpt>
      <trkpt lat="39.50579" lon="-1.34639">
        <ele>772.939497</ele>
        <time>2022-02-23T12:04:19.922Z</time>
      </trkpt>
      <trkpt lat="39.50556" lon="-1.34674">
        <ele>772.636206</ele>
        <time>2022-02-23T12:04:29.111Z</time>
      </trkpt>
      <trkpt lat="39.50528" lon="-1.3474">
        <ele>773.597826</ele>
        <time>2022-02-23T12:04:47.092Z</time>
      </trkpt>
      <trkpt lat="39.50488" lon="-1.34834">
        <ele>775.242617</ele>
        <time>2022-02-23T12:05:15.672Z</time>
      </trkpt>
      <trkpt lat="39.50485" lon="-1.34839">
        <ele>775.336531</ele>
        <time>2022-02-23T12:05:17.392Z</time>
      </trkpt>
      <trkpt lat="39.5047" lon="-1.34876">
        <ele>775.993247</ele>
        <time>2022-02-23T12:05:29.144Z</time>
      </trkpt>
      <trkpt lat="39.50455" lon="-1.3491">
        <ele>776.271287</ele>
        <time>2022-02-23T12:05:39.234Z</time>
      </trkpt>
      <trkpt lat="39.50436" lon="-1.34941">
        <ele>776.434297</ele>
        <time>2022-02-23T12:05:49.509Z</time>
      </trkpt>
      <trkpt lat="39.50359" lon="-1.35038">
        <ele>777.003256</ele>
        <time>2022-02-23T12:06:14.253Z</time>
      </trkpt>
      <trkpt lat="39.50337" lon="-1.35058">
        <ele>777.019437</ele>
        <time>2022-02-23T12:06:19.387Z</time>
      </trkpt>
      <trkpt lat="39.50189" lon="-1.3515">
        <ele>774.458685</ele>
        <time>2022-02-23T12:06:50.085Z</time>
      </trkpt>
      <trkpt lat="39.50011" lon="-1.35204">
        <ele>771.319214</ele>
        <time>2022-02-23T12:07:24.861Z</time>
      </trkpt>
      <trkpt lat="39.49977" lon="-1.35223">
        <ele>770.213738</ele>
        <time>2022-02-23T12:07:31.368Z</time>
      </trkpt>
      <trkpt lat="39.49963" lon="-1.35237">
        <ele>769.648381</ele>
        <time>2022-02-23T12:07:34.360Z</time>
      </trkpt>
      <trkpt lat="39.49867" lon="-1.35405">
        <ele>765.026259</ele>
        <time>2022-02-23T12:08:01.324Z</time>
      </trkpt>
      <trkpt lat="39.49851" lon="-1.35424">
        <ele>764.769253</ele>
        <time>2022-02-23T12:08:05.096Z</time>
      </trkpt>
      <trkpt lat="39.49824" lon="-1.35438">
        <ele>764.428312</ele>
        <time>2022-02-23T12:08:10.379Z</time>
      </trkpt>
      <trkpt lat="39.49779" lon="-1.35449">
        <ele>763.88739</ele>
        <time>2022-02-23T12:08:19.877Z</time>
      </trkpt>
      <trkpt lat="39.49654" lon="-1.3542">
        <ele>763.18092</ele>
        <time>2022-02-23T12:08:54.721Z</time>
      </trkpt>
      <trkpt lat="39.49626" lon="-1.35423">
        <ele>763.15194</ele>
        <time>2022-02-23T12:09:02.605Z</time>
      </trkpt>
      <trkpt lat="39.49614" lon="-1.35435">
        <ele>763.136131</ele>
        <time>2022-02-23T12:09:06.207Z</time>
      </trkpt>
      <trkpt lat="39.49511" lon="-1.35611">
        <ele>760.055461</ele>
        <time>2022-02-23T12:09:37.730Z</time>
      </trkpt>
      <trkpt lat="39.49494" lon="-1.35628">
        <ele>759.434774</ele>
        <time>2022-02-23T12:09:41.266Z</time>
      </trkpt>
      <trkpt lat="39.49371" lon="-1.3571">
        <ele>755.317557</ele>
        <time>2022-02-23T12:10:03.934Z</time>
      </trkpt>
      <trkpt lat="39.49346" lon="-1.35722">
        <ele>754.516093</ele>
        <time>2022-02-23T12:10:08.328Z</time>
      </trkpt>
      <trkpt lat="39.49325" lon="-1.35724">
        <ele>753.865656</ele>
        <time>2022-02-23T12:10:11.973Z</time>
      </trkpt>
      <trkpt lat="39.49034" lon="-1.35684">
        <ele>749.817905</ele>
        <time>2022-02-23T12:11:10.038Z</time>
      </trkpt>
      <trkpt lat="39.49018" lon="-1.35694">
        <ele>749.61894</ele>
        <time>2022-02-23T12:11:13.733Z</time>
      </trkpt>
      <trkpt lat="39.4898" lon="-1.35748">
        <ele>748.993717</ele>
        <time>2022-02-23T12:11:25.217Z</time>
      </trkpt>
      <trkpt lat="39.48961" lon="-1.35765">
        <ele>748.739601</ele>
        <time>2022-02-23T12:11:29.611Z</time>
      </trkpt>
      <trkpt lat="39.48925" lon="-1.35772">
        <ele>747.96847</ele>
        <time>2022-02-23T12:11:36.550Z</time>
      </trkpt>
      <trkpt lat="39.48887" lon="-1.3576">
        <ele>746.914872</ele>
        <time>2022-02-23T12:11:43.477Z</time>
      </trkpt>
      <trkpt lat="39.48872" lon="-1.35761">
        <ele>746.479735</ele>
        <time>2022-02-23T12:11:46.329Z</time>
      </trkpt>
      <trkpt lat="39.48695" lon="-1.35876">
        <ele>740.088838</ele>
        <time>2022-02-23T12:12:19.760Z</time>
      </trkpt>
      <trkpt lat="39.48678" lon="-1.35877">
        <ele>739.452803</ele>
        <time>2022-02-23T12:12:22.519Z</time>
      </trkpt>
      <trkpt lat="39.48655" lon="-1.35862">
        <ele>738.478849</ele>
        <time>2022-02-23T12:12:26.722Z</time>
      </trkpt>
      <trkpt lat="39.48634" lon="-1.35823">
        <ele>737.086419</ele>
        <time>2022-02-23T12:12:32.777Z</time>
      </trkpt>
      <trkpt lat="39.48613" lon="-1.35813">
        <ele>736.077519</ele>
        <time>2022-02-23T12:12:36.450Z</time>
      </trkpt>
      <trkpt lat="39.4859" lon="-1.35808">
        <ele>734.95401</ele>
        <time>2022-02-23T12:12:40.298Z</time>
      </trkpt>
      <trkpt lat="39.48571" lon="-1.35804">
        <ele>734.016481</ele>
        <time>2022-02-23T12:12:43.464Z</time>
      </trkpt>
      <trkpt lat="39.48552" lon="-1.358">
        <ele>733.083071</ele>
        <time>2022-02-23T12:12:46.645Z</time>
      </trkpt>
      <trkpt lat="39.48542" lon="-1.35797">
        <ele>732.608932</ele>
        <time>2022-02-23T12:12:48.234Z</time>
      </trkpt>
      <trkpt lat="39.4854" lon="-1.35827">
        <ele>731.518697</ele>
        <time>2022-02-23T12:12:51.876Z</time>
      </trkpt>
      <trkpt lat="39.48538" lon="-1.35844">
        <ele>730.868089</ele>
        <time>2022-02-23T12:12:54.021Z</time>
      </trkpt>
      <trkpt lat="39.48532" lon="-1.35913">
        <ele>728.284653</ele>
        <time>2022-02-23T12:13:02.341Z</time>
      </trkpt>
      <trkpt lat="39.48531" lon="-1.35932">
        <ele>727.609037</ele>
        <time>2022-02-23T12:13:04.574Z</time>
      </trkpt>
      <trkpt lat="39.48525" lon="-1.36001">
        <ele>725.135345</ele>
        <time>2022-02-23T12:13:12.825Z</time>
      </trkpt>
      <trkpt lat="39.48524" lon="-1.36016">
        <ele>724.591793</ele>
        <time>2022-02-23T12:13:14.653Z</time>
      </trkpt>
      <trkpt lat="39.48523" lon="-1.36026">
        <ele>724.252301</ele>
        <time>2022-02-23T12:13:15.815Z</time>
      </trkpt>
      <trkpt lat="39.4852" lon="-1.36074">
        <ele>722.524197</ele>
        <time>2022-02-23T12:13:21.778Z</time>
      </trkpt>
      <trkpt lat="39.48533" lon="-1.36196">
        <ele>720.027307</ele>
        <time>2022-02-23T12:13:38.265Z</time>
      </trkpt>
      <trkpt lat="39.48537" lon="-1.36228">
        <ele>720.119261</ele>
        <time>2022-02-23T12:13:43.215Z</time>
      </trkpt>
      <trkpt lat="39.48541" lon="-1.36255">
        <ele>720.19656</ele>
        <time>2022-02-23T12:13:47.809Z</time>
      </trkpt>
      <trkpt lat="39.4856" lon="-1.36392">
        <ele>721.01039</ele>
        <time>2022-02-23T12:14:22.346Z</time>
      </trkpt>
      <trkpt lat="39.48567" lon="-1.36413">
        <ele>721.698126</ele>
        <time>2022-02-23T12:14:29.826Z</time>
      </trkpt>
      <trkpt lat="39.48635" lon="-1.36511">
        <ele>725.717115</ele>
        <time>2022-02-23T12:15:15.467Z</time>
      </trkpt>
      <trkpt lat="39.4867" lon="-1.36586">
        <ele>728.421622</ele>
        <time>2022-02-23T12:15:44.208Z</time>
      </trkpt>
      <trkpt lat="39.48726" lon="-1.36661">
        <ele>731.661039</ele>
        <time>2022-02-23T12:16:18.955Z</time>
      </trkpt>
      <trkpt lat="39.48736" lon="-1.36695">
        <ele>732.786465</ele>
        <time>2022-02-23T12:16:31.135Z</time>
      </trkpt>
      <trkpt lat="39.48732" lon="-1.36753">
        <ele>734.575339</ele>
        <time>2022-02-23T12:16:49.655Z</time>
      </trkpt>
      <trkpt lat="39.48816" lon="-1.37123">
        <ele>744.169703</ele>
        <time>2022-02-23T12:18:48.040Z</time>
      </trkpt>
      <trkpt lat="39.48819" lon="-1.37161">
        <ele>744.941556</ele>
        <time>2022-02-23T12:18:57.372Z</time>
      </trkpt>
      <trkpt lat="39.48829" lon="-1.37185">
        <ele>745.50159</ele>
        <time>2022-02-23T12:19:03.884Z</time>
      </trkpt>
      <trkpt lat="39.48931" lon="-1.37328">
        <ele>747.731135</ele>
        <time>2022-02-23T12:19:43.020Z</time>
      </trkpt>
      <trkpt lat="39.48934" lon="-1.37342">
        <ele>747.887817</ele>
        <time>2022-02-23T12:19:46.091Z</time>
      </trkpt>
      <trkpt lat="39.48904" lon="-1.37428">
        <ele>749.74516</ele>
        <time>2022-02-23T12:20:10.399Z</time>
      </trkpt>
      <trkpt lat="39.48901" lon="-1.37451">
        <ele>750.4503</ele>
        <time>2022-02-23T12:20:17.821Z</time>
      </trkpt>
      <trkpt lat="39.48909" lon="-1.37514">
        <ele>752.33807</ele>
        <time>2022-02-23T12:20:39.389Z</time>
      </trkpt>
      <trkpt lat="39.48903" lon="-1.37712">
        <ele>757.417666</ele>
        <time>2022-02-23T12:21:49.449Z</time>
      </trkpt>
      <trkpt lat="39.48864" lon="-1.37976">
        <ele>760.510223</ele>
        <time>2022-02-23T12:22:49.674Z</time>
      </trkpt>
      <trkpt lat="39.48876" lon="-1.38084">
        <ele>760.521574</ele>
        <time>2022-02-23T12:23:06.148Z</time>
      </trkpt>
      <trkpt lat="39.48874" lon="-1.38101">
        <ele>760.288038</ele>
        <time>2022-02-23T12:23:08.628Z</time>
      </trkpt>
      <trkpt lat="39.48868" lon="-1.38111">
        <ele>760.107666</ele>
        <time>2022-02-23T12:23:10.509Z</time>
      </trkpt>
      <trkpt lat="39.48795" lon="-1.38121">
        <ele>758.806535</ele>
        <time>2022-02-23T12:23:23.893Z</time>
      </trkpt>
      <trkpt lat="39.48688" lon="-1.38279">
        <ele>756.458718</ele>
        <time>2022-02-23T12:23:53.830Z</time>
      </trkpt>
      <trkpt lat="39.48672" lon="-1.38293">
        <ele>756.233314</ele>
        <time>2022-02-23T12:23:57.719Z</time>
      </trkpt>
      <trkpt lat="39.48641" lon="-1.38297">
        <ele>755.886539</ele>
        <time>2022-02-23T12:24:03.828Z</time>
      </trkpt>
      <trkpt lat="39.48614" lon="-1.38311">
        <ele>755.55073</ele>
        <time>2022-02-23T12:24:10.020Z</time>
      </trkpt>
      <trkpt lat="39.48595" lon="-1.38314">
        <ele>755.402554</ele>
        <time>2022-02-23T12:24:14.270Z</time>
      </trkpt>
      <trkpt lat="39.48558" lon="-1.38309">
        <ele>755.557371</ele>
        <time>2022-02-23T12:24:23.003Z</time>
      </trkpt>
      <trkpt lat="39.48493" lon="-1.38334">
        <ele>755.838055</ele>
        <time>2022-02-23T12:24:40.410Z</time>
      </trkpt>
      <trkpt lat="39.48413" lon="-1.38392">
        <ele>756.208758</ele>
        <time>2022-02-23T12:25:03.428Z</time>
      </trkpt>
      <trkpt lat="39.48255" lon="-1.38548">
        <ele>756.356383</ele>
        <time>2022-02-23T12:25:51.557Z</time>
      </trkpt>
      <trkpt lat="39.48169" lon="-1.38623">
        <ele>755.160889</ele>
        <time>2022-02-23T12:26:11.670Z</time>
      </trkpt>
      <trkpt lat="39.48144" lon="-1.38635">
        <ele>754.85785</ele>
        <time>2022-02-23T12:26:16.372Z</time>
      </trkpt>
      <trkpt lat="39.48017" lon="-1.38652">
        <ele>752.456458</ele>
        <time>2022-02-23T12:26:39.097Z</time>
      </trkpt>
      <trkpt lat="39.47998" lon="-1.38666">
        <ele>752.028762</ele>
        <time>2022-02-23T12:26:43.076Z</time>
      </trkpt>
      <trkpt lat="39.47969" lon="-1.38703">
        <ele>751.29062</ele>
        <time>2022-02-23T12:26:50.850Z</time>
      </trkpt>
      <trkpt lat="39.47955" lon="-1.38713">
        <ele>751.534227</ele>
        <time>2022-02-23T12:26:54.482Z</time>
      </trkpt>
      <trkpt lat="39.47901" lon="-1.38709">
        <ele>752.326615</ele>
        <time>2022-02-23T12:27:07.325Z</time>
      </trkpt>
      <trkpt lat="39.47883" lon="-1.38723">
        <ele>752.630265</ele>
        <time>2022-02-23T12:27:13.960Z</time>
      </trkpt>
      <trkpt lat="39.47859" lon="-1.3876">
        <ele>753.178074</ele>
        <time>2022-02-23T12:27:26.758Z</time>
      </trkpt>
      <trkpt lat="39.47836" lon="-1.38779">
        <ele>753.581769</ele>
        <time>2022-02-23T12:27:37.185Z</time>
      </trkpt>
      <trkpt lat="39.4781" lon="-1.38786">
        <ele>754.006254</ele>
        <time>2022-02-23T12:27:47.058Z</time>
      </trkpt>
      <trkpt lat="39.47717" lon="-1.38787">
        <ele>756.350841</ele>
        <time>2022-02-23T12:28:22.294Z</time>
      </trkpt>
      <trkpt lat="39.47695" lon="-1.388">
        <ele>756.966113</ele>
        <time>2022-02-23T12:28:31.108Z</time>
      </trkpt>
      <trkpt lat="39.47692" lon="-1.38804">
        <ele>757.065917</ele>
        <time>2022-02-23T12:28:32.438Z</time>
      </trkpt>
      <trkpt lat="39.4767" lon="-1.38831">
        <ele>757.820252</ele>
        <time>2022-02-23T12:28:42.281Z</time>
      </trkpt>
      <trkpt lat="39.4761" lon="-1.38874">
        <ele>758.385741</ele>
        <time>2022-02-23T12:29:02.401Z</time>
      </trkpt>
      <trkpt lat="39.47571" lon="-1.38887">
        <ele>758.332483</ele>
        <time>2022-02-23T12:29:11.938Z</time>
      </trkpt>
      <trkpt lat="39.47516" lon="-1.38953">
        <ele>758.234146</ele>
        <time>2022-02-23T12:29:26.947Z</time>
      </trkpt>
      <trkpt lat="39.47334" lon="-1.3902">
        <ele>756.057464</ele>
        <time>2022-02-23T12:30:02.793Z</time>
      </trkpt>
      <trkpt lat="39.47291" lon="-1.39039">
        <ele>756.442494</ele>
        <time>2022-02-23T12:30:12.310Z</time>
      </trkpt>
      <trkpt lat="39.47236" lon="-1.39076">
        <ele>757.377514</ele>
        <time>2022-02-23T12:30:28.806Z</time>
      </trkpt>
      <trkpt lat="39.47224" lon="-1.3909">
        <ele>757.624189</ele>
        <time>2022-02-23T12:30:33.906Z</time>
      </trkpt>
      <trkpt lat="39.47216" lon="-1.39131">
        <ele>758.112708</ele>
        <time>2022-02-23T12:30:45.047Z</time>
      </trkpt>
      <trkpt lat="39.47208" lon="-1.39148">
        <ele>758.343536</ele>
        <time>2022-02-23T12:30:50.935Z</time>
      </trkpt>
      <trkpt lat="39.47152" lon="-1.39163">
        <ele>760.616996</ele>
        <time>2022-02-23T12:31:15.358Z</time>
      </trkpt>
      <trkpt lat="39.47139" lon="-1.39173">
        <ele>761.373164</ele>
        <time>2022-02-23T12:31:22.429Z</time>
      </trkpt>
      <trkpt lat="39.47131" lon="-1.39215">
        <ele>763.074784</ele>
        <time>2022-02-23T12:31:39.050Z</time>
      </trkpt>
      <trkpt lat="39.47101" lon="-1.39284">
        <ele>766.238438</ele>
        <time>2022-02-23T12:32:11.446Z</time>
      </trkpt>
      <trkpt lat="39.47029" lon="-1.39319">
        <ele>770.085047</ele>
        <time>2022-02-23T12:32:49.693Z</time>
      </trkpt>
      <trkpt lat="39.46968" lon="-1.39401">
        <ele>774.411851</ele>
        <time>2022-02-23T12:33:31.724Z</time>
      </trkpt>
      <trkpt lat="39.46951" lon="-1.39405">
        <ele>775.260422</ele>
        <time>2022-02-23T12:33:39.546Z</time>
      </trkpt>
      <trkpt lat="39.46891" lon="-1.39389">
        <ele>777.662042</ele>
        <time>2022-02-23T12:34:05.199Z</time>
      </trkpt>
      <trkpt lat="39.46876" lon="-1.39392">
        <ele>778.095267</ele>
        <time>2022-02-23T12:34:11.244Z</time>
      </trkpt>
      <trkpt lat="39.46854" lon="-1.3941">
        <ele>778.880271</ele>
        <time>2022-02-23T12:34:21.336Z</time>
      </trkpt>
      <trkpt lat="39.46839" lon="-1.39408">
        <ele>779.308068</ele>
        <time>2022-02-23T12:34:26.792Z</time>
      </trkpt>
      <trkpt lat="39.4677" lon="-1.39277">
        <ele>782.536949</ele>
        <time>2022-02-23T12:35:08.481Z</time>
      </trkpt>
      <trkpt lat="39.46757" lon="-1.39268">
        <ele>782.771216</ele>
        <time>2022-02-23T12:35:12.680Z</time>
      </trkpt>
      <trkpt lat="39.46719" lon="-1.39269">
        <ele>783.405415</ele>
        <time>2022-02-23T12:35:23.929Z</time>
      </trkpt>
      <trkpt lat="39.46671" lon="-1.39295">
        <ele>784.287357</ele>
        <time>2022-02-23T12:35:39.127Z</time>
      </trkpt>
      <trkpt lat="39.46639" lon="-1.39293">
        <ele>784.812367</ele>
        <time>2022-02-23T12:35:48.300Z</time>
      </trkpt>
      <trkpt lat="39.4655" lon="-1.39344">
        <ele>786.773752</ele>
        <time>2022-02-23T12:36:18.877Z</time>
      </trkpt>
      <trkpt lat="39.46514" lon="-1.39339">
        <ele>787.510027</ele>
        <time>2022-02-23T12:36:30.791Z</time>
      </trkpt>
      <trkpt lat="39.46488" lon="-1.39342">
        <ele>788.039271</ele>
        <time>2022-02-23T12:36:39.611Z</time>
      </trkpt>
      <trkpt lat="39.46416" lon="-1.39304">
        <ele>789.413472</ele>
        <time>2022-02-23T12:37:06.970Z</time>
      </trkpt>
      <trkpt lat="39.46331" lon="-1.39298">
        <ele>790.723055</ele>
        <time>2022-02-23T12:37:32.814Z</time>
      </trkpt>
      <trkpt lat="39.4631" lon="-1.39302">
        <ele>791.047119</ele>
        <time>2022-02-23T12:37:38.822Z</time>
      </trkpt>
      <trkpt lat="39.4625" lon="-1.39239">
        <ele>791.162264</ele>
        <time>2022-02-23T12:37:58.038Z</time>
      </trkpt>
      <trkpt lat="39.46221" lon="-1.39216">
        <ele>790.932899</ele>
        <time>2022-02-23T12:38:05.857Z</time>
      </trkpt>
      <trkpt lat="39.46189" lon="-1.39198">
        <ele>790.700269</ele>
        <time>2022-02-23T12:38:13.379Z</time>
      </trkpt>
      <trkpt lat="39.46154" lon="-1.39199">
        <ele>790.46955</ele>
        <time>2022-02-23T12:38:20.100Z</time>
      </trkpt>
      <trkpt lat="39.4613" lon="-1.39203">
        <ele>790.30976</ele>
        <time>2022-02-23T12:38:24.784Z</time>
      </trkpt>
      <trkpt lat="39.46087" lon="-1.39197">
        <ele>789.154468</ele>
        <time>2022-02-23T12:38:33.070Z</time>
      </trkpt>
      <trkpt lat="39.46057" lon="-1.39202">
        <ele>788.285543</ele>
        <time>2022-02-23T12:38:38.943Z</time>
      </trkpt>
      <trkpt lat="39.46034" lon="-1.39199">
        <ele>787.642077</ele>
        <time>2022-02-23T12:38:43.100Z</time>
      </trkpt>
      <trkpt lat="39.46009" lon="-1.39191">
        <ele>786.932002</ele>
        <time>2022-02-23T12:38:47.720Z</time>
      </trkpt>
      <trkpt lat="39.45999" lon="-1.3918">
        <ele>786.564707</ele>
        <time>2022-02-23T12:38:49.997Z</time>
      </trkpt>
      <trkpt lat="39.45983" lon="-1.39175">
        <ele>786.085478</ele>
        <time>2022-02-23T12:38:53.020Z</time>
      </trkpt>
      <trkpt lat="39.45968" lon="-1.39174">
        <ele>785.656848</ele>
        <time>2022-02-23T12:38:55.624Z</time>
      </trkpt>
      <trkpt lat="39.4596" lon="-1.39153">
        <ele>785.134469</ele>
        <time>2022-02-23T12:38:58.843Z</time>
      </trkpt>
      <trkpt lat="39.45951" lon="-1.39161">
        <ele>784.819295</ele>
        <time>2022-02-23T12:39:00.627Z</time>
      </trkpt>
      <trkpt lat="39.4593" lon="-1.39177">
        <ele>784.068036</ele>
        <time>2022-02-23T12:39:04.908Z</time>
      </trkpt>
      <trkpt lat="39.45919" lon="-1.39192">
        <ele>783.566263</ele>
        <time>2022-02-23T12:39:07.760Z</time>
      </trkpt>
      <trkpt lat="39.45915" lon="-1.39219">
        <ele>782.929612</ele>
        <time>2022-02-23T12:39:11.460Z</time>
      </trkpt>
      <trkpt lat="39.45914" lon="-1.39234">
        <ele>782.585976</ele>
        <time>2022-02-23T12:39:13.518Z</time>
      </trkpt>
      <trkpt lat="39.45908" lon="-1.39253">
        <ele>782.091813</ele>
        <time>2022-02-23T12:39:16.387Z</time>
      </trkpt>
      <trkpt lat="39.45862" lon="-1.39335">
        <ele>779.743268</ele>
        <time>2022-02-23T12:39:30.909Z</time>
      </trkpt>
      <trkpt lat="39.45812" lon="-1.39404">
        <ele>779.5664</ele>
        <time>2022-02-23T12:39:45.309Z</time>
      </trkpt>
      <trkpt lat="39.45794" lon="-1.39489">
        <ele>779.402308</ele>
        <time>2022-02-23T12:40:01.817Z</time>
      </trkpt>
      <trkpt lat="39.45802" lon="-1.39636">
        <ele>781.523634</ele>
        <time>2022-02-23T12:40:39.520Z</time>
      </trkpt>
      <trkpt lat="39.45792" lon="-1.39659">
        <ele>782.118532</ele>
        <time>2022-02-23T12:40:47.510Z</time>
      </trkpt>
      <trkpt lat="39.45749" lon="-1.39713">
        <ele>783.856812</ele>
        <time>2022-02-23T12:41:11.412Z</time>
      </trkpt>
      <trkpt lat="39.45714" lon="-1.39793">
        <ele>787.044695</ele>
        <time>2022-02-23T12:41:43.115Z</time>
      </trkpt>
      <trkpt lat="39.45705" lon="-1.39866">
        <ele>790.082854</ele>
        <time>2022-02-23T12:42:10.847Z</time>
      </trkpt>
      <trkpt lat="39.45703" lon="-1.40032">
        <ele>797.989782</ele>
        <time>2022-02-23T12:43:20.340Z</time>
      </trkpt>
      <trkpt lat="39.45713" lon="-1.40078">
        <ele>800.744809</ele>
        <time>2022-02-23T12:43:41.739Z</time>
      </trkpt>
      <trkpt lat="39.45782" lon="-1.40217">
        <ele>810.730129</ele>
        <time>2022-02-23T12:45:04.929Z</time>
      </trkpt>
      <trkpt lat="39.45783" lon="-1.40253">
        <ele>813.11348</ele>
        <time>2022-02-23T12:45:24.202Z</time>
      </trkpt>
      <trkpt lat="39.45705" lon="-1.4049">
        <ele>828.934166</ele>
        <time>2022-02-23T12:47:36.106Z</time>
      </trkpt>
      <trkpt lat="39.45688" lon="-1.40514">
        <ele>830.687063</ele>
        <time>2022-02-23T12:47:50.521Z</time>
      </trkpt>
      <trkpt lat="39.45625" lon="-1.40554">
        <ele>835.638335</ele>
        <time>2022-02-23T12:48:26.393Z</time>
      </trkpt>
      <trkpt lat="39.45611" lon="-1.4057">
        <ele>836.483319</ele>
        <time>2022-02-23T12:48:34.731Z</time>
      </trkpt>
      <trkpt lat="39.45595" lon="-1.40587">
        <ele>837.437516</ele>
        <time>2022-02-23T12:48:44.073Z</time>
      </trkpt>
      <trkpt lat="39.45557" lon="-1.40693">
        <ele>841.628481</ele>
        <time>2022-02-23T12:49:24.772Z</time>
      </trkpt>
      <trkpt lat="39.45524" lon="-1.40727">
        <ele>843.569295</ele>
        <time>2022-02-23T12:49:45.896Z</time>
      </trkpt>
      <trkpt lat="39.45447" lon="-1.4086">
        <ele>846.793243</ele>
        <time>2022-02-23T12:50:36.311Z</time>
      </trkpt>
      <trkpt lat="39.45441" lon="-1.40897">
        <ele>847.481165</ele>
        <time>2022-02-23T12:50:44.614Z</time>
      </trkpt>
      <trkpt lat="39.45453" lon="-1.40926">
        <ele>848.086067</ele>
        <time>2022-02-23T12:50:51.466Z</time>
      </trkpt>
      <trkpt lat="39.45474" lon="-1.4096">
        <ele>847.338984</ele>
        <time>2022-02-23T12:50:58.705Z</time>
      </trkpt>
      <trkpt lat="39.45488" lon="-1.40999">
        <ele>846.287306</ele>
        <time>2022-02-23T12:51:05.259Z</time>
      </trkpt>
      <trkpt lat="39.4548" lon="-1.4109">
        <ele>844.060521</ele>
        <time>2022-02-23T12:51:17.559Z</time>
      </trkpt>
      <trkpt lat="39.4547" lon="-1.41096">
        <ele>843.736975</ele>
        <time>2022-02-23T12:51:19.282Z</time>
      </trkpt>
      <trkpt lat="39.45453" lon="-1.41068">
        <ele>842.860059</ele>
        <time>2022-02-23T12:51:23.716Z</time>
      </trkpt>
      <trkpt lat="39.45439" lon="-1.4106">
        <ele>842.204779</ele>
        <time>2022-02-23T12:51:26.267Z</time>
      </trkpt>
      <trkpt lat="39.45414" lon="-1.41082">
        <ele>840.345008</ele>
        <time>2022-02-23T12:51:31.173Z</time>
      </trkpt>
      <trkpt lat="39.45387" lon="-1.41096">
        <ele>838.485387</ele>
        <time>2022-02-23T12:51:36.010Z</time>
      </trkpt>
      <trkpt lat="39.45387" lon="-1.41115">
        <ele>837.551909</ele>
        <time>2022-02-23T12:51:38.408Z</time>
      </trkpt>
      <trkpt lat="39.45399" lon="-1.41136">
        <ele>836.314704</ele>
        <time>2022-02-23T12:51:41.616Z</time>
      </trkpt>
      <trkpt lat="39.45399" lon="-1.41158">
        <ele>835.260617</ele>
        <time>2022-02-23T12:51:44.304Z</time>
      </trkpt>
      <trkpt lat="39.45376" lon="-1.41213">
        <ele>832.255505</ele>
        <time>2022-02-23T12:51:51.913Z</time>
      </trkpt>
      <trkpt lat="39.45346" lon="-1.41269">
        <ele>828.652798</ele>
        <time>2022-02-23T12:52:00.111Z</time>
      </trkpt>
      <trkpt lat="39.45349" lon="-1.41291">
        <ele>827.452966</ele>
        <time>2022-02-23T12:52:02.720Z</time>
      </trkpt>
      <trkpt lat="39.45358" lon="-1.41308">
        <ele>826.322749</ele>
        <time>2022-02-23T12:52:05.197Z</time>
      </trkpt>
      <trkpt lat="39.45358" lon="-1.41321">
        <ele>825.580516</ele>
        <time>2022-02-23T12:52:06.818Z</time>
      </trkpt>
      <trkpt lat="39.45287" lon="-1.41569">
        <ele>813.059872</ele>
        <time>2022-02-23T12:52:39.156Z</time>
      </trkpt>
      <trkpt lat="39.45289" lon="-1.41598">
        <ele>811.865234</ele>
        <time>2022-02-23T12:52:43.008Z</time>
      </trkpt>
      <trkpt lat="39.45324" lon="-1.41626">
        <ele>809.698489</ele>
        <time>2022-02-23T12:52:50.137Z</time>
      </trkpt>
      <trkpt lat="39.45328" lon="-1.41641">
        <ele>809.088788</ele>
        <time>2022-02-23T12:52:52.197Z</time>
      </trkpt>
      <trkpt lat="39.45323" lon="-1.4166">
        <ele>808.959502</ele>
        <time>2022-02-23T12:52:55.158Z</time>
      </trkpt>
      <trkpt lat="39.45297" lon="-1.41683">
        <ele>808.707014</ele>
        <time>2022-02-23T12:53:01.211Z</time>
      </trkpt>
      <trkpt lat="39.45294" lon="-1.41694">
        <ele>808.631617</ele>
        <time>2022-02-23T12:53:03.129Z</time>
      </trkpt>
      <trkpt lat="39.45307" lon="-1.41788">
        <ele>808.034931</ele>
        <time>2022-02-23T12:53:20.163Z</time>
      </trkpt>
      <trkpt lat="39.45306" lon="-1.41801">
        <ele>807.954812</ele>
        <time>2022-02-23T12:53:22.493Z</time>
      </trkpt>
      <trkpt lat="39.45291" lon="-1.41831">
        <ele>807.732199</ele>
        <time>2022-02-23T12:53:29.534Z</time>
      </trkpt>
      <trkpt lat="39.45284" lon="-1.41863">
        <ele>807.524225</ele>
        <time>2022-02-23T12:53:36.114Z</time>
      </trkpt>
      <trkpt lat="39.45285" lon="-1.41926">
        <ele>807.139774</ele>
        <time>2022-02-23T12:53:47.745Z</time>
      </trkpt>
      <trkpt lat="39.45278" lon="-1.41967">
        <ele>806.884862</ele>
        <time>2022-02-23T12:53:55.009Z</time>
      </trkpt>
      <trkpt lat="39.45281" lon="-1.41979">
        <ele>806.808841</ele>
        <time>2022-02-23T12:53:57.118Z</time>
      </trkpt>
      <trkpt lat="39.45309" lon="-1.42007">
        <ele>806.532283</ele>
        <time>2022-02-23T12:54:04.241Z</time>
      </trkpt>
      <trkpt lat="39.45311" lon="-1.42019">
        <ele>806.458011</ele>
        <time>2022-02-23T12:54:06.092Z</time>
      </trkpt>
      <trkpt lat="39.45243" lon="-1.42142">
        <ele>803.391178</ele>
        <time>2022-02-23T12:54:27.882Z</time>
      </trkpt>
      <trkpt lat="39.45235" lon="-1.4217">
        <ele>802.636686</ele>
        <time>2022-02-23T12:54:31.814Z</time>
      </trkpt>
      <trkpt lat="39.45246" lon="-1.42182">
        <ele>802.173254</ele>
        <time>2022-02-23T12:54:34.315Z</time>
      </trkpt>
      <trkpt lat="39.45275" lon="-1.42173">
        <ele>801.172169</ele>
        <time>2022-02-23T12:54:39.519Z</time>
      </trkpt>
      <trkpt lat="39.4529" lon="-1.42178">
        <ele>800.663128</ele>
        <time>2022-02-23T12:54:42.206Z</time>
      </trkpt>
      <trkpt lat="39.45291" lon="-1.4222">
        <ele>799.349136</ele>
        <time>2022-02-23T12:54:47.812Z</time>
      </trkpt>
      <trkpt lat="39.45296" lon="-1.42231">
        <ele>798.88746</ele>
        <time>2022-02-23T12:54:49.581Z</time>
      </trkpt>
      <trkpt lat="39.45321" lon="-1.42251">
        <ele>797.633462</ele>
        <time>2022-02-23T12:54:54.556Z</time>
      </trkpt>
      <trkpt lat="39.45322" lon="-1.42263">
        <ele>797.219413</ele>
        <time>2022-02-23T12:54:56.098Z</time>
      </trkpt>
      <trkpt lat="39.45282" lon="-1.42302">
        <ele>795.038338</ele>
        <time>2022-02-23T12:55:04.839Z</time>
      </trkpt>
      <trkpt lat="39.45255" lon="-1.42322">
        <ele>793.657899</ele>
        <time>2022-02-23T12:55:09.981Z</time>
      </trkpt>
      <trkpt lat="39.45214" lon="-1.42316">
        <ele>791.945879</ele>
        <time>2022-02-23T12:55:16.538Z</time>
      </trkpt>
      <trkpt lat="39.4517" lon="-1.42345">
        <ele>790.153132</ele>
        <time>2022-02-23T12:55:25.340Z</time>
      </trkpt>
      <trkpt lat="39.45149" lon="-1.42352">
        <ele>789.369414</ele>
        <time>2022-02-23T12:55:28.753Z</time>
      </trkpt>
      <trkpt lat="39.4512" lon="-1.42348">
        <ele>788.312329</ele>
        <time>2022-02-23T12:55:35.389Z</time>
      </trkpt>
      <trkpt lat="39.45114" lon="-1.42352">
        <ele>788.069921</ele>
        <time>2022-02-23T12:55:36.309Z</time>
      </trkpt>
      <trkpt lat="39.4511" lon="-1.42365">
        <ele>787.676431</ele>
        <time>2022-02-23T12:55:39.696Z</time>
      </trkpt>
      <trkpt lat="39.45115" lon="-1.42386">
        <ele>787.063566</ele>
        <time>2022-02-23T12:55:43.337Z</time>
      </trkpt>
      <trkpt lat="39.45146" lon="-1.4241">
        <ele>785.760128</ele>
        <time>2022-02-23T12:55:49.740Z</time>
      </trkpt>
      <trkpt lat="39.45191" lon="-1.42462">
        <ele>783.942274</ele>
        <time>2022-02-23T12:56:00.626Z</time>
      </trkpt>
      <trkpt lat="39.45207" lon="-1.42465">
        <ele>783.467179</ele>
        <time>2022-02-23T12:56:03.452Z</time>
      </trkpt>
      <trkpt lat="39.45228" lon="-1.42455">
        <ele>782.78077</ele>
        <time>2022-02-23T12:56:07.968Z</time>
      </trkpt>
      <trkpt lat="39.45246" lon="-1.42454">
        <ele>782.261629</ele>
        <time>2022-02-23T12:56:11.764Z</time>
      </trkpt>
      <trkpt lat="39.45253" lon="-1.42464">
        <ele>781.94682</ele>
        <time>2022-02-23T12:56:13.776Z</time>
      </trkpt>
      <trkpt lat="39.45261" lon="-1.42502">
        <ele>781.047005</ele>
        <time>2022-02-23T12:56:19.295Z</time>
      </trkpt>
      <trkpt lat="39.4527" lon="-1.42522">
        <ele>780.500955</ele>
        <time>2022-02-23T12:56:22.329Z</time>
      </trkpt>
      <trkpt lat="39.45317" lon="-1.42525">
        <ele>777.565588</ele>
        <time>2022-02-23T12:56:30.122Z</time>
      </trkpt>
      <trkpt lat="39.45325" lon="-1.42535">
        <ele>776.831704</ele>
        <time>2022-02-23T12:56:31.951Z</time>
      </trkpt>
      <trkpt lat="39.45337" lon="-1.42563">
        <ele>775.233182</ele>
        <time>2022-02-23T12:56:35.992Z</time>
      </trkpt>
      <trkpt lat="39.45365" lon="-1.42595">
        <ele>772.827439</ele>
        <time>2022-02-23T12:56:41.944Z</time>
      </trkpt>
      <trkpt lat="39.45386" lon="-1.4262">
        <ele>771.041398</ele>
        <time>2022-02-23T12:56:46.290Z</time>
      </trkpt>
      <trkpt lat="39.454" lon="-1.42651">
        <ele>769.251086</ele>
        <time>2022-02-23T12:56:50.640Z</time>
      </trkpt>
      <trkpt lat="39.45426" lon="-1.42796">
        <ele>760.182989</ele>
        <time>2022-02-23T12:57:08.065Z</time>
      </trkpt>
      <trkpt lat="39.45427" lon="-1.42887">
        <ele>754.612886</ele>
        <time>2022-02-23T12:57:19.067Z</time>
      </trkpt>
      <trkpt lat="39.45419" lon="-1.42922">
        <ele>752.494958</ele>
        <time>2022-02-23T12:57:23.548Z</time>
      </trkpt>
      <trkpt lat="39.45407" lon="-1.42944">
        <ele>750.993233</ele>
        <time>2022-02-23T12:57:26.718Z</time>
      </trkpt>
      <trkpt lat="39.45345" lon="-1.4302">
        <ele>744.680313</ele>
        <time>2022-02-23T12:57:39.995Z</time>
      </trkpt>
      <trkpt lat="39.45276" lon="-1.43067">
        <ele>738.674756</ele>
        <time>2022-02-23T12:57:52.123Z</time>
      </trkpt>
      <trkpt lat="39.45105" lon="-1.4312">
        <ele>724.659855</ele>
        <time>2022-02-23T12:58:19.199Z</time>
      </trkpt>
      <trkpt lat="39.45032" lon="-1.43187">
        <ele>717.725281</ele>
        <time>2022-02-23T12:58:32.879Z</time>
      </trkpt>
      <trkpt lat="39.44968" lon="-1.43223">
        <ele>712.603715</ele>
        <time>2022-02-23T12:58:43.768Z</time>
      </trkpt>
      <trkpt lat="39.4496" lon="-1.43236">
        <ele>712.041363</ele>
        <time>2022-02-23T12:58:45.960Z</time>
      </trkpt>
      <trkpt lat="39.44954" lon="-1.4327">
        <ele>710.890155</ele>
        <time>2022-02-23T12:58:50.209Z</time>
      </trkpt>
      <trkpt lat="39.44947" lon="-1.43281">
        <ele>710.40962</ele>
        <time>2022-02-23T12:58:52.147Z</time>
      </trkpt>
      <trkpt lat="39.44905" lon="-1.43311">
        <ele>708.342881</ele>
        <time>2022-02-23T12:59:00.218Z</time>
      </trkpt>
      <trkpt lat="39.44835" lon="-1.43388">
        <ele>705.048653</ele>
        <time>2022-02-23T12:59:16.780Z</time>
      </trkpt>
      <trkpt lat="39.4483" lon="-1.4341">
        <ele>704.905062</ele>
        <time>2022-02-23T12:59:20.768Z</time>
      </trkpt>
      <trkpt lat="39.44831" lon="-1.43429">
        <ele>704.788125</ele>
        <time>2022-02-23T12:59:24.374Z</time>
      </trkpt>
      <trkpt lat="39.44845" lon="-1.43489">
        <ele>704.391614</ele>
        <time>2022-02-23T12:59:36.867Z</time>
      </trkpt>
      <trkpt lat="39.44867" lon="-1.43545">
        <ele>704.001752</ele>
        <time>2022-02-23T12:59:48.109Z</time>
      </trkpt>
      <trkpt lat="39.44907" lon="-1.43624">
        <ele>702.209953</ele>
        <time>2022-02-23T13:00:02.920Z</time>
      </trkpt>
      <trkpt lat="39.4494" lon="-1.43712">
        <ele>699.392852</ele>
        <time>2022-02-23T13:00:16.263Z</time>
      </trkpt>
      <trkpt lat="39.44949" lon="-1.43818">
        <ele>695.816918</ele>
        <time>2022-02-23T13:00:29.650Z</time>
      </trkpt>
      <trkpt lat="39.44943" lon="-1.43928">
        <ele>690.335251</ele>
        <time>2022-02-23T13:00:43.197Z</time>
      </trkpt>
      <trkpt lat="39.44951" lon="-1.44013">
        <ele>686.152231</ele>
        <time>2022-02-23T13:00:53.622Z</time>
      </trkpt>
      <trkpt lat="39.44941" lon="-1.44041">
        <ele>684.659816</ele>
        <time>2022-02-23T13:00:57.400Z</time>
      </trkpt>
      <trkpt lat="39.44919" lon="-1.44071">
        <ele>682.61112</ele>
        <time>2022-02-23T13:01:02.710Z</time>
      </trkpt>
      <trkpt lat="39.44881" lon="-1.44083">
        <ele>680.210245</ele>
        <time>2022-02-23T13:01:09.025Z</time>
      </trkpt>
      <trkpt lat="39.44867" lon="-1.44099">
        <ele>679.03913</ele>
        <time>2022-02-23T13:01:12.127Z</time>
      </trkpt>
      <trkpt lat="39.4485" lon="-1.44154">
        <ele>676.194638</ele>
        <time>2022-02-23T13:01:19.600Z</time>
      </trkpt>
      <trkpt lat="39.44853" lon="-1.44224">
        <ele>672.468824</ele>
        <time>2022-02-23T13:01:27.918Z</time>
      </trkpt>
      <trkpt lat="39.44848" lon="-1.44238">
        <ele>671.57956</ele>
        <time>2022-02-23T13:01:29.711Z</time>
      </trkpt>
      <trkpt lat="39.44802" lon="-1.44295">
        <ele>666.72034</ele>
        <time>2022-02-23T13:01:39.576Z</time>
      </trkpt>
      <trkpt lat="39.44784" lon="-1.44305">
        <ele>665.226489</ele>
        <time>2022-02-23T13:01:42.707Z</time>
      </trkpt>
      <trkpt lat="39.44762" lon="-1.44302">
        <ele>663.502796</ele>
        <time>2022-02-23T13:01:46.163Z</time>
      </trkpt>
      <trkpt lat="39.44744" lon="-1.4431">
        <ele>662.100872</ele>
        <time>2022-02-23T13:01:49.041Z</time>
      </trkpt>
      <trkpt lat="39.44718" lon="-1.44342">
        <ele>659.726171</ele>
        <time>2022-02-23T13:01:54.518Z</time>
      </trkpt>
      <trkpt lat="39.44682" lon="-1.44431">
        <ele>655.385773</ele>
        <time>2022-02-23T13:02:06.771Z</time>
      </trkpt>
      <trkpt lat="39.44653" lon="-1.44456">
        <ele>653.453342</ele>
        <time>2022-02-23T13:02:12.531Z</time>
      </trkpt>
      <trkpt lat="39.44614" lon="-1.44476">
        <ele>651.143055</ele>
        <time>2022-02-23T13:02:20.195Z</time>
      </trkpt>
      <trkpt lat="39.44589" lon="-1.44496">
        <ele>650.169725</ele>
        <time>2022-02-23T13:02:25.660Z</time>
      </trkpt>
      <trkpt lat="39.44562" lon="-1.44554">
        <ele>649.033584</ele>
        <time>2022-02-23T13:02:35.222Z</time>
      </trkpt>
      <trkpt lat="39.44401" lon="-1.44631">
        <ele>646.32609</ele>
        <time>2022-02-23T13:03:09.038Z</time>
      </trkpt>
      <trkpt lat="39.44393" lon="-1.44642">
        <ele>646.250083</ele>
        <time>2022-02-23T13:03:11.622Z</time>
      </trkpt>
      <trkpt lat="39.44369" lon="-1.44708">
        <ele>645.899169</ele>
        <time>2022-02-23T13:03:24.027Z</time>
      </trkpt>
      <trkpt lat="39.44342" lon="-1.44745">
        <ele>645.65271</ele>
        <time>2022-02-23T13:03:33.384Z</time>
      </trkpt>
      <trkpt lat="39.44292" lon="-1.44741">
        <ele>645.832737</ele>
        <time>2022-02-23T13:03:46.531Z</time>
      </trkpt>
      <trkpt lat="39.44233" lon="-1.44768">
        <ele>646.17309</ele>
        <time>2022-02-23T13:04:03.693Z</time>
      </trkpt>
      <trkpt lat="39.44224" lon="-1.44767">
        <ele>646.22278</ele>
        <time>2022-02-23T13:04:06.217Z</time>
      </trkpt>
      <trkpt lat="39.44205" lon="-1.44741">
        <ele>646.370874</ele>
        <time>2022-02-23T13:04:13.514Z</time>
      </trkpt>
      <trkpt lat="39.44195" lon="-1.44741">
        <ele>646.427406</ele>
        <time>2022-02-23T13:04:16.222Z</time>
      </trkpt>
      <trkpt lat="39.44132" lon="-1.44784">
        <ele>646.144564</ele>
        <time>2022-02-23T13:04:33.338Z</time>
      </trkpt>
      <trkpt lat="39.44088" lon="-1.44821">
        <ele>645.590782</ele>
        <time>2022-02-23T13:04:44.576Z</time>
      </trkpt>
      <trkpt lat="39.44053" lon="-1.44839">
        <ele>645.199173</ele>
        <time>2022-02-23T13:04:52.063Z</time>
      </trkpt>
      <trkpt lat="39.44014" lon="-1.44849">
        <ele>644.778812</ele>
        <time>2022-02-23T13:04:59.797Z</time>
      </trkpt>
      <trkpt lat="39.43988" lon="-1.44892">
        <ele>643.62226</ele>
        <time>2022-02-23T13:05:07.606Z</time>
      </trkpt>
      <trkpt lat="39.43966" lon="-1.44959">
        <ele>641.86156</ele>
        <time>2022-02-23T13:05:17.624Z</time>
      </trkpt>
      <trkpt lat="39.43928" lon="-1.44964">
        <ele>640.684664</ele>
        <time>2022-02-23T13:05:24.193Z</time>
      </trkpt>
      <trkpt lat="39.43908" lon="-1.44974">
        <ele>640.006161</ele>
        <time>2022-02-23T13:05:27.978Z</time>
      </trkpt>
      <trkpt lat="39.43892" lon="-1.44986">
        <ele>639.420932</ele>
        <time>2022-02-23T13:05:31.265Z</time>
      </trkpt>
      <trkpt lat="39.43873" lon="-1.45012">
        <ele>638.658574</ele>
        <time>2022-02-23T13:05:36.127Z</time>
      </trkpt>
      <trkpt lat="39.43822" lon="-1.45021">
        <ele>637.346364</ele>
        <time>2022-02-23T13:05:45.491Z</time>
      </trkpt>
      <trkpt lat="39.43812" lon="-1.45031">
        <ele>637.024032</ele>
        <time>2022-02-23T13:05:47.847Z</time>
      </trkpt>
      <trkpt lat="39.43792" lon="-1.45076">
        <ele>636.006682</ele>
        <time>2022-02-23T13:05:55.339Z</time>
      </trkpt>
      <trkpt lat="39.43784" lon="-1.45083">
        <ele>635.755703</ele>
        <time>2022-02-23T13:05:57.224Z</time>
      </trkpt>
      <trkpt lat="39.4377" lon="-1.4508">
        <ele>635.408413</ele>
        <time>2022-02-23T13:05:59.855Z</time>
      </trkpt>
      <trkpt lat="39.43755" lon="-1.45039">
        <ele>634.502934</ele>
        <time>2022-02-23T13:06:06.866Z</time>
      </trkpt>
      <trkpt lat="39.43735" lon="-1.4501">
        <ele>633.597731</ele>
        <time>2022-02-23T13:06:12.644Z</time>
      </trkpt>
      <trkpt lat="39.43691" lon="-1.45004">
        <ele>632.216502</ele>
        <time>2022-02-23T13:06:20.888Z</time>
      </trkpt>
      <trkpt lat="39.43683" lon="-1.44953">
        <ele>630.974757</ele>
        <time>2022-02-23T13:06:28.160Z</time>
      </trkpt>
      <trkpt lat="39.43658" lon="-1.44932">
        <ele>630.045789</ele>
        <time>2022-02-23T13:06:33.415Z</time>
      </trkpt>
      <trkpt lat="39.43646" lon="-1.449">
        <ele>629.18067</ele>
        <time>2022-02-23T13:06:38.208Z</time>
      </trkpt>
      <trkpt lat="39.43615" lon="-1.44861">
        <ele>627.477029</ele>
        <time>2022-02-23T13:06:45.368Z</time>
      </trkpt>
      <trkpt lat="39.43597" lon="-1.44803">
        <ele>625.412341</ele>
        <time>2022-02-23T13:06:53.513Z</time>
      </trkpt>
      <trkpt lat="39.43568" lon="-1.44768">
        <ele>623.695438</ele>
        <time>2022-02-23T13:07:00.291Z</time>
      </trkpt>
      <trkpt lat="39.43558" lon="-1.44762">
        <ele>623.245552</ele>
        <time>2022-02-23T13:07:02.066Z</time>
      </trkpt>
      <trkpt lat="39.43547" lon="-1.44765">
        <ele>622.751755</ele>
        <time>2022-02-23T13:07:03.986Z</time>
      </trkpt>
      <trkpt lat="39.43511" lon="-1.44803">
        <ele>621.08449</ele>
        <time>2022-02-23T13:07:12.098Z</time>
      </trkpt>
      <trkpt lat="39.43501" lon="-1.44863">
        <ele>620.406116</ele>
        <time>2022-02-23T13:07:20.908Z</time>
      </trkpt>
      <trkpt lat="39.43489" lon="-1.4489">
        <ele>620.05385</ele>
        <time>2022-02-23T13:07:25.673Z</time>
      </trkpt>
      <trkpt lat="39.43466" lon="-1.44895">
        <ele>619.719188</ele>
        <time>2022-02-23T13:07:30.319Z</time>
      </trkpt>
      <trkpt lat="39.43394" lon="-1.44867">
        <ele>618.650467</ele>
        <time>2022-02-23T13:07:47.087Z</time>
      </trkpt>
      <trkpt lat="39.43377" lon="-1.44869">
        <ele>618.707706</ele>
        <time>2022-02-23T13:07:51.815Z</time>
      </trkpt>
      <trkpt lat="39.4337" lon="-1.44878">
        <ele>618.741942</ele>
        <time>2022-02-23T13:07:54.387Z</time>
      </trkpt>
      <trkpt lat="39.43336" lon="-1.44958">
        <ele>618.979626</ele>
        <time>2022-02-23T13:08:13.973Z</time>
      </trkpt>
      <trkpt lat="39.43307" lon="-1.44982">
        <ele>619.093117</ele>
        <time>2022-02-23T13:08:22.843Z</time>
      </trkpt>
      <trkpt lat="39.43296" lon="-1.45021">
        <ele>619.200933</ele>
        <time>2022-02-23T13:08:30.584Z</time>
      </trkpt>
      <trkpt lat="39.43272" lon="-1.45071">
        <ele>618.838837</ele>
        <time>2022-02-23T13:08:40.450Z</time>
      </trkpt>
      <trkpt lat="39.43214" lon="-1.45103">
        <ele>617.956124</ele>
        <time>2022-02-23T13:08:53.653Z</time>
      </trkpt>
      <trkpt lat="39.43179" lon="-1.45115">
        <ele>617.456902</ele>
        <time>2022-02-23T13:09:00.741Z</time>
      </trkpt>
      <trkpt lat="39.43167" lon="-1.45127">
        <ele>617.243669</ele>
        <time>2022-02-23T13:09:03.602Z</time>
      </trkpt>
      <trkpt lat="39.43151" lon="-1.45201">
        <ele>616.457991</ele>
        <time>2022-02-23T13:09:14.530Z</time>
      </trkpt>
      <trkpt lat="39.43129" lon="-1.45278">
        <ele>615.675588</ele>
        <time>2022-02-23T13:09:26.720Z</time>
      </trkpt>
      <trkpt lat="39.43086" lon="-1.45391">
        <ele>614.565028</ele>
        <time>2022-02-23T13:09:47.711Z</time>
      </trkpt>
      <trkpt lat="39.4306" lon="-1.45448">
        <ele>614.793621</ele>
        <time>2022-02-23T13:10:01.983Z</time>
      </trkpt>
      <trkpt lat="39.43054" lon="-1.45517">
        <ele>615.0321</ele>
        <time>2022-02-23T13:10:16.757Z</time>
      </trkpt>
      <trkpt lat="39.43006" lon="-1.45598">
        <ele>615.280086</ele>
        <time>2022-02-23T13:10:37.350Z</time>
      </trkpt>
      <trkpt lat="39.42984" lon="-1.45631">
        <ele>615.020783</ele>
        <time>2022-02-23T13:10:44.942Z</time>
      </trkpt>
      <trkpt lat="39.42962" lon="-1.45653">
        <ele>614.811241</ele>
        <time>2022-02-23T13:10:50.848Z</time>
      </trkpt>
      <trkpt lat="39.42903" lon="-1.45713">
        <ele>614.239209</ele>
        <time>2022-02-23T13:11:06.491Z</time>
      </trkpt>
      <trkpt lat="39.42877" lon="-1.45724">
        <ele>614.033604</ele>
        <time>2022-02-23T13:11:11.872Z</time>
      </trkpt>
      <trkpt lat="39.42811" lon="-1.45707">
        <ele>613.008468</ele>
        <time>2022-02-23T13:11:25.251Z</time>
      </trkpt>
      <trkpt lat="39.4275" lon="-1.45668">
        <ele>611.92938</ele>
        <time>2022-02-23T13:11:38.819Z</time>
      </trkpt>
      <trkpt lat="39.42712" lon="-1.45675">
        <ele>611.317195</ele>
        <time>2022-02-23T13:11:46.642Z</time>
      </trkpt>
      <trkpt lat="39.42572" lon="-1.45819">
        <ele>606.408564</ele>
        <time>2022-02-23T13:12:19.853Z</time>
      </trkpt>
      <trkpt lat="39.4255" lon="-1.45861">
        <ele>604.763827</ele>
        <time>2022-02-23T13:12:26.690Z</time>
      </trkpt>
      <trkpt lat="39.42528" lon="-1.4593">
        <ele>601.858499</ele>
        <time>2022-02-23T13:12:35.954Z</time>
      </trkpt>
      <trkpt lat="39.42483" lon="-1.46029">
        <ele>597.425226</ele>
        <time>2022-02-23T13:12:50.611Z</time>
      </trkpt>
      <trkpt lat="39.42478" lon="-1.46051">
        <ele>596.639748</ele>
        <time>2022-02-23T13:12:53.395Z</time>
      </trkpt>
      <trkpt lat="39.4249" lon="-1.46116">
        <ele>594.654309</ele>
        <time>2022-02-23T13:13:02.481Z</time>
      </trkpt>
      <trkpt lat="39.4249" lon="-1.46139">
        <ele>593.959925</ele>
        <time>2022-02-23T13:13:05.486Z</time>
      </trkpt>
      <trkpt lat="39.42482" lon="-1.46163">
        <ele>593.208556</ele>
        <time>2022-02-23T13:13:09.205Z</time>
      </trkpt>
      <trkpt lat="39.42457" lon="-1.46206">
        <ele>591.59756</ele>
        <time>2022-02-23T13:13:16.445Z</time>
      </trkpt>
      <trkpt lat="39.42452" lon="-1.46228">
        <ele>590.922226</ele>
        <time>2022-02-23T13:13:19.406Z</time>
      </trkpt>
      <trkpt lat="39.42441" lon="-1.46329">
        <ele>588.779705</ele>
        <time>2022-02-23T13:13:34.623Z</time>
      </trkpt>
      <trkpt lat="39.42424" lon="-1.46414">
        <ele>587.22569</ele>
        <time>2022-02-23T13:13:47.448Z</time>
      </trkpt>
      <trkpt lat="39.42422" lon="-1.4653">
        <ele>585.33962</ele>
        <time>2022-02-23T13:14:04.325Z</time>
      </trkpt>
      <trkpt lat="39.42373" lon="-1.46654">
        <ele>583.422651</ele>
        <time>2022-02-23T13:14:25.327Z</time>
      </trkpt>
      <trkpt lat="39.42344" lon="-1.46697">
        <ele>582.712705</ele>
        <time>2022-02-23T13:14:34.158Z</time>
      </trkpt>
      <trkpt lat="39.42331" lon="-1.46708">
        <ele>582.607781</ele>
        <time>2022-02-23T13:14:37.231Z</time>
      </trkpt>
      <trkpt lat="39.42294" lon="-1.46721">
        <ele>582.341381</ele>
        <time>2022-02-23T13:14:45.141Z</time>
      </trkpt>
      <trkpt lat="39.42227" lon="-1.46735">
        <ele>581.865992</ele>
        <time>2022-02-23T13:14:59.779Z</time>
      </trkpt>
      <trkpt lat="39.42199" lon="-1.46748">
        <ele>581.653388</ele>
        <time>2022-02-23T13:15:06.542Z</time>
      </trkpt>
      <trkpt lat="39.42171" lon="-1.46771">
        <ele>581.47246</ele>
        <time>2022-02-23T13:15:14.072Z</time>
      </trkpt>
      <trkpt lat="39.42105" lon="-1.46877">
        <ele>581.218184</ele>
        <time>2022-02-23T13:15:38.464Z</time>
      </trkpt>
      <trkpt lat="39.4203" lon="-1.4703">
        <ele>579.99852</ele>
        <time>2022-02-23T13:16:08.889Z</time>
      </trkpt>
      <trkpt lat="39.42003" lon="-1.47102">
        <ele>579.13619</ele>
        <time>2022-02-23T13:16:20.838Z</time>
      </trkpt>
      <trkpt lat="39.4199" lon="-1.47117">
        <ele>578.889392</ele>
        <time>2022-02-23T13:16:24.173Z</time>
      </trkpt>
      <trkpt lat="39.41954" lon="-1.47139">
        <ele>577.948378</ele>
        <time>2022-02-23T13:16:31.761Z</time>
      </trkpt>
      <trkpt lat="39.4193" lon="-1.47163">
        <ele>576.744189</ele>
        <time>2022-02-23T13:16:37.480Z</time>
      </trkpt>
      <trkpt lat="39.41889" lon="-1.472">
        <ele>574.77152</ele>
        <time>2022-02-23T13:16:46.741Z</time>
      </trkpt>
      <trkpt lat="39.41839" lon="-1.47308">
        <ele>570.402052</ele>
        <time>2022-02-23T13:17:02.766Z</time>
      </trkpt>
      <trkpt lat="39.41834" lon="-1.47343">
        <ele>568.064588</ele>
        <time>2022-02-23T13:17:07.132Z</time>
      </trkpt>
      <trkpt lat="39.4184" lon="-1.47427">
        <ele>562.605818</ele>
        <time>2022-02-23T13:17:17.074Z</time>
      </trkpt>
      <trkpt lat="39.41829" lon="-1.47482">
        <ele>558.992483</ele>
        <time>2022-02-23T13:17:23.521Z</time>
      </trkpt>
      <trkpt lat="39.41814" lon="-1.47539">
        <ele>555.231831</ele>
        <time>2022-02-23T13:17:30.396Z</time>
      </trkpt>
      <trkpt lat="39.41755" lon="-1.47766">
        <ele>542.450169</ele>
        <time>2022-02-23T13:17:59.201Z</time>
      </trkpt>
      <trkpt lat="39.41741" lon="-1.47822">
        <ele>541.413159</ele>
        <time>2022-02-23T13:18:08.171Z</time>
      </trkpt>
      <trkpt lat="39.41738" lon="-1.47862">
        <ele>540.725668</ele>
        <time>2022-02-23T13:18:14.514Z</time>
      </trkpt>
      <trkpt lat="39.41696" lon="-1.47947">
        <ele>538.964068</ele>
        <time>2022-02-23T13:18:31.545Z</time>
      </trkpt>
      <trkpt lat="39.4168" lon="-1.48017">
        <ele>536.674678</ele>
        <time>2022-02-23T13:18:43.362Z</time>
      </trkpt>
      <trkpt lat="39.41685" lon="-1.48045">
        <ele>535.744307</ele>
        <time>2022-02-23T13:18:47.470Z</time>
      </trkpt>
      <trkpt lat="39.41702" lon="-1.48056">
        <ele>534.933977</ele>
        <time>2022-02-23T13:18:50.778Z</time>
      </trkpt>
      <trkpt lat="39.41741" lon="-1.48058">
        <ele>533.300805</ele>
        <time>2022-02-23T13:18:57.147Z</time>
      </trkpt>
      <trkpt lat="39.41784" lon="-1.48031">
        <ele>531.265146</ele>
        <time>2022-02-23T13:19:04.576Z</time>
      </trkpt>
      <trkpt lat="39.41808" lon="-1.48025">
        <ele>529.612648</ele>
        <time>2022-02-23T13:19:08.435Z</time>
      </trkpt>
      <trkpt lat="39.41922" lon="-1.48049">
        <ele>521.831936</ele>
        <time>2022-02-23T13:19:26.492Z</time>
      </trkpt>
      <trkpt lat="39.41958" lon="-1.48052">
        <ele>519.373168</ele>
        <time>2022-02-23T13:19:32.352Z</time>
      </trkpt>
      <trkpt lat="39.41963" lon="-1.4806">
        <ele>519.00579</ele>
        <time>2022-02-23T13:19:33.572Z</time>
      </trkpt>
      <trkpt lat="39.4196" lon="-1.48068">
        <ele>518.715532</ele>
        <time>2022-02-23T13:19:34.786Z</time>
      </trkpt>
      <trkpt lat="39.41906" lon="-1.48088">
        <ele>516.418306</ele>
        <time>2022-02-23T13:19:44.329Z</time>
      </trkpt>
      <trkpt lat="39.41856" lon="-1.48134">
        <ele>513.937714</ele>
        <time>2022-02-23T13:19:56.105Z</time>
      </trkpt>
      <trkpt lat="39.41844" lon="-1.4815">
        <ele>513.245102</ele>
        <time>2022-02-23T13:19:58.974Z</time>
      </trkpt>
      <trkpt lat="39.41844" lon="-1.4816">
        <ele>512.919915</ele>
        <time>2022-02-23T13:20:00.400Z</time>
      </trkpt>
      <trkpt lat="39.4185" lon="-1.48164">
        <ele>512.631233</ele>
        <time>2022-02-23T13:20:01.647Z</time>
      </trkpt>
      <trkpt lat="39.41925" lon="-1.48128">
        <ele>509.223886</ele>
        <time>2022-02-23T13:20:15.075Z</time>
      </trkpt>
      <trkpt lat="39.42005" lon="-1.48106">
        <ele>505.664813</ele>
        <time>2022-02-23T13:20:28.889Z</time>
      </trkpt>
      <trkpt lat="39.42049" lon="-1.48016">
        <ele>502.554985</ele>
        <time>2022-02-23T13:20:43.194Z</time>
      </trkpt>
      <trkpt lat="39.42078" lon="-1.47985">
        <ele>501.296064</ele>
        <time>2022-02-23T13:20:49.991Z</time>
      </trkpt>
      <trkpt lat="39.42094" lon="-1.47982">
        <ele>500.752098</ele>
        <time>2022-02-23T13:20:53.058Z</time>
      </trkpt>
      <trkpt lat="39.42094" lon="-1.48003">
        <ele>500.206053</ele>
        <time>2022-02-23T13:20:56.029Z</time>
      </trkpt>
      <trkpt lat="39.42075" lon="-1.48029">
        <ele>499.281918</ele>
        <time>2022-02-23T13:21:01.247Z</time>
      </trkpt>
      <trkpt lat="39.4206" lon="-1.48065">
        <ele>498.237118</ele>
        <time>2022-02-23T13:21:06.837Z</time>
      </trkpt>
      <trkpt lat="39.42059" lon="-1.48113">
        <ele>496.825818</ele>
        <time>2022-02-23T13:21:13.356Z</time>
      </trkpt>
      <trkpt lat="39.42063" lon="-1.48145">
        <ele>495.878252</ele>
        <time>2022-02-23T13:21:17.665Z</time>
      </trkpt>
      <trkpt lat="39.42146" lon="-1.48215">
        <ele>492.125645</ele>
        <time>2022-02-23T13:21:34.699Z</time>
      </trkpt>
      <trkpt lat="39.42228" lon="-1.48266">
        <ele>489.790762</ele>
        <time>2022-02-23T13:21:50.780Z</time>
      </trkpt>
      <trkpt lat="39.42266" lon="-1.48306">
        <ele>488.712752</ele>
        <time>2022-02-23T13:22:00.222Z</time>
      </trkpt>
      <trkpt lat="39.42293" lon="-1.4834">
        <ele>487.877719</ele>
        <time>2022-02-23T13:22:08.207Z</time>
      </trkpt>
      <trkpt lat="39.42306" lon="-1.48363">
        <ele>487.39265</ele>
        <time>2022-02-23T13:22:12.793Z</time>
      </trkpt>
      <trkpt lat="39.42328" lon="-1.48384">
        <ele>487.046761</ele>
        <time>2022-02-23T13:22:18.432Z</time>
      </trkpt>
      <trkpt lat="39.42337" lon="-1.48409">
        <ele>486.788124</ele>
        <time>2022-02-23T13:22:22.951Z</time>
      </trkpt>
      <trkpt lat="39.42338" lon="-1.48467">
        <ele>486.25867</ele>
        <time>2022-02-23T13:22:31.973Z</time>
      </trkpt>
      <trkpt lat="39.42352" lon="-1.48609">
        <ele>485.037208</ele>
        <time>2022-02-23T13:22:54.396Z</time>
      </trkpt>
      <trkpt lat="39.4234" lon="-1.48641">
        <ele>484.831257</ele>
        <time>2022-02-23T13:23:00.068Z</time>
      </trkpt>
      <trkpt lat="39.42331" lon="-1.48698">
        <ele>484.500018</ele>
        <time>2022-02-23T13:23:09.405Z</time>
      </trkpt>
      <trkpt lat="39.42312" lon="-1.48765">
        <ele>484.091554</ele>
        <time>2022-02-23T13:23:21.428Z</time>
      </trkpt>
      <trkpt lat="39.42293" lon="-1.48822">
        <ele>483.943618</ele>
        <time>2022-02-23T13:23:32.335Z</time>
      </trkpt>
      <trkpt lat="39.423" lon="-1.4887">
        <ele>484.111422</ele>
        <time>2022-02-23T13:23:41.373Z</time>
      </trkpt>
      <trkpt lat="39.42279" lon="-1.48891">
        <ele>484.224379</ele>
        <time>2022-02-23T13:23:47.800Z</time>
      </trkpt>
      <trkpt lat="39.42272" lon="-1.48907">
        <ele>484.28876</ele>
        <time>2022-02-23T13:23:51.441Z</time>
      </trkpt>
      <trkpt lat="39.4227" lon="-1.48997">
        <ele>484.594655</ele>
        <time>2022-02-23T13:24:09.692Z</time>
      </trkpt>
      <trkpt lat="39.42275" lon="-1.49021">
        <ele>484.711187</ele>
        <time>2022-02-23T13:24:15.084Z</time>
      </trkpt>
      <trkpt lat="39.42286" lon="-1.49028">
        <ele>484.84948</ele>
        <time>2022-02-23T13:24:18.407Z</time>
      </trkpt>
      <trkpt lat="39.42285" lon="-1.49047">
        <ele>485.02379</ele>
        <time>2022-02-23T13:24:22.727Z</time>
      </trkpt>
      <trkpt lat="39.42272" lon="-1.49058">
        <ele>485.199605</ele>
        <time>2022-02-23T13:24:27.264Z</time>
      </trkpt>
      <trkpt lat="39.42234" lon="-1.49064">
        <ele>485.651667</ele>
        <time>2022-02-23T13:24:38.830Z</time>
      </trkpt>
      <trkpt lat="39.42221" lon="-1.49074">
        <ele>485.83055</ele>
        <time>2022-02-23T13:24:43.327Z</time>
      </trkpt>
      <trkpt lat="39.42166" lon="-1.49176">
        <ele>486.834628</ele>
        <time>2022-02-23T13:25:11.945Z</time>
      </trkpt>
      <trkpt lat="39.42103" lon="-1.49273">
        <ele>487.233172</ele>
        <time>2022-02-23T13:25:37.608Z</time>
      </trkpt>
      <trkpt lat="39.42079" lon="-1.49301">
        <ele>487.366009</ele>
        <time>2022-02-23T13:25:45.322Z</time>
      </trkpt>
      <trkpt lat="39.42054" lon="-1.49347">
        <ele>487.431054</ele>
        <time>2022-02-23T13:25:54.933Z</time>
      </trkpt>
      <trkpt lat="39.41995" lon="-1.49419">
        <ele>486.853037</ele>
        <time>2022-02-23T13:26:12.182Z</time>
      </trkpt>
      <trkpt lat="39.41985" lon="-1.49443">
        <ele>486.702</ele>
        <time>2022-02-23T13:26:16.587Z</time>
      </trkpt>
      <trkpt lat="39.41953" lon="-1.49474">
        <ele>486.422476</ele>
        <time>2022-02-23T13:26:24.826Z</time>
      </trkpt>
      <trkpt lat="39.41936" lon="-1.49499">
        <ele>486.238355</ele>
        <time>2022-02-23T13:26:30.318Z</time>
      </trkpt>
      <trkpt lat="39.41886" lon="-1.49522">
        <ele>485.905345</ele>
        <time>2022-02-23T13:26:41.702Z</time>
      </trkpt>
      <trkpt lat="39.41754" lon="-1.49608">
        <ele>485.017073</ele>
        <time>2022-02-23T13:27:13.785Z</time>
      </trkpt>
      <trkpt lat="39.41697" lon="-1.49634">
        <ele>484.724715</ele>
        <time>2022-02-23T13:27:26.984Z</time>
      </trkpt>
      <trkpt lat="39.4166" lon="-1.49677">
        <ele>484.482895</ele>
        <time>2022-02-23T13:27:38.171Z</time>
      </trkpt>
      <trkpt lat="39.41645" lon="-1.49709">
        <ele>484.343996</ele>
        <time>2022-02-23T13:27:44.458Z</time>
      </trkpt>
      <trkpt lat="39.41602" lon="-1.49872">
        <ele>484.73254</ele>
        <time>2022-02-23T13:28:31.481Z</time>
      </trkpt>
      <trkpt lat="39.41597" lon="-1.49916">
        <ele>484.886035</ele>
        <time>2022-02-23T13:28:44.190Z</time>
      </trkpt>
      <trkpt lat="39.41591" lon="-1.49935">
        <ele>484.957226</ele>
        <time>2022-02-23T13:28:51.790Z</time>
      </trkpt>
      <trkpt lat="39.41595" lon="-1.49971">
        <ele>485.407271</ele>
        <time>2022-02-23T13:29:06.428Z</time>
      </trkpt>
      <trkpt lat="39.4159" lon="-1.49977">
        <ele>485.677875</ele>
        <time>2022-02-23T13:29:10.497Z</time>
      </trkpt>
      <trkpt lat="39.41586" lon="-1.49972">
        <ele>485.911857</ele>
        <time>2022-02-23T13:29:14.009Z</time>
      </trkpt>
      <trkpt lat="39.41579" lon="-1.49917">
        <ele>487.610511</ele>
        <time>2022-02-23T13:29:39.130Z</time>
      </trkpt>
      <trkpt lat="39.41572" lon="-1.49913">
        <ele>487.908798</ele>
        <time>2022-02-23T13:29:42.971Z</time>
      </trkpt>
      <trkpt lat="39.41559" lon="-1.49917">
        <ele>488.413379</ele>
        <time>2022-02-23T13:29:50.213Z</time>
      </trkpt>
      <trkpt lat="39.41548" lon="-1.49921">
        <ele>488.88623</ele>
        <time>2022-02-23T13:29:56.890Z</time>
      </trkpt>
      <trkpt lat="39.41536" lon="-1.49929">
        <ele>489.41388</ele>
        <time>2022-02-23T13:30:04.072Z</time>
      </trkpt>
      <trkpt lat="39.41513" lon="-1.49953">
        <ele>490.576949</ele>
        <time>2022-02-23T13:30:21.919Z</time>
      </trkpt>
      <trkpt lat="39.41495" lon="-1.49974">
        <ele>491.536254</ele>
        <time>2022-02-23T13:30:36.892Z</time>
      </trkpt>
      <trkpt lat="39.4149" lon="-1.49982">
        <ele>491.845003</ele>
        <time>2022-02-23T13:30:41.886Z</time>
      </trkpt>
      <trkpt lat="39.41498" lon="-1.50043">
        <ele>493.99756</ele>
        <time>2022-02-23T13:31:03.798Z</time>
      </trkpt>
      <trkpt lat="39.41513" lon="-1.50079">
        <ele>495.474812</ele>
        <time>2022-02-23T13:31:19.206Z</time>
      </trkpt>
      <trkpt lat="39.41533" lon="-1.50152">
        <ele>498.23516</ele>
        <time>2022-02-23T13:31:48.721Z</time>
      </trkpt>
      <trkpt lat="39.41557" lon="-1.50328">
        <ele>504.324724</ele>
        <time>2022-02-23T13:32:47.280Z</time>
      </trkpt>
      <trkpt lat="39.41553" lon="-1.5034">
        <ele>504.761616</ele>
        <time>2022-02-23T13:32:56.318Z</time>
      </trkpt>
      <trkpt lat="39.41533" lon="-1.50369">
        <ele>506.045892</ele>
        <time>2022-02-23T13:33:05.419Z</time>
      </trkpt>
      <trkpt lat="39.4153" lon="-1.50381">
        <ele>506.468797</ele>
        <time>2022-02-23T13:33:11.824Z</time>
      </trkpt>
      <trkpt lat="39.41537" lon="-1.50394">
        <ele>507.002284</ele>
        <time>2022-02-23T13:33:14.819Z</time>
      </trkpt>
      <trkpt lat="39.41559" lon="-1.5039">
        <ele>507.958377</ele>
        <time>2022-02-23T13:33:27.137Z</time>
      </trkpt>
      <trkpt lat="39.41568" lon="-1.50393">
        <ele>508.365201</ele>
        <time>2022-02-23T13:33:30.099Z</time>
      </trkpt>
      <trkpt lat="39.41576" lon="-1.50404">
        <ele>508.851927</ele>
        <time>2022-02-23T13:33:32.598Z</time>
      </trkpt>
      <trkpt lat="39.41602" lon="-1.50476">
        <ele>511.489593</ele>
        <time>2022-02-23T13:34:07.415Z</time>
      </trkpt>
      <trkpt lat="39.41602" lon="-1.50486">
        <ele>511.816356</ele>
        <time>2022-02-23T13:34:09.753Z</time>
      </trkpt>
      <trkpt lat="39.41592" lon="-1.50496">
        <ele>512.358618</ele>
        <time>2022-02-23T13:34:15.108Z</time>
      </trkpt>
      <trkpt lat="39.41574" lon="-1.50494">
        <ele>513.112643</ele>
        <time>2022-02-23T13:34:22.006Z</time>
      </trkpt>
      <trkpt lat="39.41549" lon="-1.50445">
        <ele>515.072062</ele>
        <time>2022-02-23T13:34:39.180Z</time>
      </trkpt>
      <trkpt lat="39.41538" lon="-1.50436">
        <ele>515.610369</ele>
        <time>2022-02-23T13:34:44.768Z</time>
      </trkpt>
      <trkpt lat="39.4147" lon="-1.5042">
        <ele>519.919974</ele>
        <time>2022-02-23T13:35:17.617Z</time>
      </trkpt>
      <trkpt lat="39.41443" lon="-1.50375">
        <ele>522.646346</ele>
        <time>2022-02-23T13:35:43.532Z</time>
      </trkpt>
      <trkpt lat="39.41439" lon="-1.50362">
        <ele>523.375513</ele>
        <time>2022-02-23T13:35:50.941Z</time>
      </trkpt>
      <trkpt lat="39.41441" lon="-1.50345">
        <ele>524.184851</ele>
        <time>2022-02-23T13:35:58.229Z</time>
      </trkpt>
      <trkpt lat="39.41459" lon="-1.50305">
        <ele>526.472543</ele>
        <time>2022-02-23T13:36:20.844Z</time>
      </trkpt>
      <trkpt lat="39.41472" lon="-1.50259">
        <ele>528.851391</ele>
        <time>2022-02-23T13:36:43.676Z</time>
      </trkpt>
      <trkpt lat="39.41473" lon="-1.50231">
        <ele>530.231437</ele>
        <time>2022-02-23T13:36:57.141Z</time>
      </trkpt>
      <trkpt lat="39.41447" lon="-1.50194">
        <ele>532.680139</ele>
        <time>2022-02-23T13:37:18.440Z</time>
      </trkpt>
      <trkpt lat="39.41433" lon="-1.5018">
        <ele>533.832276</ele>
        <time>2022-02-23T13:37:27.900Z</time>
      </trkpt>
      <trkpt lat="39.41389" lon="-1.50155">
        <ele>536.857621</ele>
        <time>2022-02-23T13:37:54.631Z</time>
      </trkpt>
      <trkpt lat="39.41376" lon="-1.50133">
        <ele>538.164509</ele>
        <time>2022-02-23T13:38:05.075Z</time>
      </trkpt>
      <trkpt lat="39.41374" lon="-1.50096">
        <ele>539.120843</ele>
        <time>2022-02-23T13:38:19.454Z</time>
      </trkpt>
      <trkpt lat="39.41377" lon="-1.5005">
        <ele>539.968141</ele>
        <time>2022-02-23T13:38:33.975Z</time>
      </trkpt>
      <trkpt lat="39.41366" lon="-1.49993">
        <ele>541.026333</ele>
        <time>2022-02-23T13:38:48.590Z</time>
      </trkpt>
      <trkpt lat="39.41358" lon="-1.49915">
        <ele>542.459897</ele>
        <time>2022-02-23T13:39:05.517Z</time>
      </trkpt>
      <trkpt lat="39.41359" lon="-1.49863">
        <ele>543.226253</ele>
        <time>2022-02-23T13:39:15.172Z</time>
      </trkpt>
      <trkpt lat="39.41345" lon="-1.49787">
        <ele>544.185092</ele>
        <time>2022-02-23T13:39:32.389Z</time>
      </trkpt>
      <trkpt lat="39.41339" lon="-1.49782">
        <ele>544.298747</ele>
        <time>2022-02-23T13:39:35.273Z</time>
      </trkpt>
      <trkpt lat="39.41332" lon="-1.49782">
        <ele>544.411966</ele>
        <time>2022-02-23T13:39:37.164Z</time>
      </trkpt>
      <trkpt lat="39.41328" lon="-1.4979">
        <ele>544.525995</ele>
        <time>2022-02-23T13:39:39.410Z</time>
      </trkpt>
      <trkpt lat="39.41331" lon="-1.49889">
        <ele>545.790214</ele>
        <time>2022-02-23T13:40:05.368Z</time>
      </trkpt>
      <trkpt lat="39.41333" lon="-1.49972">
        <ele>547.981164</ele>
        <time>2022-02-23T13:40:29.252Z</time>
      </trkpt>
      <trkpt lat="39.4133" lon="-1.49985">
        <ele>548.335526</ele>
        <time>2022-02-23T13:40:33.153Z</time>
      </trkpt>
      <trkpt lat="39.41314" lon="-1.50014">
        <ele>549.296896</ele>
        <time>2022-02-23T13:40:44.609Z</time>
      </trkpt>
      <trkpt lat="39.41254" lon="-1.50053">
        <ele>551.587354</ele>
        <time>2022-02-23T13:41:14.239Z</time>
      </trkpt>
      <trkpt lat="39.4121" lon="-1.50064">
        <ele>553.499602</ele>
        <time>2022-02-23T13:41:33.719Z</time>
      </trkpt>
      <trkpt lat="39.4115" lon="-1.50155">
        <ele>557.679955</ele>
        <time>2022-02-23T13:42:14.739Z</time>
      </trkpt>
      <trkpt lat="39.411" lon="-1.50171">
        <ele>559.997049</ele>
        <time>2022-02-23T13:42:39.623Z</time>
      </trkpt>
      <trkpt lat="39.41049" lon="-1.50195">
        <ele>563.086748</ele>
        <time>2022-02-23T13:43:06.591Z</time>
      </trkpt>
      <trkpt lat="39.41032" lon="-1.50214">
        <ele>564.408297</ele>
        <time>2022-02-23T13:43:18.022Z</time>
      </trkpt>
      <trkpt lat="39.41005" lon="-1.50258">
        <ele>566.863191</ele>
        <time>2022-02-23T13:43:40.055Z</time>
      </trkpt>
      <trkpt lat="39.40985" lon="-1.50278">
        <ele>568.34633</ele>
        <time>2022-02-23T13:43:53.574Z</time>
      </trkpt>
      <trkpt lat="39.40976" lon="-1.50295">
        <ele>569.218965</ele>
        <time>2022-02-23T13:44:01.921Z</time>
      </trkpt>
      <trkpt lat="39.4098" lon="-1.50355">
        <ele>572.619283</ele>
        <time>2022-02-23T13:44:28.260Z</time>
      </trkpt>
      <trkpt lat="39.40971" lon="-1.50394">
        <ele>575.193987</ele>
        <time>2022-02-23T13:44:47.245Z</time>
      </trkpt>
      <trkpt lat="39.40946" lon="-1.50412">
        <ele>577.633689</ele>
        <time>2022-02-23T13:45:06.013Z</time>
      </trkpt>
      <trkpt lat="39.40902" lon="-1.50462">
        <ele>582.449205</ele>
        <time>2022-02-23T13:45:45.634Z</time>
      </trkpt>
      <trkpt lat="39.40882" lon="-1.50496">
        <ele>585.215987</ele>
        <time>2022-02-23T13:46:09.765Z</time>
      </trkpt>
      <trkpt lat="39.40867" lon="-1.5055">
        <ele>588.851234</ele>
        <time>2022-02-23T13:46:42.000Z</time>
      </trkpt>
      <trkpt lat="39.40901" lon="-1.50638">
        <ele>595.105474</ele>
        <time>2022-02-23T13:47:32.974Z</time>
      </trkpt>
      <trkpt lat="39.40907" lon="-1.50674">
        <ele>597.421373</ele>
        <time>2022-02-23T13:47:49.383Z</time>
      </trkpt>
      <trkpt lat="39.40923" lon="-1.50719">
        <ele>600.219275</ele>
        <time>2022-02-23T13:48:11.220Z</time>
      </trkpt>
      <trkpt lat="39.4092" lon="-1.50755">
        <ele>601.155609</ele>
        <time>2022-02-23T13:48:26.323Z</time>
      </trkpt>
      <trkpt lat="39.40913" lon="-1.50768">
        <ele>601.572814</ele>
        <time>2022-02-23T13:48:32.399Z</time>
      </trkpt>
      <trkpt lat="39.40906" lon="-1.50768">
        <ele>601.823163</ele>
        <time>2022-02-23T13:48:35.765Z</time>
      </trkpt>
      <trkpt lat="39.40883" lon="-1.5075">
        <ele>602.728432</ele>
        <time>2022-02-23T13:48:47.347Z</time>
      </trkpt>
      <trkpt lat="39.40855" lon="-1.50738">
        <ele>603.719859</ele>
        <time>2022-02-23T13:48:58.025Z</time>
      </trkpt>
      <trkpt lat="39.40842" lon="-1.50749">
        <ele>604.234037</ele>
        <time>2022-02-23T13:49:02.620Z</time>
      </trkpt>
      <trkpt lat="39.40827" lon="-1.50807">
        <ele>605.811585</ele>
        <time>2022-02-23T13:49:16.612Z</time>
      </trkpt>
      <trkpt lat="39.4081" lon="-1.50836">
        <ele>606.197964</ele>
        <time>2022-02-23T13:49:23.674Z</time>
      </trkpt>
      <trkpt lat="39.40795" lon="-1.50849">
        <ele>606.333229</ele>
        <time>2022-02-23T13:49:28.287Z</time>
      </trkpt>
      <trkpt lat="39.40782" lon="-1.50853">
        <ele>606.432998</ele>
        <time>2022-02-23T13:49:31.481Z</time>
      </trkpt>
      <trkpt lat="39.40718" lon="-1.50848">
        <ele>606.924436</ele>
        <time>2022-02-23T13:49:50.161Z</time>
      </trkpt>
      <trkpt lat="39.40687" lon="-1.50861">
        <ele>607.179137</ele>
        <time>2022-02-23T13:49:58.736Z</time>
      </trkpt>
      <trkpt lat="39.40673" lon="-1.50875">
        <ele>607.312377</ele>
        <time>2022-02-23T13:50:02.747Z</time>
      </trkpt>
      <trkpt lat="39.40584" lon="-1.51032">
        <ele>608.68622</ele>
        <time>2022-02-23T13:50:41.589Z</time>
      </trkpt>
      <trkpt lat="39.40571" lon="-1.51082">
        <ele>609.065827</ele>
        <time>2022-02-23T13:50:54.069Z</time>
      </trkpt>
      <trkpt lat="39.40497" lon="-1.51253">
        <ele>613.070531</ele>
        <time>2022-02-23T13:51:48.513Z</time>
      </trkpt>
      <trkpt lat="39.40462" lon="-1.51321">
        <ele>614.986862</ele>
        <time>2022-02-23T13:52:14.882Z</time>
      </trkpt>
      <trkpt lat="39.4045" lon="-1.51341">
        <ele>615.649047</ele>
        <time>2022-02-23T13:52:23.435Z</time>
      </trkpt>
      <trkpt lat="39.40395" lon="-1.51435">
        <ele>618.667409</ele>
        <time>2022-02-23T13:53:01.017Z</time>
      </trkpt>
      <trkpt lat="39.40387" lon="-1.51461">
        <ele>619.40598</ele>
        <time>2022-02-23T13:53:08.902Z</time>
      </trkpt>
      <trkpt lat="39.40379" lon="-1.51523">
        <ele>620.461661</ele>
        <time>2022-02-23T13:53:26.748Z</time>
      </trkpt>
      <trkpt lat="39.40371" lon="-1.51579">
        <ele>621.214984</ele>
        <time>2022-02-23T13:53:41.094Z</time>
      </trkpt>
      <trkpt lat="39.40363" lon="-1.51597">
        <ele>621.484632</ele>
        <time>2022-02-23T13:53:45.888Z</time>
      </trkpt>
      <trkpt lat="39.40295" lon="-1.51671">
        <ele>622.981275</ele>
        <time>2022-02-23T13:54:12.092Z</time>
      </trkpt>
      <trkpt lat="39.40277" lon="-1.51695">
        <ele>623.281232</ele>
        <time>2022-02-23T13:54:18.603Z</time>
      </trkpt>
      <trkpt lat="39.40244" lon="-1.5176">
        <ele>623.974246</ele>
        <time>2022-02-23T13:54:35.354Z</time>
      </trkpt>
      <trkpt lat="39.40232" lon="-1.51773">
        <ele>624.150507</ele>
        <time>2022-02-23T13:54:39.778Z</time>
      </trkpt>
      <trkpt lat="39.40154" lon="-1.51816">
        <ele>625.203131</ele>
        <time>2022-02-23T13:55:04.801Z</time>
      </trkpt>
      <trkpt lat="39.40022" lon="-1.51971">
        <ele>628.319707</ele>
        <time>2022-02-23T13:56:03.630Z</time>
      </trkpt>
      <trkpt lat="39.3997" lon="-1.52018">
        <ele>629.005168</ele>
        <time>2022-02-23T13:56:22.710Z</time>
      </trkpt>
      <trkpt lat="39.39941" lon="-1.52018">
        <ele>629.325245</ele>
        <time>2022-02-23T13:56:30.846Z</time>
      </trkpt>
      <trkpt lat="39.39904" lon="-1.51995">
        <ele>629.763636</ele>
        <time>2022-02-23T13:56:41.693Z</time>
      </trkpt>
      <trkpt lat="39.39883" lon="-1.51932">
        <ele>630.267682</ele>
        <time>2022-02-23T13:56:56.344Z</time>
      </trkpt>
      <trkpt lat="39.39873" lon="-1.5192">
        <ele>630.351567</ele>
        <time>2022-02-23T13:57:00.002Z</time>
      </trkpt>
      <trkpt lat="39.39843" lon="-1.51906">
        <ele>630.546832</ele>
        <time>2022-02-23T13:57:07.102Z</time>
      </trkpt>
      <trkpt lat="39.39817" lon="-1.51905">
        <ele>630.703778</ele>
        <time>2022-02-23T13:57:12.805Z</time>
      </trkpt>
      <trkpt lat="39.39801" lon="-1.5191">
        <ele>630.809146</ele>
        <time>2022-02-23T13:57:16.975Z</time>
      </trkpt>
      <trkpt lat="39.39789" lon="-1.51922">
        <ele>630.903068</ele>
        <time>2022-02-23T13:57:20.917Z</time>
      </trkpt>
      <trkpt lat="39.39788" lon="-1.51946">
        <ele>631.014553</ele>
        <time>2022-02-23T13:57:26.113Z</time>
      </trkpt>
      <trkpt lat="39.39817" lon="-1.51987">
        <ele>631.288555</ele>
        <time>2022-02-23T13:57:38.382Z</time>
      </trkpt>
      <trkpt lat="39.39826" lon="-1.52007">
        <ele>631.641094</ele>
        <time>2022-02-23T13:57:44.196Z</time>
      </trkpt>
      <trkpt lat="39.39828" lon="-1.52031">
        <ele>631.996303</ele>
        <time>2022-02-23T13:57:50.109Z</time>
      </trkpt>
      <trkpt lat="39.39819" lon="-1.52094">
        <ele>632.939199</ele>
        <time>2022-02-23T13:58:06.996Z</time>
      </trkpt>
      <trkpt lat="39.39811" lon="-1.52109">
        <ele>633.207327</ele>
        <time>2022-02-23T13:58:12.011Z</time>
      </trkpt>
      <trkpt lat="39.39797" lon="-1.52118">
        <ele>633.50495</ele>
        <time>2022-02-23T13:58:17.270Z</time>
      </trkpt>
      <trkpt lat="39.39765" lon="-1.52114">
        <ele>634.11545</ele>
        <time>2022-02-23T13:58:27.849Z</time>
      </trkpt>
      <trkpt lat="39.39728" lon="-1.52126">
        <ele>634.816744</ele>
        <time>2022-02-23T13:58:40.241Z</time>
      </trkpt>
      <trkpt lat="39.39663" lon="-1.52198">
        <ele>636.295238</ele>
        <time>2022-02-23T13:59:08.107Z</time>
      </trkpt>
      <trkpt lat="39.39623" lon="-1.5222">
        <ele>637.038802</ele>
        <time>2022-02-23T13:59:21.635Z</time>
      </trkpt>
      <trkpt lat="39.39537" lon="-1.52253">
        <ele>638.583901</ele>
        <time>2022-02-23T13:59:49.341Z</time>
      </trkpt>
      <trkpt lat="39.39501" lon="-1.52274">
        <ele>639.255662</ele>
        <time>2022-02-23T14:00:02.006Z</time>
      </trkpt>
      <trkpt lat="39.39428" lon="-1.52333">
        <ele>640.736557</ele>
        <time>2022-02-23T14:00:29.375Z</time>
      </trkpt>
      <trkpt lat="39.39413" lon="-1.52342">
        <ele>641.025947</ele>
        <time>2022-02-23T14:00:34.654Z</time>
      </trkpt>
      <trkpt lat="39.39372" lon="-1.52358">
        <ele>641.813848</ele>
        <time>2022-02-23T14:00:48.433Z</time>
      </trkpt>
      <trkpt lat="39.39346" lon="-1.52361">
        <ele>642.294142</ele>
        <time>2022-02-23T14:00:56.866Z</time>
      </trkpt>
      <trkpt lat="39.39317" lon="-1.52354">
        <ele>642.844372</ele>
        <time>2022-02-23T14:01:06.440Z</time>
      </trkpt>
      <trkpt lat="39.39262" lon="-1.52321">
        <ele>643.96611</ele>
        <time>2022-02-23T14:01:26.224Z</time>
      </trkpt>
      <trkpt lat="39.3916" lon="-1.52301">
        <ele>646.324761</ele>
        <time>2022-02-23T14:02:00.341Z</time>
      </trkpt>
      <trkpt lat="39.3913" lon="-1.52319">
        <ele>647.12459</ele>
        <time>2022-02-23T14:02:12.564Z</time>
      </trkpt>
      <trkpt lat="39.39034" lon="-1.52421">
        <ele>650.232209</ele>
        <time>2022-02-23T14:02:58.266Z</time>
      </trkpt>
      <trkpt lat="39.3902" lon="-1.52429">
        <ele>650.639812</ele>
        <time>2022-02-23T14:03:04.461Z</time>
      </trkpt>
      <trkpt lat="39.38961" lon="-1.5244">
        <ele>652.193281</ele>
        <time>2022-02-23T14:03:26.923Z</time>
      </trkpt>
      <trkpt lat="39.38889" lon="-1.52492">
        <ele>653.388875</ele>
        <time>2022-02-23T14:03:54.378Z</time>
      </trkpt>
      <trkpt lat="39.38842" lon="-1.52534">
        <ele>653.653666</ele>
        <time>2022-02-23T14:04:10.101Z</time>
      </trkpt>
      <trkpt lat="39.38839" lon="-1.52537">
        <ele>653.669924</ele>
        <time>2022-02-23T14:04:10.982Z</time>
      </trkpt>
      <trkpt lat="39.38792" lon="-1.52601">
        <ele>653.989716</ele>
        <time>2022-02-23T14:04:26.199Z</time>
      </trkpt>
      <trkpt lat="39.38752" lon="-1.52622">
        <ele>652.888375</ele>
        <time>2022-02-23T14:04:34.538Z</time>
      </trkpt>
      <trkpt lat="39.38693" lon="-1.52643">
        <ele>651.060321</ele>
        <time>2022-02-23T14:04:45.590Z</time>
      </trkpt>
      <trkpt lat="39.3864" lon="-1.52737">
        <ele>648.454369</ele>
        <time>2022-02-23T14:05:01.115Z</time>
      </trkpt>
      <trkpt lat="39.3861" lon="-1.52758">
        <ele>647.644375</ele>
        <time>2022-02-23T14:05:07.155Z</time>
      </trkpt>
      <trkpt lat="39.38586" lon="-1.52766">
        <ele>647.060196</ele>
        <time>2022-02-23T14:05:11.530Z</time>
      </trkpt>
      <trkpt lat="39.38573" lon="-1.52766">
        <ele>646.751894</ele>
        <time>2022-02-23T14:05:14.056Z</time>
      </trkpt>
      <trkpt lat="39.38543" lon="-1.52766">
        <ele>646.048251</ele>
        <time>2022-02-23T14:05:19.610Z</time>
      </trkpt>
      <trkpt lat="39.38509" lon="-1.52779">
        <ele>645.220983</ele>
        <time>2022-02-23T14:05:26.492Z</time>
      </trkpt>
      <trkpt lat="39.38465" lon="-1.52834">
        <ele>644.493921</ele>
        <time>2022-02-23T14:05:39.340Z</time>
      </trkpt>
      <trkpt lat="39.38405" lon="-1.52894">
        <ele>644.651653</ele>
        <time>2022-02-23T14:05:59.982Z</time>
      </trkpt>
      <trkpt lat="39.38392" lon="-1.52915">
        <ele>644.695142</ele>
        <time>2022-02-23T14:06:06.187Z</time>
      </trkpt>
      <trkpt lat="39.38385" lon="-1.52976">
        <ele>644.794313</ele>
        <time>2022-02-23T14:06:18.583Z</time>
      </trkpt>
      <trkpt lat="39.3837" lon="-1.53038">
        <ele>644.152426</ele>
        <time>2022-02-23T14:06:30.246Z</time>
      </trkpt>
      <trkpt lat="39.38355" lon="-1.53086">
        <ele>643.529731</ele>
        <time>2022-02-23T14:06:38.304Z</time>
      </trkpt>
      <trkpt lat="39.38337" lon="-1.53172">
        <ele>642.459928</ele>
        <time>2022-02-23T14:06:51.287Z</time>
      </trkpt>
      <trkpt lat="39.38333" lon="-1.53234">
        <ele>641.608954</ele>
        <time>2022-02-23T14:07:00.081Z</time>
      </trkpt>
      <trkpt lat="39.3834" lon="-1.53271">
        <ele>640.993576</ele>
        <time>2022-02-23T14:07:05.389Z</time>
      </trkpt>
      <trkpt lat="39.38371" lon="-1.53363">
        <ele>639.365704</ele>
        <time>2022-02-23T14:07:19.862Z</time>
      </trkpt>
      <trkpt lat="39.38389" lon="-1.53383">
        <ele>638.870826</ele>
        <time>2022-02-23T14:07:24.390Z</time>
      </trkpt>
      <trkpt lat="39.38435" lon="-1.53404">
        <ele>638.410291</ele>
        <time>2022-02-23T14:07:34.506Z</time>
      </trkpt>
      <trkpt lat="39.38451" lon="-1.53432">
        <ele>638.616897</ele>
        <time>2022-02-23T14:07:41.412Z</time>
      </trkpt>
      <trkpt lat="39.38456" lon="-1.53452">
        <ele>638.741462</ele>
        <time>2022-02-23T14:07:45.806Z</time>
      </trkpt>
      <trkpt lat="39.3846" lon="-1.53507">
        <ele>639.073998</ele>
        <time>2022-02-23T14:07:58.581Z</time>
      </trkpt>
      <trkpt lat="39.38449" lon="-1.53684">
        <ele>640.395905</ele>
        <time>2022-02-23T14:08:40.745Z</time>
      </trkpt>
      <trkpt lat="39.38452" lon="-1.537">
        <ele>640.557433</ele>
        <time>2022-02-23T14:08:44.731Z</time>
      </trkpt>
      <trkpt lat="39.38466" lon="-1.53722">
        <ele>640.8143</ele>
        <time>2022-02-23T14:08:51.866Z</time>
      </trkpt>
      <trkpt lat="39.38509" lon="-1.53769">
        <ele>641.490504</ele>
        <time>2022-02-23T14:09:08.106Z</time>
      </trkpt>
      <trkpt lat="39.38529" lon="-1.53802">
        <ele>641.791914</ele>
        <time>2022-02-23T14:09:16.728Z</time>
      </trkpt>
      <trkpt lat="39.38532" lon="-1.53825">
        <ele>641.741218</ele>
        <time>2022-02-23T14:09:21.173Z</time>
      </trkpt>
      <trkpt lat="39.38523" lon="-1.53926">
        <ele>641.513559</ele>
        <time>2022-02-23T14:09:38.315Z</time>
      </trkpt>
      <trkpt lat="39.38514" lon="-1.53978">
        <ele>641.394887</ele>
        <time>2022-02-23T14:09:47.398Z</time>
      </trkpt>
      <trkpt lat="39.3851" lon="-1.54082">
        <ele>641.428172</ele>
        <time>2022-02-23T14:10:04.719Z</time>
      </trkpt>
      <trkpt lat="39.38497" lon="-1.54152">
        <ele>641.596118</ele>
        <time>2022-02-23T14:10:17.326Z</time>
      </trkpt>
      <trkpt lat="39.38488" lon="-1.5417">
        <ele>641.646858</ele>
        <time>2022-02-23T14:10:21.553Z</time>
      </trkpt>
      <trkpt lat="39.38463" lon="-1.5419">
        <ele>641.733286</ele>
        <time>2022-02-23T14:10:29.360Z</time>
      </trkpt>
      <trkpt lat="39.38424" lon="-1.5424">
        <ele>641.910325</ele>
        <time>2022-02-23T14:10:46.284Z</time>
      </trkpt>
      <trkpt lat="39.38404" lon="-1.54276">
        <ele>642.031131</ele>
        <time>2022-02-23T14:10:57.706Z</time>
      </trkpt>
      <trkpt lat="39.38351" lon="-1.54332">
        <ele>642.271274</ele>
        <time>2022-02-23T14:11:17.023Z</time>
      </trkpt>
      <trkpt lat="39.38315" lon="-1.54357">
        <ele>642.41625</ele>
        <time>2022-02-23T14:11:25.458Z</time>
      </trkpt>
      <trkpt lat="39.38298" lon="-1.54375">
        <ele>642.362065</ele>
        <time>2022-02-23T14:11:29.815Z</time>
      </trkpt>
      <trkpt lat="39.38287" lon="-1.54395">
        <ele>642.058232</ele>
        <time>2022-02-23T14:11:33.358Z</time>
      </trkpt>
      <trkpt lat="39.38285" lon="-1.54403">
        <ele>641.963309</ele>
        <time>2022-02-23T14:11:34.504Z</time>
      </trkpt>
      <trkpt lat="39.3829" lon="-1.5441">
        <ele>641.841124</ele>
        <time>2022-02-23T14:11:36.153Z</time>
      </trkpt>
      <trkpt lat="39.38297" lon="-1.54414">
        <ele>641.733824</ele>
        <time>2022-02-23T14:11:37.342Z</time>
      </trkpt>
      <trkpt lat="39.38348" lon="-1.54392">
        <ele>640.889914</ele>
        <time>2022-02-23T14:11:47.513Z</time>
      </trkpt>
      <trkpt lat="39.38382" lon="-1.54387">
        <ele>640.341946</ele>
        <time>2022-02-23T14:11:54.486Z</time>
      </trkpt>
      <trkpt lat="39.38401" lon="-1.54372">
        <ele>640.0006</ele>
        <time>2022-02-23T14:11:58.773Z</time>
      </trkpt>
      <trkpt lat="39.38411" lon="-1.54366">
        <ele>639.822097</ele>
        <time>2022-02-23T14:12:01.006Z</time>
      </trkpt>
      <trkpt lat="39.38426" lon="-1.54367">
        <ele>639.749885</ele>
        <time>2022-02-23T14:12:04.016Z</time>
      </trkpt>
      <trkpt lat="39.38437" lon="-1.54379">
        <ele>640.21727</ele>
        <time>2022-02-23T14:12:06.760Z</time>
      </trkpt>
      <trkpt lat="39.38443" lon="-1.54405">
        <ele>640.911833</ele>
        <time>2022-02-23T14:12:11.320Z</time>
      </trkpt>
      <trkpt lat="39.38427" lon="-1.54477">
        <ele>642.829508</ele>
        <time>2022-02-23T14:12:31.828Z</time>
      </trkpt>
      <trkpt lat="39.38386" lon="-1.54529">
        <ele>644.722242</ele>
        <time>2022-02-23T14:13:01.850Z</time>
      </trkpt>
      <trkpt lat="39.38361" lon="-1.54743">
        <ele>654.568697</ele>
        <time>2022-02-23T14:14:39.021Z</time>
      </trkpt>
      <trkpt lat="39.38355" lon="-1.54761">
        <ele>655.538706</ele>
        <time>2022-02-23T14:14:47.154Z</time>
      </trkpt>
      <trkpt lat="39.38284" lon="-1.54849">
        <ele>659.729367</ele>
        <time>2022-02-23T14:15:32.189Z</time>
      </trkpt>
      <trkpt lat="39.38209" lon="-1.54916">
        <ele>662.985708</ele>
        <time>2022-02-23T14:16:05.199Z</time>
      </trkpt>
      <trkpt lat="39.38147" lon="-1.54956">
        <ele>665.292495</ele>
        <time>2022-02-23T14:16:30.279Z</time>
      </trkpt>
      <trkpt lat="39.38126" lon="-1.54984">
        <ele>666.30728</ele>
        <time>2022-02-23T14:16:42.164Z</time>
      </trkpt>
      <trkpt lat="39.3812" lon="-1.55007">
        <ele>666.937635</ele>
        <time>2022-02-23T14:16:49.814Z</time>
      </trkpt>
      <trkpt lat="39.3812" lon="-1.55149">
        <ele>670.769104</ele>
        <time>2022-02-23T14:17:36.064Z</time>
      </trkpt>
      <trkpt lat="39.38104" lon="-1.55196">
        <ele>672.330032</ele>
        <time>2022-02-23T14:17:53.777Z</time>
      </trkpt>
      <trkpt lat="39.38071" lon="-1.55259">
        <ele>674.640889</ele>
        <time>2022-02-23T14:18:18.638Z</time>
      </trkpt>
      <trkpt lat="39.38056" lon="-1.55309">
        <ele>676.292582</ele>
        <time>2022-02-23T14:18:36.739Z</time>
      </trkpt>
      <trkpt lat="39.38059" lon="-1.55368">
        <ele>677.999547</ele>
        <time>2022-02-23T14:18:56.368Z</time>
      </trkpt>
      <trkpt lat="39.38079" lon="-1.55435">
        <ele>680.103702</ele>
        <time>2022-02-23T14:19:19.481Z</time>
      </trkpt>
      <trkpt lat="39.38092" lon="-1.55502">
        <ele>682.102144</ele>
        <time>2022-02-23T14:19:41.571Z</time>
      </trkpt>
      <trkpt lat="39.38089" lon="-1.55553">
        <ele>683.596093</ele>
        <time>2022-02-23T14:19:57.990Z</time>
      </trkpt>
      <trkpt lat="39.38063" lon="-1.55656">
        <ele>686.677413</ele>
        <time>2022-02-23T14:20:33.074Z</time>
      </trkpt>
      <trkpt lat="39.38008" lon="-1.55788">
        <ele>690.878242</ele>
        <time>2022-02-23T14:21:21.068Z</time>
      </trkpt>
      <trkpt lat="39.37973" lon="-1.55862">
        <ele>693.236165</ele>
        <time>2022-02-23T14:21:48.817Z</time>
      </trkpt>
      <trkpt lat="39.37937" lon="-1.55907">
        <ele>695.006142</ele>
        <time>2022-02-23T14:22:09.236Z</time>
      </trkpt>
      <trkpt lat="39.37925" lon="-1.5593">
        <ele>695.74529</ele>
        <time>2022-02-23T14:22:18.044Z</time>
      </trkpt>
      <trkpt lat="39.37894" lon="-1.56029">
        <ele>698.348412</ele>
        <time>2022-02-23T14:22:49.717Z</time>
      </trkpt>
      <trkpt lat="39.37885" lon="-1.5613">
        <ele>700.805575</ele>
        <time>2022-02-23T14:23:18.841Z</time>
      </trkpt>
      <trkpt lat="39.37855" lon="-1.56207">
        <ele>702.995466</ele>
        <time>2022-02-23T14:23:45.901Z</time>
      </trkpt>
      <trkpt lat="39.37847" lon="-1.56215">
        <ele>703.342299</ele>
        <time>2022-02-23T14:23:49.980Z</time>
      </trkpt>
      <trkpt lat="39.37815" lon="-1.56223">
        <ele>704.47362</ele>
        <time>2022-02-23T14:24:03.536Z</time>
      </trkpt>
      <trkpt lat="39.37803" lon="-1.56238">
        <ele>705.045513</ele>
        <time>2022-02-23T14:24:10.189Z</time>
      </trkpt>
      <trkpt lat="39.37797" lon="-1.5627">
        <ele>705.931651</ele>
        <time>2022-02-23T14:24:20.341Z</time>
      </trkpt>
      <trkpt lat="39.37807" lon="-1.56354">
        <ele>708.206001</ele>
        <time>2022-02-23T14:24:46.840Z</time>
      </trkpt>
      <trkpt lat="39.37818" lon="-1.564">
        <ele>709.395941</ele>
        <time>2022-02-23T14:25:02.718Z</time>
      </trkpt>
      <trkpt lat="39.37821" lon="-1.56501">
        <ele>711.888184</ele>
        <time>2022-02-23T14:25:35.122Z</time>
      </trkpt>
      <trkpt lat="39.37791" lon="-1.56593">
        <ele>714.15216</ele>
        <time>2022-02-23T14:26:02.112Z</time>
      </trkpt>
      <trkpt lat="39.37786" lon="-1.56608">
        <ele>714.412117</ele>
        <time>2022-02-23T14:26:06.498Z</time>
      </trkpt>
      <trkpt lat="39.37775" lon="-1.56649">
        <ele>715.082774</ele>
        <time>2022-02-23T14:26:17.707Z</time>
      </trkpt>
      <trkpt lat="39.37776" lon="-1.56659">
        <ele>715.227468</ele>
        <time>2022-02-23T14:26:20.071Z</time>
      </trkpt>
      <trkpt lat="39.3778" lon="-1.56689">
        <ele>715.710301</ele>
        <time>2022-02-23T14:26:28.176Z</time>
      </trkpt>
      <trkpt lat="39.37779" lon="-1.56711">
        <ele>716.050928</ele>
        <time>2022-02-23T14:26:33.691Z</time>
      </trkpt>
      <trkpt lat="39.37762" lon="-1.56857">
        <ele>718.5163</ele>
        <time>2022-02-23T14:27:10.171Z</time>
      </trkpt>
      <trkpt lat="39.37749" lon="-1.56899">
        <ele>719.347609</ele>
        <time>2022-02-23T14:27:21.985Z</time>
      </trkpt>
      <trkpt lat="39.37721" lon="-1.56946">
        <ele>720.436869</ele>
        <time>2022-02-23T14:27:38.179Z</time>
      </trkpt>
      <trkpt lat="39.37701" lon="-1.57065">
        <ele>723.455413</ele>
        <time>2022-02-23T14:28:13.877Z</time>
      </trkpt>
      <trkpt lat="39.37669" lon="-1.5715">
        <ele>726.54194</ele>
        <time>2022-02-23T14:28:45.593Z</time>
      </trkpt>
      <trkpt lat="39.37644" lon="-1.57254">
        <ele>730.469203</ele>
        <time>2022-02-23T14:29:26.901Z</time>
      </trkpt>
      <trkpt lat="39.3761" lon="-1.57332">
        <ele>734.738424</ele>
        <time>2022-02-23T14:30:04.098Z</time>
      </trkpt>
      <trkpt lat="39.37484" lon="-1.57581">
        <ele>748.209251</ele>
        <time>2022-02-23T14:32:12.857Z</time>
      </trkpt>
      <trkpt lat="39.3746" lon="-1.576">
        <ele>749.814254</ele>
        <time>2022-02-23T14:32:25.355Z</time>
      </trkpt>
      <trkpt lat="39.37434" lon="-1.57622">
        <ele>750.694295</ele>
        <time>2022-02-23T14:32:37.073Z</time>
      </trkpt>
      <trkpt lat="39.37409" lon="-1.57668">
        <ele>751.088382</ele>
        <time>2022-02-23T14:32:52.262Z</time>
      </trkpt>
      <trkpt lat="39.37395" lon="-1.577">
        <ele>751.340217</ele>
        <time>2022-02-23T14:33:00.575Z</time>
      </trkpt>
      <trkpt lat="39.37376" lon="-1.57743">
        <ele>751.687071</ele>
        <time>2022-02-23T14:33:10.334Z</time>
      </trkpt>
      <trkpt lat="39.3733" lon="-1.5783">
        <ele>751.700706</ele>
        <time>2022-02-23T14:33:26.293Z</time>
      </trkpt>
      <trkpt lat="39.37212" lon="-1.58004">
        <ele>749.084954</ele>
        <time>2022-02-23T14:34:02.034Z</time>
      </trkpt>
      <trkpt lat="39.37153" lon="-1.58113">
        <ele>747.720459</ele>
        <time>2022-02-23T14:34:22.916Z</time>
      </trkpt>
      <trkpt lat="39.37078" lon="-1.58311">
        <ele>745.030361</ele>
        <time>2022-02-23T14:34:56.944Z</time>
      </trkpt>
      <trkpt lat="39.37036" lon="-1.58429">
        <ele>743.299741</ele>
        <time>2022-02-23T14:35:16.053Z</time>
      </trkpt>
      <trkpt lat="39.37016" lon="-1.58498">
        <ele>742.269618</ele>
        <time>2022-02-23T14:35:26.994Z</time>
      </trkpt>
      <trkpt lat="39.36982" lon="-1.5866">
        <ele>740.512232</ele>
        <time>2022-02-23T14:35:52.969Z</time>
      </trkpt>
      <trkpt lat="39.36962" lon="-1.58806">
        <ele>739.76932</ele>
        <time>2022-02-23T14:36:18.179Z</time>
      </trkpt>
      <trkpt lat="39.36909" lon="-1.58956">
        <ele>739.62579</ele>
        <time>2022-02-23T14:36:47.692Z</time>
      </trkpt>
      <trkpt lat="39.36875" lon="-1.59032">
        <ele>739.600723</ele>
        <time>2022-02-23T14:37:03.422Z</time>
      </trkpt>
      <trkpt lat="39.36868" lon="-1.59048">
        <ele>739.650521</ele>
        <time>2022-02-23T14:37:06.734Z</time>
      </trkpt>
      <trkpt lat="39.36833" lon="-1.59125">
        <ele>739.891775</ele>
        <time>2022-02-23T14:37:23.134Z</time>
      </trkpt>
      <trkpt lat="39.36704" lon="-1.59296">
        <ele>741.100474</ele>
        <time>2022-02-23T14:38:11.698Z</time>
      </trkpt>
      <trkpt lat="39.36697" lon="-1.59307">
        <ele>741.212157</ele>
        <time>2022-02-23T14:38:14.987Z</time>
      </trkpt>
      <trkpt lat="39.36684" lon="-1.5932">
        <ele>741.373442</ele>
        <time>2022-02-23T14:38:19.677Z</time>
      </trkpt>
      <trkpt lat="39.36608" lon="-1.59422">
        <ele>742.653021</ele>
        <time>2022-02-23T14:38:52.157Z</time>
      </trkpt>
      <trkpt lat="39.36568" lon="-1.59489">
        <ele>743.590128</ele>
        <time>2022-02-23T14:39:13.174Z</time>
      </trkpt>
      <trkpt lat="39.36538" lon="-1.59545">
        <ele>744.34619</ele>
        <time>2022-02-23T14:39:29.433Z</time>
      </trkpt>
      <trkpt lat="39.36531" lon="-1.5956">
        <ele>744.535405</ele>
        <time>2022-02-23T14:39:33.306Z</time>
      </trkpt>
      <trkpt lat="39.36506" lon="-1.59605">
        <ele>744.777139</ele>
        <time>2022-02-23T14:39:45.281Z</time>
      </trkpt>
      <trkpt lat="39.36483" lon="-1.5964">
        <ele>744.950092</ele>
        <time>2022-02-23T14:39:54.653Z</time>
      </trkpt>
      <trkpt lat="39.36445" lon="-1.59673">
        <ele>745.178588</ele>
        <time>2022-02-23T14:40:06.677Z</time>
      </trkpt>
      <trkpt lat="39.36436" lon="-1.5968">
        <ele>745.229781</ele>
        <time>2022-02-23T14:40:09.182Z</time>
      </trkpt>
      <trkpt lat="39.3641" lon="-1.597">
        <ele>745.37892</ele>
        <time>2022-02-23T14:40:16.497Z</time>
      </trkpt>
      <trkpt lat="39.36406" lon="-1.59704">
        <ele>745.399351</ele>
        <time>2022-02-23T14:40:17.430Z</time>
      </trkpt>
      <trkpt lat="39.36361" lon="-1.59744">
        <ele>745.107562</ele>
        <time>2022-02-23T14:40:29.548Z</time>
      </trkpt>
      <trkpt lat="39.36322" lon="-1.59769">
        <ele>744.733147</ele>
        <time>2022-02-23T14:40:38.693Z</time>
      </trkpt>
      <trkpt lat="39.36318" lon="-1.59771">
        <ele>744.700655</ele>
        <time>2022-02-23T14:40:39.464Z</time>
      </trkpt>
      <trkpt lat="39.36244" lon="-1.59836">
        <ele>743.927549</ele>
        <time>2022-02-23T14:40:57.978Z</time>
      </trkpt>
      <trkpt lat="39.36226" lon="-1.5986">
        <ele>743.416015</ele>
        <time>2022-02-23T14:41:03.263Z</time>
      </trkpt>
      <trkpt lat="39.36203" lon="-1.59843">
        <ele>742.89137</ele>
        <time>2022-02-23T14:41:08.520Z</time>
      </trkpt>
      <trkpt lat="39.36168" lon="-1.59911">
        <ele>741.618781</ele>
        <time>2022-02-23T14:41:20.748Z</time>
      </trkpt>
      <trkpt lat="39.36161" lon="-1.59904">
        <ele>741.442519</ele>
        <time>2022-02-23T14:41:22.346Z</time>
      </trkpt>
      <trkpt lat="39.36144" lon="-1.59977">
        <ele>740.23986</ele>
        <time>2022-02-23T14:41:33.177Z</time>
      </trkpt>
      <trkpt lat="39.3614" lon="-1.59981">
        <ele>740.11337</ele>
        <time>2022-02-23T14:41:34.006Z</time>
      </trkpt>
      <trkpt lat="39.36111" lon="-1.59995">
        <ele>739.26546</ele>
        <time>2022-02-23T14:41:39.656Z</time>
      </trkpt>
      <trkpt lat="39.36105" lon="-1.59998">
        <ele>739.080076</ele>
        <time>2022-02-23T14:41:40.889Z</time>
      </trkpt>
      <trkpt lat="39.36069" lon="-1.60022">
        <ele>737.982198</ele>
        <time>2022-02-23T14:41:48.236Z</time>
      </trkpt>
      <trkpt lat="39.36057" lon="-1.60025">
        <ele>737.646075</ele>
        <time>2022-02-23T14:41:50.509Z</time>
      </trkpt>
      <trkpt lat="39.36048" lon="-1.6002">
        <ele>737.387032</ele>
        <time>2022-02-23T14:41:52.240Z</time>
      </trkpt>
      <trkpt lat="39.36044" lon="-1.60027">
        <ele>737.210712</ele>
        <time>2022-02-23T14:41:53.389Z</time>
      </trkpt>
      <trkpt lat="39.36044" lon="-1.60052">
        <ele>736.68147</ele>
        <time>2022-02-23T14:41:57.007Z</time>
      </trkpt>
      <trkpt lat="39.35994" lon="-1.60049">
        <ele>735.318183</ele>
        <time>2022-02-23T14:42:06.212Z</time>
      </trkpt>
      <trkpt lat="39.35993" lon="-1.6006">
        <ele>735.129991</ele>
        <time>2022-02-23T14:42:07.878Z</time>
      </trkpt>
      <trkpt lat="39.36" lon="-1.60062">
        <ele>735.001178</ele>
        <time>2022-02-23T14:42:09.060Z</time>
      </trkpt>
      <trkpt lat="39.35998" lon="-1.60074">
        <ele>734.800528</ele>
        <time>2022-02-23T14:42:10.874Z</time>
      </trkpt>
      <trkpt lat="39.35994" lon="-1.6009">
        <ele>734.534363</ele>
        <time>2022-02-23T14:42:13.192Z</time>
      </trkpt>
      <trkpt lat="39.35987" lon="-1.60109">
        <ele>734.195449</ele>
        <time>2022-02-23T14:42:16.316Z</time>
      </trkpt>
      <trkpt lat="39.35977" lon="-1.60133">
        <ele>733.758149</ele>
        <time>2022-02-23T14:42:20.266Z</time>
      </trkpt>
      <trkpt lat="39.3597" lon="-1.60145">
        <ele>733.513964</ele>
        <time>2022-02-23T14:42:22.597Z</time>
      </trkpt>
      <trkpt lat="39.35953" lon="-1.60166">
        <ele>733.019595</ele>
        <time>2022-02-23T14:42:27.238Z</time>
      </trkpt>
      <trkpt lat="39.35947" lon="-1.60173">
        <ele>732.860026</ele>
        <time>2022-02-23T14:42:28.748Z</time>
      </trkpt>
      <trkpt lat="39.35934" lon="-1.60187">
        <ele>732.510971</ele>
        <time>2022-02-23T14:42:32.021Z</time>
      </trkpt>
      <trkpt lat="39.35916" lon="-1.60207">
        <ele>732.015468</ele>
        <time>2022-02-23T14:42:36.661Z</time>
      </trkpt>
      <trkpt lat="39.35848" lon="-1.60285">
        <ele>730.433239</ele>
        <time>2022-02-23T14:42:54.426Z</time>
      </trkpt>
      <trkpt lat="39.35842" lon="-1.60291">
        <ele>730.316762</ele>
        <time>2022-02-23T14:42:55.825Z</time>
      </trkpt>
      <trkpt lat="39.35783" lon="-1.60359">
        <ele>729.002215</ele>
        <time>2022-02-23T14:43:11.485Z</time>
      </trkpt>
      <trkpt lat="39.3578" lon="-1.60362">
        <ele>728.94688</ele>
        <time>2022-02-23T14:43:12.168Z</time>
      </trkpt>
      <trkpt lat="39.35731" lon="-1.60419">
        <ele>728.327503</ele>
        <time>2022-02-23T14:43:25.539Z</time>
      </trkpt>
      <trkpt lat="39.35676" lon="-1.6048">
        <ele>727.817964</ele>
        <time>2022-02-23T14:43:40.276Z</time>
      </trkpt>
      <trkpt lat="39.35624" lon="-1.60539">
        <ele>727.470732</ele>
        <time>2022-02-23T14:43:55.295Z</time>
      </trkpt>
      <trkpt lat="39.35532" lon="-1.60643">
        <ele>728.126953</ele>
        <time>2022-02-23T14:44:26.203Z</time>
      </trkpt>
      <trkpt lat="39.35511" lon="-1.60667">
        <ele>728.27652</ele>
        <time>2022-02-23T14:44:33.528Z</time>
      </trkpt>
      <trkpt lat="39.35477" lon="-1.60706">
        <ele>728.572631</ele>
        <time>2022-02-23T14:44:45.652Z</time>
      </trkpt>
      <trkpt lat="39.35337" lon="-1.60866">
        <ele>729.918471</ele>
        <time>2022-02-23T14:45:34.206Z</time>
      </trkpt>
      <trkpt lat="39.35327" lon="-1.60877">
        <ele>729.994517</ele>
        <time>2022-02-23T14:45:37.142Z</time>
      </trkpt>
      <trkpt lat="39.35103" lon="-1.61134">
        <ele>732.043412</ele>
        <time>2022-02-23T14:46:52.506Z</time>
      </trkpt>
      <trkpt lat="39.34912" lon="-1.61353">
        <ele>735.529591</ele>
        <time>2022-02-23T14:48:08.650Z</time>
      </trkpt>
      <trkpt lat="39.34893" lon="-1.61374">
        <ele>735.877597</ele>
        <time>2022-02-23T14:48:16.084Z</time>
      </trkpt>
      <trkpt lat="39.34881" lon="-1.61407">
        <ele>736.258243</ele>
        <time>2022-02-23T14:48:24.169Z</time>
      </trkpt>
      <trkpt lat="39.34878" lon="-1.61427">
        <ele>736.469316</ele>
        <time>2022-02-23T14:48:28.654Z</time>
      </trkpt>
      <trkpt lat="39.34859" lon="-1.6144">
        <ele>736.768337</ele>
        <time>2022-02-23T14:48:34.885Z</time>
      </trkpt>
      <trkpt lat="39.34852" lon="-1.61438">
        <ele>736.872344</ele>
        <time>2022-02-23T14:48:37.020Z</time>
      </trkpt>
      <trkpt lat="39.34826" lon="-1.6145">
        <ele>737.198973</ele>
        <time>2022-02-23T14:48:44.715Z</time>
      </trkpt>
      <trkpt lat="39.34815" lon="-1.61464">
        <ele>737.312118</ele>
        <time>2022-02-23T14:48:49.114Z</time>
      </trkpt>
      <trkpt lat="39.34696" lon="-1.61599">
        <ele>738.457546</ele>
        <time>2022-02-23T14:49:29.913Z</time>
      </trkpt>
      <trkpt lat="39.3468" lon="-1.61618">
        <ele>738.43357</ele>
        <time>2022-02-23T14:49:35.120Z</time>
      </trkpt>
      <trkpt lat="39.34325" lon="-1.62022">
        <ele>738.006938</ele>
        <time>2022-02-23T14:51:17.663Z</time>
      </trkpt>
      <trkpt lat="39.3374" lon="-1.6269">
        <ele>740.498854</ele>
        <time>2022-02-23T14:54:25.477Z</time>
      </trkpt>
      <trkpt lat="39.33602" lon="-1.62845">
        <ele>740.388637</ele>
        <time>2022-02-23T14:55:06.388Z</time>
      </trkpt>
      <trkpt lat="39.3341" lon="-1.63063">
        <ele>738.143349</ele>
        <time>2022-02-23T14:55:57.220Z</time>
      </trkpt>
      <trkpt lat="39.33289" lon="-1.63202">
        <ele>736.655195</ele>
        <time>2022-02-23T14:56:29.083Z</time>
      </trkpt>
      <trkpt lat="39.33107" lon="-1.6341">
        <ele>735.293128</ele>
        <time>2022-02-23T14:57:19.823Z</time>
      </trkpt>
      <trkpt lat="39.33091" lon="-1.63435">
        <ele>735.193719</ele>
        <time>2022-02-23T14:57:25.387Z</time>
      </trkpt>
      <trkpt lat="39.33057" lon="-1.63506">
        <ele>734.852983</ele>
        <time>2022-02-23T14:57:39.852Z</time>
      </trkpt>
      <trkpt lat="39.33045" lon="-1.63558">
        <ele>734.619446</ele>
        <time>2022-02-23T14:57:48.983Z</time>
      </trkpt>
      <trkpt lat="39.33025" lon="-1.63702">
        <ele>733.526588</ele>
        <time>2022-02-23T14:58:11.516Z</time>
      </trkpt>
      <trkpt lat="39.33014" lon="-1.63754">
        <ele>732.55217</ele>
        <time>2022-02-23T14:58:19.245Z</time>
      </trkpt>
      <trkpt lat="39.32902" lon="-1.64074">
        <ele>725.474224</ele>
        <time>2022-02-23T14:59:06.332Z</time>
      </trkpt>
      <trkpt lat="39.32859" lon="-1.64188">
        <ele>723.502203</ele>
        <time>2022-02-23T14:59:24.044Z</time>
      </trkpt>
      <trkpt lat="39.32839" lon="-1.64229">
        <ele>722.832662</ele>
        <time>2022-02-23T14:59:31.025Z</time>
      </trkpt>
      <trkpt lat="39.32805" lon="-1.64282">
        <ele>721.879134</ele>
        <time>2022-02-23T14:59:41.290Z</time>
      </trkpt>
      <trkpt lat="39.32742" lon="-1.64351">
        <ele>721.871152</ele>
        <time>2022-02-23T14:59:58.380Z</time>
      </trkpt>
      <trkpt lat="39.32652" lon="-1.64407">
        <ele>722.143851</ele>
        <time>2022-02-23T15:00:23.034Z</time>
      </trkpt>
      <trkpt lat="39.32492" lon="-1.6449">
        <ele>725.944061</ele>
        <time>2022-02-23T15:01:22.769Z</time>
      </trkpt>
      <trkpt lat="39.32419" lon="-1.64542">
        <ele>727.496663</ele>
        <time>2022-02-23T15:01:53.098Z</time>
      </trkpt>
      <trkpt lat="39.3233" lon="-1.64617">
        <ele>729.369823</ele>
        <time>2022-02-23T15:02:25.321Z</time>
      </trkpt>
      <trkpt lat="39.32243" lon="-1.64673">
        <ele>728.778368</ele>
        <time>2022-02-23T15:02:45.699Z</time>
      </trkpt>
      <trkpt lat="39.32076" lon="-1.64745">
        <ele>726.21706</ele>
        <time>2022-02-23T15:03:19.048Z</time>
      </trkpt>
      <trkpt lat="39.31995" lon="-1.64793">
        <ele>724.329291</ele>
        <time>2022-02-23T15:03:34.880Z</time>
      </trkpt>
      <trkpt lat="39.3174" lon="-1.64995">
        <ele>714.519912</ele>
        <time>2022-02-23T15:04:25.510Z</time>
      </trkpt>
      <trkpt lat="39.31626" lon="-1.65122">
        <ele>710.02412</ele>
        <time>2022-02-23T15:04:51.704Z</time>
      </trkpt>
      <trkpt lat="39.31591" lon="-1.65151">
        <ele>708.878254</ele>
        <time>2022-02-23T15:04:58.996Z</time>
      </trkpt>
      <trkpt lat="39.31538" lon="-1.65182">
        <ele>707.246185</ele>
        <time>2022-02-23T15:05:09.179Z</time>
      </trkpt>
      <trkpt lat="39.31456" lon="-1.65201">
        <ele>704.654871</ele>
        <time>2022-02-23T15:05:23.662Z</time>
      </trkpt>
      <trkpt lat="39.31137" lon="-1.6524">
        <ele>694.705767</ele>
        <time>2022-02-23T15:06:17.976Z</time>
      </trkpt>
      <trkpt lat="39.31114" lon="-1.65247">
        <ele>694.160804</ele>
        <time>2022-02-23T15:06:22.334Z</time>
      </trkpt>
      <trkpt lat="39.311" lon="-1.65259">
        <ele>693.786615</ele>
        <time>2022-02-23T15:06:25.368Z</time>
      </trkpt>
      <trkpt lat="39.31097" lon="-1.65262">
        <ele>693.702718</ele>
        <time>2022-02-23T15:06:26.063Z</time>
      </trkpt>
      <trkpt lat="39.31091" lon="-1.653">
        <ele>693.032703</ele>
        <time>2022-02-23T15:06:31.567Z</time>
      </trkpt>
      <trkpt lat="39.31081" lon="-1.65322">
        <ele>692.579872</ele>
        <time>2022-02-23T15:06:35.337Z</time>
      </trkpt>
      <trkpt lat="39.31062" lon="-1.65329">
        <ele>692.13716</ele>
        <time>2022-02-23T15:06:39.108Z</time>
      </trkpt>
      <trkpt lat="39.31047" lon="-1.65323">
        <ele>691.783265</ele>
        <time>2022-02-23T15:06:42.105Z</time>
      </trkpt>
      <trkpt lat="39.31026" lon="-1.65284">
        <ele>691.330757</ele>
        <time>2022-02-23T15:06:49.349Z</time>
      </trkpt>
      <trkpt lat="39.31014" lon="-1.65272">
        <ele>691.15094</ele>
        <time>2022-02-23T15:06:52.303Z</time>
      </trkpt>
      <trkpt lat="39.3098" lon="-1.65258">
        <ele>690.7084</ele>
        <time>2022-02-23T15:06:59.479Z</time>
      </trkpt>
      <trkpt lat="39.30897" lon="-1.65242">
        <ele>689.683011</ele>
        <time>2022-02-23T15:07:16.017Z</time>
      </trkpt>
      <trkpt lat="39.30827" lon="-1.65221">
        <ele>688.671007</ele>
        <time>2022-02-23T15:07:29.530Z</time>
      </trkpt>
      <trkpt lat="39.30793" lon="-1.65221">
        <ele>688.174387</ele>
        <time>2022-02-23T15:07:35.944Z</time>
      </trkpt>
      <trkpt lat="39.30757" lon="-1.65227">
        <ele>687.654728</ele>
        <time>2022-02-23T15:07:42.627Z</time>
      </trkpt>
      <trkpt lat="39.30751" lon="-1.6523">
        <ele>687.564384</ele>
        <time>2022-02-23T15:07:43.826Z</time>
      </trkpt>
      <trkpt lat="39.30643" lon="-1.65282">
        <ele>686.875391</ele>
        <time>2022-02-23T15:08:06.550Z</time>
      </trkpt>
      <trkpt lat="39.30632" lon="-1.65287">
        <ele>686.857939</ele>
        <time>2022-02-23T15:08:08.864Z</time>
      </trkpt>
      <trkpt lat="39.30511" lon="-1.65351">
        <ele>687.704101</ele>
        <time>2022-02-23T15:08:42.715Z</time>
      </trkpt>
      <trkpt lat="39.30477" lon="-1.65368">
        <ele>688.6533</ele>
        <time>2022-02-23T15:08:53.891Z</time>
      </trkpt>
      <trkpt lat="39.30458" lon="-1.65378">
        <ele>689.178899</ele>
        <time>2022-02-23T15:09:01.690Z</time>
      </trkpt>
      <trkpt lat="39.30424" lon="-1.65404">
        <ele>690.18315</ele>
        <time>2022-02-23T15:09:16.606Z</time>
      </trkpt>
      <trkpt lat="39.30399" lon="-1.65441">
        <ele>691.162228</ele>
        <time>2022-02-23T15:09:32.214Z</time>
      </trkpt>
      <trkpt lat="39.30385" lon="-1.65497">
        <ele>693.147402</ele>
        <time>2022-02-23T15:09:52.017Z</time>
      </trkpt>
      <trkpt lat="39.30384" lon="-1.65523">
        <ele>694.097986</ele>
        <time>2022-02-23T15:10:01.729Z</time>
      </trkpt>
      <trkpt lat="39.30402" lon="-1.6567">
        <ele>699.498873</ele>
        <time>2022-02-23T15:10:56.654Z</time>
      </trkpt>
      <trkpt lat="39.30327" lon="-1.65666">
        <ele>702.529805</ele>
        <time>2022-02-23T15:11:32.993Z</time>
      </trkpt>
      <trkpt lat="39.30313" lon="-1.6573">
        <ele>704.572172</ele>
        <time>2022-02-23T15:11:54.608Z</time>
      </trkpt>
      <trkpt lat="39.30277" lon="-1.65833">
        <ele>707.724826</ele>
        <time>2022-02-23T15:12:27.849Z</time>
      </trkpt>
      <trkpt lat="39.3026" lon="-1.6587">
        <ele>708.644875</ele>
        <time>2022-02-23T15:12:40.581Z</time>
      </trkpt>
      <trkpt lat="39.30228" lon="-1.65922">
        <ele>710.099697</ele>
        <time>2022-02-23T15:12:59.876Z</time>
      </trkpt>
      <trkpt lat="39.3024" lon="-1.66012">
        <ele>712.078886</ele>
        <time>2022-02-23T15:13:25.096Z</time>
      </trkpt>
      <trkpt lat="39.30243" lon="-1.66122">
        <ele>714.816705</ele>
        <time>2022-02-23T15:13:56.399Z</time>
      </trkpt>
      <trkpt lat="39.30244" lon="-1.66128">
        <ele>714.97671</ele>
        <time>2022-02-23T15:13:58.356Z</time>
      </trkpt>
      <trkpt lat="39.30232" lon="-1.66173">
        <ele>716.160217</ele>
        <time>2022-02-23T15:14:13.402Z</time>
      </trkpt>
      <trkpt lat="39.30222" lon="-1.6621">
        <ele>717.135827</ele>
        <time>2022-02-23T15:14:26.258Z</time>
      </trkpt>
      <trkpt lat="39.3021" lon="-1.66254">
        <ele>718.38448</ele>
        <time>2022-02-23T15:14:41.811Z</time>
      </trkpt>
      <trkpt lat="39.30204" lon="-1.66265">
        <ele>718.785984</ele>
        <time>2022-02-23T15:14:46.387Z</time>
      </trkpt>
      <trkpt lat="39.30137" lon="-1.6638">
        <ele>722.926529</ele>
        <time>2022-02-23T15:15:34.132Z</time>
      </trkpt>
      <trkpt lat="39.30101" lon="-1.66442">
        <ele>724.732265</ele>
        <time>2022-02-23T15:15:58.503Z</time>
      </trkpt>
      <trkpt lat="39.30088" lon="-1.66466">
        <ele>725.042283</ele>
        <time>2022-02-23T15:16:06.800Z</time>
      </trkpt>
      <trkpt lat="39.30075" lon="-1.66487">
        <ele>725.331174</ele>
        <time>2022-02-23T15:16:14.199Z</time>
      </trkpt>
      <trkpt lat="39.30066" lon="-1.66499">
        <ele>725.500933</ele>
        <time>2022-02-23T15:16:18.280Z</time>
      </trkpt>
      <trkpt lat="39.30054" lon="-1.66507">
        <ele>725.696053</ele>
        <time>2022-02-23T15:16:22.816Z</time>
      </trkpt>
      <trkpt lat="39.29991" lon="-1.66544">
        <ele>726.645639</ele>
        <time>2022-02-23T15:16:39.677Z</time>
      </trkpt>
      <trkpt lat="39.29977" lon="-1.66561">
        <ele>726.912039</ele>
        <time>2022-02-23T15:16:43.742Z</time>
      </trkpt>
      <trkpt lat="39.29948" lon="-1.66615">
        <ele>726.74656</ele>
        <time>2022-02-23T15:16:54.098Z</time>
      </trkpt>
      <trkpt lat="39.29931" lon="-1.66678">
        <ele>726.528372</ele>
        <time>2022-02-23T15:17:04.420Z</time>
      </trkpt>
      <trkpt lat="39.29608" lon="-1.67926">
        <ele>725.175619</ele>
        <time>2022-02-23T15:20:46.771Z</time>
      </trkpt>
      <trkpt lat="39.29598" lon="-1.67948">
        <ele>725.27329</ele>
        <time>2022-02-23T15:20:51.354Z</time>
      </trkpt>
      <trkpt lat="39.29332" lon="-1.69024">
        <ele>729.341932</ele>
        <time>2022-02-23T15:24:38.478Z</time>
      </trkpt>
      <trkpt lat="39.29333" lon="-1.69042">
        <ele>729.263929</ele>
        <time>2022-02-23T15:24:43.527Z</time>
      </trkpt>
      <trkpt lat="39.29342" lon="-1.69074">
        <ele>729.120466</ele>
        <time>2022-02-23T15:24:52.786Z</time>
      </trkpt>
      <trkpt lat="39.29339" lon="-1.69099">
        <ele>729.010712</ele>
        <time>2022-02-23T15:24:59.788Z</time>
      </trkpt>
      <trkpt lat="39.29305" lon="-1.69095">
        <ele>728.826779</ele>
        <time>2022-02-23T15:25:11.325Z</time>
      </trkpt>
      <trkpt lat="39.29283" lon="-1.69198">
        <ele>728.141386</ele>
        <time>2022-02-23T15:25:27.484Z</time>
      </trkpt>
      <trkpt lat="39.29179" lon="-1.69617">
        <ele>723.912274</ele>
        <time>2022-02-23T15:26:33.126Z</time>
      </trkpt>
      <trkpt lat="39.29064" lon="-1.70172">
        <ele>722.659569</ele>
        <time>2022-02-23T15:28:09.391Z</time>
      </trkpt>
      <trkpt lat="39.29028" lon="-1.70352">
        <ele>722.065739</ele>
        <time>2022-02-23T15:28:40.426Z</time>
      </trkpt>
      <trkpt lat="39.28992" lon="-1.70503">
        <ele>721.257977</ele>
        <time>2022-02-23T15:29:05.293Z</time>
      </trkpt>
      <trkpt lat="39.28961" lon="-1.7059">
        <ele>720.26243</ele>
        <time>2022-02-23T15:29:19.704Z</time>
      </trkpt>
      <trkpt lat="39.28903" lon="-1.70708">
        <ele>718.815844</ele>
        <time>2022-02-23T15:29:40.228Z</time>
      </trkpt>
      <trkpt lat="39.2879" lon="-1.70883">
        <ele>716.299745</ele>
        <time>2022-02-23T15:30:14.087Z</time>
      </trkpt>
      <trkpt lat="39.28551" lon="-1.71231">
        <ele>711.223408</ele>
        <time>2022-02-23T15:31:22.977Z</time>
      </trkpt>
      <trkpt lat="39.28502" lon="-1.71282">
        <ele>710.888829</ele>
        <time>2022-02-23T15:31:35.158Z</time>
      </trkpt>
      <trkpt lat="39.28475" lon="-1.71302">
        <ele>710.726608</ele>
        <time>2022-02-23T15:31:41.342Z</time>
      </trkpt>
      <trkpt lat="39.28432" lon="-1.7133">
        <ele>710.470995</ele>
        <time>2022-02-23T15:31:51.695Z</time>
      </trkpt>
      <trkpt lat="39.28388" lon="-1.7135">
        <ele>710.454695</ele>
        <time>2022-02-23T15:32:03.112Z</time>
      </trkpt>
      <trkpt lat="39.28374" lon="-1.71355">
        <ele>710.685812</ele>
        <time>2022-02-23T15:32:06.655Z</time>
      </trkpt>
      <trkpt lat="39.28361" lon="-1.71358">
        <ele>710.906857</ele>
        <time>2022-02-23T15:32:10.286Z</time>
      </trkpt>
      <trkpt lat="39.28114" lon="-1.71401">
        <ele>714.973832</ele>
        <time>2022-02-23T15:33:31.475Z</time>
      </trkpt>
      <trkpt lat="39.27958" lon="-1.71427">
        <ele>715.85224</ele>
        <time>2022-02-23T15:34:13.570Z</time>
      </trkpt>
      <trkpt lat="39.27906" lon="-1.71441">
        <ele>715.678843</ele>
        <time>2022-02-23T15:34:24.002Z</time>
      </trkpt>
      <trkpt lat="39.27834" lon="-1.71477">
        <ele>714.849436</ele>
        <time>2022-02-23T15:34:38.348Z</time>
      </trkpt>
      <trkpt lat="39.27764" lon="-1.71535">
        <ele>713.201986</ele>
        <time>2022-02-23T15:34:53.348Z</time>
      </trkpt>
      <trkpt lat="39.27706" lon="-1.71608">
        <ele>711.698373</ele>
        <time>2022-02-23T15:35:08.371Z</time>
      </trkpt>
      <trkpt lat="39.27608" lon="-1.71781">
        <ele>709.322125</ele>
        <time>2022-02-23T15:35:40.356Z</time>
      </trkpt>
      <trkpt lat="39.27575" lon="-1.71827">
        <ele>708.676605</ele>
        <time>2022-02-23T15:35:49.775Z</time>
      </trkpt>
      <trkpt lat="39.27571" lon="-1.71832">
        <ele>708.596196</ele>
        <time>2022-02-23T15:35:50.940Z</time>
      </trkpt>
      <trkpt lat="39.27552" lon="-1.71851">
        <ele>708.282077</ele>
        <time>2022-02-23T15:35:55.566Z</time>
      </trkpt>
      <trkpt lat="39.27482" lon="-1.71907">
        <ele>707.174785</ele>
        <time>2022-02-23T15:36:11.507Z</time>
      </trkpt>
      <trkpt lat="39.27413" lon="-1.71941">
        <ele>706.196837</ele>
        <time>2022-02-23T15:36:25.529Z</time>
      </trkpt>
      <trkpt lat="39.27373" lon="-1.71951">
        <ele>705.648016</ele>
        <time>2022-02-23T15:36:33.398Z</time>
      </trkpt>
      <trkpt lat="39.26935" lon="-1.71998">
        <ele>700.623347</ele>
        <time>2022-02-23T15:37:58.613Z</time>
      </trkpt>
      <trkpt lat="39.26807" lon="-1.72004">
        <ele>702.298725</ele>
        <time>2022-02-23T15:38:36.558Z</time>
      </trkpt>
      <trkpt lat="39.26769" lon="-1.71998">
        <ele>702.794305</ele>
        <time>2022-02-23T15:38:49.443Z</time>
      </trkpt>
      <trkpt lat="39.26647" lon="-1.7196">
        <ele>704.140355</ele>
        <time>2022-02-23T15:39:28.222Z</time>
      </trkpt>
      <trkpt lat="39.26572" lon="-1.71954">
        <ele>704.725096</ele>
        <time>2022-02-23T15:39:46.415Z</time>
      </trkpt>
      <trkpt lat="39.24549" lon="-1.72048">
        <ele>676.740442</ele>
        <time>2022-02-23T15:46:13.838Z</time>
      </trkpt>
      <trkpt lat="39.23549" lon="-1.72096">
        <ele>670.285859</ele>
        <time>2022-02-23T15:49:40.822Z</time>
      </trkpt>
      <trkpt lat="39.226" lon="-1.72142">
        <ele>667.131821</ele>
        <time>2022-02-23T15:53:03.112Z</time>
      </trkpt>
      <trkpt lat="39.22549" lon="-1.72147">
        <ele>667.143576</ele>
        <time>2022-02-23T15:53:14.737Z</time>
      </trkpt>
      <trkpt lat="39.22467" lon="-1.72168">
        <ele>667.162508</ele>
        <time>2022-02-23T15:53:34.065Z</time>
      </trkpt>
      <trkpt lat="39.22364" lon="-1.72217">
        <ele>667.171743</ele>
        <time>2022-02-23T15:53:58.460Z</time>
      </trkpt>
      <trkpt lat="39.22351" lon="-1.72225">
        <ele>667.172457</ele>
        <time>2022-02-23T15:54:01.477Z</time>
      </trkpt>
      <trkpt lat="39.22343" lon="-1.72215">
        <ele>667.173046</ele>
        <time>2022-02-23T15:54:03.915Z</time>
      </trkpt>
      <trkpt lat="39.22339" lon="-1.72197">
        <ele>667.173815</ele>
        <time>2022-02-23T15:54:07.106Z</time>
      </trkpt>
      <trkpt lat="39.22319" lon="-1.72156">
        <ele>667.175765</ele>
        <time>2022-02-23T15:54:15.666Z</time>
      </trkpt>
      <trkpt lat="39.223" lon="-1.72147">
        <ele>667.190279</ele>
        <time>2022-02-23T15:54:20.440Z</time>
      </trkpt>
      <trkpt lat="39.2221" lon="-1.72144">
        <ele>667.359923</ele>
        <time>2022-02-23T15:54:40.939Z</time>
      </trkpt>
      <trkpt lat="39.22159" lon="-1.7215">
        <ele>667.455041</ele>
        <time>2022-02-23T15:54:53.156Z</time>
      </trkpt>
      <trkpt lat="39.21837" lon="-1.72163">
        <ele>667.808911</ele>
        <time>2022-02-23T15:56:07.095Z</time>
      </trkpt>
      <trkpt lat="39.21607" lon="-1.72174">
        <ele>667.546869</ele>
        <time>2022-02-23T15:56:57.685Z</time>
      </trkpt>
      <trkpt lat="39.21444" lon="-1.72187">
        <ele>666.385214</ele>
        <time>2022-02-23T15:57:31.329Z</time>
      </trkpt>
      <trkpt lat="39.21397" lon="-1.72192">
        <ele>665.893556</ele>
        <time>2022-02-23T15:57:40.454Z</time>
      </trkpt>
      <trkpt lat="39.21314" lon="-1.722">
        <ele>664.440113</ele>
        <time>2022-02-23T15:57:55.922Z</time>
      </trkpt>
      <trkpt lat="39.21277" lon="-1.72202">
        <ele>663.788436</ele>
        <time>2022-02-23T15:58:02.796Z</time>
      </trkpt>
      <trkpt lat="39.21262" lon="-1.72201">
        <ele>663.525424</ele>
        <time>2022-02-23T15:58:05.529Z</time>
      </trkpt>
      <trkpt lat="39.21185" lon="-1.72188">
        <ele>662.286338</ele>
        <time>2022-02-23T15:58:19.887Z</time>
      </trkpt>
      <trkpt lat="39.21173" lon="-1.72184">
        <ele>662.101374</ele>
        <time>2022-02-23T15:58:22.211Z</time>
      </trkpt>
      <trkpt lat="39.21131" lon="-1.72172">
        <ele>661.468205</ele>
        <time>2022-02-23T15:58:30.118Z</time>
      </trkpt>
      <trkpt lat="39.21085" lon="-1.72159">
        <ele>660.762139</ele>
        <time>2022-02-23T15:58:39.194Z</time>
      </trkpt>
      <trkpt lat="39.21063" lon="-1.72152">
        <ele>660.423088</ele>
        <time>2022-02-23T15:58:43.733Z</time>
      </trkpt>
      <trkpt lat="39.21038" lon="-1.7213">
        <ele>660.220567</ele>
        <time>2022-02-23T15:58:49.895Z</time>
      </trkpt>
      <trkpt lat="39.21009" lon="-1.72092">
        <ele>660.091965</ele>
        <time>2022-02-23T15:58:58.684Z</time>
      </trkpt>
      <trkpt lat="39.20924" lon="-1.71987">
        <ele>659.731014</ele>
        <time>2022-02-23T15:59:24.164Z</time>
      </trkpt>
      <trkpt lat="39.20903" lon="-1.7197">
        <ele>659.872614</ele>
        <time>2022-02-23T15:59:29.911Z</time>
      </trkpt>
      <trkpt lat="39.20879" lon="-1.71959">
        <ele>660.024251</ele>
        <time>2022-02-23T15:59:36.215Z</time>
      </trkpt>
      <trkpt lat="39.20839" lon="-1.71924">
        <ele>660.310003</ele>
        <time>2022-02-23T15:59:48.039Z</time>
      </trkpt>
      <trkpt lat="39.20816" lon="-1.71889">
        <ele>660.522445</ele>
        <time>2022-02-23T15:59:57.318Z</time>
      </trkpt>
      <trkpt lat="39.2078" lon="-1.71759">
        <ele>661.466732</ele>
        <time>2022-02-23T16:00:26.641Z</time>
      </trkpt>
      <trkpt lat="39.2075" lon="-1.71684">
        <ele>662.197924</ele>
        <time>2022-02-23T16:00:45.476Z</time>
      </trkpt>
      <trkpt lat="39.20746" lon="-1.71676">
        <ele>662.281487</ele>
        <time>2022-02-23T16:00:47.551Z</time>
      </trkpt>
      <trkpt lat="39.20717" lon="-1.71582">
        <ele>663.003673</ele>
        <time>2022-02-23T16:01:09.189Z</time>
      </trkpt>
      <trkpt lat="39.2068" lon="-1.71495">
        <ele>663.502221</ele>
        <time>2022-02-23T16:01:29.036Z</time>
      </trkpt>
      <trkpt lat="39.20585" lon="-1.71371">
        <ele>664.32211</ele>
        <time>2022-02-23T16:02:01.460Z</time>
      </trkpt>
      <trkpt lat="39.20566" lon="-1.71336">
        <ele>664.504694</ele>
        <time>2022-02-23T16:02:09.650Z</time>
      </trkpt>
      <trkpt lat="39.20541" lon="-1.71273">
        <ele>664.808139</ele>
        <time>2022-02-23T16:02:23.642Z</time>
      </trkpt>
      <trkpt lat="39.20516" lon="-1.71231">
        <ele>665.083319</ele>
        <time>2022-02-23T16:02:34.375Z</time>
      </trkpt>
      <trkpt lat="39.20469" lon="-1.71182">
        <ele>665.617298</ele>
        <time>2022-02-23T16:02:50.499Z</time>
      </trkpt>
      <trkpt lat="39.20419" lon="-1.71109">
        <ele>666.283843</ele>
        <time>2022-02-23T16:03:10.740Z</time>
      </trkpt>
      <trkpt lat="39.2029" lon="-1.71035">
        <ele>667.492067</ele>
        <time>2022-02-23T16:03:48.161Z</time>
      </trkpt>
      <trkpt lat="39.20262" lon="-1.71005">
        <ele>667.805627</ele>
        <time>2022-02-23T16:03:57.941Z</time>
      </trkpt>
      <trkpt lat="39.20193" lon="-1.70905">
        <ele>668.526877</ele>
        <time>2022-02-23T16:04:25.451Z</time>
      </trkpt>
      <trkpt lat="39.20053" lon="-1.70779">
        <ele>669.454077</ele>
        <time>2022-02-23T16:05:07.471Z</time>
      </trkpt>
      <trkpt lat="39.19968" lon="-1.7072">
        <ele>669.842499</ele>
        <time>2022-02-23T16:05:30.685Z</time>
      </trkpt>
      <trkpt lat="39.19928" lon="-1.7066">
        <ele>670.113234</ele>
        <time>2022-02-23T16:05:45.296Z</time>
      </trkpt>
      <trkpt lat="39.1984" lon="-1.70585">
        <ele>670.60829</ele>
        <time>2022-02-23T16:06:11.389Z</time>
      </trkpt>
      <trkpt lat="39.19798" lon="-1.70509">
        <ele>670.851829</ele>
        <time>2022-02-23T16:06:29.424Z</time>
      </trkpt>
      <trkpt lat="39.19703" lon="-1.70439">
        <ele>671.091998</ele>
        <time>2022-02-23T16:06:54.800Z</time>
      </trkpt>
      <trkpt lat="39.1966" lon="-1.70426">
        <ele>671.144785</ele>
        <time>2022-02-23T16:07:04.663Z</time>
      </trkpt>
      <trkpt lat="39.19576" lon="-1.70424">
        <ele>671.015602</ele>
        <time>2022-02-23T16:07:23.109Z</time>
      </trkpt>
      <trkpt lat="39.1947" lon="-1.70379">
        <ele>670.877141</ele>
        <time>2022-02-23T16:07:47.070Z</time>
      </trkpt>
      <trkpt lat="39.19405" lon="-1.70364">
        <ele>670.851171</ele>
        <time>2022-02-23T16:08:01.515Z</time>
      </trkpt>
      <trkpt lat="39.1938" lon="-1.7035">
        <ele>670.840506</ele>
        <time>2022-02-23T16:08:07.580Z</time>
      </trkpt>
      <trkpt lat="39.19315" lon="-1.70299">
        <ele>670.889227</ele>
        <time>2022-02-23T16:08:25.170Z</time>
      </trkpt>
      <trkpt lat="39.19221" lon="-1.70244">
        <ele>671.312008</ele>
        <time>2022-02-23T16:08:50.354Z</time>
      </trkpt>
      <trkpt lat="39.19158" lon="-1.70226">
        <ele>671.576709</ele>
        <time>2022-02-23T16:09:06.266Z</time>
      </trkpt>
      <trkpt lat="39.19069" lon="-1.70179">
        <ele>672.012636</ele>
        <time>2022-02-23T16:09:30.154Z</time>
      </trkpt>
      <trkpt lat="39.18932" lon="-1.70139">
        <ele>672.298227</ele>
        <time>2022-02-23T16:10:04.159Z</time>
      </trkpt>
      <trkpt lat="39.18868" lon="-1.70078">
        <ele>672.211533</ele>
        <time>2022-02-23T16:10:21.443Z</time>
      </trkpt>
      <trkpt lat="39.18733" lon="-1.69965">
        <ele>671.452007</ele>
        <time>2022-02-23T16:10:54.139Z</time>
      </trkpt>
      <trkpt lat="39.18628" lon="-1.69834">
        <ele>671.255007</ele>
        <time>2022-02-23T16:11:25.332Z</time>
      </trkpt>
      <trkpt lat="39.18604" lon="-1.69811">
        <ele>671.301845</ele>
        <time>2022-02-23T16:11:32.698Z</time>
      </trkpt>
      <trkpt lat="39.18564" lon="-1.6979">
        <ele>671.368753</ele>
        <time>2022-02-23T16:11:43.569Z</time>
      </trkpt>
      <trkpt lat="39.18496" lon="-1.69771">
        <ele>671.906006</ele>
        <time>2022-02-23T16:12:02.022Z</time>
      </trkpt>
      <trkpt lat="39.18423" lon="-1.69704">
        <ele>672.797523</ele>
        <time>2022-02-23T16:12:26.836Z</time>
      </trkpt>
      <trkpt lat="39.18321" lon="-1.69651">
        <ele>673.918381</ele>
        <time>2022-02-23T16:12:57.168Z</time>
      </trkpt>
      <trkpt lat="39.18082" lon="-1.69429">
        <ele>677.019665</ele>
        <time>2022-02-23T16:14:17.882Z</time>
      </trkpt>
      <trkpt lat="39.17974" lon="-1.69318">
        <ele>678.761154</ele>
        <time>2022-02-23T16:14:56.188Z</time>
      </trkpt>
      <trkpt lat="39.17789" lon="-1.69195">
        <ele>682.320683</ele>
        <time>2022-02-23T16:16:01.231Z</time>
      </trkpt>
      <trkpt lat="39.17672" lon="-1.69133">
        <ele>684.36358</ele>
        <time>2022-02-23T16:16:41.409Z</time>
      </trkpt>
      <trkpt lat="39.17639" lon="-1.69122">
        <ele>684.920649</ele>
        <time>2022-02-23T16:16:51.546Z</time>
      </trkpt>
      <trkpt lat="39.17608" lon="-1.69121">
        <ele>685.364235</ele>
        <time>2022-02-23T16:17:00.006Z</time>
      </trkpt>
      <trkpt lat="39.17514" lon="-1.6916">
        <ele>685.986781</ele>
        <time>2022-02-23T16:17:25.449Z</time>
      </trkpt>
      <trkpt lat="39.17409" lon="-1.69172">
        <ele>686.844667</ele>
        <time>2022-02-23T16:17:50.337Z</time>
      </trkpt>
      <trkpt lat="39.17368" lon="-1.69168">
        <ele>687.37716</ele>
        <time>2022-02-23T16:18:01.194Z</time>
      </trkpt>
      <trkpt lat="39.17283" lon="-1.69141">
        <ele>688.510853</ele>
        <time>2022-02-23T16:18:27.274Z</time>
      </trkpt>
      <trkpt lat="39.17251" lon="-1.69134">
        <ele>689.042346</ele>
        <time>2022-02-23T16:18:38.065Z</time>
      </trkpt>
      <trkpt lat="39.17082" lon="-1.69122">
        <ele>693.144296</ele>
        <time>2022-02-23T16:19:37.992Z</time>
      </trkpt>
      <trkpt lat="39.16964" lon="-1.6915">
        <ele>695.148297</ele>
        <time>2022-02-23T16:20:16.151Z</time>
      </trkpt>
      <trkpt lat="39.16897" lon="-1.69135">
        <ele>696.166809</ele>
        <time>2022-02-23T16:20:34.750Z</time>
      </trkpt>
      <trkpt lat="39.16867" lon="-1.69122">
        <ele>696.272058</ele>
        <time>2022-02-23T16:20:43.090Z</time>
      </trkpt>
      <trkpt lat="39.16854" lon="-1.69111">
        <ele>696.32687</ele>
        <time>2022-02-23T16:20:47.186Z</time>
      </trkpt>
      <trkpt lat="39.16798" lon="-1.69012">
        <ele>696.64227</ele>
        <time>2022-02-23T16:21:09.186Z</time>
      </trkpt>
      <trkpt lat="39.1678" lon="-1.68989">
        <ele>696.728774</ele>
        <time>2022-02-23T16:21:15.018Z</time>
      </trkpt>
      <trkpt lat="39.16738" lon="-1.68967">
        <ele>696.552444</ele>
        <time>2022-02-23T16:21:24.726Z</time>
      </trkpt>
      <trkpt lat="39.1667" lon="-1.6895">
        <ele>696.236281</ele>
        <time>2022-02-23T16:21:39.289Z</time>
      </trkpt>
      <trkpt lat="39.16599" lon="-1.68909">
        <ele>695.851458</ele>
        <time>2022-02-23T16:21:55.071Z</time>
      </trkpt>
      <trkpt lat="39.16564" lon="-1.68887">
        <ele>695.504438</ele>
        <time>2022-02-23T16:22:03.129Z</time>
      </trkpt>
      <trkpt lat="39.16471" lon="-1.68804">
        <ele>694.50452</ele>
        <time>2022-02-23T16:22:25.832Z</time>
      </trkpt>
      <trkpt lat="39.16441" lon="-1.68783">
        <ele>694.107976</ele>
        <time>2022-02-23T16:22:32.591Z</time>
      </trkpt>
      <trkpt lat="39.16404" lon="-1.68769">
        <ele>693.526995</ele>
        <time>2022-02-23T16:22:40.033Z</time>
      </trkpt>
      <trkpt lat="39.16322" lon="-1.68754">
        <ele>692.258025</ele>
        <time>2022-02-23T16:22:55.840Z</time>
      </trkpt>
      <trkpt lat="39.16301" lon="-1.68744">
        <ele>691.914893</ele>
        <time>2022-02-23T16:23:00.017Z</time>
      </trkpt>
      <trkpt lat="39.16134" lon="-1.68608">
        <ele>688.396833</ele>
        <time>2022-02-23T16:23:36.406Z</time>
      </trkpt>
      <trkpt lat="39.16102" lon="-1.68576">
        <ele>688.020649</ele>
        <time>2022-02-23T16:23:44.259Z</time>
      </trkpt>
      <trkpt lat="39.16045" lon="-1.68491">
        <ele>687.286368</ele>
        <time>2022-02-23T16:24:01.883Z</time>
      </trkpt>
      <trkpt lat="39.16026" lon="-1.68475">
        <ele>687.094087</ele>
        <time>2022-02-23T16:24:06.584Z</time>
      </trkpt>
      <trkpt lat="39.15977" lon="-1.68453">
        <ele>686.683702</ele>
        <time>2022-02-23T16:24:17.692Z</time>
      </trkpt>
      <trkpt lat="39.1592" lon="-1.68442">
        <ele>686.282013</ele>
        <time>2022-02-23T16:24:30.054Z</time>
      </trkpt>
      <trkpt lat="39.15732" lon="-1.68457">
        <ele>683.986625</ele>
        <time>2022-02-23T16:25:07.727Z</time>
      </trkpt>
      <trkpt lat="39.15712" lon="-1.6845">
        <ele>683.61517</ele>
        <time>2022-02-23T16:25:11.384Z</time>
      </trkpt>
      <trkpt lat="39.15696" lon="-1.68432">
        <ele>683.213768</ele>
        <time>2022-02-23T16:25:15.351Z</time>
      </trkpt>
      <trkpt lat="39.15675" lon="-1.68397">
        <ele>682.582638</ele>
        <time>2022-02-23T16:25:21.432Z</time>
      </trkpt>
      <trkpt lat="39.15598" lon="-1.68238">
        <ele>676.58641</ele>
        <time>2022-02-23T16:25:46.113Z</time>
      </trkpt>
      <trkpt lat="39.15564" lon="-1.68143">
        <ele>672.112155</ele>
        <time>2022-02-23T16:25:58.327Z</time>
      </trkpt>
      <trkpt lat="39.15543" lon="-1.68112">
        <ele>669.735913</ele>
        <time>2022-02-23T16:26:03.106Z</time>
      </trkpt>
      <trkpt lat="39.15515" lon="-1.68074">
        <ele>666.744163</ele>
        <time>2022-02-23T16:26:09.069Z</time>
      </trkpt>
      <trkpt lat="39.15488" lon="-1.67987">
        <ele>661.348585</ele>
        <time>2022-02-23T16:26:19.703Z</time>
      </trkpt>
      <trkpt lat="39.15455" lon="-1.67917">
        <ele>657.836548</ele>
        <time>2022-02-23T16:26:29.077Z</time>
      </trkpt>
      <trkpt lat="39.15435" lon="-1.67908">
        <ele>656.710601</ele>
        <time>2022-02-23T16:26:32.427Z</time>
      </trkpt>
      <trkpt lat="39.1538" lon="-1.67908">
        <ele>653.817668</ele>
        <time>2022-02-23T16:26:41.386Z</time>
      </trkpt>
      <trkpt lat="39.15271" lon="-1.67917">
        <ele>649.122605</ele>
        <time>2022-02-23T16:27:00.168Z</time>
      </trkpt>
      <trkpt lat="39.15224" lon="-1.67939">
        <ele>647.339156</ele>
        <time>2022-02-23T16:27:08.672Z</time>
      </trkpt>
      <trkpt lat="39.1518" lon="-1.67948">
        <ele>645.752695</ele>
        <time>2022-02-23T16:27:16.125Z</time>
      </trkpt>
      <trkpt lat="39.15088" lon="-1.67944">
        <ele>640.913664</ele>
        <time>2022-02-23T16:27:30.958Z</time>
      </trkpt>
      <trkpt lat="39.15019" lon="-1.67927">
        <ele>636.830519</ele>
        <time>2022-02-23T16:27:41.528Z</time>
      </trkpt>
      <trkpt lat="39.14996" lon="-1.67937">
        <ele>635.373557</ele>
        <time>2022-02-23T16:27:45.209Z</time>
      </trkpt>
      <trkpt lat="39.1496" lon="-1.67967">
        <ele>632.785088</ele>
        <time>2022-02-23T16:27:51.641Z</time>
      </trkpt>
      <trkpt lat="39.1494" lon="-1.67971">
        <ele>631.559756</ele>
        <time>2022-02-23T16:27:54.695Z</time>
      </trkpt>
      <trkpt lat="39.14911" lon="-1.67964">
        <ele>629.730994</ele>
        <time>2022-02-23T16:27:59.226Z</time>
      </trkpt>
      <trkpt lat="39.149" lon="-1.67953">
        <ele>628.848005</ele>
        <time>2022-02-23T16:28:03.060Z</time>
      </trkpt>
      <trkpt lat="39.14854" lon="-1.67943">
        <ele>625.97823</ele>
        <time>2022-02-23T16:28:16.139Z</time>
      </trkpt>
      <trkpt lat="39.14744" lon="-1.67852">
        <ele>619.656643</ele>
        <time>2022-02-23T16:28:53.290Z</time>
      </trkpt>
      <trkpt lat="39.14703" lon="-1.6783">
        <ele>617.80275</ele>
        <time>2022-02-23T16:29:07.156Z</time>
      </trkpt>
      <trkpt lat="39.14572" lon="-1.67789">
        <ele>612.573319</ele>
        <time>2022-02-23T16:29:48.818Z</time>
      </trkpt>
      <trkpt lat="39.14534" lon="-1.67762">
        <ele>610.942894</ele>
        <time>2022-02-23T16:30:01.781Z</time>
      </trkpt>
      <trkpt lat="39.14512" lon="-1.67733">
        <ele>609.786116</ele>
        <time>2022-02-23T16:30:10.998Z</time>
      </trkpt>
      <trkpt lat="39.14463" lon="-1.67646">
        <ele>606.499305</ele>
        <time>2022-02-23T16:30:24.588Z</time>
      </trkpt>
      <trkpt lat="39.1444" lon="-1.67633">
        <ele>605.484363</ele>
        <time>2022-02-23T16:30:28.734Z</time>
      </trkpt>
      <trkpt lat="39.14371" lon="-1.67629">
        <ele>602.732094</ele>
        <time>2022-02-23T16:30:39.977Z</time>
      </trkpt>
      <trkpt lat="39.14348" lon="-1.67628">
        <ele>601.936402</ele>
        <time>2022-02-23T16:30:43.874Z</time>
      </trkpt>
      <trkpt lat="39.1434" lon="-1.67619">
        <ele>601.92488</ele>
        <time>2022-02-23T16:30:45.598Z</time>
      </trkpt>
      <trkpt lat="39.1432" lon="-1.6762">
        <ele>601.902735</ele>
        <time>2022-02-23T16:30:49.104Z</time>
      </trkpt>
      <trkpt lat="39.14254" lon="-1.67634">
        <ele>601.829164</ele>
        <time>2022-02-23T16:31:01.626Z</time>
      </trkpt>
      <trkpt lat="39.14238" lon="-1.67632">
        <ele>601.811803</ele>
        <time>2022-02-23T16:31:05.169Z</time>
      </trkpt>
      <trkpt lat="39.14207" lon="-1.67598">
        <ele>601.766947</ele>
        <time>2022-02-23T16:31:17.302Z</time>
      </trkpt>
      <trkpt lat="39.14176" lon="-1.67542">
        <ele>603.610457</ele>
        <time>2022-02-23T16:31:41.987Z</time>
      </trkpt>
      <trkpt lat="39.14168" lon="-1.67506">
        <ele>605.393039</ele>
        <time>2022-02-23T16:31:57.221Z</time>
      </trkpt>
      <trkpt lat="39.14164" lon="-1.67439">
        <ele>608.564883</ele>
        <time>2022-02-23T16:32:24.144Z</time>
      </trkpt>
      <trkpt lat="39.14159" lon="-1.67413">
        <ele>609.841733</ele>
        <time>2022-02-23T16:32:34.977Z</time>
      </trkpt>
      <trkpt lat="39.14137" lon="-1.67361">
        <ele>612.682161</ele>
        <time>2022-02-23T16:33:02.372Z</time>
      </trkpt>
      <trkpt lat="39.14085" lon="-1.67375">
        <ele>617.3447</ele>
        <time>2022-02-23T16:33:39.302Z</time>
      </trkpt>
      <trkpt lat="39.14081" lon="-1.67389">
        <ele>618.376069</ele>
        <time>2022-02-23T16:33:47.825Z</time>
      </trkpt>
      <trkpt lat="39.14085" lon="-1.67422">
        <ele>620.670186</ele>
        <time>2022-02-23T16:34:06.843Z</time>
      </trkpt>
      <trkpt lat="39.14085" lon="-1.67425">
        <ele>620.919534</ele>
        <time>2022-02-23T16:34:08.591Z</time>
      </trkpt>
      <trkpt lat="39.14061" lon="-1.67439">
        <ele>623.295634</ele>
        <time>2022-02-23T16:34:27.897Z</time>
      </trkpt>
      <trkpt lat="39.14042" lon="-1.67461">
        <ele>625.580044</ele>
        <time>2022-02-23T16:34:43.552Z</time>
      </trkpt>
      <trkpt lat="39.13984" lon="-1.67476">
        <ele>631.151753</ele>
        <time>2022-02-23T16:35:20.633Z</time>
      </trkpt>
      <trkpt lat="39.13937" lon="-1.6749">
        <ele>636.160044</ele>
        <time>2022-02-23T16:35:57.202Z</time>
      </trkpt>
      <trkpt lat="39.13915" lon="-1.67522">
        <ele>639.537832</ele>
        <time>2022-02-23T16:36:24.220Z</time>
      </trkpt>
      <trkpt lat="39.1391" lon="-1.67524">
        <ele>640.165676</ele>
        <time>2022-02-23T16:36:28.668Z</time>
      </trkpt>
      <trkpt lat="39.13813" lon="-1.67496">
        <ele>649.738453</ele>
        <time>2022-02-23T16:37:45.255Z</time>
      </trkpt>
      <trkpt lat="39.13762" lon="-1.67512">
        <ele>653.936153</ele>
        <time>2022-02-23T16:38:19.118Z</time>
      </trkpt>
      <trkpt lat="39.13721" lon="-1.67504">
        <ele>657.305556</ele>
        <time>2022-02-23T16:38:47.639Z</time>
      </trkpt>
      <trkpt lat="39.13718" lon="-1.67523">
        <ele>658.552347</ele>
        <time>2022-02-23T16:38:56.477Z</time>
      </trkpt>
      <trkpt lat="39.13707" lon="-1.67538">
        <ele>659.870603</ele>
        <time>2022-02-23T16:39:05.608Z</time>
      </trkpt>
      <trkpt lat="39.13678" lon="-1.67539">
        <ele>661.92768</ele>
        <time>2022-02-23T16:39:19.338Z</time>
      </trkpt>
      <trkpt lat="39.13679" lon="-1.67543">
        <ele>662.005067</ele>
        <time>2022-02-23T16:39:20.736Z</time>
      </trkpt>
      <trkpt lat="39.13662" lon="-1.6754">
        <ele>662.389094</ele>
        <time>2022-02-23T16:39:27.791Z</time>
      </trkpt>
      <trkpt lat="39.13661" lon="-1.67544">
        <ele>662.465129</ele>
        <time>2022-02-23T16:39:29.213Z</time>
      </trkpt>
      <trkpt lat="39.13644" lon="-1.67587">
        <ele>663.33387</ele>
        <time>2022-02-23T16:39:43.840Z</time>
      </trkpt>
      <trkpt lat="39.13621" lon="-1.67589">
        <ele>663.8849</ele>
        <time>2022-02-23T16:39:52.706Z</time>
      </trkpt>
      <trkpt lat="39.13617" lon="-1.67585">
        <ele>663.998278</ele>
        <time>2022-02-23T16:39:54.065Z</time>
      </trkpt>
      <trkpt lat="39.13614" lon="-1.67585">
        <ele>664.071271</ele>
        <time>2022-02-23T16:39:54.910Z</time>
      </trkpt>
      <trkpt lat="39.13609" lon="-1.6764">
        <ele>665.076696</ele>
        <time>2022-02-23T16:40:08.213Z</time>
      </trkpt>
      <trkpt lat="39.13604" lon="-1.67646">
        <ele>665.245866</ele>
        <time>2022-02-23T16:40:10.026Z</time>
      </trkpt>
      <trkpt lat="39.1358" lon="-1.67642">
        <ele>665.811518</ele>
        <time>2022-02-23T16:40:16.562Z</time>
      </trkpt>
      <trkpt lat="39.13571" lon="-1.67628">
        <ele>666.011248</ele>
        <time>2022-02-23T16:40:19.783Z</time>
      </trkpt>
      <trkpt lat="39.13569" lon="-1.6766">
        <ele>665.730437</ele>
        <time>2022-02-23T16:40:25.520Z</time>
      </trkpt>
      <trkpt lat="39.13565" lon="-1.67669">
        <ele>665.645654</ele>
        <time>2022-02-23T16:40:27.062Z</time>
      </trkpt>
      <trkpt lat="39.13557" lon="-1.67667">
        <ele>665.556963</ele>
        <time>2022-02-23T16:40:28.746Z</time>
      </trkpt>
      <trkpt lat="39.13539" lon="-1.67664">
        <ele>665.353654</ele>
        <time>2022-02-23T16:40:32.578Z</time>
      </trkpt>
      <trkpt lat="39.13528" lon="-1.67662">
        <ele>665.229587</ele>
        <time>2022-02-23T16:40:34.755Z</time>
      </trkpt>
      <trkpt lat="39.13459" lon="-1.67658">
        <ele>664.466763</ele>
        <time>2022-02-23T16:40:48.356Z</time>
      </trkpt>
      <trkpt lat="39.1345" lon="-1.67661">
        <ele>664.356884</ele>
        <time>2022-02-23T16:40:50.250Z</time>
      </trkpt>
      <trkpt lat="39.13404" lon="-1.67698">
        <ele>663.674895</ele>
        <time>2022-02-23T16:41:00.800Z</time>
      </trkpt>
      <trkpt lat="39.13399" lon="-1.67704">
        <ele>663.575595</ele>
        <time>2022-02-23T16:41:02.167Z</time>
      </trkpt>
      <trkpt lat="39.13382" lon="-1.67722">
        <ele>663.26026</ele>
        <time>2022-02-23T16:41:06.519Z</time>
      </trkpt>
      <trkpt lat="39.13339" lon="-1.67766">
        <ele>662.475624</ele>
        <time>2022-02-23T16:41:17.410Z</time>
      </trkpt>
      <trkpt lat="39.13308" lon="-1.67798">
        <ele>661.906864</ele>
        <time>2022-02-23T16:41:25.463Z</time>
      </trkpt>
      <trkpt lat="39.1327" lon="-1.67837">
        <ele>661.346178</ele>
        <time>2022-02-23T16:41:35.460Z</time>
      </trkpt>
      <trkpt lat="39.13219" lon="-1.67851">
        <ele>660.983691</ele>
        <time>2022-02-23T16:41:46.158Z</time>
      </trkpt>
      <trkpt lat="39.13146" lon="-1.67869">
        <ele>660.459548</ele>
        <time>2022-02-23T16:42:02.336Z</time>
      </trkpt>
      <trkpt lat="39.13096" lon="-1.67881">
        <ele>660.220772</ele>
        <time>2022-02-23T16:42:13.651Z</time>
      </trkpt>
      <trkpt lat="39.13096" lon="-1.67891">
        <ele>660.223511</ele>
        <time>2022-02-23T16:42:15.561Z</time>
      </trkpt>
      <trkpt lat="39.13049" lon="-1.67927">
        <ele>660.242106</ele>
        <time>2022-02-23T16:42:27.466Z</time>
      </trkpt>
      <trkpt lat="39.12949" lon="-1.67984">
        <ele>660.256767</ele>
        <time>2022-02-23T16:42:53.668Z</time>
      </trkpt>
      <trkpt lat="39.12803" lon="-1.68009">
        <ele>659.907093</ele>
        <time>2022-02-23T16:43:25.954Z</time>
      </trkpt>
      <trkpt lat="39.12749" lon="-1.68042">
        <ele>659.358026</ele>
        <time>2022-02-23T16:43:37.941Z</time>
      </trkpt>
      <trkpt lat="39.12573" lon="-1.68172">
        <ele>656.841059</ele>
        <time>2022-02-23T16:44:16.152Z</time>
      </trkpt>
      <trkpt lat="39.12456" lon="-1.68214">
        <ele>655.731365</ele>
        <time>2022-02-23T16:44:40.808Z</time>
      </trkpt>
      <trkpt lat="39.12038" lon="-1.68352">
        <ele>656.356487</ele>
        <time>2022-02-23T16:46:22.746Z</time>
      </trkpt>
      <trkpt lat="39.11843" lon="-1.68385">
        <ele>656.317614</ele>
        <time>2022-02-23T16:47:03.828Z</time>
      </trkpt>
      <trkpt lat="39.11784" lon="-1.68388">
        <ele>656.431053</ele>
        <time>2022-02-23T16:47:17.558Z</time>
      </trkpt>
      <trkpt lat="39.11614" lon="-1.68391">
        <ele>659.105955</ele>
        <time>2022-02-23T16:48:10.155Z</time>
      </trkpt>
      <trkpt lat="39.11426" lon="-1.68463">
        <ele>663.488912</ele>
        <time>2022-02-23T16:49:20.014Z</time>
      </trkpt>
      <trkpt lat="39.11369" lon="-1.6848">
        <ele>664.355551</ele>
        <time>2022-02-23T16:49:36.893Z</time>
      </trkpt>
      <trkpt lat="39.11348" lon="-1.6848">
        <ele>664.517059</ele>
        <time>2022-02-23T16:49:42.163Z</time>
      </trkpt>
      <trkpt lat="39.11202" lon="-1.68452">
        <ele>665.744102</ele>
        <time>2022-02-23T16:50:18.064Z</time>
      </trkpt>
      <trkpt lat="39.11055" lon="-1.68425">
        <ele>667.388448</ele>
        <time>2022-02-23T16:50:59.822Z</time>
      </trkpt>
      <trkpt lat="39.10908" lon="-1.68396">
        <ele>669.892288</ele>
        <time>2022-02-23T16:51:46.505Z</time>
      </trkpt>
      <trkpt lat="39.10824" lon="-1.68353">
        <ele>671.079436</ele>
        <time>2022-02-23T16:52:14.283Z</time>
      </trkpt>
      <trkpt lat="39.10788" lon="-1.68357">
        <ele>671.440087</ele>
        <time>2022-02-23T16:52:24.627Z</time>
      </trkpt>
      <trkpt lat="39.10758" lon="-1.68377">
        <ele>671.769368</ele>
        <time>2022-02-23T16:52:33.626Z</time>
      </trkpt>
      <trkpt lat="39.10741" lon="-1.68396">
        <ele>671.994256</ele>
        <time>2022-02-23T16:52:39.560Z</time>
      </trkpt>
      <trkpt lat="39.10722" lon="-1.68416">
        <ele>672.240206</ele>
        <time>2022-02-23T16:52:45.800Z</time>
      </trkpt>
      <trkpt lat="39.10454" lon="-1.68545">
        <ele>671.752535</ele>
        <time>2022-02-23T16:53:46.736Z</time>
      </trkpt>
      <trkpt lat="39.10408" lon="-1.68584">
        <ele>671.650189</ele>
        <time>2022-02-23T16:53:58.586Z</time>
      </trkpt>
      <trkpt lat="39.10384" lon="-1.68612">
        <ele>671.592345</ele>
        <time>2022-02-23T16:54:06.063Z</time>
      </trkpt>
      <trkpt lat="39.10353" lon="-1.68662">
        <ele>671.851955</ele>
        <time>2022-02-23T16:54:17.976Z</time>
      </trkpt>
      <trkpt lat="39.10337" lon="-1.68702">
        <ele>672.035544</ele>
        <time>2022-02-23T16:54:26.651Z</time>
      </trkpt>
      <trkpt lat="39.10316" lon="-1.68787">
        <ele>672.400601</ele>
        <time>2022-02-23T16:54:44.671Z</time>
      </trkpt>
      <trkpt lat="39.10236" lon="-1.69437">
        <ele>675.77839</ele>
        <time>2022-02-23T16:56:53.527Z</time>
      </trkpt>
      <trkpt lat="39.10201" lon="-1.69704">
        <ele>678.381189</ele>
        <time>2022-02-23T16:57:56.109Z</time>
      </trkpt>
      <trkpt lat="39.10194" lon="-1.6973">
        <ele>678.662614</ele>
        <time>2022-02-23T16:58:01.760Z</time>
      </trkpt>
      <trkpt lat="39.10162" lon="-1.6979">
        <ele>678.714412</ele>
        <time>2022-02-23T16:58:16.861Z</time>
      </trkpt>
      <trkpt lat="39.09381" lon="-1.70858">
        <ele>678.760541</ele>
        <time>2022-02-23T17:02:28.348Z</time>
      </trkpt>
      <trkpt lat="39.08917" lon="-1.71496">
        <ele>678.959165</ele>
        <time>2022-02-23T17:05:02.451Z</time>
      </trkpt>
      <trkpt lat="39.08399" lon="-1.72195">
        <ele>675.78247</ele>
        <time>2022-02-23T17:07:40.463Z</time>
      </trkpt>
      <trkpt lat="39.08323" lon="-1.72329">
        <ele>674.864754</ele>
        <time>2022-02-23T17:08:05.825Z</time>
      </trkpt>
      <trkpt lat="39.08271" lon="-1.72394">
        <ele>674.383251</ele>
        <time>2022-02-23T17:08:20.243Z</time>
      </trkpt>
      <trkpt lat="39.08213" lon="-1.72456">
        <ele>674.119707</ele>
        <time>2022-02-23T17:08:36.539Z</time>
      </trkpt>
      <trkpt lat="39.08027" lon="-1.72703">
        <ele>675.410034</ele>
        <time>2022-02-23T17:09:46.184Z</time>
      </trkpt>
      <trkpt lat="39.07725" lon="-1.73106">
        <ele>674.867728</ele>
        <time>2022-02-23T17:11:21.174Z</time>
      </trkpt>
      <trkpt lat="39.07711" lon="-1.73138">
        <ele>674.37027</ele>
        <time>2022-02-23T17:11:26.768Z</time>
      </trkpt>
      <trkpt lat="39.07567" lon="-1.73601">
        <ele>667.344432</ele>
        <time>2022-02-23T17:12:37.268Z</time>
      </trkpt>
      <trkpt lat="39.07551" lon="-1.73641">
        <ele>666.919539</ele>
        <time>2022-02-23T17:12:44.211Z</time>
      </trkpt>
      <trkpt lat="39.07535" lon="-1.73657">
        <ele>666.686964</ele>
        <time>2022-02-23T17:12:48.124Z</time>
      </trkpt>
      <trkpt lat="39.07426" lon="-1.73703">
        <ele>665.964908</ele>
        <time>2022-02-23T17:13:12.297Z</time>
      </trkpt>
      <trkpt lat="39.07395" lon="-1.73726">
        <ele>666.017406</ele>
        <time>2022-02-23T17:13:20.369Z</time>
      </trkpt>
      <trkpt lat="39.07032" lon="-1.74272">
        <ele>667.0171</ele>
        <time>2022-02-23T17:15:30.593Z</time>
      </trkpt>
      <trkpt lat="39.06974" lon="-1.74338">
        <ele>667.273208</ele>
        <time>2022-02-23T17:15:49.867Z</time>
      </trkpt>
      <trkpt lat="39.06924" lon="-1.74367">
        <ele>667.635471</ele>
        <time>2022-02-23T17:16:03.308Z</time>
      </trkpt>
      <trkpt lat="39.06902" lon="-1.74372">
        <ele>667.781324</ele>
        <time>2022-02-23T17:16:08.813Z</time>
      </trkpt>
      <trkpt lat="39.06893" lon="-1.74367">
        <ele>667.848516</ele>
        <time>2022-02-23T17:16:11.257Z</time>
      </trkpt>
      <trkpt lat="39.06892" lon="-1.74366">
        <ele>667.854182</ele>
        <time>2022-02-23T17:16:11.464Z</time>
      </trkpt>
      <trkpt lat="39.06891" lon="-1.74366">
        <ele>667.857824</ele>
        <time>2022-02-23T17:16:11.583Z</time>
      </trkpt>
      <trkpt lat="39.06875" lon="-1.74356">
        <ele>667.977564</ele>
        <time>2022-02-23T17:16:16.198Z</time>
      </trkpt>
      <trkpt lat="39.06873" lon="-1.74355">
        <ele>667.992346</ele>
        <time>2022-02-23T17:16:16.762Z</time>
      </trkpt>
      <trkpt lat="39.06859" lon="-1.74353">
        <ele>668.088526</ele>
        <time>2022-02-23T17:16:20.467Z</time>
      </trkpt>
      <trkpt lat="39.06797" lon="-1.74401">
        <ele>668.603296</ele>
        <time>2022-02-23T17:16:39.955Z</time>
      </trkpt>
      <trkpt lat="39.06751" lon="-1.74425">
        <ele>669.046006</ele>
        <time>2022-02-23T17:16:53.316Z</time>
      </trkpt>
      <trkpt lat="39.06692" lon="-1.74427">
        <ele>669.576215</ele>
        <time>2022-02-23T17:17:09.085Z</time>
      </trkpt>
      <trkpt lat="39.06638" lon="-1.74427">
        <ele>670.056163</ele>
        <time>2022-02-23T17:17:23.353Z</time>
      </trkpt>
      <trkpt lat="39.0646" lon="-1.74427">
        <ele>671.411694</ele>
        <time>2022-02-23T17:18:09.515Z</time>
      </trkpt>
      <trkpt lat="39.06402" lon="-1.74427">
        <ele>672.135045</ele>
        <time>2022-02-23T17:18:24.764Z</time>
      </trkpt>
      <trkpt lat="39.06282" lon="-1.74427">
        <ele>673.67025</ele>
        <time>2022-02-23T17:18:59.440Z</time>
      </trkpt>
      <trkpt lat="39.06225" lon="-1.74427">
        <ele>675.167184</ele>
        <time>2022-02-23T17:19:18.791Z</time>
      </trkpt>
      <trkpt lat="39.05983" lon="-1.74421">
        <ele>682.450925</ele>
        <time>2022-02-23T17:20:49.931Z</time>
      </trkpt>
      <trkpt lat="39.05944" lon="-1.74413">
        <ele>683.791404</ele>
        <time>2022-02-23T17:21:05.879Z</time>
      </trkpt>
      <trkpt lat="39.05893" lon="-1.7437">
        <ele>685.868127</ele>
        <time>2022-02-23T17:21:30.788Z</time>
      </trkpt>
      <trkpt lat="39.05856" lon="-1.74358">
        <ele>687.197327</ele>
        <time>2022-02-23T17:21:46.987Z</time>
      </trkpt>
      <trkpt lat="39.05686" lon="-1.74373">
        <ele>691.607703</ele>
        <time>2022-02-23T17:22:53.074Z</time>
      </trkpt>
      <trkpt lat="39.05483" lon="-1.74437">
        <ele>692.26676</ele>
        <time>2022-02-23T17:23:38.196Z</time>
      </trkpt>
      <trkpt lat="39.05432" lon="-1.74436">
        <ele>691.960404</ele>
        <time>2022-02-23T17:23:48.209Z</time>
      </trkpt>
      <trkpt lat="39.05372" lon="-1.74455">
        <ele>691.55041</ele>
        <time>2022-02-23T17:24:00.606Z</time>
      </trkpt>
      <trkpt lat="39.05338" lon="-1.7448">
        <ele>691.258628</ele>
        <time>2022-02-23T17:24:08.611Z</time>
      </trkpt>
      <trkpt lat="39.05118" lon="-1.74774">
        <ele>689.073007</ele>
        <time>2022-02-23T17:25:13.465Z</time>
      </trkpt>
      <trkpt lat="39.04878" lon="-1.75103">
        <ele>687.355836</ele>
        <time>2022-02-23T17:26:27.376Z</time>
      </trkpt>
      <trkpt lat="39.04507" lon="-1.7561">
        <ele>684.016147</ele>
        <time>2022-02-23T17:28:19.039Z</time>
      </trkpt>
      <trkpt lat="39.04105" lon="-1.76165">
        <ele>679.329984</ele>
        <time>2022-02-23T17:30:17.436Z</time>
      </trkpt>
      <trkpt lat="39.03042" lon="-1.77715">
        <ele>677.726732</ele>
        <time>2022-02-23T17:36:11.729Z</time>
      </trkpt>
      <trkpt lat="39.02321" lon="-1.78764">
        <ele>675.734147</ele>
        <time>2022-02-23T17:40:07.327Z</time>
      </trkpt>
      <trkpt lat="39.02311" lon="-1.78782">
        <ele>675.735941</ele>
        <time>2022-02-23T17:40:11.140Z</time>
      </trkpt>
      <trkpt lat="39.02309" lon="-1.78803">
        <ele>675.737683</ele>
        <time>2022-02-23T17:40:14.794Z</time>
      </trkpt>
      <trkpt lat="39.02291" lon="-1.78834">
        <ele>675.740876</ele>
        <time>2022-02-23T17:40:21.637Z</time>
      </trkpt>
      <trkpt lat="39.02254" lon="-1.78882">
        <ele>675.746533</ele>
        <time>2022-02-23T17:40:33.907Z</time>
      </trkpt>
      <trkpt lat="39.02232" lon="-1.78889">
        <ele>675.794507</ele>
        <time>2022-02-23T17:40:39.143Z</time>
      </trkpt>
      <trkpt lat="39.01276" lon="-1.80284">
        <ele>679.308999</ele>
        <time>2022-02-23T17:46:18.902Z</time>
      </trkpt>
      <trkpt lat="39.01095" lon="-1.80545">
        <ele>679.466262</ele>
        <time>2022-02-23T17:47:18.766Z</time>
      </trkpt>
      <trkpt lat="39.00688" lon="-1.81139">
        <ele>681.485582</ele>
        <time>2022-02-23T17:49:46.822Z</time>
      </trkpt>
      <trkpt lat="39.00616" lon="-1.81216">
        <ele>681.75917</ele>
        <time>2022-02-23T17:50:09.204Z</time>
      </trkpt>
      <trkpt lat="39.0052" lon="-1.81288">
        <ele>681.842806</ele>
        <time>2022-02-23T17:50:35.384Z</time>
      </trkpt>
      <trkpt lat="39.00493" lon="-1.81318">
        <ele>681.721521</ele>
        <time>2022-02-23T17:50:43.466Z</time>
      </trkpt>
      <trkpt lat="39.00173" lon="-1.82257">
        <ele>679.013028</ele>
        <time>2022-02-23T17:53:31.980Z</time>
      </trkpt>
      <trkpt lat="39.00175" lon="-1.82281">
        <ele>678.952854</ele>
        <time>2022-02-23T17:53:36.028Z</time>
      </trkpt>
      <trkpt lat="39.00171" lon="-1.82298">
        <ele>678.930853</ele>
        <time>2022-02-23T17:53:39.012Z</time>
      </trkpt>
      <trkpt lat="39.00168" lon="-1.8231">
        <ele>678.958754</ele>
        <time>2022-02-23T17:53:41.063Z</time>
      </trkpt>
      <trkpt lat="39.00144" lon="-1.82333">
        <ele>679.048316</ele>
        <time>2022-02-23T17:53:47.731Z</time>
      </trkpt>
      <trkpt lat="38.99965" lon="-1.82828">
        <ele>680.00074</ele>
        <time>2022-02-23T17:55:29.759Z</time>
      </trkpt>
      <trkpt lat="38.99961" lon="-1.82841">
        <ele>680.001349</ele>
        <time>2022-02-23T17:55:32.326Z</time>
      </trkpt>
      <trkpt lat="38.99969" lon="-1.82851">
        <ele>680.001949</ele>
        <time>2022-02-23T17:55:34.626Z</time>
      </trkpt>
      <trkpt lat="38.99979" lon="-1.82849">
        <ele>680.002472</ele>
        <time>2022-02-23T17:55:36.620Z</time>
      </trkpt>
      <trkpt lat="39.00019" lon="-1.82813">
        <ele>679.934638</ele>
        <time>2022-02-23T17:55:46.974Z</time>
      </trkpt>
      <trkpt lat="39.00034" lon="-1.82806">
        <ele>679.81155</ele>
        <time>2022-02-23T17:55:50.077Z</time>
      </trkpt>
      <trkpt lat="39.0004" lon="-1.82814">
        <ele>679.738819</ele>
        <time>2022-02-23T17:55:51.858Z</time>
      </trkpt>
      <trkpt lat="39.00071" lon="-1.83034">
        <ele>678.465403</ele>
        <time>2022-02-23T17:56:26.732Z</time>
      </trkpt>
      <trkpt lat="39.00069" lon="-1.83049">
        <ele>678.42342</ele>
        <time>2022-02-23T17:56:29.191Z</time>
      </trkpt>
      <trkpt lat="39.00057" lon="-1.83068">
        <ele>678.354428</ele>
        <time>2022-02-23T17:56:33.220Z</time>
      </trkpt>
      <trkpt lat="39.0004" lon="-1.83086">
        <ele>678.278654</ele>
        <time>2022-02-23T17:56:37.680Z</time>
      </trkpt>
      <trkpt lat="38.99959" lon="-1.83109">
        <ele>677.981809</ele>
        <time>2022-02-23T17:56:55.921Z</time>
      </trkpt>
      <trkpt lat="38.9988" lon="-1.83152">
        <ele>677.903281</ele>
        <time>2022-02-23T17:57:15.145Z</time>
      </trkpt>
      <trkpt lat="38.9986" lon="-1.83171">
        <ele>677.896029</ele>
        <time>2022-02-23T17:57:20.902Z</time>
      </trkpt>
      <trkpt lat="38.99847" lon="-1.83185">
        <ele>677.891146</ele>
        <time>2022-02-23T17:57:24.656Z</time>
      </trkpt>
      <trkpt lat="38.99824" lon="-1.83227">
        <ele>677.879605</ele>
        <time>2022-02-23T17:57:33.562Z</time>
      </trkpt>
      <trkpt lat="38.9975" lon="-1.83497">
        <ele>677.831583</ele>
        <time>2022-02-23T17:58:22.200Z</time>
      </trkpt>
      <trkpt lat="38.99747" lon="-1.83526">
        <ele>677.943688</ele>
        <time>2022-02-23T17:58:27.558Z</time>
      </trkpt>
      <trkpt lat="38.99733" lon="-1.83553">
        <ele>678.065889</ele>
        <time>2022-02-23T17:58:33.579Z</time>
      </trkpt>
      <trkpt lat="38.99633" lon="-1.83928">
        <ele>679.883108</ele>
        <time>2022-02-23T17:59:53.332Z</time>
      </trkpt>
      <trkpt lat="38.9963" lon="-1.8394">
        <ele>679.894805</ele>
        <time>2022-02-23T17:59:55.734Z</time>
      </trkpt>
      <trkpt lat="38.99616" lon="-1.83993">
        <ele>679.94637</ele>
        <time>2022-02-23T18:00:05.814Z</time>
      </trkpt>
      <trkpt lat="38.99613" lon="-1.84005">
        <ele>679.95798</ele>
        <time>2022-02-23T18:00:07.982Z</time>
      </trkpt>
      <trkpt lat="38.99617" lon="-1.84026">
        <ele>679.977948</ele>
        <time>2022-02-23T18:00:11.911Z</time>
      </trkpt>
      <trkpt lat="38.99651" lon="-1.84054">
        <ele>680.024841</ele>
        <time>2022-02-23T18:00:20.688Z</time>
      </trkpt>
      <trkpt lat="38.99654" lon="-1.84067">
        <ele>680.037402</ele>
        <time>2022-02-23T18:00:22.967Z</time>
      </trkpt>
      <trkpt lat="38.99595" lon="-1.84184">
        <ele>680.317837</ele>
        <time>2022-02-23T18:00:46.660Z</time>
      </trkpt>
      <trkpt lat="38.99581" lon="-1.8418">
        <ele>680.365247</ele>
        <time>2022-02-23T18:00:49.806Z</time>
      </trkpt>
      <trkpt lat="38.99479" lon="-1.84098">
        <ele>681.025855</ele>
        <time>2022-02-23T18:01:20.007Z</time>
      </trkpt>
      <trkpt lat="38.99455" lon="-1.84113">
        <ele>681.385754</ele>
        <time>2022-02-23T18:01:27.776Z</time>
      </trkpt>
      <trkpt lat="38.99447" lon="-1.84119">
        <ele>681.516491</ele>
        <time>2022-02-23T18:01:30.773Z</time>
      </trkpt>
      <trkpt lat="38.99433" lon="-1.8415">
        <ele>681.910967</ele>
        <time>2022-02-23T18:01:39.932Z</time>
      </trkpt>
      <trkpt lat="38.99397" lon="-1.84212">
        <ele>682.736032</ele>
        <time>2022-02-23T18:01:58.856Z</time>
      </trkpt>
      <trkpt lat="38.99376" lon="-1.8425">
        <ele>683.215562</ele>
        <time>2022-02-23T18:02:09.795Z</time>
      </trkpt>
      <trkpt lat="38.99377" lon="-1.84265">
        <ele>683.300689</ele>
        <time>2022-02-23T18:02:13.099Z</time>
      </trkpt>
      <trkpt lat="38.99353" lon="-1.84308">
        <ele>683.586289</ele>
        <time>2022-02-23T18:02:25.249Z</time>
      </trkpt>
      <trkpt lat="38.99302" lon="-1.84392">
        <ele>684.172485</ele>
        <time>2022-02-23T18:02:47.963Z</time>
      </trkpt>
      <trkpt lat="38.99294" lon="-1.84411">
        <ele>684.291216</ele>
        <time>2022-02-23T18:02:51.723Z</time>
      </trkpt>
      <trkpt lat="38.99285" lon="-1.84447">
        <ele>684.503864</ele>
        <time>2022-02-23T18:02:57.943Z</time>
      </trkpt>
      <trkpt lat="38.99284" lon="-1.84451">
        <ele>684.530451</ele>
        <time>2022-02-23T18:02:58.738Z</time>
      </trkpt>
      <trkpt lat="38.99268" lon="-1.84448">
        <ele>684.656966</ele>
        <time>2022-02-23T18:03:02.157Z</time>
      </trkpt>
      <trkpt lat="38.99248" lon="-1.84465">
        <ele>684.855999</ele>
        <time>2022-02-23T18:03:07.665Z</time>
      </trkpt>
      <trkpt lat="38.99219" lon="-1.84493">
        <ele>685.153697</ele>
        <time>2022-02-23T18:03:16.830Z</time>
      </trkpt>
      <trkpt lat="38.99203" lon="-1.84508">
        <ele>685.323009</ele>
        <time>2022-02-23T18:03:22.106Z</time>
      </trkpt>
      <trkpt lat="38.99181" lon="-1.84537">
        <ele>685.578606</ele>
        <time>2022-02-23T18:03:31.266Z</time>
      </trkpt>
      <trkpt lat="38.99184" lon="-1.84542">
        <ele>685.625708</ele>
        <time>2022-02-23T18:03:33.225Z</time>
      </trkpt>
      <trkpt lat="38.99239" lon="-1.84622">
        <ele>687.072737</ele>
        <time>2022-02-23T18:04:05.452Z</time>
      </trkpt>
      <trkpt lat="38.99324" lon="-1.84749">
        <ele>690.461457</ele>
        <time>2022-02-23T18:05:04.339Z</time>
      </trkpt>
      <trkpt lat="38.99359" lon="-1.84803">
        <ele>691.103436</ele>
        <time>2022-02-23T18:05:25.101Z</time>
      </trkpt>
      <trkpt lat="38.99358" lon="-1.84804">
        <ele>691.123427</ele>
        <time>2022-02-23T18:05:25.770Z</time>
      </trkpt>
      <trkpt lat="38.99355" lon="-1.84807">
        <ele>691.152015</ele>
        <time>2022-02-23T18:05:26.872Z</time>
      </trkpt>
      <trkpt lat="38.99379" lon="-1.84836">
        <ele>691.488329</ele>
        <time>2022-02-23T18:05:38.239Z</time>
      </trkpt>
      <trkpt lat="38.99399" lon="-1.84862">
        <ele>691.77574</ele>
        <time>2022-02-23T18:05:47.592Z</time>
      </trkpt>
      <trkpt lat="38.99402" lon="-1.84858">
        <ele>691.824313</ele>
        <time>2022-02-23T18:05:49.135Z</time>
      </trkpt>
      <trkpt lat="38.99408" lon="-1.84852">
        <ele>691.896275</ele>
        <time>2022-02-23T18:05:51.519Z</time>
      </trkpt>
      <trkpt lat="38.99413" lon="-1.84855">
        <ele>691.956312</ele>
        <time>2022-02-23T18:05:53.334Z</time>
      </trkpt>
      <trkpt lat="38.99422" lon="-1.8485">
        <ele>692.056271</ele>
        <time>2022-02-23T18:05:56.071Z</time>
      </trkpt>
      <trkpt lat="38.99433" lon="-1.84854">
        <ele>692.173129</ele>
        <time>2022-02-23T18:05:59.872Z</time>
      </trkpt>
      <trkpt lat="38.99479" lon="-1.84913">
        <ele>692.25284</ele>
        <time>2022-02-23T18:06:18.602Z</time>
      </trkpt>
      <trkpt lat="38.9949" lon="-1.84934">
        <ele>692.154349</ele>
        <time>2022-02-23T18:06:24.034Z</time>
      </trkpt>
      <trkpt lat="38.99488" lon="-1.84946">
        <ele>692.10441</ele>
        <time>2022-02-23T18:06:26.629Z</time>
      </trkpt>
      <trkpt lat="38.9951" lon="-1.84978">
        <ele>691.939798</ele>
        <time>2022-02-23T18:06:35.564Z</time>
      </trkpt>
      <trkpt lat="38.99505" lon="-1.84991">
        <ele>691.884246</ele>
        <time>2022-02-23T18:06:38.537Z</time>
      </trkpt>
      <trkpt lat="38.9951" lon="-1.84998">
        <ele>691.846172</ele>
        <time>2022-02-23T18:06:40.667Z</time>
      </trkpt>
      <trkpt lat="38.99573" lon="-1.85112">
        <ele>691.109811</ele>
        <time>2022-02-23T18:07:10.587Z</time>
      </trkpt>
      <trkpt lat="38.996" lon="-1.85159">
        <ele>690.703915</ele>
        <time>2022-02-23T18:07:22.805Z</time>
      </trkpt>
      <trkpt lat="38.99611" lon="-1.85177">
        <ele>690.546993</ele>
        <time>2022-02-23T18:07:27.494Z</time>
      </trkpt>
      <trkpt lat="38.99637" lon="-1.85189">
        <ele>690.297641</ele>
        <time>2022-02-23T18:07:34.933Z</time>
      </trkpt>
      <trkpt lat="38.99671" lon="-1.85197">
        <ele>689.987673</ele>
        <time>2022-02-23T18:07:44.151Z</time>
      </trkpt>
      <trkpt lat="38.99676" lon="-1.85198">
        <ele>689.943445</ele>
        <time>2022-02-23T18:07:45.490Z</time>
      </trkpt>
      <trkpt lat="38.99702" lon="-1.85198">
        <ele>689.715495</ele>
        <time>2022-02-23T18:07:52.451Z</time>
      </trkpt>
      <trkpt lat="38.99705" lon="-1.85201">
        <ele>689.676881</ele>
        <time>2022-02-23T18:07:53.317Z</time>
      </trkpt>
      <trkpt lat="38.99724" lon="-1.85221">
        <ele>689.467486</ele>
        <time>2022-02-23T18:07:58.277Z</time>
      </trkpt>
      <trkpt lat="38.99727" lon="-1.85227">
        <ele>689.420008</ele>
        <time>2022-02-23T18:07:59.405Z</time>
      </trkpt>
      <trkpt lat="38.99742" lon="-1.85249">
        <ele>689.224795</ele>
        <time>2022-02-23T18:08:04.005Z</time>
      </trkpt>
      <trkpt lat="38.9982" lon="-1.85298">
        <ele>688.463814</ele>
        <time>2022-02-23T18:08:22.904Z</time>
      </trkpt>
      <trkpt lat="38.99854" lon="-1.85326">
        <ele>688.106723</ele>
        <time>2022-02-23T18:08:31.746Z</time>
      </trkpt>
      <trkpt lat="38.99939" lon="-1.85409">
        <ele>687.140519</ele>
        <time>2022-02-23T18:08:53.860Z</time>
      </trkpt>
      <trkpt lat="38.99947" lon="-1.85409">
        <ele>687.074452</ele>
        <time>2022-02-23T18:08:55.397Z</time>
      </trkpt>
      <trkpt lat="38.99952" lon="-1.85401">
        <ele>686.999763</ele>
        <time>2022-02-23T18:08:57.224Z</time>
      </trkpt>
      <trkpt lat="38.99958" lon="-1.85403">
        <ele>686.949521</ele>
        <time>2022-02-23T18:08:58.653Z</time>
      </trkpt>
      <trkpt lat="38.99965" lon="-1.85407">
        <ele>686.876084</ele>
        <time>2022-02-23T18:09:00.156Z</time>
      </trkpt>
      <trkpt lat="38.99975" lon="-1.85439">
        <ele>686.646332</ele>
        <time>2022-02-23T18:09:06.028Z</time>
      </trkpt>
      <trkpt lat="38.99988" lon="-1.85453">
        <ele>686.51942</ele>
        <time>2022-02-23T18:09:09.220Z</time>
      </trkpt>
      <trkpt lat="38.99983" lon="-1.85458">
        <ele>686.46795</ele>
        <time>2022-02-23T18:09:10.620Z</time>
      </trkpt>
      <trkpt lat="38.9998" lon="-1.85462">
        <ele>686.435734</ele>
        <time>2022-02-23T18:09:11.546Z</time>
      </trkpt>
      <trkpt lat="38.99969" lon="-1.85469">
        <ele>686.339549</ele>
        <time>2022-02-23T18:09:14.186Z</time>
      </trkpt>
      <trkpt lat="38.99973" lon="-1.85537">
        <ele>685.933019</ele>
        <time>2022-02-23T18:09:25.005Z</time>
      </trkpt>
      <trkpt lat="38.99974" lon="-1.85543">
        <ele>685.89559</ele>
        <time>2022-02-23T18:09:26.094Z</time>
      </trkpt>
      <trkpt lat="38.99983" lon="-1.85679">
        <ele>685.450703</ele>
        <time>2022-02-23T18:09:49.875Z</time>
      </trkpt>
      <trkpt lat="38.99992" lon="-1.85797">
        <ele>685.665728</ele>
        <time>2022-02-23T18:10:13.026Z</time>
      </trkpt>
      <trkpt lat="38.99993" lon="-1.85809">
        <ele>685.687454</ele>
        <time>2022-02-23T18:10:15.319Z</time>
      </trkpt>
      <trkpt lat="38.99994" lon="-1.85823">
        <ele>685.713887</ele>
        <time>2022-02-23T18:10:18.200Z</time>
      </trkpt>
      <trkpt lat="38.99997" lon="-1.85862">
        <ele>685.784559</ele>
        <time>2022-02-23T18:10:25.884Z</time>
      </trkpt>
      <trkpt lat="38.99998" lon="-1.85876">
        <ele>685.766383</ele>
        <time>2022-02-23T18:10:28.792Z</time>
      </trkpt>
      <trkpt lat="38.99999" lon="-1.8589">
        <ele>685.744718</ele>
        <time>2022-02-23T18:10:31.739Z</time>
      </trkpt>
      <trkpt lat="39.00005" lon="-1.85976">
        <ele>685.61224</ele>
        <time>2022-02-23T18:10:47.919Z</time>
      </trkpt>
      <trkpt lat="39.00005" lon="-1.86035">
        <ele>685.522796</ele>
        <time>2022-02-23T18:10:57.963Z</time>
      </trkpt>
      <trkpt lat="39.00001" lon="-1.86035">
        <ele>685.514469</ele>
        <time>2022-02-23T18:10:58.842Z</time>
      </trkpt>
      <trkpt lat="38.99994" lon="-1.8604">
        <ele>685.498804</ele>
        <time>2022-02-23T18:11:00.580Z</time>
      </trkpt>
      <trkpt lat="38.99995" lon="-1.86054">
        <ele>685.477779</ele>
        <time>2022-02-23T18:11:02.922Z</time>
      </trkpt>
      <trkpt lat="38.99986" lon="-1.86093">
        <ele>685.342667</ele>
        <time>2022-02-23T18:11:09.629Z</time>
      </trkpt>
      <trkpt lat="38.99989" lon="-1.86097">
        <ele>685.296654</ele>
        <time>2022-02-23T18:11:10.507Z</time>
      </trkpt>
      <trkpt lat="39.00059" lon="-1.86181">
        <ele>684.266703</ele>
        <time>2022-02-23T18:11:29.736Z</time>
      </trkpt>
      <trkpt lat="39.00069" lon="-1.86194">
        <ele>684.11647</ele>
        <time>2022-02-23T18:11:32.641Z</time>
      </trkpt>
      <trkpt lat="39.00089" lon="-1.86217">
        <ele>683.833409</ele>
        <time>2022-02-23T18:11:38.123Z</time>
      </trkpt>
      <trkpt lat="39.00126" lon="-1.86263">
        <ele>683.489969</ele>
        <time>2022-02-23T18:11:49.019Z</time>
      </trkpt>
      <trkpt lat="39.00138" lon="-1.86277">
        <ele>683.482781</ele>
        <time>2022-02-23T18:11:52.564Z</time>
      </trkpt>
      <trkpt lat="39.00182" lon="-1.8633">
        <ele>683.456501</ele>
        <time>2022-02-23T18:12:05.987Z</time>
      </trkpt>
      <trkpt lat="39.00199" lon="-1.86349">
        <ele>683.44671</ele>
        <time>2022-02-23T18:12:11.175Z</time>
      </trkpt>
      <trkpt lat="39.0023" lon="-1.86385">
        <ele>683.42877</ele>
        <time>2022-02-23T18:12:21.315Z</time>
      </trkpt>
      <trkpt lat="39.00271" lon="-1.86436">
        <ele>683.521451</ele>
        <time>2022-02-23T18:12:38.740Z</time>
      </trkpt>
      <trkpt lat="39.00276" lon="-1.86441">
        <ele>683.537098</ele>
        <time>2022-02-23T18:12:40.311Z</time>
      </trkpt>
      <trkpt lat="39.00314" lon="-1.8649">
        <ele>683.67751</ele>
        <time>2022-02-23T18:12:53.893Z</time>
      </trkpt>
      <trkpt lat="39.00318" lon="-1.86494">
        <ele>683.691347</ele>
        <time>2022-02-23T18:12:55.285Z</time>
      </trkpt>
      <trkpt lat="39.0032" lon="-1.86491">
        <ele>683.701095</ele>
        <time>2022-02-23T18:12:56.253Z</time>
      </trkpt>
      <trkpt lat="39.00323" lon="-1.86494">
        <ele>683.710465</ele>
        <time>2022-02-23T18:12:57.062Z</time>
      </trkpt>
      <trkpt lat="39.00364" lon="-1.86544">
        <ele>683.857853</ele>
        <time>2022-02-23T18:13:09.518Z</time>
      </trkpt>
      <trkpt lat="39.0037" lon="-1.86541">
        <ele>683.874966</ele>
        <time>2022-02-23T18:13:11.084Z</time>
      </trkpt>
      <trkpt lat="39.00375" lon="-1.86539">
        <ele>683.888305</ele>
        <time>2022-02-23T18:13:12.282Z</time>
      </trkpt>
      <trkpt lat="39.00376" lon="-1.86541">
        <ele>683.875113</ele>
        <time>2022-02-23T18:13:12.697Z</time>
      </trkpt>
      <trkpt lat="39.00384" lon="-1.86556">
        <ele>683.723179</ele>
        <time>2022-02-23T18:13:15.824Z</time>
      </trkpt>
      <trkpt lat="39.00389" lon="-1.86566">
        <ele>683.628984</ele>
        <time>2022-02-23T18:13:17.796Z</time>
      </trkpt>
      <trkpt lat="39.00395" lon="-1.86576">
        <ele>683.525628</ele>
        <time>2022-02-23T18:13:20.100Z</time>
      </trkpt>
      <trkpt lat="39.00391" lon="-1.86582">
        <ele>683.456383</ele>
        <time>2022-02-23T18:13:21.581Z</time>
      </trkpt>
      <trkpt lat="39.00383" lon="-1.86597">
        <ele>683.306777</ele>
        <time>2022-02-23T18:13:24.604Z</time>
      </trkpt>
      <trkpt lat="39.00347" lon="-1.86645">
        <ele>682.765718</ele>
        <time>2022-02-23T18:13:35.444Z</time>
      </trkpt>
      <trkpt lat="39.00344" lon="-1.86649">
        <ele>682.726527</ele>
        <time>2022-02-23T18:13:36.200Z</time>
      </trkpt>
      <trkpt lat="39.00339" lon="-1.8666">
        <ele>682.617459</ele>
        <time>2022-02-23T18:13:38.248Z</time>
      </trkpt>
      <trkpt lat="39.00315" lon="-1.86749">
        <ele>681.925421</ele>
        <time>2022-02-23T18:13:52.298Z</time>
      </trkpt>
      <trkpt lat="39.00288" lon="-1.86858">
        <ele>681.407834</ele>
        <time>2022-02-23T18:14:10.907Z</time>
      </trkpt>
      <trkpt lat="39.00257" lon="-1.86986">
        <ele>681.207953</ele>
        <time>2022-02-23T18:14:36.486Z</time>
      </trkpt>
      <trkpt lat="39.00249" lon="-1.86983">
        <ele>681.280873</ele>
        <time>2022-02-23T18:14:38.709Z</time>
      </trkpt>
      <trkpt lat="39.0024" lon="-1.86979">
        <ele>681.353793</ele>
        <time>2022-02-23T18:14:41.254Z</time>
      </trkpt>
      <trkpt lat="39.00233" lon="-1.87008">
        <ele>681.555154</ele>
        <time>2022-02-23T18:14:47.667Z</time>
      </trkpt>
      <trkpt lat="39.00229" lon="-1.87021">
        <ele>681.645385</ele>
        <time>2022-02-23T18:14:50.887Z</time>
      </trkpt>
      <trkpt lat="39.00219" lon="-1.87063">
        <ele>681.93044</ele>
        <time>2022-02-23T18:15:00.605Z</time>
      </trkpt>
      <trkpt lat="39.00208" lon="-1.87111">
        <ele>682.256718</ele>
        <time>2022-02-23T18:15:11.822Z</time>
      </trkpt>
      <trkpt lat="39.00204" lon="-1.87126">
        <ele>682.364269</ele>
        <time>2022-02-23T18:15:15.489Z</time>
      </trkpt>
      <trkpt lat="39.00193" lon="-1.8717">
        <ele>682.610287</ele>
        <time>2022-02-23T18:15:25.866Z</time>
      </trkpt>
      <trkpt lat="39.00149" lon="-1.87348">
        <ele>683.456061</ele>
        <time>2022-02-23T18:16:03.595Z</time>
      </trkpt>
      <trkpt lat="39.00108" lon="-1.87517">
        <ele>683.359005</ele>
        <time>2022-02-23T18:16:35.858Z</time>
      </trkpt>
      <trkpt lat="39.001" lon="-1.87551">
        <ele>683.320784</ele>
        <time>2022-02-23T18:16:42.023Z</time>
      </trkpt>
      <trkpt lat="39.00089" lon="-1.87561">
        <ele>683.303377</ele>
        <time>2022-02-23T18:16:44.675Z</time>
      </trkpt>
      <trkpt lat="39.00087" lon="-1.87563">
        <ele>683.299394</ele>
        <time>2022-02-23T18:16:45.265Z</time>
      </trkpt>
      <trkpt lat="39.00087" lon="-1.87565">
        <ele>683.297576</ele>
        <time>2022-02-23T18:16:45.554Z</time>
      </trkpt>
      <trkpt lat="39.0009" lon="-1.87582">
        <ele>683.246273</ele>
        <time>2022-02-23T18:16:48.539Z</time>
      </trkpt>
      <trkpt lat="39.00077" lon="-1.87632">
        <ele>682.811414</ele>
        <time>2022-02-23T18:16:56.951Z</time>
      </trkpt>
      <trkpt lat="39.00076" lon="-1.87636">
        <ele>682.770627</ele>
        <time>2022-02-23T18:16:57.702Z</time>
      </trkpt>
      <trkpt lat="39.00065" lon="-1.87669">
        <ele>682.470359</ele>
        <time>2022-02-23T18:17:03.428Z</time>
      </trkpt>
      <trkpt lat="39.00049" lon="-1.87681">
        <ele>682.274785</ele>
        <time>2022-02-23T18:17:07.074Z</time>
      </trkpt>
      <trkpt lat="39.00039" lon="-1.8771">
        <ele>682.009535</ele>
        <time>2022-02-23T18:17:12.082Z</time>
      </trkpt>
      <trkpt lat="39.00048" lon="-1.87757">
        <ele>681.60109</ele>
        <time>2022-02-23T18:17:19.687Z</time>
      </trkpt>
      <trkpt lat="39.00043" lon="-1.87777">
        <ele>681.428228</ele>
        <time>2022-02-23T18:17:22.877Z</time>
      </trkpt>
      <trkpt lat="38.99733" lon="-1.88883">
        <ele>677.07399</ele>
        <time>2022-02-23T18:20:43.792Z</time>
      </trkpt>
      <trkpt lat="38.99716" lon="-1.88943">
        <ele>676.839119</ele>
        <time>2022-02-23T18:20:54.581Z</time>
      </trkpt>
      <trkpt lat="38.99694" lon="-1.88952">
        <ele>676.731449</ele>
        <time>2022-02-23T18:20:59.499Z</time>
      </trkpt>
      <trkpt lat="38.99688" lon="-1.88995">
        <ele>676.573374</ele>
        <time>2022-02-23T18:21:06.727Z</time>
      </trkpt>
      <trkpt lat="38.99673" lon="-1.8904">
        <ele>676.393705</ele>
        <time>2022-02-23T18:21:15.071Z</time>
      </trkpt>
      <trkpt lat="38.99661" lon="-1.89101">
        <ele>676.236044</ele>
        <time>2022-02-23T18:21:26.049Z</time>
      </trkpt>
      <trkpt lat="38.99661" lon="-1.89145">
        <ele>676.191562</ele>
        <time>2022-02-23T18:21:33.721Z</time>
      </trkpt>
      <trkpt lat="38.99679" lon="-1.89156">
        <ele>676.165937</ele>
        <time>2022-02-23T18:21:38.109Z</time>
      </trkpt>
      <trkpt lat="38.99645" lon="-1.89257">
        <ele>676.054997</ele>
        <time>2022-02-23T18:21:57.757Z</time>
      </trkpt>
      <trkpt lat="38.99563" lon="-1.89355">
        <ele>676.155734</ele>
        <time>2022-02-23T18:22:24.537Z</time>
      </trkpt>
      <trkpt lat="38.99536" lon="-1.89435">
        <ele>676.247853</ele>
        <time>2022-02-23T18:22:40.513Z</time>
      </trkpt>
      <trkpt lat="38.99383" lon="-1.90037">
        <ele>677.439651</ele>
        <time>2022-02-23T18:24:41.512Z</time>
      </trkpt>
      <trkpt lat="38.99307" lon="-1.9031">
        <ele>677.302102</ele>
        <time>2022-02-23T18:25:33.107Z</time>
      </trkpt>
      <trkpt lat="38.99201" lon="-1.90593">
        <ele>676.657965</ele>
        <time>2022-02-23T18:26:27.139Z</time>
      </trkpt>
      <trkpt lat="38.98977" lon="-1.91064">
        <ele>676.997603</ele>
        <time>2022-02-23T18:28:10.307Z</time>
      </trkpt>
      <trkpt lat="38.98914" lon="-1.91185">
        <ele>676.828613</ele>
        <time>2022-02-23T18:28:35.637Z</time>
      </trkpt>
      <trkpt lat="38.9891" lon="-1.91193">
        <ele>676.797903</ele>
        <time>2022-02-23T18:28:37.380Z</time>
      </trkpt>
      <trkpt lat="38.98903" lon="-1.91205">
        <ele>676.7537</ele>
        <time>2022-02-23T18:28:39.881Z</time>
      </trkpt>
      <trkpt lat="38.9889" lon="-1.91192">
        <ele>676.692855</ele>
        <time>2022-02-23T18:28:43.218Z</time>
      </trkpt>
      <trkpt lat="38.98759" lon="-1.91348">
        <ele>676.496753</ele>
        <time>2022-02-23T18:29:22.821Z</time>
      </trkpt>
      <trkpt lat="38.98582" lon="-1.9173">
        <ele>678.163544</ele>
        <time>2022-02-23T18:30:55.215Z</time>
      </trkpt>
      <trkpt lat="38.98534" lon="-1.91831">
        <ele>678.376191</ele>
        <time>2022-02-23T18:31:16.404Z</time>
      </trkpt>
      <trkpt lat="38.98388" lon="-1.92148">
        <ele>678.067731</ele>
        <time>2022-02-23T18:32:21.421Z</time>
      </trkpt>
      <trkpt lat="38.98293" lon="-1.92348">
        <ele>678.113157</ele>
        <time>2022-02-23T18:33:04.781Z</time>
      </trkpt>
      <trkpt lat="38.98235" lon="-1.92482">
        <ele>678.122692</ele>
        <time>2022-02-23T18:33:32.253Z</time>
      </trkpt>
      <trkpt lat="38.98148" lon="-1.92671">
        <ele>677.771695</ele>
        <time>2022-02-23T18:34:10.651Z</time>
      </trkpt>
      <trkpt lat="38.97951" lon="-1.93203">
        <ele>676.502657</ele>
        <time>2022-02-23T18:35:52.737Z</time>
      </trkpt>
      <trkpt lat="38.97921" lon="-1.93351">
        <ele>676.915767</ele>
        <time>2022-02-23T18:36:20.968Z</time>
      </trkpt>
      <trkpt lat="38.97876" lon="-1.93671">
        <ele>679.633371</ele>
        <time>2022-02-23T18:37:36.132Z</time>
      </trkpt>
      <trkpt lat="38.97876" lon="-1.93744">
        <ele>680.284276</ele>
        <time>2022-02-23T18:37:52.479Z</time>
      </trkpt>
      <trkpt lat="38.97893" lon="-1.93789">
        <ele>680.425163</ele>
        <time>2022-02-23T18:38:03.072Z</time>
      </trkpt>
      <trkpt lat="38.97933" lon="-1.93843">
        <ele>680.633898</ele>
        <time>2022-02-23T18:38:17.797Z</time>
      </trkpt>
      <trkpt lat="38.9796" lon="-1.93922">
        <ele>680.877169</ele>
        <time>2022-02-23T18:38:33.449Z</time>
      </trkpt>
      <trkpt lat="38.97966" lon="-1.9434">
        <ele>680.214915</ele>
        <time>2022-02-23T18:39:46.226Z</time>
      </trkpt>
      <trkpt lat="38.97985" lon="-1.94437">
        <ele>680.156285</ele>
        <time>2022-02-23T18:40:04.052Z</time>
      </trkpt>
      <trkpt lat="38.97955" lon="-1.9483">
        <ele>680.455059</ele>
        <time>2022-02-23T18:41:17.580Z</time>
      </trkpt>
      <trkpt lat="38.97965" lon="-1.94893">
        <ele>680.479119</ele>
        <time>2022-02-23T18:41:29.159Z</time>
      </trkpt>
      <trkpt lat="38.97963" lon="-1.94922">
        <ele>680.480927</ele>
        <time>2022-02-23T18:41:34.275Z</time>
      </trkpt>
      <trkpt lat="38.97973" lon="-1.95008">
        <ele>680.486457</ele>
        <time>2022-02-23T18:41:49.819Z</time>
      </trkpt>
      <trkpt lat="38.97966" lon="-1.95193">
        <ele>680.698658</ele>
        <time>2022-02-23T18:42:23.805Z</time>
      </trkpt>
      <trkpt lat="38.97688" lon="-1.95538">
        <ele>681.611206</ele>
        <time>2022-02-23T18:43:55.654Z</time>
      </trkpt>
      <trkpt lat="38.97682" lon="-1.95545">
        <ele>681.626979</ele>
        <time>2022-02-23T18:43:57.446Z</time>
      </trkpt>
      <trkpt lat="38.97679" lon="-1.9555">
        <ele>681.637038</ele>
        <time>2022-02-23T18:43:58.603Z</time>
      </trkpt>
      <trkpt lat="38.9753" lon="-1.9573">
        <ele>681.840285</ele>
        <time>2022-02-23T18:44:43.742Z</time>
      </trkpt>
      <trkpt lat="38.96921" lon="-1.96475">
        <ele>684.67258</ele>
        <time>2022-02-23T18:48:06.440Z</time>
      </trkpt>
      <trkpt lat="38.96668" lon="-1.96789">
        <ele>685.176478</ele>
        <time>2022-02-23T18:49:25.868Z</time>
      </trkpt>
      <trkpt lat="38.96064" lon="-1.97529">
        <ele>686.776084</ele>
        <time>2022-02-23T18:52:39.335Z</time>
      </trkpt>
      <trkpt lat="38.95937" lon="-1.97675">
        <ele>687.46772</ele>
        <time>2022-02-23T18:53:21.224Z</time>
      </trkpt>
      <trkpt lat="38.95874" lon="-1.97732">
        <ele>687.607684</ele>
        <time>2022-02-23T18:53:40.035Z</time>
      </trkpt>
      <trkpt lat="38.95737" lon="-1.9782">
        <ele>687.613407</ele>
        <time>2022-02-23T18:54:14.211Z</time>
      </trkpt>
      <trkpt lat="38.95639" lon="-1.97865">
        <ele>687.293787</ele>
        <time>2022-02-23T18:54:35.870Z</time>
      </trkpt>
      <trkpt lat="38.95515" lon="-1.97899">
        <ele>687.105382</ele>
        <time>2022-02-23T18:55:02.814Z</time>
      </trkpt>
      <trkpt lat="38.95459" lon="-1.9791">
        <ele>687.037231</ele>
        <time>2022-02-23T18:55:15.812Z</time>
      </trkpt>
      <trkpt lat="38.95324" lon="-1.97908">
        <ele>687.362944</ele>
        <time>2022-02-23T18:55:48.528Z</time>
      </trkpt>
      <trkpt lat="38.94726" lon="-1.97856">
        <ele>687.914907</ele>
        <time>2022-02-23T18:58:04.635Z</time>
      </trkpt>
      <trkpt lat="38.94691" lon="-1.97852">
        <ele>687.818541</ele>
        <time>2022-02-23T18:58:12.104Z</time>
      </trkpt>
      <trkpt lat="38.9462" lon="-1.97846">
        <ele>687.60905</ele>
        <time>2022-02-23T18:58:27.312Z</time>
      </trkpt>
      <trkpt lat="38.94504" lon="-1.97857">
        <ele>687.301353</ele>
        <time>2022-02-23T18:58:51.958Z</time>
      </trkpt>
      <trkpt lat="38.94422" lon="-1.9788">
        <ele>687.124711</ele>
        <time>2022-02-23T18:59:10.103Z</time>
      </trkpt>
      <trkpt lat="38.94326" lon="-1.97922">
        <ele>687.005971</ele>
        <time>2022-02-23T18:59:32.478Z</time>
      </trkpt>
      <trkpt lat="38.94222" lon="-1.97992">
        <ele>687.000698</ele>
        <time>2022-02-23T18:59:58.983Z</time>
      </trkpt>
      <trkpt lat="38.94161" lon="-1.98048">
        <ele>687.02021</ele>
        <time>2022-02-23T19:00:15.457Z</time>
      </trkpt>
      <trkpt lat="38.94079" lon="-1.98144">
        <ele>687.058526</ele>
        <time>2022-02-23T19:00:40.168Z</time>
      </trkpt>
      <trkpt lat="38.93691" lon="-1.98615">
        <ele>688.260239</ele>
        <time>2022-02-23T19:02:44.748Z</time>
      </trkpt>
      <trkpt lat="38.9331" lon="-1.99081">
        <ele>690.333715</ele>
        <time>2022-02-23T19:04:53.166Z</time>
      </trkpt>
      <trkpt lat="38.92973" lon="-1.99491">
        <ele>690.397217</ele>
        <time>2022-02-23T19:06:35.614Z</time>
      </trkpt>
      <trkpt lat="38.92745" lon="-1.99768">
        <ele>691.370832</ele>
        <time>2022-02-23T19:07:51.019Z</time>
      </trkpt>
      <trkpt lat="38.92524" lon="-2.00039">
        <ele>692.356226</ele>
        <time>2022-02-23T19:09:03.830Z</time>
      </trkpt>
      <trkpt lat="38.92293" lon="-2.00321">
        <ele>693.838886</ele>
        <time>2022-02-23T19:10:21.924Z</time>
      </trkpt>
      <trkpt lat="38.91957" lon="-2.00729">
        <ele>696.113519</ele>
        <time>2022-02-23T19:12:17.838Z</time>
      </trkpt>
      <trkpt lat="38.91939" lon="-2.00774">
        <ele>696.073469</ele>
        <time>2022-02-23T19:12:26.783Z</time>
      </trkpt>
      <trkpt lat="38.91632" lon="-2.01135">
        <ele>695.735685</ele>
        <time>2022-02-23T19:13:56.596Z</time>
      </trkpt>
      <trkpt lat="38.91618" lon="-2.01142">
        <ele>695.730279</ele>
        <time>2022-02-23T19:13:59.817Z</time>
      </trkpt>
      <trkpt lat="38.91605" lon="-2.01159">
        <ele>695.723329</ele>
        <time>2022-02-23T19:14:04.370Z</time>
      </trkpt>
      <trkpt lat="38.9148" lon="-2.01308">
        <ele>696.331376</ele>
        <time>2022-02-23T19:14:46.427Z</time>
      </trkpt>
      <trkpt lat="38.91362" lon="-2.01477">
        <ele>696.737544</ele>
        <time>2022-02-23T19:15:27.803Z</time>
      </trkpt>
      <trkpt lat="38.91322" lon="-2.01552">
        <ele>696.951214</ele>
        <time>2022-02-23T19:15:43.635Z</time>
      </trkpt>
      <trkpt lat="38.91279" lon="-2.01664">
        <ele>697.304266</ele>
        <time>2022-02-23T19:16:06.320Z</time>
      </trkpt>
      <trkpt lat="38.91149" lon="-2.02068">
        <ele>699.660193</ele>
        <time>2022-02-23T19:17:35.783Z</time>
      </trkpt>
      <trkpt lat="38.90431" lon="-2.04379">
        <ele>708.658847</ele>
        <time>2022-02-23T19:25:30.596Z</time>
      </trkpt>
      <trkpt lat="38.90429" lon="-2.04383">
        <ele>708.680329</ele>
        <time>2022-02-23T19:25:31.617Z</time>
      </trkpt>
      <trkpt lat="38.9042" lon="-2.04412">
        <ele>708.807739</ele>
        <time>2022-02-23T19:25:37.796Z</time>
      </trkpt>
      <trkpt lat="38.89965" lon="-2.05864">
        <ele>715.431186</ele>
        <time>2022-02-23T19:30:52.553Z</time>
      </trkpt>
      <trkpt lat="38.89641" lon="-2.06902">
        <ele>721.830479</ele>
        <time>2022-02-23T19:34:46.930Z</time>
      </trkpt>
      <trkpt lat="38.88874" lon="-2.09339">
        <ele>738.530801</ele>
        <time>2022-02-23T19:44:03.981Z</time>
      </trkpt>
      <trkpt lat="38.88377" lon="-2.10942">
        <ele>750.213429</ele>
        <time>2022-02-23T19:50:14.723Z</time>
      </trkpt>
      <trkpt lat="38.88345" lon="-2.11045">
        <ele>750.289845</ele>
        <time>2022-02-23T19:50:35.706Z</time>
      </trkpt>
      <trkpt lat="38.88369" lon="-2.11071">
        <ele>750.317756</ele>
        <time>2022-02-23T19:50:47.372Z</time>
      </trkpt>
      <trkpt lat="38.88538" lon="-2.11251">
        <ele>749.750556</ele>
        <time>2022-02-23T19:52:06.327Z</time>
      </trkpt>
      <trkpt lat="38.89018" lon="-2.11767">
        <ele>748.619147</ele>
        <time>2022-02-23T19:55:54.409Z</time>
      </trkpt>
      <trkpt lat="38.89043" lon="-2.11828">
        <ele>748.731739</ele>
        <time>2022-02-23T19:56:15.063Z</time>
      </trkpt>
      <trkpt lat="38.8901" lon="-2.11897">
        <ele>748.928305</ele>
        <time>2022-02-23T19:56:40.004Z</time>
      </trkpt>
      <trkpt lat="38.88689" lon="-2.12245">
        <ele>752.371065</ele>
        <time>2022-02-23T19:59:35.689Z</time>
      </trkpt>
      <trkpt lat="38.88678" lon="-2.12283">
        <ele>752.484556</ele>
        <time>2022-02-23T19:59:47.635Z</time>
      </trkpt>
      <trkpt lat="38.88739" lon="-2.12315">
        <ele>752.715747</ele>
        <time>2022-02-23T20:00:11.869Z</time>
      </trkpt>
      <trkpt lat="38.88799" lon="-2.12379">
        <ele>752.817495</ele>
        <time>2022-02-23T20:00:40.476Z</time>
      </trkpt>
      <trkpt lat="38.88825" lon="-2.12407">
        <ele>752.846963</ele>
        <time>2022-02-23T20:00:52.761Z</time>
      </trkpt>
      <trkpt lat="38.88869" lon="-2.12506">
        <ele>752.962559</ele>
        <time>2022-02-23T20:01:26.901Z</time>
      </trkpt>
      <trkpt lat="38.88732" lon="-2.12841">
        <ele>754.610895</ele>
        <time>2022-02-23T20:02:41.369Z</time>
      </trkpt>
      <trkpt lat="38.88266" lon="-2.13799">
        <ele>759.744543</ele>
        <time>2022-02-23T20:06:23.013Z</time>
      </trkpt>
      <trkpt lat="38.88246" lon="-2.1385">
        <ele>759.943943</ele>
        <time>2022-02-23T20:06:34.164Z</time>
      </trkpt>
      <trkpt lat="38.88233" lon="-2.13892">
        <ele>760.076984</ele>
        <time>2022-02-23T20:06:42.699Z</time>
      </trkpt>
      <trkpt lat="38.88218" lon="-2.1395">
        <ele>759.905502</ele>
        <time>2022-02-23T20:06:53.200Z</time>
      </trkpt>
      <trkpt lat="38.88169" lon="-2.14157">
        <ele>759.350273</ele>
        <time>2022-02-23T20:07:27.907Z</time>
      </trkpt>
      <trkpt lat="38.88153" lon="-2.14225">
        <ele>759.228564</ele>
        <time>2022-02-23T20:07:39.359Z</time>
      </trkpt>
      <trkpt lat="38.88144" lon="-2.14262">
        <ele>759.160749</ele>
        <time>2022-02-23T20:07:46.089Z</time>
      </trkpt>
      <trkpt lat="38.88123" lon="-2.14352">
        <ele>759.106776</ele>
        <time>2022-02-23T20:08:03.227Z</time>
      </trkpt>
      <trkpt lat="38.88117" lon="-2.14369">
        <ele>759.162414</ele>
        <time>2022-02-23T20:08:06.921Z</time>
      </trkpt>
      <trkpt lat="38.88113" lon="-2.1438">
        <ele>759.197799</ele>
        <time>2022-02-23T20:08:09.405Z</time>
      </trkpt>
      <trkpt lat="38.88092" lon="-2.1443">
        <ele>759.362182</ele>
        <time>2022-02-23T20:08:20.663Z</time>
      </trkpt>
      <trkpt lat="38.88023" lon="-2.14555">
        <ele>759.752493</ele>
        <time>2022-02-23T20:08:48.885Z</time>
      </trkpt>
      <trkpt lat="38.8801" lon="-2.14581">
        <ele>759.79084</ele>
        <time>2022-02-23T20:08:54.297Z</time>
      </trkpt>
      <trkpt lat="38.87958" lon="-2.14673">
        <ele>759.933111</ele>
        <time>2022-02-23T20:09:14.217Z</time>
      </trkpt>
      <trkpt lat="38.87941" lon="-2.14705">
        <ele>759.981193</ele>
        <time>2022-02-23T20:09:21.018Z</time>
      </trkpt>
      <trkpt lat="38.87864" lon="-2.14846">
        <ele>760.730199</ele>
        <time>2022-02-23T20:09:53.451Z</time>
      </trkpt>
      <trkpt lat="38.87859" lon="-2.14859">
        <ele>760.801836</ele>
        <time>2022-02-23T20:09:56.724Z</time>
      </trkpt>
      <trkpt lat="38.87857" lon="-2.14862">
        <ele>760.816609</ele>
        <time>2022-02-23T20:09:57.397Z</time>
      </trkpt>
      <trkpt lat="38.87829" lon="-2.14943">
        <ele>761.380358</ele>
        <time>2022-02-23T20:10:16.254Z</time>
      </trkpt>
      <trkpt lat="38.87822" lon="-2.14992">
        <ele>761.837212</ele>
        <time>2022-02-23T20:10:27.310Z</time>
      </trkpt>
      <trkpt lat="38.87822" lon="-2.15015">
        <ele>762.055717</ele>
        <time>2022-02-23T20:10:32.379Z</time>
      </trkpt>
      <trkpt lat="38.87823" lon="-2.15077">
        <ele>762.624479</ele>
        <time>2022-02-23T20:10:46.280Z</time>
      </trkpt>
      <trkpt lat="38.87826" lon="-2.15131">
        <ele>763.126713</ele>
        <time>2022-02-23T20:10:58.336Z</time>
      </trkpt>
      <trkpt lat="38.87834" lon="-2.153">
        <ele>764.678702</ele>
        <time>2022-02-23T20:11:36.045Z</time>
      </trkpt>
      <trkpt lat="38.87841" lon="-2.15411">
        <ele>765.555188</ele>
        <time>2022-02-23T20:11:59.413Z</time>
      </trkpt>
      <trkpt lat="38.87858" lon="-2.155">
        <ele>766.06451</ele>
        <time>2022-02-23T20:12:18.021Z</time>
      </trkpt>
      <trkpt lat="38.87888" lon="-2.15583">
        <ele>766.568692</ele>
        <time>2022-02-23T20:12:35.895Z</time>
      </trkpt>
      <trkpt lat="38.88071" lon="-2.15982">
        <ele>768.383314</ele>
        <time>2022-02-23T20:14:04.491Z</time>
      </trkpt>
      <trkpt lat="38.88089" lon="-2.16043">
        <ele>768.902772</ele>
        <time>2022-02-23T20:14:17.816Z</time>
      </trkpt>
      <trkpt lat="38.88107" lon="-2.16135">
        <ele>769.681145</ele>
        <time>2022-02-23T20:14:37.810Z</time>
      </trkpt>
      <trkpt lat="38.88127" lon="-2.16221">
        <ele>770.487883</ele>
        <time>2022-02-23T20:14:58.267Z</time>
      </trkpt>
      <trkpt lat="38.88235" lon="-2.16544">
        <ele>775.280205</ele>
        <time>2022-02-23T20:16:22.661Z</time>
      </trkpt>
      <trkpt lat="38.88249" lon="-2.16587">
        <ele>775.959497</ele>
        <time>2022-02-23T20:16:34.485Z</time>
      </trkpt>
      <trkpt lat="38.88243" lon="-2.16602">
        <ele>776.212025</ele>
        <time>2022-02-23T20:16:40.494Z</time>
      </trkpt>
      <trkpt lat="38.88225" lon="-2.16616">
        <ele>776.610407</ele>
        <time>2022-02-23T20:16:51.066Z</time>
      </trkpt>
      <trkpt lat="38.88205" lon="-2.16623">
        <ele>777.050392</ele>
        <time>2022-02-23T20:17:00.439Z</time>
      </trkpt>
      <trkpt lat="38.88179" lon="-2.16617">
        <ele>777.661492</ele>
        <time>2022-02-23T20:17:13.630Z</time>
      </trkpt>
      <trkpt lat="38.88182" lon="-2.17069">
        <ele>784.627924</ele>
        <time>2022-02-23T20:19:15.920Z</time>
      </trkpt>
      <trkpt lat="38.88227" lon="-2.17489">
        <ele>783.025172</ele>
        <time>2022-02-23T20:20:24.073Z</time>
      </trkpt>
      <trkpt lat="38.88268" lon="-2.17858">
        <ele>787.269127</ele>
        <time>2022-02-23T20:21:59.888Z</time>
      </trkpt>
      <trkpt lat="38.88264" lon="-2.17957">
        <ele>788.249799</ele>
        <time>2022-02-23T20:22:18.845Z</time>
      </trkpt>
      <trkpt lat="38.88255" lon="-2.18015">
        <ele>788.710498</ele>
        <time>2022-02-23T20:22:30.176Z</time>
      </trkpt>
      <trkpt lat="38.88236" lon="-2.1808">
        <ele>789.255373</ele>
        <time>2022-02-23T20:22:43.222Z</time>
      </trkpt>
      <trkpt lat="38.88085" lon="-2.1855">
        <ele>796.507555</ele>
        <time>2022-02-23T20:24:58.906Z</time>
      </trkpt>
      <trkpt lat="38.88073" lon="-2.18608">
        <ele>797.020471</ele>
        <time>2022-02-23T20:25:11.168Z</time>
      </trkpt>
      <trkpt lat="38.88039" lon="-2.18873">
        <ele>796.092155</ele>
        <time>2022-02-23T20:25:56.377Z</time>
      </trkpt>
      <trkpt lat="38.88015" lon="-2.18982">
        <ele>795.208452</ele>
        <time>2022-02-23T20:26:14.984Z</time>
      </trkpt>
      <trkpt lat="38.8798" lon="-2.19057">
        <ele>794.342114</ele>
        <time>2022-02-23T20:26:28.617Z</time>
      </trkpt>
      <trkpt lat="38.87942" lon="-2.19124">
        <ele>793.102996</ele>
        <time>2022-02-23T20:26:40.902Z</time>
      </trkpt>
      <trkpt lat="38.87848" lon="-2.19264">
        <ele>791.481011</ele>
        <time>2022-02-23T20:27:08.433Z</time>
      </trkpt>
      <trkpt lat="38.87808" lon="-2.19342">
        <ele>791.795081</ele>
        <time>2022-02-23T20:27:25.634Z</time>
      </trkpt>
      <trkpt lat="38.87769" lon="-2.19461">
        <ele>793.604928</ele>
        <time>2022-02-23T20:28:03.387Z</time>
      </trkpt>
      <trkpt lat="38.87729" lon="-2.19603">
        <ele>797.94687</ele>
        <time>2022-02-23T20:28:56.483Z</time>
      </trkpt>
      <trkpt lat="38.87701" lon="-2.19683">
        <ele>799.052605</ele>
        <time>2022-02-23T20:29:24.149Z</time>
      </trkpt>
      <trkpt lat="38.87675" lon="-2.19737">
        <ele>799.436478</ele>
        <time>2022-02-23T20:29:38.660Z</time>
      </trkpt>
      <trkpt lat="38.87617" lon="-2.19821">
        <ele>800.049714</ele>
        <time>2022-02-23T20:29:56.599Z</time>
      </trkpt>
      <trkpt lat="38.87585" lon="-2.19855">
        <ele>799.832333</ele>
        <time>2022-02-23T20:30:04.648Z</time>
      </trkpt>
      <trkpt lat="38.87568" lon="-2.19867">
        <ele>799.731899</ele>
        <time>2022-02-23T20:30:08.127Z</time>
      </trkpt>
      <trkpt lat="38.87481" lon="-2.19915">
        <ele>799.236701</ele>
        <time>2022-02-23T20:30:28.118Z</time>
      </trkpt>
      <trkpt lat="38.87181" lon="-2.20019">
        <ele>805.906362</ele>
        <time>2022-02-23T20:32:28.599Z</time>
      </trkpt>
      <trkpt lat="38.87056" lon="-2.20063">
        <ele>805.203635</ele>
        <time>2022-02-23T20:32:55.579Z</time>
      </trkpt>
      <trkpt lat="38.86906" lon="-2.20108">
        <ele>801.524838</ele>
        <time>2022-02-23T20:33:21.955Z</time>
      </trkpt>
      <trkpt lat="38.86581" lon="-2.20216">
        <ele>799.756296</ele>
        <time>2022-02-23T20:34:42.197Z</time>
      </trkpt>
      <trkpt lat="38.86454" lon="-2.20246">
        <ele>797.024577</ele>
        <time>2022-02-23T20:35:06.820Z</time>
      </trkpt>
      <trkpt lat="38.86448" lon="-2.20253">
        <ele>796.851514</ele>
        <time>2022-02-23T20:35:08.085Z</time>
      </trkpt>
      <trkpt lat="38.86442" lon="-2.20358">
        <ele>795.041051</ele>
        <time>2022-02-23T20:35:22.829Z</time>
      </trkpt>
      <trkpt lat="38.86429" lon="-2.2037">
        <ele>794.673071</ele>
        <time>2022-02-23T20:35:25.899Z</time>
      </trkpt>
      <trkpt lat="38.86429" lon="-2.20382">
        <ele>794.465734</ele>
        <time>2022-02-23T20:35:27.347Z</time>
      </trkpt>
      <trkpt lat="38.86428" lon="-2.20471">
        <ele>792.878029</ele>
        <time>2022-02-23T20:35:40.375Z</time>
      </trkpt>
      <trkpt lat="38.86432" lon="-2.20503">
        <ele>792.30377</ele>
        <time>2022-02-23T20:35:45.683Z</time>
      </trkpt>
      <trkpt lat="38.86332" lon="-2.2054">
        <ele>792.396392</ele>
        <time>2022-02-23T20:36:11.106Z</time>
      </trkpt>
      <trkpt lat="38.86282" lon="-2.20553">
        <ele>792.551631</ele>
        <time>2022-02-23T20:36:24.773Z</time>
      </trkpt>
      <trkpt lat="38.86228" lon="-2.20549">
        <ele>792.831593</ele>
        <time>2022-02-23T20:36:39.194Z</time>
      </trkpt>
      <trkpt lat="38.86167" lon="-2.20535">
        <ele>793.36403</ele>
        <time>2022-02-23T20:36:56.051Z</time>
      </trkpt>
      <trkpt lat="38.86119" lon="-2.20546">
        <ele>793.781626</ele>
        <time>2022-02-23T20:37:09.278Z</time>
      </trkpt>
      <trkpt lat="38.86076" lon="-2.20567">
        <ele>794.178375</ele>
        <time>2022-02-23T20:37:22.152Z</time>
      </trkpt>
      <trkpt lat="38.85994" lon="-2.20642">
        <ele>795.489991</ele>
        <time>2022-02-23T20:37:51.304Z</time>
      </trkpt>
      <trkpt lat="38.85984" lon="-2.20655">
        <ele>795.675422</ele>
        <time>2022-02-23T20:37:55.815Z</time>
      </trkpt>
      <trkpt lat="38.8598" lon="-2.20691">
        <ele>796.038954</ele>
        <time>2022-02-23T20:38:04.431Z</time>
      </trkpt>
      <trkpt lat="38.85997" lon="-2.20805">
        <ele>797.232745</ele>
        <time>2022-02-23T20:38:32.488Z</time>
      </trkpt>
      <trkpt lat="38.86009" lon="-2.2084">
        <ele>797.629241</ele>
        <time>2022-02-23T20:38:41.902Z</time>
      </trkpt>
      <trkpt lat="38.86058" lon="-2.20957">
        <ele>798.958528</ele>
        <time>2022-02-23T20:39:11.886Z</time>
      </trkpt>
      <trkpt lat="38.86071" lon="-2.2101">
        <ele>799.218396</ele>
        <time>2022-02-23T20:39:23.906Z</time>
      </trkpt>
      <trkpt lat="38.86075" lon="-2.21049">
        <ele>799.404006</ele>
        <time>2022-02-23T20:39:31.410Z</time>
      </trkpt>
      <trkpt lat="38.86073" lon="-2.21085">
        <ele>799.568145</ele>
        <time>2022-02-23T20:39:37.968Z</time>
      </trkpt>
      <trkpt lat="38.86049" lon="-2.21189">
        <ele>800.194851</ele>
        <time>2022-02-23T20:39:59.086Z</time>
      </trkpt>
      <trkpt lat="38.86041" lon="-2.21215">
        <ele>800.580328</ele>
        <time>2022-02-23T20:40:05.148Z</time>
      </trkpt>
      <trkpt lat="38.85998" lon="-2.21295">
        <ele>801.906193</ele>
        <time>2022-02-23T20:40:28.502Z</time>
      </trkpt>
      <trkpt lat="38.85923" lon="-2.21416">
        <ele>804.829484</ele>
        <time>2022-02-23T20:41:11.788Z</time>
      </trkpt>
      <trkpt lat="38.85894" lon="-2.21482">
        <ele>806.868814</ele>
        <time>2022-02-23T20:41:39.206Z</time>
      </trkpt>
      <trkpt lat="38.85869" lon="-2.21509">
        <ele>808.004223</ele>
        <time>2022-02-23T20:41:54.039Z</time>
      </trkpt>
      <trkpt lat="38.85857" lon="-2.21535">
        <ele>808.808344</ele>
        <time>2022-02-23T20:42:03.342Z</time>
      </trkpt>
      <trkpt lat="38.85817" lon="-2.2158">
        <ele>809.595008</ele>
        <time>2022-02-23T20:42:21.709Z</time>
      </trkpt>
      <trkpt lat="38.85779" lon="-2.21622">
        <ele>809.925116</ele>
        <time>2022-02-23T20:42:36.726Z</time>
      </trkpt>
      <trkpt lat="38.85731" lon="-2.21663">
        <ele>810.308363</ele>
        <time>2022-02-23T20:42:50.733Z</time>
      </trkpt>
      <trkpt lat="38.85707" lon="-2.21709">
        <ele>810.363867</ele>
        <time>2022-02-23T20:42:59.788Z</time>
      </trkpt>
      <trkpt lat="38.85682" lon="-2.218">
        <ele>808.794127</ele>
        <time>2022-02-23T20:43:13.491Z</time>
      </trkpt>
      <trkpt lat="38.85671" lon="-2.21872">
        <ele>807.590205</ele>
        <time>2022-02-23T20:43:24.069Z</time>
      </trkpt>
      <trkpt lat="38.85665" lon="-2.21958">
        <ele>806.948625</ele>
        <time>2022-02-23T20:43:37.126Z</time>
      </trkpt>
      <trkpt lat="38.85637" lon="-2.22086">
        <ele>807.623964</ele>
        <time>2022-02-23T20:44:00.119Z</time>
      </trkpt>
      <trkpt lat="38.85631" lon="-2.2209">
        <ele>807.671234</ele>
        <time>2022-02-23T20:44:01.845Z</time>
      </trkpt>
      <trkpt lat="38.85446" lon="-2.22087">
        <ele>814.589392</ele>
        <time>2022-02-23T20:45:27.588Z</time>
      </trkpt>
      <trkpt lat="38.85436" lon="-2.22087">
        <ele>815.062124</ele>
        <time>2022-02-23T20:45:32.473Z</time>
      </trkpt>
      <trkpt lat="38.85379" lon="-2.22084">
        <ele>817.192185</ele>
        <time>2022-02-23T20:46:02.410Z</time>
      </trkpt>
      <trkpt lat="38.85361" lon="-2.22098">
        <ele>817.835842</ele>
        <time>2022-02-23T20:46:11.117Z</time>
      </trkpt>
      <trkpt lat="38.8535" lon="-2.22119">
        <ele>818.423454</ele>
        <time>2022-02-23T20:46:20.924Z</time>
      </trkpt>
      <trkpt lat="38.85326" lon="-2.22178">
        <ele>819.960427</ele>
        <time>2022-02-23T20:46:40.335Z</time>
      </trkpt>
      <trkpt lat="38.85296" lon="-2.2223">
        <ele>821.488013</ele>
        <time>2022-02-23T20:46:57.887Z</time>
      </trkpt>
      <trkpt lat="38.85252" lon="-2.22284">
        <ele>821.051788</ele>
        <time>2022-02-23T20:47:09.885Z</time>
      </trkpt>
      <trkpt lat="38.85197" lon="-2.22333">
        <ele>820.302842</ele>
        <time>2022-02-23T20:47:22.229Z</time>
      </trkpt>
      <trkpt lat="38.85146" lon="-2.22362">
        <ele>819.668858</ele>
        <time>2022-02-23T20:47:33.549Z</time>
      </trkpt>
      <trkpt lat="38.84784" lon="-2.22476">
        <ele>821.520528</ele>
        <time>2022-02-23T20:49:11.294Z</time>
      </trkpt>
      <trkpt lat="38.84738" lon="-2.22496">
        <ele>821.891674</ele>
        <time>2022-02-23T20:49:25.246Z</time>
      </trkpt>
      <trkpt lat="38.84691" lon="-2.2252">
        <ele>822.280623</ele>
        <time>2022-02-23T20:49:38.998Z</time>
      </trkpt>
      <trkpt lat="38.84672" lon="-2.22485">
        <ele>822.534202</ele>
        <time>2022-02-23T20:49:47.320Z</time>
      </trkpt>
      <trkpt lat="38.84654" lon="-2.22502">
        <ele>822.704462</ele>
        <time>2022-02-23T20:49:52.714Z</time>
      </trkpt>
      <trkpt lat="38.84639" lon="-2.22537">
        <ele>822.981185</ele>
        <time>2022-02-23T20:50:00.634Z</time>
      </trkpt>
      <trkpt lat="38.8464" lon="-2.22553">
        <ele>823.099601</ele>
        <time>2022-02-23T20:50:03.891Z</time>
      </trkpt>
      <trkpt lat="38.84651" lon="-2.22583">
        <ele>823.357769</ele>
        <time>2022-02-23T20:50:11.933Z</time>
      </trkpt>
      <trkpt lat="38.8465" lon="-2.22596">
        <ele>823.465717</ele>
        <time>2022-02-23T20:50:15.993Z</time>
      </trkpt>
      <trkpt lat="38.84644" lon="-2.2261">
        <ele>823.587554</ele>
        <time>2022-02-23T20:50:20.322Z</time>
      </trkpt>
      <trkpt lat="38.84595" lon="-2.22668">
        <ele>824.246083</ele>
        <time>2022-02-23T20:50:40.444Z</time>
      </trkpt>
      <trkpt lat="38.84562" lon="-2.22678">
        <ele>824.582807</ele>
        <time>2022-02-23T20:50:48.691Z</time>
      </trkpt>
      <trkpt lat="38.8454" lon="-2.22677">
        <ele>824.400538</ele>
        <time>2022-02-23T20:50:53.509Z</time>
      </trkpt>
      <trkpt lat="38.84526" lon="-2.22665">
        <ele>824.230695</ele>
        <time>2022-02-23T20:50:58.392Z</time>
      </trkpt>
      <trkpt lat="38.84194" lon="-2.22982">
        <ele>820.595495</ele>
        <time>2022-02-23T20:52:22.661Z</time>
      </trkpt>
      <trkpt lat="38.84184" lon="-2.22992">
        <ele>820.550514</ele>
        <time>2022-02-23T20:52:25.348Z</time>
      </trkpt>
      <trkpt lat="38.84001" lon="-2.23165">
        <ele>822.037476</ele>
        <time>2022-02-23T20:53:26.345Z</time>
      </trkpt>
      <trkpt lat="38.83915" lon="-2.23265">
        <ele>825.110175</ele>
        <time>2022-02-23T20:54:09.025Z</time>
      </trkpt>
      <trkpt lat="38.83755" lon="-2.23497">
        <ele>833.076924</ele>
        <time>2022-02-23T20:55:50.926Z</time>
      </trkpt>
      <trkpt lat="38.8374" lon="-2.2355">
        <ele>834.228697</ele>
        <time>2022-02-23T20:56:06.132Z</time>
      </trkpt>
      <trkpt lat="38.83699" lon="-2.23617">
        <ele>834.745438</ele>
        <time>2022-02-23T20:56:26.129Z</time>
      </trkpt>
      <trkpt lat="38.83606" lon="-2.23753">
        <ele>835.496138</ele>
        <time>2022-02-23T20:56:58.261Z</time>
      </trkpt>
      <trkpt lat="38.83581" lon="-2.23787">
        <ele>835.465016</ele>
        <time>2022-02-23T20:57:06.305Z</time>
      </trkpt>
      <trkpt lat="38.83536" lon="-2.23828">
        <ele>835.41871</ele>
        <time>2022-02-23T20:57:18.459Z</time>
      </trkpt>
      <trkpt lat="38.83495" lon="-2.23877">
        <ele>835.55368</ele>
        <time>2022-02-23T20:57:32.074Z</time>
      </trkpt>
      <trkpt lat="38.83461" lon="-2.23911">
        <ele>836.564691</ele>
        <time>2022-02-23T20:57:44.170Z</time>
      </trkpt>
      <trkpt lat="38.8344" lon="-2.23925">
        <ele>837.119833</ele>
        <time>2022-02-23T20:57:51.079Z</time>
      </trkpt>
      <trkpt lat="38.83002" lon="-2.24211">
        <ele>849.470763</ele>
        <time>2022-02-23T21:00:52.831Z</time>
      </trkpt>
      <trkpt lat="38.82904" lon="-2.24289">
        <ele>852.488133</ele>
        <time>2022-02-23T21:01:35.935Z</time>
      </trkpt>
      <trkpt lat="38.82876" lon="-2.2432">
        <ele>853.449448</ele>
        <time>2022-02-23T21:01:48.471Z</time>
      </trkpt>
      <trkpt lat="38.82811" lon="-2.2442">
        <ele>854.449973</ele>
        <time>2022-02-23T21:02:21.209Z</time>
      </trkpt>
      <trkpt lat="38.82752" lon="-2.24541">
        <ele>854.518554</ele>
        <time>2022-02-23T21:02:47.796Z</time>
      </trkpt>
      <trkpt lat="38.8273" lon="-2.2462">
        <ele>853.043865</ele>
        <time>2022-02-23T21:02:59.684Z</time>
      </trkpt>
      <trkpt lat="38.82716" lon="-2.24696">
        <ele>851.683824</ele>
        <time>2022-02-23T21:03:10.695Z</time>
      </trkpt>
      <trkpt lat="38.82708" lon="-2.2477">
        <ele>850.887245</ele>
        <time>2022-02-23T21:03:20.955Z</time>
      </trkpt>
      <trkpt lat="38.82689" lon="-2.2511">
        <ele>850.420727</ele>
        <time>2022-02-23T21:04:21.756Z</time>
      </trkpt>
      <trkpt lat="38.82686" lon="-2.25216">
        <ele>850.937084</ele>
        <time>2022-02-23T21:04:50.521Z</time>
      </trkpt>
      <trkpt lat="38.82672" lon="-2.25317">
        <ele>851.399966</ele>
        <time>2022-02-23T21:05:14.496Z</time>
      </trkpt>
      <trkpt lat="38.82653" lon="-2.25391">
        <ele>851.751141</ele>
        <time>2022-02-23T21:05:28.316Z</time>
      </trkpt>
      <trkpt lat="38.82519" lon="-2.25843">
        <ele>846.300311</ele>
        <time>2022-02-23T21:06:41.039Z</time>
      </trkpt>
      <trkpt lat="38.8249" lon="-2.25971">
        <ele>848.86908</ele>
        <time>2022-02-23T21:07:19.982Z</time>
      </trkpt>
      <trkpt lat="38.8248" lon="-2.26039">
        <ele>850.19258</ele>
        <time>2022-02-23T21:07:42.717Z</time>
      </trkpt>
      <trkpt lat="38.8248" lon="-2.26106">
        <ele>851.273905</ele>
        <time>2022-02-23T21:08:04.024Z</time>
      </trkpt>
      <trkpt lat="38.82521" lon="-2.26596">
        <ele>857.894839</ele>
        <time>2022-02-23T21:09:58.415Z</time>
      </trkpt>
      <trkpt lat="38.82524" lon="-2.2665">
        <ele>858.985584</ele>
        <time>2022-02-23T21:10:14.415Z</time>
      </trkpt>
      <trkpt lat="38.82521" lon="-2.26741">
        <ele>860.825666</ele>
        <time>2022-02-23T21:10:42.226Z</time>
      </trkpt>
      <trkpt lat="38.82507" lon="-2.268">
        <ele>862.086874</ele>
        <time>2022-02-23T21:11:02.072Z</time>
      </trkpt>
      <trkpt lat="38.82488" lon="-2.2685">
        <ele>863.232578</ele>
        <time>2022-02-23T21:11:18.806Z</time>
      </trkpt>
      <trkpt lat="38.82465" lon="-2.26897">
        <ele>864.391536</ele>
        <time>2022-02-23T21:11:33.992Z</time>
      </trkpt>
      <trkpt lat="38.82439" lon="-2.26938">
        <ele>865.47291</ele>
        <time>2022-02-23T21:11:47.940Z</time>
      </trkpt>
      <trkpt lat="38.82414" lon="-2.26969">
        <ele>866.151731</ele>
        <time>2022-02-23T21:11:59.760Z</time>
      </trkpt>
      <trkpt lat="38.82198" lon="-2.27171">
        <ele>868.520259</ele>
        <time>2022-02-23T21:13:18.504Z</time>
      </trkpt>
      <trkpt lat="38.82078" lon="-2.27266">
        <ele>866.824601</ele>
        <time>2022-02-23T21:13:46.469Z</time>
      </trkpt>
      <trkpt lat="38.81747" lon="-2.27455">
        <ele>859.590102</ele>
        <time>2022-02-23T21:14:51.618Z</time>
      </trkpt>
      <trkpt lat="38.8172" lon="-2.27469">
        <ele>860.067858</ele>
        <time>2022-02-23T21:15:01.240Z</time>
      </trkpt>
      <trkpt lat="38.81648" lon="-2.27518">
        <ele>861.59913</ele>
        <time>2022-02-23T21:15:40.207Z</time>
      </trkpt>
      <trkpt lat="38.81623" lon="-2.27543">
        <ele>864.47481</ele>
        <time>2022-02-23T21:15:59.666Z</time>
      </trkpt>
      <trkpt lat="38.81599" lon="-2.27576">
        <ele>867.667595</ele>
        <time>2022-02-23T21:16:24.342Z</time>
      </trkpt>
      <trkpt lat="38.81567" lon="-2.27641">
        <ele>873.139045</ele>
        <time>2022-02-23T21:17:11.580Z</time>
      </trkpt>
      <trkpt lat="38.8153" lon="-2.27731">
        <ele>878.890685</ele>
        <time>2022-02-23T21:18:10.052Z</time>
      </trkpt>
      <trkpt lat="38.81514" lon="-2.2778">
        <ele>880.55924</ele>
        <time>2022-02-23T21:18:32.567Z</time>
      </trkpt>
      <trkpt lat="38.81499" lon="-2.27854">
        <ele>882.950031</ele>
        <time>2022-02-23T21:18:56.939Z</time>
      </trkpt>
      <trkpt lat="38.81498" lon="-2.27927">
        <ele>884.873009</ele>
        <time>2022-02-23T21:19:09.528Z</time>
      </trkpt>
      <trkpt lat="38.81516" lon="-2.28136">
        <ele>882.152558</ele>
        <time>2022-02-23T21:19:39.618Z</time>
      </trkpt>
      <trkpt lat="38.81516" lon="-2.2819">
        <ele>883.48784</ele>
        <time>2022-02-23T21:19:51.252Z</time>
      </trkpt>
      <trkpt lat="38.81512" lon="-2.28231">
        <ele>884.975412</ele>
        <time>2022-02-23T21:20:03.354Z</time>
      </trkpt>
      <trkpt lat="38.81498" lon="-2.28291">
        <ele>887.215</ele>
        <time>2022-02-23T21:20:26.735Z</time>
      </trkpt>
      <trkpt lat="38.81465" lon="-2.28382">
        <ele>891.230138</ele>
        <time>2022-02-23T21:21:16.266Z</time>
      </trkpt>
      <trkpt lat="38.81403" lon="-2.28513">
        <ele>900.331581</ele>
        <time>2022-02-23T21:22:37.646Z</time>
      </trkpt>
      <trkpt lat="38.81255" lon="-2.28703">
        <ele>910.320079</ele>
        <time>2022-02-23T21:24:19.270Z</time>
      </trkpt>
      <trkpt lat="38.81209" lon="-2.28783">
        <ele>909.502519</ele>
        <time>2022-02-23T21:24:34.337Z</time>
      </trkpt>
      <trkpt lat="38.81192" lon="-2.28824">
        <ele>908.540458</ele>
        <time>2022-02-23T21:24:40.765Z</time>
      </trkpt>
      <trkpt lat="38.81168" lon="-2.28927">
        <ele>906.317792</ele>
        <time>2022-02-23T21:24:54.899Z</time>
      </trkpt>
      <trkpt lat="38.81162" lon="-2.28982">
        <ele>904.902504</ele>
        <time>2022-02-23T21:25:02.806Z</time>
      </trkpt>
      <trkpt lat="38.81143" lon="-2.29275">
        <ele>895.568116</ele>
        <time>2022-02-23T21:25:43.950Z</time>
      </trkpt>
      <trkpt lat="38.81094" lon="-2.29515">
        <ele>884.808168</ele>
        <time>2022-02-23T21:26:16.457Z</time>
      </trkpt>
      <trkpt lat="38.81065" lon="-2.29651">
        <ele>879.99557</ele>
        <time>2022-02-23T21:26:37.057Z</time>
      </trkpt>
      <trkpt lat="38.81031" lon="-2.29759">
        <ele>878.874318</ele>
        <time>2022-02-23T21:26:58.745Z</time>
      </trkpt>
      <trkpt lat="38.81028" lon="-2.29769">
        <ele>878.773477</ele>
        <time>2022-02-23T21:27:00.524Z</time>
      </trkpt>
      <trkpt lat="38.81001" lon="-2.29845">
        <ele>878.346915</ele>
        <time>2022-02-23T21:27:15.841Z</time>
      </trkpt>
      <trkpt lat="38.80983" lon="-2.29894">
        <ele>878.67687</ele>
        <time>2022-02-23T21:27:25.454Z</time>
      </trkpt>
      <trkpt lat="38.80936" lon="-2.30032">
        <ele>879.589206</ele>
        <time>2022-02-23T21:28:01.238Z</time>
      </trkpt>
      <trkpt lat="38.80919" lon="-2.30111">
        <ele>881.959903</ele>
        <time>2022-02-23T21:28:27.115Z</time>
      </trkpt>
      <trkpt lat="38.80914" lon="-2.30155">
        <ele>883.275796</ele>
        <time>2022-02-23T21:28:41.810Z</time>
      </trkpt>
      <trkpt lat="38.80915" lon="-2.30257">
        <ele>886.297742</ele>
        <time>2022-02-23T21:29:18.077Z</time>
      </trkpt>
      <trkpt lat="38.80942" lon="-2.30485">
        <ele>896.393779</ele>
        <time>2022-02-23T21:31:01.757Z</time>
      </trkpt>
      <trkpt lat="38.80943" lon="-2.30615">
        <ele>896.157875</ele>
        <time>2022-02-23T21:31:34.541Z</time>
      </trkpt>
      <trkpt lat="38.8094" lon="-2.30646">
        <ele>896.048061</ele>
        <time>2022-02-23T21:31:39.749Z</time>
      </trkpt>
      <trkpt lat="38.80939" lon="-2.3066">
        <ele>895.99871</ele>
        <time>2022-02-23T21:31:41.952Z</time>
      </trkpt>
      <trkpt lat="38.80919" lon="-2.30857">
        <ele>891.190593</ele>
        <time>2022-02-23T21:32:08.973Z</time>
      </trkpt>
      <trkpt lat="38.80912" lon="-2.30979">
        <ele>888.669121</ele>
        <time>2022-02-23T21:32:27.683Z</time>
      </trkpt>
      <trkpt lat="38.80913" lon="-2.31022">
        <ele>889.414426</ele>
        <time>2022-02-23T21:32:37.106Z</time>
      </trkpt>
      <trkpt lat="38.80949" lon="-2.3134">
        <ele>897.144703</ele>
        <time>2022-02-23T21:34:31.271Z</time>
      </trkpt>
      <trkpt lat="38.80957" lon="-2.31417">
        <ele>899.399265</ele>
        <time>2022-02-23T21:34:56.904Z</time>
      </trkpt>
      <trkpt lat="38.80992" lon="-2.31729">
        <ele>905.971043</ele>
        <time>2022-02-23T21:36:28.646Z</time>
      </trkpt>
      <trkpt lat="38.80992" lon="-2.31817">
        <ele>907.768488</ele>
        <time>2022-02-23T21:36:50.827Z</time>
      </trkpt>
      <trkpt lat="38.80979" lon="-2.3192">
        <ele>911.161383</ele>
        <time>2022-02-23T21:37:28.162Z</time>
      </trkpt>
      <trkpt lat="38.80948" lon="-2.32018">
        <ele>915.622205</ele>
        <time>2022-02-23T21:38:11.631Z</time>
      </trkpt>
      <trkpt lat="38.80919" lon="-2.32084">
        <ele>918.808071</ele>
        <time>2022-02-23T21:38:46.089Z</time>
      </trkpt>
      <trkpt lat="38.80837" lon="-2.32213">
        <ele>925.426346</ele>
        <time>2022-02-23T21:39:57.384Z</time>
      </trkpt>
      <trkpt lat="38.80679" lon="-2.32418">
        <ele>930.557407</ele>
        <time>2022-02-23T21:41:09.104Z</time>
      </trkpt>
      <trkpt lat="38.80627" lon="-2.32479">
        <ele>929.596626</ele>
        <time>2022-02-23T21:41:24.348Z</time>
      </trkpt>
      <trkpt lat="38.80521" lon="-2.32609">
        <ele>926.618438</ele>
        <time>2022-02-23T21:41:52.154Z</time>
      </trkpt>
      <trkpt lat="38.8048" lon="-2.32648">
        <ele>924.62043</ele>
        <time>2022-02-23T21:42:00.894Z</time>
      </trkpt>
      <trkpt lat="38.80363" lon="-2.32717">
        <ele>918.699568</ele>
        <time>2022-02-23T21:42:22.790Z</time>
      </trkpt>
      <trkpt lat="38.80221" lon="-2.32782">
        <ele>909.660075</ele>
        <time>2022-02-23T21:42:46.551Z</time>
      </trkpt>
      <trkpt lat="38.80206" lon="-2.32793">
        <ele>908.961342</ele>
        <time>2022-02-23T21:42:49.261Z</time>
      </trkpt>
      <trkpt lat="38.80165" lon="-2.32813">
        <ele>907.203384</ele>
        <time>2022-02-23T21:42:56.496Z</time>
      </trkpt>
      <trkpt lat="38.80084" lon="-2.32863">
        <ele>903.643243</ele>
        <time>2022-02-23T21:43:11.998Z</time>
      </trkpt>
      <trkpt lat="38.8005" lon="-2.32894">
        <ele>902.965986</ele>
        <time>2022-02-23T21:43:21.055Z</time>
      </trkpt>
      <trkpt lat="38.79988" lon="-2.32981">
        <ele>903.65986</ele>
        <time>2022-02-23T21:43:49.461Z</time>
      </trkpt>
      <trkpt lat="38.7996" lon="-2.33046">
        <ele>904.101366</ele>
        <time>2022-02-23T21:44:08.674Z</time>
      </trkpt>
      <trkpt lat="38.79816" lon="-2.33462">
        <ele>904.172588</ele>
        <time>2022-02-23T21:45:31.028Z</time>
      </trkpt>
      <trkpt lat="38.79789" lon="-2.33564">
        <ele>904.057854</ele>
        <time>2022-02-23T21:45:47.709Z</time>
      </trkpt>
      <trkpt lat="38.79784" lon="-2.3361">
        <ele>904.015023</ele>
        <time>2022-02-23T21:45:55.511Z</time>
      </trkpt>
      <trkpt lat="38.79783" lon="-2.33656">
        <ele>903.972876</ele>
        <time>2022-02-23T21:46:03.764Z</time>
      </trkpt>
      <trkpt lat="38.79783" lon="-2.33705">
        <ele>903.961104</ele>
        <time>2022-02-23T21:46:13.715Z</time>
      </trkpt>
      <trkpt lat="38.79797" lon="-2.33898">
        <ele>909.493749</ele>
        <time>2022-02-23T21:47:16.264Z</time>
      </trkpt>
      <trkpt lat="38.79801" lon="-2.33956">
        <ele>911.078685</ele>
        <time>2022-02-23T21:47:42.089Z</time>
      </trkpt>
      <trkpt lat="38.79815" lon="-2.34161">
        <ele>916.370807</ele>
        <time>2022-02-23T21:48:49.771Z</time>
      </trkpt>
      <trkpt lat="38.79832" lon="-2.34427">
        <ele>912.64824</ele>
        <time>2022-02-23T21:49:28.142Z</time>
      </trkpt>
      <trkpt lat="38.79857" lon="-2.34576">
        <ele>910.698413</ele>
        <time>2022-02-23T21:49:50.947Z</time>
      </trkpt>
      <trkpt lat="38.79892" lon="-2.34663">
        <ele>910.287512</ele>
        <time>2022-02-23T21:50:08.787Z</time>
      </trkpt>
      <trkpt lat="38.79903" lon="-2.34701">
        <ele>910.413149</ele>
        <time>2022-02-23T21:50:16.429Z</time>
      </trkpt>
      <trkpt lat="38.79917" lon="-2.34932">
        <ele>911.732341</ele>
        <time>2022-02-23T21:51:05.153Z</time>
      </trkpt>
      <trkpt lat="38.79919" lon="-2.34953">
        <ele>911.927014</ele>
        <time>2022-02-23T21:51:10.179Z</time>
      </trkpt>
      <trkpt lat="38.79919" lon="-2.35051">
        <ele>912.86382</ele>
        <time>2022-02-23T21:51:34.300Z</time>
      </trkpt>
      <trkpt lat="38.79908" lon="-2.35139">
        <ele>913.063286</ele>
        <time>2022-02-23T21:51:55.107Z</time>
      </trkpt>
      <trkpt lat="38.79605" lon="-2.36048">
        <ele>913.993951</ele>
        <time>2022-02-23T21:54:52.482Z</time>
      </trkpt>
      <trkpt lat="38.79446" lon="-2.36919">
        <ele>921.584295</ele>
        <time>2022-02-23T21:58:11.518Z</time>
      </trkpt>
      <trkpt lat="38.79421" lon="-2.37007">
        <ele>922.873074</ele>
        <time>2022-02-23T21:58:38.210Z</time>
      </trkpt>
      <trkpt lat="38.79376" lon="-2.37095">
        <ele>923.451205</ele>
        <time>2022-02-23T21:59:04.996Z</time>
      </trkpt>
      <trkpt lat="38.79354" lon="-2.37127">
        <ele>923.556813</ele>
        <time>2022-02-23T21:59:14.647Z</time>
      </trkpt>
      <trkpt lat="38.79317" lon="-2.37164">
        <ele>923.708136</ele>
        <time>2022-02-23T21:59:25.735Z</time>
      </trkpt>
      <trkpt lat="38.79112" lon="-2.3732">
        <ele>921.514181</ele>
        <time>2022-02-23T22:00:16.059Z</time>
      </trkpt>
      <trkpt lat="38.79062" lon="-2.37375">
        <ele>922.435434</ele>
        <time>2022-02-23T22:00:35.853Z</time>
      </trkpt>
      <trkpt lat="38.78935" lon="-2.37546">
        <ele>924.722496</ele>
        <time>2022-02-23T22:01:45.439Z</time>
      </trkpt>
      <trkpt lat="38.78882" lon="-2.376">
        <ele>925.435575</ele>
        <time>2022-02-23T22:02:03.682Z</time>
      </trkpt>
      <trkpt lat="38.78814" lon="-2.37646">
        <ele>924.652096</ele>
        <time>2022-02-23T22:02:19.784Z</time>
      </trkpt>
      <trkpt lat="38.78597" lon="-2.37752">
        <ele>922.886459</ele>
        <time>2022-02-23T22:03:07.184Z</time>
      </trkpt>
      <trkpt lat="38.78532" lon="-2.378">
        <ele>923.388516</ele>
        <time>2022-02-23T22:03:40.278Z</time>
      </trkpt>
      <trkpt lat="38.78495" lon="-2.37843">
        <ele>926.243773</ele>
        <time>2022-02-23T22:04:08.160Z</time>
      </trkpt>
      <trkpt lat="38.78483" lon="-2.3786">
        <ele>927.256403</ele>
        <time>2022-02-23T22:04:18.378Z</time>
      </trkpt>
      <trkpt lat="38.78443" lon="-2.37925">
        <ele>930.901678</ele>
        <time>2022-02-23T22:04:56.694Z</time>
      </trkpt>
      <trkpt lat="38.78422" lon="-2.37974">
        <ele>933.394884</ele>
        <time>2022-02-23T22:05:21.603Z</time>
      </trkpt>
      <trkpt lat="38.783" lon="-2.38268">
        <ele>939.553944</ele>
        <time>2022-02-23T22:06:50.773Z</time>
      </trkpt>
      <trkpt lat="38.78155" lon="-2.38655">
        <ele>942.331114</ele>
        <time>2022-02-23T22:08:21.695Z</time>
      </trkpt>
      <trkpt lat="38.78127" lon="-2.38711">
        <ele>942.358339</ele>
        <time>2022-02-23T22:08:31.989Z</time>
      </trkpt>
      <trkpt lat="38.78049" lon="-2.3881">
        <ele>942.669606</ele>
        <time>2022-02-23T22:09:01.491Z</time>
      </trkpt>
      <trkpt lat="38.77985" lon="-2.38864">
        <ele>943.288864</ele>
        <time>2022-02-23T22:09:23.543Z</time>
      </trkpt>
      <trkpt lat="38.77942" lon="-2.38892">
        <ele>943.678418</ele>
        <time>2022-02-23T22:09:38.570Z</time>
      </trkpt>
      <trkpt lat="38.77872" lon="-2.3893">
        <ele>942.815461</ele>
        <time>2022-02-23T22:10:00.158Z</time>
      </trkpt>
      <trkpt lat="38.7766" lon="-2.3904">
        <ele>937.731344</ele>
        <time>2022-02-23T22:10:44.113Z</time>
      </trkpt>
      <trkpt lat="38.77609" lon="-2.39072">
        <ele>936.228345</ele>
        <time>2022-02-23T22:10:55.748Z</time>
      </trkpt>
      <trkpt lat="38.77573" lon="-2.39102">
        <ele>935.894046</ele>
        <time>2022-02-23T22:11:04.897Z</time>
      </trkpt>
      <trkpt lat="38.77523" lon="-2.39164">
        <ele>936.396868</ele>
        <time>2022-02-23T22:11:22.248Z</time>
      </trkpt>
      <trkpt lat="38.77498" lon="-2.39204">
        <ele>936.680577</ele>
        <time>2022-02-23T22:11:34.689Z</time>
      </trkpt>
      <trkpt lat="38.77475" lon="-2.39254">
        <ele>937.006015</ele>
        <time>2022-02-23T22:11:51.120Z</time>
      </trkpt>
      <trkpt lat="38.7745" lon="-2.39328">
        <ele>939.202237</ele>
        <time>2022-02-23T22:12:16.388Z</time>
      </trkpt>
      <trkpt lat="38.77435" lon="-2.39414">
        <ele>941.638627</ele>
        <time>2022-02-23T22:12:47.088Z</time>
      </trkpt>
      <trkpt lat="38.77426" lon="-2.39633">
        <ele>947.158317</ele>
        <time>2022-02-23T22:14:03.831Z</time>
      </trkpt>
      <trkpt lat="38.77412" lon="-2.39738">
        <ele>948.963249</ele>
        <time>2022-02-23T22:14:31.333Z</time>
      </trkpt>
      <trkpt lat="38.77274" lon="-2.40181">
        <ele>948.563353</ele>
        <time>2022-02-23T22:15:58.520Z</time>
      </trkpt>
      <trkpt lat="38.77252" lon="-2.40303">
        <ele>949.49914</ele>
        <time>2022-02-23T22:16:28.218Z</time>
      </trkpt>
      <trkpt lat="38.77102" lon="-2.41485">
        <ele>965.463296</ele>
        <time>2022-02-23T22:21:41.851Z</time>
      </trkpt>
      <trkpt lat="38.77097" lon="-2.41597">
        <ele>966.570034</ele>
        <time>2022-02-23T22:22:08.664Z</time>
      </trkpt>
      <trkpt lat="38.77101" lon="-2.41906">
        <ele>968.897033</ele>
        <time>2022-02-23T22:23:21.124Z</time>
      </trkpt>
      <trkpt lat="38.77106" lon="-2.42287">
        <ele>968.596961</ele>
        <time>2022-02-23T22:24:34.681Z</time>
      </trkpt>
      <trkpt lat="38.7711" lon="-2.42568">
        <ele>968.251007</ele>
        <time>2022-02-23T22:25:21.318Z</time>
      </trkpt>
      <trkpt lat="38.77116" lon="-2.42779">
        <ele>972.615116</ele>
        <time>2022-02-23T22:26:35.921Z</time>
      </trkpt>
      <trkpt lat="38.77129" lon="-2.42854">
        <ele>975.038875</ele>
        <time>2022-02-23T22:27:04.981Z</time>
      </trkpt>
      <trkpt lat="38.7715" lon="-2.42921">
        <ele>976.830359</ele>
        <time>2022-02-23T22:27:28.470Z</time>
      </trkpt>
      <trkpt lat="38.77165" lon="-2.42962">
        <ele>977.769883</ele>
        <time>2022-02-23T22:27:41.525Z</time>
      </trkpt>
      <trkpt lat="38.77201" lon="-2.43031">
        <ele>979.489121</ele>
        <time>2022-02-23T22:28:03.802Z</time>
      </trkpt>
      <trkpt lat="38.77406" lon="-2.43356">
        <ele>987.279484</ele>
        <time>2022-02-23T22:30:06.524Z</time>
      </trkpt>
      <trkpt lat="38.77453" lon="-2.43453">
        <ele>988.927605</ele>
        <time>2022-02-23T22:30:34.530Z</time>
      </trkpt>
      <trkpt lat="38.77482" lon="-2.43547">
        <ele>989.643694</ele>
        <time>2022-02-23T22:30:56.606Z</time>
      </trkpt>
      <trkpt lat="38.77494" lon="-2.43612">
        <ele>990.116891</ele>
        <time>2022-02-23T22:31:11.270Z</time>
      </trkpt>
      <trkpt lat="38.77501" lon="-2.43681">
        <ele>990.694351</ele>
        <time>2022-02-23T22:31:27.345Z</time>
      </trkpt>
      <trkpt lat="38.77497" lon="-2.43789">
        <ele>991.969646</ele>
        <time>2022-02-23T22:31:54.363Z</time>
      </trkpt>
      <trkpt lat="38.77489" lon="-2.43845">
        <ele>992.644889</ele>
        <time>2022-02-23T22:32:09.426Z</time>
      </trkpt>
      <trkpt lat="38.7747" lon="-2.4392">
        <ele>993.449284</ele>
        <time>2022-02-23T22:32:30.087Z</time>
      </trkpt>
      <trkpt lat="38.77429" lon="-2.44024">
        <ele>994.373741</ele>
        <time>2022-02-23T22:32:58.877Z</time>
      </trkpt>
      <trkpt lat="38.76955" lon="-2.44871">
        <ele>996.826126</ele>
        <time>2022-02-23T22:36:28.413Z</time>
      </trkpt>
      <trkpt lat="38.76895" lon="-2.44988">
        <ele>997.376079</ele>
        <time>2022-02-23T22:36:59.046Z</time>
      </trkpt>
      <trkpt lat="38.76771" lon="-2.45273">
        <ele>998.783297</ele>
        <time>2022-02-23T22:38:07.909Z</time>
      </trkpt>
      <trkpt lat="38.76515" lon="-2.45867">
        <ele>1003.486448</ele>
        <time>2022-02-23T22:40:43.672Z</time>
      </trkpt>
      <trkpt lat="38.76452" lon="-2.45981">
        <ele>1004.209999</ele>
        <time>2022-02-23T22:41:13.252Z</time>
      </trkpt>
      <trkpt lat="38.76236" lon="-2.46267">
        <ele>1007.19632</ele>
        <time>2022-02-23T22:42:40.774Z</time>
      </trkpt>
      <trkpt lat="38.76025" lon="-2.46545">
        <ele>1014.554156</ele>
        <time>2022-02-23T22:44:36.078Z</time>
      </trkpt>
      <trkpt lat="38.75955" lon="-2.46632">
        <ele>1017.431889</ele>
        <time>2022-02-23T22:45:16.519Z</time>
      </trkpt>
      <trkpt lat="38.75915" lon="-2.46674">
        <ele>1018.966891</ele>
        <time>2022-02-23T22:45:37.065Z</time>
      </trkpt>
      <trkpt lat="38.75819" lon="-2.46753">
        <ele>1020.858024</ele>
        <time>2022-02-23T22:46:16.703Z</time>
      </trkpt>
      <trkpt lat="38.75315" lon="-2.4704">
        <ele>1026.295292</ele>
        <time>2022-02-23T22:48:52.709Z</time>
      </trkpt>
      <trkpt lat="38.75215" lon="-2.47097">
        <ele>1028.91801</ele>
        <time>2022-02-23T22:49:34.166Z</time>
      </trkpt>
      <trkpt lat="38.74997" lon="-2.47216">
        <ele>1036.727737</ele>
        <time>2022-02-23T22:51:19.917Z</time>
      </trkpt>
      <trkpt lat="38.74923" lon="-2.47235">
        <ele>1038.920453</ele>
        <time>2022-02-23T22:51:46.184Z</time>
      </trkpt>
      <trkpt lat="38.74846" lon="-2.47232">
        <ele>1039.213697</ele>
        <time>2022-02-23T22:52:07.213Z</time>
      </trkpt>
      <trkpt lat="38.74773" lon="-2.4721">
        <ele>1039.501354</ele>
        <time>2022-02-23T22:52:25.359Z</time>
      </trkpt>
      <trkpt lat="38.74693" lon="-2.47161">
        <ele>1040.097184</ele>
        <time>2022-02-23T22:52:47.789Z</time>
      </trkpt>
      <trkpt lat="38.74514" lon="-2.46992">
        <ele>1041.858538</ele>
        <time>2022-02-23T22:53:55.791Z</time>
      </trkpt>
      <trkpt lat="38.74459" lon="-2.46942">
        <ele>1042.399099</ele>
        <time>2022-02-23T22:54:14.154Z</time>
      </trkpt>
      <trkpt lat="38.7444" lon="-2.46937">
        <ele>1042.433079</ele>
        <time>2022-02-23T22:54:18.800Z</time>
      </trkpt>
      <trkpt lat="38.74404" lon="-2.46947">
        <ele>1042.409805</ele>
        <time>2022-02-23T22:54:27.821Z</time>
      </trkpt>
      <trkpt lat="38.74301" lon="-2.469">
        <ele>1042.340016</ele>
        <time>2022-02-23T22:54:53.707Z</time>
      </trkpt>
      <trkpt lat="38.73796" lon="-2.46808">
        <ele>1045.251854</ele>
        <time>2022-02-23T22:57:13.409Z</time>
      </trkpt>
      <trkpt lat="38.73781" lon="-2.468">
        <ele>1045.389677</ele>
        <time>2022-02-23T22:57:18.595Z</time>
      </trkpt>
      <trkpt lat="38.7378" lon="-2.46787">
        <ele>1045.474534</ele>
        <time>2022-02-23T22:57:21.982Z</time>
      </trkpt>
      <trkpt lat="38.73782" lon="-2.4677">
        <ele>1045.596091</ele>
        <time>2022-02-23T22:57:26.608Z</time>
      </trkpt>
      <trkpt lat="38.73779" lon="-2.46738">
        <ele>1045.782607</ele>
        <time>2022-02-23T22:57:35.314Z</time>
      </trkpt>
      <trkpt lat="38.73765" lon="-2.4672">
        <ele>1045.919015</ele>
        <time>2022-02-23T22:57:42.143Z</time>
      </trkpt>
      <trkpt lat="38.73627" lon="-2.46645">
        <ele>1046.829274</ele>
        <time>2022-02-23T22:58:23.869Z</time>
      </trkpt>
      <trkpt lat="38.73596" lon="-2.46654">
        <ele>1046.399459</ele>
        <time>2022-02-23T22:58:30.749Z</time>
      </trkpt>
      <trkpt lat="38.73531" lon="-2.46694">
        <ele>1045.404947</ele>
        <time>2022-02-23T22:58:46.076Z</time>
      </trkpt>
      <trkpt lat="38.73486" lon="-2.46708">
        <ele>1044.765435</ele>
        <time>2022-02-23T22:58:55.620Z</time>
      </trkpt>
      <trkpt lat="38.73402" lon="-2.46694">
        <ele>1043.053978</ele>
        <time>2022-02-23T22:59:13.268Z</time>
      </trkpt>
      <trkpt lat="38.73335" lon="-2.46661">
        <ele>1041.407244</ele>
        <time>2022-02-23T22:59:27.871Z</time>
      </trkpt>
      <trkpt lat="38.73285" lon="-2.4666">
        <ele>1040.21433</ele>
        <time>2022-02-23T22:59:37.951Z</time>
      </trkpt>
      <trkpt lat="38.73252" lon="-2.46687">
        <ele>1038.750382</ele>
        <time>2022-02-23T22:59:45.438Z</time>
      </trkpt>
      <trkpt lat="38.73236" lon="-2.46714">
        <ele>1037.734345</ele>
        <time>2022-02-23T22:59:50.575Z</time>
      </trkpt>
      <trkpt lat="38.7323" lon="-2.46734">
        <ele>1037.088545</ele>
        <time>2022-02-23T22:59:53.894Z</time>
      </trkpt>
      <trkpt lat="38.73213" lon="-2.46787">
        <ele>1035.409643</ele>
        <time>2022-02-23T23:00:02.390Z</time>
      </trkpt>
      <trkpt lat="38.73181" lon="-2.46815">
        <ele>1033.945279</ele>
        <time>2022-02-23T23:00:09.477Z</time>
      </trkpt>
      <trkpt lat="38.73131" lon="-2.46872">
        <ele>1030.799198</ele>
        <time>2022-02-23T23:00:21.169Z</time>
      </trkpt>
      <trkpt lat="38.731" lon="-2.46924">
        <ele>1028.313282</ele>
        <time>2022-02-23T23:00:30.106Z</time>
      </trkpt>
      <trkpt lat="38.73064" lon="-2.47001">
        <ele>1024.843542</ele>
        <time>2022-02-23T23:00:42.772Z</time>
      </trkpt>
      <trkpt lat="38.72895" lon="-2.47403">
        <ele>1016.089168</ele>
        <time>2022-02-23T23:01:53.232Z</time>
      </trkpt>
      <trkpt lat="38.72802" lon="-2.4761">
        <ele>1020.752349</ele>
        <time>2022-02-23T23:03:12.358Z</time>
      </trkpt>
      <trkpt lat="38.7276" lon="-2.47668">
        <ele>1020.631972</ele>
        <time>2022-02-23T23:03:34.517Z</time>
      </trkpt>
      <trkpt lat="38.72701" lon="-2.47724">
        <ele>1020.449504</ele>
        <time>2022-02-23T23:03:50.894Z</time>
      </trkpt>
      <trkpt lat="38.72655" lon="-2.47752">
        <ele>1020.076153</ele>
        <time>2022-02-23T23:04:00.913Z</time>
      </trkpt>
      <trkpt lat="38.72336" lon="-2.47915">
        <ele>1005.140314</ele>
        <time>2022-02-23T23:05:02.192Z</time>
      </trkpt>
      <trkpt lat="38.72276" lon="-2.47959">
        <ele>1005.875855</ele>
        <time>2022-02-23T23:05:28.749Z</time>
      </trkpt>
      <trkpt lat="38.72248" lon="-2.47992">
        <ele>1006.651886</ele>
        <time>2022-02-23T23:05:45.206Z</time>
      </trkpt>
      <trkpt lat="38.72219" lon="-2.48031">
        <ele>1007.500668</ele>
        <time>2022-02-23T23:06:04.191Z</time>
      </trkpt>
      <trkpt lat="38.72202" lon="-2.48065">
        <ele>1008.143905</ele>
        <time>2022-02-23T23:06:19.447Z</time>
      </trkpt>
      <trkpt lat="38.71919" lon="-2.48825">
        <ele>999.638897</ele>
        <time>2022-02-23T23:08:31.770Z</time>
      </trkpt>
      <trkpt lat="38.71884" lon="-2.48903">
        <ele>998.065751</ele>
        <time>2022-02-23T23:08:44.978Z</time>
      </trkpt>
      <trkpt lat="38.71848" lon="-2.48968">
        <ele>996.945686</ele>
        <time>2022-02-23T23:08:56.988Z</time>
      </trkpt>
      <trkpt lat="38.71794" lon="-2.4904">
        <ele>995.565268</ele>
        <time>2022-02-23T23:09:13.201Z</time>
      </trkpt>
      <trkpt lat="38.71729" lon="-2.49106">
        <ele>994.791443</ele>
        <time>2022-02-23T23:09:35.273Z</time>
      </trkpt>
      <trkpt lat="38.71639" lon="-2.4917">
        <ele>994.72432</ele>
        <time>2022-02-23T23:10:04.875Z</time>
      </trkpt>
      <trkpt lat="38.7126" lon="-2.49406">
        <ele>987.905908</ele>
        <time>2022-02-23T23:11:26.263Z</time>
      </trkpt>
      <trkpt lat="38.7123" lon="-2.49431">
        <ele>987.678483</ele>
        <time>2022-02-23T23:11:33.572Z</time>
      </trkpt>
      <trkpt lat="38.71172" lon="-2.49497">
        <ele>987.17954</ele>
        <time>2022-02-23T23:11:50.819Z</time>
      </trkpt>
      <trkpt lat="38.71006" lon="-2.49789">
        <ele>990.000622</ele>
        <time>2022-02-23T23:13:25.727Z</time>
      </trkpt>
      <trkpt lat="38.7095" lon="-2.49861">
        <ele>990.163744</ele>
        <time>2022-02-23T23:13:45.145Z</time>
      </trkpt>
      <trkpt lat="38.70915" lon="-2.49892">
        <ele>990.188069</ele>
        <time>2022-02-23T23:13:54.384Z</time>
      </trkpt>
      <trkpt lat="38.70658" lon="-2.50083">
        <ele>984.455923</ele>
        <time>2022-02-23T23:14:56.075Z</time>
      </trkpt>
      <trkpt lat="38.70595" lon="-2.50128">
        <ele>982.856201</ele>
        <time>2022-02-23T23:15:10.753Z</time>
      </trkpt>
      <trkpt lat="38.7055" lon="-2.50152">
        <ele>981.724301</ele>
        <time>2022-02-23T23:15:19.946Z</time>
      </trkpt>
      <trkpt lat="38.70507" lon="-2.5017">
        <ele>980.668145</ele>
        <time>2022-02-23T23:15:27.830Z</time>
      </trkpt>
      <trkpt lat="38.70428" lon="-2.50177">
        <ele>978.834598</ele>
        <time>2022-02-23T23:15:45.497Z</time>
      </trkpt>
      <trkpt lat="38.70357" lon="-2.50168">
        <ele>977.396046</ele>
        <time>2022-02-23T23:16:00.085Z</time>
      </trkpt>
      <trkpt lat="38.7029" lon="-2.50142">
        <ele>975.993087</ele>
        <time>2022-02-23T23:16:14.508Z</time>
      </trkpt>
      <trkpt lat="38.70209" lon="-2.50081">
        <ele>970.967777</ele>
        <time>2022-02-23T23:16:31.844Z</time>
      </trkpt>
      <trkpt lat="38.70167" lon="-2.50028">
        <ele>966.684339</ele>
        <time>2022-02-23T23:16:41.074Z</time>
      </trkpt>
      <trkpt lat="38.70137" lon="-2.49977">
        <ele>963.110159</ele>
        <time>2022-02-23T23:16:48.256Z</time>
      </trkpt>
      <trkpt lat="38.70092" lon="-2.49871">
        <ele>955.001645</ele>
        <time>2022-02-23T23:17:02.270Z</time>
      </trkpt>
      <trkpt lat="38.70083" lon="-2.49834">
        <ele>952.379657</ele>
        <time>2022-02-23T23:17:06.839Z</time>
      </trkpt>
      <trkpt lat="38.70032" lon="-2.49863">
        <ele>947.490708</ele>
        <time>2022-02-23T23:17:22.049Z</time>
      </trkpt>
      <trkpt lat="38.69975" lon="-2.49874">
        <ele>942.951075</ele>
        <time>2022-02-23T23:17:37.951Z</time>
      </trkpt>
      <trkpt lat="38.69957" lon="-2.49888">
        <ele>941.394065</ele>
        <time>2022-02-23T23:17:43.528Z</time>
      </trkpt>
      <trkpt lat="38.69939" lon="-2.49941">
        <ele>937.966883</ele>
        <time>2022-02-23T23:17:56.081Z</time>
      </trkpt>
      <trkpt lat="38.6982" lon="-2.50064">
        <ele>924.666513</ele>
        <time>2022-02-23T23:18:36.290Z</time>
      </trkpt>
      <trkpt lat="38.69816" lon="-2.50087">
        <ele>922.920034</ele>
        <time>2022-02-23T23:18:40.931Z</time>
      </trkpt>
      <trkpt lat="38.69821" lon="-2.50117">
        <ele>920.628581</ele>
        <time>2022-02-23T23:18:47.196Z</time>
      </trkpt>
      <trkpt lat="38.6981" lon="-2.50128">
        <ele>919.294541</ele>
        <time>2022-02-23T23:18:50.715Z</time>
      </trkpt>
      <trkpt lat="38.69767" lon="-2.50149">
        <ele>915.156316</ele>
        <time>2022-02-23T23:19:02.570Z</time>
      </trkpt>
      <trkpt lat="38.69707" lon="-2.5019">
        <ele>910.069829</ele>
        <time>2022-02-23T23:19:20.358Z</time>
      </trkpt>
      <trkpt lat="38.69685" lon="-2.50185">
        <ele>908.365456</ele>
        <time>2022-02-23T23:19:26.498Z</time>
      </trkpt>
      <trkpt lat="38.69655" lon="-2.50141">
        <ele>904.918484</ele>
        <time>2022-02-23T23:19:39.100Z</time>
      </trkpt>
      <trkpt lat="38.69618" lon="-2.50128">
        <ele>902.245704</ele>
        <time>2022-02-23T23:19:49.749Z</time>
      </trkpt>
      <trkpt lat="38.6955" lon="-2.5012">
        <ele>899.715745</ele>
        <time>2022-02-23T23:20:09.502Z</time>
      </trkpt>
      <trkpt lat="38.69523" lon="-2.5013">
        <ele>898.684665</ele>
        <time>2022-02-23T23:20:17.981Z</time>
      </trkpt>
      <trkpt lat="38.69429" lon="-2.50198">
        <ele>895.415663</ele>
        <time>2022-02-23T23:20:52.548Z</time>
      </trkpt>
      <trkpt lat="38.69382" lon="-2.50239">
        <ele>894.745407</ele>
        <time>2022-02-23T23:21:12.095Z</time>
      </trkpt>
      <trkpt lat="38.69336" lon="-2.50327">
        <ele>893.767693</ele>
        <time>2022-02-23T23:21:41.186Z</time>
      </trkpt>
      <trkpt lat="38.69304" lon="-2.50323">
        <ele>893.307806</ele>
        <time>2022-02-23T23:21:52.601Z</time>
      </trkpt>
      <trkpt lat="38.69279" lon="-2.5033">
        <ele>892.917586</ele>
        <time>2022-02-23T23:22:01.354Z</time>
      </trkpt>
      <trkpt lat="38.69263" lon="-2.50327">
        <ele>892.678836</ele>
        <time>2022-02-23T23:22:06.641Z</time>
      </trkpt>
      <trkpt lat="38.69235" lon="-2.50335">
        <ele>892.234744</ele>
        <time>2022-02-23T23:22:16.353Z</time>
      </trkpt>
      <trkpt lat="38.69216" lon="-2.50351">
        <ele>891.883533</ele>
        <time>2022-02-23T23:22:24.034Z</time>
      </trkpt>
      <trkpt lat="38.69198" lon="-2.50385">
        <ele>891.398019</ele>
        <time>2022-02-23T23:22:34.625Z</time>
      </trkpt>
      <trkpt lat="38.69195" lon="-2.50392">
        <ele>891.301519</ele>
        <time>2022-02-23T23:22:35.865Z</time>
      </trkpt>
      <trkpt lat="38.69169" lon="-2.50383">
        <ele>890.90036</ele>
        <time>2022-02-23T23:22:40.964Z</time>
      </trkpt>
      <trkpt lat="38.69154" lon="-2.50402">
        <ele>890.148026</ele>
        <time>2022-02-23T23:22:44.981Z</time>
      </trkpt>
      <trkpt lat="38.69124" lon="-2.50386">
        <ele>888.977059</ele>
        <time>2022-02-23T23:22:50.813Z</time>
      </trkpt>
      <trkpt lat="38.69123" lon="-2.50391">
        <ele>888.836856</ele>
        <time>2022-02-23T23:22:51.510Z</time>
      </trkpt>
      <trkpt lat="38.69078" lon="-2.50532">
        <ele>884.550411</ele>
        <time>2022-02-23T23:23:11.988Z</time>
      </trkpt>
      <trkpt lat="38.69059" lon="-2.50512">
        <ele>883.608299</ele>
        <time>2022-02-23T23:23:15.910Z</time>
      </trkpt>
      <trkpt lat="38.6897" lon="-2.50664">
        <ele>877.802322</ele>
        <time>2022-02-23T23:24:00.307Z</time>
      </trkpt>
      <trkpt lat="38.6895" lon="-2.50675">
        <ele>877.115285</ele>
        <time>2022-02-23T23:24:07.069Z</time>
      </trkpt>
      <trkpt lat="38.68904" lon="-2.50656">
        <ele>875.926008</ele>
        <time>2022-02-23T23:24:22.018Z</time>
      </trkpt>
      <trkpt lat="38.68889" lon="-2.5066">
        <ele>875.543088</ele>
        <time>2022-02-23T23:24:26.915Z</time>
      </trkpt>
      <trkpt lat="38.68866" lon="-2.50707">
        <ele>874.454465</ele>
        <time>2022-02-23T23:24:40.904Z</time>
      </trkpt>
      <trkpt lat="38.68853" lon="-2.50752">
        <ele>873.516103</ele>
        <time>2022-02-23T23:24:53.146Z</time>
      </trkpt>
      <trkpt lat="38.68834" lon="-2.50793">
        <ele>872.642388</ele>
        <time>2022-02-23T23:25:05.235Z</time>
      </trkpt>
      <trkpt lat="38.68827" lon="-2.5083">
        <ele>872.006878</ele>
        <time>2022-02-23T23:25:14.800Z</time>
      </trkpt>
      <trkpt lat="38.68789" lon="-2.50913">
        <ele>870.360256</ele>
        <time>2022-02-23T23:25:39.303Z</time>
      </trkpt>
      <trkpt lat="38.6876" lon="-2.50953">
        <ele>869.448567</ele>
        <time>2022-02-23T23:25:52.674Z</time>
      </trkpt>
      <trkpt lat="38.68668" lon="-2.51036">
        <ele>866.801647</ele>
        <time>2022-02-23T23:26:28.714Z</time>
      </trkpt>
      <trkpt lat="38.68623" lon="-2.51113">
        <ele>865.017423</ele>
        <time>2022-02-23T23:26:52.521Z</time>
      </trkpt>
      <trkpt lat="38.6861" lon="-2.51151">
        <ele>864.307981</ele>
        <time>2022-02-23T23:27:03.040Z</time>
      </trkpt>
      <trkpt lat="38.68605" lon="-2.5119">
        <ele>863.691432</ele>
        <time>2022-02-23T23:27:12.851Z</time>
      </trkpt>
      <trkpt lat="38.68588" lon="-2.5122">
        <ele>863.111133</ele>
        <time>2022-02-23T23:27:22.163Z</time>
      </trkpt>
      <trkpt lat="38.68563" lon="-2.5125">
        <ele>862.417473</ele>
        <time>2022-02-23T23:27:33.352Z</time>
      </trkpt>
      <trkpt lat="38.68548" lon="-2.51282">
        <ele>861.825883</ele>
        <time>2022-02-23T23:27:42.951Z</time>
      </trkpt>
      <trkpt lat="38.68526" lon="-2.51315">
        <ele>861.154603</ele>
        <time>2022-02-23T23:27:53.925Z</time>
      </trkpt>
      <trkpt lat="38.6851" lon="-2.51358">
        <ele>860.723575</ele>
        <time>2022-02-23T23:28:06.588Z</time>
      </trkpt>
      <trkpt lat="38.68506" lon="-2.51382">
        <ele>860.527111</ele>
        <time>2022-02-23T23:28:12.782Z</time>
      </trkpt>
      <trkpt lat="38.68551" lon="-2.51483">
        <ele>859.555719</ele>
        <time>2022-02-23T23:28:43.932Z</time>
      </trkpt>
      <trkpt lat="38.68406" lon="-2.51407">
        <ele>859.62941</ele>
        <time>2022-02-23T23:29:40.802Z</time>
      </trkpt>
      <trkpt lat="38.68274" lon="-2.51362">
        <ele>861.662864</ele>
        <time>2022-02-23T23:30:42.952Z</time>
      </trkpt>
      <trkpt lat="38.68151" lon="-2.51227">
        <ele>865.743653</ele>
        <time>2022-02-23T23:32:06.739Z</time>
      </trkpt>
      <trkpt lat="38.68068" lon="-2.51163">
        <ele>868.434248</ele>
        <time>2022-02-23T23:32:56.524Z</time>
      </trkpt>
      <trkpt lat="38.68018" lon="-2.51116">
        <ele>869.917608</ele>
        <time>2022-02-23T23:33:27.214Z</time>
      </trkpt>
      <trkpt lat="38.67918" lon="-2.51062">
        <ele>872.250363</ele>
        <time>2022-02-23T23:34:19.308Z</time>
      </trkpt>
      <trkpt lat="38.67888" lon="-2.51015">
        <ele>872.985799</ele>
        <time>2022-02-23T23:34:41.162Z</time>
      </trkpt>
      <trkpt lat="38.67839" lon="-2.50972">
        <ele>873.203744</ele>
        <time>2022-02-23T23:35:06.666Z</time>
      </trkpt>
      <trkpt lat="38.67816" lon="-2.5097">
        <ele>873.290363</ele>
        <time>2022-02-23T23:35:16.320Z</time>
      </trkpt>
      <trkpt lat="38.6771" lon="-2.5094">
        <ele>873.006582</ele>
        <time>2022-02-23T23:35:54.559Z</time>
      </trkpt>
      <trkpt lat="38.67684" lon="-2.50982">
        <ele>872.089093</ele>
        <time>2022-02-23T23:36:08.385Z</time>
      </trkpt>
      <trkpt lat="38.67643" lon="-2.50968">
        <ele>871.173886</ele>
        <time>2022-02-23T23:36:15.856Z</time>
      </trkpt>
      <trkpt lat="38.67639" lon="-2.50967">
        <ele>871.086719</ele>
        <time>2022-02-23T23:36:16.537Z</time>
      </trkpt>
      <trkpt lat="38.67428" lon="-2.50909">
        <ele>865.486414</ele>
        <time>2022-02-23T23:36:53.612Z</time>
      </trkpt>
      <trkpt lat="38.67417" lon="-2.50908">
        <ele>865.177853</ele>
        <time>2022-02-23T23:36:55.671Z</time>
      </trkpt>
      <trkpt lat="38.67392" lon="-2.5092">
        <ele>864.552454</ele>
        <time>2022-02-23T23:37:00.590Z</time>
      </trkpt>
      <trkpt lat="38.67351" lon="-2.51069">
        <ele>862.825818</ele>
        <time>2022-02-23T23:37:24.327Z</time>
      </trkpt>
      <trkpt lat="38.67333" lon="-2.51114">
        <ele>862.264706</ele>
        <time>2022-02-23T23:37:32.273Z</time>
      </trkpt>
      <trkpt lat="38.67318" lon="-2.51146">
        <ele>861.899415</ele>
        <time>2022-02-23T23:37:37.968Z</time>
      </trkpt>
      <trkpt lat="38.67243" lon="-2.51257">
        <ele>860.500717</ele>
        <time>2022-02-23T23:38:00.492Z</time>
      </trkpt>
      <trkpt lat="38.6721" lon="-2.51315">
        <ele>859.804945</ele>
        <time>2022-02-23T23:38:11.224Z</time>
      </trkpt>
      <trkpt lat="38.66817" lon="-2.52123">
        <ele>849.790626</ele>
        <time>2022-02-23T23:40:34.070Z</time>
      </trkpt>
      <trkpt lat="38.66517" lon="-2.52753">
        <ele>844.482074</ele>
        <time>2022-02-23T23:42:29.827Z</time>
      </trkpt>
      <trkpt lat="38.66502" lon="-2.52819">
        <ele>843.991397</ele>
        <time>2022-02-23T23:42:40.765Z</time>
      </trkpt>
      <trkpt lat="38.66493" lon="-2.52888">
        <ele>843.487912</ele>
        <time>2022-02-23T23:42:51.867Z</time>
      </trkpt>
      <trkpt lat="38.66431" lon="-2.5358">
        <ele>836.156226</ele>
        <time>2022-02-23T23:44:36.396Z</time>
      </trkpt>
      <trkpt lat="38.6643" lon="-2.53669">
        <ele>835.335951</ele>
        <time>2022-02-23T23:44:50.000Z</time>
      </trkpt>
      <trkpt lat="38.66433" lon="-2.53738">
        <ele>834.703408</ele>
        <time>2022-02-23T23:45:00.599Z</time>
      </trkpt>
      <trkpt lat="38.66448" lon="-2.54298">
        <ele>829.314231</ele>
        <time>2022-02-23T23:46:26.180Z</time>
      </trkpt>
      <trkpt lat="38.66449" lon="-2.54563">
        <ele>825.752411</ele>
        <time>2022-02-23T23:47:03.908Z</time>
      </trkpt>
      <trkpt lat="38.66429" lon="-2.54645">
        <ele>824.893256</ele>
        <time>2022-02-23T23:47:17.007Z</time>
      </trkpt>
      <trkpt lat="38.66357" lon="-2.54755">
        <ele>824.234672</ele>
        <time>2022-02-23T23:47:40.298Z</time>
      </trkpt>
      <trkpt lat="38.66312" lon="-2.54817">
        <ele>824.366705</ele>
        <time>2022-02-23T23:47:55.860Z</time>
      </trkpt>
      <trkpt lat="38.66196" lon="-2.54973">
        <ele>825.601137</ele>
        <time>2022-02-23T23:48:39.912Z</time>
      </trkpt>
      <trkpt lat="38.66024" lon="-2.55163">
        <ele>828.465123</ele>
        <time>2022-02-23T23:49:46.739Z</time>
      </trkpt>
      <trkpt lat="38.66021" lon="-2.55165">
        <ele>828.510615</ele>
        <time>2022-02-23T23:49:47.750Z</time>
      </trkpt>
      <trkpt lat="38.65876" lon="-2.55328">
        <ele>830.274028</ele>
        <time>2022-02-23T23:50:41.106Z</time>
      </trkpt>
      <trkpt lat="38.65745" lon="-2.55561">
        <ele>829.264952</ele>
        <time>2022-02-23T23:51:27.748Z</time>
      </trkpt>
      <trkpt lat="38.6569" lon="-2.55662">
        <ele>828.276874</ele>
        <time>2022-02-23T23:51:46.476Z</time>
      </trkpt>
      <trkpt lat="38.65673" lon="-2.55685">
        <ele>828.019269</ele>
        <time>2022-02-23T23:51:51.331Z</time>
      </trkpt>
      <trkpt lat="38.65441" lon="-2.55942">
        <ele>825.119627</ele>
        <time>2022-02-23T23:52:51.933Z</time>
      </trkpt>
      <trkpt lat="38.65401" lon="-2.5598">
        <ele>824.755038</ele>
        <time>2022-02-23T23:53:02.451Z</time>
      </trkpt>
      <trkpt lat="38.64758" lon="-2.56461">
        <ele>822.283746</ele>
        <time>2022-02-23T23:55:43.033Z</time>
      </trkpt>
      <trkpt lat="38.64721" lon="-2.56491">
        <ele>821.580222</ele>
        <time>2022-02-23T23:55:50.850Z</time>
      </trkpt>
      <trkpt lat="38.64679" lon="-2.56522">
        <ele>820.765216</ele>
        <time>2022-02-23T23:55:59.620Z</time>
      </trkpt>
      <trkpt lat="38.64636" lon="-2.56554">
        <ele>819.930463</ele>
        <time>2022-02-23T23:56:08.776Z</time>
      </trkpt>
      <trkpt lat="38.646" lon="-2.56573">
        <ele>819.282704</ele>
        <time>2022-02-23T23:56:15.921Z</time>
      </trkpt>
      <trkpt lat="38.64596" lon="-2.56575">
        <ele>819.266451</ele>
        <time>2022-02-23T23:56:16.835Z</time>
      </trkpt>
      <trkpt lat="38.64586" lon="-2.56577">
        <ele>819.29507</ele>
        <time>2022-02-23T23:56:18.705Z</time>
      </trkpt>
      <trkpt lat="38.64578" lon="-2.5658">
        <ele>819.320939</ele>
        <time>2022-02-23T23:56:20.452Z</time>
      </trkpt>
      <trkpt lat="38.64561" lon="-2.56584">
        <ele>819.37263</ele>
        <time>2022-02-23T23:56:24.114Z</time>
      </trkpt>
      <trkpt lat="38.6448" lon="-2.56596">
        <ele>819.618579</ele>
        <time>2022-02-23T23:56:44.608Z</time>
      </trkpt>
      <trkpt lat="38.64463" lon="-2.56597">
        <ele>819.671033</ele>
        <time>2022-02-23T23:56:49.456Z</time>
      </trkpt>
      <trkpt lat="38.63845" lon="-2.56662">
        <ele>825.988616</ele>
        <time>2022-02-23T23:59:43.068Z</time>
      </trkpt>
      <trkpt lat="38.62906" lon="-2.56721">
        <ele>828.487091</ele>
        <time>2022-02-24T00:03:21.113Z</time>
      </trkpt>
      <trkpt lat="38.62853" lon="-2.56724">
        <ele>828.779861</ele>
        <time>2022-02-24T00:03:35.095Z</time>
      </trkpt>
      <trkpt lat="38.62677" lon="-2.56737">
        <ele>829.486878</ele>
        <time>2022-02-24T00:04:20.708Z</time>
      </trkpt>
      <trkpt lat="38.62651" lon="-2.56737">
        <ele>829.578236</ele>
        <time>2022-02-24T00:04:26.400Z</time>
      </trkpt>
      <trkpt lat="38.62649" lon="-2.56737">
        <ele>829.585161</ele>
        <time>2022-02-24T00:04:26.866Z</time>
      </trkpt>
      <trkpt lat="38.62647" lon="-2.56737">
        <ele>829.590378</ele>
        <time>2022-02-24T00:04:27.167Z</time>
      </trkpt>
      <trkpt lat="38.6264" lon="-2.56737">
        <ele>829.61737</ele>
        <time>2022-02-24T00:04:28.797Z</time>
      </trkpt>
      <trkpt lat="38.62613" lon="-2.56738">
        <ele>829.498046</ele>
        <time>2022-02-24T00:04:34.379Z</time>
      </trkpt>
      <trkpt lat="38.62617" lon="-2.56782">
        <ele>829.027935</ele>
        <time>2022-02-24T00:04:46.411Z</time>
      </trkpt>
      <trkpt lat="38.6263" lon="-2.56822">
        <ele>828.567077</ele>
        <time>2022-02-24T00:04:58.048Z</time>
      </trkpt>
      <trkpt lat="38.62675" lon="-2.56891">
        <ele>827.596009</ele>
        <time>2022-02-24T00:05:21.128Z</time>
      </trkpt>
      <trkpt lat="38.62697" lon="-2.56935">
        <ele>827.205062</ele>
        <time>2022-02-24T00:05:34.121Z</time>
      </trkpt>
      <trkpt lat="38.62702" lon="-2.56966">
        <ele>827.204653</ele>
        <time>2022-02-24T00:05:42.516Z</time>
      </trkpt>
      <trkpt lat="38.62762" lon="-2.56968">
        <ele>827.203662</ele>
        <time>2022-02-24T00:06:03.470Z</time>
      </trkpt>
      <trkpt lat="38.62763" lon="-2.56995">
        <ele>827.203313</ele>
        <time>2022-02-24T00:06:11.005Z</time>
      </trkpt>
      <trkpt lat="38.62273" lon="-2.57033">
        <ele>835.31681</ele>
        <time>2022-02-24T00:08:58.122Z</time>
      </trkpt>
      <trkpt lat="38.62017" lon="-2.57044">
        <ele>834.861365</ele>
        <time>2022-02-24T00:09:53.916Z</time>
      </trkpt>
      <trkpt lat="38.61911" lon="-2.57043">
        <ele>833.280259</ele>
        <time>2022-02-24T00:10:15.320Z</time>
      </trkpt>
      <trkpt lat="38.619" lon="-2.57052">
        <ele>833.02446</ele>
        <time>2022-02-24T00:10:18.016Z</time>
      </trkpt>
      <trkpt lat="38.61884" lon="-2.57076">
        <ele>832.566321</ele>
        <time>2022-02-24T00:10:22.772Z</time>
      </trkpt>
      <trkpt lat="38.61829" lon="-2.57152">
        <ele>830.932654</ele>
        <time>2022-02-24T00:10:37.809Z</time>
      </trkpt>
      <trkpt lat="38.61751" lon="-2.57274">
        <ele>827.061876</ele>
        <time>2022-02-24T00:10:59.715Z</time>
      </trkpt>
      <trkpt lat="38.6171" lon="-2.57365">
        <ele>824.737217</ele>
        <time>2022-02-24T00:11:14.429Z</time>
      </trkpt>
      <trkpt lat="38.61661" lon="-2.57523">
        <ele>821.495788</ele>
        <time>2022-02-24T00:11:39.395Z</time>
      </trkpt>
      <trkpt lat="38.61601" lon="-2.57773">
        <ele>818.636405</ele>
        <time>2022-02-24T00:12:20.561Z</time>
      </trkpt>
      <trkpt lat="38.61589" lon="-2.5785">
        <ele>818.324972</ele>
        <time>2022-02-24T00:12:33.682Z</time>
      </trkpt>
      <trkpt lat="38.61585" lon="-2.57906">
        <ele>818.098501</ele>
        <time>2022-02-24T00:12:43.530Z</time>
      </trkpt>
      <trkpt lat="38.6159" lon="-2.57992">
        <ele>817.742664</ele>
        <time>2022-02-24T00:12:58.903Z</time>
      </trkpt>
      <trkpt lat="38.61594" lon="-2.58038">
        <ele>817.490784</ele>
        <time>2022-02-24T00:13:07.136Z</time>
      </trkpt>
      <trkpt lat="38.61628" lon="-2.58222">
        <ele>816.343651</ele>
        <time>2022-02-24T00:13:38.327Z</time>
      </trkpt>
      <trkpt lat="38.61634" lon="-2.58298">
        <ele>815.24183</ele>
        <time>2022-02-24T00:13:50.110Z</time>
      </trkpt>
      <trkpt lat="38.61633" lon="-2.58342">
        <ele>814.608045</ele>
        <time>2022-02-24T00:13:56.836Z</time>
      </trkpt>
      <trkpt lat="38.6163" lon="-2.58385">
        <ele>813.978578</ele>
        <time>2022-02-24T00:14:03.423Z</time>
      </trkpt>
      <trkpt lat="38.61627" lon="-2.58416">
        <ele>813.535679</ele>
        <time>2022-02-24T00:14:07.979Z</time>
      </trkpt>
      <trkpt lat="38.61622" lon="-2.58439">
        <ele>813.194901</ele>
        <time>2022-02-24T00:14:11.417Z</time>
      </trkpt>
      <trkpt lat="38.61619" lon="-2.58452">
        <ele>812.992433</ele>
        <time>2022-02-24T00:14:13.501Z</time>
      </trkpt>
      <trkpt lat="38.61596" lon="-2.58527">
        <ele>811.86732</ele>
        <time>2022-02-24T00:14:24.853Z</time>
      </trkpt>
      <trkpt lat="38.61567" lon="-2.58583">
        <ele>810.9301</ele>
        <time>2022-02-24T00:14:35.028Z</time>
      </trkpt>
      <trkpt lat="38.61525" lon="-2.58644">
        <ele>810.050883</ele>
        <time>2022-02-24T00:14:48.423Z</time>
      </trkpt>
      <trkpt lat="38.61501" lon="-2.58674">
        <ele>810.245867</ele>
        <time>2022-02-24T00:14:55.944Z</time>
      </trkpt>
      <trkpt lat="38.61371" lon="-2.5879">
        <ele>811.505867</ele>
        <time>2022-02-24T00:15:40.245Z</time>
      </trkpt>
      <trkpt lat="38.61289" lon="-2.58873">
        <ele>813.606378</ele>
        <time>2022-02-24T00:16:15.740Z</time>
      </trkpt>
      <trkpt lat="38.61238" lon="-2.5896">
        <ele>815.387213</ele>
        <time>2022-02-24T00:16:45.658Z</time>
      </trkpt>
      <trkpt lat="38.61218" lon="-2.59019">
        <ele>816.50386</ele>
        <time>2022-02-24T00:17:03.474Z</time>
      </trkpt>
      <trkpt lat="38.61196" lon="-2.59137">
        <ele>818.637553</ele>
        <time>2022-02-24T00:17:36.665Z</time>
      </trkpt>
      <trkpt lat="38.61195" lon="-2.592">
        <ele>818.974036</ele>
        <time>2022-02-24T00:17:51.339Z</time>
      </trkpt>
      <trkpt lat="38.61204" lon="-2.59281">
        <ele>819.387186</ele>
        <time>2022-02-24T00:18:09.011Z</time>
      </trkpt>
      <trkpt lat="38.6127" lon="-2.59686">
        <ele>818.967532</ele>
        <time>2022-02-24T00:19:20.744Z</time>
      </trkpt>
      <trkpt lat="38.61278" lon="-2.59783">
        <ele>818.751519</ele>
        <time>2022-02-24T00:19:37.993Z</time>
      </trkpt>
      <trkpt lat="38.61277" lon="-2.59856">
        <ele>818.549502</ele>
        <time>2022-02-24T00:19:50.733Z</time>
      </trkpt>
      <trkpt lat="38.61267" lon="-2.59949">
        <ele>818.241187</ele>
        <time>2022-02-24T00:20:06.880Z</time>
      </trkpt>
      <trkpt lat="38.61248" lon="-2.60026">
        <ele>817.974286</ele>
        <time>2022-02-24T00:20:20.603Z</time>
      </trkpt>
      <trkpt lat="38.61202" lon="-2.60157">
        <ele>817.481502</ele>
        <time>2022-02-24T00:20:45.016Z</time>
      </trkpt>
      <trkpt lat="38.60698" lon="-2.6108">
        <ele>814.294183</ele>
        <time>2022-02-24T00:24:00.686Z</time>
      </trkpt>
      <trkpt lat="38.60642" lon="-2.61173">
        <ele>813.857822</ele>
        <time>2022-02-24T00:24:20.706Z</time>
      </trkpt>
      <trkpt lat="38.60292" lon="-2.61613">
        <ele>809.277036</ele>
        <time>2022-02-24T00:26:02.993Z</time>
      </trkpt>
      <trkpt lat="38.60035" lon="-2.61925">
        <ele>805.440779</ele>
        <time>2022-02-24T00:27:16.797Z</time>
      </trkpt>
      <trkpt lat="38.59935" lon="-2.62035">
        <ele>803.037331</ele>
        <time>2022-02-24T00:27:42.885Z</time>
      </trkpt>
      <trkpt lat="38.59627" lon="-2.62281">
        <ele>794.793071</ele>
        <time>2022-02-24T00:28:49.092Z</time>
      </trkpt>
      <trkpt lat="38.59598" lon="-2.62307">
        <ele>794.603541</ele>
        <time>2022-02-24T00:28:57.690Z</time>
      </trkpt>
      <trkpt lat="38.59521" lon="-2.62376">
        <ele>794.333034</ele>
        <time>2022-02-24T00:29:24.768Z</time>
      </trkpt>
      <trkpt lat="38.59481" lon="-2.6242">
        <ele>794.706766</ele>
        <time>2022-02-24T00:29:41.919Z</time>
      </trkpt>
      <trkpt lat="38.59314" lon="-2.62671">
        <ele>795.467885</ele>
        <time>2022-02-24T00:30:43.657Z</time>
      </trkpt>
      <trkpt lat="38.5925" lon="-2.6275">
        <ele>795.316069</ele>
        <time>2022-02-24T00:31:02.850Z</time>
      </trkpt>
      <trkpt lat="38.59166" lon="-2.62817">
        <ele>795.061987</ele>
        <time>2022-02-24T00:31:25.001Z</time>
      </trkpt>
      <trkpt lat="38.59112" lon="-2.62848">
        <ele>795.248378</ele>
        <time>2022-02-24T00:31:38.662Z</time>
      </trkpt>
      <trkpt lat="38.58804" lon="-2.62987">
        <ele>797.842959</ele>
        <time>2022-02-24T00:33:08.630Z</time>
      </trkpt>
      <trkpt lat="38.5869" lon="-2.63034">
        <ele>799.005911</ele>
        <time>2022-02-24T00:33:43.165Z</time>
      </trkpt>
      <trkpt lat="38.58576" lon="-2.63092">
        <ele>800.000344</ele>
        <time>2022-02-24T00:34:16.752Z</time>
      </trkpt>
      <trkpt lat="38.58482" lon="-2.63173">
        <ele>800.780049</ele>
        <time>2022-02-24T00:34:46.219Z</time>
      </trkpt>
      <trkpt lat="38.58412" lon="-2.63255">
        <ele>801.319349</ele>
        <time>2022-02-24T00:35:10.817Z</time>
      </trkpt>
      <trkpt lat="38.58367" lon="-2.63336">
        <ele>801.761385</ele>
        <time>2022-02-24T00:35:31.343Z</time>
      </trkpt>
      <trkpt lat="38.5821" lon="-2.63747">
        <ele>803.087447</ele>
        <time>2022-02-24T00:37:02.785Z</time>
      </trkpt>
      <trkpt lat="38.58182" lon="-2.63805">
        <ele>802.272828</ele>
        <time>2022-02-24T00:37:13.993Z</time>
      </trkpt>
      <trkpt lat="38.58141" lon="-2.63862">
        <ele>801.147379</ele>
        <time>2022-02-24T00:37:25.620Z</time>
      </trkpt>
      <trkpt lat="38.58091" lon="-2.63912">
        <ele>799.960633</ele>
        <time>2022-02-24T00:37:37.097Z</time>
      </trkpt>
      <trkpt lat="38.58044" lon="-2.63945">
        <ele>799.267401</ele>
        <time>2022-02-24T00:37:46.921Z</time>
      </trkpt>
      <trkpt lat="38.58001" lon="-2.63967">
        <ele>798.736798</ele>
        <time>2022-02-24T00:37:55.864Z</time>
      </trkpt>
      <trkpt lat="38.57904" lon="-2.63989">
        <ele>797.828853</ele>
        <time>2022-02-24T00:38:17.821Z</time>
      </trkpt>
      <trkpt lat="38.57691" lon="-2.64015">
        <ele>799.569911</ele>
        <time>2022-02-24T00:39:31.217Z</time>
      </trkpt>
      <trkpt lat="38.57629" lon="-2.64038">
        <ele>797.676917</ele>
        <time>2022-02-24T00:39:43.486Z</time>
      </trkpt>
      <trkpt lat="38.57584" lon="-2.64059">
        <ele>796.236689</ele>
        <time>2022-02-24T00:39:51.385Z</time>
      </trkpt>
      <trkpt lat="38.57509" lon="-2.64127">
        <ele>791.022095</ele>
        <time>2022-02-24T00:40:05.497Z</time>
      </trkpt>
      <trkpt lat="38.57477" lon="-2.64175">
        <ele>787.724145</ele>
        <time>2022-02-24T00:40:12.864Z</time>
      </trkpt>
      <trkpt lat="38.57395" lon="-2.64298">
        <ele>783.036144</ele>
        <time>2022-02-24T00:40:34.507Z</time>
      </trkpt>
      <trkpt lat="38.57361" lon="-2.64346">
        <ele>782.789472</ele>
        <time>2022-02-24T00:40:49.579Z</time>
      </trkpt>
      <trkpt lat="38.57312" lon="-2.6442">
        <ele>782.380481</ele>
        <time>2022-02-24T00:41:15.141Z</time>
      </trkpt>
      <trkpt lat="38.57289" lon="-2.64463">
        <ele>782.030301</ele>
        <time>2022-02-24T00:41:29.389Z</time>
      </trkpt>
      <trkpt lat="38.57176" lon="-2.64842">
        <ele>777.601813</ele>
        <time>2022-02-24T00:42:29.749Z</time>
      </trkpt>
      <trkpt lat="38.57116" lon="-2.65032">
        <ele>778.847683</ele>
        <time>2022-02-24T00:43:10.688Z</time>
      </trkpt>
      <trkpt lat="38.57007" lon="-2.65376">
        <ele>789.820143</ele>
        <time>2022-02-24T00:45:23.275Z</time>
      </trkpt>
      <trkpt lat="38.56892" lon="-2.65678">
        <ele>796.987202</ele>
        <time>2022-02-24T00:46:57.230Z</time>
      </trkpt>
      <trkpt lat="38.56855" lon="-2.65753">
        <ele>797.512418</ele>
        <time>2022-02-24T00:47:17.096Z</time>
      </trkpt>
      <trkpt lat="38.56816" lon="-2.65821">
        <ele>798.011905</ele>
        <time>2022-02-24T00:47:34.528Z</time>
      </trkpt>
      <trkpt lat="38.56725" lon="-2.65944">
        <ele>797.509976</ele>
        <time>2022-02-24T00:48:04.401Z</time>
      </trkpt>
      <trkpt lat="38.56624" lon="-2.66033">
        <ele>796.004376</ele>
        <time>2022-02-24T00:48:28.497Z</time>
      </trkpt>
      <trkpt lat="38.56544" lon="-2.66088">
        <ele>794.126238</ele>
        <time>2022-02-24T00:48:45.588Z</time>
      </trkpt>
      <trkpt lat="38.56498" lon="-2.66111">
        <ele>793.109317</ele>
        <time>2022-02-24T00:48:54.843Z</time>
      </trkpt>
      <trkpt lat="38.55943" lon="-2.66304">
        <ele>784.236117</ele>
        <time>2022-02-24T00:50:49.120Z</time>
      </trkpt>
      <trkpt lat="38.55847" lon="-2.66321">
        <ele>782.996631</ele>
        <time>2022-02-24T00:51:09.413Z</time>
      </trkpt>
      <trkpt lat="38.55775" lon="-2.66327">
        <ele>781.935058</ele>
        <time>2022-02-24T00:51:23.918Z</time>
      </trkpt>
      <trkpt lat="38.55767" lon="-2.66327">
        <ele>781.757897</ele>
        <time>2022-02-24T00:51:25.529Z</time>
      </trkpt>
      <trkpt lat="38.55397" lon="-2.66355">
        <ele>773.91027</ele>
        <time>2022-02-24T00:52:34.850Z</time>
      </trkpt>
      <trkpt lat="38.55314" lon="-2.66381">
        <ele>773.457455</ele>
        <time>2022-02-24T00:52:53.288Z</time>
      </trkpt>
      <trkpt lat="38.55284" lon="-2.66398">
        <ele>773.28569</ele>
        <time>2022-02-24T00:53:01.502Z</time>
      </trkpt>
      <trkpt lat="38.55233" lon="-2.66439">
        <ele>773.713428</ele>
        <time>2022-02-24T00:53:18.716Z</time>
      </trkpt>
      <trkpt lat="38.55197" lon="-2.66472">
        <ele>774.475988</ele>
        <time>2022-02-24T00:53:32.542Z</time>
      </trkpt>
      <trkpt lat="38.54849" lon="-2.66782">
        <ele>781.175236</ele>
        <time>2022-02-24T00:55:50.497Z</time>
      </trkpt>
      <trkpt lat="38.54768" lon="-2.66825">
        <ele>780.729606</ele>
        <time>2022-02-24T00:56:10.311Z</time>
      </trkpt>
      <trkpt lat="38.54308" lon="-2.67025">
        <ele>771.093304</ele>
        <time>2022-02-24T00:57:42.206Z</time>
      </trkpt>
      <trkpt lat="38.54243" lon="-2.67073">
        <ele>770.386378</ele>
        <time>2022-02-24T00:57:57.262Z</time>
      </trkpt>
      <trkpt lat="38.54197" lon="-2.67118">
        <ele>769.880523</ele>
        <time>2022-02-24T00:58:09.593Z</time>
      </trkpt>
      <trkpt lat="38.54171" lon="-2.67144">
        <ele>769.597689</ele>
        <time>2022-02-24T00:58:16.886Z</time>
      </trkpt>
      <trkpt lat="38.53935" lon="-2.67382">
        <ele>770.681237</ele>
        <time>2022-02-24T00:59:34.363Z</time>
      </trkpt>
      <trkpt lat="38.52986" lon="-2.68348">
        <ele>773.406786</ele>
        <time>2022-02-24T01:04:31.369Z</time>
      </trkpt>
      <trkpt lat="38.52939" lon="-2.68388">
        <ele>773.004843</ele>
        <time>2022-02-24T01:04:43.092Z</time>
      </trkpt>
      <trkpt lat="38.52859" lon="-2.68428">
        <ele>772.314158</ele>
        <time>2022-02-24T01:05:00.424Z</time>
      </trkpt>
      <trkpt lat="38.52772" lon="-2.68444">
        <ele>771.31018</ele>
        <time>2022-02-24T01:05:18.182Z</time>
      </trkpt>
      <trkpt lat="38.52723" lon="-2.68447">
        <ele>770.758196</ele>
        <time>2022-02-24T01:05:28.194Z</time>
      </trkpt>
      <trkpt lat="38.52504" lon="-2.6846">
        <ele>769.433863</ele>
        <time>2022-02-24T01:06:16.192Z</time>
      </trkpt>
      <trkpt lat="38.52452" lon="-2.68479">
        <ele>769.021268</ele>
        <time>2022-02-24T01:06:27.973Z</time>
      </trkpt>
      <trkpt lat="38.5239" lon="-2.68508">
        <ele>768.513991</ele>
        <time>2022-02-24T01:06:42.165Z</time>
      </trkpt>
      <trkpt lat="38.52298" lon="-2.68571">
        <ele>766.793121</ele>
        <time>2022-02-24T01:07:03.315Z</time>
      </trkpt>
      <trkpt lat="38.52195" lon="-2.68651">
        <ele>763.995783</ele>
        <time>2022-02-24T01:07:25.569Z</time>
      </trkpt>
      <trkpt lat="38.52174" lon="-2.68668">
        <ele>763.106913</ele>
        <time>2022-02-24T01:07:30.004Z</time>
      </trkpt>
      <trkpt lat="38.51987" lon="-2.68813">
        <ele>755.957477</ele>
        <time>2022-02-24T01:08:08.314Z</time>
      </trkpt>
      <trkpt lat="38.51894" lon="-2.6888">
        <ele>753.092833</ele>
        <time>2022-02-24T01:08:28.168Z</time>
      </trkpt>
      <trkpt lat="38.51737" lon="-2.68981">
        <ele>752.144207</ele>
        <time>2022-02-24T01:09:05.501Z</time>
      </trkpt>
      <trkpt lat="38.51698" lon="-2.69005">
        <ele>753.075366</ele>
        <time>2022-02-24T01:09:18.598Z</time>
      </trkpt>
      <trkpt lat="38.51515" lon="-2.69125">
        <ele>759.798874</ele>
        <time>2022-02-24T01:10:47.655Z</time>
      </trkpt>
      <trkpt lat="38.5149" lon="-2.69145">
        <ele>760.768138</ele>
        <time>2022-02-24T01:11:00.552Z</time>
      </trkpt>
      <trkpt lat="38.51428" lon="-2.69202">
        <ele>763.310705</ele>
        <time>2022-02-24T01:11:31.395Z</time>
      </trkpt>
      <trkpt lat="38.5105" lon="-2.69577">
        <ele>769.673167</ele>
        <time>2022-02-24T01:13:50.720Z</time>
      </trkpt>
      <trkpt lat="38.50944" lon="-2.69667">
        <ele>771.259099</ele>
        <time>2022-02-24T01:14:27.229Z</time>
      </trkpt>
      <trkpt lat="38.50787" lon="-2.69768">
        <ele>773.588776</ele>
        <time>2022-02-24T01:15:21.257Z</time>
      </trkpt>
      <trkpt lat="38.50624" lon="-2.69843">
        <ele>775.511254</ele>
        <time>2022-02-24T01:16:10.321Z</time>
      </trkpt>
      <trkpt lat="38.50483" lon="-2.69886">
        <ele>776.969299</ele>
        <time>2022-02-24T01:16:50.814Z</time>
      </trkpt>
      <trkpt lat="38.50126" lon="-2.69971">
        <ele>781.814346</ele>
        <time>2022-02-24T01:18:37.835Z</time>
      </trkpt>
      <trkpt lat="38.49502" lon="-2.70121">
        <ele>796.705159</ele>
        <time>2022-02-24T01:22:24.300Z</time>
      </trkpt>
      <trkpt lat="38.49442" lon="-2.70126">
        <ele>797.790592</ele>
        <time>2022-02-24T01:22:41.709Z</time>
      </trkpt>
      <trkpt lat="38.49389" lon="-2.70123">
        <ele>798.170386</ele>
        <time>2022-02-24T01:22:55.912Z</time>
      </trkpt>
      <trkpt lat="38.49321" lon="-2.70103">
        <ele>798.276106</ele>
        <time>2022-02-24T01:23:12.769Z</time>
      </trkpt>
      <trkpt lat="38.4928" lon="-2.70081">
        <ele>798.34138</ele>
        <time>2022-02-24T01:23:22.801Z</time>
      </trkpt>
      <trkpt lat="38.48345" lon="-2.69521">
        <ele>795.096977</ele>
        <time>2022-02-24T01:27:12.677Z</time>
      </trkpt>
      <trkpt lat="38.48261" lon="-2.69486">
        <ele>794.669746</ele>
        <time>2022-02-24T01:27:32.668Z</time>
      </trkpt>
      <trkpt lat="38.48223" lon="-2.69477">
        <ele>794.111639</ele>
        <time>2022-02-24T01:27:40.835Z</time>
      </trkpt>
      <trkpt lat="38.48185" lon="-2.69474">
        <ele>793.545674</ele>
        <time>2022-02-24T01:27:48.713Z</time>
      </trkpt>
      <trkpt lat="38.48092" lon="-2.6949">
        <ele>792.144272</ele>
        <time>2022-02-24T01:28:06.758Z</time>
      </trkpt>
      <trkpt lat="38.48032" lon="-2.6952">
        <ele>789.872761</ele>
        <time>2022-02-24T01:28:18.322Z</time>
      </trkpt>
      <trkpt lat="38.47975" lon="-2.69559">
        <ele>787.571619</ele>
        <time>2022-02-24T01:28:29.510Z</time>
      </trkpt>
      <trkpt lat="38.47843" lon="-2.69712">
        <ele>782.292226</ele>
        <time>2022-02-24T01:29:00.446Z</time>
      </trkpt>
      <trkpt lat="38.47306" lon="-2.70349">
        <ele>779.404126</ele>
        <time>2022-02-24T01:31:43.895Z</time>
      </trkpt>
      <trkpt lat="38.46968" lon="-2.70742">
        <ele>786.536715</ele>
        <time>2022-02-24T01:34:14.369Z</time>
      </trkpt>
      <trkpt lat="38.46686" lon="-2.71086">
        <ele>787.375019</ele>
        <time>2022-02-24T01:35:46.401Z</time>
      </trkpt>
      <trkpt lat="38.45759" lon="-2.71944">
        <ele>775.760211</ele>
        <time>2022-02-24T01:39:43.122Z</time>
      </trkpt>
      <trkpt lat="38.45713" lon="-2.71987">
        <ele>775.486956</ele>
        <time>2022-02-24T01:39:54.733Z</time>
      </trkpt>
      <trkpt lat="38.45538" lon="-2.72149">
        <ele>774.965844</ele>
        <time>2022-02-24T01:40:47.035Z</time>
      </trkpt>
      <trkpt lat="38.4517" lon="-2.72487">
        <ele>771.501851</ele>
        <time>2022-02-24T01:42:23.960Z</time>
      </trkpt>
      <trkpt lat="38.45129" lon="-2.72533">
        <ele>769.76836</ele>
        <time>2022-02-24T01:42:33.914Z</time>
      </trkpt>
      <trkpt lat="38.45032" lon="-2.72661">
        <ele>764.178112</ele>
        <time>2022-02-24T01:42:57.357Z</time>
      </trkpt>
      <trkpt lat="38.44946" lon="-2.72809">
        <ele>760.800123</ele>
        <time>2022-02-24T01:43:22.706Z</time>
      </trkpt>
      <trkpt lat="38.44731" lon="-2.73216">
        <ele>765.21384</ele>
        <time>2022-02-24T01:45:27.831Z</time>
      </trkpt>
      <trkpt lat="38.44699" lon="-2.73258">
        <ele>764.602211</ele>
        <time>2022-02-24T01:45:38.153Z</time>
      </trkpt>
      <trkpt lat="38.44611" lon="-2.73344">
        <ele>761.87593</ele>
        <time>2022-02-24T01:45:58.516Z</time>
      </trkpt>
      <trkpt lat="38.44431" lon="-2.73496">
        <ele>753.071769</ele>
        <time>2022-02-24T01:46:34.806Z</time>
      </trkpt>
      <trkpt lat="38.44364" lon="-2.73561">
        <ele>751.820416</ele>
        <time>2022-02-24T01:46:50.497Z</time>
      </trkpt>
      <trkpt lat="38.44323" lon="-2.73609">
        <ele>750.982868</ele>
        <time>2022-02-24T01:47:02.458Z</time>
      </trkpt>
      <trkpt lat="38.44266" lon="-2.73693">
        <ele>750.541968</ele>
        <time>2022-02-24T01:47:24.541Z</time>
      </trkpt>
      <trkpt lat="38.44228" lon="-2.73773">
        <ele>750.791945</ele>
        <time>2022-02-24T01:47:43.408Z</time>
      </trkpt>
      <trkpt lat="38.4413" lon="-2.74034">
        <ele>751.076083</ele>
        <time>2022-02-24T01:48:37.735Z</time>
      </trkpt>
      <trkpt lat="38.43736" lon="-2.74972">
        <ele>746.001713</ele>
        <time>2022-02-24T01:51:37.191Z</time>
      </trkpt>
      <trkpt lat="38.43644" lon="-2.75207">
        <ele>743.694658</ele>
        <time>2022-02-24T01:52:21.641Z</time>
      </trkpt>
      <trkpt lat="38.43534" lon="-2.75486">
        <ele>737.038898</ele>
        <time>2022-02-24T01:53:05.718Z</time>
      </trkpt>
      <trkpt lat="38.4346" lon="-2.7564">
        <ele>732.838088</ele>
        <time>2022-02-24T01:53:31.230Z</time>
      </trkpt>
      <trkpt lat="38.43392" lon="-2.7574">
        <ele>729.988476</ele>
        <time>2022-02-24T01:53:50.390Z</time>
      </trkpt>
      <trkpt lat="38.43306" lon="-2.75833">
        <ele>726.938119</ele>
        <time>2022-02-24T01:54:11.086Z</time>
      </trkpt>
      <trkpt lat="38.43048" lon="-2.76076">
        <ele>717.920048</ele>
        <time>2022-02-24T01:55:09.404Z</time>
      </trkpt>
      <trkpt lat="38.42978" lon="-2.76148">
        <ele>715.619938</ele>
        <time>2022-02-24T01:55:26.505Z</time>
      </trkpt>
      <trkpt lat="38.42567" lon="-2.7664">
        <ele>702.11404</ele>
        <time>2022-02-24T01:57:11.532Z</time>
      </trkpt>
      <trkpt lat="38.42513" lon="-2.76689">
        <ele>700.792255</ele>
        <time>2022-02-24T01:57:24.496Z</time>
      </trkpt>
      <trkpt lat="38.4247" lon="-2.76713">
        <ele>700.036962</ele>
        <time>2022-02-24T01:57:33.850Z</time>
      </trkpt>
      <trkpt lat="38.42387" lon="-2.76735">
        <ele>699.187303</ele>
        <time>2022-02-24T01:57:51.379Z</time>
      </trkpt>
      <trkpt lat="38.42336" lon="-2.7673">
        <ele>698.673181</ele>
        <time>2022-02-24T01:58:02.163Z</time>
      </trkpt>
      <trkpt lat="38.42044" lon="-2.76644">
        <ele>696.958336</ele>
        <time>2022-02-24T01:59:07.449Z</time>
      </trkpt>
      <trkpt lat="38.41979" lon="-2.76634">
        <ele>696.652173</ele>
        <time>2022-02-24T01:59:22.793Z</time>
      </trkpt>
      <trkpt lat="38.41887" lon="-2.76643">
        <ele>694.205813</ele>
        <time>2022-02-24T01:59:41.761Z</time>
      </trkpt>
      <trkpt lat="38.41822" lon="-2.76664">
        <ele>692.04905</ele>
        <time>2022-02-24T01:59:53.404Z</time>
      </trkpt>
      <trkpt lat="38.41758" lon="-2.76707">
        <ele>688.878755</ele>
        <time>2022-02-24T02:00:05.122Z</time>
      </trkpt>
      <trkpt lat="38.41687" lon="-2.76788">
        <ele>683.32223</ele>
        <time>2022-02-24T02:00:20.185Z</time>
      </trkpt>
      <trkpt lat="38.41655" lon="-2.76841">
        <ele>680.291548</ele>
        <time>2022-02-24T02:00:28.754Z</time>
      </trkpt>
      <trkpt lat="38.41631" lon="-2.76899">
        <ele>680.375456</ele>
        <time>2022-02-24T02:00:37.737Z</time>
      </trkpt>
      <trkpt lat="38.41461" lon="-2.77552">
        <ele>681.802184</ele>
        <time>2022-02-24T02:03:12.912Z</time>
      </trkpt>
      <trkpt lat="38.41309" lon="-2.78163">
        <ele>667.941091</ele>
        <time>2022-02-24T02:04:43.127Z</time>
      </trkpt>
      <trkpt lat="38.41274" lon="-2.78271">
        <ele>665.352712</ele>
        <time>2022-02-24T02:04:59.529Z</time>
      </trkpt>
      <trkpt lat="38.41248" lon="-2.78316">
        <ele>664.117886</ele>
        <time>2022-02-24T02:05:07.516Z</time>
      </trkpt>
      <trkpt lat="38.41203" lon="-2.7837">
        <ele>663.013655</ele>
        <time>2022-02-24T02:05:19.205Z</time>
      </trkpt>
      <trkpt lat="38.41125" lon="-2.78421">
        <ele>662.435252</ele>
        <time>2022-02-24T02:05:36.928Z</time>
      </trkpt>
      <trkpt lat="38.41084" lon="-2.78434">
        <ele>662.156329</ele>
        <time>2022-02-24T02:05:48.201Z</time>
      </trkpt>
      <trkpt lat="38.41029" lon="-2.78438">
        <ele>662.306131</ele>
        <time>2022-02-24T02:06:05.476Z</time>
      </trkpt>
      <trkpt lat="38.40993" lon="-2.78434">
        <ele>662.603081</ele>
        <time>2022-02-24T02:06:17.485Z</time>
      </trkpt>
      <trkpt lat="38.40945" lon="-2.78418">
        <ele>663.003621</ele>
        <time>2022-02-24T02:06:33.931Z</time>
      </trkpt>
      <trkpt lat="38.40455" lon="-2.78045">
        <ele>659.23818</ele>
        <time>2022-02-24T02:08:33.527Z</time>
      </trkpt>
      <trkpt lat="38.40246" lon="-2.77892">
        <ele>658.965163</ele>
        <time>2022-02-24T02:09:30.461Z</time>
      </trkpt>
      <trkpt lat="38.40143" lon="-2.77841">
        <ele>658.454323</ele>
        <time>2022-02-24T02:09:55.203Z</time>
      </trkpt>
      <trkpt lat="38.4007" lon="-2.77821">
        <ele>657.640994</ele>
        <time>2022-02-24T02:10:10.457Z</time>
      </trkpt>
      <trkpt lat="38.39714" lon="-2.77766">
        <ele>651.56456</ele>
        <time>2022-02-24T02:11:19.735Z</time>
      </trkpt>
      <trkpt lat="38.39657" lon="-2.77762">
        <ele>651.152044</ele>
        <time>2022-02-24T02:11:32.064Z</time>
      </trkpt>
      <trkpt lat="38.39597" lon="-2.77766">
        <ele>650.711815</ele>
        <time>2022-02-24T02:11:45.746Z</time>
      </trkpt>
      <trkpt lat="38.39541" lon="-2.77782">
        <ele>650.138444</ele>
        <time>2022-02-24T02:11:58.779Z</time>
      </trkpt>
      <trkpt lat="38.39501" lon="-2.778">
        <ele>649.62927</ele>
        <time>2022-02-24T02:12:08.021Z</time>
      </trkpt>
      <trkpt lat="38.39466" lon="-2.77824">
        <ele>649.147766</ele>
        <time>2022-02-24T02:12:16.231Z</time>
      </trkpt>
      <trkpt lat="38.39388" lon="-2.77895">
        <ele>647.86201</ele>
        <time>2022-02-24T02:12:34.233Z</time>
      </trkpt>
      <trkpt lat="38.39272" lon="-2.78009">
        <ele>645.468985</ele>
        <time>2022-02-24T02:13:22.261Z</time>
      </trkpt>
      <trkpt lat="38.39144" lon="-2.78183">
        <ele>645.59539</ele>
        <time>2022-02-24T02:14:36.443Z</time>
      </trkpt>
      <trkpt lat="38.39132" lon="-2.78192">
        <ele>645.392146</ele>
        <time>2022-02-24T02:14:41.493Z</time>
      </trkpt>
      <trkpt lat="38.39117" lon="-2.78191">
        <ele>645.170501</ele>
        <time>2022-02-24T02:14:46.727Z</time>
      </trkpt>
      <trkpt lat="38.39066" lon="-2.78155">
        <ele>644.288854</ele>
        <time>2022-02-24T02:15:07.274Z</time>
      </trkpt>
      <trkpt lat="38.3909" lon="-2.78105">
        <ele>643.590316</ele>
        <time>2022-02-24T02:15:16.074Z</time>
      </trkpt>
      <trkpt lat="38.39092" lon="-2.78079">
        <ele>643.292668</ele>
        <time>2022-02-24T02:15:19.613Z</time>
      </trkpt>
      <trkpt lat="38.39063" lon="-2.77965">
        <ele>639.265789</ele>
        <time>2022-02-24T02:15:35.100Z</time>
      </trkpt>
      <trkpt lat="38.3905" lon="-2.7794">
        <ele>638.04906</ele>
        <time>2022-02-24T02:15:38.862Z</time>
      </trkpt>
      <trkpt lat="38.38857" lon="-2.77672">
        <ele>620.592122</ele>
        <time>2022-02-24T02:16:22.162Z</time>
      </trkpt>
      <trkpt lat="38.3879" lon="-2.77593">
        <ele>614.685968</ele>
        <time>2022-02-24T02:16:35.963Z</time>
      </trkpt>
      <trkpt lat="38.38741" lon="-2.77544">
        <ele>610.672459</ele>
        <time>2022-02-24T02:16:45.414Z</time>
      </trkpt>
      <trkpt lat="38.38661" lon="-2.77483">
        <ele>606.212331</ele>
        <time>2022-02-24T02:16:59.878Z</time>
      </trkpt>
      <trkpt lat="38.38613" lon="-2.77434">
        <ele>603.383865</ele>
        <time>2022-02-24T02:17:09.587Z</time>
      </trkpt>
      <trkpt lat="38.38575" lon="-2.77417">
        <ele>601.914103</ele>
        <time>2022-02-24T02:17:16.780Z</time>
      </trkpt>
      <trkpt lat="38.38566" lon="-2.77403">
        <ele>601.942891</ele>
        <time>2022-02-24T02:17:19.447Z</time>
      </trkpt>
      <trkpt lat="38.38553" lon="-2.77357">
        <ele>602.025554</ele>
        <time>2022-02-24T02:17:27.407Z</time>
      </trkpt>
      <trkpt lat="38.38531" lon="-2.77342">
        <ele>602.079822</ele>
        <time>2022-02-24T02:17:32.846Z</time>
      </trkpt>
      <trkpt lat="38.38461" lon="-2.77314">
        <ele>602.234928</ele>
        <time>2022-02-24T02:17:53.476Z</time>
      </trkpt>
      <trkpt lat="38.38426" lon="-2.77317">
        <ele>602.746512</ele>
        <time>2022-02-24T02:18:04.953Z</time>
      </trkpt>
      <trkpt lat="38.38415" lon="-2.77326">
        <ele>603.17729</ele>
        <time>2022-02-24T02:18:09.913Z</time>
      </trkpt>
      <trkpt lat="38.38407" lon="-2.77364">
        <ele>604.176217</ele>
        <time>2022-02-24T02:18:21.843Z</time>
      </trkpt>
      <trkpt lat="38.38391" lon="-2.77381">
        <ele>604.840248</ele>
        <time>2022-02-24T02:18:30.944Z</time>
      </trkpt>
      <trkpt lat="38.38345" lon="-2.77411">
        <ele>606.517889</ele>
        <time>2022-02-24T02:18:53.151Z</time>
      </trkpt>
      <trkpt lat="38.38329" lon="-2.77406">
        <ele>607.06161</ele>
        <time>2022-02-24T02:19:00.121Z</time>
      </trkpt>
      <trkpt lat="38.38234" lon="-2.77194">
        <ele>610.894718</ele>
        <time>2022-02-24T02:20:07.871Z</time>
      </trkpt>
      <trkpt lat="38.3822" lon="-2.77179">
        <ele>611.226486</ele>
        <time>2022-02-24T02:20:11.501Z</time>
      </trkpt>
      <trkpt lat="38.38163" lon="-2.77138">
        <ele>608.742761</ele>
        <time>2022-02-24T02:20:22.978Z</time>
      </trkpt>
      <trkpt lat="38.38126" lon="-2.77078">
        <ele>606.327485</ele>
        <time>2022-02-24T02:20:32.617Z</time>
      </trkpt>
      <trkpt lat="38.38111" lon="-2.77045">
        <ele>605.142337</ele>
        <time>2022-02-24T02:20:37.121Z</time>
      </trkpt>
      <trkpt lat="38.38068" lon="-2.77027">
        <ele>603.315433</ele>
        <time>2022-02-24T02:20:44.078Z</time>
      </trkpt>
      <trkpt lat="38.38049" lon="-2.77026">
        <ele>602.554279</ele>
        <time>2022-02-24T02:20:46.949Z</time>
      </trkpt>
      <trkpt lat="38.38034" lon="-2.7701">
        <ele>601.752927</ele>
        <time>2022-02-24T02:20:49.994Z</time>
      </trkpt>
      <trkpt lat="38.38021" lon="-2.76984">
        <ele>600.739312</ele>
        <time>2022-02-24T02:20:53.921Z</time>
      </trkpt>
      <trkpt lat="38.38017" lon="-2.76963">
        <ele>600.054555</ele>
        <time>2022-02-24T02:20:56.614Z</time>
      </trkpt>
      <trkpt lat="38.38017" lon="-2.76925">
        <ele>598.8164</ele>
        <time>2022-02-24T02:21:01.600Z</time>
      </trkpt>
      <trkpt lat="38.38019" lon="-2.76909">
        <ele>598.311199</ele>
        <time>2022-02-24T02:21:03.781Z</time>
      </trkpt>
      <trkpt lat="38.38043" lon="-2.76869">
        <ele>596.713725</ele>
        <time>2022-02-24T02:21:10.864Z</time>
      </trkpt>
      <trkpt lat="38.3804" lon="-2.76849">
        <ele>596.851175</ele>
        <time>2022-02-24T02:21:13.846Z</time>
      </trkpt>
      <trkpt lat="38.38008" lon="-2.76819">
        <ele>597.202635</ele>
        <time>2022-02-24T02:21:22.461Z</time>
      </trkpt>
      <trkpt lat="38.37992" lon="-2.76792">
        <ele>597.428578</ele>
        <time>2022-02-24T02:21:28.668Z</time>
      </trkpt>
      <trkpt lat="38.37725" lon="-2.76598">
        <ele>602.884982</ele>
        <time>2022-02-24T02:23:14.585Z</time>
      </trkpt>
      <trkpt lat="38.37693" lon="-2.76587">
        <ele>603.233767</ele>
        <time>2022-02-24T02:23:24.439Z</time>
      </trkpt>
      <trkpt lat="38.37668" lon="-2.76585">
        <ele>603.4992</ele>
        <time>2022-02-24T02:23:31.417Z</time>
      </trkpt>
      <trkpt lat="38.37633" lon="-2.76604">
        <ele>603.912622</ele>
        <time>2022-02-24T02:23:41.544Z</time>
      </trkpt>
      <trkpt lat="38.37598" lon="-2.76613">
        <ele>604.286218</ele>
        <time>2022-02-24T02:23:49.833Z</time>
      </trkpt>
      <trkpt lat="38.37578" lon="-2.76608">
        <ele>604.474933</ele>
        <time>2022-02-24T02:23:54.437Z</time>
      </trkpt>
      <trkpt lat="38.37451" lon="-2.76536">
        <ele>604.23424</ele>
        <time>2022-02-24T02:24:24.226Z</time>
      </trkpt>
      <trkpt lat="38.37032" lon="-2.75989">
        <ele>602.708924</ele>
        <time>2022-02-24T02:26:35.590Z</time>
      </trkpt>
      <trkpt lat="38.36989" lon="-2.7596">
        <ele>601.533167</ele>
        <time>2022-02-24T02:26:44.306Z</time>
      </trkpt>
      <trkpt lat="38.3688" lon="-2.75824">
        <ele>597.96651</ele>
        <time>2022-02-24T02:27:10.261Z</time>
      </trkpt>
      <trkpt lat="38.36826" lon="-2.75648">
        <ele>595.01626</ele>
        <time>2022-02-24T02:27:37.349Z</time>
      </trkpt>
      <trkpt lat="38.36699" lon="-2.75475">
        <ele>594.360082</ele>
        <time>2022-02-24T02:28:21.854Z</time>
      </trkpt>
      <trkpt lat="38.36656" lon="-2.75461">
        <ele>593.279034</ele>
        <time>2022-02-24T02:28:31.020Z</time>
      </trkpt>
      <trkpt lat="38.36634" lon="-2.75444">
        <ele>592.675979</ele>
        <time>2022-02-24T02:28:35.734Z</time>
      </trkpt>
      <trkpt lat="38.36564" lon="-2.75423">
        <ele>590.951622</ele>
        <time>2022-02-24T02:28:47.828Z</time>
      </trkpt>
      <trkpt lat="38.36434" lon="-2.75321">
        <ele>584.418962</ele>
        <time>2022-02-24T02:29:12.111Z</time>
      </trkpt>
      <trkpt lat="38.36414" lon="-2.75318">
        <ele>583.490179</ele>
        <time>2022-02-24T02:29:15.366Z</time>
      </trkpt>
      <trkpt lat="38.36397" lon="-2.75303">
        <ele>582.574146</ele>
        <time>2022-02-24T02:29:18.610Z</time>
      </trkpt>
      <trkpt lat="38.36369" lon="-2.75241">
        <ele>581.391137</ele>
        <time>2022-02-24T02:29:28.305Z</time>
      </trkpt>
      <trkpt lat="38.36374" lon="-2.75163">
        <ele>580.330458</ele>
        <time>2022-02-24T02:29:39.862Z</time>
      </trkpt>
      <trkpt lat="38.36359" lon="-2.75143">
        <ele>579.945642</ele>
        <time>2022-02-24T02:29:44.493Z</time>
      </trkpt>
      <trkpt lat="38.36345" lon="-2.75132">
        <ele>579.662668</ele>
        <time>2022-02-24T02:29:47.941Z</time>
      </trkpt>
      <trkpt lat="38.36299" lon="-2.75032">
        <ele>578.780233</ele>
        <time>2022-02-24T02:30:07.453Z</time>
      </trkpt>
      <trkpt lat="38.36142" lon="-2.74884">
        <ele>577.614277</ele>
        <time>2022-02-24T02:30:47.662Z</time>
      </trkpt>
      <trkpt lat="38.36096" lon="-2.74824">
        <ele>577.191847</ele>
        <time>2022-02-24T02:31:00.992Z</time>
      </trkpt>
      <trkpt lat="38.3608" lon="-2.74796">
        <ele>577.017815</ele>
        <time>2022-02-24T02:31:06.505Z</time>
      </trkpt>
      <trkpt lat="38.36061" lon="-2.74738">
        <ele>576.902305</ele>
        <time>2022-02-24T02:31:16.774Z</time>
      </trkpt>
      <trkpt lat="38.36056" lon="-2.74735">
        <ele>576.896529</ele>
        <time>2022-02-24T02:31:17.799Z</time>
      </trkpt>
      <trkpt lat="38.36056" lon="-2.74732">
        <ele>576.893716</ele>
        <time>2022-02-24T02:31:18.385Z</time>
      </trkpt>
      <trkpt lat="38.36045" lon="-2.74516">
        <ele>576.791014</ele>
        <time>2022-02-24T02:31:58.620Z</time>
      </trkpt>
      <trkpt lat="38.36043" lon="-2.74495">
        <ele>576.810619</ele>
        <time>2022-02-24T02:32:02.473Z</time>
      </trkpt>
      <trkpt lat="38.36037" lon="-2.74496">
        <ele>576.817073</ele>
        <time>2022-02-24T02:32:03.637Z</time>
      </trkpt>
      <trkpt lat="38.36033" lon="-2.74476">
        <ele>576.837011</ele>
        <time>2022-02-24T02:32:07.734Z</time>
      </trkpt>
      <trkpt lat="38.36024" lon="-2.74453">
        <ele>576.861398</ele>
        <time>2022-02-24T02:32:12.212Z</time>
      </trkpt>
      <trkpt lat="38.36014" lon="-2.74436">
        <ele>576.880453</ele>
        <time>2022-02-24T02:32:16.119Z</time>
      </trkpt>
      <trkpt lat="38.3596" lon="-2.74377">
        <ele>576.967691</ele>
        <time>2022-02-24T02:32:32.915Z</time>
      </trkpt>
      <trkpt lat="38.35952" lon="-2.74368">
        <ele>576.985253</ele>
        <time>2022-02-24T02:32:35.404Z</time>
      </trkpt>
      <trkpt lat="38.35947" lon="-2.74375">
        <ele>576.997547</ele>
        <time>2022-02-24T02:32:36.988Z</time>
      </trkpt>
      <trkpt lat="38.35867" lon="-2.74292">
        <ele>577.170032</ele>
        <time>2022-02-24T02:33:00.228Z</time>
      </trkpt>
      <trkpt lat="38.35846" lon="-2.74273">
        <ele>577.213064</ele>
        <time>2022-02-24T02:33:06.313Z</time>
      </trkpt>
      <trkpt lat="38.35807" lon="-2.7424">
        <ele>577.591433</ele>
        <time>2022-02-24T02:33:19.015Z</time>
      </trkpt>
      <trkpt lat="38.35791" lon="-2.74229">
        <ele>577.967749</ele>
        <time>2022-02-24T02:33:24.486Z</time>
      </trkpt>
      <trkpt lat="38.35747" lon="-2.74198">
        <ele>578.979492</ele>
        <time>2022-02-24T02:33:40.305Z</time>
      </trkpt>
      <trkpt lat="38.35641" lon="-2.74124">
        <ele>581.860156</ele>
        <time>2022-02-24T02:34:24.026Z</time>
      </trkpt>
      <trkpt lat="38.35625" lon="-2.74119">
        <ele>582.477767</ele>
        <time>2022-02-24T02:34:30.919Z</time>
      </trkpt>
      <trkpt lat="38.35612" lon="-2.74103">
        <ele>583.153733</ele>
        <time>2022-02-24T02:34:38.294Z</time>
      </trkpt>
      <trkpt lat="38.35611" lon="-2.74094">
        <ele>583.41727</ele>
        <time>2022-02-24T02:34:41.353Z</time>
      </trkpt>
      <trkpt lat="38.35572" lon="-2.74077">
        <ele>584.982367</ele>
        <time>2022-02-24T02:34:58.347Z</time>
      </trkpt>
      <trkpt lat="38.35489" lon="-2.74049">
        <ele>588.302008</ele>
        <time>2022-02-24T02:35:36.681Z</time>
      </trkpt>
      <trkpt lat="38.35433" lon="-2.74032">
        <ele>590.728323</ele>
        <time>2022-02-24T02:36:01.099Z</time>
      </trkpt>
      <trkpt lat="38.35438" lon="-2.74003">
        <ele>591.735743</ele>
        <time>2022-02-24T02:36:12.716Z</time>
      </trkpt>
      <trkpt lat="38.35423" lon="-2.73989">
        <ele>592.520165</ele>
        <time>2022-02-24T02:36:20.792Z</time>
      </trkpt>
      <trkpt lat="38.35396" lon="-2.7394">
        <ele>594.520503</ele>
        <time>2022-02-24T02:36:42.389Z</time>
      </trkpt>
      <trkpt lat="38.3535" lon="-2.73877">
        <ele>596.222361</ele>
        <time>2022-02-24T02:37:09.931Z</time>
      </trkpt>
      <trkpt lat="38.35336" lon="-2.7385">
        <ele>596.679772</ele>
        <time>2022-02-24T02:37:19.034Z</time>
      </trkpt>
      <trkpt lat="38.35323" lon="-2.73818">
        <ele>597.199989</ele>
        <time>2022-02-24T02:37:28.247Z</time>
      </trkpt>
      <trkpt lat="38.35268" lon="-2.73787">
        <ele>598.300912</ele>
        <time>2022-02-24T02:37:43.827Z</time>
      </trkpt>
      <trkpt lat="38.35246" lon="-2.73768">
        <ele>598.682693</ele>
        <time>2022-02-24T02:37:49.876Z</time>
      </trkpt>
      <trkpt lat="38.35211" lon="-2.73744">
        <ele>599.002589</ele>
        <time>2022-02-24T02:37:59.213Z</time>
      </trkpt>
      <trkpt lat="38.35175" lon="-2.73732">
        <ele>599.300734</ele>
        <time>2022-02-24T02:38:07.448Z</time>
      </trkpt>
      <trkpt lat="38.35152" lon="-2.7373">
        <ele>599.48447</ele>
        <time>2022-02-24T02:38:12.323Z</time>
      </trkpt>
      <trkpt lat="38.35153" lon="-2.73715">
        <ele>599.579618</ele>
        <time>2022-02-24T02:38:18.678Z</time>
      </trkpt>
      <trkpt lat="38.3513" lon="-2.73707">
        <ele>599.771121</ele>
        <time>2022-02-24T02:38:25.435Z</time>
      </trkpt>
      <trkpt lat="38.35133" lon="-2.73686">
        <ele>599.904376</ele>
        <time>2022-02-24T02:38:32.697Z</time>
      </trkpt>
      <trkpt lat="38.3512" lon="-2.73679">
        <ele>600.016009</ele>
        <time>2022-02-24T02:38:36.394Z</time>
      </trkpt>
      <trkpt lat="38.35105" lon="-2.7367">
        <ele>600.007149</ele>
        <time>2022-02-24T02:38:44.580Z</time>
      </trkpt>
      <trkpt lat="38.3509" lon="-2.73662">
        <ele>599.964282</ele>
        <time>2022-02-24T02:38:48.299Z</time>
      </trkpt>
      <trkpt lat="38.35114" lon="-2.73569">
        <ele>599.761271</ele>
        <time>2022-02-24T02:39:05.996Z</time>
      </trkpt>
      <trkpt lat="38.3511" lon="-2.73567">
        <ele>599.751481</ele>
        <time>2022-02-24T02:39:06.681Z</time>
      </trkpt>
      <trkpt lat="38.3509" lon="-2.7355">
        <ele>599.687532</ele>
        <time>2022-02-24T02:39:11.992Z</time>
      </trkpt>
      <trkpt lat="38.35089" lon="-2.73543">
        <ele>599.670631</ele>
        <time>2022-02-24T02:39:13.379Z</time>
      </trkpt>
      <trkpt lat="38.35083" lon="-2.73514">
        <ele>599.609605</ele>
        <time>2022-02-24T02:39:18.218Z</time>
      </trkpt>
      <trkpt lat="38.35048" lon="-2.73526">
        <ele>598.574185</ele>
        <time>2022-02-24T02:39:24.872Z</time>
      </trkpt>
      <trkpt lat="38.35038" lon="-2.73519">
        <ele>597.977392</ele>
        <time>2022-02-24T02:39:26.859Z</time>
      </trkpt>
      <trkpt lat="38.35023" lon="-2.73507">
        <ele>597.104104</ele>
        <time>2022-02-24T02:39:29.588Z</time>
      </trkpt>
      <trkpt lat="38.34984" lon="-2.73493">
        <ele>595.0363</ele>
        <time>2022-02-24T02:39:35.941Z</time>
      </trkpt>
      <trkpt lat="38.34941" lon="-2.7346">
        <ele>592.517582</ele>
        <time>2022-02-24T02:39:43.444Z</time>
      </trkpt>
      <trkpt lat="38.34901" lon="-2.73458">
        <ele>590.534556</ele>
        <time>2022-02-24T02:39:49.439Z</time>
      </trkpt>
      <trkpt lat="38.34863" lon="-2.73456">
        <ele>589.637094</ele>
        <time>2022-02-24T02:39:55.828Z</time>
      </trkpt>
      <trkpt lat="38.34841" lon="-2.73447">
        <ele>589.087974</ele>
        <time>2022-02-24T02:40:00.060Z</time>
      </trkpt>
      <trkpt lat="38.34762" lon="-2.73374">
        <ele>586.79248</ele>
        <time>2022-02-24T02:40:18.007Z</time>
      </trkpt>
      <trkpt lat="38.34757" lon="-2.73368">
        <ele>586.635403</ele>
        <time>2022-02-24T02:40:19.813Z</time>
      </trkpt>
      <trkpt lat="38.34672" lon="-2.73283">
        <ele>586.327123</ele>
        <time>2022-02-24T02:40:45.430Z</time>
      </trkpt>
      <trkpt lat="38.34626" lon="-2.73233">
        <ele>586.342728</ele>
        <time>2022-02-24T02:40:59.452Z</time>
      </trkpt>
      <trkpt lat="38.34555" lon="-2.73113">
        <ele>586.204621</ele>
        <time>2022-02-24T02:41:25.150Z</time>
      </trkpt>
      <trkpt lat="38.34364" lon="-2.7296">
        <ele>585.822061</ele>
        <time>2022-02-24T02:42:13.808Z</time>
      </trkpt>
      <trkpt lat="38.3425" lon="-2.72827">
        <ele>586.112314</ele>
        <time>2022-02-24T02:42:48.454Z</time>
      </trkpt>
      <trkpt lat="38.34219" lon="-2.72761">
        <ele>586.308668</ele>
        <time>2022-02-24T02:43:03.696Z</time>
      </trkpt>
      <trkpt lat="38.34111" lon="-2.72474">
        <ele>589.077366</ele>
        <time>2022-02-24T02:44:14.695Z</time>
      </trkpt>
      <trkpt lat="38.34103" lon="-2.72414">
        <ele>589.573286</ele>
        <time>2022-02-24T02:44:28.259Z</time>
      </trkpt>
      <trkpt lat="38.34107" lon="-2.72319">
        <ele>590.326867</ele>
        <time>2022-02-24T02:44:48.043Z</time>
      </trkpt>
      <trkpt lat="38.34104" lon="-2.72282">
        <ele>590.467013</ele>
        <time>2022-02-24T02:44:55.161Z</time>
      </trkpt>
      <trkpt lat="38.34097" lon="-2.7225">
        <ele>590.593179</ele>
        <time>2022-02-24T02:45:01.431Z</time>
      </trkpt>
      <trkpt lat="38.3404" lon="-2.72109">
        <ele>591.209979</ele>
        <time>2022-02-24T02:45:31.275Z</time>
      </trkpt>
      <trkpt lat="38.34028" lon="-2.7206">
        <ele>591.49132</ele>
        <time>2022-02-24T02:45:41.672Z</time>
      </trkpt>
      <trkpt lat="38.34028" lon="-2.72027">
        <ele>591.680214</ele>
        <time>2022-02-24T02:45:48.620Z</time>
      </trkpt>
      <trkpt lat="38.34045" lon="-2.71926">
        <ele>592.256355</ele>
        <time>2022-02-24T02:46:10.219Z</time>
      </trkpt>
      <trkpt lat="38.34039" lon="-2.7188">
        <ele>592.44978</ele>
        <time>2022-02-24T02:46:19.680Z</time>
      </trkpt>
      <trkpt lat="38.34013" lon="-2.71807">
        <ele>592.452857</ele>
        <time>2022-02-24T02:46:35.029Z</time>
      </trkpt>
      <trkpt lat="38.33921" lon="-2.71709">
        <ele>592.382037</ele>
        <time>2022-02-24T02:47:00.660Z</time>
      </trkpt>
      <trkpt lat="38.33904" lon="-2.71672">
        <ele>592.178144</ele>
        <time>2022-02-24T02:47:07.494Z</time>
      </trkpt>
      <trkpt lat="38.33899" lon="-2.71636">
        <ele>592.004831</ele>
        <time>2022-02-24T02:47:13.309Z</time>
      </trkpt>
      <trkpt lat="38.33902" lon="-2.71604">
        <ele>591.855454</ele>
        <time>2022-02-24T02:47:18.329Z</time>
      </trkpt>
      <trkpt lat="38.33911" lon="-2.71569">
        <ele>591.677274</ele>
        <time>2022-02-24T02:47:24.340Z</time>
      </trkpt>
      <trkpt lat="38.3403" lon="-2.71314">
        <ele>590.50623</ele>
        <time>2022-02-24T02:48:13.218Z</time>
      </trkpt>
      <trkpt lat="38.34055" lon="-2.71253">
        <ele>590.202635</ele>
        <time>2022-02-24T02:48:24.418Z</time>
      </trkpt>
      <trkpt lat="38.34064" lon="-2.71203">
        <ele>589.969266</ele>
        <time>2022-02-24T02:48:32.745Z</time>
      </trkpt>
      <trkpt lat="38.34065" lon="-2.7118">
        <ele>589.866482</ele>
        <time>2022-02-24T02:48:36.326Z</time>
      </trkpt>
      <trkpt lat="38.34081" lon="-2.71121">
        <ele>589.585592</ele>
        <time>2022-02-24T02:48:46.605Z</time>
      </trkpt>
      <trkpt lat="38.34078" lon="-2.71103">
        <ele>589.504674</ele>
        <time>2022-02-24T02:48:49.461Z</time>
      </trkpt>
      <trkpt lat="38.34073" lon="-2.71096">
        <ele>589.521731</ele>
        <time>2022-02-24T02:48:50.940Z</time>
      </trkpt>
      <trkpt lat="38.34045" lon="-2.71081">
        <ele>589.723692</ele>
        <time>2022-02-24T02:48:57.218Z</time>
      </trkpt>
      <trkpt lat="38.34018" lon="-2.7107">
        <ele>589.917898</ele>
        <time>2022-02-24T02:49:03.510Z</time>
      </trkpt>
      <trkpt lat="38.33969" lon="-2.7104">
        <ele>590.283553</ele>
        <time>2022-02-24T02:49:16.704Z</time>
      </trkpt>
      <trkpt lat="38.33948" lon="-2.71021">
        <ele>590.459267</ele>
        <time>2022-02-24T02:49:23.789Z</time>
      </trkpt>
      <trkpt lat="38.33929" lon="-2.70992">
        <ele>590.65432</ele>
        <time>2022-02-24T02:49:32.509Z</time>
      </trkpt>
      <trkpt lat="38.3386" lon="-2.70759">
        <ele>596.339933</ele>
        <time>2022-02-24T02:50:47.040Z</time>
      </trkpt>
      <trkpt lat="38.33839" lon="-2.7072">
        <ele>597.364944</ele>
        <time>2022-02-24T02:51:01.963Z</time>
      </trkpt>
      <trkpt lat="38.33814" lon="-2.70685">
        <ele>598.399169</ele>
        <time>2022-02-24T02:51:16.652Z</time>
      </trkpt>
      <trkpt lat="38.33697" lon="-2.70594">
        <ele>601.530734</ele>
        <time>2022-02-24T02:52:02.713Z</time>
      </trkpt>
      <trkpt lat="38.33484" lon="-2.70446">
        <ele>604.132653</ele>
        <time>2022-02-24T02:53:06.170Z</time>
      </trkpt>
      <trkpt lat="38.33398" lon="-2.70374">
        <ele>605.25869</ele>
        <time>2022-02-24T02:53:34.425Z</time>
      </trkpt>
      <trkpt lat="38.33241" lon="-2.70165">
        <ele>609.054274</ele>
        <time>2022-02-24T02:54:44.778Z</time>
      </trkpt>
      <trkpt lat="38.3315" lon="-2.70067">
        <ele>611.34266</ele>
        <time>2022-02-24T02:55:22.202Z</time>
      </trkpt>
      <trkpt lat="38.33101" lon="-2.70031">
        <ele>612.843608</ele>
        <time>2022-02-24T02:55:41.092Z</time>
      </trkpt>
      <trkpt lat="38.33042" lon="-2.70001">
        <ele>614.495855</ele>
        <time>2022-02-24T02:56:04.382Z</time>
      </trkpt>
      <trkpt lat="38.32944" lon="-2.69986">
        <ele>616.635675</ele>
        <time>2022-02-24T02:56:41.238Z</time>
      </trkpt>
      <trkpt lat="38.32903" lon="-2.69987">
        <ele>617.360679</ele>
        <time>2022-02-24T02:56:55.795Z</time>
      </trkpt>
      <trkpt lat="38.32701" lon="-2.69996">
        <ele>619.008692</ele>
        <time>2022-02-24T02:57:46.666Z</time>
      </trkpt>
      <trkpt lat="38.32453" lon="-2.69932">
        <ele>618.127655</ele>
        <time>2022-02-24T02:58:38.195Z</time>
      </trkpt>
      <trkpt lat="38.32238" lon="-2.69819">
        <ele>620.792682</ele>
        <time>2022-02-24T02:59:44.952Z</time>
      </trkpt>
      <trkpt lat="38.31806" lon="-2.69769">
        <ele>627.57387</ele>
        <time>2022-02-24T03:01:57.495Z</time>
      </trkpt>
      <trkpt lat="38.31562" lon="-2.69782">
        <ele>629.730347</ele>
        <time>2022-02-24T03:03:04.460Z</time>
      </trkpt>
      <trkpt lat="38.31509" lon="-2.69787">
        <ele>629.292143</ele>
        <time>2022-02-24T03:03:14.902Z</time>
      </trkpt>
      <trkpt lat="38.31491" lon="-2.69796">
        <ele>629.129731</ele>
        <time>2022-02-24T03:03:18.592Z</time>
      </trkpt>
      <trkpt lat="38.31491" lon="-2.69853">
        <ele>628.762173</ele>
        <time>2022-02-24T03:03:27.125Z</time>
      </trkpt>
      <trkpt lat="38.31497" lon="-2.6992">
        <ele>628.432963</ele>
        <time>2022-02-24T03:03:37.354Z</time>
      </trkpt>
      <trkpt lat="38.31489" lon="-2.69938">
        <ele>628.499951</ele>
        <time>2022-02-24T03:03:40.659Z</time>
      </trkpt>
      <trkpt lat="38.31446" lon="-2.69953">
        <ele>628.675225</ele>
        <time>2022-02-24T03:03:49.552Z</time>
      </trkpt>
      <trkpt lat="38.31354" lon="-2.69979">
        <ele>629.046938</ele>
        <time>2022-02-24T03:04:15.571Z</time>
      </trkpt>
      <trkpt lat="38.31295" lon="-2.69982">
        <ele>630.013942</ele>
        <time>2022-02-24T03:04:35.251Z</time>
      </trkpt>
      <trkpt lat="38.31163" lon="-2.70032">
        <ele>632.820167</ele>
        <time>2022-02-24T03:05:21.029Z</time>
      </trkpt>
      <trkpt lat="38.31017" lon="-2.70199">
        <ele>636.387741</ele>
        <time>2022-02-24T03:06:22.335Z</time>
      </trkpt>
      <trkpt lat="38.30981" lon="-2.7023">
        <ele>637.029638</ele>
        <time>2022-02-24T03:06:35.693Z</time>
      </trkpt>
      <trkpt lat="38.30758" lon="-2.7036">
        <ele>640.26105</ele>
        <time>2022-02-24T03:07:46.540Z</time>
      </trkpt>
      <trkpt lat="38.30694" lon="-2.70428">
        <ele>641.463871</ele>
        <time>2022-02-24T03:08:08.648Z</time>
      </trkpt>
      <trkpt lat="38.30596" lon="-2.70468">
        <ele>643.344915</ele>
        <time>2022-02-24T03:08:39.084Z</time>
      </trkpt>
      <trkpt lat="38.30534" lon="-2.70473">
        <ele>644.904227</ele>
        <time>2022-02-24T03:09:01.328Z</time>
      </trkpt>
      <trkpt lat="38.30479" lon="-2.70478">
        <ele>647.453557</ele>
        <time>2022-02-24T03:09:24.562Z</time>
      </trkpt>
      <trkpt lat="38.30455" lon="-2.70488">
        <ele>648.594355</ele>
        <time>2022-02-24T03:09:35.666Z</time>
      </trkpt>
      <trkpt lat="38.30177" lon="-2.707">
        <ele>665.506404</ele>
        <time>2022-02-24T03:12:20.523Z</time>
      </trkpt>
      <trkpt lat="38.2989" lon="-2.70914">
        <ele>678.908624</ele>
        <time>2022-02-24T03:14:42.640Z</time>
      </trkpt>
      <trkpt lat="38.29743" lon="-2.7104">
        <ele>682.293579</ele>
        <time>2022-02-24T03:15:35.374Z</time>
      </trkpt>
      <trkpt lat="38.29665" lon="-2.71084">
        <ele>683.214797</ele>
        <time>2022-02-24T03:15:58.247Z</time>
      </trkpt>
      <trkpt lat="38.2964" lon="-2.71109">
        <ele>683.556075</ele>
        <time>2022-02-24T03:16:07.011Z</time>
      </trkpt>
      <trkpt lat="38.29599" lon="-2.71174">
        <ele>683.847377</ele>
        <time>2022-02-24T03:16:25.030Z</time>
      </trkpt>
      <trkpt lat="38.29581" lon="-2.71187">
        <ele>683.811525</ele>
        <time>2022-02-24T03:16:30.718Z</time>
      </trkpt>
      <trkpt lat="38.2955" lon="-2.71187">
        <ele>683.759956</ele>
        <time>2022-02-24T03:16:38.057Z</time>
      </trkpt>
      <trkpt lat="38.29471" lon="-2.71151">
        <ele>683.616832</ele>
        <time>2022-02-24T03:16:55.392Z</time>
      </trkpt>
      <trkpt lat="38.29437" lon="-2.7115">
        <ele>683.120959</ele>
        <time>2022-02-24T03:17:01.701Z</time>
      </trkpt>
      <trkpt lat="38.29285" lon="-2.71234">
        <ele>679.776868</ele>
        <time>2022-02-24T03:17:31.061Z</time>
      </trkpt>
      <trkpt lat="38.29244" lon="-2.71267">
        <ele>679.878904</ele>
        <time>2022-02-24T03:17:40.326Z</time>
      </trkpt>
      <trkpt lat="38.29071" lon="-2.71467">
        <ele>682.783989</ele>
        <time>2022-02-24T03:18:47.591Z</time>
      </trkpt>
      <trkpt lat="38.29019" lon="-2.71519">
        <ele>684.389952</ele>
        <time>2022-02-24T03:19:15.554Z</time>
      </trkpt>
      <trkpt lat="38.28925" lon="-2.71565">
        <ele>687.99887</ele>
        <time>2022-02-24T03:19:59.959Z</time>
      </trkpt>
      <trkpt lat="38.28887" lon="-2.71577">
        <ele>689.416595</ele>
        <time>2022-02-24T03:20:16.938Z</time>
      </trkpt>
      <trkpt lat="38.28706" lon="-2.71566">
        <ele>692.453512</ele>
        <time>2022-02-24T03:21:14.742Z</time>
      </trkpt>
      <trkpt lat="38.28689" lon="-2.7156">
        <ele>692.640911</ele>
        <time>2022-02-24T03:21:18.268Z</time>
      </trkpt>
      <trkpt lat="38.28565" lon="-2.71512">
        <ele>691.605072</ele>
        <time>2022-02-24T03:21:42.346Z</time>
      </trkpt>
      <trkpt lat="38.28478" lon="-2.71543">
        <ele>690.89922</ele>
        <time>2022-02-24T03:21:59.947Z</time>
      </trkpt>
      <trkpt lat="38.28417" lon="-2.71537">
        <ele>691.7002</ele>
        <time>2022-02-24T03:22:15.297Z</time>
      </trkpt>
      <trkpt lat="38.28242" lon="-2.71566">
        <ele>694.862589</ele>
        <time>2022-02-24T03:23:15.703Z</time>
      </trkpt>
      <trkpt lat="38.28173" lon="-2.71547">
        <ele>696.60693</ele>
        <time>2022-02-24T03:23:40.980Z</time>
      </trkpt>
      <trkpt lat="38.28135" lon="-2.71545">
        <ele>697.531092</ele>
        <time>2022-02-24T03:23:54.213Z</time>
      </trkpt>
      <trkpt lat="38.28079" lon="-2.71554">
        <ele>698.586511</ele>
        <time>2022-02-24T03:24:13.100Z</time>
      </trkpt>
      <trkpt lat="38.28042" lon="-2.71578">
        <ele>699.355007</ele>
        <time>2022-02-24T03:24:26.063Z</time>
      </trkpt>
      <trkpt lat="38.27976" lon="-2.71673">
        <ele>701.11006</ele>
        <time>2022-02-24T03:24:56.088Z</time>
      </trkpt>
      <trkpt lat="38.2793" lon="-2.7171">
        <ele>701.846168</ele>
        <time>2022-02-24T03:25:11.640Z</time>
      </trkpt>
      <trkpt lat="38.27831" lon="-2.71767">
        <ele>703.325254</ele>
        <time>2022-02-24T03:25:42.737Z</time>
      </trkpt>
      <trkpt lat="38.27752" lon="-2.71828">
        <ele>704.589877</ele>
        <time>2022-02-24T03:26:09.685Z</time>
      </trkpt>
      <trkpt lat="38.27505" lon="-2.71978">
        <ele>708.507637</ele>
        <time>2022-02-24T03:27:29.057Z</time>
      </trkpt>
      <trkpt lat="38.27485" lon="-2.7199">
        <ele>708.974548</ele>
        <time>2022-02-24T03:27:35.972Z</time>
      </trkpt>
      <trkpt lat="38.27415" lon="-2.72026">
        <ele>710.598035</ele>
        <time>2022-02-24T03:28:01.099Z</time>
      </trkpt>
      <trkpt lat="38.27239" lon="-2.72096">
        <ele>714.553911</ele>
        <time>2022-02-24T03:29:05.017Z</time>
      </trkpt>
      <trkpt lat="38.27108" lon="-2.7214">
        <ele>716.92676</ele>
        <time>2022-02-24T03:29:45.907Z</time>
      </trkpt>
      <trkpt lat="38.26992" lon="-2.7219">
        <ele>718.717691</ele>
        <time>2022-02-24T03:30:19.962Z</time>
      </trkpt>
      <trkpt lat="38.26967" lon="-2.72194">
        <ele>719.292001</ele>
        <time>2022-02-24T03:30:28.001Z</time>
      </trkpt>
      <trkpt lat="38.26876" lon="-2.72186">
        <ele>721.295345</ele>
        <time>2022-02-24T03:30:57.359Z</time>
      </trkpt>
      <trkpt lat="38.26813" lon="-2.72202">
        <ele>722.850343</ele>
        <time>2022-02-24T03:31:21.290Z</time>
      </trkpt>
      <trkpt lat="38.26766" lon="-2.7219">
        <ele>724.43852</ele>
        <time>2022-02-24T03:31:40.010Z</time>
      </trkpt>
      <trkpt lat="38.26673" lon="-2.72143">
        <ele>727.747145</ele>
        <time>2022-02-24T03:32:20.501Z</time>
      </trkpt>
      <trkpt lat="38.26668" lon="-2.7214">
        <ele>727.925195</ele>
        <time>2022-02-24T03:32:22.580Z</time>
      </trkpt>
      <trkpt lat="38.26618" lon="-2.72113">
        <ele>729.248059</ele>
        <time>2022-02-24T03:32:43.325Z</time>
      </trkpt>
      <trkpt lat="38.26536" lon="-2.72052">
        <ele>731.189926</ele>
        <time>2022-02-24T03:33:14.554Z</time>
      </trkpt>
      <trkpt lat="38.26462" lon="-2.72012">
        <ele>732.412972</ele>
        <time>2022-02-24T03:33:35.736Z</time>
      </trkpt>
      <trkpt lat="38.26424" lon="-2.72002">
        <ele>732.704087</ele>
        <time>2022-02-24T03:33:45.155Z</time>
      </trkpt>
      <trkpt lat="38.26393" lon="-2.72018">
        <ele>732.963636</ele>
        <time>2022-02-24T03:33:53.656Z</time>
      </trkpt>
      <trkpt lat="38.2634" lon="-2.72067">
        <ele>733.46062</ele>
        <time>2022-02-24T03:34:10.472Z</time>
      </trkpt>
      <trkpt lat="38.2632" lon="-2.72076">
        <ele>733.727097</ele>
        <time>2022-02-24T03:34:16.247Z</time>
      </trkpt>
      <trkpt lat="38.26226" lon="-2.721">
        <ele>735.181677</ele>
        <time>2022-02-24T03:34:44.408Z</time>
      </trkpt>
      <trkpt lat="38.26039" lon="-2.72119">
        <ele>738.316159</ele>
        <time>2022-02-24T03:35:43.911Z</time>
      </trkpt>
      <trkpt lat="38.25971" lon="-2.72103">
        <ele>739.466113</ele>
        <time>2022-02-24T03:36:04.622Z</time>
      </trkpt>
      <trkpt lat="38.25942" lon="-2.72114">
        <ele>739.718011</ele>
        <time>2022-02-24T03:36:13.550Z</time>
      </trkpt>
      <trkpt lat="38.25898" lon="-2.7214">
        <ele>740.11102</ele>
        <time>2022-02-24T03:36:26.843Z</time>
      </trkpt>
      <trkpt lat="38.25834" lon="-2.72154">
        <ele>740.639106</ele>
        <time>2022-02-24T03:36:42.975Z</time>
      </trkpt>
      <trkpt lat="38.25789" lon="-2.72182">
        <ele>740.946147</ele>
        <time>2022-02-24T03:36:54.781Z</time>
      </trkpt>
      <trkpt lat="38.25734" lon="-2.72218">
        <ele>741.150235</ele>
        <time>2022-02-24T03:37:09.165Z</time>
      </trkpt>
      <trkpt lat="38.25696" lon="-2.72238">
        <ele>741.28602</ele>
        <time>2022-02-24T03:37:18.292Z</time>
      </trkpt>
      <trkpt lat="38.25557" lon="-2.72287">
        <ele>742.859534</ele>
        <time>2022-02-24T03:37:55.068Z</time>
      </trkpt>
      <trkpt lat="38.25254" lon="-2.72395">
        <ele>750.015832</ele>
        <time>2022-02-24T03:39:44.515Z</time>
      </trkpt>
      <trkpt lat="38.25162" lon="-2.72439">
        <ele>752.681679</ele>
        <time>2022-02-24T03:40:20.869Z</time>
      </trkpt>
      <trkpt lat="38.25151" lon="-2.72444">
        <ele>753.007381</ele>
        <time>2022-02-24T03:40:25.203Z</time>
      </trkpt>
      <trkpt lat="38.25129" lon="-2.72456">
        <ele>753.656263</ele>
        <time>2022-02-24T03:40:33.757Z</time>
      </trkpt>
      <trkpt lat="38.25124" lon="-2.72458">
        <ele>753.787343</ele>
        <time>2022-02-24T03:40:35.542Z</time>
      </trkpt>
      <trkpt lat="38.25096" lon="-2.72474">
        <ele>754.400149</ele>
        <time>2022-02-24T03:40:46.241Z</time>
      </trkpt>
      <trkpt lat="38.25027" lon="-2.72509">
        <ele>755.875349</ele>
        <time>2022-02-24T03:41:09.978Z</time>
      </trkpt>
      <trkpt lat="38.2501" lon="-2.72515">
        <ele>756.222088</ele>
        <time>2022-02-24T03:41:15.217Z</time>
      </trkpt>
      <trkpt lat="38.24951" lon="-2.72539">
        <ele>757.427419</ele>
        <time>2022-02-24T03:41:34.617Z</time>
      </trkpt>
      <trkpt lat="38.24907" lon="-2.72544">
        <ele>758.063228</ele>
        <time>2022-02-24T03:41:47.902Z</time>
      </trkpt>
      <trkpt lat="38.24855" lon="-2.72547">
        <ele>758.817338</ele>
        <time>2022-02-24T03:42:02.585Z</time>
      </trkpt>
      <trkpt lat="38.2485" lon="-2.72548">
        <ele>758.891368</ele>
        <time>2022-02-24T03:42:04.047Z</time>
      </trkpt>
      <trkpt lat="38.24827" lon="-2.72555">
        <ele>759.229733</ele>
        <time>2022-02-24T03:42:10.590Z</time>
      </trkpt>
      <trkpt lat="38.24805" lon="-2.72562">
        <ele>759.558203</ele>
        <time>2022-02-24T03:42:17.148Z</time>
      </trkpt>
      <trkpt lat="38.24779" lon="-2.72567">
        <ele>759.94077</ele>
        <time>2022-02-24T03:42:25.196Z</time>
      </trkpt>
      <trkpt lat="38.2473" lon="-2.72567">
        <ele>760.254074</ele>
        <time>2022-02-24T03:42:40.266Z</time>
      </trkpt>
      <trkpt lat="38.24712" lon="-2.72575">
        <ele>760.37645</ele>
        <time>2022-02-24T03:42:45.945Z</time>
      </trkpt>
      <trkpt lat="38.24712" lon="-2.72586">
        <ele>760.429573</ele>
        <time>2022-02-24T03:42:48.395Z</time>
      </trkpt>
      <trkpt lat="38.24707" lon="-2.72591">
        <ele>760.469837</ele>
        <time>2022-02-24T03:42:50.203Z</time>
      </trkpt>
      <trkpt lat="38.24696" lon="-2.72585">
        <ele>760.55129</ele>
        <time>2022-02-24T03:42:53.784Z</time>
      </trkpt>
      <trkpt lat="38.24685" lon="-2.72592">
        <ele>760.629112</ele>
        <time>2022-02-24T03:42:57.027Z</time>
      </trkpt>
      <trkpt lat="38.24653" lon="-2.72567">
        <ele>760.868655</ele>
        <time>2022-02-24T03:43:06.093Z</time>
      </trkpt>
      <trkpt lat="38.24625" lon="-2.72621">
        <ele>760.682481</ele>
        <time>2022-02-24T03:43:16.945Z</time>
      </trkpt>
      <trkpt lat="38.24628" lon="-2.72629">
        <ele>760.524176</ele>
        <time>2022-02-24T03:43:18.244Z</time>
      </trkpt>
      <trkpt lat="38.24602" lon="-2.72644">
        <ele>759.816848</ele>
        <time>2022-02-24T03:43:24.005Z</time>
      </trkpt>
      <trkpt lat="38.24587" lon="-2.72653">
        <ele>759.425126</ele>
        <time>2022-02-24T03:43:27.190Z</time>
      </trkpt>
      <trkpt lat="38.2454" lon="-2.72683">
        <ele>758.107433</ele>
        <time>2022-02-24T03:43:37.203Z</time>
      </trkpt>
      <trkpt lat="38.24473" lon="-2.72726">
        <ele>755.830971</ele>
        <time>2022-02-24T03:43:50.082Z</time>
      </trkpt>
      <trkpt lat="38.24445" lon="-2.72752">
        <ele>753.971397</ele>
        <time>2022-02-24T03:43:56.087Z</time>
      </trkpt>
      <trkpt lat="38.24445" lon="-2.7276">
        <ele>753.644424</ele>
        <time>2022-02-24T03:43:57.070Z</time>
      </trkpt>
      <trkpt lat="38.24349" lon="-2.72786">
        <ele>748.456951</ele>
        <time>2022-02-24T03:44:12.314Z</time>
      </trkpt>
      <trkpt lat="38.24291" lon="-2.72784">
        <ele>744.673627</ele>
        <time>2022-02-24T03:44:21.137Z</time>
      </trkpt>
      <trkpt lat="38.24269" lon="-2.72785">
        <ele>743.077196</ele>
        <time>2022-02-24T03:44:24.464Z</time>
      </trkpt>
      <trkpt lat="38.24259" lon="-2.72791">
        <ele>742.28783</ele>
        <time>2022-02-24T03:44:26.028Z</time>
      </trkpt>
      <trkpt lat="38.2425" lon="-2.72797">
        <ele>741.539051</ele>
        <time>2022-02-24T03:44:27.494Z</time>
      </trkpt>
      <trkpt lat="38.24237" lon="-2.72818">
        <ele>739.969658</ele>
        <time>2022-02-24T03:44:30.760Z</time>
      </trkpt>
      <trkpt lat="38.24218" lon="-2.72898">
        <ele>735.180146</ele>
        <time>2022-02-24T03:44:40.360Z</time>
      </trkpt>
      <trkpt lat="38.24202" lon="-2.72919">
        <ele>733.538756</ele>
        <time>2022-02-24T03:44:43.679Z</time>
      </trkpt>
      <trkpt lat="38.2411" lon="-2.72951">
        <ele>727.668045</ele>
        <time>2022-02-24T03:44:58.040Z</time>
      </trkpt>
      <trkpt lat="38.24091" lon="-2.72949">
        <ele>726.531167</ele>
        <time>2022-02-24T03:45:00.943Z</time>
      </trkpt>
      <trkpt lat="38.2407" lon="-2.72927">
        <ele>724.834772</ele>
        <time>2022-02-24T03:45:05.305Z</time>
      </trkpt>
      <trkpt lat="38.24059" lon="-2.72848">
        <ele>721.114401</ele>
        <time>2022-02-24T03:45:15.641Z</time>
      </trkpt>
      <trkpt lat="38.24041" lon="-2.72831">
        <ele>719.840859</ele>
        <time>2022-02-24T03:45:19.257Z</time>
      </trkpt>
      <trkpt lat="38.23976" lon="-2.72813">
        <ele>716.03695</ele>
        <time>2022-02-24T03:45:29.744Z</time>
      </trkpt>
      <trkpt lat="38.23947" lon="-2.72811">
        <ele>714.377502</ele>
        <time>2022-02-24T03:45:34.210Z</time>
      </trkpt>
      <trkpt lat="38.23791" lon="-2.72854">
        <ele>703.25016</ele>
        <time>2022-02-24T03:45:57.734Z</time>
      </trkpt>
      <trkpt lat="38.23756" lon="-2.72881">
        <ele>700.253473</ele>
        <time>2022-02-24T03:46:03.807Z</time>
      </trkpt>
      <trkpt lat="38.23732" lon="-2.72888">
        <ele>698.9494</ele>
        <time>2022-02-24T03:46:07.570Z</time>
      </trkpt>
      <trkpt lat="38.23655" lon="-2.72856">
        <ele>695.885053</ele>
        <time>2022-02-24T03:46:20.642Z</time>
      </trkpt>
      <trkpt lat="38.23608" lon="-2.72856">
        <ele>694.097886</ele>
        <time>2022-02-24T03:46:29.061Z</time>
      </trkpt>
      <trkpt lat="38.23538" lon="-2.72829">
        <ele>691.891703</ele>
        <time>2022-02-24T03:46:42.702Z</time>
      </trkpt>
      <trkpt lat="38.2341" lon="-2.72834">
        <ele>689.156702</ele>
        <time>2022-02-24T03:47:05.842Z</time>
      </trkpt>
      <trkpt lat="38.23368" lon="-2.72819">
        <ele>688.141306</ele>
        <time>2022-02-24T03:47:13.749Z</time>
      </trkpt>
      <trkpt lat="38.2333" lon="-2.72794">
        <ele>687.096123</ele>
        <time>2022-02-24T03:47:21.499Z</time>
      </trkpt>
      <trkpt lat="38.23228" lon="-2.72704">
        <ele>684.075274</ele>
        <time>2022-02-24T03:47:43.391Z</time>
      </trkpt>
      <trkpt lat="38.23099" lon="-2.72499">
        <ele>679.230373</ele>
        <time>2022-02-24T03:48:19.915Z</time>
      </trkpt>
      <trkpt lat="38.23086" lon="-2.7249">
        <ele>679.016797</ele>
        <time>2022-02-24T03:48:22.571Z</time>
      </trkpt>
      <trkpt lat="38.23067" lon="-2.72484">
        <ele>678.718731</ele>
        <time>2022-02-24T03:48:26.395Z</time>
      </trkpt>
      <trkpt lat="38.2305" lon="-2.72491">
        <ele>678.458374</ele>
        <time>2022-02-24T03:48:29.700Z</time>
      </trkpt>
      <trkpt lat="38.22973" lon="-2.72551">
        <ele>677.162702</ele>
        <time>2022-02-24T03:48:47.762Z</time>
      </trkpt>
      <trkpt lat="38.22959" lon="-2.72575">
        <ele>677.105173</ele>
        <time>2022-02-24T03:48:52.685Z</time>
      </trkpt>
      <trkpt lat="38.22949" lon="-2.72611">
        <ele>677.032184</ele>
        <time>2022-02-24T03:48:59.038Z</time>
      </trkpt>
      <trkpt lat="38.22833" lon="-2.72719">
        <ele>676.58321</ele>
        <time>2022-02-24T03:49:30.887Z</time>
      </trkpt>
      <trkpt lat="38.228" lon="-2.72735">
        <ele>676.324822</ele>
        <time>2022-02-24T03:49:38.802Z</time>
      </trkpt>
      <trkpt lat="38.2278" lon="-2.72744">
        <ele>676.170058</ele>
        <time>2022-02-24T03:49:43.864Z</time>
      </trkpt>
      <trkpt lat="38.22718" lon="-2.72757">
        <ele>675.717838</ele>
        <time>2022-02-24T03:49:56.495Z</time>
      </trkpt>
      <trkpt lat="38.22654" lon="-2.72793">
        <ele>674.530957</ele>
        <time>2022-02-24T03:50:09.722Z</time>
      </trkpt>
      <trkpt lat="38.22435" lon="-2.72952">
        <ele>667.189681</ele>
        <time>2022-02-24T03:50:52.249Z</time>
      </trkpt>
      <trkpt lat="38.22364" lon="-2.72969">
        <ele>665.186912</ele>
        <time>2022-02-24T03:51:05.313Z</time>
      </trkpt>
      <trkpt lat="38.22284" lon="-2.72962">
        <ele>663.835657</ele>
        <time>2022-02-24T03:51:21.041Z</time>
      </trkpt>
      <trkpt lat="38.22176" lon="-2.72999">
        <ele>661.966817</ele>
        <time>2022-02-24T03:51:42.421Z</time>
      </trkpt>
      <trkpt lat="38.22144" lon="-2.72999">
        <ele>660.952531</ele>
        <time>2022-02-24T03:51:48.015Z</time>
      </trkpt>
      <trkpt lat="38.22122" lon="-2.73001">
        <ele>660.217914</ele>
        <time>2022-02-24T03:51:51.876Z</time>
      </trkpt>
      <trkpt lat="38.22089" lon="-2.73017">
        <ele>659.094004</ele>
        <time>2022-02-24T03:51:57.834Z</time>
      </trkpt>
      <trkpt lat="38.2205" lon="-2.73026">
        <ele>657.837014</ele>
        <time>2022-02-24T03:52:04.389Z</time>
      </trkpt>
      <trkpt lat="38.22033" lon="-2.73038">
        <ele>657.220261</ele>
        <time>2022-02-24T03:52:07.605Z</time>
      </trkpt>
      <trkpt lat="38.22029" lon="-2.73034">
        <ele>657.044643</ele>
        <time>2022-02-24T03:52:08.464Z</time>
      </trkpt>
      <trkpt lat="38.21952" lon="-2.7304">
        <ele>655.272791</ele>
        <time>2022-02-24T03:52:21.927Z</time>
      </trkpt>
      <trkpt lat="38.21878" lon="-2.73029">
        <ele>653.770227</ele>
        <time>2022-02-24T03:52:36.346Z</time>
      </trkpt>
      <trkpt lat="38.21753" lon="-2.72991">
        <ele>652.817807</ele>
        <time>2022-02-24T03:53:05.995Z</time>
      </trkpt>
      <trkpt lat="38.2174" lon="-2.72992">
        <ele>652.818196</ele>
        <time>2022-02-24T03:53:12.866Z</time>
      </trkpt>
      <trkpt lat="38.21735" lon="-2.72999">
        <ele>652.818439</ele>
        <time>2022-02-24T03:53:14.195Z</time>
      </trkpt>
      <trkpt lat="38.21717" lon="-2.7305">
        <ele>652.819824</ele>
        <time>2022-02-24T03:53:24.279Z</time>
      </trkpt>
      <trkpt lat="38.21702" lon="-2.73067">
        <ele>652.820451</ele>
        <time>2022-02-24T03:53:30.680Z</time>
      </trkpt>
      <trkpt lat="38.2169" lon="-2.73072">
        <ele>652.820859</ele>
        <time>2022-02-24T03:53:32.905Z</time>
      </trkpt>
      <trkpt lat="38.21608" lon="-2.73072">
        <ele>651.338355</ele>
        <time>2022-02-24T03:53:49.973Z</time>
      </trkpt>
      <trkpt lat="38.21565" lon="-2.73056">
        <ele>650.521723</ele>
        <time>2022-02-24T03:53:58.025Z</time>
      </trkpt>
      <trkpt lat="38.21544" lon="-2.73044">
        <ele>650.08209</ele>
        <time>2022-02-24T03:54:02.456Z</time>
      </trkpt>
      <trkpt lat="38.21502" lon="-2.73044">
        <ele>649.473864</ele>
        <time>2022-02-24T03:54:10.112Z</time>
      </trkpt>
      <trkpt lat="38.21452" lon="-2.73062">
        <ele>649.368554</ele>
        <time>2022-02-24T03:54:19.989Z</time>
      </trkpt>
      <trkpt lat="38.21437" lon="-2.73074">
        <ele>649.333474</ele>
        <time>2022-02-24T03:54:23.417Z</time>
      </trkpt>
      <trkpt lat="38.21419" lon="-2.731">
        <ele>649.277499</ele>
        <time>2022-02-24T03:54:29.675Z</time>
      </trkpt>
      <trkpt lat="38.21403" lon="-2.73108">
        <ele>649.24387</ele>
        <time>2022-02-24T03:54:34.519Z</time>
      </trkpt>
      <trkpt lat="38.21388" lon="-2.73109">
        <ele>649.211934</ele>
        <time>2022-02-24T03:54:39.333Z</time>
      </trkpt>
      <trkpt lat="38.21378" lon="-2.73104">
        <ele>649.190878</ele>
        <time>2022-02-24T03:54:42.867Z</time>
      </trkpt>
      <trkpt lat="38.21347" lon="-2.73056">
        <ele>649.543842</ele>
        <time>2022-02-24T03:54:59.844Z</time>
      </trkpt>
      <trkpt lat="38.21322" lon="-2.73024">
        <ele>650.346562</ele>
        <time>2022-02-24T03:55:12.292Z</time>
      </trkpt>
      <trkpt lat="38.21311" lon="-2.73017">
        <ele>650.614482</ele>
        <time>2022-02-24T03:55:16.526Z</time>
      </trkpt>
      <trkpt lat="38.21241" lon="-2.73028">
        <ele>652.21141</ele>
        <time>2022-02-24T03:55:41.688Z</time>
      </trkpt>
      <trkpt lat="38.21106" lon="-2.73072">
        <ele>654.347041</ele>
        <time>2022-02-24T03:56:28.408Z</time>
      </trkpt>
      <trkpt lat="38.20989" lon="-2.73083">
        <ele>655.472281</ele>
        <time>2022-02-24T03:56:56.624Z</time>
      </trkpt>
      <trkpt lat="38.20972" lon="-2.73098">
        <ele>655.542047</ele>
        <time>2022-02-24T03:57:01.790Z</time>
      </trkpt>
      <trkpt lat="38.20904" lon="-2.73086">
        <ele>655.76908</ele>
        <time>2022-02-24T03:57:18.860Z</time>
      </trkpt>
      <trkpt lat="38.20863" lon="-2.73071">
        <ele>655.90998</ele>
        <time>2022-02-24T03:57:29.634Z</time>
      </trkpt>
      <trkpt lat="38.20531" lon="-2.73044">
        <ele>656.939271</ele>
        <time>2022-02-24T03:58:53.711Z</time>
      </trkpt>
      <trkpt lat="38.20505" lon="-2.73069">
        <ele>656.992059</ele>
        <time>2022-02-24T03:59:01.186Z</time>
      </trkpt>
      <trkpt lat="38.20338" lon="-2.73118">
        <ele>655.508777</ele>
        <time>2022-02-24T03:59:36.866Z</time>
      </trkpt>
      <trkpt lat="38.20161" lon="-2.731">
        <ele>652.931265</ele>
        <time>2022-02-24T04:00:12.946Z</time>
      </trkpt>
      <trkpt lat="38.20127" lon="-2.73088">
        <ele>652.1584</ele>
        <time>2022-02-24T04:00:19.527Z</time>
      </trkpt>
      <trkpt lat="38.20092" lon="-2.73066">
        <ele>650.992772</ele>
        <time>2022-02-24T04:00:26.555Z</time>
      </trkpt>
      <trkpt lat="38.19977" lon="-2.73169">
        <ele>647.093946</ele>
        <time>2022-02-24T04:00:51.789Z</time>
      </trkpt>
      <trkpt lat="38.19928" lon="-2.73173">
        <ele>646.603917</ele>
        <time>2022-02-24T04:01:00.630Z</time>
      </trkpt>
      <trkpt lat="38.19896" lon="-2.73144">
        <ele>646.203412</ele>
        <time>2022-02-24T04:01:08.504Z</time>
      </trkpt>
      <trkpt lat="38.19894" lon="-2.73096">
        <ele>645.820181</ele>
        <time>2022-02-24T04:01:16.926Z</time>
      </trkpt>
      <trkpt lat="38.19939" lon="-2.7293">
        <ele>648.396402</ele>
        <time>2022-02-24T04:02:02.656Z</time>
      </trkpt>
      <trkpt lat="38.19939" lon="-2.72793">
        <ele>652.112402</ele>
        <time>2022-02-24T04:02:49.965Z</time>
      </trkpt>
      <trkpt lat="38.19964" lon="-2.72666">
        <ele>657.184086</ele>
        <time>2022-02-24T04:03:39.979Z</time>
      </trkpt>
      <trkpt lat="38.19937" lon="-2.72636">
        <ele>658.926229</ele>
        <time>2022-02-24T04:03:57.286Z</time>
      </trkpt>
      <trkpt lat="38.19918" lon="-2.72638">
        <ele>659.855658</ele>
        <time>2022-02-24T04:04:07.303Z</time>
      </trkpt>
      <trkpt lat="38.19859" lon="-2.7271">
        <ele>663.287489</ele>
        <time>2022-02-24T04:04:48.231Z</time>
      </trkpt>
      <trkpt lat="38.19798" lon="-2.72868">
        <ele>667.697096</ele>
        <time>2022-02-24T04:05:42.355Z</time>
      </trkpt>
      <trkpt lat="38.19756" lon="-2.72921">
        <ele>668.404019</ele>
        <time>2022-02-24T04:06:00.446Z</time>
      </trkpt>
      <trkpt lat="38.19726" lon="-2.7297">
        <ele>668.987749</ele>
        <time>2022-02-24T04:06:12.098Z</time>
      </trkpt>
      <trkpt lat="38.19691" lon="-2.73053">
        <ele>668.625273</ele>
        <time>2022-02-24T04:06:27.557Z</time>
      </trkpt>
      <trkpt lat="38.19621" lon="-2.73097">
        <ele>667.529976</ele>
        <time>2022-02-24T04:06:43.409Z</time>
      </trkpt>
      <trkpt lat="38.19574" lon="-2.73102">
        <ele>666.863332</ele>
        <time>2022-02-24T04:06:52.681Z</time>
      </trkpt>
      <trkpt lat="38.19565" lon="-2.73107">
        <ele>666.777071</ele>
        <time>2022-02-24T04:06:54.893Z</time>
      </trkpt>
      <trkpt lat="38.19568" lon="-2.73123">
        <ele>666.811142</ele>
        <time>2022-02-24T04:06:56.998Z</time>
      </trkpt>
      <trkpt lat="38.19598" lon="-2.73153">
        <ele>666.909389</ele>
        <time>2022-02-24T04:07:03.862Z</time>
      </trkpt>
      <trkpt lat="38.19611" lon="-2.73178">
        <ele>666.969707</ele>
        <time>2022-02-24T04:07:11.130Z</time>
      </trkpt>
      <trkpt lat="38.19601" lon="-2.73201">
        <ele>667.023489</ele>
        <time>2022-02-24T04:07:14.905Z</time>
      </trkpt>
      <trkpt lat="38.19611" lon="-2.73218">
        <ele>667.065306</ele>
        <time>2022-02-24T04:07:23.355Z</time>
      </trkpt>
      <trkpt lat="38.1965" lon="-2.7322">
        <ele>667.164401</ele>
        <time>2022-02-24T04:07:35.746Z</time>
      </trkpt>
      <trkpt lat="38.19659" lon="-2.73234">
        <ele>667.200677</ele>
        <time>2022-02-24T04:07:38.174Z</time>
      </trkpt>
      <trkpt lat="38.19609" lon="-2.73236">
        <ele>669.70301</ele>
        <time>2022-02-24T04:08:09.044Z</time>
      </trkpt>
      <trkpt lat="38.19585" lon="-2.73274">
        <ele>672.152792</ele>
        <time>2022-02-24T04:08:33.498Z</time>
      </trkpt>
      <trkpt lat="38.1953" lon="-2.73313">
        <ele>676.229999</ele>
        <time>2022-02-24T04:09:17.740Z</time>
      </trkpt>
      <trkpt lat="38.1948" lon="-2.73314">
        <ele>679.538752</ele>
        <time>2022-02-24T04:10:03.853Z</time>
      </trkpt>
      <trkpt lat="38.19396" lon="-2.7334">
        <ele>686.014593</ele>
        <time>2022-02-24T04:11:13.227Z</time>
      </trkpt>
      <trkpt lat="38.19289" lon="-2.73309">
        <ele>693.423234</ele>
        <time>2022-02-24T04:12:27.863Z</time>
      </trkpt>
      <trkpt lat="38.19213" lon="-2.73305">
        <ele>696.63653</ele>
        <time>2022-02-24T04:13:09.010Z</time>
      </trkpt>
      <trkpt lat="38.19184" lon="-2.73287">
        <ele>698.020304</ele>
        <time>2022-02-24T04:13:26.483Z</time>
      </trkpt>
      <trkpt lat="38.19166" lon="-2.7329">
        <ele>698.786206</ele>
        <time>2022-02-24T04:13:36.643Z</time>
      </trkpt>
      <trkpt lat="38.19104" lon="-2.73254">
        <ele>702.913104</ele>
        <time>2022-02-24T04:14:16.580Z</time>
      </trkpt>
      <trkpt lat="38.19086" lon="-2.73264">
        <ele>704.371864</ele>
        <time>2022-02-24T04:14:28.779Z</time>
      </trkpt>
      <trkpt lat="38.19039" lon="-2.73259">
        <ele>707.789777</ele>
        <time>2022-02-24T04:15:03.416Z</time>
      </trkpt>
      <trkpt lat="38.18936" lon="-2.73263">
        <ele>716.71302</ele>
        <time>2022-02-24T04:16:30.902Z</time>
      </trkpt>
      <trkpt lat="38.18909" lon="-2.73204">
        <ele>722.929442</ele>
        <time>2022-02-24T04:17:16.288Z</time>
      </trkpt>
      <trkpt lat="38.18889" lon="-2.73103">
        <ele>732.403834</ele>
        <time>2022-02-24T04:18:26.123Z</time>
      </trkpt>
      <trkpt lat="38.18876" lon="-2.7306">
        <ele>736.49143</ele>
        <time>2022-02-24T04:18:57.670Z</time>
      </trkpt>
      <trkpt lat="38.18867" lon="-2.73041">
        <ele>738.335429</ele>
        <time>2022-02-24T04:19:11.930Z</time>
      </trkpt>
      <trkpt lat="38.18836" lon="-2.73004">
        <ele>742.939166</ele>
        <time>2022-02-24T04:19:41.846Z</time>
      </trkpt>
      <trkpt lat="38.18796" lon="-2.7292">
        <ele>751.371101</ele>
        <time>2022-02-24T04:20:43.388Z</time>
      </trkpt>
      <trkpt lat="38.18821" lon="-2.72875">
        <ele>755.73164</ele>
        <time>2022-02-24T04:21:14.588Z</time>
      </trkpt>
      <trkpt lat="38.18833" lon="-2.72861">
        <ele>757.356135</ele>
        <time>2022-02-24T04:21:27.471Z</time>
      </trkpt>
      <trkpt lat="38.18838" lon="-2.72846">
        <ele>758.528531</ele>
        <time>2022-02-24T04:21:33.924Z</time>
      </trkpt>
      <trkpt lat="38.18835" lon="-2.7281">
        <ele>761.259862</ele>
        <time>2022-02-24T04:21:53.327Z</time>
      </trkpt>
      <trkpt lat="38.18822" lon="-2.72809">
        <ele>762.499983</ele>
        <time>2022-02-24T04:21:59.061Z</time>
      </trkpt>
      <trkpt lat="38.1877" lon="-2.72799">
        <ele>767.542287</ele>
        <time>2022-02-24T04:22:34.852Z</time>
      </trkpt>
      <trkpt lat="38.18678" lon="-2.72733">
        <ele>779.155974</ele>
        <time>2022-02-24T04:24:01.158Z</time>
      </trkpt>
      <trkpt lat="38.18663" lon="-2.72731">
        <ele>780.972134</ele>
        <time>2022-02-24T04:24:11.457Z</time>
      </trkpt>
      <trkpt lat="38.18643" lon="-2.72737">
        <ele>783.303084</ele>
        <time>2022-02-24T04:24:29.783Z</time>
      </trkpt>
      <trkpt lat="38.1863" lon="-2.72751">
        <ele>785.358155</ele>
        <time>2022-02-24T04:24:41.398Z</time>
      </trkpt>
      <trkpt lat="38.18608" lon="-2.72805">
        <ele>790.931666</ele>
        <time>2022-02-24T04:25:20.978Z</time>
      </trkpt>
      <trkpt lat="38.18598" lon="-2.72811">
        <ele>792.38831</ele>
        <time>2022-02-24T04:25:29.881Z</time>
      </trkpt>
      <trkpt lat="38.18588" lon="-2.72809">
        <ele>793.902572</ele>
        <time>2022-02-24T04:25:36.409Z</time>
      </trkpt>
      <trkpt lat="38.18578" lon="-2.72796">
        <ele>796.226612</ele>
        <time>2022-02-24T04:25:51.589Z</time>
      </trkpt>
      <trkpt lat="38.18573" lon="-2.72717">
        <ele>806.11393</ele>
        <time>2022-02-24T04:26:50.214Z</time>
      </trkpt>
      <trkpt lat="38.1856" lon="-2.72702">
        <ele>808.872529</ele>
        <time>2022-02-24T04:27:07.809Z</time>
      </trkpt>
      <trkpt lat="38.18547" lon="-2.727">
        <ele>810.954169</ele>
        <time>2022-02-24T04:27:19.978Z</time>
      </trkpt>
      <trkpt lat="38.18474" lon="-2.72729">
        <ele>823.585674</ele>
        <time>2022-02-24T04:28:52.220Z</time>
      </trkpt>
      <trkpt lat="38.18381" lon="-2.72719">
        <ele>841.035383</ele>
        <time>2022-02-24T04:30:43.911Z</time>
      </trkpt>
      <trkpt lat="38.18351" lon="-2.72722">
        <ele>846.710695</ele>
        <time>2022-02-24T04:31:22.284Z</time>
      </trkpt>
      <trkpt lat="38.18324" lon="-2.72736">
        <ele>852.316894</ele>
        <time>2022-02-24T04:31:54.362Z</time>
      </trkpt>
      <trkpt lat="38.18269" lon="-2.72789">
        <ele>860.343057</ele>
        <time>2022-02-24T04:33:04.817Z</time>
      </trkpt>
      <trkpt lat="38.18246" lon="-2.72792">
        <ele>862.776931</ele>
        <time>2022-02-24T04:33:25.873Z</time>
      </trkpt>
      <trkpt lat="38.18236" lon="-2.72785">
        <ele>863.918991</ele>
        <time>2022-02-24T04:33:34.963Z</time>
      </trkpt>
      <trkpt lat="38.18231" lon="-2.72773">
        <ele>865.10266</ele>
        <time>2022-02-24T04:33:46.154Z</time>
      </trkpt>
      <trkpt lat="38.18231" lon="-2.72755">
        <ele>866.552153</ele>
        <time>2022-02-24T04:33:52.134Z</time>
      </trkpt>
      <trkpt lat="38.18238" lon="-2.72741">
        <ele>867.888597</ele>
        <time>2022-02-24T04:33:56.692Z</time>
      </trkpt>
      <trkpt lat="38.18283" lon="-2.72705">
        <ele>873.228203</ele>
        <time>2022-02-24T04:34:19.852Z</time>
      </trkpt>
      <trkpt lat="38.18351" lon="-2.7267">
        <ele>876.636646</ele>
        <time>2022-02-24T04:34:47.282Z</time>
      </trkpt>
      <trkpt lat="38.18362" lon="-2.72659">
        <ele>877.256803</ele>
        <time>2022-02-24T04:34:51.103Z</time>
      </trkpt>
      <trkpt lat="38.18366" lon="-2.72643">
        <ele>877.858397</ele>
        <time>2022-02-24T04:34:56.895Z</time>
      </trkpt>
      <trkpt lat="38.18365" lon="-2.72628">
        <ele>878.433245</ele>
        <time>2022-02-24T04:35:02.398Z</time>
      </trkpt>
      <trkpt lat="38.18353" lon="-2.72612">
        <ele>879.20137</ele>
        <time>2022-02-24T04:35:10.381Z</time>
      </trkpt>
      <trkpt lat="38.18342" lon="-2.7261">
        <ele>879.724882</ele>
        <time>2022-02-24T04:35:16.330Z</time>
      </trkpt>
      <trkpt lat="38.18327" lon="-2.72618">
        <ele>880.453545</ele>
        <time>2022-02-24T04:35:24.089Z</time>
      </trkpt>
      <trkpt lat="38.18291" lon="-2.72658">
        <ele>884.27553</ele>
        <time>2022-02-24T04:35:52.873Z</time>
      </trkpt>
      <trkpt lat="38.18268" lon="-2.72669">
        <ele>886.739751</ele>
        <time>2022-02-24T04:36:09.837Z</time>
      </trkpt>
      <trkpt lat="38.18185" lon="-2.72666">
        <ele>895.014556</ele>
        <time>2022-02-24T04:37:11.690Z</time>
      </trkpt>
      <trkpt lat="38.18089" lon="-2.72684">
        <ele>905.230172</ele>
        <time>2022-02-24T04:38:32.012Z</time>
      </trkpt>
      <trkpt lat="38.1808" lon="-2.72694">
        <ele>906.509851</ele>
        <time>2022-02-24T04:38:41.573Z</time>
      </trkpt>
      <trkpt lat="38.18078" lon="-2.72708">
        <ele>907.763392</ele>
        <time>2022-02-24T04:38:52.226Z</time>
      </trkpt>
      <trkpt lat="38.18081" lon="-2.72758">
        <ele>912.15091</ele>
        <time>2022-02-24T04:39:22.998Z</time>
      </trkpt>
      <trkpt lat="38.18078" lon="-2.72773">
        <ele>913.514694</ele>
        <time>2022-02-24T04:39:30.659Z</time>
      </trkpt>
      <trkpt lat="38.18068" lon="-2.72787">
        <ele>915.146771</ele>
        <time>2022-02-24T04:39:40.856Z</time>
      </trkpt>
      <trkpt lat="38.18056" lon="-2.72789">
        <ele>916.486146</ele>
        <time>2022-02-24T04:39:49.747Z</time>
      </trkpt>
      <trkpt lat="38.18042" lon="-2.72781">
        <ele>918.200275</ele>
        <time>2022-02-24T04:40:02.249Z</time>
      </trkpt>
      <trkpt lat="38.18035" lon="-2.7276">
        <ele>920.080392</ele>
        <time>2022-02-24T04:40:14.701Z</time>
      </trkpt>
      <trkpt lat="38.1805" lon="-2.72625">
        <ele>931.092567</ele>
        <time>2022-02-24T04:41:28.843Z</time>
      </trkpt>
      <trkpt lat="38.18042" lon="-2.72606">
        <ele>932.816524</ele>
        <time>2022-02-24T04:41:43.484Z</time>
      </trkpt>
      <trkpt lat="38.18028" lon="-2.726">
        <ele>934.293813</ele>
        <time>2022-02-24T04:41:55.257Z</time>
      </trkpt>
      <trkpt lat="38.17979" lon="-2.72622">
        <ele>939.942455</ele>
        <time>2022-02-24T04:42:35.302Z</time>
      </trkpt>
      <trkpt lat="38.17937" lon="-2.72616">
        <ele>944.807447</ele>
        <time>2022-02-24T04:43:09.397Z</time>
      </trkpt>
      <trkpt lat="38.17916" lon="-2.72621">
        <ele>947.305889</ele>
        <time>2022-02-24T04:43:25.095Z</time>
      </trkpt>
      <trkpt lat="38.17889" lon="-2.7262">
        <ele>950.44412</ele>
        <time>2022-02-24T04:43:50.151Z</time>
      </trkpt>
      <trkpt lat="38.1784" lon="-2.72659">
        <ele>957.127746</ele>
        <time>2022-02-24T04:44:33.735Z</time>
      </trkpt>
      <trkpt lat="38.17805" lon="-2.72669">
        <ele>961.430048</ele>
        <time>2022-02-24T04:45:04.319Z</time>
      </trkpt>
      <trkpt lat="38.17787" lon="-2.727">
        <ele>965.020254</ele>
        <time>2022-02-24T04:45:28.788Z</time>
      </trkpt>
      <trkpt lat="38.17773" lon="-2.72714">
        <ele>967.195202</ele>
        <time>2022-02-24T04:45:44.738Z</time>
      </trkpt>
      <trkpt lat="38.17702" lon="-2.72723">
        <ele>975.713219</ele>
        <time>2022-02-24T04:46:39.632Z</time>
      </trkpt>
      <trkpt lat="38.17648" lon="-2.72747">
        <ele>982.786215</ele>
        <time>2022-02-24T04:47:28.823Z</time>
      </trkpt>
      <trkpt lat="38.17615" lon="-2.72747">
        <ele>987.189481</ele>
        <time>2022-02-24T04:48:00.853Z</time>
      </trkpt>
      <trkpt lat="38.17603" lon="-2.72772">
        <ele>990.170396</ele>
        <time>2022-02-24T04:48:21.973Z</time>
      </trkpt>
      <trkpt lat="38.176" lon="-2.72809">
        <ele>994.115438</ele>
        <time>2022-02-24T04:48:50.523Z</time>
      </trkpt>
      <trkpt lat="38.17589" lon="-2.72821">
        <ele>996.087815</ele>
        <time>2022-02-24T04:49:04.844Z</time>
      </trkpt>
      <trkpt lat="38.17472" lon="-2.7284">
        <ele>1009.186937</ele>
        <time>2022-02-24T04:50:41.670Z</time>
      </trkpt>
      <trkpt lat="38.17448" lon="-2.7287">
        <ele>1012.2237</ele>
        <time>2022-02-24T04:51:04.661Z</time>
      </trkpt>
      <trkpt lat="38.17438" lon="-2.72876">
        <ele>1013.225163</ele>
        <time>2022-02-24T04:51:11.233Z</time>
      </trkpt>
      <trkpt lat="38.17417" lon="-2.72866">
        <ele>1015.167776</ele>
        <time>2022-02-24T04:51:22.683Z</time>
      </trkpt>
      <trkpt lat="38.17412" lon="-2.72855">
        <ele>1016.086808</ele>
        <time>2022-02-24T04:51:27.963Z</time>
      </trkpt>
      <trkpt lat="38.17413" lon="-2.72835">
        <ele>1017.521735</ele>
        <time>2022-02-24T04:51:39.912Z</time>
      </trkpt>
      <trkpt lat="38.17444" lon="-2.72806">
        <ele>1020.742941</ele>
        <time>2022-02-24T04:52:01.392Z</time>
      </trkpt>
      <trkpt lat="38.17461" lon="-2.72777">
        <ele>1022.709648</ele>
        <time>2022-02-24T04:52:15.605Z</time>
      </trkpt>
      <trkpt lat="38.17489" lon="-2.72768">
        <ele>1024.688599</ele>
        <time>2022-02-24T04:52:27.236Z</time>
      </trkpt>
      <trkpt lat="38.17519" lon="-2.72772">
        <ele>1026.753339</ele>
        <time>2022-02-24T04:52:40.313Z</time>
      </trkpt>
      <trkpt lat="38.17533" lon="-2.7276">
        <ele>1027.868593</ele>
        <time>2022-02-24T04:52:51.707Z</time>
      </trkpt>
      <trkpt lat="38.17534" lon="-2.72731">
        <ele>1029.419115</ele>
        <time>2022-02-24T04:53:03.094Z</time>
      </trkpt>
      <trkpt lat="38.17515" lon="-2.72698">
        <ele>1031.607148</ele>
        <time>2022-02-24T04:53:22.074Z</time>
      </trkpt>
      <trkpt lat="38.17511" lon="-2.72677">
        <ele>1033.257952</ele>
        <time>2022-02-24T04:53:36.112Z</time>
      </trkpt>
      <trkpt lat="38.17523" lon="-2.7262">
        <ele>1039.03621</ele>
        <time>2022-02-24T04:54:12.231Z</time>
      </trkpt>
      <trkpt lat="38.17527" lon="-2.72557">
        <ele>1045.224433</ele>
        <time>2022-02-24T04:55:00.652Z</time>
      </trkpt>
      <trkpt lat="38.17541" lon="-2.72542">
        <ele>1047.508777</ele>
        <time>2022-02-24T04:55:16.125Z</time>
      </trkpt>
      <trkpt lat="38.17565" lon="-2.72534">
        <ele>1050.587027</ele>
        <time>2022-02-24T04:55:38.071Z</time>
      </trkpt>
      <trkpt lat="38.17576" lon="-2.72516">
        <ele>1052.801008</ele>
        <time>2022-02-24T04:55:53.869Z</time>
      </trkpt>
      <trkpt lat="38.1758" lon="-2.72452">
        <ele>1058.390918</ele>
        <time>2022-02-24T04:56:38.262Z</time>
      </trkpt>
      <trkpt lat="38.17577" lon="-2.72382">
        <ele>1064.181416</ele>
        <time>2022-02-24T04:57:22.601Z</time>
      </trkpt>
      <trkpt lat="38.17582" lon="-2.72337">
        <ele>1067.931543</ele>
        <time>2022-02-24T04:57:49.207Z</time>
      </trkpt>
      <trkpt lat="38.17599" lon="-2.72312">
        <ele>1070.612805</ele>
        <time>2022-02-24T04:58:07.514Z</time>
      </trkpt>
      <trkpt lat="38.17646" lon="-2.72307">
        <ele>1074.196448</ele>
        <time>2022-02-24T04:58:34.949Z</time>
      </trkpt>
      <trkpt lat="38.17659" lon="-2.723">
        <ele>1074.687184</ele>
        <time>2022-02-24T04:58:42.098Z</time>
      </trkpt>
      <trkpt lat="38.17672" lon="-2.72283">
        <ele>1075.364527</ele>
        <time>2022-02-24T04:58:51.032Z</time>
      </trkpt>
      <trkpt lat="38.17676" lon="-2.72256">
        <ele>1076.131016</ele>
        <time>2022-02-24T04:59:00.597Z</time>
      </trkpt>
      <trkpt lat="38.17655" lon="-2.72179">
        <ele>1078.415306</ele>
        <time>2022-02-24T04:59:22.516Z</time>
      </trkpt>
      <trkpt lat="38.17658" lon="-2.72141">
        <ele>1079.508952</ele>
        <time>2022-02-24T04:59:31.369Z</time>
      </trkpt>
      <trkpt lat="38.17669" lon="-2.72117">
        <ele>1079.854438</ele>
        <time>2022-02-24T04:59:37.452Z</time>
      </trkpt>
      <trkpt lat="38.17722" lon="-2.7206">
        <ele>1079.255797</ele>
        <time>2022-02-24T04:59:52.523Z</time>
      </trkpt>
      <trkpt lat="38.17736" lon="-2.72033">
        <ele>1079.036974</ele>
        <time>2022-02-24T04:59:57.473Z</time>
      </trkpt>
      <trkpt lat="38.17748" lon="-2.71994">
        <ele>1078.756287</ele>
        <time>2022-02-24T05:00:03.660Z</time>
      </trkpt>
      <trkpt lat="38.17749" lon="-2.71951">
        <ele>1078.46818</ele>
        <time>2022-02-24T05:00:09.817Z</time>
      </trkpt>
      <trkpt lat="38.17742" lon="-2.7191">
        <ele>1078.180043</ele>
        <time>2022-02-24T05:00:15.625Z</time>
      </trkpt>
      <trkpt lat="38.17735" lon="-2.71892">
        <ele>1078.037106</ele>
        <time>2022-02-24T05:00:18.436Z</time>
      </trkpt>
      <trkpt lat="38.17719" lon="-2.71873">
        <ele>1077.838664</ele>
        <time>2022-02-24T05:00:22.366Z</time>
      </trkpt>
      <trkpt lat="38.17666" lon="-2.71776">
        <ele>1077.011933</ele>
        <time>2022-02-24T05:00:40.274Z</time>
      </trkpt>
      <trkpt lat="38.17653" lon="-2.71733">
        <ele>1077.489712</ele>
        <time>2022-02-24T05:00:50.613Z</time>
      </trkpt>
      <trkpt lat="38.17628" lon="-2.71665">
        <ele>1081.290412</ele>
        <time>2022-02-24T05:01:16.075Z</time>
      </trkpt>
      <trkpt lat="38.17598" lon="-2.71618">
        <ele>1084.347691</ele>
        <time>2022-02-24T05:01:41.974Z</time>
      </trkpt>
      <trkpt lat="38.17542" lon="-2.7155">
        <ele>1089.891046</ele>
        <time>2022-02-24T05:02:38.836Z</time>
      </trkpt>
      <trkpt lat="38.17497" lon="-2.7152">
        <ele>1095.066134</ele>
        <time>2022-02-24T05:03:21.066Z</time>
      </trkpt>
      <trkpt lat="38.17464" lon="-2.71506">
        <ele>1098.554155</ele>
        <time>2022-02-24T05:03:49.871Z</time>
      </trkpt>
      <trkpt lat="38.17379" lon="-2.71489">
        <ele>1106.669133</ele>
        <time>2022-02-24T05:04:48.473Z</time>
      </trkpt>
      <trkpt lat="38.1734" lon="-2.71443">
        <ele>1108.3295</ele>
        <time>2022-02-24T05:05:15.616Z</time>
      </trkpt>
      <trkpt lat="38.17332" lon="-2.71439">
        <ele>1108.624736</ele>
        <time>2022-02-24T05:05:20.059Z</time>
      </trkpt>
      <trkpt lat="38.17323" lon="-2.71439">
        <ele>1108.907437</ele>
        <time>2022-02-24T05:05:23.542Z</time>
      </trkpt>
      <trkpt lat="38.17308" lon="-2.7145">
        <ele>1109.456297</ele>
        <time>2022-02-24T05:05:29.379Z</time>
      </trkpt>
      <trkpt lat="38.17277" lon="-2.71536">
        <ele>1111.794821</ele>
        <time>2022-02-24T05:05:49.170Z</time>
      </trkpt>
      <trkpt lat="38.17269" lon="-2.71544">
        <ele>1112.089575</ele>
        <time>2022-02-24T05:05:51.218Z</time>
      </trkpt>
      <trkpt lat="38.17251" lon="-2.7155">
        <ele>1111.542997</ele>
        <time>2022-02-24T05:05:55.016Z</time>
      </trkpt>
      <trkpt lat="38.17202" lon="-2.71548">
        <ele>1110.143851</ele>
        <time>2022-02-24T05:06:03.766Z</time>
      </trkpt>
      <trkpt lat="38.17189" lon="-2.71531">
        <ele>1109.624633</ele>
        <time>2022-02-24T05:06:06.907Z</time>
      </trkpt>
      <trkpt lat="38.17171" lon="-2.71487">
        <ele>1108.505041</ele>
        <time>2022-02-24T05:06:13.514Z</time>
      </trkpt>
      <trkpt lat="38.17146" lon="-2.71445">
        <ele>1107.294597</ele>
        <time>2022-02-24T05:06:20.357Z</time>
      </trkpt>
      <trkpt lat="38.17137" lon="-2.71342">
        <ele>1103.068326</ele>
        <time>2022-02-24T05:06:33.293Z</time>
      </trkpt>
      <trkpt lat="38.17138" lon="-2.71292">
        <ele>1100.813692</ele>
        <time>2022-02-24T05:06:39.702Z</time>
      </trkpt>
      <trkpt lat="38.17126" lon="-2.71274">
        <ele>1099.773342</ele>
        <time>2022-02-24T05:06:42.603Z</time>
      </trkpt>
      <trkpt lat="38.17084" lon="-2.71236">
        <ele>1096.853041</ele>
        <time>2022-02-24T05:06:50.400Z</time>
      </trkpt>
      <trkpt lat="38.17064" lon="-2.71235">
        <ele>1094.996576</ele>
        <time>2022-02-24T05:06:53.353Z</time>
      </trkpt>
      <trkpt lat="38.17055" lon="-2.71241">
        <ele>1093.987557</ele>
        <time>2022-02-24T05:06:54.856Z</time>
      </trkpt>
      <trkpt lat="38.16985" lon="-2.71332">
        <ele>1084.06954</ele>
        <time>2022-02-24T05:07:08.844Z</time>
      </trkpt>
      <trkpt lat="38.16966" lon="-2.71331">
        <ele>1082.277082</ele>
        <time>2022-02-24T05:07:11.422Z</time>
      </trkpt>
      <trkpt lat="38.16951" lon="-2.71317">
        <ele>1080.408029</ele>
        <time>2022-02-24T05:07:14.153Z</time>
      </trkpt>
      <trkpt lat="38.16943" lon="-2.71296">
        <ele>1078.770507</ele>
        <time>2022-02-24T05:07:16.896Z</time>
      </trkpt>
      <trkpt lat="38.16943" lon="-2.71284">
        <ele>1078.278963</ele>
        <time>2022-02-24T05:07:18.156Z</time>
      </trkpt>
      <trkpt lat="38.16961" lon="-2.7125">
        <ele>1076.575309</ele>
        <time>2022-02-24T05:07:22.835Z</time>
      </trkpt>
      <trkpt lat="38.17077" lon="-2.71115">
        <ele>1069.720374</ele>
        <time>2022-02-24T05:07:48.540Z</time>
      </trkpt>
      <trkpt lat="38.17118" lon="-2.70995">
        <ele>1070.655164</ele>
        <time>2022-02-24T05:08:21.124Z</time>
      </trkpt>
      <trkpt lat="38.17117" lon="-2.70974">
        <ele>1070.804902</ele>
        <time>2022-02-24T05:08:27.109Z</time>
      </trkpt>
      <trkpt lat="38.17105" lon="-2.70959">
        <ele>1070.957485</ele>
        <time>2022-02-24T05:08:32.357Z</time>
      </trkpt>
      <trkpt lat="38.17095" lon="-2.70956">
        <ele>1071.049912</ele>
        <time>2022-02-24T05:08:36.106Z</time>
      </trkpt>
      <trkpt lat="38.17074" lon="-2.70963">
        <ele>1071.402137</ele>
        <time>2022-02-24T05:08:44.279Z</time>
      </trkpt>
      <trkpt lat="38.17029" lon="-2.70989">
        <ele>1072.487928</ele>
        <time>2022-02-24T05:09:02.351Z</time>
      </trkpt>
      <trkpt lat="38.17003" lon="-2.70992">
        <ele>1073.044682</ele>
        <time>2022-02-24T05:09:10.894Z</time>
      </trkpt>
      <trkpt lat="38.16982" lon="-2.70984">
        <ele>1073.526911</ele>
        <time>2022-02-24T05:09:18.465Z</time>
      </trkpt>
      <trkpt lat="38.16975" lon="-2.70975">
        <ele>1073.748733</ele>
        <time>2022-02-24T05:09:21.393Z</time>
      </trkpt>
      <trkpt lat="38.16956" lon="-2.70919">
        <ele>1074.792415</ele>
        <time>2022-02-24T05:09:36.389Z</time>
      </trkpt>
      <trkpt lat="38.16909" lon="-2.70859">
        <ele>1074.929528</ele>
        <time>2022-02-24T05:09:56.846Z</time>
      </trkpt>
      <trkpt lat="38.16889" lon="-2.70796">
        <ele>1074.800334</ele>
        <time>2022-02-24T05:10:10.737Z</time>
      </trkpt>
      <trkpt lat="38.16847" lon="-2.70752">
        <ele>1074.66788</ele>
        <time>2022-02-24T05:10:20.847Z</time>
      </trkpt>
      <trkpt lat="38.16843" lon="-2.70742">
        <ele>1074.645822</ele>
        <time>2022-02-24T05:10:22.391Z</time>
      </trkpt>
      <trkpt lat="38.16842" lon="-2.7073">
        <ele>1074.606982</ele>
        <time>2022-02-24T05:10:24.009Z</time>
      </trkpt>
      <trkpt lat="38.16849" lon="-2.70706">
        <ele>1074.177738</ele>
        <time>2022-02-24T05:10:27.352Z</time>
      </trkpt>
      <trkpt lat="38.16897" lon="-2.70603">
        <ele>1072.164865</ele>
        <time>2022-02-24T05:10:43.319Z</time>
      </trkpt>
      <trkpt lat="38.16917" lon="-2.70508">
        <ele>1070.910121</ele>
        <time>2022-02-24T05:10:59.072Z</time>
      </trkpt>
      <trkpt lat="38.16933" lon="-2.70457">
        <ele>1071.37144</ele>
        <time>2022-02-24T05:11:09.692Z</time>
      </trkpt>
      <trkpt lat="38.16997" lon="-2.70347">
        <ele>1072.52486</ele>
        <time>2022-02-24T05:11:40.862Z</time>
      </trkpt>
      <trkpt lat="38.17003" lon="-2.70314">
        <ele>1073.001524</ele>
        <time>2022-02-24T05:11:50.608Z</time>
      </trkpt>
      <trkpt lat="38.16993" lon="-2.70297">
        <ele>1073.477286</ele>
        <time>2022-02-24T05:11:56.517Z</time>
      </trkpt>
      <trkpt lat="38.16983" lon="-2.70292">
        <ele>1073.79069</ele>
        <time>2022-02-24T05:12:00.204Z</time>
      </trkpt>
      <trkpt lat="38.16925" lon="-2.70288">
        <ele>1075.48364</ele>
        <time>2022-02-24T05:12:21.312Z</time>
      </trkpt>
      <trkpt lat="38.16902" lon="-2.70281">
        <ele>1076.178923</ele>
        <time>2022-02-24T05:12:30.102Z</time>
      </trkpt>
      <trkpt lat="38.16853" lon="-2.70246">
        <ele>1077.817582</ele>
        <time>2022-02-24T05:12:51.329Z</time>
      </trkpt>
      <trkpt lat="38.16831" lon="-2.70217">
        <ele>1079.497378</ele>
        <time>2022-02-24T05:13:04.027Z</time>
      </trkpt>
      <trkpt lat="38.16782" lon="-2.70121">
        <ele>1084.547511</ele>
        <time>2022-02-24T05:13:44.107Z</time>
      </trkpt>
      <trkpt lat="38.16727" lon="-2.70068">
        <ele>1088.716839</ele>
        <time>2022-02-24T05:14:26.648Z</time>
      </trkpt>
      <trkpt lat="38.16708" lon="-2.70021">
        <ele>1092.849188</ele>
        <time>2022-02-24T05:14:55.795Z</time>
      </trkpt>
      <trkpt lat="38.16655" lon="-2.69819">
        <ele>1108.842332</ele>
        <time>2022-02-24T05:17:00.780Z</time>
      </trkpt>
      <trkpt lat="38.16656" lon="-2.69773">
        <ele>1111.945343</ele>
        <time>2022-02-24T05:17:26.441Z</time>
      </trkpt>
      <trkpt lat="38.16689" lon="-2.69696">
        <ele>1117.728951</ele>
        <time>2022-02-24T05:18:08.150Z</time>
      </trkpt>
      <trkpt lat="38.1669" lon="-2.69684">
        <ele>1118.507774</ele>
        <time>2022-02-24T05:18:12.986Z</time>
      </trkpt>
      <trkpt lat="38.16681" lon="-2.69666">
        <ele>1119.955721</ele>
        <time>2022-02-24T05:18:22.338Z</time>
      </trkpt>
      <trkpt lat="38.16671" lon="-2.69662">
        <ele>1120.812583</ele>
        <time>2022-02-24T05:18:28.038Z</time>
      </trkpt>
      <trkpt lat="38.16634" lon="-2.69667">
        <ele>1124.534767</ele>
        <time>2022-02-24T05:18:49.290Z</time>
      </trkpt>
      <trkpt lat="38.16625" lon="-2.69662">
        <ele>1125.451671</ele>
        <time>2022-02-24T05:18:54.793Z</time>
      </trkpt>
      <trkpt lat="38.16594" lon="-2.69625">
        <ele>1129.66248</ele>
        <time>2022-02-24T05:19:22.575Z</time>
      </trkpt>
      <trkpt lat="38.1657" lon="-2.69575">
        <ele>1134.190959</ele>
        <time>2022-02-24T05:19:57.359Z</time>
      </trkpt>
      <trkpt lat="38.16532" lon="-2.69423">
        <ele>1148.685731</ele>
        <time>2022-02-24T05:21:46.953Z</time>
      </trkpt>
      <trkpt lat="38.16519" lon="-2.69401">
        <ele>1151.43423</ele>
        <time>2022-02-24T05:22:07.357Z</time>
      </trkpt>
      <trkpt lat="38.16469" lon="-2.69342">
        <ele>1160.084144</ele>
        <time>2022-02-24T05:23:07.530Z</time>
      </trkpt>
      <trkpt lat="38.16438" lon="-2.69278">
        <ele>1165.65891</ele>
        <time>2022-02-24T05:23:49.854Z</time>
      </trkpt>
      <trkpt lat="38.16432" lon="-2.69254">
        <ele>1167.439411</ele>
        <time>2022-02-24T05:24:03.373Z</time>
      </trkpt>
      <trkpt lat="38.1644" lon="-2.69215">
        <ele>1170.200394</ele>
        <time>2022-02-24T05:24:22.156Z</time>
      </trkpt>
      <trkpt lat="38.16495" lon="-2.69159">
        <ele>1176.455835</ele>
        <time>2022-02-24T05:25:03.565Z</time>
      </trkpt>
      <trkpt lat="38.16558" lon="-2.69017">
        <ele>1189.196331</ele>
        <time>2022-02-24T05:26:29.946Z</time>
      </trkpt>
      <trkpt lat="38.16749" lon="-2.68763">
        <ele>1219.753522</ele>
        <time>2022-02-24T05:30:22.059Z</time>
      </trkpt>
      <trkpt lat="38.16758" lon="-2.68742">
        <ele>1221.160135</ele>
        <time>2022-02-24T05:30:34.368Z</time>
      </trkpt>
      <trkpt lat="38.16757" lon="-2.6872">
        <ele>1222.454837</ele>
        <time>2022-02-24T05:30:45.785Z</time>
      </trkpt>
      <trkpt lat="38.16744" lon="-2.68704">
        <ele>1223.780714</ele>
        <time>2022-02-24T05:30:56.507Z</time>
      </trkpt>
      <trkpt lat="38.16733" lon="-2.68702">
        <ele>1224.593037</ele>
        <time>2022-02-24T05:31:03.119Z</time>
      </trkpt>
      <trkpt lat="38.16713" lon="-2.68711">
        <ele>1226.199354</ele>
        <time>2022-02-24T05:31:15.105Z</time>
      </trkpt>
      <trkpt lat="38.16687" lon="-2.68748">
        <ele>1229.031549</ele>
        <time>2022-02-24T05:31:34.294Z</time>
      </trkpt>
      <trkpt lat="38.1663" lon="-2.68784">
        <ele>1230.146689</ele>
        <time>2022-02-24T05:31:57.699Z</time>
      </trkpt>
      <trkpt lat="38.16554" lon="-2.68846">
        <ele>1229.395625</ele>
        <time>2022-02-24T05:32:14.967Z</time>
      </trkpt>
      <trkpt lat="38.16545" lon="-2.68863">
        <ele>1229.259541</ele>
        <time>2022-02-24T05:32:18.140Z</time>
      </trkpt>
      <trkpt lat="38.16527" lon="-2.68873">
        <ele>1229.097805</ele>
        <time>2022-02-24T05:32:21.245Z</time>
      </trkpt>
      <trkpt lat="38.16423" lon="-2.68969">
        <ele>1223.5692</ele>
        <time>2022-02-24T05:32:41.388Z</time>
      </trkpt>
      <trkpt lat="38.16404" lon="-2.68993">
        <ele>1222.320143</ele>
        <time>2022-02-24T05:32:45.555Z</time>
      </trkpt>
      <trkpt lat="38.16386" lon="-2.68999">
        <ele>1221.46069</ele>
        <time>2022-02-24T05:32:48.469Z</time>
      </trkpt>
      <trkpt lat="38.16373" lon="-2.68993">
        <ele>1220.833747</ele>
        <time>2022-02-24T05:32:50.857Z</time>
      </trkpt>
      <trkpt lat="38.16368" lon="-2.68975">
        <ele>1221.09433</ele>
        <time>2022-02-24T05:32:53.379Z</time>
      </trkpt>
      <trkpt lat="38.16371" lon="-2.68945">
        <ele>1221.78965</ele>
        <time>2022-02-24T05:32:57.708Z</time>
      </trkpt>
      <trkpt lat="38.16368" lon="-2.6893">
        <ele>1222.143249</ele>
        <time>2022-02-24T05:33:00.049Z</time>
      </trkpt>
      <trkpt lat="38.16341" lon="-2.6889">
        <ele>1223.324923</ele>
        <time>2022-02-24T05:33:10.513Z</time>
      </trkpt>
      <trkpt lat="38.16314" lon="-2.68778">
        <ele>1226.110025</ele>
        <time>2022-02-24T05:34:04.444Z</time>
      </trkpt>
      <trkpt lat="38.1629" lon="-2.68727">
        <ele>1229.927456</ele>
        <time>2022-02-24T05:34:34.578Z</time>
      </trkpt>
      <trkpt lat="38.16272" lon="-2.68691">
        <ele>1232.641827</ele>
        <time>2022-02-24T05:34:56.480Z</time>
      </trkpt>
      <trkpt lat="38.16251" lon="-2.68688">
        <ele>1234.399082</ele>
        <time>2022-02-24T05:35:11.910Z</time>
      </trkpt>
      <trkpt lat="38.1623" lon="-2.68703">
        <ele>1236.423852</ele>
        <time>2022-02-24T05:35:27.377Z</time>
      </trkpt>
      <trkpt lat="38.16169" lon="-2.68712">
        <ele>1241.140117</ele>
        <time>2022-02-24T05:36:06.008Z</time>
      </trkpt>
      <trkpt lat="38.16115" lon="-2.68831">
        <ele>1247.108023</ele>
        <time>2022-02-24T05:37:02.568Z</time>
      </trkpt>
      <trkpt lat="38.16106" lon="-2.68871">
        <ele>1248.945816</ele>
        <time>2022-02-24T05:37:16.107Z</time>
      </trkpt>
      <trkpt lat="38.16092" lon="-2.6889">
        <ele>1250.065662</ele>
        <time>2022-02-24T05:37:24.284Z</time>
      </trkpt>
      <trkpt lat="38.16082" lon="-2.68895">
        <ele>1250.624305</ele>
        <time>2022-02-24T05:37:28.756Z</time>
      </trkpt>
      <trkpt lat="38.16048" lon="-2.68893">
        <ele>1252.020677</ele>
        <time>2022-02-24T05:37:42.419Z</time>
      </trkpt>
      <trkpt lat="38.16026" lon="-2.68883">
        <ele>1253.013246</ele>
        <time>2022-02-24T05:37:52.073Z</time>
      </trkpt>
      <trkpt lat="38.15975" lon="-2.68843">
        <ele>1255.467179</ele>
        <time>2022-02-24T05:38:16.546Z</time>
      </trkpt>
      <trkpt lat="38.15957" lon="-2.68836">
        <ele>1256.236149</ele>
        <time>2022-02-24T05:38:24.233Z</time>
      </trkpt>
      <trkpt lat="38.15941" lon="-2.68842">
        <ele>1256.92988</ele>
        <time>2022-02-24T05:38:31.082Z</time>
      </trkpt>
      <trkpt lat="38.15912" lon="-2.6887">
        <ele>1258.980327</ele>
        <time>2022-02-24T05:38:47.545Z</time>
      </trkpt>
      <trkpt lat="38.15849" lon="-2.68879">
        <ele>1264.854358</ele>
        <time>2022-02-24T05:39:22.948Z</time>
      </trkpt>
      <trkpt lat="38.1581" lon="-2.689">
        <ele>1268.686745</ele>
        <time>2022-02-24T05:39:56.851Z</time>
      </trkpt>
      <trkpt lat="38.15792" lon="-2.68894">
        <ele>1270.382694</ele>
        <time>2022-02-24T05:40:11.918Z</time>
      </trkpt>
      <trkpt lat="38.15739" lon="-2.68814">
        <ele>1278.255179</ele>
        <time>2022-02-24T05:41:18.710Z</time>
      </trkpt>
      <trkpt lat="38.15735" lon="-2.68807">
        <ele>1278.915526</ele>
        <time>2022-02-24T05:41:23.334Z</time>
      </trkpt>
      <trkpt lat="38.15722" lon="-2.68768">
        <ele>1282.251774</ele>
        <time>2022-02-24T05:41:48.841Z</time>
      </trkpt>
      <trkpt lat="38.15707" lon="-2.68759">
        <ele>1283.870938</ele>
        <time>2022-02-24T05:42:00.386Z</time>
      </trkpt>
      <trkpt lat="38.15692" lon="-2.68765">
        <ele>1285.513833</ele>
        <time>2022-02-24T05:42:13.757Z</time>
      </trkpt>
      <trkpt lat="38.15661" lon="-2.68845">
        <ele>1292.506291</ele>
        <time>2022-02-24T05:43:02.959Z</time>
      </trkpt>
      <trkpt lat="38.15659" lon="-2.68858">
        <ele>1292.897464</ele>
        <time>2022-02-24T05:43:08.682Z</time>
      </trkpt>
      <trkpt lat="38.1567" lon="-2.68909">
        <ele>1294.484849</ele>
        <time>2022-02-24T05:43:30.057Z</time>
      </trkpt>
      <trkpt lat="38.15665" lon="-2.69089">
        <ele>1299.66766</ele>
        <time>2022-02-24T05:44:16.366Z</time>
      </trkpt>
      <trkpt lat="38.15675" lon="-2.69159">
        <ele>1300.967206</ele>
        <time>2022-02-24T05:44:35.605Z</time>
      </trkpt>
      <trkpt lat="38.15673" lon="-2.69171">
        <ele>1301.193167</ele>
        <time>2022-02-24T05:44:39.063Z</time>
      </trkpt>
      <trkpt lat="38.1566" lon="-2.6919">
        <ele>1301.651933</ele>
        <time>2022-02-24T05:44:45.675Z</time>
      </trkpt>
      <trkpt lat="38.15637" lon="-2.69217">
        <ele>1302.392223</ele>
        <time>2022-02-24T05:44:56.540Z</time>
      </trkpt>
      <trkpt lat="38.15616" lon="-2.69229">
        <ele>1302.917774</ele>
        <time>2022-02-24T05:45:04.368Z</time>
      </trkpt>
      <trkpt lat="38.15557" lon="-2.69238">
        <ele>1305.285074</ele>
        <time>2022-02-24T05:45:23.274Z</time>
      </trkpt>
      <trkpt lat="38.15536" lon="-2.69225">
        <ele>1306.496566</ele>
        <time>2022-02-24T05:45:30.849Z</time>
      </trkpt>
      <trkpt lat="38.15522" lon="-2.69201">
        <ele>1307.763989</ele>
        <time>2022-02-24T05:45:41.793Z</time>
      </trkpt>
      <trkpt lat="38.15513" lon="-2.69172">
        <ele>1309.050051</ele>
        <time>2022-02-24T05:45:54.593Z</time>
      </trkpt>
      <trkpt lat="38.15508" lon="-2.69142">
        <ele>1310.3515</ele>
        <time>2022-02-24T05:46:07.873Z</time>
      </trkpt>
      <trkpt lat="38.15509" lon="-2.69103">
        <ele>1311.992813</ele>
        <time>2022-02-24T05:46:26.916Z</time>
      </trkpt>
      <trkpt lat="38.15501" lon="-2.69084">
        <ele>1312.887387</ele>
        <time>2022-02-24T05:46:38.137Z</time>
      </trkpt>
      <trkpt lat="38.15486" lon="-2.69062">
        <ele>1314.413188</ele>
        <time>2022-02-24T05:46:52.886Z</time>
      </trkpt>
      <trkpt lat="38.15446" lon="-2.69029">
        <ele>1317.63292</ele>
        <time>2022-02-24T05:47:23.444Z</time>
      </trkpt>
      <trkpt lat="38.15388" lon="-2.68925">
        <ele>1324.499126</ele>
        <time>2022-02-24T05:48:19.690Z</time>
      </trkpt>
      <trkpt lat="38.15357" lon="-2.6892">
        <ele>1325.77493</ele>
        <time>2022-02-24T05:48:35.219Z</time>
      </trkpt>
      <trkpt lat="38.15337" lon="-2.68933">
        <ele>1326.22649</ele>
        <time>2022-02-24T05:48:43.374Z</time>
      </trkpt>
      <trkpt lat="38.15313" lon="-2.68959">
        <ele>1326.864005</ele>
        <time>2022-02-24T05:48:52.099Z</time>
      </trkpt>
      <trkpt lat="38.15254" lon="-2.68968">
        <ele>1328.03721</ele>
        <time>2022-02-24T05:49:07.518Z</time>
      </trkpt>
      <trkpt lat="38.15168" lon="-2.68969">
        <ele>1331.702757</ele>
        <time>2022-02-24T05:49:29.252Z</time>
      </trkpt>
      <trkpt lat="38.15149" lon="-2.68961">
        <ele>1333.147085</ele>
        <time>2022-02-24T05:49:35.528Z</time>
      </trkpt>
      <trkpt lat="38.15142" lon="-2.68952">
        <ele>1333.819675</ele>
        <time>2022-02-24T05:49:39.789Z</time>
      </trkpt>
      <trkpt lat="38.15128" lon="-2.68909">
        <ele>1336.480828</ele>
        <time>2022-02-24T05:49:57.621Z</time>
      </trkpt>
      <trkpt lat="38.15113" lon="-2.68895">
        <ele>1337.796091</ele>
        <time>2022-02-24T05:50:07.424Z</time>
      </trkpt>
      <trkpt lat="38.15069" lon="-2.6887">
        <ele>1341.221593</ele>
        <time>2022-02-24T05:50:50.089Z</time>
      </trkpt>
      <trkpt lat="38.15059" lon="-2.68852">
        <ele>1343.289142</ele>
        <time>2022-02-24T05:51:08.912Z</time>
      </trkpt>
      <trkpt lat="38.15057" lon="-2.6883">
        <ele>1346.206679</ele>
        <time>2022-02-24T05:51:27.170Z</time>
      </trkpt>
      <trkpt lat="38.15064" lon="-2.68809">
        <ele>1349.136152</ele>
        <time>2022-02-24T05:51:47.842Z</time>
      </trkpt>
      <trkpt lat="38.15094" lon="-2.68765">
        <ele>1356.927975</ele>
        <time>2022-02-24T05:52:40.225Z</time>
      </trkpt>
      <trkpt lat="38.15111" lon="-2.68717">
        <ele>1363.828387</ele>
        <time>2022-02-24T05:53:24.861Z</time>
      </trkpt>
      <trkpt lat="38.15115" lon="-2.68694">
        <ele>1366.956437</ele>
        <time>2022-02-24T05:53:45.729Z</time>
      </trkpt>
      <trkpt lat="38.1511" lon="-2.68649">
        <ele>1372.674849</ele>
        <time>2022-02-24T05:54:24.187Z</time>
      </trkpt>
      <trkpt lat="38.15115" lon="-2.68601">
        <ele>1377.199838</ele>
        <time>2022-02-24T05:55:01.530Z</time>
      </trkpt>
      <trkpt lat="38.15112" lon="-2.6859">
        <ele>1378.321064</ele>
        <time>2022-02-24T05:55:10.904Z</time>
      </trkpt>
      <trkpt lat="38.15098" lon="-2.68574">
        <ele>1380.545647</ele>
        <time>2022-02-24T05:55:30.108Z</time>
      </trkpt>
      <trkpt lat="38.15078" lon="-2.68572">
        <ele>1382.8452</ele>
        <time>2022-02-24T05:55:48.258Z</time>
      </trkpt>
      <trkpt lat="38.14993" lon="-2.68625">
        <ele>1393.862335</ele>
        <time>2022-02-24T05:56:48.774Z</time>
      </trkpt>
      <trkpt lat="38.14966" lon="-2.68623">
        <ele>1395.979426</ele>
        <time>2022-02-24T05:57:03.959Z</time>
      </trkpt>
      <trkpt lat="38.14948" lon="-2.68612">
        <ele>1397.608592</ele>
        <time>2022-02-24T05:57:14.013Z</time>
      </trkpt>
      <trkpt lat="38.14936" lon="-2.68591">
        <ele>1399.246168</ele>
        <time>2022-02-24T05:57:26.508Z</time>
      </trkpt>
      <trkpt lat="38.14925" lon="-2.68525">
        <ele>1403.419872</ele>
        <time>2022-02-24T05:58:00.453Z</time>
      </trkpt>
      <trkpt lat="38.14918" lon="-2.68516">
        <ele>1404.244856</ele>
        <time>2022-02-24T05:58:07.845Z</time>
      </trkpt>
      <trkpt lat="38.14898" lon="-2.68507">
        <ele>1405.933825</ele>
        <time>2022-02-24T05:58:22.095Z</time>
      </trkpt>
      <trkpt lat="38.14845" lon="-2.68524">
        <ele>1410.11005</ele>
        <time>2022-02-24T05:58:56.511Z</time>
      </trkpt>
      <trkpt lat="38.14836" lon="-2.68522">
        <ele>1410.854545</ele>
        <time>2022-02-24T05:59:02.146Z</time>
      </trkpt>
      <trkpt lat="38.14772" lon="-2.68475">
        <ele>1416.430768</ele>
        <time>2022-02-24T05:59:42.363Z</time>
      </trkpt>
      <trkpt lat="38.14762" lon="-2.68474">
        <ele>1417.201217</ele>
        <time>2022-02-24T05:59:48.085Z</time>
      </trkpt>
      <trkpt lat="38.14732" lon="-2.68496">
        <ele>1419.772345</ele>
        <time>2022-02-24T06:00:09.142Z</time>
      </trkpt>
      <trkpt lat="38.14653" lon="-2.68522">
        <ele>1426.445339</ele>
        <time>2022-02-24T06:01:02.924Z</time>
      </trkpt>
      <trkpt lat="38.14544" lon="-2.68503">
        <ele>1435.702471</ele>
        <time>2022-02-24T06:02:13.630Z</time>
      </trkpt>
      <trkpt lat="38.14483" lon="-2.68479">
        <ele>1439.896374</ele>
        <time>2022-02-24T06:02:54.125Z</time>
      </trkpt>
      <trkpt lat="38.14456" lon="-2.68476">
        <ele>1441.646511</ele>
        <time>2022-02-24T06:03:10.635Z</time>
      </trkpt>
      <trkpt lat="38.14416" lon="-2.68501">
        <ele>1444.532617</ele>
        <time>2022-02-24T06:03:36.232Z</time>
      </trkpt>
      <trkpt lat="38.14305" lon="-2.68532">
        <ele>1449.099535</ele>
        <time>2022-02-24T06:04:22.075Z</time>
      </trkpt>
      <trkpt lat="38.14263" lon="-2.68535">
        <ele>1449.901966</ele>
        <time>2022-02-24T06:04:35.293Z</time>
      </trkpt>
      <trkpt lat="38.14243" lon="-2.68559">
        <ele>1450.431003</ele>
        <time>2022-02-24T06:04:43.354Z</time>
      </trkpt>
      <trkpt lat="38.14167" lon="-2.68624">
        <ele>1450.436108</ele>
        <time>2022-02-24T06:05:04.046Z</time>
      </trkpt>
      <trkpt lat="38.14134" lon="-2.68639">
        <ele>1449.684027</ele>
        <time>2022-02-24T06:05:10.934Z</time>
      </trkpt>
      <trkpt lat="38.14018" lon="-2.68666">
        <ele>1446.774515</ele>
        <time>2022-02-24T06:05:30.785Z</time>
      </trkpt>
      <trkpt lat="38.13993" lon="-2.68671">
        <ele>1445.68015</ele>
        <time>2022-02-24T06:05:35.008Z</time>
      </trkpt>
      <trkpt lat="38.13969" lon="-2.68664">
        <ele>1444.595877</ele>
        <time>2022-02-24T06:05:38.908Z</time>
      </trkpt>
      <trkpt lat="38.13958" lon="-2.68646">
        <ele>1443.808969</ele>
        <time>2022-02-24T06:05:41.866Z</time>
      </trkpt>
      <trkpt lat="38.13946" lon="-2.68583">
        <ele>1441.584725</ele>
        <time>2022-02-24T06:05:50.191Z</time>
      </trkpt>
      <trkpt lat="38.13902" lon="-2.68547">
        <ele>1439.212169</ele>
        <time>2022-02-24T06:05:58.673Z</time>
      </trkpt>
      <trkpt lat="38.13861" lon="-2.68522">
        <ele>1436.72834</ele>
        <time>2022-02-24T06:06:05.530Z</time>
      </trkpt>
      <trkpt lat="38.13823" lon="-2.68516">
        <ele>1434.592576</ele>
        <time>2022-02-24T06:06:11.475Z</time>
      </trkpt>
      <trkpt lat="38.1359" lon="-2.68572">
        <ele>1423.607101</ele>
        <time>2022-02-24T06:06:48.434Z</time>
      </trkpt>
      <trkpt lat="38.13381" lon="-2.68651">
        <ele>1425.115641</ele>
        <time>2022-02-24T06:07:52.366Z</time>
      </trkpt>
      <trkpt lat="38.133" lon="-2.68689">
        <ele>1427.918737</ele>
        <time>2022-02-24T06:08:32.688Z</time>
      </trkpt>
      <trkpt lat="38.13215" lon="-2.68737">
        <ele>1430.738434</ele>
        <time>2022-02-24T06:09:10.571Z</time>
      </trkpt>
      <trkpt lat="38.12964" lon="-2.68868">
        <ele>1426.532073</ele>
        <time>2022-02-24T06:10:02.308Z</time>
      </trkpt>
      <trkpt lat="38.12782" lon="-2.69001">
        <ele>1418.131139</ele>
        <time>2022-02-24T06:10:35.929Z</time>
      </trkpt>
      <trkpt lat="38.1273" lon="-2.69029">
        <ele>1415.54686</ele>
        <time>2022-02-24T06:10:45.046Z</time>
      </trkpt>
      <trkpt lat="38.12727" lon="-2.69044">
        <ele>1415.067323</ele>
        <time>2022-02-24T06:10:46.981Z</time>
      </trkpt>
      <trkpt lat="38.1269" lon="-2.69066">
        <ele>1413.38057</ele>
        <time>2022-02-24T06:10:54.072Z</time>
      </trkpt>
      <trkpt lat="38.12633" lon="-2.69111">
        <ele>1410.651166</ele>
        <time>2022-02-24T06:11:05.616Z</time>
      </trkpt>
      <trkpt lat="38.12611" lon="-2.69116">
        <ele>1409.717956</ele>
        <time>2022-02-24T06:11:09.645Z</time>
      </trkpt>
      <trkpt lat="38.125" lon="-2.69124">
        <ele>1405.785973</ele>
        <time>2022-02-24T06:11:42.747Z</time>
      </trkpt>
      <trkpt lat="38.12305" lon="-2.69066">
        <ele>1400.218872</ele>
        <time>2022-02-24T06:12:45.295Z</time>
      </trkpt>
      <trkpt lat="38.12266" lon="-2.69063">
        <ele>1399.362755</ele>
        <time>2022-02-24T06:12:58.060Z</time>
      </trkpt>
      <trkpt lat="38.12184" lon="-2.69038">
        <ele>1398.031645</ele>
        <time>2022-02-24T06:13:26.686Z</time>
      </trkpt>
      <trkpt lat="38.12089" lon="-2.69023">
        <ele>1397.161891</ele>
        <time>2022-02-24T06:13:59.997Z</time>
      </trkpt>
      <trkpt lat="38.11974" lon="-2.69019">
        <ele>1396.829096</ele>
        <time>2022-02-24T06:14:40.733Z</time>
      </trkpt>
      <trkpt lat="38.11947" lon="-2.69028">
        <ele>1396.853158</ele>
        <time>2022-02-24T06:14:50.931Z</time>
      </trkpt>
      <trkpt lat="38.11934" lon="-2.69027">
        <ele>1396.863602</ele>
        <time>2022-02-24T06:14:55.532Z</time>
      </trkpt>
      <trkpt lat="38.11904" lon="-2.69034">
        <ele>1396.890143</ele>
        <time>2022-02-24T06:15:07.846Z</time>
      </trkpt>
      <trkpt lat="38.11878" lon="-2.69047">
        <ele>1396.914006</ele>
        <time>2022-02-24T06:15:19.220Z</time>
      </trkpt>
      <trkpt lat="38.11868" lon="-2.69054">
        <ele>1396.9771</ele>
        <time>2022-02-24T06:15:24.163Z</time>
      </trkpt>
      <trkpt lat="38.11852" lon="-2.69081">
        <ele>1397.501807</ele>
        <time>2022-02-24T06:15:36.065Z</time>
      </trkpt>
      <trkpt lat="38.1184" lon="-2.69085">
        <ele>1397.74029</ele>
        <time>2022-02-24T06:15:41.599Z</time>
      </trkpt>
      <trkpt lat="38.11762" lon="-2.69073">
        <ele>1399.28805</ele>
        <time>2022-02-24T06:16:20.868Z</time>
      </trkpt>
      <trkpt lat="38.11684" lon="-2.69119">
        <ele>1400.316787</ele>
        <time>2022-02-24T06:17:02.015Z</time>
      </trkpt>
      <trkpt lat="38.11667" lon="-2.69121">
        <ele>1400.238366</ele>
        <time>2022-02-24T06:17:09.138Z</time>
      </trkpt>
      <trkpt lat="38.11653" lon="-2.69114">
        <ele>1400.166603</ele>
        <time>2022-02-24T06:17:15.444Z</time>
      </trkpt>
      <trkpt lat="38.11637" lon="-2.69102">
        <ele>1400.077639</ele>
        <time>2022-02-24T06:17:22.706Z</time>
      </trkpt>
      <trkpt lat="38.11615" lon="-2.6907">
        <ele>1399.92248</ele>
        <time>2022-02-24T06:17:34.498Z</time>
      </trkpt>
      <trkpt lat="38.11593" lon="-2.69051">
        <ele>1399.792874</ele>
        <time>2022-02-24T06:17:43.804Z</time>
      </trkpt>
      <trkpt lat="38.11579" lon="-2.69025">
        <ele>1399.673786</ele>
        <time>2022-02-24T06:17:52.051Z</time>
      </trkpt>
      <trkpt lat="38.11575" lon="-2.6901">
        <ele>1399.617302</ele>
        <time>2022-02-24T06:17:55.829Z</time>
      </trkpt>
      <trkpt lat="38.11574" lon="-2.68949">
        <ele>1397.426072</ele>
        <time>2022-02-24T06:18:10.209Z</time>
      </trkpt>
      <trkpt lat="38.11584" lon="-2.68865">
        <ele>1394.041198</ele>
        <time>2022-02-24T06:18:28.733Z</time>
      </trkpt>
      <trkpt lat="38.11555" lon="-2.68823">
        <ele>1391.82377</ele>
        <time>2022-02-24T06:18:40.852Z</time>
      </trkpt>
      <trkpt lat="38.11533" lon="-2.68765">
        <ele>1389.866062</ele>
        <time>2022-02-24T06:18:55.395Z</time>
      </trkpt>
      <trkpt lat="38.11515" lon="-2.68739">
        <ele>1389.162005</ele>
        <time>2022-02-24T06:19:03.615Z</time>
      </trkpt>
      <trkpt lat="38.11469" lon="-2.68727">
        <ele>1387.962125</ele>
        <time>2022-02-24T06:19:18.172Z</time>
      </trkpt>
      <trkpt lat="38.11453" lon="-2.68715">
        <ele>1387.474697</ele>
        <time>2022-02-24T06:19:24.210Z</time>
      </trkpt>
      <trkpt lat="38.11442" lon="-2.68741">
        <ele>1386.874552</ele>
        <time>2022-02-24T06:19:28.657Z</time>
      </trkpt>
      <trkpt lat="38.11408" lon="-2.68798">
        <ele>1386.047659</ele>
        <time>2022-02-24T06:19:48.823Z</time>
      </trkpt>
      <trkpt lat="38.11365" lon="-2.68829">
        <ele>1386.59457</ele>
        <time>2022-02-24T06:20:11.797Z</time>
      </trkpt>
      <trkpt lat="38.11352" lon="-2.68829">
        <ele>1386.745555</ele>
        <time>2022-02-24T06:20:18.105Z</time>
      </trkpt>
      <trkpt lat="38.11325" lon="-2.68844">
        <ele>1387.063214</ele>
        <time>2022-02-24T06:20:32.282Z</time>
      </trkpt>
      <trkpt lat="38.11307" lon="-2.68859">
        <ele>1387.303907</ele>
        <time>2022-02-24T06:20:42.369Z</time>
      </trkpt>
      <trkpt lat="38.11292" lon="-2.68892">
        <ele>1387.633322</ele>
        <time>2022-02-24T06:20:55.363Z</time>
      </trkpt>
      <trkpt lat="38.11228" lon="-2.68977">
        <ele>1387.604265</ele>
        <time>2022-02-24T06:21:30.950Z</time>
      </trkpt>
      <trkpt lat="38.11205" lon="-2.69023">
        <ele>1387.455867</ele>
        <time>2022-02-24T06:21:46.094Z</time>
      </trkpt>
      <trkpt lat="38.11157" lon="-2.69078">
        <ele>1387.232592</ele>
        <time>2022-02-24T06:22:08.090Z</time>
      </trkpt>
      <trkpt lat="38.11128" lon="-2.69092">
        <ele>1386.889686</ele>
        <time>2022-02-24T06:22:18.691Z</time>
      </trkpt>
      <trkpt lat="38.11093" lon="-2.69136">
        <ele>1386.351758</ele>
        <time>2022-02-24T06:22:35.326Z</time>
      </trkpt>
      <trkpt lat="38.11065" lon="-2.69161">
        <ele>1385.971717</ele>
        <time>2022-02-24T06:22:47.106Z</time>
      </trkpt>
      <trkpt lat="38.11047" lon="-2.69193">
        <ele>1385.63539</ele>
        <time>2022-02-24T06:22:57.676Z</time>
      </trkpt>
      <trkpt lat="38.10989" lon="-2.6922">
        <ele>1385.140064</ele>
        <time>2022-02-24T06:23:19.300Z</time>
      </trkpt>
      <trkpt lat="38.10971" lon="-2.69244">
        <ele>1385.023231</ele>
        <time>2022-02-24T06:23:28.635Z</time>
      </trkpt>
      <trkpt lat="38.10901" lon="-2.69313">
        <ele>1384.632439</ele>
        <time>2022-02-24T06:24:00.527Z</time>
      </trkpt>
      <trkpt lat="38.1087" lon="-2.6935">
        <ele>1384.489953</ele>
        <time>2022-02-24T06:24:15.979Z</time>
      </trkpt>
      <trkpt lat="38.10842" lon="-2.69363">
        <ele>1384.624967</ele>
        <time>2022-02-24T06:24:27.048Z</time>
      </trkpt>
      <trkpt lat="38.10825" lon="-2.69434">
        <ele>1384.885979</ele>
        <time>2022-02-24T06:24:48.767Z</time>
      </trkpt>
      <trkpt lat="38.10813" lon="-2.69452">
        <ele>1384.969042</ele>
        <time>2022-02-24T06:24:56.233Z</time>
      </trkpt>
      <trkpt lat="38.10787" lon="-2.69474">
        <ele>1385.109023</ele>
        <time>2022-02-24T06:25:08.916Z</time>
      </trkpt>
      <trkpt lat="38.10745" lon="-2.69495">
        <ele>1385.635774</ele>
        <time>2022-02-24T06:25:27.869Z</time>
      </trkpt>
      <trkpt lat="38.10731" lon="-2.69497">
        <ele>1386.184276</ele>
        <time>2022-02-24T06:25:33.873Z</time>
      </trkpt>
      <trkpt lat="38.10709" lon="-2.69487">
        <ele>1387.06568</ele>
        <time>2022-02-24T06:25:44.145Z</time>
      </trkpt>
      <trkpt lat="38.10667" lon="-2.69457">
        <ele>1388.959382</ele>
        <time>2022-02-24T06:26:10.766Z</time>
      </trkpt>
      <trkpt lat="38.1064" lon="-2.69416">
        <ele>1390.588468</ele>
        <time>2022-02-24T06:26:35.745Z</time>
      </trkpt>
      <trkpt lat="38.10625" lon="-2.69422">
        <ele>1391.200083</ele>
        <time>2022-02-24T06:26:46.008Z</time>
      </trkpt>
      <trkpt lat="38.10601" lon="-2.69448">
        <ele>1392.481148</ele>
        <time>2022-02-24T06:27:07.564Z</time>
      </trkpt>
      <trkpt lat="38.10568" lon="-2.6947">
        <ele>1394.967962</ele>
        <time>2022-02-24T06:27:35.292Z</time>
      </trkpt>
      <trkpt lat="38.10558" lon="-2.69472">
        <ele>1395.614189</ele>
        <time>2022-02-24T06:27:43.441Z</time>
      </trkpt>
      <trkpt lat="38.1054" lon="-2.69461">
        <ele>1396.928042</ele>
        <time>2022-02-24T06:27:56.902Z</time>
      </trkpt>
      <trkpt lat="38.10533" lon="-2.69431">
        <ele>1398.500545</ele>
        <time>2022-02-24T06:28:14.909Z</time>
      </trkpt>
      <trkpt lat="38.10507" lon="-2.69437">
        <ele>1400.208723</ele>
        <time>2022-02-24T06:28:33.095Z</time>
      </trkpt>
      <trkpt lat="38.10501" lon="-2.69447">
        <ele>1400.858838</ele>
        <time>2022-02-24T06:28:40.032Z</time>
      </trkpt>
      <trkpt lat="38.10488" lon="-2.695">
        <ele>1403.700143</ele>
        <time>2022-02-24T06:29:10.452Z</time>
      </trkpt>
      <trkpt lat="38.10464" lon="-2.69523">
        <ele>1404.763536</ele>
        <time>2022-02-24T06:29:30.726Z</time>
      </trkpt>
      <trkpt lat="38.10441" lon="-2.69534">
        <ele>1405.520624</ele>
        <time>2022-02-24T06:29:44.793Z</time>
      </trkpt>
      <trkpt lat="38.10407" lon="-2.69568">
        <ele>1406.832391</ele>
        <time>2022-02-24T06:30:09.710Z</time>
      </trkpt>
      <trkpt lat="38.10389" lon="-2.696">
        <ele>1407.765969</ele>
        <time>2022-02-24T06:30:24.164Z</time>
      </trkpt>
      <trkpt lat="38.10345" lon="-2.69632">
        <ele>1409.312648</ele>
        <time>2022-02-24T06:30:45.582Z</time>
      </trkpt>
      <trkpt lat="38.10324" lon="-2.69633">
        <ele>1409.202996</ele>
        <time>2022-02-24T06:30:54.034Z</time>
      </trkpt>
      <trkpt lat="38.10237" lon="-2.69683">
        <ele>1407.605535</ele>
        <time>2022-02-24T06:31:27.142Z</time>
      </trkpt>
      <trkpt lat="38.10202" lon="-2.69658">
        <ele>1406.946419</ele>
        <time>2022-02-24T06:31:39.135Z</time>
      </trkpt>
      <trkpt lat="38.10173" lon="-2.69654">
        <ele>1406.435471</ele>
        <time>2022-02-24T06:31:48.008Z</time>
      </trkpt>
      <trkpt lat="38.10166" lon="-2.69647">
        <ele>1406.082741</ele>
        <time>2022-02-24T06:31:50.791Z</time>
      </trkpt>
      <trkpt lat="38.10158" lon="-2.69636">
        <ele>1405.653912</ele>
        <time>2022-02-24T06:31:54.236Z</time>
      </trkpt>
      <trkpt lat="38.10155" lon="-2.69586">
        <ele>1404.146194</ele>
        <time>2022-02-24T06:32:05.960Z</time>
      </trkpt>
      <trkpt lat="38.10153" lon="-2.69578">
        <ele>1403.889291</ele>
        <time>2022-02-24T06:32:07.016Z</time>
      </trkpt>
      <trkpt lat="38.10131" lon="-2.6957">
        <ele>1402.993493</ele>
        <time>2022-02-24T06:32:10.909Z</time>
      </trkpt>
      <trkpt lat="38.10109" lon="-2.69547">
        <ele>1401.893875</ele>
        <time>2022-02-24T06:32:15.554Z</time>
      </trkpt>
      <trkpt lat="38.10065" lon="-2.69583">
        <ele>1399.853124</ele>
        <time>2022-02-24T06:32:24.171Z</time>
      </trkpt>
      <trkpt lat="38.10024" lon="-2.69587">
        <ele>1399.121292</ele>
        <time>2022-02-24T06:32:30.956Z</time>
      </trkpt>
      <trkpt lat="38.0992" lon="-2.69635">
        <ele>1397.713295</ele>
        <time>2022-02-24T06:32:53.125Z</time>
      </trkpt>
      <trkpt lat="38.09779" lon="-2.69772">
        <ele>1398.603418</ele>
        <time>2022-02-24T06:33:37.874Z</time>
      </trkpt>
      <trkpt lat="38.09768" lon="-2.69778">
        <ele>1398.718438</ele>
        <time>2022-02-24T06:33:41.720Z</time>
      </trkpt>
      <trkpt lat="38.09717" lon="-2.69809">
        <ele>1400.135717</ele>
        <time>2022-02-24T06:34:00.121Z</time>
      </trkpt>
      <trkpt lat="38.0965" lon="-2.69837">
        <ele>1402.852625</ele>
        <time>2022-02-24T06:34:26.309Z</time>
      </trkpt>
      <trkpt lat="38.0952" lon="-2.69868">
        <ele>1408.664021</ele>
        <time>2022-02-24T06:35:32.002Z</time>
      </trkpt>
      <trkpt lat="38.09487" lon="-2.69872">
        <ele>1410.442249</ele>
        <time>2022-02-24T06:35:49.441Z</time>
      </trkpt>
      <trkpt lat="38.09454" lon="-2.6988">
        <ele>1412.214843</ele>
        <time>2022-02-24T06:36:06.258Z</time>
      </trkpt>
      <trkpt lat="38.09358" lon="-2.69926">
        <ele>1417.36974</ele>
        <time>2022-02-24T06:36:52.817Z</time>
      </trkpt>
      <trkpt lat="38.09349" lon="-2.69938">
        <ele>1417.998651</ele>
        <time>2022-02-24T06:36:58.095Z</time>
      </trkpt>
      <trkpt lat="38.09285" lon="-2.70061">
        <ele>1423.57661</ele>
        <time>2022-02-24T06:37:49.673Z</time>
      </trkpt>
      <trkpt lat="38.09267" lon="-2.70058">
        <ele>1424.601447</ele>
        <time>2022-02-24T06:37:58.786Z</time>
      </trkpt>
      <trkpt lat="38.09223" lon="-2.70034">
        <ele>1427.684752</ele>
        <time>2022-02-24T06:38:27.245Z</time>
      </trkpt>
      <trkpt lat="38.09201" lon="-2.70016">
        <ele>1429.363615</ele>
        <time>2022-02-24T06:38:40.114Z</time>
      </trkpt>
      <trkpt lat="38.09178" lon="-2.70007">
        <ele>1430.972631</ele>
        <time>2022-02-24T06:38:56.329Z</time>
      </trkpt>
      <trkpt lat="38.09141" lon="-2.69999">
        <ele>1433.38383</ele>
        <time>2022-02-24T06:39:16.426Z</time>
      </trkpt>
      <trkpt lat="38.09139" lon="-2.70005">
        <ele>1433.73355</ele>
        <time>2022-02-24T06:39:18.191Z</time>
      </trkpt>
      <trkpt lat="38.09176" lon="-2.70022">
        <ele>1436.210701</ele>
        <time>2022-02-24T06:39:45.106Z</time>
      </trkpt>
      <trkpt lat="38.09198" lon="-2.70045">
        <ele>1437.923499</ele>
        <time>2022-02-24T06:40:07.883Z</time>
      </trkpt>
      <trkpt lat="38.09217" lon="-2.70089">
        <ele>1440.325946</ele>
        <time>2022-02-24T06:40:35.201Z</time>
      </trkpt>
      <trkpt lat="38.09215" lon="-2.70108">
        <ele>1441.230956</ele>
        <time>2022-02-24T06:40:45.001Z</time>
      </trkpt>
      <trkpt lat="38.09201" lon="-2.70114">
        <ele>1442.143732</ele>
        <time>2022-02-24T06:40:55.146Z</time>
      </trkpt>
      <trkpt lat="38.09196" lon="-2.70111">
        <ele>1442.482127</ele>
        <time>2022-02-24T06:40:57.076Z</time>
      </trkpt>
      <trkpt lat="38.09185" lon="-2.70081">
        <ele>1444.056793</ele>
        <time>2022-02-24T06:41:12.113Z</time>
      </trkpt>
      <trkpt lat="38.09175" lon="-2.7007">
        <ele>1444.826911</ele>
        <time>2022-02-24T06:41:19.242Z</time>
      </trkpt>
      <trkpt lat="38.0916" lon="-2.70063">
        <ele>1445.795462</ele>
        <time>2022-02-24T06:41:30.487Z</time>
      </trkpt>
      <trkpt lat="38.09107" lon="-2.70048">
        <ele>1450.363607</ele>
        <time>2022-02-24T06:42:09.982Z</time>
      </trkpt>
      <trkpt lat="38.09085" lon="-2.70051">
        <ele>1452.353924</ele>
        <time>2022-02-24T06:42:28.984Z</time>
      </trkpt>
      <trkpt lat="38.09062" lon="-2.70063">
        <ele>1454.553594</ele>
        <time>2022-02-24T06:42:48.370Z</time>
      </trkpt>
      <trkpt lat="38.09028" lon="-2.70113">
        <ele>1459.269407</ele>
        <time>2022-02-24T06:43:33.816Z</time>
      </trkpt>
      <trkpt lat="38.09014" lon="-2.70167">
        <ele>1463.44777</ele>
        <time>2022-02-24T06:44:14.038Z</time>
      </trkpt>
      <trkpt lat="38.08955" lon="-2.70234">
        <ele>1472.297263</ele>
        <time>2022-02-24T06:45:29.917Z</time>
      </trkpt>
      <trkpt lat="38.08911" lon="-2.70235">
        <ele>1477.197013</ele>
        <time>2022-02-24T06:46:10.402Z</time>
      </trkpt>
      <trkpt lat="38.08834" lon="-2.70201">
        <ele>1486.183632</ele>
        <time>2022-02-24T06:47:26.366Z</time>
      </trkpt>
      <trkpt lat="38.08762" lon="-2.70116">
        <ele>1496.502954</ele>
        <time>2022-02-24T06:48:56.809Z</time>
      </trkpt>
      <trkpt lat="38.0865" lon="-2.70136">
        <ele>1507.195406</ele>
        <time>2022-02-24T06:50:31.474Z</time>
      </trkpt>
      <trkpt lat="38.08631" lon="-2.70153">
        <ele>1509.187713</ele>
        <time>2022-02-24T06:50:51.354Z</time>
      </trkpt>
      <trkpt lat="38.08603" lon="-2.70143">
        <ele>1511.712258</ele>
        <time>2022-02-24T06:51:13.065Z</time>
      </trkpt>
      <trkpt lat="38.08568" lon="-2.70102">
        <ele>1515.83378</ele>
        <time>2022-02-24T06:51:49.603Z</time>
      </trkpt>
      <trkpt lat="38.08554" lon="-2.70054">
        <ele>1519.006284</ele>
        <time>2022-02-24T06:52:21.472Z</time>
      </trkpt>
      <trkpt lat="38.08534" lon="-2.70014">
        <ele>1521.614134</ele>
        <time>2022-02-24T06:52:51.699Z</time>
      </trkpt>
      <trkpt lat="38.08456" lon="-2.69949">
        <ele>1528.100201</ele>
        <time>2022-02-24T06:53:55.871Z</time>
      </trkpt>
      <trkpt lat="38.0839" lon="-2.69944">
        <ele>1531.842871</ele>
        <time>2022-02-24T06:54:40.702Z</time>
      </trkpt>
      <trkpt lat="38.0837" lon="-2.69935">
        <ele>1532.825199</ele>
        <time>2022-02-24T06:54:53.639Z</time>
      </trkpt>
      <trkpt lat="38.08332" lon="-2.6988">
        <ele>1535.521373</ele>
        <time>2022-02-24T06:55:28.743Z</time>
      </trkpt>
      <trkpt lat="38.0831" lon="-2.69859">
        <ele>1536.81552</ele>
        <time>2022-02-24T06:55:44.457Z</time>
      </trkpt>
      <trkpt lat="38.08202" lon="-2.69837">
        <ele>1541.439114</ele>
        <time>2022-02-24T06:56:42.450Z</time>
      </trkpt>
      <trkpt lat="38.08128" lon="-2.69793">
        <ele>1544.744658</ele>
        <time>2022-02-24T06:57:29.543Z</time>
      </trkpt>
      <trkpt lat="38.08077" lon="-2.69699">
        <ele>1549.635158</ele>
        <time>2022-02-24T06:58:27.955Z</time>
      </trkpt>
      <trkpt lat="38.08029" lon="-2.69643">
        <ele>1553.460201</ele>
        <time>2022-02-24T06:59:12.631Z</time>
      </trkpt>
      <trkpt lat="38.07938" lon="-2.69561">
        <ele>1559.999335</ele>
        <time>2022-02-24T07:00:29.395Z</time>
      </trkpt>
      <trkpt lat="38.07925" lon="-2.69541">
        <ele>1561.137428</ele>
        <time>2022-02-24T07:00:42.514Z</time>
      </trkpt>
      <trkpt lat="38.07909" lon="-2.69459">
        <ele>1565.006271</ele>
        <time>2022-02-24T07:01:25.371Z</time>
      </trkpt>
      <trkpt lat="38.07882" lon="-2.69403">
        <ele>1567.936147</ele>
        <time>2022-02-24T07:01:58.441Z</time>
      </trkpt>
      <trkpt lat="38.07844" lon="-2.69377">
        <ele>1570.33536</ele>
        <time>2022-02-24T07:02:25.797Z</time>
      </trkpt>
      <trkpt lat="38.07727" lon="-2.69354">
        <ele>1577.008537</ele>
        <time>2022-02-24T07:03:44.325Z</time>
      </trkpt>
      <trkpt lat="38.07674" lon="-2.69318">
        <ele>1580.238957</ele>
        <time>2022-02-24T07:04:23.768Z</time>
      </trkpt>
      <trkpt lat="38.07635" lon="-2.69274">
        <ele>1583.032807</ele>
        <time>2022-02-24T07:04:57.610Z</time>
      </trkpt>
      <trkpt lat="38.07616" lon="-2.69242">
        <ele>1584.749576</ele>
        <time>2022-02-24T07:05:17.763Z</time>
      </trkpt>
      <trkpt lat="38.07594" lon="-2.69183">
        <ele>1587.259366</ele>
        <time>2022-02-24T07:05:48.747Z</time>
      </trkpt>
      <trkpt lat="38.0758" lon="-2.69164">
        <ele>1588.115709</ele>
        <time>2022-02-24T07:06:00.827Z</time>
      </trkpt>
      <trkpt lat="38.07549" lon="-2.69128">
        <ele>1589.865965</ele>
        <time>2022-02-24T07:06:25.224Z</time>
      </trkpt>
      <trkpt lat="38.07468" lon="-2.6908">
        <ele>1593.569855</ele>
        <time>2022-02-24T07:07:15.637Z</time>
      </trkpt>
      <trkpt lat="38.07458" lon="-2.69057">
        <ele>1594.333336</ele>
        <time>2022-02-24T07:07:27.507Z</time>
      </trkpt>
      <trkpt lat="38.0743" lon="-2.69016">
        <ele>1595.795427</ele>
        <time>2022-02-24T07:07:51.753Z</time>
      </trkpt>
      <trkpt lat="38.07392" lon="-2.68971">
        <ele>1597.576112</ele>
        <time>2022-02-24T07:08:19.888Z</time>
      </trkpt>
      <trkpt lat="38.07349" lon="-2.68924">
        <ele>1599.52603</ele>
        <time>2022-02-24T07:08:50.537Z</time>
      </trkpt>
      <trkpt lat="38.07275" lon="-2.68859">
        <ele>1600.664555</ele>
        <time>2022-02-24T07:09:35.008Z</time>
      </trkpt>
      <trkpt lat="38.07216" lon="-2.68793">
        <ele>1601.300344</ele>
        <time>2022-02-24T07:10:05.199Z</time>
      </trkpt>
      <trkpt lat="38.07196" lon="-2.68778">
        <ele>1601.483026</ele>
        <time>2022-02-24T07:10:12.965Z</time>
      </trkpt>
      <trkpt lat="38.0714" lon="-2.68681">
        <ele>1600.323771</ele>
        <time>2022-02-24T07:10:43.752Z</time>
      </trkpt>
      <trkpt lat="38.07049" lon="-2.68671">
        <ele>1599.167356</ele>
        <time>2022-02-24T07:11:14.019Z</time>
      </trkpt>
      <trkpt lat="38.06929" lon="-2.68586">
        <ele>1600.744776</ele>
        <time>2022-02-24T07:12:11.338Z</time>
      </trkpt>
      <trkpt lat="38.06818" lon="-2.6853">
        <ele>1603.308656</ele>
        <time>2022-02-24T07:13:14.179Z</time>
      </trkpt>
      <trkpt lat="38.06805" lon="-2.68513">
        <ele>1603.795946</ele>
        <time>2022-02-24T07:13:24.650Z</time>
      </trkpt>
      <trkpt lat="38.06778" lon="-2.68498">
        <ele>1604.580233</ele>
        <time>2022-02-24T07:13:39.877Z</time>
      </trkpt>
      <trkpt lat="38.06727" lon="-2.68447">
        <ele>1605.9794</ele>
        <time>2022-02-24T07:14:10.265Z</time>
      </trkpt>
      <trkpt lat="38.067" lon="-2.68464">
        <ele>1605.960431</ele>
        <time>2022-02-24T07:14:22.875Z</time>
      </trkpt>
      <trkpt lat="38.06693" lon="-2.68473">
        <ele>1605.954325</ele>
        <time>2022-02-24T07:14:28.695Z</time>
      </trkpt>
      <trkpt lat="38.06695" lon="-2.6849">
        <ele>1605.945751</ele>
        <time>2022-02-24T07:14:33.569Z</time>
      </trkpt>
      <trkpt lat="38.06717" lon="-2.68537">
        <ele>1605.918556</ele>
        <time>2022-02-24T07:14:48.999Z</time>
      </trkpt>
      <trkpt lat="38.06727" lon="-2.68575">
        <ele>1605.898857</ele>
        <time>2022-02-24T07:14:59.690Z</time>
      </trkpt>
      <trkpt lat="38.06726" lon="-2.68605">
        <ele>1605.883799</ele>
        <time>2022-02-24T07:15:08.126Z</time>
      </trkpt>
      <trkpt lat="38.06718" lon="-2.68633">
        <ele>1605.740103</ele>
        <time>2022-02-24T07:15:15.773Z</time>
      </trkpt>
      <trkpt lat="38.06685" lon="-2.68692">
        <ele>1604.681345</ele>
        <time>2022-02-24T07:15:34.272Z</time>
      </trkpt>
      <trkpt lat="38.06667" lon="-2.68715">
        <ele>1604.194454</ele>
        <time>2022-02-24T07:15:42.702Z</time>
      </trkpt>
      <trkpt lat="38.06593" lon="-2.68779">
        <ele>1602.524877</ele>
        <time>2022-02-24T07:16:11.666Z</time>
      </trkpt>
      <trkpt lat="38.06571" lon="-2.68805">
        <ele>1602.270388</ele>
        <time>2022-02-24T07:16:21.433Z</time>
      </trkpt>
      <trkpt lat="38.06562" lon="-2.68819">
        <ele>1602.149817</ele>
        <time>2022-02-24T07:16:26.235Z</time>
      </trkpt>
      <trkpt lat="38.06545" lon="-2.68876">
        <ele>1601.74964</ele>
        <time>2022-02-24T07:16:42.700Z</time>
      </trkpt>
      <trkpt lat="38.06529" lon="-2.68906">
        <ele>1601.509706</ele>
        <time>2022-02-24T07:16:52.853Z</time>
      </trkpt>
      <trkpt lat="38.06482" lon="-2.68938">
        <ele>1601.064674</ele>
        <time>2022-02-24T07:17:12.276Z</time>
      </trkpt>
      <trkpt lat="38.06448" lon="-2.68953">
        <ele>1601.191773</ele>
        <time>2022-02-24T07:17:25.679Z</time>
      </trkpt>
      <trkpt lat="38.06433" lon="-2.68957">
        <ele>1601.291255</ele>
        <time>2022-02-24T07:17:31.510Z</time>
      </trkpt>
      <trkpt lat="38.0639" lon="-2.68951">
        <ele>1601.569634</ele>
        <time>2022-02-24T07:17:48.535Z</time>
      </trkpt>
      <trkpt lat="38.06388" lon="-2.68995">
        <ele>1601.791218</ele>
        <time>2022-02-24T07:18:02.759Z</time>
      </trkpt>
      <trkpt lat="38.06372" lon="-2.69046">
        <ele>1602.073373</ele>
        <time>2022-02-24T07:18:21.297Z</time>
      </trkpt>
      <trkpt lat="38.06331" lon="-2.69071">
        <ele>1602.537059</ele>
        <time>2022-02-24T07:18:40.620Z</time>
      </trkpt>
      <trkpt lat="38.06302" lon="-2.6914">
        <ele>1603.285448</ele>
        <time>2022-02-24T07:19:06.989Z</time>
      </trkpt>
      <trkpt lat="38.06274" lon="-2.69165">
        <ele>1603.7042</ele>
        <time>2022-02-24T07:19:21.923Z</time>
      </trkpt>
      <trkpt lat="38.06231" lon="-2.69216">
        <ele>1604.415715</ele>
        <time>2022-02-24T07:19:47.732Z</time>
      </trkpt>
      <trkpt lat="38.06184" lon="-2.69246">
        <ele>1604.995546</ele>
        <time>2022-02-24T07:20:10.571Z</time>
      </trkpt>
      <trkpt lat="38.06157" lon="-2.6928">
        <ele>1605.422177</ele>
        <time>2022-02-24T07:20:26.987Z</time>
      </trkpt>
      <trkpt lat="38.06093" lon="-2.69307">
        <ele>1606.168934</ele>
        <time>2022-02-24T07:20:54.875Z</time>
      </trkpt>
      <trkpt lat="38.06055" lon="-2.69335">
        <ele>1606.677605</ele>
        <time>2022-02-24T07:21:13.514Z</time>
      </trkpt>
      <trkpt lat="38.05992" lon="-2.69406">
        <ele>1607.646035</ele>
        <time>2022-02-24T07:21:48.647Z</time>
      </trkpt>
      <trkpt lat="38.05918" lon="-2.69441">
        <ele>1608.639144</ele>
        <time>2022-02-24T07:22:23.255Z</time>
      </trkpt>
      <trkpt lat="38.05862" lon="-2.69486">
        <ele>1609.970481</ele>
        <time>2022-02-24T07:22:54.067Z</time>
      </trkpt>
      <trkpt lat="38.05841" lon="-2.69511">
        <ele>1610.550134</ele>
        <time>2022-02-24T07:23:07.840Z</time>
      </trkpt>
      <trkpt lat="38.05814" lon="-2.69526">
        <ele>1611.138781</ele>
        <time>2022-02-24T07:23:22.003Z</time>
      </trkpt>
      <trkpt lat="38.05724" lon="-2.69599">
        <ele>1613.814834</ele>
        <time>2022-02-24T07:24:13.725Z</time>
      </trkpt>
      <trkpt lat="38.05672" lon="-2.69618">
        <ele>1615.373887</ele>
        <time>2022-02-24T07:24:41.366Z</time>
      </trkpt>
      <trkpt lat="38.05648" lon="-2.69641">
        <ele>1616.240316</ele>
        <time>2022-02-24T07:24:57.109Z</time>
      </trkpt>
      <trkpt lat="38.0561" lon="-2.69648">
        <ele>1617.40939</ele>
        <time>2022-02-24T07:25:17.969Z</time>
      </trkpt>
      <trkpt lat="38.05491" lon="-2.69708">
        <ele>1622.693838</ele>
        <time>2022-02-24T07:26:31.267Z</time>
      </trkpt>
      <trkpt lat="38.05448" lon="-2.6972">
        <ele>1624.505714</ele>
        <time>2022-02-24T07:26:57.645Z</time>
      </trkpt>
      <trkpt lat="38.05397" lon="-2.69774">
        <ele>1628.609107</ele>
        <time>2022-02-24T07:27:37.920Z</time>
      </trkpt>
      <trkpt lat="38.05369" lon="-2.6979">
        <ele>1630.559762</ele>
        <time>2022-02-24T07:27:59.075Z</time>
      </trkpt>
      <trkpt lat="38.05346" lon="-2.6979">
        <ele>1632.023937</ele>
        <time>2022-02-24T07:28:16.158Z</time>
      </trkpt>
      <trkpt lat="38.05295" lon="-2.69746">
        <ele>1635.915116</ele>
        <time>2022-02-24T07:29:01.431Z</time>
      </trkpt>
      <trkpt lat="38.0527" lon="-2.69737">
        <ele>1638.507235</ele>
        <time>2022-02-24T07:29:21.610Z</time>
      </trkpt>
      <trkpt lat="38.05253" lon="-2.6972">
        <ele>1640.653001</ele>
        <time>2022-02-24T07:29:39.175Z</time>
      </trkpt>
      <trkpt lat="38.05216" lon="-2.69698">
        <ele>1644.705055</ele>
        <time>2022-02-24T07:30:12.865Z</time>
      </trkpt>
      <trkpt lat="38.05153" lon="-2.69686">
        <ele>1651.172264</ele>
        <time>2022-02-24T07:31:11.128Z</time>
      </trkpt>
      <trkpt lat="38.05067" lon="-2.6965">
        <ele>1661.663829</ele>
        <time>2022-02-24T07:32:41.666Z</time>
      </trkpt>
      <trkpt lat="38.05035" lon="-2.69653">
        <ele>1665.737204</ele>
        <time>2022-02-24T07:33:14.204Z</time>
      </trkpt>
      <trkpt lat="38.0499" lon="-2.69666">
        <ele>1671.397384</ele>
        <time>2022-02-24T07:34:00.015Z</time>
      </trkpt>
      <trkpt lat="38.04937" lon="-2.69697">
        <ele>1678.372801</ele>
        <time>2022-02-24T07:34:59.199Z</time>
      </trkpt>
      <trkpt lat="38.04898" lon="-2.69736">
        <ele>1683.588473</ele>
        <time>2022-02-24T07:35:46.898Z</time>
      </trkpt>
      <trkpt lat="38.04854" lon="-2.69753">
        <ele>1688.44354</ele>
        <time>2022-02-24T07:36:29.873Z</time>
      </trkpt>
      <trkpt lat="38.04763" lon="-2.69871">
        <ele>1699.379377</ele>
        <time>2022-02-24T07:38:12.657Z</time>
      </trkpt>
      <trkpt lat="38.04725" lon="-2.69893">
        <ele>1701.998602</ele>
        <time>2022-02-24T07:38:41.538Z</time>
      </trkpt>
      <trkpt lat="38.04683" lon="-2.69942">
        <ele>1705.607117</ele>
        <time>2022-02-24T07:39:17.691Z</time>
      </trkpt>
      <trkpt lat="38.04648" lon="-2.69969">
        <ele>1706.948562</ele>
        <time>2022-02-24T07:39:40.456Z</time>
      </trkpt>
      <trkpt lat="38.04583" lon="-2.70042">
        <ele>1707.944694</ele>
        <time>2022-02-24T07:40:20.355Z</time>
      </trkpt>
      <trkpt lat="38.04523" lon="-2.7008">
        <ele>1708.713602</ele>
        <time>2022-02-24T07:40:45.025Z</time>
      </trkpt>
      <trkpt lat="38.04487" lon="-2.70113">
        <ele>1706.31489</ele>
        <time>2022-02-24T07:40:58.995Z</time>
      </trkpt>
      <trkpt lat="38.04468" lon="-2.70122">
        <ele>1705.146377</ele>
        <time>2022-02-24T07:41:04.946Z</time>
      </trkpt>
      <trkpt lat="38.04425" lon="-2.7016">
        <ele>1702.069448</ele>
        <time>2022-02-24T07:41:19.897Z</time>
      </trkpt>
      <trkpt lat="38.04419" lon="-2.70197">
        <ele>1700.329083</ele>
        <time>2022-02-24T07:41:27.767Z</time>
      </trkpt>
      <trkpt lat="38.04392" lon="-2.70229">
        <ele>1698.125739</ele>
        <time>2022-02-24T07:41:37.283Z</time>
      </trkpt>
      <trkpt lat="38.04361" lon="-2.70315">
        <ele>1690.783033</ele>
        <time>2022-02-24T07:41:56.357Z</time>
      </trkpt>
      <trkpt lat="38.04353" lon="-2.70374">
        <ele>1686.172776</ele>
        <time>2022-02-24T07:42:08.225Z</time>
      </trkpt>
      <trkpt lat="38.04352" lon="-2.70449">
        <ele>1680.475861</ele>
        <time>2022-02-24T07:42:23.706Z</time>
      </trkpt>
      <trkpt lat="38.04353" lon="-2.70455">
        <ele>1680.286633</ele>
        <time>2022-02-24T07:42:24.987Z</time>
      </trkpt>
      <trkpt lat="38.04358" lon="-2.70495">
        <ele>1679.071057</ele>
        <time>2022-02-24T07:42:33.608Z</time>
      </trkpt>
      <trkpt lat="38.04371" lon="-2.70533">
        <ele>1677.826505</ele>
        <time>2022-02-24T07:42:42.640Z</time>
      </trkpt>
      <trkpt lat="38.04359" lon="-2.706">
        <ele>1675.771221</ele>
        <time>2022-02-24T07:42:59.362Z</time>
      </trkpt>
      <trkpt lat="38.04253" lon="-2.70701">
        <ele>1675.996126</ele>
        <time>2022-02-24T07:43:52.743Z</time>
      </trkpt>
      <trkpt lat="38.04226" lon="-2.70789">
        <ele>1678.150223</ele>
        <time>2022-02-24T07:44:34.859Z</time>
      </trkpt>
      <trkpt lat="38.04185" lon="-2.70842">
        <ele>1680.873708</ele>
        <time>2022-02-24T07:45:14.033Z</time>
      </trkpt>
      <trkpt lat="38.04175" lon="-2.70892">
        <ele>1683.421142</ele>
        <time>2022-02-24T07:45:43.394Z</time>
      </trkpt>
      <trkpt lat="38.04138" lon="-2.70975">
        <ele>1688.096547</ele>
        <time>2022-02-24T07:46:36.615Z</time>
      </trkpt>
      <trkpt lat="38.04082" lon="-2.71026">
        <ele>1691.522081</ele>
        <time>2022-02-24T07:47:21.896Z</time>
      </trkpt>
      <trkpt lat="38.04036" lon="-2.71055">
        <ele>1693.510947</ele>
        <time>2022-02-24T07:47:52.803Z</time>
      </trkpt>
      <trkpt lat="38.04029" lon="-2.71065">
        <ele>1693.943071</ele>
        <time>2022-02-24T07:47:59.223Z</time>
      </trkpt>
      <trkpt lat="38.04035" lon="-2.71117">
        <ele>1695.547</ele>
        <time>2022-02-24T07:48:20.971Z</time>
      </trkpt>
      <trkpt lat="38.04032" lon="-2.71149">
        <ele>1696.547752</ele>
        <time>2022-02-24T07:48:33.482Z</time>
      </trkpt>
      <trkpt lat="38.04017" lon="-2.71176">
        <ele>1697.199648</ele>
        <time>2022-02-24T07:48:45.522Z</time>
      </trkpt>
      <trkpt lat="38.03992" lon="-2.71195">
        <ele>1697.399481</ele>
        <time>2022-02-24T07:48:58.284Z</time>
      </trkpt>
      <trkpt lat="38.03986" lon="-2.7121">
        <ele>1697.491122</ele>
        <time>2022-02-24T07:49:03.676Z</time>
      </trkpt>
      <trkpt lat="38.03987" lon="-2.71246">
        <ele>1697.689654</ele>
        <time>2022-02-24T07:49:15.282Z</time>
      </trkpt>
      <trkpt lat="38.03998" lon="-2.71297">
        <ele>1697.972014</ele>
        <time>2022-02-24T07:49:30.781Z</time>
      </trkpt>
      <trkpt lat="38.03997" lon="-2.71317">
        <ele>1698.085331</ele>
        <time>2022-02-24T07:49:37.017Z</time>
      </trkpt>
      <trkpt lat="38.03993" lon="-2.71327">
        <ele>1698.143384</ele>
        <time>2022-02-24T07:49:40.210Z</time>
      </trkpt>
      <trkpt lat="38.03966" lon="-2.71351">
        <ele>1698.358013</ele>
        <time>2022-02-24T07:49:52.426Z</time>
      </trkpt>
      <trkpt lat="38.03954" lon="-2.71383">
        <ele>1698.190643</ele>
        <time>2022-02-24T07:50:02.786Z</time>
      </trkpt>
      <trkpt lat="38.03943" lon="-2.71435">
        <ele>1697.938208</ele>
        <time>2022-02-24T07:50:18.056Z</time>
      </trkpt>
      <trkpt lat="38.03938" lon="-2.71501">
        <ele>1697.627738</ele>
        <time>2022-02-24T07:50:36.467Z</time>
      </trkpt>
      <trkpt lat="38.03929" lon="-2.71526">
        <ele>1697.500188</ele>
        <time>2022-02-24T07:50:44.066Z</time>
      </trkpt>
      <trkpt lat="38.03915" lon="-2.71556">
        <ele>1697.331729</ele>
        <time>2022-02-24T07:50:54.182Z</time>
      </trkpt>
      <trkpt lat="38.0389" lon="-2.71577">
        <ele>1696.803363</ele>
        <time>2022-02-24T07:51:04.239Z</time>
      </trkpt>
      <trkpt lat="38.03861" lon="-2.71594">
        <ele>1696.134536</ele>
        <time>2022-02-24T07:51:14.248Z</time>
      </trkpt>
      <trkpt lat="38.03833" lon="-2.71601">
        <ele>1695.532685</ele>
        <time>2022-02-24T07:51:23.329Z</time>
      </trkpt>
      <trkpt lat="38.03776" lon="-2.71629">
        <ele>1694.227596</ele>
        <time>2022-02-24T07:51:43.044Z</time>
      </trkpt>
      <trkpt lat="38.03766" lon="-2.71699">
        <ele>1693.204955</ele>
        <time>2022-02-24T07:52:00.558Z</time>
      </trkpt>
      <trkpt lat="38.03748" lon="-2.71715">
        <ele>1692.909845</ele>
        <time>2022-02-24T07:52:07.804Z</time>
      </trkpt>
      <trkpt lat="38.03684" lon="-2.7174">
        <ele>1692.024312</ele>
        <time>2022-02-24T07:52:29.413Z</time>
      </trkpt>
      <trkpt lat="38.03609" lon="-2.71807">
        <ele>1691.600305</ele>
        <time>2022-02-24T07:53:02.476Z</time>
      </trkpt>
      <trkpt lat="38.0357" lon="-2.71834">
        <ele>1692.646928</ele>
        <time>2022-02-24T07:53:24.022Z</time>
      </trkpt>
      <trkpt lat="38.0353" lon="-2.71852">
        <ele>1693.646981</ele>
        <time>2022-02-24T07:53:45.860Z</time>
      </trkpt>
      <trkpt lat="38.03463" lon="-2.71902">
        <ele>1695.489226</ele>
        <time>2022-02-24T07:54:28.368Z</time>
      </trkpt>
      <trkpt lat="38.03349" lon="-2.71966">
        <ele>1698.778359</ele>
        <time>2022-02-24T07:55:33.873Z</time>
      </trkpt>
      <trkpt lat="38.03307" lon="-2.72001">
        <ele>1700.097824</ele>
        <time>2022-02-24T07:55:56.522Z</time>
      </trkpt>
      <trkpt lat="38.03301" lon="-2.72012">
        <ele>1700.176416</ele>
        <time>2022-02-24T07:56:00.766Z</time>
      </trkpt>
      <trkpt lat="38.033" lon="-2.7203">
        <ele>1700.291254</ele>
        <time>2022-02-24T07:56:07.388Z</time>
      </trkpt>
      <trkpt lat="38.03319" lon="-2.72063">
        <ele>1700.538785</ele>
        <time>2022-02-24T07:56:20.676Z</time>
      </trkpt>
      <trkpt lat="38.03319" lon="-2.72083">
        <ele>1700.657296</ele>
        <time>2022-02-24T07:56:26.926Z</time>
      </trkpt>
      <trkpt lat="38.03296" lon="-2.72136">
        <ele>1701.031316</ele>
        <time>2022-02-24T07:56:46.232Z</time>
      </trkpt>
      <trkpt lat="38.03272" lon="-2.7218">
        <ele>1701.362289</ele>
        <time>2022-02-24T07:57:03.014Z</time>
      </trkpt>
      <trkpt lat="38.03256" lon="-2.72236">
        <ele>1701.534393</ele>
        <time>2022-02-24T07:57:20.470Z</time>
      </trkpt>
      <trkpt lat="38.03225" lon="-2.72297">
        <ele>1701.621691</ele>
        <time>2022-02-24T07:57:42.256Z</time>
      </trkpt>
      <trkpt lat="38.03219" lon="-2.72308">
        <ele>1701.63848</ele>
        <time>2022-02-24T07:57:46.714Z</time>
      </trkpt>
      <trkpt lat="38.03097" lon="-2.72557">
        <ele>1701.867399</ele>
        <time>2022-02-24T07:59:11.862Z</time>
      </trkpt>
      <trkpt lat="38.03066" lon="-2.72576">
        <ele>1701.908525</ele>
        <time>2022-02-24T07:59:25.221Z</time>
      </trkpt>
      <trkpt lat="38.0306" lon="-2.72588">
        <ele>1701.97063</ele>
        <time>2022-02-24T07:59:29.946Z</time>
      </trkpt>
      <trkpt lat="38.03062" lon="-2.72612">
        <ele>1702.070408</ele>
        <time>2022-02-24T07:59:37.472Z</time>
      </trkpt>
      <trkpt lat="38.03077" lon="-2.72638">
        <ele>1702.20301</ele>
        <time>2022-02-24T07:59:47.591Z</time>
      </trkpt>
      <trkpt lat="38.03084" lon="-2.72663">
        <ele>1702.313936</ele>
        <time>2022-02-24T07:59:56.220Z</time>
      </trkpt>
      <trkpt lat="38.03077" lon="-2.72728">
        <ele>1702.583802</ele>
        <time>2022-02-24T08:00:17.221Z</time>
      </trkpt>
      <trkpt lat="38.03068" lon="-2.72754">
        <ele>1702.700466</ele>
        <time>2022-02-24T08:00:26.287Z</time>
      </trkpt>
      <trkpt lat="38.02991" lon="-2.72874">
        <ele>1703.123151</ele>
        <time>2022-02-24T08:01:13.330Z</time>
      </trkpt>
      <trkpt lat="38.02932" lon="-2.72929">
        <ele>1703.345585</ele>
        <time>2022-02-24T08:01:40.504Z</time>
      </trkpt>
      <trkpt lat="38.02914" lon="-2.72995">
        <ele>1704.314742</ele>
        <time>2022-02-24T08:02:02.224Z</time>
      </trkpt>
      <trkpt lat="38.0284" lon="-2.73118">
        <ele>1706.824925</ele>
        <time>2022-02-24T08:03:01.681Z</time>
      </trkpt>
      <trkpt lat="38.02827" lon="-2.73154">
        <ele>1707.990487</ele>
        <time>2022-02-24T08:03:18.508Z</time>
      </trkpt>
      <trkpt lat="38.02813" lon="-2.73169">
        <ele>1708.887577</ele>
        <time>2022-02-24T08:03:29.855Z</time>
      </trkpt>
      <trkpt lat="38.02722" lon="-2.73172">
        <ele>1713.364287</ele>
        <time>2022-02-24T08:04:26.056Z</time>
      </trkpt>
      <trkpt lat="38.02692" lon="-2.7318">
        <ele>1714.862137</ele>
        <time>2022-02-24T08:04:47.316Z</time>
      </trkpt>
      <trkpt lat="38.02591" lon="-2.73254">
        <ele>1721.69235</ele>
        <time>2022-02-24T08:06:05.042Z</time>
      </trkpt>
      <trkpt lat="38.02564" lon="-2.73267">
        <ele>1723.398838</ele>
        <time>2022-02-24T08:06:24.738Z</time>
      </trkpt>
      <trkpt lat="38.02509" lon="-2.73278">
        <ele>1726.790956</ele>
        <time>2022-02-24T08:07:03.214Z</time>
      </trkpt>
      <trkpt lat="38.02465" lon="-2.73271">
        <ele>1729.331697</ele>
        <time>2022-02-24T08:07:32.781Z</time>
      </trkpt>
      <trkpt lat="38.02404" lon="-2.733">
        <ele>1733.00884</ele>
        <time>2022-02-24T08:08:15.260Z</time>
      </trkpt>
      <trkpt lat="38.02366" lon="-2.73341">
        <ele>1735.848992</ele>
        <time>2022-02-24T08:08:47.254Z</time>
      </trkpt>
      <trkpt lat="38.02342" lon="-2.7335">
        <ele>1737.246852</ele>
        <time>2022-02-24T08:09:03.491Z</time>
      </trkpt>
      <trkpt lat="38.02253" lon="-2.73347">
        <ele>1741.505505</ele>
        <time>2022-02-24T08:10:00.300Z</time>
      </trkpt>
      <trkpt lat="38.02213" lon="-2.73329">
        <ele>1743.576463</ele>
        <time>2022-02-24T08:10:26.823Z</time>
      </trkpt>
      <trkpt lat="38.02184" lon="-2.73329">
        <ele>1744.941403</ele>
        <time>2022-02-24T08:10:43.648Z</time>
      </trkpt>
      <trkpt lat="38.02167" lon="-2.73347">
        <ele>1745.911294</ele>
        <time>2022-02-24T08:10:56.061Z</time>
      </trkpt>
      <trkpt lat="38.02155" lon="-2.73387">
        <ele>1747.047679</ele>
        <time>2022-02-24T08:11:13.232Z</time>
      </trkpt>
      <trkpt lat="38.02139" lon="-2.7342">
        <ele>1748.10949</ele>
        <time>2022-02-24T08:11:28.843Z</time>
      </trkpt>
      <trkpt lat="38.02123" lon="-2.73483">
        <ele>1749.863053</ele>
        <time>2022-02-24T08:11:54.979Z</time>
      </trkpt>
      <trkpt lat="38.02118" lon="-2.73537">
        <ele>1751.328486</ele>
        <time>2022-02-24T08:12:17.017Z</time>
      </trkpt>
      <trkpt lat="38.02107" lon="-2.73549">
        <ele>1751.932086</ele>
        <time>2022-02-24T08:12:25.882Z</time>
      </trkpt>
      <trkpt lat="38.02081" lon="-2.73559">
        <ele>1753.898082</ele>
        <time>2022-02-24T08:12:43.297Z</time>
      </trkpt>
      <trkpt lat="38.02049" lon="-2.73602">
        <ele>1757.247493</ele>
        <time>2022-02-24T08:13:15.520Z</time>
      </trkpt>
      <trkpt lat="38.01995" lon="-2.73622">
        <ele>1761.31868</ele>
        <time>2022-02-24T08:13:59.748Z</time>
      </trkpt>
      <trkpt lat="38.01959" lon="-2.73651">
        <ele>1764.434339</ele>
        <time>2022-02-24T08:14:37.923Z</time>
      </trkpt>
      <trkpt lat="38.0187" lon="-2.73768">
        <ele>1772.096605</ele>
        <time>2022-02-24T08:16:15.312Z</time>
      </trkpt>
      <trkpt lat="38.01861" lon="-2.73796">
        <ele>1773.539836</ele>
        <time>2022-02-24T08:16:29.718Z</time>
      </trkpt>
      <trkpt lat="38.01841" lon="-2.73813">
        <ele>1774.936549</ele>
        <time>2022-02-24T08:16:40.617Z</time>
      </trkpt>
      <trkpt lat="38.018" lon="-2.73835">
        <ele>1774.234197</ele>
        <time>2022-02-24T08:16:57.888Z</time>
      </trkpt>
      <trkpt lat="38.01787" lon="-2.73849">
        <ele>1773.628527</ele>
        <time>2022-02-24T08:17:03.664Z</time>
      </trkpt>
      <trkpt lat="38.01739" lon="-2.73932">
        <ele>1770.812004</ele>
        <time>2022-02-24T08:17:27.489Z</time>
      </trkpt>
      <trkpt lat="38.01693" lon="-2.73983">
        <ele>1768.143587</ele>
        <time>2022-02-24T08:17:44.141Z</time>
      </trkpt>
      <trkpt lat="38.01625" lon="-2.74027">
        <ele>1762.65869</ele>
        <time>2022-02-24T08:18:04.632Z</time>
      </trkpt>
      <trkpt lat="38.01591" lon="-2.74019">
        <ele>1760.227762</ele>
        <time>2022-02-24T08:18:13.844Z</time>
      </trkpt>
      <trkpt lat="38.01571" lon="-2.74027">
        <ele>1758.739058</ele>
        <time>2022-02-24T08:18:19.487Z</time>
      </trkpt>
      <trkpt lat="38.01565" lon="-2.74025">
        <ele>1758.239414</ele>
        <time>2022-02-24T08:18:21.323Z</time>
      </trkpt>
      <trkpt lat="38.01531" lon="-2.73974">
        <ele>1755.055618</ele>
        <time>2022-02-24T08:18:36.182Z</time>
      </trkpt>
      <trkpt lat="38.01532" lon="-2.73956">
        <ele>1754.346957</ele>
        <time>2022-02-24T08:18:40.076Z</time>
      </trkpt>
      <trkpt lat="38.01546" lon="-2.73912">
        <ele>1752.485466</ele>
        <time>2022-02-24T08:18:50.536Z</time>
      </trkpt>
      <trkpt lat="38.01542" lon="-2.73905">
        <ele>1752.160485</ele>
        <time>2022-02-24T08:18:52.349Z</time>
      </trkpt>
      <trkpt lat="38.01511" lon="-2.73884">
        <ele>1750.401459</ele>
        <time>2022-02-24T08:19:02.247Z</time>
      </trkpt>
      <trkpt lat="38.01477" lon="-2.73874">
        <ele>1748.61947</ele>
        <time>2022-02-24T08:19:13.466Z</time>
      </trkpt>
      <trkpt lat="38.01446" lon="-2.73885">
        <ele>1747.053717</ele>
        <time>2022-02-24T08:19:23.464Z</time>
      </trkpt>
      <trkpt lat="38.01432" lon="-2.73852">
        <ele>1745.787778</ele>
        <time>2022-02-24T08:19:32.337Z</time>
      </trkpt>
      <trkpt lat="38.01291" lon="-2.73697">
        <ele>1738.390022</ele>
        <time>2022-02-24T08:20:26.555Z</time>
      </trkpt>
      <trkpt lat="38.01282" lon="-2.73691">
        <ele>1738.10253</ele>
        <time>2022-02-24T08:20:29.966Z</time>
      </trkpt>
      <trkpt lat="38.01259" lon="-2.7369">
        <ele>1737.484239</ele>
        <time>2022-02-24T08:20:36.800Z</time>
      </trkpt>
      <trkpt lat="38.01232" lon="-2.73733">
        <ele>1736.331936</ele>
        <time>2022-02-24T08:20:50.482Z</time>
      </trkpt>
      <trkpt lat="38.01182" lon="-2.73762">
        <ele>1734.836819</ele>
        <time>2022-02-24T08:21:09.155Z</time>
      </trkpt>
      <trkpt lat="38.01123" lon="-2.73822">
        <ele>1734.915399</ele>
        <time>2022-02-24T08:21:36.928Z</time>
      </trkpt>
      <trkpt lat="38.0107" lon="-2.73862">
        <ele>1735.080086</ele>
        <time>2022-02-24T08:22:03.004Z</time>
      </trkpt>
      <trkpt lat="38.01042" lon="-2.73866">
        <ele>1735.15505</ele>
        <time>2022-02-24T08:22:14.675Z</time>
      </trkpt>
      <trkpt lat="38.01026" lon="-2.73877">
        <ele>1735.204142</ele>
        <time>2022-02-24T08:22:22.164Z</time>
      </trkpt>
      <trkpt lat="38.00988" lon="-2.7393">
        <ele>1734.444501</ele>
        <time>2022-02-24T08:22:43.624Z</time>
      </trkpt>
      <trkpt lat="38.0096" lon="-2.73958">
        <ele>1733.961904</ele>
        <time>2022-02-24T08:22:56.000Z</time>
      </trkpt>
      <trkpt lat="38.00953" lon="-2.73979">
        <ele>1733.717311</ele>
        <time>2022-02-24T08:23:01.940Z</time>
      </trkpt>
      <trkpt lat="38.00927" lon="-2.74002">
        <ele>1733.287614</ele>
        <time>2022-02-24T08:23:12.052Z</time>
      </trkpt>
      <trkpt lat="38.00873" lon="-2.74035">
        <ele>1731.762707</ele>
        <time>2022-02-24T08:23:30.617Z</time>
      </trkpt>
      <trkpt lat="38.00831" lon="-2.74051">
        <ele>1729.7018</ele>
        <time>2022-02-24T08:23:43.758Z</time>
      </trkpt>
      <trkpt lat="38.00805" lon="-2.74069">
        <ele>1728.337124</ele>
        <time>2022-02-24T08:23:52.163Z</time>
      </trkpt>
      <trkpt lat="38.00734" lon="-2.74103">
        <ele>1724.796286</ele>
        <time>2022-02-24T08:24:13.610Z</time>
      </trkpt>
      <trkpt lat="38.00683" lon="-2.74134">
        <ele>1722.308821</ele>
        <time>2022-02-24T08:24:29.810Z</time>
      </trkpt>
      <trkpt lat="38.00662" lon="-2.74153">
        <ele>1721.207054</ele>
        <time>2022-02-24T08:24:37.118Z</time>
      </trkpt>
      <trkpt lat="38.00559" lon="-2.74207">
        <ele>1716.515933</ele>
        <time>2022-02-24T08:25:10.456Z</time>
      </trkpt>
      <trkpt lat="38.00467" lon="-2.74238">
        <ele>1714.583764</ele>
        <time>2022-02-24T08:25:40.993Z</time>
      </trkpt>
      <trkpt lat="38.00422" lon="-2.74266">
        <ele>1713.552951</ele>
        <time>2022-02-24T08:25:58.007Z</time>
      </trkpt>
      <trkpt lat="38.00377" lon="-2.74281">
        <ele>1712.814284</ele>
        <time>2022-02-24T08:26:13.700Z</time>
      </trkpt>
      <trkpt lat="38.00332" lon="-2.74311">
        <ele>1712.393661</ele>
        <time>2022-02-24T08:26:31.351Z</time>
      </trkpt>
      <trkpt lat="38.00274" lon="-2.74332">
        <ele>1711.891354</ele>
        <time>2022-02-24T08:26:52.758Z</time>
      </trkpt>
      <trkpt lat="38.00164" lon="-2.7444">
        <ele>1711.140593</ele>
        <time>2022-02-24T08:27:41.688Z</time>
      </trkpt>
      <trkpt lat="38.0009" lon="-2.74484">
        <ele>1710.834602</ele>
        <time>2022-02-24T08:28:11.112Z</time>
      </trkpt>
      <trkpt lat="37.99995" lon="-2.746">
        <ele>1711.485593</ele>
        <time>2022-02-24T08:29:02.806Z</time>
      </trkpt>
      <trkpt lat="37.99894" lon="-2.74673">
        <ele>1712.251814</ele>
        <time>2022-02-24T08:29:52.464Z</time>
      </trkpt>
      <trkpt lat="37.99882" lon="-2.74675">
        <ele>1712.337964</ele>
        <time>2022-02-24T08:29:57.331Z</time>
      </trkpt>
      <trkpt lat="37.99862" lon="-2.74663">
        <ele>1712.504001</ele>
        <time>2022-02-24T08:30:06.691Z</time>
      </trkpt>
      <trkpt lat="37.99846" lon="-2.74661">
        <ele>1712.618635</ele>
        <time>2022-02-24T08:30:13.084Z</time>
      </trkpt>
      <trkpt lat="37.99835" lon="-2.74671">
        <ele>1712.721102</ele>
        <time>2022-02-24T08:30:18.774Z</time>
      </trkpt>
      <trkpt lat="37.99818" lon="-2.74698">
        <ele>1712.923242</ele>
        <time>2022-02-24T08:30:29.669Z</time>
      </trkpt>
      <trkpt lat="37.99773" lon="-2.74723">
        <ele>1713.145476</ele>
        <time>2022-02-24T08:30:48.617Z</time>
      </trkpt>
      <trkpt lat="37.99751" lon="-2.74731">
        <ele>1713.122209</ele>
        <time>2022-02-24T08:30:56.965Z</time>
      </trkpt>
      <trkpt lat="37.99693" lon="-2.74734">
        <ele>1713.063049</ele>
        <time>2022-02-24T08:31:17.886Z</time>
      </trkpt>
      <trkpt lat="37.99659" lon="-2.74749">
        <ele>1713.025649</ele>
        <time>2022-02-24T08:31:31.081Z</time>
      </trkpt>
      <trkpt lat="37.99646" lon="-2.74761">
        <ele>1713.009474</ele>
        <time>2022-02-24T08:31:36.829Z</time>
      </trkpt>
      <trkpt lat="37.99642" lon="-2.74796">
        <ele>1712.981192</ele>
        <time>2022-02-24T08:31:46.919Z</time>
      </trkpt>
      <trkpt lat="37.99627" lon="-2.74808">
        <ele>1713.056911</ele>
        <time>2022-02-24T08:31:53.406Z</time>
      </trkpt>
      <trkpt lat="37.99608" lon="-2.74811">
        <ele>1713.156175</ele>
        <time>2022-02-24T08:32:00.447Z</time>
      </trkpt>
      <trkpt lat="37.99567" lon="-2.74802">
        <ele>1713.374183</ele>
        <time>2022-02-24T08:32:16.218Z</time>
      </trkpt>
      <trkpt lat="37.99501" lon="-2.74832">
        <ele>1713.741476</ele>
        <time>2022-02-24T08:32:44.136Z</time>
      </trkpt>
      <trkpt lat="37.9947" lon="-2.74852">
        <ele>1713.939552</ele>
        <time>2022-02-24T08:32:58.827Z</time>
      </trkpt>
      <trkpt lat="37.99434" lon="-2.74863">
        <ele>1714.822983</ele>
        <time>2022-02-24T08:33:15.528Z</time>
      </trkpt>
      <trkpt lat="37.99414" lon="-2.7489">
        <ele>1715.507912</ele>
        <time>2022-02-24T08:33:29.286Z</time>
      </trkpt>
      <trkpt lat="37.99377" lon="-2.74881">
        <ele>1716.406169</ele>
        <time>2022-02-24T08:33:48.217Z</time>
      </trkpt>
      <trkpt lat="37.99351" lon="-2.74893">
        <ele>1717.043989</ele>
        <time>2022-02-24T08:34:02.175Z</time>
      </trkpt>
      <trkpt lat="37.99322" lon="-2.74894">
        <ele>1717.7369</ele>
        <time>2022-02-24T08:34:17.708Z</time>
      </trkpt>
      <trkpt lat="37.99284" lon="-2.74908">
        <ele>1718.533615</ele>
        <time>2022-02-24T08:34:38.955Z</time>
      </trkpt>
      <trkpt lat="37.99239" lon="-2.74896">
        <ele>1719.345138</ele>
        <time>2022-02-24T08:35:03.862Z</time>
      </trkpt>
      <trkpt lat="37.99182" lon="-2.74939">
        <ele>1720.495003</ele>
        <time>2022-02-24T08:35:34.788Z</time>
      </trkpt>
      <trkpt lat="37.99128" lon="-2.74911">
        <ele>1720.88579</ele>
        <time>2022-02-24T08:35:57.151Z</time>
      </trkpt>
      <trkpt lat="37.99095" lon="-2.74905">
        <ele>1719.757782</ele>
        <time>2022-02-24T08:36:08.098Z</time>
      </trkpt>
      <trkpt lat="37.99039" lon="-2.74872">
        <ele>1717.677267</ele>
        <time>2022-02-24T08:36:26.951Z</time>
      </trkpt>
      <trkpt lat="37.98989" lon="-2.74872">
        <ele>1715.950985</ele>
        <time>2022-02-24T08:36:41.678Z</time>
      </trkpt>
      <trkpt lat="37.9896" lon="-2.74891">
        <ele>1714.526517</ele>
        <time>2022-02-24T08:36:50.631Z</time>
      </trkpt>
      <trkpt lat="37.98947" lon="-2.74923">
        <ele>1712.591115</ele>
        <time>2022-02-24T08:36:58.484Z</time>
      </trkpt>
      <trkpt lat="37.98858" lon="-2.74972">
        <ele>1706.047682</ele>
        <time>2022-02-24T08:37:25.091Z</time>
      </trkpt>
      <trkpt lat="37.98827" lon="-2.75001">
        <ele>1703.456708</ele>
        <time>2022-02-24T08:37:35.588Z</time>
      </trkpt>
      <trkpt lat="37.9876" lon="-2.75014">
        <ele>1698.665658</ele>
        <time>2022-02-24T08:37:54.011Z</time>
      </trkpt>
      <trkpt lat="37.98696" lon="-2.75018">
        <ele>1694.153074</ele>
        <time>2022-02-24T08:38:11.309Z</time>
      </trkpt>
      <trkpt lat="37.98661" lon="-2.75033">
        <ele>1691.59295</ele>
        <time>2022-02-24T08:38:21.200Z</time>
      </trkpt>
      <trkpt lat="37.98559" lon="-2.75124">
        <ele>1684.774293</ele>
        <time>2022-02-24T08:38:56.406Z</time>
      </trkpt>
      <trkpt lat="37.98517" lon="-2.75146">
        <ele>1682.429926</ele>
        <time>2022-02-24T08:39:09.681Z</time>
      </trkpt>
      <trkpt lat="37.98476" lon="-2.75206">
        <ele>1680.320637</ele>
        <time>2022-02-24T08:39:28.752Z</time>
      </trkpt>
      <trkpt lat="37.98448" lon="-2.75224">
        <ele>1679.653748</ele>
        <time>2022-02-24T08:39:38.810Z</time>
      </trkpt>
      <trkpt lat="37.98391" lon="-2.75249">
        <ele>1678.387206</ele>
        <time>2022-02-24T08:39:58.672Z</time>
      </trkpt>
      <trkpt lat="37.98309" lon="-2.75318">
        <ele>1676.699253</ele>
        <time>2022-02-24T08:40:32.445Z</time>
      </trkpt>
      <trkpt lat="37.98281" lon="-2.75331">
        <ele>1676.312954</ele>
        <time>2022-02-24T08:40:42.827Z</time>
      </trkpt>
      <trkpt lat="37.98251" lon="-2.75353">
        <ele>1675.868813</ele>
        <time>2022-02-24T08:40:54.627Z</time>
      </trkpt>
      <trkpt lat="37.98211" lon="-2.75354">
        <ele>1675.345502</ele>
        <time>2022-02-24T08:41:08.302Z</time>
      </trkpt>
      <trkpt lat="37.98188" lon="-2.75362">
        <ele>1675.047826</ele>
        <time>2022-02-24T08:41:15.960Z</time>
      </trkpt>
      <trkpt lat="37.98162" lon="-2.7536">
        <ele>1674.56439</ele>
        <time>2022-02-24T08:41:24.509Z</time>
      </trkpt>
      <trkpt lat="37.98087" lon="-2.75393">
        <ele>1672.981355</ele>
        <time>2022-02-24T08:41:50.410Z</time>
      </trkpt>
      <trkpt lat="37.98035" lon="-2.75433">
        <ele>1671.776757</ele>
        <time>2022-02-24T08:42:09.779Z</time>
      </trkpt>
      <trkpt lat="37.97924" lon="-2.75551">
        <ele>1669.864788</ele>
        <time>2022-02-24T08:42:57.959Z</time>
      </trkpt>
      <trkpt lat="37.97886" lon="-2.75585">
        <ele>1669.29963</ele>
        <time>2022-02-24T08:43:14.714Z</time>
      </trkpt>
      <trkpt lat="37.97837" lon="-2.75581">
        <ele>1669.209843</ele>
        <time>2022-02-24T08:43:33.002Z</time>
      </trkpt>
      <trkpt lat="37.97755" lon="-2.75607">
        <ele>1669.192502</ele>
        <time>2022-02-24T08:44:05.441Z</time>
      </trkpt>
      <trkpt lat="37.97725" lon="-2.75602">
        <ele>1669.186191</ele>
        <time>2022-02-24T08:44:16.930Z</time>
      </trkpt>
      <trkpt lat="37.97708" lon="-2.75617">
        <ele>1669.181967</ele>
        <time>2022-02-24T08:44:24.484Z</time>
      </trkpt>
      <trkpt lat="37.97686" lon="-2.75628">
        <ele>1668.95404</ele>
        <time>2022-02-24T08:44:32.947Z</time>
      </trkpt>
      <trkpt lat="37.97674" lon="-2.75652">
        <ele>1668.717922</ele>
        <time>2022-02-24T08:44:40.913Z</time>
      </trkpt>
      <trkpt lat="37.97577" lon="-2.757">
        <ele>1667.628909</ele>
        <time>2022-02-24T08:45:15.763Z</time>
      </trkpt>
      <trkpt lat="37.97568" lon="-2.757">
        <ele>1667.527977</ele>
        <time>2022-02-24T08:45:19.191Z</time>
      </trkpt>
      <trkpt lat="37.97531" lon="-2.75684">
        <ele>1667.085669</ele>
        <time>2022-02-24T08:45:32.375Z</time>
      </trkpt>
      <trkpt lat="37.9747" lon="-2.75704">
        <ele>1666.277682</ele>
        <time>2022-02-24T08:45:53.345Z</time>
      </trkpt>
      <trkpt lat="37.97459" lon="-2.75707">
        <ele>1666.129904</ele>
        <time>2022-02-24T08:45:57.965Z</time>
      </trkpt>
      <trkpt lat="37.97441" lon="-2.75699">
        <ele>1665.879094</ele>
        <time>2022-02-24T08:46:04.287Z</time>
      </trkpt>
      <trkpt lat="37.97356" lon="-2.75649">
        <ele>1664.453717</ele>
        <time>2022-02-24T08:46:36.029Z</time>
      </trkpt>
      <trkpt lat="37.97296" lon="-2.75686">
        <ele>1662.936376</ele>
        <time>2022-02-24T08:46:58.715Z</time>
      </trkpt>
      <trkpt lat="37.97232" lon="-2.75679">
        <ele>1661.48243</ele>
        <time>2022-02-24T08:47:18.405Z</time>
      </trkpt>
      <trkpt lat="37.97165" lon="-2.75658">
        <ele>1659.619218</ele>
        <time>2022-02-24T08:47:39.474Z</time>
      </trkpt>
      <trkpt lat="37.97126" lon="-2.75666">
        <ele>1658.456607</ele>
        <time>2022-02-24T08:47:51.610Z</time>
      </trkpt>
      <trkpt lat="37.9711" lon="-2.75667">
        <ele>1657.995095</ele>
        <time>2022-02-24T08:47:56.264Z</time>
      </trkpt>
      <trkpt lat="37.97084" lon="-2.75648">
        <ele>1657.130265</ele>
        <time>2022-02-24T08:48:05.467Z</time>
      </trkpt>
      <trkpt lat="37.97039" lon="-2.75661">
        <ele>1655.764306</ele>
        <time>2022-02-24T08:48:20.222Z</time>
      </trkpt>
      <trkpt lat="37.96999" lon="-2.75646">
        <ele>1655.272909</ele>
        <time>2022-02-24T08:48:33.908Z</time>
      </trkpt>
      <trkpt lat="37.96989" lon="-2.75633">
        <ele>1655.142459</ele>
        <time>2022-02-24T08:48:38.730Z</time>
      </trkpt>
      <trkpt lat="37.96993" lon="-2.75607">
        <ele>1654.946522</ele>
        <time>2022-02-24T08:48:46.120Z</time>
      </trkpt>
      <trkpt lat="37.96986" lon="-2.7557">
        <ele>1654.663614</ele>
        <time>2022-02-24T08:48:57.401Z</time>
      </trkpt>
      <trkpt lat="37.96988" lon="-2.75559">
        <ele>1654.580399</ele>
        <time>2022-02-24T08:49:00.848Z</time>
      </trkpt>
      <trkpt lat="37.96981" lon="-2.75525">
        <ele>1654.32167</ele>
        <time>2022-02-24T08:49:10.701Z</time>
      </trkpt>
      <trkpt lat="37.96952" lon="-2.75497">
        <ele>1653.984517</ele>
        <time>2022-02-24T08:49:23.309Z</time>
      </trkpt>
      <trkpt lat="37.96928" lon="-2.75447">
        <ele>1653.452023</ele>
        <time>2022-02-24T08:49:39.532Z</time>
      </trkpt>
      <trkpt lat="37.96824" lon="-2.75394">
        <ele>1652.152635</ele>
        <time>2022-02-24T08:50:17.769Z</time>
      </trkpt>
      <trkpt lat="37.96781" lon="-2.75382">
        <ele>1651.637312</ele>
        <time>2022-02-24T08:50:32.163Z</time>
      </trkpt>
      <trkpt lat="37.9677" lon="-2.75382">
        <ele>1651.490833</ele>
        <time>2022-02-24T08:50:36.060Z</time>
      </trkpt>
      <trkpt lat="37.96738" lon="-2.75396">
        <ele>1651.073358</ele>
        <time>2022-02-24T08:50:47.270Z</time>
      </trkpt>
      <trkpt lat="37.96726" lon="-2.75394">
        <ele>1650.927115</ele>
        <time>2022-02-24T08:50:51.229Z</time>
      </trkpt>
      <trkpt lat="37.96692" lon="-2.75359">
        <ele>1650.392462</ele>
        <time>2022-02-24T08:51:06.075Z</time>
      </trkpt>
      <trkpt lat="37.96683" lon="-2.75342">
        <ele>1650.193691</ele>
        <time>2022-02-24T08:51:11.738Z</time>
      </trkpt>
      <trkpt lat="37.96661" lon="-2.75336">
        <ele>1649.907167</ele>
        <time>2022-02-24T08:51:19.864Z</time>
      </trkpt>
      <trkpt lat="37.96647" lon="-2.75339">
        <ele>1649.734136</ele>
        <time>2022-02-24T08:51:24.791Z</time>
      </trkpt>
      <trkpt lat="37.96618" lon="-2.75364">
        <ele>1649.292294</ele>
        <time>2022-02-24T08:51:37.053Z</time>
      </trkpt>
      <trkpt lat="37.96559" lon="-2.75402">
        <ele>1648.447629</ele>
        <time>2022-02-24T08:52:00.171Z</time>
      </trkpt>
      <trkpt lat="37.96515" lon="-2.7542">
        <ele>1647.865475</ele>
        <time>2022-02-24T08:52:15.660Z</time>
      </trkpt>
      <trkpt lat="37.96497" lon="-2.75435">
        <ele>1647.590841</ele>
        <time>2022-02-24T08:52:22.785Z</time>
      </trkpt>
      <trkpt lat="37.96487" lon="-2.75437">
        <ele>1647.467789</ele>
        <time>2022-02-24T08:52:25.949Z</time>
      </trkpt>
      <trkpt lat="37.96466" lon="-2.75428">
        <ele>1646.879841</ele>
        <time>2022-02-24T08:52:33.278Z</time>
      </trkpt>
      <trkpt lat="37.96439" lon="-2.75428">
        <ele>1645.896122</ele>
        <time>2022-02-24T08:52:41.998Z</time>
      </trkpt>
      <trkpt lat="37.96404" lon="-2.75436">
        <ele>1644.608333</ele>
        <time>2022-02-24T08:52:53.084Z</time>
      </trkpt>
      <trkpt lat="37.96369" lon="-2.75458">
        <ele>1643.204029</ele>
        <time>2022-02-24T08:53:04.654Z</time>
      </trkpt>
      <trkpt lat="37.96309" lon="-2.75472">
        <ele>1640.989013</ele>
        <time>2022-02-24T08:53:22.581Z</time>
      </trkpt>
      <trkpt lat="37.96271" lon="-2.7549">
        <ele>1638.991487</ele>
        <time>2022-02-24T08:53:34.173Z</time>
      </trkpt>
      <trkpt lat="37.96227" lon="-2.75492">
        <ele>1636.769432</ele>
        <time>2022-02-24T08:53:46.482Z</time>
      </trkpt>
      <trkpt lat="37.96182" lon="-2.75505">
        <ele>1634.431377</ele>
        <time>2022-02-24T08:53:59.599Z</time>
      </trkpt>
      <trkpt lat="37.96116" lon="-2.75513">
        <ele>1631.357224</ele>
        <time>2022-02-24T08:54:18.760Z</time>
      </trkpt>
      <trkpt lat="37.96084" lon="-2.75535">
        <ele>1630.37756</ele>
        <time>2022-02-24T08:54:29.657Z</time>
      </trkpt>
      <trkpt lat="37.96003" lon="-2.7556">
        <ele>1628.158702</ele>
        <time>2022-02-24T08:54:56.035Z</time>
      </trkpt>
      <trkpt lat="37.95982" lon="-2.75562">
        <ele>1627.6172</ele>
        <time>2022-02-24T08:55:02.823Z</time>
      </trkpt>
      <trkpt lat="37.95942" lon="-2.75582">
        <ele>1626.918141</ele>
        <time>2022-02-24T08:55:18.114Z</time>
      </trkpt>
      <trkpt lat="37.95872" lon="-2.75606">
        <ele>1626.965935</ele>
        <time>2022-02-24T08:55:44.890Z</time>
      </trkpt>
      <trkpt lat="37.95803" lon="-2.75623">
        <ele>1627.012413</ele>
        <time>2022-02-24T08:56:12.815Z</time>
      </trkpt>
      <trkpt lat="37.9571" lon="-2.75666">
        <ele>1627.427736</ele>
        <time>2022-02-24T08:56:52.459Z</time>
      </trkpt>
      <trkpt lat="37.95671" lon="-2.75652">
        <ele>1627.630624</ele>
        <time>2022-02-24T08:57:07.914Z</time>
      </trkpt>
      <trkpt lat="37.95639" lon="-2.75655">
        <ele>1627.797327</ele>
        <time>2022-02-24T08:57:20.771Z</time>
      </trkpt>
      <trkpt lat="37.95603" lon="-2.75648">
        <ele>1628.025989</ele>
        <time>2022-02-24T08:57:35.451Z</time>
      </trkpt>
      <trkpt lat="37.9558" lon="-2.75634">
        <ele>1628.282442</ele>
        <time>2022-02-24T08:57:45.578Z</time>
      </trkpt>
      <trkpt lat="37.95546" lon="-2.75599">
        <ele>1628.728112</ele>
        <time>2022-02-24T08:58:02.908Z</time>
      </trkpt>
      <trkpt lat="37.95536" lon="-2.75599">
        <ele>1628.832653</ele>
        <time>2022-02-24T08:58:08.006Z</time>
      </trkpt>
      <trkpt lat="37.9551" lon="-2.75613">
        <ele>1629.119658</ele>
        <time>2022-02-24T08:58:19.025Z</time>
      </trkpt>
      <trkpt lat="37.95469" lon="-2.75615">
        <ele>1629.544735</ele>
        <time>2022-02-24T08:58:37.364Z</time>
      </trkpt>
      <trkpt lat="37.95409" lon="-2.75655">
        <ele>1630.64214</ele>
        <time>2022-02-24T08:59:07.770Z</time>
      </trkpt>
      <trkpt lat="37.95372" lon="-2.75656">
        <ele>1631.364675</ele>
        <time>2022-02-24T08:59:25.175Z</time>
      </trkpt>
      <trkpt lat="37.95317" lon="-2.75671">
        <ele>1632.437994</ele>
        <time>2022-02-24T08:59:51.050Z</time>
      </trkpt>
      <trkpt lat="37.95283" lon="-2.75699">
        <ele>1633.232358</ele>
        <time>2022-02-24T09:00:11.364Z</time>
      </trkpt>
      <trkpt lat="37.95229" lon="-2.75779">
        <ele>1634.960357</ele>
        <time>2022-02-24T09:00:52.247Z</time>
      </trkpt>
      <trkpt lat="37.95213" lon="-2.75788">
        <ele>1635.328638</ele>
        <time>2022-02-24T09:01:01.174Z</time>
      </trkpt>
      <trkpt lat="37.95204" lon="-2.7581">
        <ele>1635.738956</ele>
        <time>2022-02-24T09:01:10.101Z</time>
      </trkpt>
      <trkpt lat="37.95172" lon="-2.75848">
        <ele>1636.640587</ele>
        <time>2022-02-24T09:01:30.098Z</time>
      </trkpt>
      <trkpt lat="37.95126" lon="-2.75934">
        <ele>1636.997033</ele>
        <time>2022-02-24T09:02:07.000Z</time>
      </trkpt>
      <trkpt lat="37.95122" lon="-2.75951">
        <ele>1636.992709</ele>
        <time>2022-02-24T09:02:12.088Z</time>
      </trkpt>
      <trkpt lat="37.95122" lon="-2.75998">
        <ele>1636.98041</ele>
        <time>2022-02-24T09:02:25.729Z</time>
      </trkpt>
      <trkpt lat="37.95102" lon="-2.761">
        <ele>1636.52501</ele>
        <time>2022-02-24T09:02:53.412Z</time>
      </trkpt>
      <trkpt lat="37.951" lon="-2.76169">
        <ele>1635.235234</ele>
        <time>2022-02-24T09:03:11.024Z</time>
      </trkpt>
      <trkpt lat="37.95095" lon="-2.76243">
        <ele>1633.852172</ele>
        <time>2022-02-24T09:03:29.441Z</time>
      </trkpt>
      <trkpt lat="37.95084" lon="-2.76296">
        <ele>1632.809846</ele>
        <time>2022-02-24T09:03:43.126Z</time>
      </trkpt>
      <trkpt lat="37.95059" lon="-2.76348">
        <ele>1631.56048</ele>
        <time>2022-02-24T09:03:57.736Z</time>
      </trkpt>
      <trkpt lat="37.95046" lon="-2.76412">
        <ele>1630.16994</ele>
        <time>2022-02-24T09:04:13.979Z</time>
      </trkpt>
      <trkpt lat="37.95006" lon="-2.76527">
        <ele>1627.707921</ele>
        <time>2022-02-24T09:04:45.731Z</time>
      </trkpt>
      <trkpt lat="37.94992" lon="-2.76631">
        <ele>1626.505722</ele>
        <time>2022-02-24T09:05:13.123Z</time>
      </trkpt>
      <trkpt lat="37.94912" lon="-2.76819">
        <ele>1624.362778</ele>
        <time>2022-02-24T09:06:11.854Z</time>
      </trkpt>
      <trkpt lat="37.94877" lon="-2.76916">
        <ele>1623.425595</ele>
        <time>2022-02-24T09:06:40.699Z</time>
      </trkpt>
      <trkpt lat="37.94847" lon="-2.77031">
        <ele>1621.25937</ele>
        <time>2022-02-24T09:07:11.924Z</time>
      </trkpt>
      <trkpt lat="37.94845" lon="-2.77053">
        <ele>1620.831761</ele>
        <time>2022-02-24T09:07:17.288Z</time>
      </trkpt>
      <trkpt lat="37.94859" lon="-2.77134">
        <ele>1619.2637</ele>
        <time>2022-02-24T09:07:37.592Z</time>
      </trkpt>
      <trkpt lat="37.94867" lon="-2.77216">
        <ele>1617.323262</ele>
        <time>2022-02-24T09:07:57.748Z</time>
      </trkpt>
      <trkpt lat="37.94883" lon="-2.77285">
        <ele>1615.58856</ele>
        <time>2022-02-24T09:08:14.994Z</time>
      </trkpt>
      <trkpt lat="37.94882" lon="-2.77324">
        <ele>1614.647207</ele>
        <time>2022-02-24T09:08:24.503Z</time>
      </trkpt>
      <trkpt lat="37.94861" lon="-2.774">
        <ele>1612.900812</ele>
        <time>2022-02-24T09:08:44.143Z</time>
      </trkpt>
      <trkpt lat="37.94858" lon="-2.77586">
        <ele>1609.6204</ele>
        <time>2022-02-24T09:09:31.369Z</time>
      </trkpt>
      <trkpt lat="37.94868" lon="-2.77632">
        <ele>1609.362836</ele>
        <time>2022-02-24T09:09:44.052Z</time>
      </trkpt>
      <trkpt lat="37.94883" lon="-2.77665">
        <ele>1609.295635</ele>
        <time>2022-02-24T09:09:54.285Z</time>
      </trkpt>
      <trkpt lat="37.94887" lon="-2.77715">
        <ele>1609.206989</ele>
        <time>2022-02-24T09:10:08.413Z</time>
      </trkpt>
      <trkpt lat="37.94864" lon="-2.77837">
        <ele>1608.965686</ele>
        <time>2022-02-24T09:10:49.738Z</time>
      </trkpt>
      <trkpt lat="37.94845" lon="-2.77879">
        <ele>1608.844151</ele>
        <time>2022-02-24T09:11:05.868Z</time>
      </trkpt>
      <trkpt lat="37.94825" lon="-2.77966">
        <ele>1608.618261</ele>
        <time>2022-02-24T09:11:32.445Z</time>
      </trkpt>
      <trkpt lat="37.94798" lon="-2.78021">
        <ele>1608.453224</ele>
        <time>2022-02-24T09:11:50.153Z</time>
      </trkpt>
      <trkpt lat="37.94754" lon="-2.78147">
        <ele>1603.761432</ele>
        <time>2022-02-24T09:12:22.890Z</time>
      </trkpt>
      <trkpt lat="37.94681" lon="-2.7842">
        <ele>1591.361837</ele>
        <time>2022-02-24T09:13:26.132Z</time>
      </trkpt>
      <trkpt lat="37.94658" lon="-2.78483">
        <ele>1588.674496</ele>
        <time>2022-02-24T09:13:42.010Z</time>
      </trkpt>
      <trkpt lat="37.94645" lon="-2.78542">
        <ele>1586.659265</ele>
        <time>2022-02-24T09:13:56.311Z</time>
      </trkpt>
      <trkpt lat="37.94657" lon="-2.78598">
        <ele>1584.753752</ele>
        <time>2022-02-24T09:14:09.946Z</time>
      </trkpt>
      <trkpt lat="37.94643" lon="-2.78625">
        <ele>1583.714488</ele>
        <time>2022-02-24T09:14:17.650Z</time>
      </trkpt>
      <trkpt lat="37.94622" lon="-2.78688">
        <ele>1581.747864</ele>
        <time>2022-02-24T09:14:34.360Z</time>
      </trkpt>
      <trkpt lat="37.9462" lon="-2.78722">
        <ele>1580.92327</ele>
        <time>2022-02-24T09:14:42.546Z</time>
      </trkpt>
      <trkpt lat="37.94629" lon="-2.78764">
        <ele>1579.888478</ele>
        <time>2022-02-24T09:14:52.957Z</time>
      </trkpt>
      <trkpt lat="37.94625" lon="-2.78806">
        <ele>1578.86782</ele>
        <time>2022-02-24T09:15:03.262Z</time>
      </trkpt>
      <trkpt lat="37.94631" lon="-2.7884">
        <ele>1578.041109</ele>
        <time>2022-02-24T09:15:11.708Z</time>
      </trkpt>
      <trkpt lat="37.94623" lon="-2.78865">
        <ele>1577.409181</ele>
        <time>2022-02-24T09:15:18.213Z</time>
      </trkpt>
      <trkpt lat="37.94603" lon="-2.78903">
        <ele>1576.661236</ele>
        <time>2022-02-24T09:15:29.713Z</time>
      </trkpt>
      <trkpt lat="37.9459" lon="-2.78921">
        <ele>1576.365283</ele>
        <time>2022-02-24T09:15:36.345Z</time>
      </trkpt>
      <trkpt lat="37.94531" lon="-2.78964">
        <ele>1575.318509</ele>
        <time>2022-02-24T09:15:59.532Z</time>
      </trkpt>
      <trkpt lat="37.94489" lon="-2.79006">
        <ele>1574.499509</ele>
        <time>2022-02-24T09:16:17.484Z</time>
      </trkpt>
      <trkpt lat="37.94405" lon="-2.79051">
        <ele>1573.489071</ele>
        <time>2022-02-24T09:16:48.645Z</time>
      </trkpt>
      <trkpt lat="37.94318" lon="-2.79087">
        <ele>1572.54749</ele>
        <time>2022-02-24T09:17:19.958Z</time>
      </trkpt>
      <trkpt lat="37.94228" lon="-2.7916">
        <ele>1572.731962</ele>
        <time>2022-02-24T09:17:58.792Z</time>
      </trkpt>
      <trkpt lat="37.9412" lon="-2.79227">
        <ele>1573.366686</ele>
        <time>2022-02-24T09:18:50.456Z</time>
      </trkpt>
      <trkpt lat="37.94024" lon="-2.79305">
        <ele>1574.516645</ele>
        <time>2022-02-24T09:19:40.438Z</time>
      </trkpt>
      <trkpt lat="37.9396" lon="-2.79348">
        <ele>1574.41945</ele>
        <time>2022-02-24T09:20:07.534Z</time>
      </trkpt>
      <trkpt lat="37.93919" lon="-2.79402">
        <ele>1573.812754</ele>
        <time>2022-02-24T09:20:27.894Z</time>
      </trkpt>
      <trkpt lat="37.93912" lon="-2.79419">
        <ele>1573.655547</ele>
        <time>2022-02-24T09:20:33.062Z</time>
      </trkpt>
      <trkpt lat="37.93906" lon="-2.79465">
        <ele>1573.277353</ele>
        <time>2022-02-24T09:20:45.223Z</time>
      </trkpt>
      <trkpt lat="37.93886" lon="-2.79506">
        <ele>1572.797256</ele>
        <time>2022-02-24T09:20:57.717Z</time>
      </trkpt>
      <trkpt lat="37.93872" lon="-2.7957">
        <ele>1571.815674</ele>
        <time>2022-02-24T09:21:14.690Z</time>
      </trkpt>
      <trkpt lat="37.93797" lon="-2.79715">
        <ele>1569.26725</ele>
        <time>2022-02-24T09:21:59.402Z</time>
      </trkpt>
      <trkpt lat="37.93777" lon="-2.79775">
        <ele>1568.35624</ele>
        <time>2022-02-24T09:22:16.352Z</time>
      </trkpt>
      <trkpt lat="37.93775" lon="-2.79818">
        <ele>1567.747068</ele>
        <time>2022-02-24T09:22:27.594Z</time>
      </trkpt>
      <trkpt lat="37.93789" lon="-2.79903">
        <ele>1566.533875</ele>
        <time>2022-02-24T09:22:50.045Z</time>
      </trkpt>
      <trkpt lat="37.93772" lon="-2.80009">
        <ele>1565.492719</ele>
        <time>2022-02-24T09:23:18.425Z</time>
      </trkpt>
      <trkpt lat="37.93773" lon="-2.80028">
        <ele>1565.31819</ele>
        <time>2022-02-24T09:23:23.431Z</time>
      </trkpt>
      <trkpt lat="37.93764" lon="-2.80057">
        <ele>1565.03218</ele>
        <time>2022-02-24T09:23:31.761Z</time>
      </trkpt>
      <trkpt lat="37.93771" lon="-2.80129">
        <ele>1564.369285</ele>
        <time>2022-02-24T09:23:51.732Z</time>
      </trkpt>
      <trkpt lat="37.9376" lon="-2.80172">
        <ele>1564.645742</ele>
        <time>2022-02-24T09:24:05.107Z</time>
      </trkpt>
      <trkpt lat="37.93744" lon="-2.80196">
        <ele>1564.910123</ele>
        <time>2022-02-24T09:24:14.938Z</time>
      </trkpt>
      <trkpt lat="37.937" lon="-2.80238">
        <ele>1565.484786</ele>
        <time>2022-02-24T09:24:37.766Z</time>
      </trkpt>
      <trkpt lat="37.93668" lon="-2.80258">
        <ele>1565.867094</ele>
        <time>2022-02-24T09:24:53.976Z</time>
      </trkpt>
      <trkpt lat="37.93638" lon="-2.80301">
        <ele>1566.547247</ele>
        <time>2022-02-24T09:25:15.608Z</time>
      </trkpt>
      <trkpt lat="37.9361" lon="-2.80329">
        <ele>1567.563723</ele>
        <time>2022-02-24T09:25:33.786Z</time>
      </trkpt>
      <trkpt lat="37.93566" lon="-2.8039">
        <ele>1569.397604</ele>
        <time>2022-02-24T09:26:07.560Z</time>
      </trkpt>
      <trkpt lat="37.93544" lon="-2.80434">
        <ele>1570.560363</ele>
        <time>2022-02-24T09:26:29.350Z</time>
      </trkpt>
      <trkpt lat="37.93461" lon="-2.80545">
        <ele>1573.98929</ele>
        <time>2022-02-24T09:27:32.431Z</time>
      </trkpt>
      <trkpt lat="37.9345" lon="-2.80556">
        <ele>1574.384103</ele>
        <time>2022-02-24T09:27:39.483Z</time>
      </trkpt>
      <trkpt lat="37.93363" lon="-2.80604">
        <ele>1577.043094</ele>
        <time>2022-02-24T09:28:26.749Z</time>
      </trkpt>
      <trkpt lat="37.9328" lon="-2.8064">
        <ele>1579.366729</ele>
        <time>2022-02-24T09:29:11.148Z</time>
      </trkpt>
      <trkpt lat="37.93248" lon="-2.80669">
        <ele>1580.396683</ele>
        <time>2022-02-24T09:29:30.847Z</time>
      </trkpt>
      <trkpt lat="37.9318" lon="-2.80705">
        <ele>1582.293225</ele>
        <time>2022-02-24T09:30:07.515Z</time>
      </trkpt>
      <trkpt lat="37.93132" lon="-2.80743">
        <ele>1583.743438</ele>
        <time>2022-02-24T09:30:35.939Z</time>
      </trkpt>
      <trkpt lat="37.93084" lon="-2.80741">
        <ele>1584.992464</ele>
        <time>2022-02-24T09:31:00.405Z</time>
      </trkpt>
      <trkpt lat="37.93038" lon="-2.80746">
        <ele>1586.14347</ele>
        <time>2022-02-24T09:31:23.304Z</time>
      </trkpt>
      <trkpt lat="37.92998" lon="-2.80741">
        <ele>1587.067399</ele>
        <time>2022-02-24T09:31:42.527Z</time>
      </trkpt>
      <trkpt lat="37.92945" lon="-2.80788">
        <ele>1588.575201</ele>
        <time>2022-02-24T09:32:13.542Z</time>
      </trkpt>
      <trkpt lat="37.92928" lon="-2.80795">
        <ele>1588.985346</ele>
        <time>2022-02-24T09:32:22.058Z</time>
      </trkpt>
      <trkpt lat="37.92881" lon="-2.80794">
        <ele>1590.102482</ele>
        <time>2022-02-24T09:32:44.819Z</time>
      </trkpt>
      <trkpt lat="37.92835" lon="-2.8085">
        <ele>1591.967156</ele>
        <time>2022-02-24T09:33:16.878Z</time>
      </trkpt>
      <trkpt lat="37.92815" lon="-2.80867">
        <ele>1592.683979</ele>
        <time>2022-02-24T09:33:29.425Z</time>
      </trkpt>
      <trkpt lat="37.92654" lon="-2.80901">
        <ele>1598.034461</ele>
        <time>2022-02-24T09:34:56.348Z</time>
      </trkpt>
      <trkpt lat="37.92549" lon="-2.80987">
        <ele>1602.680998</ele>
        <time>2022-02-24T09:36:07.832Z</time>
      </trkpt>
      <trkpt lat="37.92541" lon="-2.81034">
        <ele>1604.139788</ele>
        <time>2022-02-24T09:36:29.645Z</time>
      </trkpt>
      <trkpt lat="37.92514" lon="-2.81062">
        <ele>1605.470985</ele>
        <time>2022-02-24T09:36:49.026Z</time>
      </trkpt>
      <trkpt lat="37.92499" lon="-2.8111">
        <ele>1607.029524</ele>
        <time>2022-02-24T09:37:11.547Z</time>
      </trkpt>
      <trkpt lat="37.92475" lon="-2.81147">
        <ele>1608.487492</ele>
        <time>2022-02-24T09:37:32.525Z</time>
      </trkpt>
      <trkpt lat="37.9247" lon="-2.81164">
        <ele>1609.058264</ele>
        <time>2022-02-24T09:37:40.410Z</time>
      </trkpt>
      <trkpt lat="37.92473" lon="-2.81182">
        <ele>1609.658683</ele>
        <time>2022-02-24T09:37:48.358Z</time>
      </trkpt>
      <trkpt lat="37.92471" lon="-2.81197">
        <ele>1610.171736</ele>
        <time>2022-02-24T09:37:55.390Z</time>
      </trkpt>
      <trkpt lat="37.92443" lon="-2.81206">
        <ele>1611.376516</ele>
        <time>2022-02-24T09:38:11.707Z</time>
      </trkpt>
      <trkpt lat="37.92404" lon="-2.81234">
        <ele>1613.258986</ele>
        <time>2022-02-24T09:38:37.885Z</time>
      </trkpt>
      <trkpt lat="37.92391" lon="-2.813">
        <ele>1615.497041</ele>
        <time>2022-02-24T09:39:09.416Z</time>
      </trkpt>
      <trkpt lat="37.92352" lon="-2.81353">
        <ele>1617.95856</ele>
        <time>2022-02-24T09:39:44.379Z</time>
      </trkpt>
      <trkpt lat="37.92281" lon="-2.81507">
        <ele>1624.143675</ele>
        <time>2022-02-24T09:41:08.497Z</time>
      </trkpt>
      <trkpt lat="37.92252" lon="-2.8154">
        <ele>1625.306558</ele>
        <time>2022-02-24T09:41:28.823Z</time>
      </trkpt>
      <trkpt lat="37.92234" lon="-2.81606">
        <ele>1626.973254</ele>
        <time>2022-02-24T09:41:57.029Z</time>
      </trkpt>
      <trkpt lat="37.92233" lon="-2.81626">
        <ele>1627.436114</ele>
        <time>2022-02-24T09:42:04.937Z</time>
      </trkpt>
      <trkpt lat="37.92243" lon="-2.81664">
        <ele>1628.391839</ele>
        <time>2022-02-24T09:42:20.829Z</time>
      </trkpt>
      <trkpt lat="37.92273" lon="-2.81716">
        <ele>1629.990647</ele>
        <time>2022-02-24T09:42:46.453Z</time>
      </trkpt>
      <trkpt lat="37.92283" lon="-2.81778">
        <ele>1631.884078</ele>
        <time>2022-02-24T09:43:12.491Z</time>
      </trkpt>
      <trkpt lat="37.92298" lon="-2.81829">
        <ele>1633.530928</ele>
        <time>2022-02-24T09:43:36.221Z</time>
      </trkpt>
      <trkpt lat="37.92303" lon="-2.81867">
        <ele>1634.691147</ele>
        <time>2022-02-24T09:43:54.310Z</time>
      </trkpt>
      <trkpt lat="37.92329" lon="-2.81895">
        <ele>1635.968386</ele>
        <time>2022-02-24T09:44:14.702Z</time>
      </trkpt>
      <trkpt lat="37.92339" lon="-2.81927">
        <ele>1637.047696</ele>
        <time>2022-02-24T09:44:31.331Z</time>
      </trkpt>
      <trkpt lat="37.92312" lon="-2.82007">
        <ele>1639.849046</ele>
        <time>2022-02-24T09:45:13.605Z</time>
      </trkpt>
      <trkpt lat="37.92315" lon="-2.82022">
        <ele>1640.33328</ele>
        <time>2022-02-24T09:45:20.901Z</time>
      </trkpt>
      <trkpt lat="37.92332" lon="-2.8205">
        <ele>1641.484862</ele>
        <time>2022-02-24T09:45:36.733Z</time>
      </trkpt>
      <trkpt lat="37.92349" lon="-2.82132">
        <ele>1643.610777</ele>
        <time>2022-02-24T09:46:12.787Z</time>
      </trkpt>
      <trkpt lat="37.92348" lon="-2.82147">
        <ele>1643.498069</ele>
        <time>2022-02-24T09:46:18.796Z</time>
      </trkpt>
      <trkpt lat="37.92332" lon="-2.82186">
        <ele>1643.162651</ele>
        <time>2022-02-24T09:46:35.399Z</time>
      </trkpt>
      <trkpt lat="37.92333" lon="-2.82199">
        <ele>1643.061404</ele>
        <time>2022-02-24T09:46:39.843Z</time>
      </trkpt>
      <trkpt lat="37.92339" lon="-2.82214">
        <ele>1642.934663</ele>
        <time>2022-02-24T09:46:44.847Z</time>
      </trkpt>
      <trkpt lat="37.92357" lon="-2.82236">
        <ele>1642.695806</ele>
        <time>2022-02-24T09:46:53.399Z</time>
      </trkpt>
      <trkpt lat="37.92358" lon="-2.82246">
        <ele>1642.619034</ele>
        <time>2022-02-24T09:46:55.981Z</time>
      </trkpt>
      <trkpt lat="37.9235" lon="-2.82281">
        <ele>1642.342287</ele>
        <time>2022-02-24T09:47:04.938Z</time>
      </trkpt>
      <trkpt lat="37.92328" lon="-2.82343">
        <ele>1640.474157</ele>
        <time>2022-02-24T09:47:20.501Z</time>
      </trkpt>
      <trkpt lat="37.923" lon="-2.82373">
        <ele>1637.230792</ele>
        <time>2022-02-24T09:47:30.614Z</time>
      </trkpt>
      <trkpt lat="37.92292" lon="-2.82388">
        <ele>1636.035417</ele>
        <time>2022-02-24T09:47:34.174Z</time>
      </trkpt>
      <trkpt lat="37.92286" lon="-2.82431">
        <ele>1633.038963</ele>
        <time>2022-02-24T09:47:43.091Z</time>
      </trkpt>
      <trkpt lat="37.92297" lon="-2.82492">
        <ele>1628.763899</ele>
        <time>2022-02-24T09:47:55.702Z</time>
      </trkpt>
      <trkpt lat="37.92288" lon="-2.82537">
        <ele>1625.590283</ele>
        <time>2022-02-24T09:48:04.963Z</time>
      </trkpt>
      <trkpt lat="37.92272" lon="-2.82587">
        <ele>1621.961983</ele>
        <time>2022-02-24T09:48:15.701Z</time>
      </trkpt>
      <trkpt lat="37.92193" lon="-2.82689">
        <ele>1612.257454</ele>
        <time>2022-02-24T09:48:45.751Z</time>
      </trkpt>
      <trkpt lat="37.9217" lon="-2.8271">
        <ele>1610.178144</ele>
        <time>2022-02-24T09:48:53.700Z</time>
      </trkpt>
      <trkpt lat="37.92119" lon="-2.82738">
        <ele>1607.011474</ele>
        <time>2022-02-24T09:49:09.781Z</time>
      </trkpt>
      <trkpt lat="37.92075" lon="-2.82733">
        <ele>1604.507172</ele>
        <time>2022-02-24T09:49:22.252Z</time>
      </trkpt>
      <trkpt lat="37.92054" lon="-2.8274">
        <ele>1603.27939</ele>
        <time>2022-02-24T09:49:28.486Z</time>
      </trkpt>
      <trkpt lat="37.92025" lon="-2.82741">
        <ele>1601.657536</ele>
        <time>2022-02-24T09:49:36.674Z</time>
      </trkpt>
      <trkpt lat="37.91991" lon="-2.82717">
        <ele>1599.494848</ele>
        <time>2022-02-24T09:49:47.790Z</time>
      </trkpt>
      <trkpt lat="37.91975" lon="-2.8269">
        <ele>1598.073526</ele>
        <time>2022-02-24T09:49:55.067Z</time>
      </trkpt>
      <trkpt lat="37.91966" lon="-2.82684">
        <ele>1597.492407</ele>
        <time>2022-02-24T09:49:58.144Z</time>
      </trkpt>
      <trkpt lat="37.91959" lon="-2.82687">
        <ele>1597.085658</ele>
        <time>2022-02-24T09:50:00.227Z</time>
      </trkpt>
      <trkpt lat="37.91951" lon="-2.82697">
        <ele>1596.482733</ele>
        <time>2022-02-24T09:50:03.293Z</time>
      </trkpt>
      <trkpt lat="37.9192" lon="-2.82772">
        <ele>1592.832226</ele>
        <time>2022-02-24T09:50:22.347Z</time>
      </trkpt>
      <trkpt lat="37.91878" lon="-2.8278">
        <ele>1590.671328</ele>
        <time>2022-02-24T09:50:34.175Z</time>
      </trkpt>
      <trkpt lat="37.91808" lon="-2.82805">
        <ele>1587.919842</ele>
        <time>2022-02-24T09:50:55.690Z</time>
      </trkpt>
      <trkpt lat="37.9178" lon="-2.82821">
        <ele>1586.768562</ele>
        <time>2022-02-24T09:51:04.983Z</time>
      </trkpt>
      <trkpt lat="37.91756" lon="-2.82848">
        <ele>1585.562053</ele>
        <time>2022-02-24T09:51:14.864Z</time>
      </trkpt>
      <trkpt lat="37.91703" lon="-2.82866">
        <ele>1584.079352</ele>
        <time>2022-02-24T09:51:32.030Z</time>
      </trkpt>
      <trkpt lat="37.91676" lon="-2.82883">
        <ele>1583.903362</ele>
        <time>2022-02-24T09:51:41.906Z</time>
      </trkpt>
      <trkpt lat="37.91652" lon="-2.82924">
        <ele>1583.671757</ele>
        <time>2022-02-24T09:51:55.441Z</time>
      </trkpt>
      <trkpt lat="37.91619" lon="-2.82946">
        <ele>1583.457754</ele>
        <time>2022-02-24T09:52:09.527Z</time>
      </trkpt>
      <trkpt lat="37.91614" lon="-2.82969">
        <ele>1583.347887</ele>
        <time>2022-02-24T09:52:17.258Z</time>
      </trkpt>
      <trkpt lat="37.91613" lon="-2.8301">
        <ele>1583.16056</ele>
        <time>2022-02-24T09:52:31.305Z</time>
      </trkpt>
      <trkpt lat="37.91622" lon="-2.83135">
        <ele>1585.330259</ele>
        <time>2022-02-24T09:53:16.835Z</time>
      </trkpt>
      <trkpt lat="37.91613" lon="-2.832">
        <ele>1586.523785</ele>
        <time>2022-02-24T09:53:41.720Z</time>
      </trkpt>
      <trkpt lat="37.91623" lon="-2.83219">
        <ele>1586.935813</ele>
        <time>2022-02-24T09:53:51.291Z</time>
      </trkpt>
      <trkpt lat="37.91647" lon="-2.83236">
        <ele>1587.90874</ele>
        <time>2022-02-24T09:54:06.813Z</time>
      </trkpt>
      <trkpt lat="37.91657" lon="-2.83312">
        <ele>1590.772944</ele>
        <time>2022-02-24T09:54:43.924Z</time>
      </trkpt>
      <trkpt lat="37.91665" lon="-2.83328">
        <ele>1591.471741</ele>
        <time>2022-02-24T09:54:53.869Z</time>
      </trkpt>
      <trkpt lat="37.91679" lon="-2.83337">
        <ele>1592.19182</ele>
        <time>2022-02-24T09:55:03.910Z</time>
      </trkpt>
      <trkpt lat="37.91816" lon="-2.83304">
        <ele>1596.373282</ele>
        <time>2022-02-24T09:56:30.274Z</time>
      </trkpt>
      <trkpt lat="37.91842" lon="-2.83306">
        <ele>1596.635631</ele>
        <time>2022-02-24T09:56:40.967Z</time>
      </trkpt>
      <trkpt lat="37.91847" lon="-2.83311">
        <ele>1596.70562</ele>
        <time>2022-02-24T09:56:44.403Z</time>
      </trkpt>
      <trkpt lat="37.91884" lon="-2.83451">
        <ele>1596.580002</ele>
        <time>2022-02-24T09:57:22.437Z</time>
      </trkpt>
      <trkpt lat="37.9189" lon="-2.83463">
        <ele>1596.262549</ele>
        <time>2022-02-24T09:57:25.613Z</time>
      </trkpt>
      <trkpt lat="37.91927" lon="-2.83495">
        <ele>1595.010561</ele>
        <time>2022-02-24T09:57:38.843Z</time>
      </trkpt>
      <trkpt lat="37.9196" lon="-2.83506">
        <ele>1594.077111</ele>
        <time>2022-02-24T09:57:48.822Z</time>
      </trkpt>
      <trkpt lat="37.91976" lon="-2.83504">
        <ele>1593.603448</ele>
        <time>2022-02-24T09:57:54.409Z</time>
      </trkpt>
      <trkpt lat="37.92014" lon="-2.83544">
        <ele>1592.088556</ele>
        <time>2022-02-24T09:58:10.393Z</time>
      </trkpt>
      <trkpt lat="37.92047" lon="-2.83555">
        <ele>1590.626438</ele>
        <time>2022-02-24T09:58:22.584Z</time>
      </trkpt>
      <trkpt lat="37.92059" lon="-2.83554">
        <ele>1590.117927</ele>
        <time>2022-02-24T09:58:26.468Z</time>
      </trkpt>
      <trkpt lat="37.92088" lon="-2.83532">
        <ele>1588.628283</ele>
        <time>2022-02-24T09:58:38.155Z</time>
      </trkpt>
      <trkpt lat="37.92114" lon="-2.83523">
        <ele>1587.470419</ele>
        <time>2022-02-24T09:58:46.424Z</time>
      </trkpt>
      <trkpt lat="37.92151" lon="-2.83529">
        <ele>1585.868532</ele>
        <time>2022-02-24T09:58:56.815Z</time>
      </trkpt>
      <trkpt lat="37.92167" lon="-2.8355">
        <ele>1584.862358</ele>
        <time>2022-02-24T09:59:02.695Z</time>
      </trkpt>
      <trkpt lat="37.92196" lon="-2.8366">
        <ele>1576.544071</ele>
        <time>2022-02-24T09:59:26.038Z</time>
      </trkpt>
      <trkpt lat="37.92179" lon="-2.83701">
        <ele>1573.168472</ele>
        <time>2022-02-24T09:59:35.409Z</time>
      </trkpt>
      <trkpt lat="37.92182" lon="-2.83725">
        <ele>1571.423136</ele>
        <time>2022-02-24T09:59:40.130Z</time>
      </trkpt>
      <trkpt lat="37.92206" lon="-2.83745">
        <ele>1568.756783</ele>
        <time>2022-02-24T09:59:47.982Z</time>
      </trkpt>
      <trkpt lat="37.92213" lon="-2.83769">
        <ele>1567.928557</ele>
        <time>2022-02-24T09:59:53.620Z</time>
      </trkpt>
      <trkpt lat="37.92226" lon="-2.83784">
        <ele>1567.612031</ele>
        <time>2022-02-24T09:59:58.451Z</time>
      </trkpt>
      <trkpt lat="37.92258" lon="-2.83787">
        <ele>1567.00462</ele>
        <time>2022-02-24T10:00:08.424Z</time>
      </trkpt>
      <trkpt lat="37.92276" lon="-2.83782">
        <ele>1566.650543</ele>
        <time>2022-02-24T10:00:14.573Z</time>
      </trkpt>
      <trkpt lat="37.92314" lon="-2.8375">
        <ele>1565.801233</ele>
        <time>2022-02-24T10:00:31.258Z</time>
      </trkpt>
      <trkpt lat="37.92328" lon="-2.8375">
        <ele>1565.529869</ele>
        <time>2022-02-24T10:00:38.808Z</time>
      </trkpt>
      <trkpt lat="37.92365" lon="-2.83782">
        <ele>1564.612785</ele>
        <time>2022-02-24T10:00:57.962Z</time>
      </trkpt>
      <trkpt lat="37.92415" lon="-2.83814">
        <ele>1562.76304</ele>
        <time>2022-02-24T10:01:19.099Z</time>
      </trkpt>
      <trkpt lat="37.92433" lon="-2.83835">
        <ele>1561.958414</ele>
        <time>2022-02-24T10:01:26.854Z</time>
      </trkpt>
      <trkpt lat="37.92438" lon="-2.83852">
        <ele>1561.501437</ele>
        <time>2022-02-24T10:01:31.054Z</time>
      </trkpt>
      <trkpt lat="37.92434" lon="-2.83935">
        <ele>1559.350575</ele>
        <time>2022-02-24T10:01:50.151Z</time>
      </trkpt>
      <trkpt lat="37.92449" lon="-2.83982">
        <ele>1556.306228</ele>
        <time>2022-02-24T10:02:00.467Z</time>
      </trkpt>
      <trkpt lat="37.92461" lon="-2.84">
        <ele>1554.382791</ele>
        <time>2022-02-24T10:02:05.333Z</time>
      </trkpt>
      <trkpt lat="37.92487" lon="-2.84012">
        <ele>1551.576874</ele>
        <time>2022-02-24T10:02:12.450Z</time>
      </trkpt>
      <trkpt lat="37.92503" lon="-2.84028">
        <ele>1549.561041</ele>
        <time>2022-02-24T10:02:17.752Z</time>
      </trkpt>
      <trkpt lat="37.92506" lon="-2.84081">
        <ele>1545.364504</ele>
        <time>2022-02-24T10:02:28.318Z</time>
      </trkpt>
      <trkpt lat="37.92484" lon="-2.84105">
        <ele>1542.480786</ele>
        <time>2022-02-24T10:02:35.513Z</time>
      </trkpt>
      <trkpt lat="37.92447" lon="-2.84113">
        <ele>1538.808599</ele>
        <time>2022-02-24T10:02:45.084Z</time>
      </trkpt>
      <trkpt lat="37.9237" lon="-2.84161">
        <ele>1530.749608</ele>
        <time>2022-02-24T10:03:06.850Z</time>
      </trkpt>
      <trkpt lat="37.92337" lon="-2.84234">
        <ele>1524.518516</ele>
        <time>2022-02-24T10:03:24.583Z</time>
      </trkpt>
      <trkpt lat="37.92322" lon="-2.84251">
        <ele>1523.347888</ele>
        <time>2022-02-24T10:03:30.062Z</time>
      </trkpt>
      <trkpt lat="37.92252" lon="-2.84298">
        <ele>1520.02563</ele>
        <time>2022-02-24T10:03:53.060Z</time>
      </trkpt>
      <trkpt lat="37.92221" lon="-2.84304">
        <ele>1518.695131</ele>
        <time>2022-02-24T10:04:02.919Z</time>
      </trkpt>
      <trkpt lat="37.92201" lon="-2.84321">
        <ele>1517.670471</ele>
        <time>2022-02-24T10:04:10.676Z</time>
      </trkpt>
      <trkpt lat="37.92158" lon="-2.84312">
        <ele>1516.057723</ele>
        <time>2022-02-24T10:04:24.382Z</time>
      </trkpt>
      <trkpt lat="37.9207" lon="-2.84326">
        <ele>1513.733433</ele>
        <time>2022-02-24T10:04:52.435Z</time>
      </trkpt>
      <trkpt lat="37.92056" lon="-2.84337">
        <ele>1513.301675</ele>
        <time>2022-02-24T10:04:57.536Z</time>
      </trkpt>
      <trkpt lat="37.92028" lon="-2.8433">
        <ele>1512.544821</ele>
        <time>2022-02-24T10:05:06.459Z</time>
      </trkpt>
      <trkpt lat="37.91994" lon="-2.84342">
        <ele>1511.662874</ele>
        <time>2022-02-24T10:05:17.554Z</time>
      </trkpt>
      <trkpt lat="37.91962" lon="-2.84338">
        <ele>1511.530075</ele>
        <time>2022-02-24T10:05:27.814Z</time>
      </trkpt>
      <trkpt lat="37.91879" lon="-2.84353">
        <ele>1511.182255</ele>
        <time>2022-02-24T10:05:57.250Z</time>
      </trkpt>
      <trkpt lat="37.91817" lon="-2.84375">
        <ele>1510.976659</ele>
        <time>2022-02-24T10:06:24.186Z</time>
      </trkpt>
      <trkpt lat="37.91771" lon="-2.84408">
        <ele>1512.272975</ele>
        <time>2022-02-24T10:06:49.137Z</time>
      </trkpt>
      <trkpt lat="37.91655" lon="-2.84425">
        <ele>1515.109284</ele>
        <time>2022-02-24T10:07:49.821Z</time>
      </trkpt>
      <trkpt lat="37.91648" lon="-2.84438">
        <ele>1515.363831</ele>
        <time>2022-02-24T10:07:56.603Z</time>
      </trkpt>
      <trkpt lat="37.91647" lon="-2.8445">
        <ele>1515.4611</ele>
        <time>2022-02-24T10:08:01.609Z</time>
      </trkpt>
      <trkpt lat="37.91657" lon="-2.84505">
        <ele>1515.903183</ele>
        <time>2022-02-24T10:08:22.873Z</time>
      </trkpt>
      <trkpt lat="37.91653" lon="-2.84517">
        <ele>1516.007291</ele>
        <time>2022-02-24T10:08:27.723Z</time>
      </trkpt>
      <trkpt lat="37.91641" lon="-2.84531">
        <ele>1516.170427</ele>
        <time>2022-02-24T10:08:34.286Z</time>
      </trkpt>
      <trkpt lat="37.91604" lon="-2.84546">
        <ele>1516.551366</ele>
        <time>2022-02-24T10:08:48.996Z</time>
      </trkpt>
      <trkpt lat="37.91552" lon="-2.84546">
        <ele>1517.072856</ele>
        <time>2022-02-24T10:09:08.289Z</time>
      </trkpt>
      <trkpt lat="37.91542" lon="-2.84542">
        <ele>1517.065694</ele>
        <time>2022-02-24T10:09:12.170Z</time>
      </trkpt>
      <trkpt lat="37.91522" lon="-2.84522">
        <ele>1516.876121</ele>
        <time>2022-02-24T10:09:21.313Z</time>
      </trkpt>
      <trkpt lat="37.91511" lon="-2.84519">
        <ele>1516.785519</ele>
        <time>2022-02-24T10:09:25.332Z</time>
      </trkpt>
      <trkpt lat="37.91466" lon="-2.84551">
        <ele>1516.397603</ele>
        <time>2022-02-24T10:09:43.215Z</time>
      </trkpt>
      <trkpt lat="37.91447" lon="-2.84578">
        <ele>1516.182899</ele>
        <time>2022-02-24T10:09:53.091Z</time>
      </trkpt>
      <trkpt lat="37.91433" lon="-2.8459">
        <ele>1516.051345</ele>
        <time>2022-02-24T10:09:59.326Z</time>
      </trkpt>
      <trkpt lat="37.91388" lon="-2.84617">
        <ele>1515.60786</ele>
        <time>2022-02-24T10:10:15.972Z</time>
      </trkpt>
      <trkpt lat="37.91304" lon="-2.84613">
        <ele>1514.406277</ele>
        <time>2022-02-24T10:10:46.058Z</time>
      </trkpt>
      <trkpt lat="37.91255" lon="-2.8459">
        <ele>1513.661525</ele>
        <time>2022-02-24T10:11:03.510Z</time>
      </trkpt>
      <trkpt lat="37.91228" lon="-2.84597">
        <ele>1513.264547</ele>
        <time>2022-02-24T10:11:12.446Z</time>
      </trkpt>
      <trkpt lat="37.91181" lon="-2.84567">
        <ele>1511.567756</ele>
        <time>2022-02-24T10:11:28.345Z</time>
      </trkpt>
      <trkpt lat="37.91159" lon="-2.84569">
        <ele>1510.80993</ele>
        <time>2022-02-24T10:11:34.828Z</time>
      </trkpt>
      <trkpt lat="37.91119" lon="-2.84598">
        <ele>1509.205644</ele>
        <time>2022-02-24T10:11:48.457Z</time>
      </trkpt>
      <trkpt lat="37.91025" lon="-2.84639">
        <ele>1506.638992</ele>
        <time>2022-02-24T10:12:18.886Z</time>
      </trkpt>
      <trkpt lat="37.91003" lon="-2.84666">
        <ele>1506.347636</ele>
        <time>2022-02-24T10:12:28.924Z</time>
      </trkpt>
      <trkpt lat="37.90971" lon="-2.84682">
        <ele>1506.016735</ele>
        <time>2022-02-24T10:12:41.136Z</time>
      </trkpt>
      <trkpt lat="37.90924" lon="-2.8473">
        <ele>1505.44121</ele>
        <time>2022-02-24T10:13:05.100Z</time>
      </trkpt>
      <trkpt lat="37.90921" lon="-2.84741">
        <ele>1505.352857</ele>
        <time>2022-02-24T10:13:09.127Z</time>
      </trkpt>
      <trkpt lat="37.90901" lon="-2.84752">
        <ele>1505.125666</ele>
        <time>2022-02-24T10:13:18.641Z</time>
      </trkpt>
      <trkpt lat="37.90776" lon="-2.84737">
        <ele>1503.644538</ele>
        <time>2022-02-24T10:14:03.727Z</time>
      </trkpt>
      <trkpt lat="37.90749" lon="-2.8472">
        <ele>1503.294072</ele>
        <time>2022-02-24T10:14:12.952Z</time>
      </trkpt>
      <trkpt lat="37.90718" lon="-2.84736">
        <ele>1502.079033</ele>
        <time>2022-02-24T10:14:22.876Z</time>
      </trkpt>
      <trkpt lat="37.90663" lon="-2.84748">
        <ele>1499.179437</ele>
        <time>2022-02-24T10:14:39.036Z</time>
      </trkpt>
      <trkpt lat="37.90625" lon="-2.84762">
        <ele>1497.128389</ele>
        <time>2022-02-24T10:14:50.187Z</time>
      </trkpt>
      <trkpt lat="37.90605" lon="-2.84778">
        <ele>1495.888319</ele>
        <time>2022-02-24T10:14:56.773Z</time>
      </trkpt>
      <trkpt lat="37.90592" lon="-2.84781">
        <ele>1495.178045</ele>
        <time>2022-02-24T10:15:00.530Z</time>
      </trkpt>
      <trkpt lat="37.9058" lon="-2.84775">
        <ele>1494.536985</ele>
        <time>2022-02-24T10:15:03.919Z</time>
      </trkpt>
      <trkpt lat="37.90527" lon="-2.8469">
        <ele>1490.009789</ele>
        <time>2022-02-24T10:15:27.967Z</time>
      </trkpt>
      <trkpt lat="37.9051" lon="-2.84682">
        <ele>1489.03645</ele>
        <time>2022-02-24T10:15:33.222Z</time>
      </trkpt>
      <trkpt lat="37.90498" lon="-2.84687">
        <ele>1488.373198</ele>
        <time>2022-02-24T10:15:36.833Z</time>
      </trkpt>
      <trkpt lat="37.90447" lon="-2.84733">
        <ele>1485.080925</ele>
        <time>2022-02-24T10:15:54.876Z</time>
      </trkpt>
      <trkpt lat="37.90411" lon="-2.84752">
        <ele>1483.612514</ele>
        <time>2022-02-24T10:16:06.083Z</time>
      </trkpt>
      <trkpt lat="37.90327" lon="-2.84779">
        <ele>1481.264254</ele>
        <time>2022-02-24T10:16:31.707Z</time>
      </trkpt>
      <trkpt lat="37.90299" lon="-2.84775">
        <ele>1480.481401</ele>
        <time>2022-02-24T10:16:40.591Z</time>
      </trkpt>
      <trkpt lat="37.90132" lon="-2.84857">
        <ele>1481.786735</ele>
        <time>2022-02-24T10:17:58.918Z</time>
      </trkpt>
      <trkpt lat="37.90095" lon="-2.84882">
        <ele>1482.529159</ele>
        <time>2022-02-24T10:18:23.029Z</time>
      </trkpt>
      <trkpt lat="37.90077" lon="-2.84863">
        <ele>1482.332212</ele>
        <time>2022-02-24T10:18:35.842Z</time>
      </trkpt>
      <trkpt lat="37.9004" lon="-2.8486">
        <ele>1481.995405</ele>
        <time>2022-02-24T10:18:54.606Z</time>
      </trkpt>
      <trkpt lat="37.90033" lon="-2.84855">
        <ele>1481.916971</ele>
        <time>2022-02-24T10:18:58.769Z</time>
      </trkpt>
      <trkpt lat="37.9002" lon="-2.84843">
        <ele>1481.771768</ele>
        <time>2022-02-24T10:19:05.941Z</time>
      </trkpt>
      <trkpt lat="37.90016" lon="-2.8482">
        <ele>1481.605176</ele>
        <time>2022-02-24T10:19:13.365Z</time>
      </trkpt>
      <trkpt lat="37.90026" lon="-2.84767">
        <ele>1481.211661</ele>
        <time>2022-02-24T10:19:29.673Z</time>
      </trkpt>
      <trkpt lat="37.90029" lon="-2.84699">
        <ele>1478.282411</ele>
        <time>2022-02-24T10:19:44.094Z</time>
      </trkpt>
      <trkpt lat="37.90039" lon="-2.84676">
        <ele>1475.539231</ele>
        <time>2022-02-24T10:19:49.233Z</time>
      </trkpt>
      <trkpt lat="37.90033" lon="-2.84634">
        <ele>1471.182449</ele>
        <time>2022-02-24T10:19:57.518Z</time>
      </trkpt>
      <trkpt lat="37.90039" lon="-2.84592">
        <ele>1466.880786</ele>
        <time>2022-02-24T10:20:05.553Z</time>
      </trkpt>
      <trkpt lat="37.90035" lon="-2.84562">
        <ele>1463.741794</ele>
        <time>2022-02-24T10:20:11.616Z</time>
      </trkpt>
      <trkpt lat="37.9004" lon="-2.8455">
        <ele>1462.273842</ele>
        <time>2022-02-24T10:20:14.245Z</time>
      </trkpt>
      <trkpt lat="37.90121" lon="-2.84445">
        <ele>1445.245981</ele>
        <time>2022-02-24T10:20:42.294Z</time>
      </trkpt>
      <trkpt lat="37.90124" lon="-2.8443">
        <ele>1443.421716</ele>
        <time>2022-02-24T10:20:45.268Z</time>
      </trkpt>
      <trkpt lat="37.90115" lon="-2.84416">
        <ele>1441.262926</ele>
        <time>2022-02-24T10:20:48.480Z</time>
      </trkpt>
      <trkpt lat="37.90099" lon="-2.84412">
        <ele>1438.704737</ele>
        <time>2022-02-24T10:20:52.452Z</time>
      </trkpt>
      <trkpt lat="37.90075" lon="-2.84449">
        <ele>1432.781053</ele>
        <time>2022-02-24T10:21:01.736Z</time>
      </trkpt>
      <trkpt lat="37.9005" lon="-2.84441">
        <ele>1428.457607</ele>
        <time>2022-02-24T10:21:08.047Z</time>
      </trkpt>
      <trkpt lat="37.90031" lon="-2.84422">
        <ele>1423.796124</ele>
        <time>2022-02-24T10:21:13.746Z</time>
      </trkpt>
      <trkpt lat="37.90019" lon="-2.84392">
        <ele>1418.607484</ele>
        <time>2022-02-24T10:21:20.059Z</time>
      </trkpt>
      <trkpt lat="37.90008" lon="-2.8438">
        <ele>1415.730825</ele>
        <time>2022-02-24T10:21:23.511Z</time>
      </trkpt>
      <trkpt lat="37.90003" lon="-2.84344">
        <ele>1410.111032</ele>
        <time>2022-02-24T10:21:30.306Z</time>
      </trkpt>
      <trkpt lat="37.89945" lon="-2.84316">
        <ele>1398.09544</ele>
        <time>2022-02-24T10:21:44.525Z</time>
      </trkpt>
      <trkpt lat="37.8993" lon="-2.84315">
        <ele>1395.041581</ele>
        <time>2022-02-24T10:21:48.137Z</time>
      </trkpt>
      <trkpt lat="37.89799" lon="-2.84322">
        <ele>1368.146521</ele>
        <time>2022-02-24T10:22:18.336Z</time>
      </trkpt>
      <trkpt lat="37.89725" lon="-2.84357">
        <ele>1354.362113</ele>
        <time>2022-02-24T10:22:37.121Z</time>
      </trkpt>
      <trkpt lat="37.89672" lon="-2.84353">
        <ele>1348.191924</ele>
        <time>2022-02-24T10:22:50.323Z</time>
      </trkpt>
      <trkpt lat="37.89637" lon="-2.84368">
        <ele>1343.935478</ele>
        <time>2022-02-24T10:22:59.908Z</time>
      </trkpt>
      <trkpt lat="37.89574" lon="-2.8443">
        <ele>1335.280695</ele>
        <time>2022-02-24T10:23:20.689Z</time>
      </trkpt>
      <trkpt lat="37.89567" lon="-2.84427">
        <ele>1334.622436</ele>
        <time>2022-02-24T10:23:22.706Z</time>
      </trkpt>
      <trkpt lat="37.89569" lon="-2.84411">
        <ele>1333.541928</ele>
        <time>2022-02-24T10:23:26.064Z</time>
      </trkpt>
      <trkpt lat="37.89588" lon="-2.84356">
        <ele>1329.497853</ele>
        <time>2022-02-24T10:23:38.919Z</time>
      </trkpt>
      <trkpt lat="37.89584" lon="-2.843">
        <ele>1325.731084</ele>
        <time>2022-02-24T10:23:50.807Z</time>
      </trkpt>
      <trkpt lat="37.89593" lon="-2.84278">
        <ele>1324.086068</ele>
        <time>2022-02-24T10:23:55.947Z</time>
      </trkpt>
      <trkpt lat="37.89652" lon="-2.84221">
        <ele>1317.849082</ele>
        <time>2022-02-24T10:24:15.124Z</time>
      </trkpt>
      <trkpt lat="37.89689" lon="-2.84215">
        <ele>1314.680564</ele>
        <time>2022-02-24T10:24:24.821Z</time>
      </trkpt>
      <trkpt lat="37.89704" lon="-2.84166">
        <ele>1311.214589</ele>
        <time>2022-02-24T10:24:35.513Z</time>
      </trkpt>
      <trkpt lat="37.8973" lon="-2.84115">
        <ele>1307.12398</ele>
        <time>2022-02-24T10:24:48.544Z</time>
      </trkpt>
      <trkpt lat="37.89746" lon="-2.84101">
        <ele>1305.981953</ele>
        <time>2022-02-24T10:24:53.947Z</time>
      </trkpt>
      <trkpt lat="37.89746" lon="-2.8408">
        <ele>1305.458371</ele>
        <time>2022-02-24T10:24:58.615Z</time>
      </trkpt>
      <trkpt lat="37.89765" lon="-2.84055">
        <ele>1304.542556</ele>
        <time>2022-02-24T10:25:06.833Z</time>
      </trkpt>
      <trkpt lat="37.89776" lon="-2.84027">
        <ele>1303.738804</ele>
        <time>2022-02-24T10:25:14.290Z</time>
      </trkpt>
      <trkpt lat="37.898" lon="-2.84016">
        <ele>1302.914636</ele>
        <time>2022-02-24T10:25:22.028Z</time>
      </trkpt>
      <trkpt lat="37.89829" lon="-2.84022">
        <ele>1301.936098</ele>
        <time>2022-02-24T10:25:31.486Z</time>
      </trkpt>
      <trkpt lat="37.8987" lon="-2.83969">
        <ele>1300.362484</ele>
        <time>2022-02-24T10:25:51.155Z</time>
      </trkpt>
      <trkpt lat="37.89865" lon="-2.83961">
        <ele>1300.344048</ele>
        <time>2022-02-24T10:25:54.038Z</time>
      </trkpt>
      <trkpt lat="37.89768" lon="-2.83957">
        <ele>1300.126179</ele>
        <time>2022-02-24T10:26:31.281Z</time>
      </trkpt>
      <trkpt lat="37.89758" lon="-2.83963">
        <ele>1300.101461</ele>
        <time>2022-02-24T10:26:35.383Z</time>
      </trkpt>
      <trkpt lat="37.89739" lon="-2.84008">
        <ele>1300.010091</ele>
        <time>2022-02-24T10:26:50.360Z</time>
      </trkpt>
      <trkpt lat="37.89709" lon="-2.84021">
        <ele>1299.693285</ele>
        <time>2022-02-24T10:27:01.738Z</time>
      </trkpt>
      <trkpt lat="37.89669" lon="-2.84072">
        <ele>1298.831147</ele>
        <time>2022-02-24T10:27:21.556Z</time>
      </trkpt>
      <trkpt lat="37.896" lon="-2.84101">
        <ele>1297.733161</ele>
        <time>2022-02-24T10:27:45.365Z</time>
      </trkpt>
      <trkpt lat="37.89562" lon="-2.84128">
        <ele>1296.926445</ele>
        <time>2022-02-24T10:27:59.000Z</time>
      </trkpt>
      <trkpt lat="37.89547" lon="-2.8415">
        <ele>1296.292196</ele>
        <time>2022-02-24T10:28:06.214Z</time>
      </trkpt>
      <trkpt lat="37.89528" lon="-2.84167">
        <ele>1295.671042</ele>
        <time>2022-02-24T10:28:13.191Z</time>
      </trkpt>
      <trkpt lat="37.89487" lon="-2.84189">
        <ele>1294.462235</ele>
        <time>2022-02-24T10:28:26.971Z</time>
      </trkpt>
      <trkpt lat="37.89453" lon="-2.84287">
        <ele>1292.130004</ele>
        <time>2022-02-24T10:28:53.919Z</time>
      </trkpt>
      <trkpt lat="37.89424" lon="-2.84306">
        <ele>1291.127177</ele>
        <time>2022-02-24T10:29:04.750Z</time>
      </trkpt>
      <trkpt lat="37.89401" lon="-2.84357">
        <ele>1289.725913</ele>
        <time>2022-02-24T10:29:19.210Z</time>
      </trkpt>
      <trkpt lat="37.89357" lon="-2.84395">
        <ele>1288.109992</ele>
        <time>2022-02-24T10:29:35.290Z</time>
      </trkpt>
      <trkpt lat="37.89325" lon="-2.84431">
        <ele>1286.747133</ele>
        <time>2022-02-24T10:29:48.398Z</time>
      </trkpt>
      <trkpt lat="37.89311" lon="-2.84458">
        <ele>1285.652705</ele>
        <time>2022-02-24T10:29:55.890Z</time>
      </trkpt>
      <trkpt lat="37.89291" lon="-2.84517">
        <ele>1283.426313</ele>
        <time>2022-02-24T10:30:11.035Z</time>
      </trkpt>
      <trkpt lat="37.8928" lon="-2.84535">
        <ele>1282.613774</ele>
        <time>2022-02-24T10:30:16.512Z</time>
      </trkpt>
      <trkpt lat="37.89211" lon="-2.84604">
        <ele>1278.752168</ele>
        <time>2022-02-24T10:30:41.699Z</time>
      </trkpt>
      <trkpt lat="37.8921" lon="-2.84618">
        <ele>1278.251746</ele>
        <time>2022-02-24T10:30:44.931Z</time>
      </trkpt>
      <trkpt lat="37.89224" lon="-2.84654">
        <ele>1276.859714</ele>
        <time>2022-02-24T10:30:54.045Z</time>
      </trkpt>
      <trkpt lat="37.89224" lon="-2.84716">
        <ele>1274.71406</ele>
        <time>2022-02-24T10:31:08.556Z</time>
      </trkpt>
      <trkpt lat="37.89216" lon="-2.84737">
        <ele>1273.902527</ele>
        <time>2022-02-24T10:31:14.108Z</time>
      </trkpt>
      <trkpt lat="37.89183" lon="-2.84762">
        <ele>1272.178406</ele>
        <time>2022-02-24T10:31:25.679Z</time>
      </trkpt>
      <trkpt lat="37.89145" lon="-2.848">
        <ele>1270.023396</ele>
        <time>2022-02-24T10:31:39.867Z</time>
      </trkpt>
      <trkpt lat="37.89121" lon="-2.84813">
        <ele>1268.850477</ele>
        <time>2022-02-24T10:31:47.382Z</time>
      </trkpt>
      <trkpt lat="37.89109" lon="-2.8484">
        <ele>1267.762218</ele>
        <time>2022-02-24T10:31:54.337Z</time>
      </trkpt>
      <trkpt lat="37.89109" lon="-2.84869">
        <ele>1266.706225</ele>
        <time>2022-02-24T10:32:00.986Z</time>
      </trkpt>
      <trkpt lat="37.89101" lon="-2.84873">
        <ele>1266.295112</ele>
        <time>2022-02-24T10:32:03.633Z</time>
      </trkpt>
      <trkpt lat="37.89087" lon="-2.84871">
        <ele>1265.663932</ele>
        <time>2022-02-24T10:32:07.635Z</time>
      </trkpt>
      <trkpt lat="37.89067" lon="-2.84887">
        <ele>1264.560427</ele>
        <time>2022-02-24T10:32:14.837Z</time>
      </trkpt>
      <trkpt lat="37.89057" lon="-2.84907">
        <ele>1263.739902</ele>
        <time>2022-02-24T10:32:20.150Z</time>
      </trkpt>
      <trkpt lat="37.89052" lon="-2.84937">
        <ele>1262.733283</ele>
        <time>2022-02-24T10:32:27.603Z</time>
      </trkpt>
      <trkpt lat="37.8902" lon="-2.84982">
        <ele>1261.384825</ele>
        <time>2022-02-24T10:32:42.142Z</time>
      </trkpt>
      <trkpt lat="37.89" lon="-2.84998">
        <ele>1260.720233</ele>
        <time>2022-02-24T10:32:49.394Z</time>
      </trkpt>
      <trkpt lat="37.88958" lon="-2.85011">
        <ele>1259.526659</ele>
        <time>2022-02-24T10:33:02.690Z</time>
      </trkpt>
      <trkpt lat="37.88904" lon="-2.85049">
        <ele>1257.82409</ele>
        <time>2022-02-24T10:33:22.838Z</time>
      </trkpt>
      <trkpt lat="37.88884" lon="-2.85056">
        <ele>1257.472514</ele>
        <time>2022-02-24T10:33:30.084Z</time>
      </trkpt>
      <trkpt lat="37.88845" lon="-2.85088">
        <ele>1256.712043</ele>
        <time>2022-02-24T10:33:46.148Z</time>
      </trkpt>
      <trkpt lat="37.88795" lon="-2.8514">
        <ele>1255.644767</ele>
        <time>2022-02-24T10:34:07.958Z</time>
      </trkpt>
      <trkpt lat="37.88751" lon="-2.8521">
        <ele>1254.103335</ele>
        <time>2022-02-24T10:34:30.570Z</time>
      </trkpt>
      <trkpt lat="37.88712" lon="-2.85253">
        <ele>1252.46602</ele>
        <time>2022-02-24T10:34:46.696Z</time>
      </trkpt>
      <trkpt lat="37.88692" lon="-2.85265">
        <ele>1251.747306</ele>
        <time>2022-02-24T10:34:53.613Z</time>
      </trkpt>
      <trkpt lat="37.88631" lon="-2.85274">
        <ele>1249.806085</ele>
        <time>2022-02-24T10:35:12.005Z</time>
      </trkpt>
      <trkpt lat="37.88574" lon="-2.85245">
        <ele>1247.910094</ele>
        <time>2022-02-24T10:35:30.278Z</time>
      </trkpt>
      <trkpt lat="37.88521" lon="-2.85291">
        <ele>1245.925532</ele>
        <time>2022-02-24T10:35:49.929Z</time>
      </trkpt>
      <trkpt lat="37.88491" lon="-2.85323">
        <ele>1244.728774</ele>
        <time>2022-02-24T10:36:02.057Z</time>
      </trkpt>
      <trkpt lat="37.88481" lon="-2.85333">
        <ele>1244.331161</ele>
        <time>2022-02-24T10:36:06.121Z</time>
      </trkpt>
      <trkpt lat="37.88449" lon="-2.85356">
        <ele>1243.535497</ele>
        <time>2022-02-24T10:36:18.002Z</time>
      </trkpt>
      <trkpt lat="37.8843" lon="-2.85381">
        <ele>1243.305806</ele>
        <time>2022-02-24T10:36:27.256Z</time>
      </trkpt>
      <trkpt lat="37.8841" lon="-2.85393">
        <ele>1243.122019</ele>
        <time>2022-02-24T10:36:34.816Z</time>
      </trkpt>
      <trkpt lat="37.88375" lon="-2.85397">
        <ele>1242.83592</ele>
        <time>2022-02-24T10:36:47.017Z</time>
      </trkpt>
      <trkpt lat="37.88334" lon="-2.85417">
        <ele>1242.46497</ele>
        <time>2022-02-24T10:37:03.214Z</time>
      </trkpt>
      <trkpt lat="37.88292" lon="-2.85422">
        <ele>1242.109369</ele>
        <time>2022-02-24T10:37:18.914Z</time>
      </trkpt>
      <trkpt lat="37.88257" lon="-2.85432">
        <ele>1241.757522</ele>
        <time>2022-02-24T10:37:32.389Z</time>
      </trkpt>
      <trkpt lat="37.882" lon="-2.85428">
        <ele>1241.195603</ele>
        <time>2022-02-24T10:37:53.184Z</time>
      </trkpt>
      <trkpt lat="37.8818" lon="-2.8544">
        <ele>1240.981196</ele>
        <time>2022-02-24T10:38:00.917Z</time>
      </trkpt>
      <trkpt lat="37.88139" lon="-2.85481">
        <ele>1240.469339</ele>
        <time>2022-02-24T10:38:18.066Z</time>
      </trkpt>
      <trkpt lat="37.88061" lon="-2.85488">
        <ele>1237.328363</ele>
        <time>2022-02-24T10:38:42.059Z</time>
      </trkpt>
      <trkpt lat="37.88034" lon="-2.85515">
        <ele>1235.868272</ele>
        <time>2022-02-24T10:38:51.974Z</time>
      </trkpt>
      <trkpt lat="37.88009" lon="-2.85558">
        <ele>1234.050554</ele>
        <time>2022-02-24T10:39:04.017Z</time>
      </trkpt>
      <trkpt lat="37.87955" lon="-2.85582">
        <ele>1231.716646</ele>
        <time>2022-02-24T10:39:20.317Z</time>
      </trkpt>
      <trkpt lat="37.87905" lon="-2.85568">
        <ele>1229.733342</ele>
        <time>2022-02-24T10:39:35.115Z</time>
      </trkpt>
      <trkpt lat="37.87879" lon="-2.85545">
        <ele>1228.535362</ele>
        <time>2022-02-24T10:39:44.322Z</time>
      </trkpt>
      <trkpt lat="37.87866" lon="-2.8554">
        <ele>1227.98508</ele>
        <time>2022-02-24T10:39:48.675Z</time>
      </trkpt>
      <trkpt lat="37.87815" lon="-2.85545">
        <ele>1226.037444</ele>
        <time>2022-02-24T10:40:04.688Z</time>
      </trkpt>
      <trkpt lat="37.87755" lon="-2.85528">
        <ele>1225.171971</ele>
        <time>2022-02-24T10:40:24.789Z</time>
      </trkpt>
      <trkpt lat="37.87662" lon="-2.85543">
        <ele>1224.153142</ele>
        <time>2022-02-24T10:40:58.343Z</time>
      </trkpt>
      <trkpt lat="37.87616" lon="-2.85566">
        <ele>1223.514275</ele>
        <time>2022-02-24T10:41:16.187Z</time>
      </trkpt>
      <trkpt lat="37.87586" lon="-2.85617">
        <ele>1222.676715</ele>
        <time>2022-02-24T10:41:33.741Z</time>
      </trkpt>
      <trkpt lat="37.87552" lon="-2.85654">
        <ele>1221.944039</ele>
        <time>2022-02-24T10:41:48.337Z</time>
      </trkpt>
      <trkpt lat="37.87518" lon="-2.8568">
        <ele>1221.276265</ele>
        <time>2022-02-24T10:42:01.186Z</time>
      </trkpt>
      <trkpt lat="37.87503" lon="-2.85698">
        <ele>1220.933695</ele>
        <time>2022-02-24T10:42:07.717Z</time>
      </trkpt>
      <trkpt lat="37.87435" lon="-2.85817">
        <ele>1216.865934</ele>
        <time>2022-02-24T10:42:43.450Z</time>
      </trkpt>
      <trkpt lat="37.87416" lon="-2.85829">
        <ele>1216.059885</ele>
        <time>2022-02-24T10:42:50.134Z</time>
      </trkpt>
      <trkpt lat="37.87372" lon="-2.8584">
        <ele>1214.442245</ele>
        <time>2022-02-24T10:43:03.124Z</time>
      </trkpt>
      <trkpt lat="37.87345" lon="-2.85866">
        <ele>1212.372947</ele>
        <time>2022-02-24T10:43:12.692Z</time>
      </trkpt>
      <trkpt lat="37.87331" lon="-2.85894">
        <ele>1210.673255</ele>
        <time>2022-02-24T10:43:20.132Z</time>
      </trkpt>
      <trkpt lat="37.87334" lon="-2.85984">
        <ele>1206.08349</ele>
        <time>2022-02-24T10:43:39.812Z</time>
      </trkpt>
      <trkpt lat="37.8733" lon="-2.8601">
        <ele>1204.728108</ele>
        <time>2022-02-24T10:43:45.427Z</time>
      </trkpt>
      <trkpt lat="37.87325" lon="-2.86023">
        <ele>1204.021456</ele>
        <time>2022-02-24T10:43:48.513Z</time>
      </trkpt>
      <trkpt lat="37.87274" lon="-2.86089">
        <ele>1199.169726</ele>
        <time>2022-02-24T10:44:07.993Z</time>
      </trkpt>
      <trkpt lat="37.87268" lon="-2.86107">
        <ele>1198.109968</ele>
        <time>2022-02-24T10:44:12.115Z</time>
      </trkpt>
      <trkpt lat="37.87269" lon="-2.8615">
        <ele>1195.815159</ele>
        <time>2022-02-24T10:44:21.175Z</time>
      </trkpt>
      <trkpt lat="37.87289" lon="-2.86226">
        <ele>1191.536556</ele>
        <time>2022-02-24T10:44:38.715Z</time>
      </trkpt>
      <trkpt lat="37.87288" lon="-2.86269">
        <ele>1189.76995</ele>
        <time>2022-02-24T10:44:48.823Z</time>
      </trkpt>
      <trkpt lat="37.87284" lon="-2.86286">
        <ele>1189.238893</ele>
        <time>2022-02-24T10:44:52.938Z</time>
      </trkpt>
      <trkpt lat="37.87275" lon="-2.86299">
        <ele>1188.71548</ele>
        <time>2022-02-24T10:44:57.016Z</time>
      </trkpt>
      <trkpt lat="37.87219" lon="-2.86348">
        <ele>1186.092799</ele>
        <time>2022-02-24T10:45:18.140Z</time>
      </trkpt>
      <trkpt lat="37.87207" lon="-2.86383">
        <ele>1184.937475</ele>
        <time>2022-02-24T10:45:27.282Z</time>
      </trkpt>
      <trkpt lat="37.87216" lon="-2.86437">
        <ele>1183.194242</ele>
        <time>2022-02-24T10:45:40.388Z</time>
      </trkpt>
      <trkpt lat="37.87253" lon="-2.86498">
        <ele>1180.528675</ele>
        <time>2022-02-24T10:45:58.487Z</time>
      </trkpt>
      <trkpt lat="37.87265" lon="-2.86557">
        <ele>1178.409793</ele>
        <time>2022-02-24T10:46:12.510Z</time>
      </trkpt>
      <trkpt lat="37.87291" lon="-2.86629">
        <ele>1175.685662</ele>
        <time>2022-02-24T10:46:30.381Z</time>
      </trkpt>
      <trkpt lat="37.87293" lon="-2.86665">
        <ele>1174.896622</ele>
        <time>2022-02-24T10:46:38.642Z</time>
      </trkpt>
      <trkpt lat="37.87307" lon="-2.86713">
        <ele>1173.773784</ele>
        <time>2022-02-24T10:46:50.491Z</time>
      </trkpt>
      <trkpt lat="37.87304" lon="-2.86763">
        <ele>1172.672701</ele>
        <time>2022-02-24T10:47:02.881Z</time>
      </trkpt>
      <trkpt lat="37.87289" lon="-2.86806">
        <ele>1171.650889</ele>
        <time>2022-02-24T10:47:15.205Z</time>
      </trkpt>
      <trkpt lat="37.87237" lon="-2.86873">
        <ele>1170.539967</ele>
        <time>2022-02-24T10:47:42.141Z</time>
      </trkpt>
      <trkpt lat="37.87211" lon="-2.86958">
        <ele>1170.241629</ele>
        <time>2022-02-24T10:48:08.602Z</time>
      </trkpt>
      <trkpt lat="37.87159" lon="-2.86982">
        <ele>1170.011336</ele>
        <time>2022-02-24T10:48:28.928Z</time>
      </trkpt>
      <trkpt lat="37.87142" lon="-2.86998">
        <ele>1169.710378</ele>
        <time>2022-02-24T10:48:36.399Z</time>
      </trkpt>
      <trkpt lat="37.87113" lon="-2.87066">
        <ele>1168.064337</ele>
        <time>2022-02-24T10:48:56.483Z</time>
      </trkpt>
      <trkpt lat="37.87106" lon="-2.87092">
        <ele>1167.458693</ele>
        <time>2022-02-24T10:49:03.446Z</time>
      </trkpt>
      <trkpt lat="37.87087" lon="-2.87117">
        <ele>1166.734177</ele>
        <time>2022-02-24T10:49:11.587Z</time>
      </trkpt>
      <trkpt lat="37.87088" lon="-2.87174">
        <ele>1165.51433</ele>
        <time>2022-02-24T10:49:24.943Z</time>
      </trkpt>
      <trkpt lat="37.87111" lon="-2.87228">
        <ele>1163.855177</ele>
        <time>2022-02-24T10:49:39.279Z</time>
      </trkpt>
      <trkpt lat="37.87105" lon="-2.87246">
        <ele>1163.27876</ele>
        <time>2022-02-24T10:49:43.851Z</time>
      </trkpt>
      <trkpt lat="37.87109" lon="-2.87287">
        <ele>1162.064102</ele>
        <time>2022-02-24T10:49:53.562Z</time>
      </trkpt>
      <trkpt lat="37.87104" lon="-2.87322">
        <ele>1161.013227</ele>
        <time>2022-02-24T10:50:01.978Z</time>
      </trkpt>
      <trkpt lat="37.87136" lon="-2.87374">
        <ele>1159.043531</ele>
        <time>2022-02-24T10:50:17.855Z</time>
      </trkpt>
      <trkpt lat="37.87144" lon="-2.8742">
        <ele>1157.614058</ele>
        <time>2022-02-24T10:50:29.324Z</time>
      </trkpt>
      <trkpt lat="37.8716" lon="-2.87452">
        <ele>1156.439059</ele>
        <time>2022-02-24T10:50:38.512Z</time>
      </trkpt>
      <trkpt lat="37.87163" lon="-2.87472">
        <ele>1155.820272</ele>
        <time>2022-02-24T10:50:43.375Z</time>
      </trkpt>
      <trkpt lat="37.8716" lon="-2.87494">
        <ele>1155.125437</ele>
        <time>2022-02-24T10:50:48.733Z</time>
      </trkpt>
      <trkpt lat="37.87137" lon="-2.87514">
        <ele>1154.00679</ele>
        <time>2022-02-24T10:50:57.365Z</time>
      </trkpt>
      <trkpt lat="37.87123" lon="-2.87547">
        <ele>1152.831575</ele>
        <time>2022-02-24T10:51:06.358Z</time>
      </trkpt>
      <trkpt lat="37.87109" lon="-2.87561">
        <ele>1152.172098</ele>
        <time>2022-02-24T10:51:11.309Z</time>
      </trkpt>
      <trkpt lat="37.87104" lon="-2.8758">
        <ele>1151.54624</ele>
        <time>2022-02-24T10:51:16.006Z</time>
      </trkpt>
      <trkpt lat="37.87099" lon="-2.87647">
        <ele>1148.49786</ele>
        <time>2022-02-24T10:51:31.163Z</time>
      </trkpt>
      <trkpt lat="37.87077" lon="-2.87711">
        <ele>1145.23649</ele>
        <time>2022-02-24T10:51:46.281Z</time>
      </trkpt>
      <trkpt lat="37.87081" lon="-2.87832">
        <ele>1139.985193</ele>
        <time>2022-02-24T10:52:12.516Z</time>
      </trkpt>
      <trkpt lat="37.87074" lon="-2.87861">
        <ele>1139.18263</ele>
        <time>2022-02-24T10:52:19.447Z</time>
      </trkpt>
      <trkpt lat="37.87063" lon="-2.87886">
        <ele>1138.427787</ele>
        <time>2022-02-24T10:52:25.975Z</time>
      </trkpt>
      <trkpt lat="37.87048" lon="-2.87901">
        <ele>1137.793726</ele>
        <time>2022-02-24T10:52:31.701Z</time>
      </trkpt>
      <trkpt lat="37.87035" lon="-2.87902">
        <ele>1137.353577</ele>
        <time>2022-02-24T10:52:35.639Z</time>
      </trkpt>
      <trkpt lat="37.87009" lon="-2.87921">
        <ele>1136.33413</ele>
        <time>2022-02-24T10:52:44.849Z</time>
      </trkpt>
      <trkpt lat="37.86989" lon="-2.87926">
        <ele>1135.648432</ele>
        <time>2022-02-24T10:52:51.254Z</time>
      </trkpt>
      <trkpt lat="37.8697" lon="-2.87949">
        <ele>1134.786155</ele>
        <time>2022-02-24T10:53:00.774Z</time>
      </trkpt>
      <trkpt lat="37.8694" lon="-2.87997">
        <ele>1135.943107</ele>
        <time>2022-02-24T10:53:21.424Z</time>
      </trkpt>
      <trkpt lat="37.86934" lon="-2.88021">
        <ele>1136.62093</ele>
        <time>2022-02-24T10:53:33.324Z</time>
      </trkpt>
      <trkpt lat="37.86937" lon="-2.88035">
        <ele>1137.004165</ele>
        <time>2022-02-24T10:53:37.811Z</time>
      </trkpt>
      <trkpt lat="37.86834" lon="-2.88142">
        <ele>1141.833287</ele>
        <time>2022-02-24T10:55:00.850Z</time>
      </trkpt>
      <trkpt lat="37.86789" lon="-2.88202">
        <ele>1144.797544</ele>
        <time>2022-02-24T10:55:40.166Z</time>
      </trkpt>
      <trkpt lat="37.86727" lon="-2.88253">
        <ele>1148.176826</ele>
        <time>2022-02-24T10:56:24.448Z</time>
      </trkpt>
      <trkpt lat="37.86708" lon="-2.88304">
        <ele>1150.190541</ele>
        <time>2022-02-24T10:56:49.826Z</time>
      </trkpt>
      <trkpt lat="37.8667" lon="-2.88344">
        <ele>1152.443417</ele>
        <time>2022-02-24T10:57:18.035Z</time>
      </trkpt>
      <trkpt lat="37.86654" lon="-2.88408">
        <ele>1154.887768</ele>
        <time>2022-02-24T10:57:51.007Z</time>
      </trkpt>
      <trkpt lat="37.86655" lon="-2.88493">
        <ele>1158.252596</ele>
        <time>2022-02-24T10:58:31.224Z</time>
      </trkpt>
      <trkpt lat="37.86648" lon="-2.88513">
        <ele>1159.313054</ele>
        <time>2022-02-24T10:58:42.738Z</time>
      </trkpt>
      <trkpt lat="37.86632" lon="-2.88538">
        <ele>1160.878761</ele>
        <time>2022-02-24T10:58:59.650Z</time>
      </trkpt>
      <trkpt lat="37.86623" lon="-2.88535">
        <ele>1161.40535</ele>
        <time>2022-02-24T10:59:05.691Z</time>
      </trkpt>
      <trkpt lat="37.86612" lon="-2.8851">
        <ele>1162.795288</ele>
        <time>2022-02-24T10:59:20.931Z</time>
      </trkpt>
      <trkpt lat="37.86618" lon="-2.88475">
        <ele>1164.527666</ele>
        <time>2022-02-24T10:59:40.276Z</time>
      </trkpt>
      <trkpt lat="37.86612" lon="-2.88468">
        <ele>1165.043729</ele>
        <time>2022-02-24T10:59:46.548Z</time>
      </trkpt>
      <trkpt lat="37.86599" lon="-2.88469">
        <ele>1165.850269</ele>
        <time>2022-02-24T10:59:56.119Z</time>
      </trkpt>
      <trkpt lat="37.86572" lon="-2.88499">
        <ele>1168.060309</ele>
        <time>2022-02-24T11:00:22.065Z</time>
      </trkpt>
      <trkpt lat="37.86554" lon="-2.88529">
        <ele>1169.889201</ele>
        <time>2022-02-24T11:00:43.442Z</time>
      </trkpt>
      <trkpt lat="37.8654" lon="-2.88539">
        <ele>1170.87205</ele>
        <time>2022-02-24T11:00:54.549Z</time>
      </trkpt>
      <trkpt lat="37.86492" lon="-2.88567">
        <ele>1174.160909</ele>
        <time>2022-02-24T11:01:32.586Z</time>
      </trkpt>
      <trkpt lat="37.86394" lon="-2.88607">
        <ele>1179.612909</ele>
        <time>2022-02-24T11:02:40.911Z</time>
      </trkpt>
      <trkpt lat="37.86326" lon="-2.88655">
        <ele>1181.304525</ele>
        <time>2022-02-24T11:03:19.421Z</time>
      </trkpt>
      <trkpt lat="37.86294" lon="-2.88686">
        <ele>1182.187227</ele>
        <time>2022-02-24T11:03:36.064Z</time>
      </trkpt>
      <trkpt lat="37.86238" lon="-2.88728">
        <ele>1183.075254</ele>
        <time>2022-02-24T11:04:00.116Z</time>
      </trkpt>
      <trkpt lat="37.86211" lon="-2.88734">
        <ele>1183.107791</ele>
        <time>2022-02-24T11:04:10.161Z</time>
      </trkpt>
      <trkpt lat="37.86173" lon="-2.88734">
        <ele>1183.152133</ele>
        <time>2022-02-24T11:04:23.870Z</time>
      </trkpt>
      <trkpt lat="37.86129" lon="-2.8875">
        <ele>1183.206653</ele>
        <time>2022-02-24T11:04:41.304Z</time>
      </trkpt>
      <trkpt lat="37.86094" lon="-2.8874">
        <ele>1183.249573</ele>
        <time>2022-02-24T11:04:55.637Z</time>
      </trkpt>
      <trkpt lat="37.86058" lon="-2.88744">
        <ele>1183.214683</ele>
        <time>2022-02-24T11:05:10.017Z</time>
      </trkpt>
      <trkpt lat="37.86001" lon="-2.88794">
        <ele>1183.112804</ele>
        <time>2022-02-24T11:05:34.932Z</time>
      </trkpt>
      <trkpt lat="37.85966" lon="-2.88836">
        <ele>1183.041623</ele>
        <time>2022-02-24T11:05:51.901Z</time>
      </trkpt>
      <trkpt lat="37.85929" lon="-2.88893">
        <ele>1183.677182</ele>
        <time>2022-02-24T11:06:12.421Z</time>
      </trkpt>
      <trkpt lat="37.85857" lon="-2.88976">
        <ele>1186.400755</ele>
        <time>2022-02-24T11:06:57.024Z</time>
      </trkpt>
      <trkpt lat="37.85834" lon="-2.88979">
        <ele>1187.062202</ele>
        <time>2022-02-24T11:07:10.629Z</time>
      </trkpt>
      <trkpt lat="37.85718" lon="-2.8897">
        <ele>1194.807326</ele>
        <time>2022-02-24T11:08:35.756Z</time>
      </trkpt>
      <trkpt lat="37.85689" lon="-2.88958">
        <ele>1197.329707</ele>
        <time>2022-02-24T11:09:01.106Z</time>
      </trkpt>
      <trkpt lat="37.85659" lon="-2.88939">
        <ele>1200.169224</ele>
        <time>2022-02-24T11:09:30.995Z</time>
      </trkpt>
      <trkpt lat="37.85612" lon="-2.88928">
        <ele>1204.017747</ele>
        <time>2022-02-24T11:10:11.697Z</time>
      </trkpt>
      <trkpt lat="37.85535" lon="-2.88937">
        <ele>1209.936301</ele>
        <time>2022-02-24T11:11:13.930Z</time>
      </trkpt>
      <trkpt lat="37.85499" lon="-2.88934">
        <ele>1212.708484</ele>
        <time>2022-02-24T11:11:39.971Z</time>
      </trkpt>
      <trkpt lat="37.85402" lon="-2.88982">
        <ele>1219.314742</ele>
        <time>2022-02-24T11:12:49.883Z</time>
      </trkpt>
      <trkpt lat="37.8538" lon="-2.89002">
        <ele>1220.599773</ele>
        <time>2022-02-24T11:13:06.265Z</time>
      </trkpt>
      <trkpt lat="37.85349" lon="-2.89019">
        <ele>1222.262802</ele>
        <time>2022-02-24T11:13:26.798Z</time>
      </trkpt>
      <trkpt lat="37.85311" lon="-2.89027">
        <ele>1224.177815</ele>
        <time>2022-02-24T11:13:49.578Z</time>
      </trkpt>
      <trkpt lat="37.85292" lon="-2.89038">
        <ele>1225.189289</ele>
        <time>2022-02-24T11:14:01.594Z</time>
      </trkpt>
      <trkpt lat="37.85259" lon="-2.89041">
        <ele>1226.735441</ele>
        <time>2022-02-24T11:14:19.993Z</time>
      </trkpt>
      <trkpt lat="37.85236" lon="-2.89054">
        <ele>1227.928062</ele>
        <time>2022-02-24T11:14:34.045Z</time>
      </trkpt>
      <trkpt lat="37.85215" lon="-2.89054">
        <ele>1228.864222</ele>
        <time>2022-02-24T11:14:45.675Z</time>
      </trkpt>
      <trkpt lat="37.85189" lon="-2.89066">
        <ele>1230.16786</ele>
        <time>2022-02-24T11:15:02.954Z</time>
      </trkpt>
      <trkpt lat="37.85109" lon="-2.89121">
        <ele>1234.565712</ele>
        <time>2022-02-24T11:15:59.858Z</time>
      </trkpt>
      <trkpt lat="37.85085" lon="-2.89129">
        <ele>1236.096148</ele>
        <time>2022-02-24T11:16:16.071Z</time>
      </trkpt>
      <trkpt lat="37.85072" lon="-2.89128">
        <ele>1236.877059</ele>
        <time>2022-02-24T11:16:24.763Z</time>
      </trkpt>
      <trkpt lat="37.85049" lon="-2.89141">
        <ele>1238.459186</ele>
        <time>2022-02-24T11:16:41.803Z</time>
      </trkpt>
      <trkpt lat="37.84971" lon="-2.89144">
        <ele>1243.282914</ele>
        <time>2022-02-24T11:17:36.389Z</time>
      </trkpt>
      <trkpt lat="37.84945" lon="-2.89136">
        <ele>1244.889836</ele>
        <time>2022-02-24T11:17:55.051Z</time>
      </trkpt>
      <trkpt lat="37.84895" lon="-2.89145">
        <ele>1247.80245</ele>
        <time>2022-02-24T11:18:31.243Z</time>
      </trkpt>
      <trkpt lat="37.84858" lon="-2.89166">
        <ele>1250.141452</ele>
        <time>2022-02-24T11:18:58.131Z</time>
      </trkpt>
      <trkpt lat="37.84832" lon="-2.89195">
        <ele>1252.10435</ele>
        <time>2022-02-24T11:19:19.761Z</time>
      </trkpt>
      <trkpt lat="37.84821" lon="-2.89216">
        <ele>1253.271493</ele>
        <time>2022-02-24T11:19:32.318Z</time>
      </trkpt>
      <trkpt lat="37.84778" lon="-2.8923">
        <ele>1255.780701</ele>
        <time>2022-02-24T11:19:59.563Z</time>
      </trkpt>
      <trkpt lat="37.84755" lon="-2.89258">
        <ele>1257.537831</ele>
        <time>2022-02-24T11:20:19.633Z</time>
      </trkpt>
      <trkpt lat="37.84741" lon="-2.89263">
        <ele>1258.336736</ele>
        <time>2022-02-24T11:20:28.974Z</time>
      </trkpt>
      <trkpt lat="37.84738" lon="-2.89287">
        <ele>1259.401576</ele>
        <time>2022-02-24T11:20:41.357Z</time>
      </trkpt>
      <trkpt lat="37.84729" lon="-2.89303">
        <ele>1260.254953</ele>
        <time>2022-02-24T11:20:51.675Z</time>
      </trkpt>
      <trkpt lat="37.84691" lon="-2.8934">
        <ele>1262.92965</ele>
        <time>2022-02-24T11:21:23.747Z</time>
      </trkpt>
      <trkpt lat="37.84657" lon="-2.89355">
        <ele>1264.928998</ele>
        <time>2022-02-24T11:21:47.693Z</time>
      </trkpt>
      <trkpt lat="37.84604" lon="-2.89363">
        <ele>1267.075638</ele>
        <time>2022-02-24T11:22:21.845Z</time>
      </trkpt>
      <trkpt lat="37.84583" lon="-2.89372">
        <ele>1267.956941</ele>
        <time>2022-02-24T11:22:36.310Z</time>
      </trkpt>
      <trkpt lat="37.84562" lon="-2.89391">
        <ele>1268.957265</ele>
        <time>2022-02-24T11:22:51.433Z</time>
      </trkpt>
      <trkpt lat="37.8454" lon="-2.89417">
        <ele>1270.121278</ele>
        <time>2022-02-24T11:23:07.908Z</time>
      </trkpt>
      <trkpt lat="37.84494" lon="-2.89507">
        <ele>1272.752971</ele>
        <time>2022-02-24T11:23:47.312Z</time>
      </trkpt>
      <trkpt lat="37.84472" lon="-2.89534">
        <ele>1273.28619</ele>
        <time>2022-02-24T11:24:00.565Z</time>
      </trkpt>
      <trkpt lat="37.84441" lon="-2.8959">
        <ele>1274.208265</ele>
        <time>2022-02-24T11:24:22.828Z</time>
      </trkpt>
      <trkpt lat="37.84424" lon="-2.89612">
        <ele>1274.618919</ele>
        <time>2022-02-24T11:24:32.914Z</time>
      </trkpt>
      <trkpt lat="37.84097" lon="-2.8972">
        <ele>1282.996471</ele>
        <time>2022-02-24T11:27:27.594Z</time>
      </trkpt>
      <trkpt lat="37.83966" lon="-2.89752">
        <ele>1283.47203</ele>
        <time>2022-02-24T11:28:22.519Z</time>
      </trkpt>
      <trkpt lat="37.83921" lon="-2.89757">
        <ele>1282.903608</ele>
        <time>2022-02-24T11:28:37.803Z</time>
      </trkpt>
      <trkpt lat="37.83851" lon="-2.89753">
        <ele>1281.740846</ele>
        <time>2022-02-24T11:28:59.919Z</time>
      </trkpt>
      <trkpt lat="37.83801" lon="-2.89746">
        <ele>1278.802021</ele>
        <time>2022-02-24T11:29:14.299Z</time>
      </trkpt>
      <trkpt lat="37.83719" lon="-2.89725">
        <ele>1273.892528</ele>
        <time>2022-02-24T11:29:37.155Z</time>
      </trkpt>
      <trkpt lat="37.83705" lon="-2.89717">
        <ele>1272.981713</ele>
        <time>2022-02-24T11:29:41.411Z</time>
      </trkpt>
      <trkpt lat="37.83638" lon="-2.89717">
        <ele>1269.301708</ele>
        <time>2022-02-24T11:29:59.649Z</time>
      </trkpt>
      <trkpt lat="37.83622" lon="-2.89682">
        <ele>1267.627947</ele>
        <time>2022-02-24T11:30:08.541Z</time>
      </trkpt>
      <trkpt lat="37.8361" lon="-2.89672">
        <ele>1266.853554</ele>
        <time>2022-02-24T11:30:12.742Z</time>
      </trkpt>
      <trkpt lat="37.83591" lon="-2.89662">
        <ele>1265.773106</ele>
        <time>2022-02-24T11:30:18.553Z</time>
      </trkpt>
      <trkpt lat="37.8357" lon="-2.89664">
        <ele>1264.656219</ele>
        <time>2022-02-24T11:30:24.719Z</time>
      </trkpt>
      <trkpt lat="37.83563" lon="-2.89679">
        <ele>1263.931572</ele>
        <time>2022-02-24T11:30:28.639Z</time>
      </trkpt>
      <trkpt lat="37.83566" lon="-2.89694">
        <ele>1263.276299</ele>
        <time>2022-02-24T11:30:32.298Z</time>
      </trkpt>
      <trkpt lat="37.83586" lon="-2.89714">
        <ele>1261.983903</ele>
        <time>2022-02-24T11:30:39.958Z</time>
      </trkpt>
      <trkpt lat="37.83634" lon="-2.89791">
        <ele>1259.319569</ele>
        <time>2022-02-24T11:31:05.167Z</time>
      </trkpt>
      <trkpt lat="37.8363" lon="-2.89803">
        <ele>1258.948845</ele>
        <time>2022-02-24T11:31:08.608Z</time>
      </trkpt>
      <trkpt lat="37.83619" lon="-2.89806">
        <ele>1258.585919</ele>
        <time>2022-02-24T11:31:12.011Z</time>
      </trkpt>
      <trkpt lat="37.83601" lon="-2.89806">
        <ele>1257.963897</ele>
        <time>2022-02-24T11:31:17.574Z</time>
      </trkpt>
      <trkpt lat="37.83533" lon="-2.89776">
        <ele>1255.091851</ele>
        <time>2022-02-24T11:31:38.497Z</time>
      </trkpt>
      <trkpt lat="37.83505" lon="-2.89761">
        <ele>1252.969583</ele>
        <time>2022-02-24T11:31:47.083Z</time>
      </trkpt>
      <trkpt lat="37.83477" lon="-2.89733">
        <ele>1250.424293</ele>
        <time>2022-02-24T11:31:57.081Z</time>
      </trkpt>
      <trkpt lat="37.83442" lon="-2.89743">
        <ele>1247.885693</ele>
        <time>2022-02-24T11:32:06.811Z</time>
      </trkpt>
      <trkpt lat="37.8342" lon="-2.89732">
        <ele>1246.206413</ele>
        <time>2022-02-24T11:32:13.210Z</time>
      </trkpt>
      <trkpt lat="37.83355" lon="-2.89724">
        <ele>1241.687197</ele>
        <time>2022-02-24T11:32:30.086Z</time>
      </trkpt>
      <trkpt lat="37.83341" lon="-2.89734">
        <ele>1240.528634</ele>
        <time>2022-02-24T11:32:34.384Z</time>
      </trkpt>
      <trkpt lat="37.83318" lon="-2.8972">
        <ele>1238.762633</ele>
        <time>2022-02-24T11:32:41.175Z</time>
      </trkpt>
      <trkpt lat="37.83232" lon="-2.89703">
        <ele>1232.636408</ele>
        <time>2022-02-24T11:33:05.851Z</time>
      </trkpt>
      <trkpt lat="37.83103" lon="-2.8972">
        <ele>1223.0797</ele>
        <time>2022-02-24T11:33:41.538Z</time>
      </trkpt>
      <trkpt lat="37.82974" lon="-2.89798">
        <ele>1210.728373</ele>
        <time>2022-02-24T11:34:19.080Z</time>
      </trkpt>
      <trkpt lat="37.82895" lon="-2.89833">
        <ele>1202.276526</ele>
        <time>2022-02-24T11:34:40.699Z</time>
      </trkpt>
      <trkpt lat="37.82848" lon="-2.89851">
        <ele>1196.762895</ele>
        <time>2022-02-24T11:34:52.962Z</time>
      </trkpt>
      <trkpt lat="37.82796" lon="-2.89844">
        <ele>1189.987817</ele>
        <time>2022-02-24T11:35:05.783Z</time>
      </trkpt>
      <trkpt lat="37.82767" lon="-2.89851">
        <ele>1186.063108</ele>
        <time>2022-02-24T11:35:13.229Z</time>
      </trkpt>
      <trkpt lat="37.8274" lon="-2.89871">
        <ele>1181.994461</ele>
        <time>2022-02-24T11:35:20.867Z</time>
      </trkpt>
      <trkpt lat="37.82716" lon="-2.89877">
        <ele>1178.688725</ele>
        <time>2022-02-24T11:35:27.171Z</time>
      </trkpt>
      <trkpt lat="37.82654" lon="-2.89914">
        <ele>1168.26013</ele>
        <time>2022-02-24T11:35:43.507Z</time>
      </trkpt>
      <trkpt lat="37.82624" lon="-2.89913">
        <ele>1163.354338</ele>
        <time>2022-02-24T11:35:50.513Z</time>
      </trkpt>
      <trkpt lat="37.82575" lon="-2.89899">
        <ele>1155.072653</ele>
        <time>2022-02-24T11:36:02.397Z</time>
      </trkpt>
      <trkpt lat="37.82565" lon="-2.89904">
        <ele>1153.40978</ele>
        <time>2022-02-24T11:36:04.918Z</time>
      </trkpt>
      <trkpt lat="37.82568" lon="-2.89917">
        <ele>1151.684546</ele>
        <time>2022-02-24T11:36:07.578Z</time>
      </trkpt>
      <trkpt lat="37.82578" lon="-2.89928">
        <ele>1149.480273</ele>
        <time>2022-02-24T11:36:10.736Z</time>
      </trkpt>
      <trkpt lat="37.82578" lon="-2.89943">
        <ele>1147.494273</ele>
        <time>2022-02-24T11:36:13.747Z</time>
      </trkpt>
      <trkpt lat="37.82569" lon="-2.89958">
        <ele>1145.175583</ele>
        <time>2022-02-24T11:36:17.424Z</time>
      </trkpt>
      <trkpt lat="37.82554" lon="-2.89954">
        <ele>1143.148028</ele>
        <time>2022-02-24T11:36:21.058Z</time>
      </trkpt>
      <trkpt lat="37.82532" lon="-2.89965">
        <ele>1139.952367</ele>
        <time>2022-02-24T11:36:26.921Z</time>
      </trkpt>
      <trkpt lat="37.82447" lon="-2.89973">
        <ele>1128.684551</ele>
        <time>2022-02-24T11:36:47.468Z</time>
      </trkpt>
      <trkpt lat="37.82377" lon="-2.89989">
        <ele>1119.479594</ele>
        <time>2022-02-24T11:37:05.598Z</time>
      </trkpt>
      <trkpt lat="37.82315" lon="-2.90009">
        <ele>1111.968679</ele>
        <time>2022-02-24T11:37:21.747Z</time>
      </trkpt>
      <trkpt lat="37.82289" lon="-2.90022">
        <ele>1108.744928</ele>
        <time>2022-02-24T11:37:28.592Z</time>
      </trkpt>
      <trkpt lat="37.82258" lon="-2.9005">
        <ele>1104.230804</ele>
        <time>2022-02-24T11:37:38.150Z</time>
      </trkpt>
      <trkpt lat="37.8224" lon="-2.90055">
        <ele>1102.048096</ele>
        <time>2022-02-24T11:37:42.758Z</time>
      </trkpt>
      <trkpt lat="37.82134" lon="-2.90062">
        <ele>1092.318698</ele>
        <time>2022-02-24T11:38:09.639Z</time>
      </trkpt>
      <trkpt lat="37.82045" lon="-2.90057">
        <ele>1084.3762</ele>
        <time>2022-02-24T11:38:34.296Z</time>
      </trkpt>
      <trkpt lat="37.81896" lon="-2.90068">
        <ele>1073.220726</ele>
        <time>2022-02-24T11:39:15.781Z</time>
      </trkpt>
      <trkpt lat="37.81894" lon="-2.90105">
        <ele>1070.87323</ele>
        <time>2022-02-24T11:39:23.211Z</time>
      </trkpt>
      <trkpt lat="37.81877" lon="-2.90118">
        <ele>1067.738159</ele>
        <time>2022-02-24T11:39:28.203Z</time>
      </trkpt>
      <trkpt lat="37.81828" lon="-2.90133">
        <ele>1059.884749</ele>
        <time>2022-02-24T11:39:40.585Z</time>
      </trkpt>
      <trkpt lat="37.81698" lon="-2.9019">
        <ele>1037.100404</ele>
        <time>2022-02-24T11:40:13.039Z</time>
      </trkpt>
      <trkpt lat="37.81668" lon="-2.90197">
        <ele>1030.771882</ele>
        <time>2022-02-24T11:40:20.144Z</time>
      </trkpt>
      <trkpt lat="37.81637" lon="-2.90215">
        <ele>1023.728441</ele>
        <time>2022-02-24T11:40:28.042Z</time>
      </trkpt>
      <trkpt lat="37.81604" lon="-2.90223">
        <ele>1016.897534</ele>
        <time>2022-02-24T11:40:35.704Z</time>
      </trkpt>
      <trkpt lat="37.81537" lon="-2.90237">
        <ele>1004.080924</ele>
        <time>2022-02-24T11:40:51.458Z</time>
      </trkpt>
      <trkpt lat="37.81459" lon="-2.90292">
        <ele>991.575807</ele>
        <time>2022-02-24T11:41:12.722Z</time>
      </trkpt>
      <trkpt lat="37.814" lon="-2.903">
        <ele>983.184012</ele>
        <time>2022-02-24T11:41:28.068Z</time>
      </trkpt>
      <trkpt lat="37.81362" lon="-2.90318">
        <ele>980.388866</ele>
        <time>2022-02-24T11:41:39.010Z</time>
      </trkpt>
      <trkpt lat="37.81317" lon="-2.90357">
        <ele>978.669573</ele>
        <time>2022-02-24T11:41:55.859Z</time>
      </trkpt>
      <trkpt lat="37.81304" lon="-2.90351">
        <ele>978.236006</ele>
        <time>2022-02-24T11:42:00.179Z</time>
      </trkpt>
      <trkpt lat="37.81309" lon="-2.90306">
        <ele>977.129245</ele>
        <time>2022-02-24T11:42:12.318Z</time>
      </trkpt>
      <trkpt lat="37.81304" lon="-2.90295">
        <ele>976.821327</ele>
        <time>2022-02-24T11:42:15.975Z</time>
      </trkpt>
      <trkpt lat="37.81295" lon="-2.9029">
        <ele>976.518387</ele>
        <time>2022-02-24T11:42:19.986Z</time>
      </trkpt>
      <trkpt lat="37.81272" lon="-2.90292">
        <ele>975.788386</ele>
        <time>2022-02-24T11:42:28.296Z</time>
      </trkpt>
      <trkpt lat="37.81252" lon="-2.90309">
        <ele>975.978687</ele>
        <time>2022-02-24T11:42:37.640Z</time>
      </trkpt>
      <trkpt lat="37.81241" lon="-2.90312">
        <ele>976.219158</ele>
        <time>2022-02-24T11:42:41.652Z</time>
      </trkpt>
      <trkpt lat="37.81232" lon="-2.9031">
        <ele>976.406404</ele>
        <time>2022-02-24T11:42:44.901Z</time>
      </trkpt>
      <trkpt lat="37.81217" lon="-2.90279">
        <ele>977.022758</ele>
        <time>2022-02-24T11:42:54.977Z</time>
      </trkpt>
      <trkpt lat="37.81212" lon="-2.90279">
        <ele>977.131942</ele>
        <time>2022-02-24T11:42:56.804Z</time>
      </trkpt>
      <trkpt lat="37.81123" lon="-2.90348">
        <ele>979.317345</ele>
        <time>2022-02-24T11:43:52.834Z</time>
      </trkpt>
      <trkpt lat="37.81012" lon="-2.90379">
        <ele>986.054208</ele>
        <time>2022-02-24T11:45:08.419Z</time>
      </trkpt>
      <trkpt lat="37.80951" lon="-2.90404">
        <ele>989.847823</ele>
        <time>2022-02-24T11:45:54.068Z</time>
      </trkpt>
      <trkpt lat="37.80941" lon="-2.90415">
        <ele>990.603913</ele>
        <time>2022-02-24T11:46:04.947Z</time>
      </trkpt>
      <trkpt lat="37.80937" lon="-2.90434">
        <ele>991.341607</ele>
        <time>2022-02-24T11:46:16.737Z</time>
      </trkpt>
      <trkpt lat="37.80928" lon="-2.90449">
        <ele>992.103162</ele>
        <time>2022-02-24T11:46:28.785Z</time>
      </trkpt>
      <trkpt lat="37.80914" lon="-2.90454">
        <ele>992.817016</ele>
        <time>2022-02-24T11:46:36.936Z</time>
      </trkpt>
      <trkpt lat="37.80893" lon="-2.90448">
        <ele>993.916205</ele>
        <time>2022-02-24T11:46:52.527Z</time>
      </trkpt>
      <trkpt lat="37.80881" lon="-2.9045">
        <ele>994.493638</ele>
        <time>2022-02-24T11:46:57.923Z</time>
      </trkpt>
      <trkpt lat="37.80832" lon="-2.90475">
        <ele>997.131049</ele>
        <time>2022-02-24T11:47:27.816Z</time>
      </trkpt>
      <trkpt lat="37.80789" lon="-2.90483">
        <ele>999.256559</ele>
        <time>2022-02-24T11:47:51.480Z</time>
      </trkpt>
      <trkpt lat="37.80777" lon="-2.90481">
        <ele>999.827691</ele>
        <time>2022-02-24T11:47:56.482Z</time>
      </trkpt>
      <trkpt lat="37.80719" lon="-2.90443">
        <ele>1002.862089</ele>
        <time>2022-02-24T11:48:36.877Z</time>
      </trkpt>
      <trkpt lat="37.80702" lon="-2.90442">
        <ele>1003.645838</ele>
        <time>2022-02-24T11:48:46.148Z</time>
      </trkpt>
      <trkpt lat="37.80687" lon="-2.9046">
        <ele>1004.615112</ele>
        <time>2022-02-24T11:48:59.723Z</time>
      </trkpt>
      <trkpt lat="37.80679" lon="-2.90478">
        <ele>1005.359479</ele>
        <time>2022-02-24T11:49:09.059Z</time>
      </trkpt>
      <trkpt lat="37.80678" lon="-2.90513">
        <ele>1006.644293</ele>
        <time>2022-02-24T11:49:24.379Z</time>
      </trkpt>
      <trkpt lat="37.80686" lon="-2.90586">
        <ele>1010.230308</ele>
        <time>2022-02-24T11:49:59.703Z</time>
      </trkpt>
      <trkpt lat="37.80668" lon="-2.90648">
        <ele>1013.735024</ele>
        <time>2022-02-24T11:50:33.887Z</time>
      </trkpt>
      <trkpt lat="37.80647" lon="-2.90691">
        <ele>1016.461163</ele>
        <time>2022-02-24T11:51:01.920Z</time>
      </trkpt>
      <trkpt lat="37.80616" lon="-2.90798">
        <ele>1021.713993</ele>
        <time>2022-02-24T11:51:58.374Z</time>
      </trkpt>
      <trkpt lat="37.80614" lon="-2.9082">
        <ele>1022.529017</ele>
        <time>2022-02-24T11:52:07.444Z</time>
      </trkpt>
      <trkpt lat="37.80625" lon="-2.90872">
        <ele>1024.570697</ele>
        <time>2022-02-24T11:52:31.236Z</time>
      </trkpt>
      <trkpt lat="37.8062" lon="-2.90885">
        <ele>1025.151246</ele>
        <time>2022-02-24T11:52:38.392Z</time>
      </trkpt>
      <trkpt lat="37.80601" lon="-2.90905">
        <ele>1026.302004</ele>
        <time>2022-02-24T11:52:49.865Z</time>
      </trkpt>
      <trkpt lat="37.8059" lon="-2.90906">
        <ele>1026.856291</ele>
        <time>2022-02-24T11:52:56.113Z</time>
      </trkpt>
      <trkpt lat="37.8058" lon="-2.909">
        <ele>1027.365647</ele>
        <time>2022-02-24T11:53:00.694Z</time>
      </trkpt>
      <trkpt lat="37.80558" lon="-2.90862">
        <ele>1028.189834</ele>
        <time>2022-02-24T11:53:16.291Z</time>
      </trkpt>
      <trkpt lat="37.80545" lon="-2.90827">
        <ele>1028.063941</ele>
        <time>2022-02-24T11:53:26.843Z</time>
      </trkpt>
      <trkpt lat="37.80513" lon="-2.90812">
        <ele>1027.919997</ele>
        <time>2022-02-24T11:53:37.437Z</time>
      </trkpt>
      <trkpt lat="37.80508" lon="-2.90801">
        <ele>1027.878899</ele>
        <time>2022-02-24T11:53:40.177Z</time>
      </trkpt>
      <trkpt lat="37.8051" lon="-2.90737">
        <ele>1027.66558</ele>
        <time>2022-02-24T11:53:53.629Z</time>
      </trkpt>
      <trkpt lat="37.80546" lon="-2.90663">
        <ele>1025.680453</ele>
        <time>2022-02-24T11:54:09.680Z</time>
      </trkpt>
      <trkpt lat="37.80543" lon="-2.90646">
        <ele>1024.928249</ele>
        <time>2022-02-24T11:54:12.569Z</time>
      </trkpt>
      <trkpt lat="37.80531" lon="-2.90634">
        <ele>1024.08122</ele>
        <time>2022-02-24T11:54:15.874Z</time>
      </trkpt>
      <trkpt lat="37.80515" lon="-2.90628">
        <ele>1023.097614</ele>
        <time>2022-02-24T11:54:19.608Z</time>
      </trkpt>
      <trkpt lat="37.80442" lon="-2.90625">
        <ele>1018.985927</ele>
        <time>2022-02-24T11:54:34.654Z</time>
      </trkpt>
      <trkpt lat="37.80318" lon="-2.90638">
        <ele>1010.743371</ele>
        <time>2022-02-24T11:55:00.285Z</time>
      </trkpt>
      <trkpt lat="37.80305" lon="-2.90635">
        <ele>1009.870277</ele>
        <time>2022-02-24T11:55:02.871Z</time>
      </trkpt>
      <trkpt lat="37.80286" lon="-2.90626">
        <ele>1008.454739</ele>
        <time>2022-02-24T11:55:07.201Z</time>
      </trkpt>
      <trkpt lat="37.80222" lon="-2.90588">
        <ele>1004.248626</ele>
        <time>2022-02-24T11:55:22.164Z</time>
      </trkpt>
      <trkpt lat="37.80208" lon="-2.90586">
        <ele>1003.73985</ele>
        <time>2022-02-24T11:55:25.177Z</time>
      </trkpt>
      <trkpt lat="37.80184" lon="-2.90586">
        <ele>1002.885085</ele>
        <time>2022-02-24T11:55:30.437Z</time>
      </trkpt>
      <trkpt lat="37.8012" lon="-2.90604">
        <ele>1000.522317</ele>
        <time>2022-02-24T11:55:45.503Z</time>
      </trkpt>
      <trkpt lat="37.80048" lon="-2.90627">
        <ele>998.337524</ele>
        <time>2022-02-24T11:56:04.278Z</time>
      </trkpt>
      <trkpt lat="37.79953" lon="-2.9064">
        <ele>997.547869</ele>
        <time>2022-02-24T11:56:30.566Z</time>
      </trkpt>
      <trkpt lat="37.79914" lon="-2.90661">
        <ele>997.201993</ele>
        <time>2022-02-24T11:56:42.417Z</time>
      </trkpt>
      <trkpt lat="37.79899" lon="-2.90663">
        <ele>997.082773</ele>
        <time>2022-02-24T11:56:46.538Z</time>
      </trkpt>
      <trkpt lat="37.79858" lon="-2.90675">
        <ele>996.938611</ele>
        <time>2022-02-24T11:56:58.302Z</time>
      </trkpt>
      <trkpt lat="37.79701" lon="-2.90695">
        <ele>996.658109</ele>
        <time>2022-02-24T11:57:43.890Z</time>
      </trkpt>
      <trkpt lat="37.79668" lon="-2.90707">
        <ele>996.684896</ele>
        <time>2022-02-24T11:57:54.005Z</time>
      </trkpt>
      <trkpt lat="37.79588" lon="-2.90718">
        <ele>996.7482</ele>
        <time>2022-02-24T11:58:18.183Z</time>
      </trkpt>
      <trkpt lat="37.79451" lon="-2.90778">
        <ele>996.62212</ele>
        <time>2022-02-24T11:59:01.140Z</time>
      </trkpt>
      <trkpt lat="37.79411" lon="-2.90791">
        <ele>996.545845</ele>
        <time>2022-02-24T11:59:12.555Z</time>
      </trkpt>
      <trkpt lat="37.79205" lon="-2.90819">
        <ele>995.843565</ele>
        <time>2022-02-24T12:00:10.691Z</time>
      </trkpt>
      <trkpt lat="37.79031" lon="-2.90804">
        <ele>995.725955</ele>
        <time>2022-02-24T12:01:01.831Z</time>
      </trkpt>
      <trkpt lat="37.78984" lon="-2.9083">
        <ele>995.649785</ele>
        <time>2022-02-24T12:01:17.122Z</time>
      </trkpt>
      <trkpt lat="37.78947" lon="-2.90851">
        <ele>995.53831</ele>
        <time>2022-02-24T12:01:28.923Z</time>
      </trkpt>
      <trkpt lat="37.7889" lon="-2.90884">
        <ele>995.363456</ele>
        <time>2022-02-24T12:01:46.860Z</time>
      </trkpt>
      <trkpt lat="37.78841" lon="-2.90903">
        <ele>995.2227</ele>
        <time>2022-02-24T12:02:01.018Z</time>
      </trkpt>
      <trkpt lat="37.7866" lon="-2.90938">
        <ele>993.827234</ele>
        <time>2022-02-24T12:02:50.526Z</time>
      </trkpt>
      <trkpt lat="37.78545" lon="-2.90976">
        <ele>994.087785</ele>
        <time>2022-02-24T12:03:24.085Z</time>
      </trkpt>
      <trkpt lat="37.7843" lon="-2.91065">
        <ele>996.307962</ele>
        <time>2022-02-24T12:04:14.098Z</time>
      </trkpt>
      <trkpt lat="37.78346" lon="-2.91142">
        <ele>999.147627</ele>
        <time>2022-02-24T12:05:02.485Z</time>
      </trkpt>
      <trkpt lat="37.78234" lon="-2.91193">
        <ele>1003.578739</ele>
        <time>2022-02-24T12:06:02.205Z</time>
      </trkpt>
      <trkpt lat="37.78225" lon="-2.91202">
        <ele>1004.01121</ele>
        <time>2022-02-24T12:06:07.581Z</time>
      </trkpt>
      <trkpt lat="37.78182" lon="-2.91218">
        <ele>1005.691676</ele>
        <time>2022-02-24T12:06:28.794Z</time>
      </trkpt>
      <trkpt lat="37.78132" lon="-2.91282">
        <ele>1007.144304</ele>
        <time>2022-02-24T12:06:59.634Z</time>
      </trkpt>
      <trkpt lat="37.78094" lon="-2.91322">
        <ele>1008.088559</ele>
        <time>2022-02-24T12:07:18.978Z</time>
      </trkpt>
      <trkpt lat="37.78092" lon="-2.91334">
        <ele>1008.280088</ele>
        <time>2022-02-24T12:07:22.573Z</time>
      </trkpt>
      <trkpt lat="37.78083" lon="-2.91342">
        <ele>1008.493949</ele>
        <time>2022-02-24T12:07:26.587Z</time>
      </trkpt>
      <trkpt lat="37.78069" lon="-2.91343">
        <ele>1008.773975</ele>
        <time>2022-02-24T12:07:31.464Z</time>
      </trkpt>
      <trkpt lat="37.78036" lon="-2.91317">
        <ele>1009.171716</ele>
        <time>2022-02-24T12:07:43.675Z</time>
      </trkpt>
      <trkpt lat="37.78002" lon="-2.91321">
        <ele>1008.618767</ele>
        <time>2022-02-24T12:07:54.002Z</time>
      </trkpt>
      <trkpt lat="37.77968" lon="-2.91347">
        <ele>1007.981434</ele>
        <time>2022-02-24T12:08:04.843Z</time>
      </trkpt>
      <trkpt lat="37.77951" lon="-2.91371">
        <ele>1007.575237</ele>
        <time>2022-02-24T12:08:11.191Z</time>
      </trkpt>
      <trkpt lat="37.77924" lon="-2.91406">
        <ele>1006.957487</ele>
        <time>2022-02-24T12:08:20.479Z</time>
      </trkpt>
      <trkpt lat="37.77884" lon="-2.91433">
        <ele>1005.941226</ele>
        <time>2022-02-24T12:08:31.051Z</time>
      </trkpt>
      <trkpt lat="37.77767" lon="-2.91495">
        <ele>1001.369091</ele>
        <time>2022-02-24T12:08:59.756Z</time>
      </trkpt>
      <trkpt lat="37.77762" lon="-2.9151">
        <ele>1000.917848</ele>
        <time>2022-02-24T12:09:02.637Z</time>
      </trkpt>
      <trkpt lat="37.77763" lon="-2.91527">
        <ele>1000.418438</ele>
        <time>2022-02-24T12:09:05.889Z</time>
      </trkpt>
      <trkpt lat="37.77772" lon="-2.91545">
        <ele>999.995322</ele>
        <time>2022-02-24T12:09:09.646Z</time>
      </trkpt>
      <trkpt lat="37.77803" lon="-2.91572">
        <ele>1000.230647</ele>
        <time>2022-02-24T12:09:18.763Z</time>
      </trkpt>
      <trkpt lat="37.77808" lon="-2.91591">
        <ele>1000.333458</ele>
        <time>2022-02-24T12:09:23.246Z</time>
      </trkpt>
      <trkpt lat="37.77808" lon="-2.91613">
        <ele>1000.445209</ele>
        <time>2022-02-24T12:09:28.302Z</time>
      </trkpt>
      <trkpt lat="37.77781" lon="-2.91627">
        <ele>1000.632189</ele>
        <time>2022-02-24T12:09:38.977Z</time>
      </trkpt>
      <trkpt lat="37.77729" lon="-2.91631">
        <ele>1000.961027</ele>
        <time>2022-02-24T12:10:00.679Z</time>
      </trkpt>
      <trkpt lat="37.77699" lon="-2.91644">
        <ele>1001.394098</ele>
        <time>2022-02-24T12:10:15.166Z</time>
      </trkpt>
      <trkpt lat="37.7764" lon="-2.91657">
        <ele>1003.449164</ele>
        <time>2022-02-24T12:10:43.616Z</time>
      </trkpt>
      <trkpt lat="37.77583" lon="-2.91706">
        <ele>1005.84663</ele>
        <time>2022-02-24T12:11:17.572Z</time>
      </trkpt>
      <trkpt lat="37.77452" lon="-2.91791">
        <ele>1010.206661</ele>
        <time>2022-02-24T12:12:22.554Z</time>
      </trkpt>
      <trkpt lat="37.77428" lon="-2.91819">
        <ele>1011.110655</ele>
        <time>2022-02-24T12:12:35.479Z</time>
      </trkpt>
      <trkpt lat="37.77339" lon="-2.9187">
        <ele>1013.895431</ele>
        <time>2022-02-24T12:13:16.297Z</time>
      </trkpt>
      <trkpt lat="37.77327" lon="-2.91886">
        <ele>1014.393974</ele>
        <time>2022-02-24T12:13:24.075Z</time>
      </trkpt>
      <trkpt lat="37.77322" lon="-2.91905">
        <ele>1014.851787</ele>
        <time>2022-02-24T12:13:30.827Z</time>
      </trkpt>
      <trkpt lat="37.77324" lon="-2.91924">
        <ele>1015.307382</ele>
        <time>2022-02-24T12:13:38.035Z</time>
      </trkpt>
      <trkpt lat="37.77344" lon="-2.91963">
        <ele>1016.382288</ele>
        <time>2022-02-24T12:13:54.334Z</time>
      </trkpt>
      <trkpt lat="37.77366" lon="-2.92039">
        <ele>1017.936655</ele>
        <time>2022-02-24T12:14:24.646Z</time>
      </trkpt>
      <trkpt lat="37.77385" lon="-2.92074">
        <ele>1018.473063</ele>
        <time>2022-02-24T12:14:38.603Z</time>
      </trkpt>
      <trkpt lat="37.77428" lon="-2.92124">
        <ele>1019.414204</ele>
        <time>2022-02-24T12:15:01.624Z</time>
      </trkpt>
      <trkpt lat="37.7743" lon="-2.92138">
        <ele>1019.598791</ele>
        <time>2022-02-24T12:15:05.141Z</time>
      </trkpt>
      <trkpt lat="37.77416" lon="-2.92158">
        <ele>1019.936421</ele>
        <time>2022-02-24T12:15:12.568Z</time>
      </trkpt>
      <trkpt lat="37.77383" lon="-2.92143">
        <ele>1020.372662</ele>
        <time>2022-02-24T12:15:25.510Z</time>
      </trkpt>
      <trkpt lat="37.77345" lon="-2.92097">
        <ele>1019.235385</ele>
        <time>2022-02-24T12:15:43.250Z</time>
      </trkpt>
      <trkpt lat="37.77302" lon="-2.92033">
        <ele>1017.797246</ele>
        <time>2022-02-24T12:16:04.534Z</time>
      </trkpt>
      <trkpt lat="37.77262" lon="-2.92015">
        <ele>1016.877051</ele>
        <time>2022-02-24T12:16:17.190Z</time>
      </trkpt>
      <trkpt lat="37.77214" lon="-2.92001">
        <ele>1015.588148</ele>
        <time>2022-02-24T12:16:32.239Z</time>
      </trkpt>
      <trkpt lat="37.77142" lon="-2.91937">
        <ele>1013.13628</ele>
        <time>2022-02-24T12:16:59.449Z</time>
      </trkpt>
      <trkpt lat="37.77118" lon="-2.91924">
        <ele>1012.416186</ele>
        <time>2022-02-24T12:17:07.675Z</time>
      </trkpt>
      <trkpt lat="37.77089" lon="-2.91889">
        <ele>1011.416768</ele>
        <time>2022-02-24T12:17:20.693Z</time>
      </trkpt>
      <trkpt lat="37.76966" lon="-2.9171">
        <ele>1009.156593</ele>
        <time>2022-02-24T12:18:24.970Z</time>
      </trkpt>
      <trkpt lat="37.7678" lon="-2.91443">
        <ele>1006.847588</ele>
        <time>2022-02-24T12:20:04.679Z</time>
      </trkpt>
      <trkpt lat="37.7645" lon="-2.91042">
        <ele>998.5697</ele>
        <time>2022-02-24T12:22:34.449Z</time>
      </trkpt>
      <trkpt lat="37.76398" lon="-2.90982">
        <ele>996.80479</ele>
        <time>2022-02-24T12:22:57.354Z</time>
      </trkpt>
      <trkpt lat="37.76344" lon="-2.90956">
        <ele>995.346826</ele>
        <time>2022-02-24T12:23:15.979Z</time>
      </trkpt>
      <trkpt lat="37.76187" lon="-2.90883">
        <ele>989.341222</ele>
        <time>2022-02-24T12:24:04.861Z</time>
      </trkpt>
      <trkpt lat="37.76135" lon="-2.90865">
        <ele>988.63468</ele>
        <time>2022-02-24T12:24:22.009Z</time>
      </trkpt>
      <trkpt lat="37.76114" lon="-2.90857">
        <ele>988.948274</ele>
        <time>2022-02-24T12:24:29.356Z</time>
      </trkpt>
      <trkpt lat="37.76085" lon="-2.91053">
        <ele>991.703604</ele>
        <time>2022-02-24T12:25:25.753Z</time>
      </trkpt>
      <trkpt lat="37.7606" lon="-2.91103">
        <ele>993.375981</ele>
        <time>2022-02-24T12:25:50.780Z</time>
      </trkpt>
      <trkpt lat="37.75983" lon="-2.91239">
        <ele>997.158591</ele>
        <time>2022-02-24T12:26:43.990Z</time>
      </trkpt>
      <trkpt lat="37.75884" lon="-2.91389">
        <ele>996.152411</ele>
        <time>2022-02-24T12:27:13.264Z</time>
      </trkpt>
      <trkpt lat="37.75838" lon="-2.91457">
        <ele>994.658908</ele>
        <time>2022-02-24T12:27:25.990Z</time>
      </trkpt>
      <trkpt lat="37.75829" lon="-2.91471">
        <ele>994.330051</ele>
        <time>2022-02-24T12:27:28.624Z</time>
      </trkpt>
      <trkpt lat="37.75808" lon="-2.91501">
        <ele>993.650035</ele>
        <time>2022-02-24T12:27:34.217Z</time>
      </trkpt>
      <trkpt lat="37.75799" lon="-2.91513">
        <ele>993.368691</ele>
        <time>2022-02-24T12:27:36.491Z</time>
      </trkpt>
      <trkpt lat="37.75778" lon="-2.91534">
        <ele>992.787305</ele>
        <time>2022-02-24T12:27:41.206Z</time>
      </trkpt>
      <trkpt lat="37.75756" lon="-2.91548">
        <ele>992.237464</ele>
        <time>2022-02-24T12:27:45.717Z</time>
      </trkpt>
      <trkpt lat="37.75132" lon="-2.91679">
        <ele>983.12515</ele>
        <time>2022-02-24T12:29:46.945Z</time>
      </trkpt>
      <trkpt lat="37.74972" lon="-2.91713">
        <ele>981.253188</ele>
        <time>2022-02-24T12:30:18.209Z</time>
      </trkpt>
      <trkpt lat="37.74671" lon="-2.91777">
        <ele>979.387733</ele>
        <time>2022-02-24T12:31:21.714Z</time>
      </trkpt>
      <trkpt lat="37.74252" lon="-2.91864">
        <ele>979.697385</ele>
        <time>2022-02-24T12:32:57.601Z</time>
      </trkpt>
      <trkpt lat="37.74092" lon="-2.91898">
        <ele>980.929638</ele>
        <time>2022-02-24T12:33:37.610Z</time>
      </trkpt>
      <trkpt lat="37.74085" lon="-2.91899">
        <ele>981.020208</ele>
        <time>2022-02-24T12:33:39.525Z</time>
      </trkpt>
      <trkpt lat="37.73847" lon="-2.91949">
        <ele>984.683814</ele>
        <time>2022-02-24T12:34:57.235Z</time>
      </trkpt>
      <trkpt lat="37.73701" lon="-2.91981">
        <ele>985.051538</ele>
        <time>2022-02-24T12:35:34.690Z</time>
      </trkpt>
      <trkpt lat="37.73685" lon="-2.91984">
        <ele>984.998284</ele>
        <time>2022-02-24T12:35:38.122Z</time>
      </trkpt>
      <trkpt lat="37.73004" lon="-2.92128">
        <ele>972.25971</ele>
        <time>2022-02-24T12:37:45.392Z</time>
      </trkpt>
      <trkpt lat="37.7292" lon="-2.92146">
        <ele>970.286141</ele>
        <time>2022-02-24T12:38:00.075Z</time>
      </trkpt>
      <trkpt lat="37.71766" lon="-2.92387">
        <ele>949.248146</ele>
        <time>2022-02-24T12:41:38.089Z</time>
      </trkpt>
      <trkpt lat="37.71508" lon="-2.92442">
        <ele>943.679812</ele>
        <time>2022-02-24T12:42:25.872Z</time>
      </trkpt>
      <trkpt lat="37.71463" lon="-2.92448">
        <ele>942.236327</ele>
        <time>2022-02-24T12:42:33.843Z</time>
      </trkpt>
      <trkpt lat="37.71314" lon="-2.92455">
        <ele>937.035596</ele>
        <time>2022-02-24T12:42:58.823Z</time>
      </trkpt>
      <trkpt lat="37.70867" lon="-2.92446">
        <ele>916.451144</ele>
        <time>2022-02-24T12:44:10.473Z</time>
      </trkpt>
      <trkpt lat="37.7086" lon="-2.92543">
        <ele>913.045612</ele>
        <time>2022-02-24T12:44:23.436Z</time>
      </trkpt>
      <trkpt lat="37.70856" lon="-2.92733">
        <ele>908.043629</ele>
        <time>2022-02-24T12:44:50.185Z</time>
      </trkpt>
      <trkpt lat="37.70871" lon="-2.92896">
        <ele>903.397812</ele>
        <time>2022-02-24T12:45:14.408Z</time>
      </trkpt>
      <trkpt lat="37.70853" lon="-2.92973">
        <ele>901.047581</ele>
        <time>2022-02-24T12:45:25.174Z</time>
      </trkpt>
      <trkpt lat="37.7084" lon="-2.93015">
        <ele>899.52718</ele>
        <time>2022-02-24T12:45:31.134Z</time>
      </trkpt>
      <trkpt lat="37.70825" lon="-2.93036">
        <ele>898.184874</ele>
        <time>2022-02-24T12:45:34.660Z</time>
      </trkpt>
      <trkpt lat="37.70808" lon="-2.9306">
        <ele>896.607956</ele>
        <time>2022-02-24T12:45:38.929Z</time>
      </trkpt>
      <trkpt lat="37.70808" lon="-2.9307">
        <ele>896.125674</ele>
        <time>2022-02-24T12:45:40.148Z</time>
      </trkpt>
      <trkpt lat="37.7079" lon="-2.93113">
        <ele>893.74157</ele>
        <time>2022-02-24T12:45:46.337Z</time>
      </trkpt>
      <trkpt lat="37.7078" lon="-2.93125">
        <ele>892.90853</ele>
        <time>2022-02-24T12:45:48.498Z</time>
      </trkpt>
      <trkpt lat="37.70765" lon="-2.93133">
        <ele>891.892385</ele>
        <time>2022-02-24T12:45:51.042Z</time>
      </trkpt>
      <trkpt lat="37.70734" lon="-2.93152">
        <ele>889.751032</ele>
        <time>2022-02-24T12:45:56.513Z</time>
      </trkpt>
      <trkpt lat="37.7072" lon="-2.93174">
        <ele>888.42054</ele>
        <time>2022-02-24T12:46:00.054Z</time>
      </trkpt>
      <trkpt lat="37.70709" lon="-2.93208">
        <ele>886.727699</ele>
        <time>2022-02-24T12:46:04.744Z</time>
      </trkpt>
      <trkpt lat="37.70706" lon="-2.93253">
        <ele>884.669358</ele>
        <time>2022-02-24T12:46:10.598Z</time>
      </trkpt>
      <trkpt lat="37.70705" lon="-2.93279">
        <ele>883.463277</ele>
        <time>2022-02-24T12:46:14.032Z</time>
      </trkpt>
      <trkpt lat="37.70657" lon="-2.93295">
        <ele>880.580403</ele>
        <time>2022-02-24T12:46:22.328Z</time>
      </trkpt>
      <trkpt lat="37.70627" lon="-2.93303">
        <ele>878.805384</ele>
        <time>2022-02-24T12:46:27.334Z</time>
      </trkpt>
      <trkpt lat="37.70561" lon="-2.93335">
        <ele>874.027809</ele>
        <time>2022-02-24T12:46:38.768Z</time>
      </trkpt>
      <trkpt lat="37.70553" lon="-2.93339">
        <ele>873.498858</ele>
        <time>2022-02-24T12:46:40.040Z</time>
      </trkpt>
      <trkpt lat="37.70523" lon="-2.93366">
        <ele>870.961954</ele>
        <time>2022-02-24T12:46:46.069Z</time>
      </trkpt>
      <trkpt lat="37.70484" lon="-2.93444">
        <ele>865.986588</ele>
        <time>2022-02-24T12:46:57.354Z</time>
      </trkpt>
      <trkpt lat="37.70464" lon="-2.93492">
        <ele>862.857687</ele>
        <time>2022-02-24T12:47:03.941Z</time>
      </trkpt>
      <trkpt lat="37.70436" lon="-2.93493">
        <ele>860.825584</ele>
        <time>2022-02-24T12:47:08.243Z</time>
      </trkpt>
      <trkpt lat="37.70423" lon="-2.93529">
        <ele>858.589947</ele>
        <time>2022-02-24T12:47:13.045Z</time>
      </trkpt>
      <trkpt lat="37.70415" lon="-2.93528">
        <ele>858.006796</ele>
        <time>2022-02-24T12:47:14.268Z</time>
      </trkpt>
      <trkpt lat="37.70408" lon="-2.93546">
        <ele>856.865995</ele>
        <time>2022-02-24T12:47:16.780Z</time>
      </trkpt>
      <trkpt lat="37.70388" lon="-2.93545">
        <ele>855.399776</ele>
        <time>2022-02-24T12:47:19.983Z</time>
      </trkpt>
      <trkpt lat="37.70383" lon="-2.93563">
        <ele>854.286816</ele>
        <time>2022-02-24T12:47:22.466Z</time>
      </trkpt>
      <trkpt lat="37.70366" lon="-2.93603">
        <ele>852.441259</ele>
        <time>2022-02-24T12:47:28.290Z</time>
      </trkpt>
      <trkpt lat="37.70326" lon="-2.93662">
        <ele>850.086435</ele>
        <time>2022-02-24T12:47:38.349Z</time>
      </trkpt>
      <trkpt lat="37.70307" lon="-2.93692">
        <ele>848.906116</ele>
        <time>2022-02-24T12:47:43.520Z</time>
      </trkpt>
      <trkpt lat="37.70273" lon="-2.9375">
        <ele>846.680805</ele>
        <time>2022-02-24T12:47:53.870Z</time>
      </trkpt>
      <trkpt lat="37.70245" lon="-2.93797">
        <ele>845.999927</ele>
        <time>2022-02-24T12:48:02.953Z</time>
      </trkpt>
      <trkpt lat="37.70242" lon="-2.93796">
        <ele>845.967285</ele>
        <time>2022-02-24T12:48:03.665Z</time>
      </trkpt>
      <trkpt lat="37.70214" lon="-2.93848">
        <ele>845.485619</ele>
        <time>2022-02-24T12:48:13.597Z</time>
      </trkpt>
      <trkpt lat="37.70207" lon="-2.93906">
        <ele>845.035715</ele>
        <time>2022-02-24T12:48:22.820Z</time>
      </trkpt>
      <trkpt lat="37.70187" lon="-2.93947">
        <ele>844.673029</ele>
        <time>2022-02-24T12:48:30.607Z</time>
      </trkpt>
      <trkpt lat="37.70152" lon="-2.93995">
        <ele>844.324231</ele>
        <time>2022-02-24T12:48:42.020Z</time>
      </trkpt>
      <trkpt lat="37.70122" lon="-2.94019">
        <ele>844.096768</ele>
        <time>2022-02-24T12:48:49.644Z</time>
      </trkpt>
      <trkpt lat="37.70048" lon="-2.94061">
        <ele>843.572359</ele>
        <time>2022-02-24T12:49:06.144Z</time>
      </trkpt>
      <trkpt lat="37.69934" lon="-2.94113">
        <ele>842.26771</ele>
        <time>2022-02-24T12:49:29.771Z</time>
      </trkpt>
      <trkpt lat="37.69869" lon="-2.94134">
        <ele>841.502327</ele>
        <time>2022-02-24T12:49:42.844Z</time>
      </trkpt>
      <trkpt lat="37.69846" lon="-2.94136">
        <ele>841.191515</ele>
        <time>2022-02-24T12:49:47.355Z</time>
      </trkpt>
      <trkpt lat="37.69781" lon="-2.94145">
        <ele>840.237629</ele>
        <time>2022-02-24T12:50:00.182Z</time>
      </trkpt>
      <trkpt lat="37.69764" lon="-2.9415">
        <ele>839.976817</ele>
        <time>2022-02-24T12:50:03.655Z</time>
      </trkpt>
      <trkpt lat="37.69627" lon="-2.94193">
        <ele>837.355652</ele>
        <time>2022-02-24T12:50:29.997Z</time>
      </trkpt>
      <trkpt lat="37.69614" lon="-2.94218">
        <ele>836.791676</ele>
        <time>2022-02-24T12:50:34.114Z</time>
      </trkpt>
      <trkpt lat="37.69611" lon="-2.94234">
        <ele>836.472261</ele>
        <time>2022-02-24T12:50:36.496Z</time>
      </trkpt>
      <trkpt lat="37.69601" lon="-2.9425">
        <ele>836.080799</ele>
        <time>2022-02-24T12:50:39.292Z</time>
      </trkpt>
      <trkpt lat="37.69586" lon="-2.94257">
        <ele>835.68991</ele>
        <time>2022-02-24T12:50:42.199Z</time>
      </trkpt>
      <trkpt lat="37.6957" lon="-2.94253">
        <ele>835.296549</ele>
        <time>2022-02-24T12:50:44.982Z</time>
      </trkpt>
      <trkpt lat="37.69557" lon="-2.94238">
        <ele>834.869429</ele>
        <time>2022-02-24T12:50:48.092Z</time>
      </trkpt>
      <trkpt lat="37.69499" lon="-2.94284">
        <ele>833.096907</ele>
        <time>2022-02-24T12:50:59.828Z</time>
      </trkpt>
      <trkpt lat="37.69406" lon="-2.94354">
        <ele>830.235456</ele>
        <time>2022-02-24T12:51:18.821Z</time>
      </trkpt>
      <trkpt lat="37.69352" lon="-2.94385">
        <ele>829.110199</ele>
        <time>2022-02-24T12:51:29.554Z</time>
      </trkpt>
      <trkpt lat="37.69105" lon="-2.94483">
        <ele>825.783408</ele>
        <time>2022-02-24T12:52:20.242Z</time>
      </trkpt>
      <trkpt lat="37.68994" lon="-2.94532">
        <ele>824.794853</ele>
        <time>2022-02-24T12:52:44.006Z</time>
      </trkpt>
      <trkpt lat="37.68948" lon="-2.94561">
        <ele>824.470802</ele>
        <time>2022-02-24T12:52:54.680Z</time>
      </trkpt>
      <trkpt lat="37.68897" lon="-2.94602">
        <ele>824.095954</ele>
        <time>2022-02-24T12:53:07.134Z</time>
      </trkpt>
      <trkpt lat="37.68851" lon="-2.94654">
        <ele>823.809686</ele>
        <time>2022-02-24T12:53:19.985Z</time>
      </trkpt>
      <trkpt lat="37.68842" lon="-2.94644">
        <ele>823.759765</ele>
        <time>2022-02-24T12:53:22.620Z</time>
      </trkpt>
      <trkpt lat="37.68592" lon="-2.94851">
        <ele>822.576741</ele>
        <time>2022-02-24T12:54:28.955Z</time>
      </trkpt>
      <trkpt lat="37.68312" lon="-2.94977">
        <ele>821.788449</ele>
        <time>2022-02-24T12:55:34.082Z</time>
      </trkpt>
      <trkpt lat="37.68237" lon="-2.94986">
        <ele>821.960362</ele>
        <time>2022-02-24T12:55:54.553Z</time>
      </trkpt>
      <trkpt lat="37.6819" lon="-2.94992">
        <ele>822.524782</ele>
        <time>2022-02-24T12:56:08.344Z</time>
      </trkpt>
      <trkpt lat="37.6807" lon="-2.95038">
        <ele>824.019988</ele>
        <time>2022-02-24T12:56:46.082Z</time>
      </trkpt>
      <trkpt lat="37.68016" lon="-2.95037">
        <ele>824.525418</ele>
        <time>2022-02-24T12:57:01.616Z</time>
      </trkpt>
      <trkpt lat="37.67831" lon="-2.95143">
        <ele>825.915815</ele>
        <time>2022-02-24T12:57:56.509Z</time>
      </trkpt>
      <trkpt lat="37.67767" lon="-2.95161">
        <ele>826.126184</ele>
        <time>2022-02-24T12:58:12.322Z</time>
      </trkpt>
      <trkpt lat="37.67706" lon="-2.95178">
        <ele>825.969655</ele>
        <time>2022-02-24T12:58:26.441Z</time>
      </trkpt>
      <trkpt lat="37.67471" lon="-2.9532">
        <ele>823.5058</ele>
        <time>2022-02-24T12:59:20.361Z</time>
      </trkpt>
      <trkpt lat="37.6719" lon="-2.95284">
        <ele>820.87012</ele>
        <time>2022-02-24T13:00:18.816Z</time>
      </trkpt>
      <trkpt lat="37.66985" lon="-2.9528">
        <ele>820.580505</ele>
        <time>2022-02-24T13:01:06.106Z</time>
      </trkpt>
      <trkpt lat="37.66879" lon="-2.9529">
        <ele>820.712019</ele>
        <time>2022-02-24T13:01:32.462Z</time>
      </trkpt>
      <trkpt lat="37.66408" lon="-2.95241">
        <ele>820.562511</ele>
        <time>2022-02-24T13:03:20.710Z</time>
      </trkpt>
      <trkpt lat="37.66391" lon="-2.95313">
        <ele>820.6101</ele>
        <time>2022-02-24T13:03:34.535Z</time>
      </trkpt>
      <trkpt lat="37.66378" lon="-2.95336">
        <ele>820.629389</ele>
        <time>2022-02-24T13:03:39.982Z</time>
      </trkpt>
      <trkpt lat="37.66242" lon="-2.95396">
        <ele>821.167464</ele>
        <time>2022-02-24T13:04:15.066Z</time>
      </trkpt>
      <trkpt lat="37.66221" lon="-2.9541">
        <ele>821.256696</ele>
        <time>2022-02-24T13:04:20.902Z</time>
      </trkpt>
      <trkpt lat="37.6616" lon="-2.95463">
        <ele>821.199032</ele>
        <time>2022-02-24T13:04:38.457Z</time>
      </trkpt>
      <trkpt lat="37.66131" lon="-2.955">
        <ele>821.132248</ele>
        <time>2022-02-24T13:04:47.436Z</time>
      </trkpt>
      <trkpt lat="37.66106" lon="-2.95544">
        <ele>821.063983</ele>
        <time>2022-02-24T13:04:56.256Z</time>
      </trkpt>
      <trkpt lat="37.66098" lon="-2.95563">
        <ele>821.036011</ele>
        <time>2022-02-24T13:04:59.781Z</time>
      </trkpt>
      <trkpt lat="37.66092" lon="-2.95598">
        <ele>820.944865</ele>
        <time>2022-02-24T13:05:05.580Z</time>
      </trkpt>
      <trkpt lat="37.66094" lon="-2.9581">
        <ele>820.072711</ele>
        <time>2022-02-24T13:05:40.352Z</time>
      </trkpt>
      <trkpt lat="37.66087" lon="-2.95869">
        <ele>820.275435</ele>
        <time>2022-02-24T13:05:50.620Z</time>
      </trkpt>
      <trkpt lat="37.65941" lon="-2.9606">
        <ele>821.99953</ele>
        <time>2022-02-24T13:06:45.118Z</time>
      </trkpt>
      <trkpt lat="37.65928" lon="-2.96063">
        <ele>822.193319</ele>
        <time>2022-02-24T13:06:49.089Z</time>
      </trkpt>
      <trkpt lat="37.65875" lon="-2.9615">
        <ele>823.490913</ele>
        <time>2022-02-24T13:07:17.008Z</time>
      </trkpt>
      <trkpt lat="37.65703" lon="-2.96346">
        <ele>829.255027</ele>
        <time>2022-02-24T13:08:40.139Z</time>
      </trkpt>
      <trkpt lat="37.65634" lon="-2.96395">
        <ele>830.904021</ele>
        <time>2022-02-24T13:09:06.005Z</time>
      </trkpt>
      <trkpt lat="37.65595" lon="-2.96432">
        <ele>831.909946</ele>
        <time>2022-02-24T13:09:20.611Z</time>
      </trkpt>
      <trkpt lat="37.65565" lon="-2.96444">
        <ele>832.395379</ele>
        <time>2022-02-24T13:09:29.706Z</time>
      </trkpt>
      <trkpt lat="37.65502" lon="-2.9645">
        <ele>833.330072</ele>
        <time>2022-02-24T13:09:47.784Z</time>
      </trkpt>
      <trkpt lat="37.65456" lon="-2.96436">
        <ele>834.016435</ele>
        <time>2022-02-24T13:10:01.958Z</time>
      </trkpt>
      <trkpt lat="37.65392" lon="-2.96449">
        <ele>834.938649</ele>
        <time>2022-02-24T13:10:21.622Z</time>
      </trkpt>
      <trkpt lat="37.65379" lon="-2.96462">
        <ele>835.165386</ele>
        <time>2022-02-24T13:10:26.740Z</time>
      </trkpt>
      <trkpt lat="37.65355" lon="-2.96496">
        <ele>835.646481</ele>
        <time>2022-02-24T13:10:37.440Z</time>
      </trkpt>
      <trkpt lat="37.65211" lon="-2.96581">
        <ele>837.539364</ele>
        <time>2022-02-24T13:11:22.235Z</time>
      </trkpt>
      <trkpt lat="37.65182" lon="-2.96611">
        <ele>837.891799</ele>
        <time>2022-02-24T13:11:32.107Z</time>
      </trkpt>
      <trkpt lat="37.65075" lon="-2.9665">
        <ele>838.898612</ele>
        <time>2022-02-24T13:12:01.360Z</time>
      </trkpt>
      <trkpt lat="37.65067" lon="-2.96659">
        <ele>838.982365</ele>
        <time>2022-02-24T13:12:04.035Z</time>
      </trkpt>
      <trkpt lat="37.6499" lon="-2.96718">
        <ele>839.690407</ele>
        <time>2022-02-24T13:12:27.473Z</time>
      </trkpt>
      <trkpt lat="37.64909" lon="-2.96764">
        <ele>840.353982</ele>
        <time>2022-02-24T13:12:51.114Z</time>
      </trkpt>
      <trkpt lat="37.64782" lon="-2.968">
        <ele>841.234814</ele>
        <time>2022-02-24T13:13:24.229Z</time>
      </trkpt>
      <trkpt lat="37.64705" lon="-2.96842">
        <ele>841.485204</ele>
        <time>2022-02-24T13:13:45.049Z</time>
      </trkpt>
      <trkpt lat="37.64629" lon="-2.96873">
        <ele>841.662169</ele>
        <time>2022-02-24T13:14:03.589Z</time>
      </trkpt>
      <trkpt lat="37.64573" lon="-2.96907">
        <ele>841.477456</ele>
        <time>2022-02-24T13:14:17.153Z</time>
      </trkpt>
      <trkpt lat="37.64232" lon="-2.9707">
        <ele>837.711663</ele>
        <time>2022-02-24T13:15:29.498Z</time>
      </trkpt>
      <trkpt lat="37.64194" lon="-2.97094">
        <ele>836.895966</ele>
        <time>2022-02-24T13:15:37.466Z</time>
      </trkpt>
      <trkpt lat="37.64124" lon="-2.97199">
        <ele>834.717754</ele>
        <time>2022-02-24T13:15:57.021Z</time>
      </trkpt>
      <trkpt lat="37.64012" lon="-2.97235">
        <ele>831.3985</ele>
        <time>2022-02-24T13:16:17.004Z</time>
      </trkpt>
      <trkpt lat="37.63918" lon="-2.97313">
        <ele>828.543538</ele>
        <time>2022-02-24T13:16:36.458Z</time>
      </trkpt>
      <trkpt lat="37.63808" lon="-2.9743">
        <ele>825.610805</ele>
        <time>2022-02-24T13:17:02.928Z</time>
      </trkpt>
      <trkpt lat="37.63776" lon="-2.97459">
        <ele>825.19326</ele>
        <time>2022-02-24T13:17:16.692Z</time>
      </trkpt>
      <trkpt lat="37.63765" lon="-2.97494">
        <ele>824.884858</ele>
        <time>2022-02-24T13:17:27.000Z</time>
      </trkpt>
      <trkpt lat="37.63768" lon="-2.9751">
        <ele>824.753626</ele>
        <time>2022-02-24T13:17:31.465Z</time>
      </trkpt>
      <trkpt lat="37.63843" lon="-2.97576">
        <ele>823.550606</ele>
        <time>2022-02-24T13:18:03.970Z</time>
      </trkpt>
      <trkpt lat="37.63846" lon="-2.97587">
        <ele>823.293499</ele>
        <time>2022-02-24T13:18:07.181Z</time>
      </trkpt>
      <trkpt lat="37.63869" lon="-2.97698">
        <ele>820.754613</ele>
        <time>2022-02-24T13:18:38.113Z</time>
      </trkpt>
      <trkpt lat="37.63873" lon="-2.97936">
        <ele>810.471365</ele>
        <time>2022-02-24T13:19:31.009Z</time>
      </trkpt>
      <trkpt lat="37.63955" lon="-2.98079">
        <ele>799.467085</ele>
        <time>2022-02-24T13:20:07.498Z</time>
      </trkpt>
      <trkpt lat="37.64053" lon="-2.98149">
        <ele>790.293859</ele>
        <time>2022-02-24T13:20:37.156Z</time>
      </trkpt>
      <trkpt lat="37.64035" lon="-2.98232">
        <ele>786.357022</ele>
        <time>2022-02-24T13:20:56.762Z</time>
      </trkpt>
      <trkpt lat="37.64111" lon="-2.9842">
        <ele>776.925692</ele>
        <time>2022-02-24T13:21:44.556Z</time>
      </trkpt>
      <trkpt lat="37.641" lon="-2.98537">
        <ele>771.874187</ele>
        <time>2022-02-24T13:22:11.031Z</time>
      </trkpt>
      <trkpt lat="37.64055" lon="-2.98552">
        <ele>768.688364</ele>
        <time>2022-02-24T13:22:24.350Z</time>
      </trkpt>
      <trkpt lat="37.6406" lon="-2.98607">
        <ele>765.351936</ele>
        <time>2022-02-24T13:22:37.026Z</time>
      </trkpt>
      <trkpt lat="37.64134" lon="-2.98755">
        <ele>753.872466</ele>
        <time>2022-02-24T13:23:13.326Z</time>
      </trkpt>
      <trkpt lat="37.64141" lon="-2.98781">
        <ele>751.623064</ele>
        <time>2022-02-24T13:23:18.828Z</time>
      </trkpt>
      <trkpt lat="37.6417" lon="-2.98906">
        <ele>740.853437</ele>
        <time>2022-02-24T13:23:45.054Z</time>
      </trkpt>
      <trkpt lat="37.64168" lon="-2.98986">
        <ele>735.525472</ele>
        <time>2022-02-24T13:24:01.110Z</time>
      </trkpt>
      <trkpt lat="37.64159" lon="-2.99009">
        <ele>734.00751</ele>
        <time>2022-02-24T13:24:06.330Z</time>
      </trkpt>
      <trkpt lat="37.64137" lon="-2.99025">
        <ele>732.108583</ele>
        <time>2022-02-24T13:24:12.946Z</time>
      </trkpt>
      <trkpt lat="37.64133" lon="-2.99008">
        <ele>731.075486</ele>
        <time>2022-02-24T13:24:16.931Z</time>
      </trkpt>
      <trkpt lat="37.64113" lon="-2.98985">
        <ele>729.018036</ele>
        <time>2022-02-24T13:24:24.702Z</time>
      </trkpt>
      <trkpt lat="37.641" lon="-2.98989">
        <ele>728.027053</ele>
        <time>2022-02-24T13:24:28.692Z</time>
      </trkpt>
      <trkpt lat="37.64094" lon="-2.99007">
        <ele>726.856444</ele>
        <time>2022-02-24T13:24:33.170Z</time>
      </trkpt>
      <trkpt lat="37.64104" lon="-2.99028">
        <ele>725.427775</ele>
        <time>2022-02-24T13:24:38.915Z</time>
      </trkpt>
      <trkpt lat="37.64096" lon="-2.9905">
        <ele>724.130637</ele>
        <time>2022-02-24T13:24:44.116Z</time>
      </trkpt>
      <trkpt lat="37.64134" lon="-2.99092">
        <ele>720.572798</ele>
        <time>2022-02-24T13:24:59.138Z</time>
      </trkpt>
      <trkpt lat="37.64125" lon="-2.99123">
        <ele>718.75785</ele>
        <time>2022-02-24T13:25:06.369Z</time>
      </trkpt>
      <trkpt lat="37.64191" lon="-2.99164">
        <ele>713.636318</ele>
        <time>2022-02-24T13:25:26.010Z</time>
      </trkpt>
      <trkpt lat="37.64186" lon="-2.99203">
        <ele>710.391518</ele>
        <time>2022-02-24T13:25:34.234Z</time>
      </trkpt>
      <trkpt lat="37.6425" lon="-2.99268">
        <ele>700.052282</ele>
        <time>2022-02-24T13:25:54.576Z</time>
      </trkpt>
      <trkpt lat="37.64252" lon="-2.99407">
        <ele>685.830227</ele>
        <time>2022-02-24T13:26:21.385Z</time>
      </trkpt>
      <trkpt lat="37.64217" lon="-2.9948">
        <ele>676.654134</ele>
        <time>2022-02-24T13:26:38.109Z</time>
      </trkpt>
      <trkpt lat="37.64217" lon="-2.99648">
        <ele>658.585166</ele>
        <time>2022-02-24T13:27:10.631Z</time>
      </trkpt>
      <trkpt lat="37.6406" lon="-2.99786">
        <ele>634.716332</ele>
        <time>2022-02-24T13:27:57.526Z</time>
      </trkpt>
      <trkpt lat="37.64" lon="-2.99794">
        <ele>628.755698</ele>
        <time>2022-02-24T13:28:12.778Z</time>
      </trkpt>
      <trkpt lat="37.63913" lon="-2.99772">
        <ele>621.009671</ele>
        <time>2022-02-24T13:28:37.711Z</time>
      </trkpt>
      <trkpt lat="37.63877" lon="-2.99799">
        <ele>618.359222</ele>
        <time>2022-02-24T13:28:50.467Z</time>
      </trkpt>
      <trkpt lat="37.63892" lon="-2.99861">
        <ele>615.138275</ele>
        <time>2022-02-24T13:29:04.897Z</time>
      </trkpt>
      <trkpt lat="37.63941" lon="-2.99885">
        <ele>611.839212</ele>
        <time>2022-02-24T13:29:18.983Z</time>
      </trkpt>
      <trkpt lat="37.63915" lon="-3.00001">
        <ele>605.835701</ele>
        <time>2022-02-24T13:29:44.180Z</time>
      </trkpt>
      <trkpt lat="37.63957" lon="-3.00068">
        <ele>601.595918</ele>
        <time>2022-02-24T13:30:02.882Z</time>
      </trkpt>
      <trkpt lat="37.64087" lon="-3.00066">
        <ele>596.837904</ele>
        <time>2022-02-24T13:30:45.798Z</time>
      </trkpt>
      <trkpt lat="37.64132" lon="-3.00022">
        <ele>595.026063</ele>
        <time>2022-02-24T13:31:04.985Z</time>
      </trkpt>
      <trkpt lat="37.64146" lon="-3.00024">
        <ele>594.452872</ele>
        <time>2022-02-24T13:31:08.918Z</time>
      </trkpt>
      <trkpt lat="37.64083" lon="-3.00115">
        <ele>583.361021</ele>
        <time>2022-02-24T13:31:33.614Z</time>
      </trkpt>
      <trkpt lat="37.64006" lon="-3.00167">
        <ele>573.14244</ele>
        <time>2022-02-24T13:31:54.732Z</time>
      </trkpt>
      <trkpt lat="37.63927" lon="-3.00154">
        <ele>562.480247</ele>
        <time>2022-02-24T13:32:13.711Z</time>
      </trkpt>
      <trkpt lat="37.63904" lon="-3.00126">
        <ele>558.185886</ele>
        <time>2022-02-24T13:32:21.381Z</time>
      </trkpt>
      <trkpt lat="37.63833" lon="-3.00098">
        <ele>549.029409</ele>
        <time>2022-02-24T13:32:40.342Z</time>
      </trkpt>
      <trkpt lat="37.6381" lon="-3.00129">
        <ele>547.128177</ele>
        <time>2022-02-24T13:32:49.514Z</time>
      </trkpt>
      <trkpt lat="37.6381" lon="-3.00157">
        <ele>545.913701</ele>
        <time>2022-02-24T13:32:55.436Z</time>
      </trkpt>
      <trkpt lat="37.63795" lon="-3.00229">
        <ele>542.563505</ele>
        <time>2022-02-24T13:33:12.576Z</time>
      </trkpt>
      <trkpt lat="37.63776" lon="-3.00246">
        <ele>541.259079</ele>
        <time>2022-02-24T13:33:19.413Z</time>
      </trkpt>
      <trkpt lat="37.63736" lon="-3.00258">
        <ele>539.374363</ele>
        <time>2022-02-24T13:33:31.733Z</time>
      </trkpt>
      <trkpt lat="37.63648" lon="-3.00336">
        <ele>538.237129</ele>
        <time>2022-02-24T13:34:09.985Z</time>
      </trkpt>
      <trkpt lat="37.63586" lon="-3.0037">
        <ele>537.53002</ele>
        <time>2022-02-24T13:34:34.804Z</time>
      </trkpt>
      <trkpt lat="37.63391" lon="-3.00601">
        <ele>534.137558</ele>
        <time>2022-02-24T13:36:06.073Z</time>
      </trkpt>
      <trkpt lat="37.63326" lon="-3.00648">
        <ele>532.799316</ele>
        <time>2022-02-24T13:36:30.096Z</time>
      </trkpt>
      <trkpt lat="37.63362" lon="-3.00739">
        <ele>531.251005</ele>
        <time>2022-02-24T13:36:55.715Z</time>
      </trkpt>
      <trkpt lat="37.63364" lon="-3.00754">
        <ele>531.010324</ele>
        <time>2022-02-24T13:36:59.735Z</time>
      </trkpt>
      <trkpt lat="37.6335" lon="-3.00833">
        <ele>529.766557</ele>
        <time>2022-02-24T13:37:20.438Z</time>
      </trkpt>
      <trkpt lat="37.63331" lon="-3.00897">
        <ele>529.084337</ele>
        <time>2022-02-24T13:37:38.616Z</time>
      </trkpt>
      <trkpt lat="37.63208" lon="-3.01038">
        <ele>529.081873</ele>
        <time>2022-02-24T13:38:42.858Z</time>
      </trkpt>
      <trkpt lat="37.63163" lon="-3.01076">
        <ele>529.15367</ele>
        <time>2022-02-24T13:39:03.899Z</time>
      </trkpt>
      <trkpt lat="37.63145" lon="-3.01082">
        <ele>529.179596</ele>
        <time>2022-02-24T13:39:11.297Z</time>
      </trkpt>
      <trkpt lat="37.6312" lon="-3.01082">
        <ele>529.213075</ele>
        <time>2022-02-24T13:39:20.801Z</time>
      </trkpt>
      <trkpt lat="37.63027" lon="-3.01043">
        <ele>529.343817</ele>
        <time>2022-02-24T13:39:56.820Z</time>
      </trkpt>
      <trkpt lat="37.62969" lon="-3.00986">
        <ele>529.44267</ele>
        <time>2022-02-24T13:40:23.651Z</time>
      </trkpt>
      <trkpt lat="37.62957" lon="-3.00993">
        <ele>529.459769</ele>
        <time>2022-02-24T13:40:28.320Z</time>
      </trkpt>
      <trkpt lat="37.62923" lon="-3.01071">
        <ele>529.555297</ele>
        <time>2022-02-24T13:40:55.923Z</time>
      </trkpt>
      <trkpt lat="37.629" lon="-3.01189">
        <ele>530.689754</ele>
        <time>2022-02-24T13:41:36.258Z</time>
      </trkpt>
      <trkpt lat="37.62909" lon="-3.01226">
        <ele>531.053424</ele>
        <time>2022-02-24T13:41:49.780Z</time>
      </trkpt>
      <trkpt lat="37.62901" lon="-3.0124">
        <ele>531.213114</ele>
        <time>2022-02-24T13:41:55.698Z</time>
      </trkpt>
      <trkpt lat="37.62881" lon="-3.01247">
        <ele>531.452734</ele>
        <time>2022-02-24T13:42:04.931Z</time>
      </trkpt>
      <trkpt lat="37.62844" lon="-3.0122">
        <ele>532.091951</ele>
        <time>2022-02-24T13:42:24.593Z</time>
      </trkpt>
      <trkpt lat="37.62791" lon="-3.0122">
        <ele>533.02526</ele>
        <time>2022-02-24T13:42:49.615Z</time>
      </trkpt>
      <trkpt lat="37.62764" lon="-3.01226">
        <ele>533.520593</ele>
        <time>2022-02-24T13:43:02.988Z</time>
      </trkpt>
      <trkpt lat="37.62594" lon="-3.01222">
        <ele>535.85415</ele>
        <time>2022-02-24T13:44:18.599Z</time>
      </trkpt>
      <trkpt lat="37.62515" lon="-3.0127">
        <ele>536.770606</ele>
        <time>2022-02-24T13:44:54.273Z</time>
      </trkpt>
      <trkpt lat="37.62493" lon="-3.01273">
        <ele>536.72064</ele>
        <time>2022-02-24T13:45:03.026Z</time>
      </trkpt>
      <trkpt lat="37.62461" lon="-3.01259">
        <ele>536.646346</ele>
        <time>2022-02-24T13:45:15.372Z</time>
      </trkpt>
      <trkpt lat="37.62342" lon="-3.01139">
        <ele>536.194785</ele>
        <time>2022-02-24T13:46:09.940Z</time>
      </trkpt>
      <trkpt lat="37.62299" lon="-3.01115">
        <ele>535.911226</ele>
        <time>2022-02-24T13:46:26.055Z</time>
      </trkpt>
      <trkpt lat="37.6228" lon="-3.01113">
        <ele>535.797087</ele>
        <time>2022-02-24T13:46:32.567Z</time>
      </trkpt>
      <trkpt lat="37.62124" lon="-3.01135">
        <ele>535.45831</ele>
        <time>2022-02-24T13:47:29.010Z</time>
      </trkpt>
      <trkpt lat="37.62045" lon="-3.01136">
        <ele>535.649928</ele>
        <time>2022-02-24T13:47:59.879Z</time>
      </trkpt>
      <trkpt lat="37.62022" lon="-3.01143">
        <ele>535.707286</ele>
        <time>2022-02-24T13:48:09.735Z</time>
      </trkpt>
      <trkpt lat="37.61999" lon="-3.01152">
        <ele>535.991351</ele>
        <time>2022-02-24T13:48:20.244Z</time>
      </trkpt>
      <trkpt lat="37.61949" lon="-3.01234">
        <ele>537.135439</ele>
        <time>2022-02-24T13:48:56.608Z</time>
      </trkpt>
      <trkpt lat="37.61925" lon="-3.01251">
        <ele>537.519784</ele>
        <time>2022-02-24T13:49:09.150Z</time>
      </trkpt>
      <trkpt lat="37.61898" lon="-3.01262">
        <ele>537.919045</ele>
        <time>2022-02-24T13:49:22.039Z</time>
      </trkpt>
      <trkpt lat="37.61844" lon="-3.01268">
        <ele>538.56362</ele>
        <time>2022-02-24T13:49:45.855Z</time>
      </trkpt>
      <trkpt lat="37.61783" lon="-3.01266">
        <ele>539.206606</ele>
        <time>2022-02-24T13:50:12.273Z</time>
      </trkpt>
      <trkpt lat="37.61603" lon="-3.01226">
        <ele>540.952458</ele>
        <time>2022-02-24T13:51:26.793Z</time>
      </trkpt>
      <trkpt lat="37.61488" lon="-3.01244">
        <ele>542.200516</ele>
        <time>2022-02-24T13:52:15.501Z</time>
      </trkpt>
      <trkpt lat="37.61418" lon="-3.01247">
        <ele>543.371462</ele>
        <time>2022-02-24T13:52:45.492Z</time>
      </trkpt>
      <trkpt lat="37.61382" lon="-3.01263">
        <ele>544.011216</ele>
        <time>2022-02-24T13:53:02.872Z</time>
      </trkpt>
      <trkpt lat="37.6136" lon="-3.01251">
        <ele>544.399828</ele>
        <time>2022-02-24T13:53:13.608Z</time>
      </trkpt>
      <trkpt lat="37.61334" lon="-3.01222">
        <ele>545.745077</ele>
        <time>2022-02-24T13:53:29.819Z</time>
      </trkpt>
      <trkpt lat="37.61308" lon="-3.01247">
        <ele>547.755168</ele>
        <time>2022-02-24T13:53:50.073Z</time>
      </trkpt>
      <trkpt lat="37.61286" lon="-3.01296">
        <ele>550.446622</ele>
        <time>2022-02-24T13:54:19.926Z</time>
      </trkpt>
      <trkpt lat="37.61285" lon="-3.01318">
        <ele>551.524203</ele>
        <time>2022-02-24T13:54:33.524Z</time>
      </trkpt>
      <trkpt lat="37.61298" lon="-3.01382">
        <ele>554.677605</ele>
        <time>2022-02-24T13:55:12.044Z</time>
      </trkpt>
      <trkpt lat="37.61296" lon="-3.01395">
        <ele>555.324083</ele>
        <time>2022-02-24T13:55:22.606Z</time>
      </trkpt>
      <trkpt lat="37.6126" lon="-3.01459">
        <ele>559.618367</ele>
        <time>2022-02-24T13:56:10.398Z</time>
      </trkpt>
      <trkpt lat="37.61244" lon="-3.01545">
        <ele>564.542996</ele>
        <time>2022-02-24T13:57:03.180Z</time>
      </trkpt>
      <trkpt lat="37.61248" lon="-3.01639">
        <ele>568.698719</ele>
        <time>2022-02-24T13:57:52.015Z</time>
      </trkpt>
      <trkpt lat="37.61246" lon="-3.01718">
        <ele>570.207883</ele>
        <time>2022-02-24T13:58:24.446Z</time>
      </trkpt>
      <trkpt lat="37.6125" lon="-3.01866">
        <ele>572.537876</ele>
        <time>2022-02-24T13:59:12.856Z</time>
      </trkpt>
      <trkpt lat="37.61237" lon="-3.01908">
        <ele>572.628769</ele>
        <time>2022-02-24T13:59:27.254Z</time>
      </trkpt>
      <trkpt lat="37.61235" lon="-3.01934">
        <ele>572.681344</ele>
        <time>2022-02-24T13:59:35.624Z</time>
      </trkpt>
      <trkpt lat="37.61237" lon="-3.0196">
        <ele>572.733505</ele>
        <time>2022-02-24T13:59:43.960Z</time>
      </trkpt>
      <trkpt lat="37.61284" lon="-3.0203">
        <ele>572.916507</ele>
        <time>2022-02-24T14:00:12.756Z</time>
      </trkpt>
      <trkpt lat="37.61294" lon="-3.02069">
        <ele>572.264037</ele>
        <time>2022-02-24T14:00:23.486Z</time>
      </trkpt>
      <trkpt lat="37.61348" lon="-3.02105">
        <ele>570.660235</ele>
        <time>2022-02-24T14:00:43.108Z</time>
      </trkpt>
      <trkpt lat="37.61371" lon="-3.02131">
        <ele>569.87076</ele>
        <time>2022-02-24T14:00:52.754Z</time>
      </trkpt>
      <trkpt lat="37.61393" lon="-3.02146">
        <ele>569.204842</ele>
        <time>2022-02-24T14:01:00.069Z</time>
      </trkpt>
      <trkpt lat="37.61392" lon="-3.02158">
        <ele>568.947878</ele>
        <time>2022-02-24T14:01:04.166Z</time>
      </trkpt>
      <trkpt lat="37.61376" lon="-3.02165">
        <ele>568.489791</ele>
        <time>2022-02-24T14:01:08.903Z</time>
      </trkpt>
      <trkpt lat="37.61344" lon="-3.02152">
        <ele>567.195043</ele>
        <time>2022-02-24T14:01:18.924Z</time>
      </trkpt>
      <trkpt lat="37.61308" lon="-3.02161">
        <ele>565.509208</ele>
        <time>2022-02-24T14:01:29.856Z</time>
      </trkpt>
      <trkpt lat="37.61257" lon="-3.02116">
        <ele>562.640941</ele>
        <time>2022-02-24T14:01:47.870Z</time>
      </trkpt>
      <trkpt lat="37.61224" lon="-3.02027">
        <ele>559.025681</ele>
        <time>2022-02-24T14:02:10.407Z</time>
      </trkpt>
      <trkpt lat="37.61212" lon="-3.02011">
        <ele>558.218369</ele>
        <time>2022-02-24T14:02:15.415Z</time>
      </trkpt>
      <trkpt lat="37.61186" lon="-3.01992">
        <ele>556.784686</ele>
        <time>2022-02-24T14:02:24.243Z</time>
      </trkpt>
      <trkpt lat="37.61106" lon="-3.01954">
        <ele>552.731143</ele>
        <time>2022-02-24T14:02:49.109Z</time>
      </trkpt>
      <trkpt lat="37.61092" lon="-3.01935">
        <ele>551.751026</ele>
        <time>2022-02-24T14:02:55.018Z</time>
      </trkpt>
      <trkpt lat="37.61088" lon="-3.01893">
        <ele>550.426777</ele>
        <time>2022-02-24T14:03:04.567Z</time>
      </trkpt>
      <trkpt lat="37.61071" lon="-3.01869">
        <ele>549.462526</ele>
        <time>2022-02-24T14:03:12.018Z</time>
      </trkpt>
      <trkpt lat="37.6105" lon="-3.01786">
        <ele>546.855439</ele>
        <time>2022-02-24T14:03:32.554Z</time>
      </trkpt>
      <trkpt lat="37.61035" lon="-3.01767">
        <ele>546.042044</ele>
        <time>2022-02-24T14:03:39.034Z</time>
      </trkpt>
      <trkpt lat="37.60978" lon="-3.01722">
        <ele>544.576985</ele>
        <time>2022-02-24T14:04:00.167Z</time>
      </trkpt>
      <trkpt lat="37.60962" lon="-3.01627">
        <ele>544.486955</ele>
        <time>2022-02-24T14:04:26.401Z</time>
      </trkpt>
      <trkpt lat="37.60826" lon="-3.01585">
        <ele>547.062793</ele>
        <time>2022-02-24T14:05:34.545Z</time>
      </trkpt>
      <trkpt lat="37.60758" lon="-3.01535">
        <ele>550.232586</ele>
        <time>2022-02-24T14:06:23.427Z</time>
      </trkpt>
      <trkpt lat="37.60673" lon="-3.01505">
        <ele>553.78784</ele>
        <time>2022-02-24T14:07:18.999Z</time>
      </trkpt>
      <trkpt lat="37.60641" lon="-3.01504">
        <ele>555.101791</ele>
        <time>2022-02-24T14:07:38.805Z</time>
      </trkpt>
      <trkpt lat="37.60598" lon="-3.0147">
        <ele>557.142149</ele>
        <time>2022-02-24T14:08:08.095Z</time>
      </trkpt>
      <trkpt lat="37.6056" lon="-3.01423">
        <ele>558.952652</ele>
        <time>2022-02-24T14:08:35.331Z</time>
      </trkpt>
      <trkpt lat="37.60494" lon="-3.01355">
        <ele>559.298905</ele>
        <time>2022-02-24T14:09:11.099Z</time>
      </trkpt>
      <trkpt lat="37.60418" lon="-3.01306">
        <ele>559.630364</ele>
        <time>2022-02-24T14:09:41.698Z</time>
      </trkpt>
      <trkpt lat="37.60382" lon="-3.01269">
        <ele>558.229973</ele>
        <time>2022-02-24T14:09:56.829Z</time>
      </trkpt>
      <trkpt lat="37.60325" lon="-3.01224">
        <ele>556.203859</ele>
        <time>2022-02-24T14:10:17.410Z</time>
      </trkpt>
      <trkpt lat="37.60268" lon="-3.01195">
        <ele>554.303038</ele>
        <time>2022-02-24T14:10:35.808Z</time>
      </trkpt>
      <trkpt lat="37.6018" lon="-3.01181">
        <ele>551.039521</ele>
        <time>2022-02-24T14:11:01.747Z</time>
      </trkpt>
      <trkpt lat="37.6017" lon="-3.01183">
        <ele>550.649463</ele>
        <time>2022-02-24T14:11:04.763Z</time>
      </trkpt>
      <trkpt lat="37.60087" lon="-3.01247">
        <ele>547.377878</ele>
        <time>2022-02-24T14:11:34.467Z</time>
      </trkpt>
      <trkpt lat="37.60056" lon="-3.01261">
        <ele>547.141205</ele>
        <time>2022-02-24T14:11:45.317Z</time>
      </trkpt>
      <trkpt lat="37.59996" lon="-3.01272">
        <ele>546.714666</ele>
        <time>2022-02-24T14:12:06.171Z</time>
      </trkpt>
      <trkpt lat="37.59976" lon="-3.01281">
        <ele>546.56554</ele>
        <time>2022-02-24T14:12:13.904Z</time>
      </trkpt>
      <trkpt lat="37.59793" lon="-3.01419">
        <ele>548.337895</ele>
        <time>2022-02-24T14:13:45.595Z</time>
      </trkpt>
      <trkpt lat="37.59706" lon="-3.01435">
        <ele>550.08186</ele>
        <time>2022-02-24T14:14:27.701Z</time>
      </trkpt>
      <trkpt lat="37.59633" lon="-3.01431">
        <ele>551.676689</ele>
        <time>2022-02-24T14:15:03.523Z</time>
      </trkpt>
      <trkpt lat="37.59606" lon="-3.0144">
        <ele>552.287126</ele>
        <time>2022-02-24T14:15:17.091Z</time>
      </trkpt>
      <trkpt lat="37.59539" lon="-3.01477">
        <ele>553.662868</ele>
        <time>2022-02-24T14:15:51.829Z</time>
      </trkpt>
      <trkpt lat="37.59546" lon="-3.01506">
        <ele>554.091513</ele>
        <time>2022-02-24T14:15:59.463Z</time>
      </trkpt>
      <trkpt lat="37.59588" lon="-3.01608">
        <ele>555.769874</ele>
        <time>2022-02-24T14:16:28.023Z</time>
      </trkpt>
      <trkpt lat="37.5962" lon="-3.0165">
        <ele>556.574102</ele>
        <time>2022-02-24T14:16:42.156Z</time>
      </trkpt>
      <trkpt lat="37.59627" lon="-3.01671">
        <ele>556.888365</ele>
        <time>2022-02-24T14:16:47.674Z</time>
      </trkpt>
      <trkpt lat="37.5963" lon="-3.01716">
        <ele>557.524059</ele>
        <time>2022-02-24T14:16:59.018Z</time>
      </trkpt>
      <trkpt lat="37.59609" lon="-3.01766">
        <ele>558.302705</ele>
        <time>2022-02-24T14:17:13.409Z</time>
      </trkpt>
      <trkpt lat="37.59602" lon="-3.01794">
        <ele>558.715021</ele>
        <time>2022-02-24T14:17:21.399Z</time>
      </trkpt>
      <trkpt lat="37.59598" lon="-3.01862">
        <ele>559.722823</ele>
        <time>2022-02-24T14:17:39.491Z</time>
      </trkpt>
      <trkpt lat="37.59565" lon="-3.01968">
        <ele>561.449205</ele>
        <time>2022-02-24T14:18:09.562Z</time>
      </trkpt>
      <trkpt lat="37.59552" lon="-3.02034">
        <ele>562.445074</ele>
        <time>2022-02-24T14:18:26.737Z</time>
      </trkpt>
      <trkpt lat="37.5957" lon="-3.0214">
        <ele>563.399564</ele>
        <time>2022-02-24T14:18:52.223Z</time>
      </trkpt>
      <trkpt lat="37.59565" lon="-3.0217">
        <ele>563.663575</ele>
        <time>2022-02-24T14:18:58.716Z</time>
      </trkpt>
      <trkpt lat="37.59557" lon="-3.02195">
        <ele>563.902757</ele>
        <time>2022-02-24T14:19:04.584Z</time>
      </trkpt>
      <trkpt lat="37.59512" lon="-3.0224">
        <ele>564.582114</ele>
        <time>2022-02-24T14:19:20.074Z</time>
      </trkpt>
      <trkpt lat="37.59507" lon="-3.02251">
        <ele>564.741413</ele>
        <time>2022-02-24T14:19:22.958Z</time>
      </trkpt>
      <trkpt lat="37.59494" lon="-3.02317">
        <ele>565.525774</ele>
        <time>2022-02-24T14:19:37.230Z</time>
      </trkpt>
      <trkpt lat="37.59512" lon="-3.0238">
        <ele>566.311921</ele>
        <time>2022-02-24T14:19:53.082Z</time>
      </trkpt>
      <trkpt lat="37.59505" lon="-3.02402">
        <ele>566.593903</ele>
        <time>2022-02-24T14:19:59.174Z</time>
      </trkpt>
      <trkpt lat="37.59454" lon="-3.02473">
        <ele>568.473901</ele>
        <time>2022-02-24T14:20:26.905Z</time>
      </trkpt>
      <trkpt lat="37.59442" lon="-3.02514">
        <ele>569.596544</ele>
        <time>2022-02-24T14:20:41.431Z</time>
      </trkpt>
      <trkpt lat="37.59439" lon="-3.02671">
        <ele>573.351155</ele>
        <time>2022-02-24T14:21:32.101Z</time>
      </trkpt>
      <trkpt lat="37.59443" lon="-3.02694">
        <ele>573.752287</ele>
        <time>2022-02-24T14:21:39.716Z</time>
      </trkpt>
      <trkpt lat="37.59452" lon="-3.02713">
        <ele>574.117427</ele>
        <time>2022-02-24T14:21:46.169Z</time>
      </trkpt>
      <trkpt lat="37.5947" lon="-3.02735">
        <ele>574.643628</ele>
        <time>2022-02-24T14:21:55.143Z</time>
      </trkpt>
      <trkpt lat="37.59486" lon="-3.02773">
        <ele>575.363296</ele>
        <time>2022-02-24T14:22:06.511Z</time>
      </trkpt>
      <trkpt lat="37.59485" lon="-3.0279">
        <ele>575.662029</ele>
        <time>2022-02-24T14:22:10.835Z</time>
      </trkpt>
      <trkpt lat="37.59455" lon="-3.02876">
        <ele>576.732363</ele>
        <time>2022-02-24T14:22:30.879Z</time>
      </trkpt>
      <trkpt lat="37.59451" lon="-3.02908">
        <ele>576.809446</ele>
        <time>2022-02-24T14:22:36.955Z</time>
      </trkpt>
      <trkpt lat="37.59483" lon="-3.03095">
        <ele>577.318239</ele>
        <time>2022-02-24T14:23:13.150Z</time>
      </trkpt>
      <trkpt lat="37.59483" lon="-3.03124">
        <ele>577.43506</ele>
        <time>2022-02-24T14:23:18.802Z</time>
      </trkpt>
      <trkpt lat="37.59474" lon="-3.03146">
        <ele>577.536651</ele>
        <time>2022-02-24T14:23:23.587Z</time>
      </trkpt>
      <trkpt lat="37.59417" lon="-3.03226">
        <ele>577.976405</ele>
        <time>2022-02-24T14:23:45.373Z</time>
      </trkpt>
      <trkpt lat="37.59406" lon="-3.03252">
        <ele>578.098978</ele>
        <time>2022-02-24T14:23:51.909Z</time>
      </trkpt>
      <trkpt lat="37.59388" lon="-3.03305">
        <ele>578.583326</ele>
        <time>2022-02-24T14:24:04.913Z</time>
      </trkpt>
      <trkpt lat="37.59381" lon="-3.03342">
        <ele>578.916493</ele>
        <time>2022-02-24T14:24:13.384Z</time>
      </trkpt>
      <trkpt lat="37.59379" lon="-3.03375">
        <ele>579.213603</ele>
        <time>2022-02-24T14:24:21.066Z</time>
      </trkpt>
      <trkpt lat="37.59393" lon="-3.03424">
        <ele>579.677125</ele>
        <time>2022-02-24T14:24:33.549Z</time>
      </trkpt>
      <trkpt lat="37.5944" lon="-3.03484">
        <ele>580.282762</ele>
        <time>2022-02-24T14:24:53.182Z</time>
      </trkpt>
      <trkpt lat="37.59455" lon="-3.03514">
        <ele>580.443503</ele>
        <time>2022-02-24T14:25:01.365Z</time>
      </trkpt>
      <trkpt lat="37.59458" lon="-3.03535">
        <ele>580.543458</ele>
        <time>2022-02-24T14:25:06.324Z</time>
      </trkpt>
      <trkpt lat="37.59452" lon="-3.03556">
        <ele>580.647647</ele>
        <time>2022-02-24T14:25:11.362Z</time>
      </trkpt>
      <trkpt lat="37.5944" lon="-3.0357">
        <ele>580.74126</ele>
        <time>2022-02-24T14:25:15.638Z</time>
      </trkpt>
      <trkpt lat="37.59425" lon="-3.03579">
        <ele>580.835835</ele>
        <time>2022-02-24T14:25:19.677Z</time>
      </trkpt>
      <trkpt lat="37.59383" lon="-3.0358">
        <ele>581.082662</ele>
        <time>2022-02-24T14:25:29.527Z</time>
      </trkpt>
      <trkpt lat="37.5935" lon="-3.03601">
        <ele>581.026145</ele>
        <time>2022-02-24T14:25:37.757Z</time>
      </trkpt>
      <trkpt lat="37.59245" lon="-3.03746">
        <ele>579.915512</ele>
        <time>2022-02-24T14:26:10.649Z</time>
      </trkpt>
      <trkpt lat="37.59223" lon="-3.0379">
        <ele>579.683214</ele>
        <time>2022-02-24T14:26:19.297Z</time>
      </trkpt>
      <trkpt lat="37.59205" lon="-3.03848">
        <ele>579.412268</ele>
        <time>2022-02-24T14:26:29.829Z</time>
      </trkpt>
      <trkpt lat="37.59139" lon="-3.04109">
        <ele>578.786562</ele>
        <time>2022-02-24T14:27:17.993Z</time>
      </trkpt>
      <trkpt lat="37.59083" lon="-3.04223">
        <ele>579.452511</ele>
        <time>2022-02-24T14:27:44.051Z</time>
      </trkpt>
      <trkpt lat="37.58897" lon="-3.04727">
        <ele>585.641333</ele>
        <time>2022-02-24T14:30:02.679Z</time>
      </trkpt>
      <trkpt lat="37.58829" lon="-3.04884">
        <ele>586.389625</ele>
        <time>2022-02-24T14:30:40.062Z</time>
      </trkpt>
      <trkpt lat="37.58747" lon="-3.05224">
        <ele>585.406958</ele>
        <time>2022-02-24T14:31:40.982Z</time>
      </trkpt>
      <trkpt lat="37.58706" lon="-3.05327">
        <ele>585.13824</ele>
        <time>2022-02-24T14:32:01.359Z</time>
      </trkpt>
      <trkpt lat="37.58602" lon="-3.05552">
        <ele>584.244409</ele>
        <time>2022-02-24T14:32:47.926Z</time>
      </trkpt>
      <trkpt lat="37.58472" lon="-3.05928">
        <ele>581.523157</ele>
        <time>2022-02-24T14:33:54.557Z</time>
      </trkpt>
      <trkpt lat="37.58402" lon="-3.06193">
        <ele>582.925125</ele>
        <time>2022-02-24T14:34:50.701Z</time>
      </trkpt>
      <trkpt lat="37.5833" lon="-3.0641">
        <ele>589.099943</ele>
        <time>2022-02-24T14:36:06.840Z</time>
      </trkpt>
      <trkpt lat="37.58334" lon="-3.06495">
        <ele>592.230561</ele>
        <time>2022-02-24T14:36:40.667Z</time>
      </trkpt>
      <trkpt lat="37.58331" lon="-3.06574">
        <ele>595.611754</ele>
        <time>2022-02-24T14:37:13.360Z</time>
      </trkpt>
      <trkpt lat="37.58337" lon="-3.0668">
        <ele>600.163822</ele>
        <time>2022-02-24T14:37:55.840Z</time>
      </trkpt>
      <trkpt lat="37.58329" lon="-3.06721">
        <ele>601.42482</ele>
        <time>2022-02-24T14:38:12.905Z</time>
      </trkpt>
      <trkpt lat="37.5833" lon="-3.06752">
        <ele>602.320654</ele>
        <time>2022-02-24T14:38:24.362Z</time>
      </trkpt>
      <trkpt lat="37.58312" lon="-3.06811">
        <ele>604.205292</ele>
        <time>2022-02-24T14:38:46.431Z</time>
      </trkpt>
      <trkpt lat="37.58287" lon="-3.06859">
        <ele>605.885813</ele>
        <time>2022-02-24T14:39:03.677Z</time>
      </trkpt>
      <trkpt lat="37.58162" lon="-3.07059">
        <ele>609.430957</ele>
        <time>2022-02-24T14:40:04.003Z</time>
      </trkpt>
      <trkpt lat="37.58149" lon="-3.07103">
        <ele>610.184106</ele>
        <time>2022-02-24T14:40:15.177Z</time>
      </trkpt>
      <trkpt lat="37.58148" lon="-3.0721">
        <ele>611.916855</ele>
        <time>2022-02-24T14:40:42.062Z</time>
      </trkpt>
      <trkpt lat="37.58191" lon="-3.07546">
        <ele>618.556749</ele>
        <time>2022-02-24T14:42:23.225Z</time>
      </trkpt>
      <trkpt lat="37.58193" lon="-3.07569">
        <ele>618.795515</ele>
        <time>2022-02-24T14:42:29.231Z</time>
      </trkpt>
      <trkpt lat="37.58188" lon="-3.07578">
        <ele>618.915373</ele>
        <time>2022-02-24T14:42:33.258Z</time>
      </trkpt>
      <trkpt lat="37.58063" lon="-3.07391">
        <ele>619.484281</ele>
        <time>2022-02-24T14:43:22.090Z</time>
      </trkpt>
      <trkpt lat="37.58055" lon="-3.07369">
        <ele>619.205908</ele>
        <time>2022-02-24T14:43:25.492Z</time>
      </trkpt>
      <trkpt lat="37.58043" lon="-3.07269">
        <ele>618.01117</ele>
        <time>2022-02-24T14:43:39.674Z</time>
      </trkpt>
      <trkpt lat="37.58029" lon="-3.07204">
        <ele>616.182099</ele>
        <time>2022-02-24T14:43:48.658Z</time>
      </trkpt>
      <trkpt lat="37.58021" lon="-3.07185">
        <ele>615.54144</ele>
        <time>2022-02-24T14:43:51.324Z</time>
      </trkpt>
      <trkpt lat="37.58008" lon="-3.07177">
        <ele>614.961973</ele>
        <time>2022-02-24T14:43:53.795Z</time>
      </trkpt>
      <trkpt lat="37.57928" lon="-3.07199">
        <ele>611.798686</ele>
        <time>2022-02-24T14:44:07.077Z</time>
      </trkpt>
      <trkpt lat="37.57796" lon="-3.072">
        <ele>607.785903</ele>
        <time>2022-02-24T14:44:29.243Z</time>
      </trkpt>
      <trkpt lat="37.57617" lon="-3.07277">
        <ele>604.081215</ele>
        <time>2022-02-24T14:45:04.495Z</time>
      </trkpt>
      <trkpt lat="37.57465" lon="-3.07361">
        <ele>602.769799</ele>
        <time>2022-02-24T14:45:38.589Z</time>
      </trkpt>
      <trkpt lat="37.57443" lon="-3.07365">
        <ele>602.67534</ele>
        <time>2022-02-24T14:45:43.218Z</time>
      </trkpt>
      <trkpt lat="37.5723" lon="-3.07332">
        <ele>602.94595</ele>
        <time>2022-02-24T14:46:31.109Z</time>
      </trkpt>
      <trkpt lat="37.57063" lon="-3.07347">
        <ele>605.467717</ele>
        <time>2022-02-24T14:47:21.705Z</time>
      </trkpt>
      <trkpt lat="37.56825" lon="-3.07467">
        <ele>611.199048</ele>
        <time>2022-02-24T14:48:51.366Z</time>
      </trkpt>
      <trkpt lat="37.56745" lon="-3.07526">
        <ele>612.814441</ele>
        <time>2022-02-24T14:49:19.822Z</time>
      </trkpt>
      <trkpt lat="37.5668" lon="-3.07561">
        <ele>613.582125</ele>
        <time>2022-02-24T14:49:39.246Z</time>
      </trkpt>
      <trkpt lat="37.56625" lon="-3.07615">
        <ele>613.663601</ele>
        <time>2022-02-24T14:49:55.908Z</time>
      </trkpt>
      <trkpt lat="37.56543" lon="-3.07622">
        <ele>613.751492</ele>
        <time>2022-02-24T14:50:13.360Z</time>
      </trkpt>
      <trkpt lat="37.565" lon="-3.07633">
        <ele>613.368971</ele>
        <time>2022-02-24T14:50:22.087Z</time>
      </trkpt>
      <trkpt lat="37.56414" lon="-3.07681">
        <ele>612.538379</ele>
        <time>2022-02-24T14:50:40.354Z</time>
      </trkpt>
      <trkpt lat="37.56339" lon="-3.07706">
        <ele>612.591874</ele>
        <time>2022-02-24T14:50:56.433Z</time>
      </trkpt>
      <trkpt lat="37.56321" lon="-3.07721">
        <ele>612.839007</ele>
        <time>2022-02-24T14:51:01.536Z</time>
      </trkpt>
      <trkpt lat="37.56307" lon="-3.07747">
        <ele>613.130977</ele>
        <time>2022-02-24T14:51:08.335Z</time>
      </trkpt>
      <trkpt lat="37.56301" lon="-3.07782">
        <ele>613.456206</ele>
        <time>2022-02-24T14:51:16.468Z</time>
      </trkpt>
      <trkpt lat="37.56307" lon="-3.08017">
        <ele>617.136349</ele>
        <time>2022-02-24T14:52:21.361Z</time>
      </trkpt>
      <trkpt lat="37.56295" lon="-3.08139">
        <ele>619.27516</ele>
        <time>2022-02-24T14:52:54.851Z</time>
      </trkpt>
      <trkpt lat="37.56285" lon="-3.08172">
        <ele>619.743779</ele>
        <time>2022-02-24T14:53:03.453Z</time>
      </trkpt>
      <trkpt lat="37.56283" lon="-3.08178">
        <ele>619.832114</ele>
        <time>2022-02-24T14:53:05.126Z</time>
      </trkpt>
      <trkpt lat="37.56249" lon="-3.08245">
        <ele>620.897266</ele>
        <time>2022-02-24T14:53:23.742Z</time>
      </trkpt>
      <trkpt lat="37.56247" lon="-3.08286">
        <ele>621.461777</ele>
        <time>2022-02-24T14:53:33.552Z</time>
      </trkpt>
      <trkpt lat="37.56211" lon="-3.08456">
        <ele>623.116514</ele>
        <time>2022-02-24T14:54:12.826Z</time>
      </trkpt>
      <trkpt lat="37.56166" lon="-3.08575">
        <ele>624.419882</ele>
        <time>2022-02-24T14:54:40.829Z</time>
      </trkpt>
      <trkpt lat="37.56139" lon="-3.08624">
        <ele>625.086151</ele>
        <time>2022-02-24T14:54:54.443Z</time>
      </trkpt>
      <trkpt lat="37.56107" lon="-3.08659">
        <ele>625.680663</ele>
        <time>2022-02-24T14:55:06.832Z</time>
      </trkpt>
      <trkpt lat="37.56083" lon="-3.08672">
        <ele>626.042817</ele>
        <time>2022-02-24T14:55:14.730Z</time>
      </trkpt>
      <trkpt lat="37.56057" lon="-3.08677">
        <ele>626.555886</ele>
        <time>2022-02-24T14:55:22.960Z</time>
      </trkpt>
      <trkpt lat="37.56034" lon="-3.08684">
        <ele>627.200418</ele>
        <time>2022-02-24T14:55:30.693Z</time>
      </trkpt>
      <trkpt lat="37.55937" lon="-3.08737">
        <ele>630.111022</ele>
        <time>2022-02-24T14:56:09.498Z</time>
      </trkpt>
      <trkpt lat="37.55887" lon="-3.08759">
        <ele>631.550002</ele>
        <time>2022-02-24T14:56:29.840Z</time>
      </trkpt>
      <trkpt lat="37.55858" lon="-3.08789">
        <ele>632.580368</ele>
        <time>2022-02-24T14:56:44.670Z</time>
      </trkpt>
      <trkpt lat="37.55828" lon="-3.0883">
        <ele>633.796335</ele>
        <time>2022-02-24T14:57:02.291Z</time>
      </trkpt>
      <trkpt lat="37.55807" lon="-3.08855">
        <ele>634.561932</ele>
        <time>2022-02-24T14:57:13.333Z</time>
      </trkpt>
      <trkpt lat="37.55778" lon="-3.08865">
        <ele>635.394154</ele>
        <time>2022-02-24T14:57:24.454Z</time>
      </trkpt>
      <trkpt lat="37.5573" lon="-3.0892">
        <ele>635.191809</ele>
        <time>2022-02-24T14:57:43.214Z</time>
      </trkpt>
      <trkpt lat="37.55686" lon="-3.08983">
        <ele>633.572144</ele>
        <time>2022-02-24T14:57:55.123Z</time>
      </trkpt>
      <trkpt lat="37.55666" lon="-3.08989">
        <ele>633.095996</ele>
        <time>2022-02-24T14:57:58.236Z</time>
      </trkpt>
      <trkpt lat="37.5566" lon="-3.08996">
        <ele>632.874434</ele>
        <time>2022-02-24T14:57:59.856Z</time>
      </trkpt>
      <trkpt lat="37.55635" lon="-3.0902">
        <ele>632.119775</ele>
        <time>2022-02-24T14:58:04.884Z</time>
      </trkpt>
      <trkpt lat="37.5562" lon="-3.09005">
        <ele>631.578908</ele>
        <time>2022-02-24T14:58:07.835Z</time>
      </trkpt>
      <trkpt lat="37.55595" lon="-3.08994">
        <ele>630.293325</ele>
        <time>2022-02-24T14:58:12.040Z</time>
      </trkpt>
      <trkpt lat="37.55583" lon="-3.08973">
        <ele>629.288999</ele>
        <time>2022-02-24T14:58:17.766Z</time>
      </trkpt>
      <trkpt lat="37.55571" lon="-3.08964">
        <ele>628.605796</ele>
        <time>2022-02-24T14:58:21.959Z</time>
      </trkpt>
      <trkpt lat="37.55465" lon="-3.08964">
        <ele>623.498928</ele>
        <time>2022-02-24T14:58:52.062Z</time>
      </trkpt>
      <trkpt lat="37.55398" lon="-3.08908">
        <ele>622.565944</ele>
        <time>2022-02-24T14:59:18.315Z</time>
      </trkpt>
      <trkpt lat="37.5539" lon="-3.08907">
        <ele>622.513332</ele>
        <time>2022-02-24T14:59:20.870Z</time>
      </trkpt>
      <trkpt lat="37.5536" lon="-3.08922">
        <ele>622.270294</ele>
        <time>2022-02-24T14:59:32.899Z</time>
      </trkpt>
      <trkpt lat="37.55331" lon="-3.08952">
        <ele>621.999103</ele>
        <time>2022-02-24T14:59:47.672Z</time>
      </trkpt>
      <trkpt lat="37.55314" lon="-3.08958">
        <ele>621.869512</ele>
        <time>2022-02-24T14:59:55.229Z</time>
      </trkpt>
      <trkpt lat="37.5528" lon="-3.0896">
        <ele>622.35505</ele>
        <time>2022-02-24T15:00:10.596Z</time>
      </trkpt>
      <trkpt lat="37.55221" lon="-3.08943">
        <ele>624.016745</ele>
        <time>2022-02-24T15:00:40.252Z</time>
      </trkpt>
      <trkpt lat="37.55202" lon="-3.08922">
        <ele>624.706206</ele>
        <time>2022-02-24T15:00:53.410Z</time>
      </trkpt>
      <trkpt lat="37.55131" lon="-3.08888">
        <ele>626.853925</ele>
        <time>2022-02-24T15:01:34.677Z</time>
      </trkpt>
      <trkpt lat="37.55094" lon="-3.08878">
        <ele>628.743073</ele>
        <time>2022-02-24T15:01:56.539Z</time>
      </trkpt>
      <trkpt lat="37.55079" lon="-3.08879">
        <ele>629.484953</ele>
        <time>2022-02-24T15:02:05.194Z</time>
      </trkpt>
      <trkpt lat="37.55055" lon="-3.08895">
        <ele>630.770614</ele>
        <time>2022-02-24T15:02:20.379Z</time>
      </trkpt>
      <trkpt lat="37.55023" lon="-3.08946">
        <ele>633.32319</ele>
        <time>2022-02-24T15:02:51.128Z</time>
      </trkpt>
      <trkpt lat="37.55001" lon="-3.08949">
        <ele>634.391836</ele>
        <time>2022-02-24T15:03:05.290Z</time>
      </trkpt>
      <trkpt lat="37.54908" lon="-3.08994">
        <ele>642.349769</ele>
        <time>2022-02-24T15:04:21.042Z</time>
      </trkpt>
      <trkpt lat="37.54848" lon="-3.0903">
        <ele>648.255694</ele>
        <time>2022-02-24T15:05:18.411Z</time>
      </trkpt>
      <trkpt lat="37.54782" lon="-3.09084">
        <ele>655.926744</ele>
        <time>2022-02-24T15:06:27.888Z</time>
      </trkpt>
      <trkpt lat="37.54761" lon="-3.09141">
        <ele>661.178948</ele>
        <time>2022-02-24T15:07:13.134Z</time>
      </trkpt>
      <trkpt lat="37.54752" lon="-3.09146">
        <ele>662.225911</ele>
        <time>2022-02-24T15:07:21.979Z</time>
      </trkpt>
      <trkpt lat="37.5474" lon="-3.09144">
        <ele>663.479914</ele>
        <time>2022-02-24T15:07:33.199Z</time>
      </trkpt>
      <trkpt lat="37.54702" lon="-3.09094">
        <ele>669.32882</ele>
        <time>2022-02-24T15:08:22.927Z</time>
      </trkpt>
      <trkpt lat="37.54652" lon="-3.09068">
        <ele>675.723768</ele>
        <time>2022-02-24T15:09:10.607Z</time>
      </trkpt>
      <trkpt lat="37.54599" lon="-3.09007">
        <ele>684.525049</ele>
        <time>2022-02-24T15:10:18.788Z</time>
      </trkpt>
      <trkpt lat="37.54582" lon="-3.08998">
        <ele>686.831695</ele>
        <time>2022-02-24T15:10:38.237Z</time>
      </trkpt>
      <trkpt lat="37.5451" lon="-3.0898">
        <ele>695.95892</ele>
        <time>2022-02-24T15:11:58.590Z</time>
      </trkpt>
      <trkpt lat="37.54462" lon="-3.08947">
        <ele>703.115828</ele>
        <time>2022-02-24T15:12:59.183Z</time>
      </trkpt>
      <trkpt lat="37.54407" lon="-3.08897">
        <ele>711.863736</ele>
        <time>2022-02-24T15:14:08.145Z</time>
      </trkpt>
      <trkpt lat="37.54374" lon="-3.08881">
        <ele>716.322366</ele>
        <time>2022-02-24T15:14:41.953Z</time>
      </trkpt>
      <trkpt lat="37.54321" lon="-3.08839">
        <ele>720.821643</ele>
        <time>2022-02-24T15:15:33.927Z</time>
      </trkpt>
      <trkpt lat="37.54212" lon="-3.08789">
        <ele>729.218912</ele>
        <time>2022-02-24T15:16:51.199Z</time>
      </trkpt>
      <trkpt lat="37.54104" lon="-3.08685">
        <ele>734.738966</ele>
        <time>2022-02-24T15:18:06.862Z</time>
      </trkpt>
      <trkpt lat="37.54063" lon="-3.08656">
        <ele>736.677127</ele>
        <time>2022-02-24T15:18:33.023Z</time>
      </trkpt>
      <trkpt lat="37.53805" lon="-3.08557">
        <ele>748.785383</ele>
        <time>2022-02-24T15:21:11.819Z</time>
      </trkpt>
      <trkpt lat="37.53764" lon="-3.08555">
        <ele>750.789421</ele>
        <time>2022-02-24T15:21:39.216Z</time>
      </trkpt>
      <trkpt lat="37.53691" lon="-3.08539">
        <ele>753.883773</ele>
        <time>2022-02-24T15:22:26.840Z</time>
      </trkpt>
      <trkpt lat="37.53624" lon="-3.085">
        <ele>756.193134</ele>
        <time>2022-02-24T15:23:09.917Z</time>
      </trkpt>
      <trkpt lat="37.53592" lon="-3.08487">
        <ele>757.269903</ele>
        <time>2022-02-24T15:23:26.679Z</time>
      </trkpt>
      <trkpt lat="37.53586" lon="-3.08464">
        <ele>757.860699</ele>
        <time>2022-02-24T15:23:34.568Z</time>
      </trkpt>
      <trkpt lat="37.5359" lon="-3.08452">
        <ele>758.181816</ele>
        <time>2022-02-24T15:23:38.889Z</time>
      </trkpt>
      <trkpt lat="37.53636" lon="-3.08375">
        <ele>758.100823</ele>
        <time>2022-02-24T15:24:06.454Z</time>
      </trkpt>
      <trkpt lat="37.53659" lon="-3.08313">
        <ele>757.716506</ele>
        <time>2022-02-24T15:24:24.389Z</time>
      </trkpt>
      <trkpt lat="37.5366" lon="-3.08293">
        <ele>757.605724</ele>
        <time>2022-02-24T15:24:29.495Z</time>
      </trkpt>
      <trkpt lat="37.53629" lon="-3.08092">
        <ele>757.489679</ele>
        <time>2022-02-24T15:25:27.006Z</time>
      </trkpt>
      <trkpt lat="37.53629" lon="-3.0804">
        <ele>757.562959</ele>
        <time>2022-02-24T15:25:44.946Z</time>
      </trkpt>
      <trkpt lat="37.53639" lon="-3.0796">
        <ele>758.194548</ele>
        <time>2022-02-24T15:26:15.012Z</time>
      </trkpt>
      <trkpt lat="37.53636" lon="-3.07927">
        <ele>758.570266</ele>
        <time>2022-02-24T15:26:28.361Z</time>
      </trkpt>
      <trkpt lat="37.53622" lon="-3.07883">
        <ele>759.094608</ele>
        <time>2022-02-24T15:26:47.715Z</time>
      </trkpt>
      <trkpt lat="37.53618" lon="-3.07846">
        <ele>759.507604</ele>
        <time>2022-02-24T15:27:02.742Z</time>
      </trkpt>
      <trkpt lat="37.53625" lon="-3.0768">
        <ele>757.268071</ele>
        <time>2022-02-24T15:27:47.796Z</time>
      </trkpt>
      <trkpt lat="37.53626" lon="-3.07663">
        <ele>756.841903</ele>
        <time>2022-02-24T15:27:51.686Z</time>
      </trkpt>
      <trkpt lat="37.53624" lon="-3.07467">
        <ele>750.378441</ele>
        <time>2022-02-24T15:28:35.652Z</time>
      </trkpt>
      <trkpt lat="37.53629" lon="-3.07416">
        <ele>748.31169</ele>
        <time>2022-02-24T15:28:47.025Z</time>
      </trkpt>
      <trkpt lat="37.53637" lon="-3.07396">
        <ele>747.413189</ele>
        <time>2022-02-24T15:28:52.152Z</time>
      </trkpt>
      <trkpt lat="37.5366" lon="-3.07366">
        <ele>745.71369</ele>
        <time>2022-02-24T15:29:02.014Z</time>
      </trkpt>
      <trkpt lat="37.53668" lon="-3.07338">
        <ele>745.067086</ele>
        <time>2022-02-24T15:29:08.935Z</time>
      </trkpt>
      <trkpt lat="37.53721" lon="-3.07322">
        <ele>744.575887</ele>
        <time>2022-02-24T15:29:26.041Z</time>
      </trkpt>
      <trkpt lat="37.53736" lon="-3.07309">
        <ele>744.414196</ele>
        <time>2022-02-24T15:29:33.860Z</time>
      </trkpt>
      <trkpt lat="37.53744" lon="-3.07295">
        <ele>744.297532</ele>
        <time>2022-02-24T15:29:37.871Z</time>
      </trkpt>
      <trkpt lat="37.53761" lon="-3.07219">
        <ele>743.731917</ele>
        <time>2022-02-24T15:30:04.645Z</time>
      </trkpt>
      <trkpt lat="37.53768" lon="-3.07206">
        <ele>743.621853</ele>
        <time>2022-02-24T15:30:08.547Z</time>
      </trkpt>
      <trkpt lat="37.53783" lon="-3.0719">
        <ele>743.926664</ele>
        <time>2022-02-24T15:30:20.286Z</time>
      </trkpt>
      <trkpt lat="37.53799" lon="-3.07184">
        <ele>744.341089</ele>
        <time>2022-02-24T15:30:25.943Z</time>
      </trkpt>
      <trkpt lat="37.53828" lon="-3.07184">
        <ele>745.074125</ele>
        <time>2022-02-24T15:30:41.496Z</time>
      </trkpt>
      <trkpt lat="37.53833" lon="-3.0717">
        <ele>745.384082</ele>
        <time>2022-02-24T15:30:48.150Z</time>
      </trkpt>
      <trkpt lat="37.53801" lon="-3.07078">
        <ele>747.367913</ele>
        <time>2022-02-24T15:31:28.502Z</time>
      </trkpt>
      <trkpt lat="37.53776" lon="-3.07038">
        <ele>748.413083</ele>
        <time>2022-02-24T15:31:49.960Z</time>
      </trkpt>
      <trkpt lat="37.53773" lon="-3.0701">
        <ele>748.994543</ele>
        <time>2022-02-24T15:32:02.340Z</time>
      </trkpt>
      <trkpt lat="37.53781" lon="-3.07003">
        <ele>749.252033</ele>
        <time>2022-02-24T15:32:07.170Z</time>
      </trkpt>
      <trkpt lat="37.53793" lon="-3.07007">
        <ele>749.579624</ele>
        <time>2022-02-24T15:32:13.677Z</time>
      </trkpt>
      <trkpt lat="37.53814" lon="-3.07033">
        <ele>750.353407</ele>
        <time>2022-02-24T15:32:28.264Z</time>
      </trkpt>
      <trkpt lat="37.53884" lon="-3.07058">
        <ele>752.247449</ele>
        <time>2022-02-24T15:33:02.243Z</time>
      </trkpt>
      <trkpt lat="37.53892" lon="-3.07054">
        <ele>752.465737</ele>
        <time>2022-02-24T15:33:06.900Z</time>
      </trkpt>
      <trkpt lat="37.53894" lon="-3.0704">
        <ele>752.762767</ele>
        <time>2022-02-24T15:33:12.966Z</time>
      </trkpt>
      <trkpt lat="37.5388" lon="-3.06987">
        <ele>754.376575</ele>
        <time>2022-02-24T15:33:34.930Z</time>
      </trkpt>
      <trkpt lat="37.53837" lon="-3.0692">
        <ele>756.890668</ele>
        <time>2022-02-24T15:34:13.482Z</time>
      </trkpt>
      <trkpt lat="37.53826" lon="-3.06864">
        <ele>758.594163</ele>
        <time>2022-02-24T15:34:40.964Z</time>
      </trkpt>
      <trkpt lat="37.5382" lon="-3.06794">
        <ele>761.340968</ele>
        <time>2022-02-24T15:35:12.389Z</time>
      </trkpt>
      <trkpt lat="37.53787" lon="-3.06756">
        <ele>763.943787</ele>
        <time>2022-02-24T15:35:39.968Z</time>
      </trkpt>
      <trkpt lat="37.53729" lon="-3.06723">
        <ele>767.671912</ele>
        <time>2022-02-24T15:36:23.976Z</time>
      </trkpt>
      <trkpt lat="37.5372" lon="-3.06713">
        <ele>768.400031</ele>
        <time>2022-02-24T15:36:32.902Z</time>
      </trkpt>
      <trkpt lat="37.53716" lon="-3.067">
        <ele>769.002119</ele>
        <time>2022-02-24T15:36:39.953Z</time>
      </trkpt>
      <trkpt lat="37.53721" lon="-3.06655">
        <ele>771.77132</ele>
        <time>2022-02-24T15:37:06.716Z</time>
      </trkpt>
      <trkpt lat="37.53777" lon="-3.06529">
        <ele>782.008623</ele>
        <time>2022-02-24T15:38:40.379Z</time>
      </trkpt>
      <trkpt lat="37.53802" lon="-3.06481">
        <ele>786.066562</ele>
        <time>2022-02-24T15:39:22.811Z</time>
      </trkpt>
      <trkpt lat="37.5385" lon="-3.06408">
        <ele>792.069162</ele>
        <time>2022-02-24T15:40:25.911Z</time>
      </trkpt>
      <trkpt lat="37.5384" lon="-3.06389">
        <ele>793.502716</ele>
        <time>2022-02-24T15:40:39.547Z</time>
      </trkpt>
      <trkpt lat="37.53848" lon="-3.06365">
        <ele>795.142108</ele>
        <time>2022-02-24T15:40:54.079Z</time>
      </trkpt>
      <trkpt lat="37.53871" lon="-3.06347">
        <ele>797.233684</ele>
        <time>2022-02-24T15:41:12.063Z</time>
      </trkpt>
      <trkpt lat="37.53893" lon="-3.06276">
        <ele>801.784003</ele>
        <time>2022-02-24T15:41:53.605Z</time>
      </trkpt>
      <trkpt lat="37.53867" lon="-3.06255">
        <ele>803.854953</ele>
        <time>2022-02-24T15:42:14.770Z</time>
      </trkpt>
      <trkpt lat="37.53865" lon="-3.06214">
        <ele>806.070004</ele>
        <time>2022-02-24T15:42:38.284Z</time>
      </trkpt>
      <trkpt lat="37.53831" lon="-3.06203">
        <ele>808.399416</ele>
        <time>2022-02-24T15:43:02.318Z</time>
      </trkpt>
      <trkpt lat="37.53786" lon="-3.06165">
        <ele>812.107187</ele>
        <time>2022-02-24T15:43:41.781Z</time>
      </trkpt>
      <trkpt lat="37.53768" lon="-3.06142">
        <ele>813.996852</ele>
        <time>2022-02-24T15:44:00.267Z</time>
      </trkpt>
      <trkpt lat="37.53733" lon="-3.06124">
        <ele>816.786811</ele>
        <time>2022-02-24T15:44:28.978Z</time>
      </trkpt>
      <trkpt lat="37.53707" lon="-3.06075">
        <ele>820.26994</ele>
        <time>2022-02-24T15:45:07.267Z</time>
      </trkpt>
      <trkpt lat="37.53712" lon="-3.06052">
        <ele>821.663456</ele>
        <time>2022-02-24T15:45:21.397Z</time>
      </trkpt>
      <trkpt lat="37.53708" lon="-3.06008">
        <ele>824.278331</ele>
        <time>2022-02-24T15:45:48.213Z</time>
      </trkpt>
      <trkpt lat="37.53644" lon="-3.05973">
        <ele>827.644902</ele>
        <time>2022-02-24T15:46:34.215Z</time>
      </trkpt>
      <trkpt lat="37.53615" lon="-3.05978">
        <ele>828.744322</ele>
        <time>2022-02-24T15:46:49.931Z</time>
      </trkpt>
      <trkpt lat="37.53573" lon="-3.05939">
        <ele>830.672137</ele>
        <time>2022-02-24T15:47:16.625Z</time>
      </trkpt>
      <trkpt lat="37.53585" lon="-3.05921">
        <ele>831.383471</ele>
        <time>2022-02-24T15:47:26.191Z</time>
      </trkpt>
      <trkpt lat="37.53611" lon="-3.05929">
        <ele>832.380018</ele>
        <time>2022-02-24T15:47:39.240Z</time>
      </trkpt>
      <trkpt lat="37.53634" lon="-3.05917">
        <ele>833.031856</ele>
        <time>2022-02-24T15:47:50.732Z</time>
      </trkpt>
      <trkpt lat="37.53656" lon="-3.05919">
        <ele>833.576975</ele>
        <time>2022-02-24T15:48:00.554Z</time>
      </trkpt>
      <trkpt lat="37.53688" lon="-3.05889">
        <ele>834.553866</ele>
        <time>2022-02-24T15:48:19.105Z</time>
      </trkpt>
      <trkpt lat="37.53687" lon="-3.05865">
        <ele>835.018618</ele>
        <time>2022-02-24T15:48:28.509Z</time>
      </trkpt>
      <trkpt lat="37.53619" lon="-3.05885">
        <ele>836.751685</ele>
        <time>2022-02-24T15:49:04.259Z</time>
      </trkpt>
      <trkpt lat="37.53603" lon="-3.05867">
        <ele>837.260787</ele>
        <time>2022-02-24T15:49:15.642Z</time>
      </trkpt>
      <trkpt lat="37.53569" lon="-3.05859">
        <ele>838.10825</ele>
        <time>2022-02-24T15:49:34.384Z</time>
      </trkpt>
      <trkpt lat="37.53554" lon="-3.05897">
        <ele>838.93315</ele>
        <time>2022-02-24T15:49:52.236Z</time>
      </trkpt>
      <trkpt lat="37.5344" lon="-3.05919">
        <ele>841.162589</ele>
        <time>2022-02-24T15:50:47.236Z</time>
      </trkpt>
      <trkpt lat="37.53421" lon="-3.05906">
        <ele>840.971461</ele>
        <time>2022-02-24T15:50:56.541Z</time>
      </trkpt>
      <trkpt lat="37.53327" lon="-3.05911">
        <ele>840.154252</ele>
        <time>2022-02-24T15:51:28.103Z</time>
      </trkpt>
      <trkpt lat="37.53317" lon="-3.05899">
        <ele>840.038042</ele>
        <time>2022-02-24T15:51:32.437Z</time>
      </trkpt>
      <trkpt lat="37.53315" lon="-3.05879">
        <ele>839.897278</ele>
        <time>2022-02-24T15:51:37.503Z</time>
      </trkpt>
      <trkpt lat="37.53312" lon="-3.05862">
        <ele>839.778761</ele>
        <time>2022-02-24T15:51:41.763Z</time>
      </trkpt>
      <trkpt lat="37.53294" lon="-3.05819">
        <ele>839.046853</ele>
        <time>2022-02-24T15:51:53.933Z</time>
      </trkpt>
      <trkpt lat="37.53263" lon="-3.05799">
        <ele>838.331577</ele>
        <time>2022-02-24T15:52:05.180Z</time>
      </trkpt>
      <trkpt lat="37.53234" lon="-3.05807">
        <ele>837.744197</ele>
        <time>2022-02-24T15:52:14.579Z</time>
      </trkpt>
      <trkpt lat="37.53222" lon="-3.05763">
        <ele>836.99571</ele>
        <time>2022-02-24T15:52:26.677Z</time>
      </trkpt>
      <trkpt lat="37.53185" lon="-3.05761">
        <ele>836.253857</ele>
        <time>2022-02-24T15:52:38.775Z</time>
      </trkpt>
      <trkpt lat="37.53143" lon="-3.05737">
        <ele>835.91034</ele>
        <time>2022-02-24T15:52:54.829Z</time>
      </trkpt>
      <trkpt lat="37.5312" lon="-3.05737">
        <ele>835.79621</ele>
        <time>2022-02-24T15:53:03.029Z</time>
      </trkpt>
      <trkpt lat="37.53097" lon="-3.05709">
        <ele>835.637453</ele>
        <time>2022-02-24T15:53:14.516Z</time>
      </trkpt>
      <trkpt lat="37.53053" lon="-3.05672">
        <ele>835.372722</ele>
        <time>2022-02-24T15:53:33.634Z</time>
      </trkpt>
      <trkpt lat="37.52996" lon="-3.05656">
        <ele>835.658699</ele>
        <time>2022-02-24T15:53:55.096Z</time>
      </trkpt>
      <trkpt lat="37.52994" lon="-3.05608">
        <ele>836.322709</ele>
        <time>2022-02-24T15:54:09.623Z</time>
      </trkpt>
      <trkpt lat="37.53008" lon="-3.05522">
        <ele>837.561248</ele>
        <time>2022-02-24T15:54:38.746Z</time>
      </trkpt>
      <trkpt lat="37.52969" lon="-3.0555">
        <ele>838.355908</ele>
        <time>2022-02-24T15:55:05.788Z</time>
      </trkpt>
      <trkpt lat="37.52928" lon="-3.05561">
        <ele>840.811753</ele>
        <time>2022-02-24T15:55:32.292Z</time>
      </trkpt>
      <trkpt lat="37.52899" lon="-3.05584">
        <ele>842.861333</ele>
        <time>2022-02-24T15:55:55.402Z</time>
      </trkpt>
      <trkpt lat="37.52861" lon="-3.05603">
        <ele>845.375447</ele>
        <time>2022-02-24T15:56:25.830Z</time>
      </trkpt>
      <trkpt lat="37.52832" lon="-3.05608">
        <ele>847.118765</ele>
        <time>2022-02-24T15:56:47.052Z</time>
      </trkpt>
      <trkpt lat="37.52817" lon="-3.05616">
        <ele>848.093616</ele>
        <time>2022-02-24T15:56:58.524Z</time>
      </trkpt>
      <trkpt lat="37.52809" lon="-3.05631">
        <ele>848.96894</ele>
        <time>2022-02-24T15:57:07.751Z</time>
      </trkpt>
      <trkpt lat="37.52802" lon="-3.05674">
        <ele>849.939283</ele>
        <time>2022-02-24T15:57:30.736Z</time>
      </trkpt>
      <trkpt lat="37.52789" lon="-3.05692">
        <ele>850.368273</ele>
        <time>2022-02-24T15:57:43.742Z</time>
      </trkpt>
      <trkpt lat="37.52765" lon="-3.05686">
        <ele>850.920336</ele>
        <time>2022-02-24T15:57:58.378Z</time>
      </trkpt>
      <trkpt lat="37.52719" lon="-3.05662">
        <ele>852.057162</ele>
        <time>2022-02-24T15:58:22.585Z</time>
      </trkpt>
      <trkpt lat="37.52682" lon="-3.05655">
        <ele>852.89456</ele>
        <time>2022-02-24T15:58:35.058Z</time>
      </trkpt>
      <trkpt lat="37.52617" lon="-3.05687">
        <ele>852.141482</ele>
        <time>2022-02-24T15:58:57.210Z</time>
      </trkpt>
      <trkpt lat="37.5252" lon="-3.05708">
        <ele>849.78936</ele>
        <time>2022-02-24T15:59:27.817Z</time>
      </trkpt>
      <trkpt lat="37.52432" lon="-3.05698">
        <ele>849.31864</ele>
        <time>2022-02-24T15:59:57.099Z</time>
      </trkpt>
      <trkpt lat="37.52372" lon="-3.05667">
        <ele>849.616885</ele>
        <time>2022-02-24T16:00:20.935Z</time>
      </trkpt>
      <trkpt lat="37.52228" lon="-3.05708">
        <ele>853.261726</ele>
        <time>2022-02-24T16:01:41.194Z</time>
      </trkpt>
      <trkpt lat="37.5218" lon="-3.05713">
        <ele>855.038947</ele>
        <time>2022-02-24T16:02:09.628Z</time>
      </trkpt>
      <trkpt lat="37.52153" lon="-3.05724">
        <ele>856.099373</ele>
        <time>2022-02-24T16:02:25.591Z</time>
      </trkpt>
      <trkpt lat="37.52126" lon="-3.05744">
        <ele>857.424935</ele>
        <time>2022-02-24T16:02:43.368Z</time>
      </trkpt>
      <trkpt lat="37.52112" lon="-3.05746">
        <ele>858.059127</ele>
        <time>2022-02-24T16:02:51.790Z</time>
      </trkpt>
      <trkpt lat="37.52062" lon="-3.05722">
        <ele>860.449712</ele>
        <time>2022-02-24T16:03:20.706Z</time>
      </trkpt>
      <trkpt lat="37.52048" lon="-3.05706">
        <ele>861.281804</ele>
        <time>2022-02-24T16:03:33.220Z</time>
      </trkpt>
      <trkpt lat="37.51983" lon="-3.05655">
        <ele>864.738551</ele>
        <time>2022-02-24T16:04:20.802Z</time>
      </trkpt>
      <trkpt lat="37.51956" lon="-3.05626">
        <ele>866.685193</ele>
        <time>2022-02-24T16:04:43.037Z</time>
      </trkpt>
      <trkpt lat="37.5194" lon="-3.05624">
        <ele>867.540409</ele>
        <time>2022-02-24T16:04:52.407Z</time>
      </trkpt>
      <trkpt lat="37.51933" lon="-3.05632">
        <ele>868.044953</ele>
        <time>2022-02-24T16:04:58.504Z</time>
      </trkpt>
      <trkpt lat="37.51936" lon="-3.05657">
        <ele>869.115022</ele>
        <time>2022-02-24T16:05:11.964Z</time>
      </trkpt>
      <trkpt lat="37.51954" lon="-3.05691">
        <ele>870.909427</ele>
        <time>2022-02-24T16:05:33.079Z</time>
      </trkpt>
      <trkpt lat="37.51979" lon="-3.05768">
        <ele>874.479856</ele>
        <time>2022-02-24T16:06:16.389Z</time>
      </trkpt>
      <trkpt lat="37.51969" lon="-3.05783">
        <ele>875.161729</ele>
        <time>2022-02-24T16:06:26.569Z</time>
      </trkpt>
      <trkpt lat="37.51942" lon="-3.05793">
        <ele>876.414803</ele>
        <time>2022-02-24T16:06:47.182Z</time>
      </trkpt>
      <trkpt lat="37.51932" lon="-3.05787">
        <ele>876.885529</ele>
        <time>2022-02-24T16:06:53.098Z</time>
      </trkpt>
      <trkpt lat="37.51915" lon="-3.05788">
        <ele>877.636682</ele>
        <time>2022-02-24T16:07:01.980Z</time>
      </trkpt>
      <trkpt lat="37.51904" lon="-3.05803">
        <ele>878.340966</ele>
        <time>2022-02-24T16:07:10.584Z</time>
      </trkpt>
      <trkpt lat="37.51882" lon="-3.0581">
        <ele>879.338212</ele>
        <time>2022-02-24T16:07:22.790Z</time>
      </trkpt>
      <trkpt lat="37.51869" lon="-3.05821">
        <ele>880.020776</ele>
        <time>2022-02-24T16:07:31.478Z</time>
      </trkpt>
      <trkpt lat="37.51833" lon="-3.05806">
        <ele>881.723997</ele>
        <time>2022-02-24T16:07:53.525Z</time>
      </trkpt>
      <trkpt lat="37.51805" lon="-3.05811">
        <ele>882.815032</ele>
        <time>2022-02-24T16:08:09.434Z</time>
      </trkpt>
      <trkpt lat="37.5178" lon="-3.05808">
        <ele>883.684316</ele>
        <time>2022-02-24T16:08:23.945Z</time>
      </trkpt>
      <trkpt lat="37.51771" lon="-3.058">
        <ele>884.07978</ele>
        <time>2022-02-24T16:08:30.365Z</time>
      </trkpt>
      <trkpt lat="37.51714" lon="-3.05774">
        <ele>886.187574</ele>
        <time>2022-02-24T16:09:04.970Z</time>
      </trkpt>
      <trkpt lat="37.51692" lon="-3.05775">
        <ele>886.974391</ele>
        <time>2022-02-24T16:09:17.102Z</time>
      </trkpt>
      <trkpt lat="37.51659" lon="-3.05758">
        <ele>888.201216</ele>
        <time>2022-02-24T16:09:35.483Z</time>
      </trkpt>
      <trkpt lat="37.51612" lon="-3.05753">
        <ele>888.876605</ele>
        <time>2022-02-24T16:09:58.075Z</time>
      </trkpt>
      <trkpt lat="37.51596" lon="-3.05741">
        <ele>889.028259</ele>
        <time>2022-02-24T16:10:06.588Z</time>
      </trkpt>
      <trkpt lat="37.51568" lon="-3.05699">
        <ele>889.372958</ele>
        <time>2022-02-24T16:10:24.452Z</time>
      </trkpt>
      <trkpt lat="37.51555" lon="-3.0569">
        <ele>889.491094</ele>
        <time>2022-02-24T16:10:30.280Z</time>
      </trkpt>
      <trkpt lat="37.51437" lon="-3.0563">
        <ele>889.931646</ele>
        <time>2022-02-24T16:11:16.046Z</time>
      </trkpt>
      <trkpt lat="37.5141" lon="-3.05637">
        <ele>889.890571</ele>
        <time>2022-02-24T16:11:25.772Z</time>
      </trkpt>
      <trkpt lat="37.51382" lon="-3.05668">
        <ele>889.835127</ele>
        <time>2022-02-24T16:11:39.262Z</time>
      </trkpt>
      <trkpt lat="37.5141" lon="-3.05637">
        <ele>889.779682</ele>
        <time>2022-02-24T16:11:53.446Z</time>
      </trkpt>
      <trkpt lat="37.51437" lon="-3.0563">
        <ele>889.754585</ele>
        <time>2022-02-24T16:12:04.444Z</time>
      </trkpt>
      <trkpt lat="37.51555" lon="-3.0569">
        <ele>889.769593</ele>
        <time>2022-02-24T16:12:54.519Z</time>
      </trkpt>
      <trkpt lat="37.51568" lon="-3.05699">
        <ele>889.771342</ele>
        <time>2022-02-24T16:12:59.845Z</time>
      </trkpt>
      <trkpt lat="37.51596" lon="-3.05741">
        <ele>889.362653</ele>
        <time>2022-02-24T16:13:14.972Z</time>
      </trkpt>
      <trkpt lat="37.51612" lon="-3.05753">
        <ele>888.869163</ele>
        <time>2022-02-24T16:13:21.388Z</time>
      </trkpt>
      <trkpt lat="37.51659" lon="-3.05758">
        <ele>887.656377</ele>
        <time>2022-02-24T16:13:36.436Z</time>
      </trkpt>
      <trkpt lat="37.51692" lon="-3.05775">
        <ele>886.744257</ele>
        <time>2022-02-24T16:13:47.394Z</time>
      </trkpt>
      <trkpt lat="37.51714" lon="-3.05774">
        <ele>886.159274</ele>
        <time>2022-02-24T16:13:54.299Z</time>
      </trkpt>
      <trkpt lat="37.51771" lon="-3.058">
        <ele>884.295507</ele>
        <time>2022-02-24T16:14:12.375Z</time>
      </trkpt>
      <trkpt lat="37.5178" lon="-3.05808">
        <ele>883.837642</ele>
        <time>2022-02-24T16:14:15.792Z</time>
      </trkpt>
      <trkpt lat="37.51805" lon="-3.05811">
        <ele>882.831192</ele>
        <time>2022-02-24T16:14:23.166Z</time>
      </trkpt>
      <trkpt lat="37.51833" lon="-3.05806">
        <ele>881.718154</ele>
        <time>2022-02-24T16:14:31.373Z</time>
      </trkpt>
      <trkpt lat="37.51869" lon="-3.05821">
        <ele>880.161937</ele>
        <time>2022-02-24T16:14:42.938Z</time>
      </trkpt>
      <trkpt lat="37.51882" lon="-3.0581">
        <ele>879.538286</ele>
        <time>2022-02-24T16:14:47.571Z</time>
      </trkpt>
      <trkpt lat="37.51904" lon="-3.05803">
        <ele>878.627112</ele>
        <time>2022-02-24T16:14:54.500Z</time>
      </trkpt>
      <trkpt lat="37.51915" lon="-3.05788">
        <ele>877.983614</ele>
        <time>2022-02-24T16:14:59.368Z</time>
      </trkpt>
      <trkpt lat="37.51932" lon="-3.05787">
        <ele>877.111521</ele>
        <time>2022-02-24T16:15:04.664Z</time>
      </trkpt>
      <trkpt lat="37.51942" lon="-3.05793">
        <ele>876.545058</ele>
        <time>2022-02-24T16:15:07.881Z</time>
      </trkpt>
      <trkpt lat="37.51969" lon="-3.05783">
        <ele>875.037134</ele>
        <time>2022-02-24T16:15:15.646Z</time>
      </trkpt>
      <trkpt lat="37.51979" lon="-3.05768">
        <ele>874.21658</ele>
        <time>2022-02-24T16:15:19.986Z</time>
      </trkpt>
      <trkpt lat="37.51954" lon="-3.05691">
        <ele>870.711785</ele>
        <time>2022-02-24T16:15:38.651Z</time>
      </trkpt>
      <trkpt lat="37.51936" lon="-3.05657">
        <ele>868.957869</ele>
        <time>2022-02-24T16:15:48.083Z</time>
      </trkpt>
      <trkpt lat="37.51933" lon="-3.05632">
        <ele>867.944315</ele>
        <time>2022-02-24T16:15:53.563Z</time>
      </trkpt>
      <trkpt lat="37.5194" lon="-3.05624">
        <ele>867.487932</ele>
        <time>2022-02-24T16:15:56.201Z</time>
      </trkpt>
      <trkpt lat="37.51956" lon="-3.05626">
        <ele>866.714351</ele>
        <time>2022-02-24T16:16:00.841Z</time>
      </trkpt>
      <trkpt lat="37.51983" lon="-3.05655">
        <ele>864.953526</ele>
        <time>2022-02-24T16:16:11.185Z</time>
      </trkpt>
      <trkpt lat="37.52048" lon="-3.05706">
        <ele>861.184275</ele>
        <time>2022-02-24T16:16:33.335Z</time>
      </trkpt>
      <trkpt lat="37.52062" lon="-3.05722">
        <ele>860.273193</ele>
        <time>2022-02-24T16:16:38.507Z</time>
      </trkpt>
      <trkpt lat="37.52112" lon="-3.05746">
        <ele>858.006529</ele>
        <time>2022-02-24T16:16:54.757Z</time>
      </trkpt>
      <trkpt lat="37.52126" lon="-3.05744">
        <ele>857.442813</ele>
        <time>2022-02-24T16:16:58.924Z</time>
      </trkpt>
      <trkpt lat="37.52153" lon="-3.05724">
        <ele>856.176272</ele>
        <time>2022-02-24T16:17:08.492Z</time>
      </trkpt>
      <trkpt lat="37.5218" lon="-3.05713">
        <ele>855.045032</ele>
        <time>2022-02-24T16:17:16.981Z</time>
      </trkpt>
      <trkpt lat="37.52228" lon="-3.05708">
        <ele>853.149131</ele>
        <time>2022-02-24T16:17:30.919Z</time>
      </trkpt>
      <trkpt lat="37.52372" lon="-3.05667">
        <ele>849.460413</ele>
        <time>2022-02-24T16:18:15.852Z</time>
      </trkpt>
      <trkpt lat="37.52432" lon="-3.05698">
        <ele>848.519554</ele>
        <time>2022-02-24T16:18:40.248Z</time>
      </trkpt>
      <trkpt lat="37.5252" lon="-3.05708">
        <ele>850.212455</ele>
        <time>2022-02-24T16:19:21.063Z</time>
      </trkpt>
      <trkpt lat="37.52617" lon="-3.05687">
        <ele>851.799796</ele>
        <time>2022-02-24T16:20:12.544Z</time>
      </trkpt>
      <trkpt lat="37.52682" lon="-3.05655">
        <ele>852.12911</ele>
        <time>2022-02-24T16:20:46.968Z</time>
      </trkpt>
      <trkpt lat="37.52719" lon="-3.05662">
        <ele>852.303326</ele>
        <time>2022-02-24T16:21:03.079Z</time>
      </trkpt>
      <trkpt lat="37.52765" lon="-3.05686">
        <ele>852.539837</ele>
        <time>2022-02-24T16:21:19.163Z</time>
      </trkpt>
      <trkpt lat="37.52789" lon="-3.05692">
        <ele>851.361785</ele>
        <time>2022-02-24T16:21:26.222Z</time>
      </trkpt>
      <trkpt lat="37.52802" lon="-3.05674">
        <ele>850.31656</ele>
        <time>2022-02-24T16:21:31.489Z</time>
      </trkpt>
      <trkpt lat="37.52809" lon="-3.05631">
        <ele>848.383887</ele>
        <time>2022-02-24T16:21:41.327Z</time>
      </trkpt>
      <trkpt lat="37.52817" lon="-3.05616">
        <ele>847.582297</ele>
        <time>2022-02-24T16:21:45.452Z</time>
      </trkpt>
      <trkpt lat="37.52832" lon="-3.05608">
        <ele>846.689564</ele>
        <time>2022-02-24T16:21:49.898Z</time>
      </trkpt>
      <trkpt lat="37.52861" lon="-3.05603">
        <ele>845.093097</ele>
        <time>2022-02-24T16:21:57.691Z</time>
      </trkpt>
      <trkpt lat="37.52899" lon="-3.05584">
        <ele>842.790764</ele>
        <time>2022-02-24T16:22:09.213Z</time>
      </trkpt>
      <trkpt lat="37.52928" lon="-3.05561">
        <ele>841.680847</ele>
        <time>2022-02-24T16:22:18.769Z</time>
      </trkpt>
      <trkpt lat="37.52969" lon="-3.0555">
        <ele>840.419489</ele>
        <time>2022-02-24T16:22:30.820Z</time>
      </trkpt>
      <trkpt lat="37.53008" lon="-3.05522">
        <ele>839.06227</ele>
        <time>2022-02-24T16:22:44.311Z</time>
      </trkpt>
      <trkpt lat="37.53024" lon="-3.05513">
        <ele>838.53091</ele>
        <time>2022-02-24T16:22:51.926Z</time>
      </trkpt>
      <trkpt lat="37.53046" lon="-3.05511">
        <ele>837.857358</ele>
        <time>2022-02-24T16:22:59.833Z</time>
      </trkpt>
      <trkpt lat="37.53069" lon="-3.05529">
        <ele>837.172109</ele>
        <time>2022-02-24T16:23:11.220Z</time>
      </trkpt>
      <trkpt lat="37.53146" lon="-3.05518">
        <ele>837.141412</ele>
        <time>2022-02-24T16:23:42.012Z</time>
      </trkpt>
      <trkpt lat="37.53163" lon="-3.05509">
        <ele>837.134386</ele>
        <time>2022-02-24T16:23:50.544Z</time>
      </trkpt>
      <trkpt lat="37.53208" lon="-3.05425">
        <ele>837.103522</ele>
        <time>2022-02-24T16:24:17.948Z</time>
      </trkpt>
      <trkpt lat="37.53229" lon="-3.05353">
        <ele>837.200575</ele>
        <time>2022-02-24T16:24:39.300Z</time>
      </trkpt>
      <trkpt lat="37.53238" lon="-3.05334">
        <ele>837.229407</ele>
        <time>2022-02-24T16:24:45.810Z</time>
      </trkpt>
      <trkpt lat="37.533" lon="-3.05273">
        <ele>837.354477</ele>
        <time>2022-02-24T16:25:15.799Z</time>
      </trkpt>
      <trkpt lat="37.53361" lon="-3.05251">
        <ele>838.669924</ele>
        <time>2022-02-24T16:25:45.132Z</time>
      </trkpt>
      <trkpt lat="37.53431" lon="-3.05214">
        <ele>841.000228</ele>
        <time>2022-02-24T16:26:26.837Z</time>
      </trkpt>
      <trkpt lat="37.53481" lon="-3.05154">
        <ele>842.996721</ele>
        <time>2022-02-24T16:27:07.726Z</time>
      </trkpt>
      <trkpt lat="37.53528" lon="-3.05146">
        <ele>843.588407</ele>
        <time>2022-02-24T16:27:31.610Z</time>
      </trkpt>
      <trkpt lat="37.53568" lon="-3.05128">
        <ele>844.109485</ele>
        <time>2022-02-24T16:27:50.643Z</time>
      </trkpt>
      <trkpt lat="37.53619" lon="-3.05098">
        <ele>844.812968</ele>
        <time>2022-02-24T16:28:12.967Z</time>
      </trkpt>
      <trkpt lat="37.53741" lon="-3.0504">
        <ele>843.211616</ele>
        <time>2022-02-24T16:28:56.381Z</time>
      </trkpt>
      <trkpt lat="37.53762" lon="-3.05017">
        <ele>842.672696</ele>
        <time>2022-02-24T16:29:05.193Z</time>
      </trkpt>
      <trkpt lat="37.53791" lon="-3.05008">
        <ele>842.111412</ele>
        <time>2022-02-24T16:29:14.447Z</time>
      </trkpt>
      <trkpt lat="37.53823" lon="-3.04984">
        <ele>841.323535</ele>
        <time>2022-02-24T16:29:26.237Z</time>
      </trkpt>
      <trkpt lat="37.5385" lon="-3.04945">
        <ele>840.350895</ele>
        <time>2022-02-24T16:29:39.509Z</time>
      </trkpt>
      <trkpt lat="37.53863" lon="-3.04946">
        <ele>840.045593</ele>
        <time>2022-02-24T16:29:43.676Z</time>
      </trkpt>
      <trkpt lat="37.53866" lon="-3.04953">
        <ele>839.890366</ele>
        <time>2022-02-24T16:29:45.796Z</time>
      </trkpt>
      <trkpt lat="37.53868" lon="-3.04991">
        <ele>839.159575</ele>
        <time>2022-02-24T16:29:55.866Z</time>
      </trkpt>
      <trkpt lat="37.53872" lon="-3.05004">
        <ele>838.89923</ele>
        <time>2022-02-24T16:29:59.501Z</time>
      </trkpt>
      <trkpt lat="37.53875" lon="-3.05008">
        <ele>838.794015</ele>
        <time>2022-02-24T16:30:00.918Z</time>
      </trkpt>
      <trkpt lat="37.53888" lon="-3.05008">
        <ele>838.479228</ele>
        <time>2022-02-24T16:30:05.278Z</time>
      </trkpt>
      <trkpt lat="37.53914" lon="-3.04946">
        <ele>836.837575</ele>
        <time>2022-02-24T16:30:22.648Z</time>
      </trkpt>
      <trkpt lat="37.53926" lon="-3.04933">
        <ele>836.091731</ele>
        <time>2022-02-24T16:30:27.455Z</time>
      </trkpt>
      <trkpt lat="37.53959" lon="-3.04914">
        <ele>834.381431</ele>
        <time>2022-02-24T16:30:38.199Z</time>
      </trkpt>
      <trkpt lat="37.54058" lon="-3.04873">
        <ele>829.409145</ele>
        <time>2022-02-24T16:31:07.845Z</time>
      </trkpt>
      <trkpt lat="37.54114" lon="-3.04808">
        <ele>825.749245</ele>
        <time>2022-02-24T16:31:28.859Z</time>
      </trkpt>
      <trkpt lat="37.54139" lon="-3.04797">
        <ele>824.446802</ele>
        <time>2022-02-24T16:31:36.740Z</time>
      </trkpt>
      <trkpt lat="37.54182" lon="-3.04795">
        <ele>822.37049</ele>
        <time>2022-02-24T16:31:49.503Z</time>
      </trkpt>
      <trkpt lat="37.54209" lon="-3.04811">
        <ele>820.910581</ele>
        <time>2022-02-24T16:31:58.638Z</time>
      </trkpt>
      <trkpt lat="37.54212" lon="-3.04821">
        <ele>820.52266</ele>
        <time>2022-02-24T16:32:01.053Z</time>
      </trkpt>
      <trkpt lat="37.54204" lon="-3.04851">
        <ele>819.616711</ele>
        <time>2022-02-24T16:32:08.540Z</time>
      </trkpt>
      <trkpt lat="37.54218" lon="-3.04906">
        <ele>818.15998</ele>
        <time>2022-02-24T16:32:21.941Z</time>
      </trkpt>
      <trkpt lat="37.54222" lon="-3.04906">
        <ele>818.017518</ele>
        <time>2022-02-24T16:32:23.115Z</time>
      </trkpt>
      <trkpt lat="37.54225" lon="-3.04901">
        <ele>817.873931</ele>
        <time>2022-02-24T16:32:24.396Z</time>
      </trkpt>
      <trkpt lat="37.54217" lon="-3.04856">
        <ele>816.707181</ele>
        <time>2022-02-24T16:32:35.005Z</time>
      </trkpt>
      <trkpt lat="37.54221" lon="-3.04845">
        <ele>816.4248</ele>
        <time>2022-02-24T16:32:37.720Z</time>
      </trkpt>
      <trkpt lat="37.54236" lon="-3.04833">
        <ele>815.853075</ele>
        <time>2022-02-24T16:32:43.825Z</time>
      </trkpt>
      <trkpt lat="37.5429" lon="-3.04818">
        <ele>814.592191</ele>
        <time>2022-02-24T16:33:03.822Z</time>
      </trkpt>
      <trkpt lat="37.54315" lon="-3.04776">
        <ele>814.93639</ele>
        <time>2022-02-24T16:33:18.511Z</time>
      </trkpt>
    </trkseg>
  </trk>
</gpx>